<?xml version="1.0" encoding="UTF-8" standalone="no" ?>
<gpx xmlns="http://www.topografix.com/GPX/1/1" xmlns:xsi="http://www.w3.org/2001/XMLSchema-instance" xsi:schemaLocation="http://www.topografix.com/GPX/1/1 http://www.topografix.com/GPX/1/1/gpx.xsd" version="1.1" creator="VisuGPX - https://www.visugpx.com">
  <metadata>
    <name>11 mai 2024</name>
    <desc><![CDATA[Promenade du 3ème jour du rasso 2024]]></desc>
  </metadata>
  <trk>
    <name><![CDATA[11 mai 2024]]></name>
    <extensions>
      <line xmlns="http://www.topografix.com/GPX/gpx_style/0/2">
        <color>0000FF</color>
        <width>4</width>
      </line>
    </extensions>
    <trkseg>
      <trkpt lat="43.2085" lon="2.31298">
        <ele>118</ele>
        <time>2024-05-11T06:39:16Z</time>
      </trkpt>
      <trkpt lat="43.2085" lon="2.31298">
        <ele>118</ele>
        <time>2024-05-11T06:39:17Z</time>
      </trkpt>
      <trkpt lat="43.2085" lon="2.31298">
        <ele>118</ele>
        <time>2024-05-11T06:39:18Z</time>
      </trkpt>
      <trkpt lat="43.2085" lon="2.31298">
        <ele>118</ele>
        <time>2024-05-11T06:39:19Z</time>
      </trkpt>
      <trkpt lat="43.2085" lon="2.31298">
        <ele>118</ele>
        <time>2024-05-11T06:39:20Z</time>
      </trkpt>
      <trkpt lat="43.2085" lon="2.31298">
        <ele>118</ele>
        <time>2024-05-11T06:39:21Z</time>
      </trkpt>
      <trkpt lat="43.2085" lon="2.31298">
        <ele>118</ele>
        <time>2024-05-11T06:39:22Z</time>
      </trkpt>
      <trkpt lat="43.2085" lon="2.31298">
        <ele>118</ele>
        <time>2024-05-11T06:39:23Z</time>
      </trkpt>
      <trkpt lat="43.2085" lon="2.31298">
        <ele>118</ele>
        <time>2024-05-11T06:39:24Z</time>
      </trkpt>
      <trkpt lat="43.2085" lon="2.31298">
        <ele>118</ele>
        <time>2024-05-11T06:39:25Z</time>
      </trkpt>
      <trkpt lat="43.2085" lon="2.31298">
        <ele>118</ele>
        <time>2024-05-11T06:39:26Z</time>
      </trkpt>
      <trkpt lat="43.2085" lon="2.31298">
        <ele>118</ele>
        <time>2024-05-11T06:39:27Z</time>
      </trkpt>
      <trkpt lat="43.2085" lon="2.31298">
        <ele>118</ele>
        <time>2024-05-11T06:39:28Z</time>
      </trkpt>
      <trkpt lat="43.2085" lon="2.31298">
        <ele>118</ele>
        <time>2024-05-11T06:39:29Z</time>
      </trkpt>
      <trkpt lat="43.2085" lon="2.31298">
        <ele>118</ele>
        <time>2024-05-11T06:39:30Z</time>
      </trkpt>
      <trkpt lat="43.2085" lon="2.31298">
        <ele>118</ele>
        <time>2024-05-11T06:39:31Z</time>
      </trkpt>
      <trkpt lat="43.2085" lon="2.31299">
        <ele>118</ele>
        <time>2024-05-11T06:39:32Z</time>
      </trkpt>
      <trkpt lat="43.2085" lon="2.31299">
        <ele>118</ele>
        <time>2024-05-11T06:39:33Z</time>
      </trkpt>
      <trkpt lat="43.2085" lon="2.31299">
        <ele>118</ele>
        <time>2024-05-11T06:39:34Z</time>
      </trkpt>
      <trkpt lat="43.2085" lon="2.31299">
        <ele>118</ele>
        <time>2024-05-11T06:39:35Z</time>
      </trkpt>
      <trkpt lat="43.2085" lon="2.31299">
        <ele>118</ele>
        <time>2024-05-11T06:39:36Z</time>
      </trkpt>
      <trkpt lat="43.2085" lon="2.31299">
        <ele>118</ele>
        <time>2024-05-11T06:39:37Z</time>
      </trkpt>
      <trkpt lat="43.2085" lon="2.31299">
        <ele>118</ele>
        <time>2024-05-11T06:39:38Z</time>
      </trkpt>
      <trkpt lat="43.2085" lon="2.31299">
        <ele>118</ele>
        <time>2024-05-11T06:39:39Z</time>
      </trkpt>
      <trkpt lat="43.2085" lon="2.31299">
        <ele>118</ele>
        <time>2024-05-11T06:39:40Z</time>
      </trkpt>
      <trkpt lat="43.2085" lon="2.31299">
        <ele>118</ele>
        <time>2024-05-11T06:39:41Z</time>
      </trkpt>
      <trkpt lat="43.2085" lon="2.31299">
        <ele>118</ele>
        <time>2024-05-11T06:39:42Z</time>
      </trkpt>
      <trkpt lat="43.2085" lon="2.31299">
        <ele>118</ele>
        <time>2024-05-11T06:39:43Z</time>
      </trkpt>
      <trkpt lat="43.2085" lon="2.31299">
        <ele>118</ele>
        <time>2024-05-11T06:39:44Z</time>
      </trkpt>
      <trkpt lat="43.2085" lon="2.31299">
        <ele>118</ele>
        <time>2024-05-11T06:39:45Z</time>
      </trkpt>
      <trkpt lat="43.2085" lon="2.31299">
        <ele>118</ele>
        <time>2024-05-11T06:39:46Z</time>
      </trkpt>
      <trkpt lat="43.2085" lon="2.31299">
        <ele>118</ele>
        <time>2024-05-11T06:39:47Z</time>
      </trkpt>
      <trkpt lat="43.2085" lon="2.31299">
        <ele>118</ele>
        <time>2024-05-11T06:39:48Z</time>
      </trkpt>
      <trkpt lat="43.2085" lon="2.31299">
        <ele>118</ele>
        <time>2024-05-11T06:39:49Z</time>
      </trkpt>
      <trkpt lat="43.2085" lon="2.31299">
        <ele>118</ele>
        <time>2024-05-11T06:39:50Z</time>
      </trkpt>
      <trkpt lat="43.2085" lon="2.31299">
        <ele>118</ele>
        <time>2024-05-11T06:39:51Z</time>
      </trkpt>
      <trkpt lat="43.2085" lon="2.31299">
        <ele>118</ele>
        <time>2024-05-11T06:39:52Z</time>
      </trkpt>
      <trkpt lat="43.2085" lon="2.31299">
        <ele>118</ele>
        <time>2024-05-11T06:39:53Z</time>
      </trkpt>
      <trkpt lat="43.2085" lon="2.31299">
        <ele>118</ele>
        <time>2024-05-11T06:39:54Z</time>
      </trkpt>
      <trkpt lat="43.2085" lon="2.31299">
        <ele>118</ele>
        <time>2024-05-11T06:39:55Z</time>
      </trkpt>
      <trkpt lat="43.2085" lon="2.31299">
        <ele>118</ele>
        <time>2024-05-11T06:39:56Z</time>
      </trkpt>
      <trkpt lat="43.2085" lon="2.31299">
        <ele>118</ele>
        <time>2024-05-11T06:39:57Z</time>
      </trkpt>
      <trkpt lat="43.2085" lon="2.31299">
        <ele>118</ele>
        <time>2024-05-11T06:39:58Z</time>
      </trkpt>
      <trkpt lat="43.2085" lon="2.31299">
        <ele>118</ele>
        <time>2024-05-11T06:39:59Z</time>
      </trkpt>
      <trkpt lat="43.2085" lon="2.31299">
        <ele>118</ele>
        <time>2024-05-11T06:40:00Z</time>
      </trkpt>
      <trkpt lat="43.2085" lon="2.31299">
        <ele>118</ele>
        <time>2024-05-11T06:40:01Z</time>
      </trkpt>
      <trkpt lat="43.2085" lon="2.31299">
        <ele>118</ele>
        <time>2024-05-11T06:40:02Z</time>
      </trkpt>
      <trkpt lat="43.2085" lon="2.31299">
        <ele>118</ele>
        <time>2024-05-11T06:40:03Z</time>
      </trkpt>
      <trkpt lat="43.2085" lon="2.31299">
        <ele>118</ele>
        <time>2024-05-11T06:40:04Z</time>
      </trkpt>
      <trkpt lat="43.2085" lon="2.31299">
        <ele>118</ele>
        <time>2024-05-11T06:40:05Z</time>
      </trkpt>
      <trkpt lat="43.2085" lon="2.31299">
        <ele>118</ele>
        <time>2024-05-11T06:40:06Z</time>
      </trkpt>
      <trkpt lat="43.2085" lon="2.31299">
        <ele>118</ele>
        <time>2024-05-11T06:40:07Z</time>
      </trkpt>
      <trkpt lat="43.2085" lon="2.31299">
        <ele>118</ele>
        <time>2024-05-11T06:40:08Z</time>
      </trkpt>
      <trkpt lat="43.2085" lon="2.31299">
        <ele>118</ele>
        <time>2024-05-11T06:40:09Z</time>
      </trkpt>
      <trkpt lat="43.2085" lon="2.31299">
        <ele>118</ele>
        <time>2024-05-11T06:40:10Z</time>
      </trkpt>
      <trkpt lat="43.2085" lon="2.31299">
        <ele>118</ele>
        <time>2024-05-11T06:40:11Z</time>
      </trkpt>
      <trkpt lat="43.2085" lon="2.31299">
        <ele>118</ele>
        <time>2024-05-11T06:40:12Z</time>
      </trkpt>
      <trkpt lat="43.2085" lon="2.31299">
        <ele>118</ele>
        <time>2024-05-11T06:40:13Z</time>
      </trkpt>
      <trkpt lat="43.2085" lon="2.31299">
        <ele>118</ele>
        <time>2024-05-11T06:40:14Z</time>
      </trkpt>
      <trkpt lat="43.2085" lon="2.31299">
        <ele>118</ele>
        <time>2024-05-11T06:40:15Z</time>
      </trkpt>
      <trkpt lat="43.2085" lon="2.31299">
        <ele>118</ele>
        <time>2024-05-11T06:40:16Z</time>
      </trkpt>
      <trkpt lat="43.2085" lon="2.31299">
        <ele>118</ele>
        <time>2024-05-11T06:40:17Z</time>
      </trkpt>
      <trkpt lat="43.2085" lon="2.31299">
        <ele>118</ele>
        <time>2024-05-11T06:40:18Z</time>
      </trkpt>
      <trkpt lat="43.2085" lon="2.31299">
        <ele>118</ele>
        <time>2024-05-11T06:40:19Z</time>
      </trkpt>
      <trkpt lat="43.2085" lon="2.31299">
        <ele>118</ele>
        <time>2024-05-11T06:40:20Z</time>
      </trkpt>
      <trkpt lat="43.2085" lon="2.31299">
        <ele>118</ele>
        <time>2024-05-11T06:40:21Z</time>
      </trkpt>
      <trkpt lat="43.2085" lon="2.31299">
        <ele>118</ele>
        <time>2024-05-11T06:40:22Z</time>
      </trkpt>
      <trkpt lat="43.2085" lon="2.31299">
        <ele>118</ele>
        <time>2024-05-11T06:40:23Z</time>
      </trkpt>
      <trkpt lat="43.2085" lon="2.31299">
        <ele>118</ele>
        <time>2024-05-11T06:40:24Z</time>
      </trkpt>
      <trkpt lat="43.2085" lon="2.31299">
        <ele>118</ele>
        <time>2024-05-11T06:40:25Z</time>
      </trkpt>
      <trkpt lat="43.2085" lon="2.31299">
        <ele>118</ele>
        <time>2024-05-11T06:40:26Z</time>
      </trkpt>
      <trkpt lat="43.2085" lon="2.31299">
        <ele>118</ele>
        <time>2024-05-11T06:40:27Z</time>
      </trkpt>
      <trkpt lat="43.2085" lon="2.31299">
        <ele>118</ele>
        <time>2024-05-11T06:40:28Z</time>
      </trkpt>
      <trkpt lat="43.2085" lon="2.31299">
        <ele>118</ele>
        <time>2024-05-11T06:40:29Z</time>
      </trkpt>
      <trkpt lat="43.2085" lon="2.31299">
        <ele>118</ele>
        <time>2024-05-11T06:40:30Z</time>
      </trkpt>
      <trkpt lat="43.2085" lon="2.31299">
        <ele>118</ele>
        <time>2024-05-11T06:40:31Z</time>
      </trkpt>
      <trkpt lat="43.2085" lon="2.31299">
        <ele>118</ele>
        <time>2024-05-11T06:40:32Z</time>
      </trkpt>
      <trkpt lat="43.2085" lon="2.31299">
        <ele>118</ele>
        <time>2024-05-11T06:40:33Z</time>
      </trkpt>
      <trkpt lat="43.2085" lon="2.31299">
        <ele>118</ele>
        <time>2024-05-11T06:40:34Z</time>
      </trkpt>
      <trkpt lat="43.2085" lon="2.31299">
        <ele>118</ele>
        <time>2024-05-11T06:40:35Z</time>
      </trkpt>
      <trkpt lat="43.2085" lon="2.31299">
        <ele>118</ele>
        <time>2024-05-11T06:40:36Z</time>
      </trkpt>
      <trkpt lat="43.2085" lon="2.31299">
        <ele>118</ele>
        <time>2024-05-11T06:40:37Z</time>
      </trkpt>
      <trkpt lat="43.2085" lon="2.31299">
        <ele>118</ele>
        <time>2024-05-11T06:40:38Z</time>
      </trkpt>
      <trkpt lat="43.2085" lon="2.31299">
        <ele>118</ele>
        <time>2024-05-11T06:40:39Z</time>
      </trkpt>
      <trkpt lat="43.2085" lon="2.31299">
        <ele>118</ele>
        <time>2024-05-11T06:40:40Z</time>
      </trkpt>
      <trkpt lat="43.2085" lon="2.31299">
        <ele>118</ele>
        <time>2024-05-11T06:40:41Z</time>
      </trkpt>
      <trkpt lat="43.2085" lon="2.31299">
        <ele>118</ele>
        <time>2024-05-11T06:40:42Z</time>
      </trkpt>
      <trkpt lat="43.2085" lon="2.31299">
        <ele>118</ele>
        <time>2024-05-11T06:40:43Z</time>
      </trkpt>
      <trkpt lat="43.2085" lon="2.31299">
        <ele>118</ele>
        <time>2024-05-11T06:40:44Z</time>
      </trkpt>
      <trkpt lat="43.2085" lon="2.31299">
        <ele>118</ele>
        <time>2024-05-11T06:40:45Z</time>
      </trkpt>
      <trkpt lat="43.2085" lon="2.31299">
        <ele>118</ele>
        <time>2024-05-11T06:40:46Z</time>
      </trkpt>
      <trkpt lat="43.2085" lon="2.31299">
        <ele>118</ele>
        <time>2024-05-11T06:40:47Z</time>
      </trkpt>
      <trkpt lat="43.2085" lon="2.31299">
        <ele>118</ele>
        <time>2024-05-11T06:40:48Z</time>
      </trkpt>
      <trkpt lat="43.2085" lon="2.31299">
        <ele>118</ele>
        <time>2024-05-11T06:40:49Z</time>
      </trkpt>
      <trkpt lat="43.2085" lon="2.31299">
        <ele>118</ele>
        <time>2024-05-11T06:40:50Z</time>
      </trkpt>
      <trkpt lat="43.2085" lon="2.31299">
        <ele>118</ele>
        <time>2024-05-11T06:40:51Z</time>
      </trkpt>
      <trkpt lat="43.2085" lon="2.31299">
        <ele>118</ele>
        <time>2024-05-11T06:40:52Z</time>
      </trkpt>
      <trkpt lat="43.2085" lon="2.31299">
        <ele>118</ele>
        <time>2024-05-11T06:40:53Z</time>
      </trkpt>
      <trkpt lat="43.2085" lon="2.31299">
        <ele>118</ele>
        <time>2024-05-11T06:40:54Z</time>
      </trkpt>
      <trkpt lat="43.2085" lon="2.31299">
        <ele>118</ele>
        <time>2024-05-11T06:40:55Z</time>
      </trkpt>
      <trkpt lat="43.2085" lon="2.31299">
        <ele>118</ele>
        <time>2024-05-11T06:40:56Z</time>
      </trkpt>
      <trkpt lat="43.2085" lon="2.31299">
        <ele>118</ele>
        <time>2024-05-11T06:40:57Z</time>
      </trkpt>
      <trkpt lat="43.2085" lon="2.31299">
        <ele>118</ele>
        <time>2024-05-11T06:40:58Z</time>
      </trkpt>
      <trkpt lat="43.2085" lon="2.31299">
        <ele>118</ele>
        <time>2024-05-11T06:40:59Z</time>
      </trkpt>
      <trkpt lat="43.2085" lon="2.31299">
        <ele>118</ele>
        <time>2024-05-11T06:41:00Z</time>
      </trkpt>
      <trkpt lat="43.2085" lon="2.31299">
        <ele>118</ele>
        <time>2024-05-11T06:41:01Z</time>
      </trkpt>
      <trkpt lat="43.2085" lon="2.31299">
        <ele>118</ele>
        <time>2024-05-11T06:41:02Z</time>
      </trkpt>
      <trkpt lat="43.2085" lon="2.31299">
        <ele>118</ele>
        <time>2024-05-11T06:41:03Z</time>
      </trkpt>
      <trkpt lat="43.2085" lon="2.31299">
        <ele>118</ele>
        <time>2024-05-11T06:41:04Z</time>
      </trkpt>
      <trkpt lat="43.2085" lon="2.31299">
        <ele>118</ele>
        <time>2024-05-11T06:41:05Z</time>
      </trkpt>
      <trkpt lat="43.2085" lon="2.31299">
        <ele>118</ele>
        <time>2024-05-11T06:41:06Z</time>
      </trkpt>
      <trkpt lat="43.2085" lon="2.31299">
        <ele>118</ele>
        <time>2024-05-11T06:41:07Z</time>
      </trkpt>
      <trkpt lat="43.2085" lon="2.31299">
        <ele>118</ele>
        <time>2024-05-11T06:41:08Z</time>
      </trkpt>
      <trkpt lat="43.2085" lon="2.31299">
        <ele>118</ele>
        <time>2024-05-11T06:41:09Z</time>
      </trkpt>
      <trkpt lat="43.2085" lon="2.31299">
        <ele>118</ele>
        <time>2024-05-11T06:41:10Z</time>
      </trkpt>
      <trkpt lat="43.2085" lon="2.31299">
        <ele>118</ele>
        <time>2024-05-11T06:41:11Z</time>
      </trkpt>
      <trkpt lat="43.2085" lon="2.31299">
        <ele>118</ele>
        <time>2024-05-11T06:41:12Z</time>
      </trkpt>
      <trkpt lat="43.2085" lon="2.31299">
        <ele>118</ele>
        <time>2024-05-11T06:41:13Z</time>
      </trkpt>
      <trkpt lat="43.2085" lon="2.31299">
        <ele>118</ele>
        <time>2024-05-11T06:41:14Z</time>
      </trkpt>
      <trkpt lat="43.2085" lon="2.31299">
        <ele>118</ele>
        <time>2024-05-11T06:41:15Z</time>
      </trkpt>
      <trkpt lat="43.2085" lon="2.31299">
        <ele>118</ele>
        <time>2024-05-11T06:41:16Z</time>
      </trkpt>
      <trkpt lat="43.2085" lon="2.31299">
        <ele>118</ele>
        <time>2024-05-11T06:41:17Z</time>
      </trkpt>
      <trkpt lat="43.2085" lon="2.31299">
        <ele>118</ele>
        <time>2024-05-11T06:41:18Z</time>
      </trkpt>
      <trkpt lat="43.2085" lon="2.31299">
        <ele>118</ele>
        <time>2024-05-11T06:41:19Z</time>
      </trkpt>
      <trkpt lat="43.2085" lon="2.31299">
        <ele>118</ele>
        <time>2024-05-11T06:41:20Z</time>
      </trkpt>
      <trkpt lat="43.2085" lon="2.31299">
        <ele>118</ele>
        <time>2024-05-11T06:41:21Z</time>
      </trkpt>
      <trkpt lat="43.2085" lon="2.31299">
        <ele>118</ele>
        <time>2024-05-11T06:41:22Z</time>
      </trkpt>
      <trkpt lat="43.2085" lon="2.31299">
        <ele>118</ele>
        <time>2024-05-11T06:41:23Z</time>
      </trkpt>
      <trkpt lat="43.2085" lon="2.31299">
        <ele>118</ele>
        <time>2024-05-11T06:41:24Z</time>
      </trkpt>
      <trkpt lat="43.2085" lon="2.31299">
        <ele>118</ele>
        <time>2024-05-11T06:41:25Z</time>
      </trkpt>
      <trkpt lat="43.2085" lon="2.31299">
        <ele>118</ele>
        <time>2024-05-11T06:41:26Z</time>
      </trkpt>
      <trkpt lat="43.2085" lon="2.31299">
        <ele>118</ele>
        <time>2024-05-11T06:41:27Z</time>
      </trkpt>
      <trkpt lat="43.2085" lon="2.31299">
        <ele>118</ele>
        <time>2024-05-11T06:41:28Z</time>
      </trkpt>
      <trkpt lat="43.2085" lon="2.31299">
        <ele>118</ele>
        <time>2024-05-11T06:41:29Z</time>
      </trkpt>
      <trkpt lat="43.2085" lon="2.31299">
        <ele>118</ele>
        <time>2024-05-11T06:41:30Z</time>
      </trkpt>
      <trkpt lat="43.2085" lon="2.31299">
        <ele>118</ele>
        <time>2024-05-11T06:41:31Z</time>
      </trkpt>
      <trkpt lat="43.2085" lon="2.31299">
        <ele>118</ele>
        <time>2024-05-11T06:41:32Z</time>
      </trkpt>
      <trkpt lat="43.2085" lon="2.31299">
        <ele>118</ele>
        <time>2024-05-11T06:41:33Z</time>
      </trkpt>
      <trkpt lat="43.2085" lon="2.31299">
        <ele>118</ele>
        <time>2024-05-11T06:41:34Z</time>
      </trkpt>
      <trkpt lat="43.2085" lon="2.31299">
        <ele>118</ele>
        <time>2024-05-11T06:41:35Z</time>
      </trkpt>
      <trkpt lat="43.2085" lon="2.31299">
        <ele>118</ele>
        <time>2024-05-11T06:41:36Z</time>
      </trkpt>
      <trkpt lat="43.2085" lon="2.31299">
        <ele>118</ele>
        <time>2024-05-11T06:41:37Z</time>
      </trkpt>
      <trkpt lat="43.2085" lon="2.31299">
        <ele>118</ele>
        <time>2024-05-11T06:41:38Z</time>
      </trkpt>
      <trkpt lat="43.2085" lon="2.31299">
        <ele>118</ele>
        <time>2024-05-11T06:41:39Z</time>
      </trkpt>
      <trkpt lat="43.2085" lon="2.31299">
        <ele>118</ele>
        <time>2024-05-11T06:41:40Z</time>
      </trkpt>
      <trkpt lat="43.2085" lon="2.31299">
        <ele>118</ele>
        <time>2024-05-11T06:41:41Z</time>
      </trkpt>
      <trkpt lat="43.2085" lon="2.31299">
        <ele>118</ele>
        <time>2024-05-11T06:41:42Z</time>
      </trkpt>
      <trkpt lat="43.2085" lon="2.31299">
        <ele>118</ele>
        <time>2024-05-11T06:41:43Z</time>
      </trkpt>
      <trkpt lat="43.2085" lon="2.31299">
        <ele>118</ele>
        <time>2024-05-11T06:41:44Z</time>
      </trkpt>
      <trkpt lat="43.2085" lon="2.31299">
        <ele>118</ele>
        <time>2024-05-11T06:41:45Z</time>
      </trkpt>
      <trkpt lat="43.2085" lon="2.31299">
        <ele>118</ele>
        <time>2024-05-11T06:41:46Z</time>
      </trkpt>
      <trkpt lat="43.2085" lon="2.31299">
        <ele>118</ele>
        <time>2024-05-11T06:41:47Z</time>
      </trkpt>
      <trkpt lat="43.2085" lon="2.31299">
        <ele>118</ele>
        <time>2024-05-11T06:41:48Z</time>
      </trkpt>
      <trkpt lat="43.2085" lon="2.31299">
        <ele>118</ele>
        <time>2024-05-11T06:41:49Z</time>
      </trkpt>
      <trkpt lat="43.2085" lon="2.31299">
        <ele>118</ele>
        <time>2024-05-11T06:41:50Z</time>
      </trkpt>
      <trkpt lat="43.2085" lon="2.31299">
        <ele>118</ele>
        <time>2024-05-11T06:41:51Z</time>
      </trkpt>
      <trkpt lat="43.2085" lon="2.31299">
        <ele>118</ele>
        <time>2024-05-11T06:41:52Z</time>
      </trkpt>
      <trkpt lat="43.2085" lon="2.31299">
        <ele>118</ele>
        <time>2024-05-11T06:41:53Z</time>
      </trkpt>
      <trkpt lat="43.2085" lon="2.31299">
        <ele>118</ele>
        <time>2024-05-11T06:41:54Z</time>
      </trkpt>
      <trkpt lat="43.2085" lon="2.31299">
        <ele>118</ele>
        <time>2024-05-11T06:41:55Z</time>
      </trkpt>
      <trkpt lat="43.2085" lon="2.31299">
        <ele>118</ele>
        <time>2024-05-11T06:41:56Z</time>
      </trkpt>
      <trkpt lat="43.2085" lon="2.31299">
        <ele>118</ele>
        <time>2024-05-11T06:41:57Z</time>
      </trkpt>
      <trkpt lat="43.2085" lon="2.31299">
        <ele>118</ele>
        <time>2024-05-11T06:41:58Z</time>
      </trkpt>
      <trkpt lat="43.2085" lon="2.31299">
        <ele>118</ele>
        <time>2024-05-11T06:41:59Z</time>
      </trkpt>
      <trkpt lat="43.2085" lon="2.31299">
        <ele>118</ele>
        <time>2024-05-11T06:42:00Z</time>
      </trkpt>
      <trkpt lat="43.2085" lon="2.31299">
        <ele>118</ele>
        <time>2024-05-11T06:42:01Z</time>
      </trkpt>
      <trkpt lat="43.2085" lon="2.31299">
        <ele>118</ele>
        <time>2024-05-11T06:42:02Z</time>
      </trkpt>
      <trkpt lat="43.2085" lon="2.31299">
        <ele>118</ele>
        <time>2024-05-11T06:42:03Z</time>
      </trkpt>
      <trkpt lat="43.2085" lon="2.31299">
        <ele>118</ele>
        <time>2024-05-11T06:42:04Z</time>
      </trkpt>
      <trkpt lat="43.2085" lon="2.31299">
        <ele>118</ele>
        <time>2024-05-11T06:42:05Z</time>
      </trkpt>
      <trkpt lat="43.2085" lon="2.31299">
        <ele>118</ele>
        <time>2024-05-11T06:42:06Z</time>
      </trkpt>
      <trkpt lat="43.2085" lon="2.31299">
        <ele>118</ele>
        <time>2024-05-11T06:42:07Z</time>
      </trkpt>
      <trkpt lat="43.2085" lon="2.31299">
        <ele>118</ele>
        <time>2024-05-11T06:42:08Z</time>
      </trkpt>
      <trkpt lat="43.2085" lon="2.31299">
        <ele>118</ele>
        <time>2024-05-11T06:42:09Z</time>
      </trkpt>
      <trkpt lat="43.2085" lon="2.31299">
        <ele>118</ele>
        <time>2024-05-11T06:42:10Z</time>
      </trkpt>
      <trkpt lat="43.2085" lon="2.31299">
        <ele>118</ele>
        <time>2024-05-11T06:42:11Z</time>
      </trkpt>
      <trkpt lat="43.2085" lon="2.31299">
        <ele>118</ele>
        <time>2024-05-11T06:42:12Z</time>
      </trkpt>
      <trkpt lat="43.2085" lon="2.31299">
        <ele>118</ele>
        <time>2024-05-11T06:42:13Z</time>
      </trkpt>
      <trkpt lat="43.2085" lon="2.31299">
        <ele>118</ele>
        <time>2024-05-11T06:42:14Z</time>
      </trkpt>
      <trkpt lat="43.2085" lon="2.31299">
        <ele>118</ele>
        <time>2024-05-11T06:42:15Z</time>
      </trkpt>
      <trkpt lat="43.2085" lon="2.31299">
        <ele>118</ele>
        <time>2024-05-11T06:42:16Z</time>
      </trkpt>
      <trkpt lat="43.2085" lon="2.31299">
        <ele>118</ele>
        <time>2024-05-11T06:42:17Z</time>
      </trkpt>
      <trkpt lat="43.2085" lon="2.31299">
        <ele>118</ele>
        <time>2024-05-11T06:42:18Z</time>
      </trkpt>
      <trkpt lat="43.2085" lon="2.31299">
        <ele>118</ele>
        <time>2024-05-11T06:42:19Z</time>
      </trkpt>
      <trkpt lat="43.2085" lon="2.31299">
        <ele>118</ele>
        <time>2024-05-11T06:42:20Z</time>
      </trkpt>
      <trkpt lat="43.2085" lon="2.31299">
        <ele>118</ele>
        <time>2024-05-11T06:42:21Z</time>
      </trkpt>
      <trkpt lat="43.2085" lon="2.31299">
        <ele>118</ele>
        <time>2024-05-11T06:42:22Z</time>
      </trkpt>
      <trkpt lat="43.2085" lon="2.31299">
        <ele>118</ele>
        <time>2024-05-11T06:42:23Z</time>
      </trkpt>
      <trkpt lat="43.2085" lon="2.31299">
        <ele>118</ele>
        <time>2024-05-11T06:42:24Z</time>
      </trkpt>
      <trkpt lat="43.2085" lon="2.31299">
        <ele>118</ele>
        <time>2024-05-11T06:42:25Z</time>
      </trkpt>
      <trkpt lat="43.2085" lon="2.31299">
        <ele>118</ele>
        <time>2024-05-11T06:42:26Z</time>
      </trkpt>
      <trkpt lat="43.2085" lon="2.31299">
        <ele>118</ele>
        <time>2024-05-11T06:42:27Z</time>
      </trkpt>
      <trkpt lat="43.2085" lon="2.31299">
        <ele>118</ele>
        <time>2024-05-11T06:42:28Z</time>
      </trkpt>
      <trkpt lat="43.2085" lon="2.31299">
        <ele>118</ele>
        <time>2024-05-11T06:42:29Z</time>
      </trkpt>
      <trkpt lat="43.2085" lon="2.31299">
        <ele>118</ele>
        <time>2024-05-11T06:42:30Z</time>
      </trkpt>
      <trkpt lat="43.2085" lon="2.31299">
        <ele>118</ele>
        <time>2024-05-11T06:42:31Z</time>
      </trkpt>
      <trkpt lat="43.2085" lon="2.31299">
        <ele>118</ele>
        <time>2024-05-11T06:42:32Z</time>
      </trkpt>
      <trkpt lat="43.2085" lon="2.31299">
        <ele>118</ele>
        <time>2024-05-11T06:42:33Z</time>
      </trkpt>
      <trkpt lat="43.2085" lon="2.31299">
        <ele>118</ele>
        <time>2024-05-11T06:42:34Z</time>
      </trkpt>
      <trkpt lat="43.2085" lon="2.31299">
        <ele>118</ele>
        <time>2024-05-11T06:42:35Z</time>
      </trkpt>
      <trkpt lat="43.2085" lon="2.31299">
        <ele>118</ele>
        <time>2024-05-11T06:42:36Z</time>
      </trkpt>
      <trkpt lat="43.2085" lon="2.31299">
        <ele>118</ele>
        <time>2024-05-11T06:42:37Z</time>
      </trkpt>
      <trkpt lat="43.2085" lon="2.31299">
        <ele>118</ele>
        <time>2024-05-11T06:42:38Z</time>
      </trkpt>
      <trkpt lat="43.2085" lon="2.31299">
        <ele>118</ele>
        <time>2024-05-11T06:42:39Z</time>
      </trkpt>
      <trkpt lat="43.2085" lon="2.31299">
        <ele>118</ele>
        <time>2024-05-11T06:42:40Z</time>
      </trkpt>
      <trkpt lat="43.2085" lon="2.31299">
        <ele>118</ele>
        <time>2024-05-11T06:42:41Z</time>
      </trkpt>
      <trkpt lat="43.2085" lon="2.31299">
        <ele>118</ele>
        <time>2024-05-11T06:42:42Z</time>
      </trkpt>
      <trkpt lat="43.2085" lon="2.31299">
        <ele>118</ele>
        <time>2024-05-11T06:42:43Z</time>
      </trkpt>
      <trkpt lat="43.2085" lon="2.31299">
        <ele>118</ele>
        <time>2024-05-11T06:42:44Z</time>
      </trkpt>
      <trkpt lat="43.2085" lon="2.31299">
        <ele>118</ele>
        <time>2024-05-11T06:42:45Z</time>
      </trkpt>
      <trkpt lat="43.2085" lon="2.31299">
        <ele>118</ele>
        <time>2024-05-11T06:42:46Z</time>
      </trkpt>
      <trkpt lat="43.2085" lon="2.31299">
        <ele>118</ele>
        <time>2024-05-11T06:42:47Z</time>
      </trkpt>
      <trkpt lat="43.2085" lon="2.31299">
        <ele>118</ele>
        <time>2024-05-11T06:42:48Z</time>
      </trkpt>
      <trkpt lat="43.2085" lon="2.31299">
        <ele>118</ele>
        <time>2024-05-11T06:42:49Z</time>
      </trkpt>
      <trkpt lat="43.2085" lon="2.31299">
        <ele>118</ele>
        <time>2024-05-11T06:42:50Z</time>
      </trkpt>
      <trkpt lat="43.2085" lon="2.31299">
        <ele>118</ele>
        <time>2024-05-11T06:42:51Z</time>
      </trkpt>
      <trkpt lat="43.2085" lon="2.31299">
        <ele>118</ele>
        <time>2024-05-11T06:42:52Z</time>
      </trkpt>
      <trkpt lat="43.2085" lon="2.31299">
        <ele>118</ele>
        <time>2024-05-11T06:42:53Z</time>
      </trkpt>
      <trkpt lat="43.2085" lon="2.31299">
        <ele>118</ele>
        <time>2024-05-11T06:42:54Z</time>
      </trkpt>
      <trkpt lat="43.2085" lon="2.31299">
        <ele>118</ele>
        <time>2024-05-11T06:42:55Z</time>
      </trkpt>
      <trkpt lat="43.2085" lon="2.31299">
        <ele>118</ele>
        <time>2024-05-11T06:42:56Z</time>
      </trkpt>
      <trkpt lat="43.2085" lon="2.31299">
        <ele>118</ele>
        <time>2024-05-11T06:42:57Z</time>
      </trkpt>
      <trkpt lat="43.2085" lon="2.31299">
        <ele>118</ele>
        <time>2024-05-11T06:42:58Z</time>
      </trkpt>
      <trkpt lat="43.2085" lon="2.31299">
        <ele>118</ele>
        <time>2024-05-11T06:42:59Z</time>
      </trkpt>
      <trkpt lat="43.2085" lon="2.31299">
        <ele>118</ele>
        <time>2024-05-11T06:43:00Z</time>
      </trkpt>
      <trkpt lat="43.2085" lon="2.31299">
        <ele>118</ele>
        <time>2024-05-11T06:43:01Z</time>
      </trkpt>
      <trkpt lat="43.2085" lon="2.31299">
        <ele>118</ele>
        <time>2024-05-11T06:43:02Z</time>
      </trkpt>
      <trkpt lat="43.2085" lon="2.31299">
        <ele>118</ele>
        <time>2024-05-11T06:43:03Z</time>
      </trkpt>
      <trkpt lat="43.2085" lon="2.31299">
        <ele>118</ele>
        <time>2024-05-11T06:43:04Z</time>
      </trkpt>
      <trkpt lat="43.2085" lon="2.31299">
        <ele>118</ele>
        <time>2024-05-11T06:43:05Z</time>
      </trkpt>
      <trkpt lat="43.2085" lon="2.31299">
        <ele>118</ele>
        <time>2024-05-11T06:43:06Z</time>
      </trkpt>
      <trkpt lat="43.2085" lon="2.31299">
        <ele>118</ele>
        <time>2024-05-11T06:43:07Z</time>
      </trkpt>
      <trkpt lat="43.2085" lon="2.31299">
        <ele>118</ele>
        <time>2024-05-11T06:43:08Z</time>
      </trkpt>
      <trkpt lat="43.2085" lon="2.31299">
        <ele>118</ele>
        <time>2024-05-11T06:43:09Z</time>
      </trkpt>
      <trkpt lat="43.2085" lon="2.31299">
        <ele>118</ele>
        <time>2024-05-11T06:43:10Z</time>
      </trkpt>
      <trkpt lat="43.2085" lon="2.31299">
        <ele>118</ele>
        <time>2024-05-11T06:43:11Z</time>
      </trkpt>
      <trkpt lat="43.2085" lon="2.31299">
        <ele>118</ele>
        <time>2024-05-11T06:43:12Z</time>
      </trkpt>
      <trkpt lat="43.2085" lon="2.31299">
        <ele>118</ele>
        <time>2024-05-11T06:43:13Z</time>
      </trkpt>
      <trkpt lat="43.2085" lon="2.31299">
        <ele>118</ele>
        <time>2024-05-11T06:43:14Z</time>
      </trkpt>
      <trkpt lat="43.2085" lon="2.31299">
        <ele>118</ele>
        <time>2024-05-11T06:43:15Z</time>
      </trkpt>
      <trkpt lat="43.2085" lon="2.31299">
        <ele>118</ele>
        <time>2024-05-11T06:43:16Z</time>
      </trkpt>
      <trkpt lat="43.2085" lon="2.31299">
        <ele>118</ele>
        <time>2024-05-11T06:43:17Z</time>
      </trkpt>
      <trkpt lat="43.2085" lon="2.31299">
        <ele>118</ele>
        <time>2024-05-11T06:43:18Z</time>
      </trkpt>
      <trkpt lat="43.2085" lon="2.31299">
        <ele>118</ele>
        <time>2024-05-11T06:43:19Z</time>
      </trkpt>
      <trkpt lat="43.2085" lon="2.31299">
        <ele>118</ele>
        <time>2024-05-11T06:43:20Z</time>
      </trkpt>
      <trkpt lat="43.2085" lon="2.31299">
        <ele>118</ele>
        <time>2024-05-11T06:43:21Z</time>
      </trkpt>
      <trkpt lat="43.2085" lon="2.31299">
        <ele>118</ele>
        <time>2024-05-11T06:43:22Z</time>
      </trkpt>
      <trkpt lat="43.2085" lon="2.31299">
        <ele>118</ele>
        <time>2024-05-11T06:43:23Z</time>
      </trkpt>
      <trkpt lat="43.2085" lon="2.31299">
        <ele>118</ele>
        <time>2024-05-11T06:43:24Z</time>
      </trkpt>
      <trkpt lat="43.2085" lon="2.31299">
        <ele>118</ele>
        <time>2024-05-11T06:43:25Z</time>
      </trkpt>
      <trkpt lat="43.2085" lon="2.31299">
        <ele>118</ele>
        <time>2024-05-11T06:43:26Z</time>
      </trkpt>
      <trkpt lat="43.2085" lon="2.31299">
        <ele>118</ele>
        <time>2024-05-11T06:43:27Z</time>
      </trkpt>
      <trkpt lat="43.2085" lon="2.31299">
        <ele>118</ele>
        <time>2024-05-11T06:43:28Z</time>
      </trkpt>
      <trkpt lat="43.2085" lon="2.31299">
        <ele>118</ele>
        <time>2024-05-11T06:43:29Z</time>
      </trkpt>
      <trkpt lat="43.2085" lon="2.31299">
        <ele>118</ele>
        <time>2024-05-11T06:43:30Z</time>
      </trkpt>
      <trkpt lat="43.2085" lon="2.31299">
        <ele>118</ele>
        <time>2024-05-11T06:43:31Z</time>
      </trkpt>
      <trkpt lat="43.2085" lon="2.31299">
        <ele>118</ele>
        <time>2024-05-11T06:43:32Z</time>
      </trkpt>
      <trkpt lat="43.2085" lon="2.31299">
        <ele>118</ele>
        <time>2024-05-11T06:43:33Z</time>
      </trkpt>
      <trkpt lat="43.2085" lon="2.31299">
        <ele>118</ele>
        <time>2024-05-11T06:43:34Z</time>
      </trkpt>
      <trkpt lat="43.2085" lon="2.31299">
        <ele>118</ele>
        <time>2024-05-11T06:43:35Z</time>
      </trkpt>
      <trkpt lat="43.2085" lon="2.31299">
        <ele>118</ele>
        <time>2024-05-11T06:43:36Z</time>
      </trkpt>
      <trkpt lat="43.2085" lon="2.31299">
        <ele>118</ele>
        <time>2024-05-11T06:43:37Z</time>
      </trkpt>
      <trkpt lat="43.2085" lon="2.31299">
        <ele>118</ele>
        <time>2024-05-11T06:43:38Z</time>
      </trkpt>
      <trkpt lat="43.2085" lon="2.31299">
        <ele>118</ele>
        <time>2024-05-11T06:43:39Z</time>
      </trkpt>
      <trkpt lat="43.2085" lon="2.31299">
        <ele>118</ele>
        <time>2024-05-11T06:43:40Z</time>
      </trkpt>
      <trkpt lat="43.2085" lon="2.31299">
        <ele>118</ele>
        <time>2024-05-11T06:43:41Z</time>
      </trkpt>
      <trkpt lat="43.2085" lon="2.31299">
        <ele>118</ele>
        <time>2024-05-11T06:43:42Z</time>
      </trkpt>
      <trkpt lat="43.2085" lon="2.31299">
        <ele>118</ele>
        <time>2024-05-11T06:43:43Z</time>
      </trkpt>
      <trkpt lat="43.2085" lon="2.31299">
        <ele>118</ele>
        <time>2024-05-11T06:43:44Z</time>
      </trkpt>
      <trkpt lat="43.2085" lon="2.31299">
        <ele>118</ele>
        <time>2024-05-11T06:43:45Z</time>
      </trkpt>
      <trkpt lat="43.2085" lon="2.31299">
        <ele>118</ele>
        <time>2024-05-11T06:43:46Z</time>
      </trkpt>
      <trkpt lat="43.2085" lon="2.31299">
        <ele>118</ele>
        <time>2024-05-11T06:43:47Z</time>
      </trkpt>
      <trkpt lat="43.2085" lon="2.31299">
        <ele>118</ele>
        <time>2024-05-11T06:43:48Z</time>
      </trkpt>
      <trkpt lat="43.2085" lon="2.31299">
        <ele>118</ele>
        <time>2024-05-11T06:43:49Z</time>
      </trkpt>
      <trkpt lat="43.2085" lon="2.31299">
        <ele>118</ele>
        <time>2024-05-11T06:43:50Z</time>
      </trkpt>
      <trkpt lat="43.2085" lon="2.31299">
        <ele>118</ele>
        <time>2024-05-11T06:43:51Z</time>
      </trkpt>
      <trkpt lat="43.2085" lon="2.31299">
        <ele>118</ele>
        <time>2024-05-11T06:43:52Z</time>
      </trkpt>
      <trkpt lat="43.2085" lon="2.31299">
        <ele>118</ele>
        <time>2024-05-11T06:43:53Z</time>
      </trkpt>
      <trkpt lat="43.2085" lon="2.31299">
        <ele>118</ele>
        <time>2024-05-11T06:43:54Z</time>
      </trkpt>
      <trkpt lat="43.2085" lon="2.31299">
        <ele>118</ele>
        <time>2024-05-11T06:43:55Z</time>
      </trkpt>
      <trkpt lat="43.2085" lon="2.31299">
        <ele>118</ele>
        <time>2024-05-11T06:43:56Z</time>
      </trkpt>
      <trkpt lat="43.2085" lon="2.31299">
        <ele>118</ele>
        <time>2024-05-11T06:43:57Z</time>
      </trkpt>
      <trkpt lat="43.2085" lon="2.31299">
        <ele>118</ele>
        <time>2024-05-11T06:43:58Z</time>
      </trkpt>
      <trkpt lat="43.2085" lon="2.31299">
        <ele>118</ele>
        <time>2024-05-11T06:43:59Z</time>
      </trkpt>
      <trkpt lat="43.2085" lon="2.31299">
        <ele>118</ele>
        <time>2024-05-11T06:44:00Z</time>
      </trkpt>
      <trkpt lat="43.2085" lon="2.31299">
        <ele>118</ele>
        <time>2024-05-11T06:44:01Z</time>
      </trkpt>
      <trkpt lat="43.2085" lon="2.31299">
        <ele>118</ele>
        <time>2024-05-11T06:44:02Z</time>
      </trkpt>
      <trkpt lat="43.2085" lon="2.31299">
        <ele>118</ele>
        <time>2024-05-11T06:44:03Z</time>
      </trkpt>
      <trkpt lat="43.2085" lon="2.31299">
        <ele>118</ele>
        <time>2024-05-11T06:44:04Z</time>
      </trkpt>
      <trkpt lat="43.2085" lon="2.31299">
        <ele>118</ele>
        <time>2024-05-11T06:44:05Z</time>
      </trkpt>
      <trkpt lat="43.2085" lon="2.31299">
        <ele>118</ele>
        <time>2024-05-11T06:44:06Z</time>
      </trkpt>
      <trkpt lat="43.2085" lon="2.31299">
        <ele>118</ele>
        <time>2024-05-11T06:44:07Z</time>
      </trkpt>
      <trkpt lat="43.2085" lon="2.31299">
        <ele>118</ele>
        <time>2024-05-11T06:44:08Z</time>
      </trkpt>
      <trkpt lat="43.2085" lon="2.31299">
        <ele>118</ele>
        <time>2024-05-11T06:44:09Z</time>
      </trkpt>
      <trkpt lat="43.2085" lon="2.31299">
        <ele>118</ele>
        <time>2024-05-11T06:44:10Z</time>
      </trkpt>
      <trkpt lat="43.2085" lon="2.31299">
        <ele>118</ele>
        <time>2024-05-11T06:44:11Z</time>
      </trkpt>
      <trkpt lat="43.2085" lon="2.31299">
        <ele>118</ele>
        <time>2024-05-11T06:44:12Z</time>
      </trkpt>
      <trkpt lat="43.2085" lon="2.31299">
        <ele>118</ele>
        <time>2024-05-11T06:44:13Z</time>
      </trkpt>
      <trkpt lat="43.2085" lon="2.31299">
        <ele>118</ele>
        <time>2024-05-11T06:44:14Z</time>
      </trkpt>
      <trkpt lat="43.2085" lon="2.31299">
        <ele>118</ele>
        <time>2024-05-11T06:44:15Z</time>
      </trkpt>
      <trkpt lat="43.2085" lon="2.31299">
        <ele>118</ele>
        <time>2024-05-11T06:44:16Z</time>
      </trkpt>
      <trkpt lat="43.2085" lon="2.31299">
        <ele>118</ele>
        <time>2024-05-11T06:44:17Z</time>
      </trkpt>
      <trkpt lat="43.2085" lon="2.31299">
        <ele>118</ele>
        <time>2024-05-11T06:44:18Z</time>
      </trkpt>
      <trkpt lat="43.2085" lon="2.31299">
        <ele>118</ele>
        <time>2024-05-11T06:44:19Z</time>
      </trkpt>
      <trkpt lat="43.2085" lon="2.31299">
        <ele>118</ele>
        <time>2024-05-11T06:44:20Z</time>
      </trkpt>
      <trkpt lat="43.2085" lon="2.31299">
        <ele>118</ele>
        <time>2024-05-11T06:44:21Z</time>
      </trkpt>
      <trkpt lat="43.2085" lon="2.31299">
        <ele>118</ele>
        <time>2024-05-11T06:44:22Z</time>
      </trkpt>
      <trkpt lat="43.2085" lon="2.31299">
        <ele>118</ele>
        <time>2024-05-11T06:44:23Z</time>
      </trkpt>
      <trkpt lat="43.2085" lon="2.31299">
        <ele>118</ele>
        <time>2024-05-11T06:44:24Z</time>
      </trkpt>
      <trkpt lat="43.2085" lon="2.31299">
        <ele>118</ele>
        <time>2024-05-11T06:44:25Z</time>
      </trkpt>
      <trkpt lat="43.2085" lon="2.31299">
        <ele>118</ele>
        <time>2024-05-11T06:44:26Z</time>
      </trkpt>
      <trkpt lat="43.2085" lon="2.31299">
        <ele>118</ele>
        <time>2024-05-11T06:44:27Z</time>
      </trkpt>
      <trkpt lat="43.2085" lon="2.31299">
        <ele>118</ele>
        <time>2024-05-11T06:44:28Z</time>
      </trkpt>
      <trkpt lat="43.2085" lon="2.31299">
        <ele>118</ele>
        <time>2024-05-11T06:44:29Z</time>
      </trkpt>
      <trkpt lat="43.2085" lon="2.31299">
        <ele>118</ele>
        <time>2024-05-11T06:44:30Z</time>
      </trkpt>
      <trkpt lat="43.2085" lon="2.31299">
        <ele>118</ele>
        <time>2024-05-11T06:44:31Z</time>
      </trkpt>
      <trkpt lat="43.2085" lon="2.31299">
        <ele>118</ele>
        <time>2024-05-11T06:44:32Z</time>
      </trkpt>
      <trkpt lat="43.2085" lon="2.31299">
        <ele>118</ele>
        <time>2024-05-11T06:44:33Z</time>
      </trkpt>
      <trkpt lat="43.2085" lon="2.31299">
        <ele>118</ele>
        <time>2024-05-11T06:44:34Z</time>
      </trkpt>
      <trkpt lat="43.2085" lon="2.31299">
        <ele>118</ele>
        <time>2024-05-11T06:44:35Z</time>
      </trkpt>
      <trkpt lat="43.2085" lon="2.31299">
        <ele>118</ele>
        <time>2024-05-11T06:44:36Z</time>
      </trkpt>
      <trkpt lat="43.2085" lon="2.31299">
        <ele>118</ele>
        <time>2024-05-11T06:44:37Z</time>
      </trkpt>
      <trkpt lat="43.2085" lon="2.31299">
        <ele>118</ele>
        <time>2024-05-11T06:44:38Z</time>
      </trkpt>
      <trkpt lat="43.2085" lon="2.31299">
        <ele>118</ele>
        <time>2024-05-11T06:44:39Z</time>
      </trkpt>
      <trkpt lat="43.2085" lon="2.31299">
        <ele>118</ele>
        <time>2024-05-11T06:44:40Z</time>
      </trkpt>
      <trkpt lat="43.2085" lon="2.31299">
        <ele>118</ele>
        <time>2024-05-11T06:44:41Z</time>
      </trkpt>
      <trkpt lat="43.2085" lon="2.31299">
        <ele>118</ele>
        <time>2024-05-11T06:44:42Z</time>
      </trkpt>
      <trkpt lat="43.2085" lon="2.31299">
        <ele>118</ele>
        <time>2024-05-11T06:44:43Z</time>
      </trkpt>
      <trkpt lat="43.2085" lon="2.31299">
        <ele>118</ele>
        <time>2024-05-11T06:44:44Z</time>
      </trkpt>
      <trkpt lat="43.2085" lon="2.31299">
        <ele>118</ele>
        <time>2024-05-11T06:44:45Z</time>
      </trkpt>
      <trkpt lat="43.2085" lon="2.31299">
        <ele>118</ele>
        <time>2024-05-11T06:44:46Z</time>
      </trkpt>
      <trkpt lat="43.2085" lon="2.31299">
        <ele>118</ele>
        <time>2024-05-11T06:44:47Z</time>
      </trkpt>
      <trkpt lat="43.2085" lon="2.31299">
        <ele>118</ele>
        <time>2024-05-11T06:44:48Z</time>
      </trkpt>
      <trkpt lat="43.2085" lon="2.31299">
        <ele>118</ele>
        <time>2024-05-11T06:44:49Z</time>
      </trkpt>
      <trkpt lat="43.2085" lon="2.31299">
        <ele>118</ele>
        <time>2024-05-11T06:44:50Z</time>
      </trkpt>
      <trkpt lat="43.2085" lon="2.31299">
        <ele>118</ele>
        <time>2024-05-11T06:44:51Z</time>
      </trkpt>
      <trkpt lat="43.2085" lon="2.31299">
        <ele>118</ele>
        <time>2024-05-11T06:44:52Z</time>
      </trkpt>
      <trkpt lat="43.2085" lon="2.31299">
        <ele>118</ele>
        <time>2024-05-11T06:44:53Z</time>
      </trkpt>
      <trkpt lat="43.2085" lon="2.31299">
        <ele>118</ele>
        <time>2024-05-11T06:44:54Z</time>
      </trkpt>
      <trkpt lat="43.2085" lon="2.31299">
        <ele>118</ele>
        <time>2024-05-11T06:44:55Z</time>
      </trkpt>
      <trkpt lat="43.2085" lon="2.31299">
        <ele>118</ele>
        <time>2024-05-11T06:44:56Z</time>
      </trkpt>
      <trkpt lat="43.2085" lon="2.31299">
        <ele>118</ele>
        <time>2024-05-11T06:44:57Z</time>
      </trkpt>
      <trkpt lat="43.2085" lon="2.31299">
        <ele>118</ele>
        <time>2024-05-11T06:44:58Z</time>
      </trkpt>
      <trkpt lat="43.2085" lon="2.31299">
        <ele>118</ele>
        <time>2024-05-11T06:44:59Z</time>
      </trkpt>
      <trkpt lat="43.2085" lon="2.31299">
        <ele>118</ele>
        <time>2024-05-11T06:45:00Z</time>
      </trkpt>
      <trkpt lat="43.2085" lon="2.31299">
        <ele>118</ele>
        <time>2024-05-11T06:45:01Z</time>
      </trkpt>
      <trkpt lat="43.2085" lon="2.31299">
        <ele>118</ele>
        <time>2024-05-11T06:45:02Z</time>
      </trkpt>
      <trkpt lat="43.2085" lon="2.31299">
        <ele>118</ele>
        <time>2024-05-11T06:45:03Z</time>
      </trkpt>
      <trkpt lat="43.2085" lon="2.31299">
        <ele>118</ele>
        <time>2024-05-11T06:45:04Z</time>
      </trkpt>
      <trkpt lat="43.2085" lon="2.31299">
        <ele>118</ele>
        <time>2024-05-11T06:45:05Z</time>
      </trkpt>
      <trkpt lat="43.2085" lon="2.31299">
        <ele>118</ele>
        <time>2024-05-11T06:45:06Z</time>
      </trkpt>
      <trkpt lat="43.2085" lon="2.31299">
        <ele>118</ele>
        <time>2024-05-11T06:45:07Z</time>
      </trkpt>
      <trkpt lat="43.2085" lon="2.31299">
        <ele>118</ele>
        <time>2024-05-11T06:45:08Z</time>
      </trkpt>
      <trkpt lat="43.2085" lon="2.31299">
        <ele>118</ele>
        <time>2024-05-11T06:45:09Z</time>
      </trkpt>
      <trkpt lat="43.2085" lon="2.31299">
        <ele>118</ele>
        <time>2024-05-11T06:45:10Z</time>
      </trkpt>
      <trkpt lat="43.2085" lon="2.31299">
        <ele>118</ele>
        <time>2024-05-11T06:45:11Z</time>
      </trkpt>
      <trkpt lat="43.2085" lon="2.31299">
        <ele>118</ele>
        <time>2024-05-11T06:45:12Z</time>
      </trkpt>
      <trkpt lat="43.2085" lon="2.31299">
        <ele>118</ele>
        <time>2024-05-11T06:45:13Z</time>
      </trkpt>
      <trkpt lat="43.2085" lon="2.31299">
        <ele>118</ele>
        <time>2024-05-11T06:45:14Z</time>
      </trkpt>
      <trkpt lat="43.2085" lon="2.31299">
        <ele>118</ele>
        <time>2024-05-11T06:45:15Z</time>
      </trkpt>
      <trkpt lat="43.2085" lon="2.31299">
        <ele>118</ele>
        <time>2024-05-11T06:45:16Z</time>
      </trkpt>
      <trkpt lat="43.2085" lon="2.31299">
        <ele>118</ele>
        <time>2024-05-11T06:45:17Z</time>
      </trkpt>
      <trkpt lat="43.2085" lon="2.31299">
        <ele>118</ele>
        <time>2024-05-11T06:45:18Z</time>
      </trkpt>
      <trkpt lat="43.2085" lon="2.31299">
        <ele>118</ele>
        <time>2024-05-11T06:45:19Z</time>
      </trkpt>
      <trkpt lat="43.2085" lon="2.31299">
        <ele>118</ele>
        <time>2024-05-11T06:45:20Z</time>
      </trkpt>
      <trkpt lat="43.2085" lon="2.31299">
        <ele>118</ele>
        <time>2024-05-11T06:45:21Z</time>
      </trkpt>
      <trkpt lat="43.2085" lon="2.31299">
        <ele>118</ele>
        <time>2024-05-11T06:45:22Z</time>
      </trkpt>
      <trkpt lat="43.2085" lon="2.31299">
        <ele>118</ele>
        <time>2024-05-11T06:45:23Z</time>
      </trkpt>
      <trkpt lat="43.2085" lon="2.31299">
        <ele>118</ele>
        <time>2024-05-11T06:45:24Z</time>
      </trkpt>
      <trkpt lat="43.2085" lon="2.31299">
        <ele>118</ele>
        <time>2024-05-11T06:45:25Z</time>
      </trkpt>
      <trkpt lat="43.2085" lon="2.31299">
        <ele>118</ele>
        <time>2024-05-11T06:45:26Z</time>
      </trkpt>
      <trkpt lat="43.2085" lon="2.31299">
        <ele>118</ele>
        <time>2024-05-11T06:45:27Z</time>
      </trkpt>
      <trkpt lat="43.2085" lon="2.31299">
        <ele>118</ele>
        <time>2024-05-11T06:45:28Z</time>
      </trkpt>
      <trkpt lat="43.2085" lon="2.31299">
        <ele>118</ele>
        <time>2024-05-11T06:45:29Z</time>
      </trkpt>
      <trkpt lat="43.2085" lon="2.31299">
        <ele>118</ele>
        <time>2024-05-11T06:45:30Z</time>
      </trkpt>
      <trkpt lat="43.2085" lon="2.31299">
        <ele>118</ele>
        <time>2024-05-11T06:45:31Z</time>
      </trkpt>
      <trkpt lat="43.2085" lon="2.31299">
        <ele>118</ele>
        <time>2024-05-11T06:45:32Z</time>
      </trkpt>
      <trkpt lat="43.2085" lon="2.31299">
        <ele>118</ele>
        <time>2024-05-11T06:45:33Z</time>
      </trkpt>
      <trkpt lat="43.2085" lon="2.31299">
        <ele>118</ele>
        <time>2024-05-11T06:45:34Z</time>
      </trkpt>
      <trkpt lat="43.2085" lon="2.31299">
        <ele>118</ele>
        <time>2024-05-11T06:45:35Z</time>
      </trkpt>
      <trkpt lat="43.2085" lon="2.31299">
        <ele>118</ele>
        <time>2024-05-11T06:45:36Z</time>
      </trkpt>
      <trkpt lat="43.2085" lon="2.31299">
        <ele>118</ele>
        <time>2024-05-11T06:45:37Z</time>
      </trkpt>
      <trkpt lat="43.2085" lon="2.31299">
        <ele>118</ele>
        <time>2024-05-11T06:45:38Z</time>
      </trkpt>
      <trkpt lat="43.2085" lon="2.31299">
        <ele>118</ele>
        <time>2024-05-11T06:45:39Z</time>
      </trkpt>
      <trkpt lat="43.2085" lon="2.31299">
        <ele>118</ele>
        <time>2024-05-11T06:45:40Z</time>
      </trkpt>
      <trkpt lat="43.2085" lon="2.31299">
        <ele>118</ele>
        <time>2024-05-11T06:45:41Z</time>
      </trkpt>
      <trkpt lat="43.2085" lon="2.31299">
        <ele>118</ele>
        <time>2024-05-11T06:45:42Z</time>
      </trkpt>
      <trkpt lat="43.2085" lon="2.31299">
        <ele>118</ele>
        <time>2024-05-11T06:45:43Z</time>
      </trkpt>
      <trkpt lat="43.2085" lon="2.31299">
        <ele>118</ele>
        <time>2024-05-11T06:45:44Z</time>
      </trkpt>
      <trkpt lat="43.2085" lon="2.31299">
        <ele>118</ele>
        <time>2024-05-11T06:45:45Z</time>
      </trkpt>
      <trkpt lat="43.2085" lon="2.31299">
        <ele>118</ele>
        <time>2024-05-11T06:45:46Z</time>
      </trkpt>
      <trkpt lat="43.20849" lon="2.31299">
        <ele>118</ele>
        <time>2024-05-11T06:45:47Z</time>
      </trkpt>
      <trkpt lat="43.20849" lon="2.31299">
        <ele>118</ele>
        <time>2024-05-11T06:45:48Z</time>
      </trkpt>
      <trkpt lat="43.20849" lon="2.31299">
        <ele>118</ele>
        <time>2024-05-11T06:45:49Z</time>
      </trkpt>
      <trkpt lat="43.20849" lon="2.31299">
        <ele>118</ele>
        <time>2024-05-11T06:45:50Z</time>
      </trkpt>
      <trkpt lat="43.20849" lon="2.31299">
        <ele>118</ele>
        <time>2024-05-11T06:45:51Z</time>
      </trkpt>
      <trkpt lat="43.20849" lon="2.31299">
        <ele>118</ele>
        <time>2024-05-11T06:45:52Z</time>
      </trkpt>
      <trkpt lat="43.20849" lon="2.31299">
        <ele>118</ele>
        <time>2024-05-11T06:45:53Z</time>
      </trkpt>
      <trkpt lat="43.20849" lon="2.31299">
        <ele>118</ele>
        <time>2024-05-11T06:45:54Z</time>
      </trkpt>
      <trkpt lat="43.20849" lon="2.31299">
        <ele>118</ele>
        <time>2024-05-11T06:45:55Z</time>
      </trkpt>
      <trkpt lat="43.20849" lon="2.31299">
        <ele>118</ele>
        <time>2024-05-11T06:45:56Z</time>
      </trkpt>
      <trkpt lat="43.20849" lon="2.31299">
        <ele>118</ele>
        <time>2024-05-11T06:45:57Z</time>
      </trkpt>
      <trkpt lat="43.20849" lon="2.31299">
        <ele>118</ele>
        <time>2024-05-11T06:45:58Z</time>
      </trkpt>
      <trkpt lat="43.20849" lon="2.31299">
        <ele>118</ele>
        <time>2024-05-11T06:45:59Z</time>
      </trkpt>
      <trkpt lat="43.20849" lon="2.31299">
        <ele>118</ele>
        <time>2024-05-11T06:46:00Z</time>
      </trkpt>
      <trkpt lat="43.20849" lon="2.31299">
        <ele>118</ele>
        <time>2024-05-11T06:46:01Z</time>
      </trkpt>
      <trkpt lat="43.20849" lon="2.31299">
        <ele>118</ele>
        <time>2024-05-11T06:46:02Z</time>
      </trkpt>
      <trkpt lat="43.20849" lon="2.31299">
        <ele>118</ele>
        <time>2024-05-11T06:46:03Z</time>
      </trkpt>
      <trkpt lat="43.20849" lon="2.31299">
        <ele>118</ele>
        <time>2024-05-11T06:46:04Z</time>
      </trkpt>
      <trkpt lat="43.20849" lon="2.31299">
        <ele>118</ele>
        <time>2024-05-11T06:46:05Z</time>
      </trkpt>
      <trkpt lat="43.20849" lon="2.31299">
        <ele>118</ele>
        <time>2024-05-11T06:46:06Z</time>
      </trkpt>
      <trkpt lat="43.20849" lon="2.31299">
        <ele>118</ele>
        <time>2024-05-11T06:46:07Z</time>
      </trkpt>
      <trkpt lat="43.20849" lon="2.31299">
        <ele>118</ele>
        <time>2024-05-11T06:46:08Z</time>
      </trkpt>
      <trkpt lat="43.20849" lon="2.31299">
        <ele>118</ele>
        <time>2024-05-11T06:46:09Z</time>
      </trkpt>
      <trkpt lat="43.20849" lon="2.31299">
        <ele>118</ele>
        <time>2024-05-11T06:46:10Z</time>
      </trkpt>
      <trkpt lat="43.20849" lon="2.31299">
        <ele>118</ele>
        <time>2024-05-11T06:46:11Z</time>
      </trkpt>
      <trkpt lat="43.20849" lon="2.31299">
        <ele>118</ele>
        <time>2024-05-11T06:46:12Z</time>
      </trkpt>
      <trkpt lat="43.20849" lon="2.31299">
        <ele>118</ele>
        <time>2024-05-11T06:46:13Z</time>
      </trkpt>
      <trkpt lat="43.20849" lon="2.31299">
        <ele>118</ele>
        <time>2024-05-11T06:46:14Z</time>
      </trkpt>
      <trkpt lat="43.20849" lon="2.31299">
        <ele>118</ele>
        <time>2024-05-11T06:46:15Z</time>
      </trkpt>
      <trkpt lat="43.20849" lon="2.31299">
        <ele>118</ele>
        <time>2024-05-11T06:46:16Z</time>
      </trkpt>
      <trkpt lat="43.20849" lon="2.31299">
        <ele>118</ele>
        <time>2024-05-11T06:46:17Z</time>
      </trkpt>
      <trkpt lat="43.20849" lon="2.31299">
        <ele>118</ele>
        <time>2024-05-11T06:46:18Z</time>
      </trkpt>
      <trkpt lat="43.20849" lon="2.31299">
        <ele>118</ele>
        <time>2024-05-11T06:46:19Z</time>
      </trkpt>
      <trkpt lat="43.20849" lon="2.31299">
        <ele>118</ele>
        <time>2024-05-11T06:46:20Z</time>
      </trkpt>
      <trkpt lat="43.20849" lon="2.31299">
        <ele>118</ele>
        <time>2024-05-11T06:46:21Z</time>
      </trkpt>
      <trkpt lat="43.20849" lon="2.31299">
        <ele>118</ele>
        <time>2024-05-11T06:46:22Z</time>
      </trkpt>
      <trkpt lat="43.20849" lon="2.31299">
        <ele>118</ele>
        <time>2024-05-11T06:46:23Z</time>
      </trkpt>
      <trkpt lat="43.20849" lon="2.31299">
        <ele>118</ele>
        <time>2024-05-11T06:46:24Z</time>
      </trkpt>
      <trkpt lat="43.20849" lon="2.31299">
        <ele>118</ele>
        <time>2024-05-11T06:46:25Z</time>
      </trkpt>
      <trkpt lat="43.20849" lon="2.31299">
        <ele>118</ele>
        <time>2024-05-11T06:46:26Z</time>
      </trkpt>
      <trkpt lat="43.20849" lon="2.31299">
        <ele>118</ele>
        <time>2024-05-11T06:46:27Z</time>
      </trkpt>
      <trkpt lat="43.20849" lon="2.31299">
        <ele>118</ele>
        <time>2024-05-11T06:46:28Z</time>
      </trkpt>
      <trkpt lat="43.20849" lon="2.31299">
        <ele>118</ele>
        <time>2024-05-11T06:46:29Z</time>
      </trkpt>
      <trkpt lat="43.20849" lon="2.31299">
        <ele>118</ele>
        <time>2024-05-11T06:46:30Z</time>
      </trkpt>
      <trkpt lat="43.20849" lon="2.31299">
        <ele>118</ele>
        <time>2024-05-11T06:46:31Z</time>
      </trkpt>
      <trkpt lat="43.20849" lon="2.31299">
        <ele>118</ele>
        <time>2024-05-11T06:46:32Z</time>
      </trkpt>
      <trkpt lat="43.2085" lon="2.31299">
        <ele>118</ele>
        <time>2024-05-11T06:46:33Z</time>
      </trkpt>
      <trkpt lat="43.2085" lon="2.31299">
        <ele>118</ele>
        <time>2024-05-11T06:46:34Z</time>
      </trkpt>
      <trkpt lat="43.2085" lon="2.31299">
        <ele>118</ele>
        <time>2024-05-11T06:46:35Z</time>
      </trkpt>
      <trkpt lat="43.2085" lon="2.31299">
        <ele>118</ele>
        <time>2024-05-11T06:46:36Z</time>
      </trkpt>
      <trkpt lat="43.2085" lon="2.31299">
        <ele>118</ele>
        <time>2024-05-11T06:46:37Z</time>
      </trkpt>
      <trkpt lat="43.2085" lon="2.31299">
        <ele>118</ele>
        <time>2024-05-11T06:46:38Z</time>
      </trkpt>
      <trkpt lat="43.2085" lon="2.31299">
        <ele>118</ele>
        <time>2024-05-11T06:46:39Z</time>
      </trkpt>
      <trkpt lat="43.20849" lon="2.31299">
        <ele>118</ele>
        <time>2024-05-11T06:46:40Z</time>
      </trkpt>
      <trkpt lat="43.20849" lon="2.31299">
        <ele>118</ele>
        <time>2024-05-11T06:46:41Z</time>
      </trkpt>
      <trkpt lat="43.20849" lon="2.31299">
        <ele>118</ele>
        <time>2024-05-11T06:46:42Z</time>
      </trkpt>
      <trkpt lat="43.20849" lon="2.31299">
        <ele>118</ele>
        <time>2024-05-11T06:46:43Z</time>
      </trkpt>
      <trkpt lat="43.20849" lon="2.31299">
        <ele>118</ele>
        <time>2024-05-11T06:46:44Z</time>
      </trkpt>
      <trkpt lat="43.20849" lon="2.31299">
        <ele>118</ele>
        <time>2024-05-11T06:46:45Z</time>
      </trkpt>
      <trkpt lat="43.20849" lon="2.31299">
        <ele>118</ele>
        <time>2024-05-11T06:46:46Z</time>
      </trkpt>
      <trkpt lat="43.20849" lon="2.31299">
        <ele>118</ele>
        <time>2024-05-11T06:46:47Z</time>
      </trkpt>
      <trkpt lat="43.20849" lon="2.31299">
        <ele>118</ele>
        <time>2024-05-11T06:46:48Z</time>
      </trkpt>
      <trkpt lat="43.20849" lon="2.31299">
        <ele>118</ele>
        <time>2024-05-11T06:46:49Z</time>
      </trkpt>
      <trkpt lat="43.20849" lon="2.31299">
        <ele>118</ele>
        <time>2024-05-11T06:46:50Z</time>
      </trkpt>
      <trkpt lat="43.20849" lon="2.31299">
        <ele>118</ele>
        <time>2024-05-11T06:46:51Z</time>
      </trkpt>
      <trkpt lat="43.20849" lon="2.31299">
        <ele>118</ele>
        <time>2024-05-11T06:46:52Z</time>
      </trkpt>
      <trkpt lat="43.20849" lon="2.31299">
        <ele>118</ele>
        <time>2024-05-11T06:46:53Z</time>
      </trkpt>
      <trkpt lat="43.20849" lon="2.31299">
        <ele>118</ele>
        <time>2024-05-11T06:46:54Z</time>
      </trkpt>
      <trkpt lat="43.20849" lon="2.31299">
        <ele>118</ele>
        <time>2024-05-11T06:46:55Z</time>
      </trkpt>
      <trkpt lat="43.20849" lon="2.31299">
        <ele>118</ele>
        <time>2024-05-11T06:46:56Z</time>
      </trkpt>
      <trkpt lat="43.20849" lon="2.31299">
        <ele>118</ele>
        <time>2024-05-11T06:46:57Z</time>
      </trkpt>
      <trkpt lat="43.20849" lon="2.31299">
        <ele>118</ele>
        <time>2024-05-11T06:46:58Z</time>
      </trkpt>
      <trkpt lat="43.20849" lon="2.31299">
        <ele>118</ele>
        <time>2024-05-11T06:46:59Z</time>
      </trkpt>
      <trkpt lat="43.20849" lon="2.31299">
        <ele>118</ele>
        <time>2024-05-11T06:47:00Z</time>
      </trkpt>
      <trkpt lat="43.20849" lon="2.31299">
        <ele>118</ele>
        <time>2024-05-11T06:47:01Z</time>
      </trkpt>
      <trkpt lat="43.20849" lon="2.31299">
        <ele>118</ele>
        <time>2024-05-11T06:47:02Z</time>
      </trkpt>
      <trkpt lat="43.20849" lon="2.31299">
        <ele>118</ele>
        <time>2024-05-11T06:47:03Z</time>
      </trkpt>
      <trkpt lat="43.20849" lon="2.31299">
        <ele>118</ele>
        <time>2024-05-11T06:47:04Z</time>
      </trkpt>
      <trkpt lat="43.20849" lon="2.31299">
        <ele>118</ele>
        <time>2024-05-11T06:47:05Z</time>
      </trkpt>
      <trkpt lat="43.20849" lon="2.31299">
        <ele>118</ele>
        <time>2024-05-11T06:47:06Z</time>
      </trkpt>
      <trkpt lat="43.20849" lon="2.31299">
        <ele>118</ele>
        <time>2024-05-11T06:47:07Z</time>
      </trkpt>
      <trkpt lat="43.20849" lon="2.31299">
        <ele>118</ele>
        <time>2024-05-11T06:47:08Z</time>
      </trkpt>
      <trkpt lat="43.20849" lon="2.31299">
        <ele>118</ele>
        <time>2024-05-11T06:47:09Z</time>
      </trkpt>
      <trkpt lat="43.20849" lon="2.31299">
        <ele>118</ele>
        <time>2024-05-11T06:47:10Z</time>
      </trkpt>
      <trkpt lat="43.20849" lon="2.31299">
        <ele>118</ele>
        <time>2024-05-11T06:47:11Z</time>
      </trkpt>
      <trkpt lat="43.20849" lon="2.31299">
        <ele>118</ele>
        <time>2024-05-11T06:47:12Z</time>
      </trkpt>
      <trkpt lat="43.20849" lon="2.31299">
        <ele>118</ele>
        <time>2024-05-11T06:47:13Z</time>
      </trkpt>
      <trkpt lat="43.20849" lon="2.31299">
        <ele>118</ele>
        <time>2024-05-11T06:47:14Z</time>
      </trkpt>
      <trkpt lat="43.20849" lon="2.31299">
        <ele>118</ele>
        <time>2024-05-11T06:47:15Z</time>
      </trkpt>
      <trkpt lat="43.20849" lon="2.31299">
        <ele>118</ele>
        <time>2024-05-11T06:47:16Z</time>
      </trkpt>
      <trkpt lat="43.20849" lon="2.31299">
        <ele>118</ele>
        <time>2024-05-11T06:47:17Z</time>
      </trkpt>
      <trkpt lat="43.20849" lon="2.31299">
        <ele>118</ele>
        <time>2024-05-11T06:47:18Z</time>
      </trkpt>
      <trkpt lat="43.20849" lon="2.31299">
        <ele>118</ele>
        <time>2024-05-11T06:47:19Z</time>
      </trkpt>
      <trkpt lat="43.20849" lon="2.31299">
        <ele>118</ele>
        <time>2024-05-11T06:47:20Z</time>
      </trkpt>
      <trkpt lat="43.20849" lon="2.31299">
        <ele>118</ele>
        <time>2024-05-11T06:47:21Z</time>
      </trkpt>
      <trkpt lat="43.20849" lon="2.31299">
        <ele>118</ele>
        <time>2024-05-11T06:47:22Z</time>
      </trkpt>
      <trkpt lat="43.20849" lon="2.31299">
        <ele>118</ele>
        <time>2024-05-11T06:47:23Z</time>
      </trkpt>
      <trkpt lat="43.20849" lon="2.31299">
        <ele>118</ele>
        <time>2024-05-11T06:47:24Z</time>
      </trkpt>
      <trkpt lat="43.20849" lon="2.31299">
        <ele>118</ele>
        <time>2024-05-11T06:47:25Z</time>
      </trkpt>
      <trkpt lat="43.20849" lon="2.31299">
        <ele>118</ele>
        <time>2024-05-11T06:47:26Z</time>
      </trkpt>
      <trkpt lat="43.20849" lon="2.31299">
        <ele>118</ele>
        <time>2024-05-11T06:47:27Z</time>
      </trkpt>
      <trkpt lat="43.20849" lon="2.31299">
        <ele>118</ele>
        <time>2024-05-11T06:47:28Z</time>
      </trkpt>
      <trkpt lat="43.20849" lon="2.31299">
        <ele>118</ele>
        <time>2024-05-11T06:47:29Z</time>
      </trkpt>
      <trkpt lat="43.20849" lon="2.31299">
        <ele>118</ele>
        <time>2024-05-11T06:47:30Z</time>
      </trkpt>
      <trkpt lat="43.20849" lon="2.31299">
        <ele>118</ele>
        <time>2024-05-11T06:47:31Z</time>
      </trkpt>
      <trkpt lat="43.20849" lon="2.31299">
        <ele>118</ele>
        <time>2024-05-11T06:47:32Z</time>
      </trkpt>
      <trkpt lat="43.20849" lon="2.31299">
        <ele>118</ele>
        <time>2024-05-11T06:47:33Z</time>
      </trkpt>
      <trkpt lat="43.20849" lon="2.31299">
        <ele>118</ele>
        <time>2024-05-11T06:47:34Z</time>
      </trkpt>
      <trkpt lat="43.20849" lon="2.31299">
        <ele>118</ele>
        <time>2024-05-11T06:47:35Z</time>
      </trkpt>
      <trkpt lat="43.20849" lon="2.31299">
        <ele>118</ele>
        <time>2024-05-11T06:47:36Z</time>
      </trkpt>
      <trkpt lat="43.20849" lon="2.31299">
        <ele>118</ele>
        <time>2024-05-11T06:47:37Z</time>
      </trkpt>
      <trkpt lat="43.20849" lon="2.31299">
        <ele>118</ele>
        <time>2024-05-11T06:47:38Z</time>
      </trkpt>
      <trkpt lat="43.20849" lon="2.31299">
        <ele>118</ele>
        <time>2024-05-11T06:47:39Z</time>
      </trkpt>
      <trkpt lat="43.20849" lon="2.31299">
        <ele>118</ele>
        <time>2024-05-11T06:47:40Z</time>
      </trkpt>
      <trkpt lat="43.20849" lon="2.31299">
        <ele>118</ele>
        <time>2024-05-11T06:47:41Z</time>
      </trkpt>
      <trkpt lat="43.20849" lon="2.31299">
        <ele>118</ele>
        <time>2024-05-11T06:47:42Z</time>
      </trkpt>
      <trkpt lat="43.20849" lon="2.31299">
        <ele>118</ele>
        <time>2024-05-11T06:47:43Z</time>
      </trkpt>
      <trkpt lat="43.20849" lon="2.31299">
        <ele>118</ele>
        <time>2024-05-11T06:47:44Z</time>
      </trkpt>
      <trkpt lat="43.20849" lon="2.31299">
        <ele>118</ele>
        <time>2024-05-11T06:47:45Z</time>
      </trkpt>
      <trkpt lat="43.20849" lon="2.31299">
        <ele>118</ele>
        <time>2024-05-11T06:47:46Z</time>
      </trkpt>
      <trkpt lat="43.20849" lon="2.31299">
        <ele>118</ele>
        <time>2024-05-11T06:47:47Z</time>
      </trkpt>
      <trkpt lat="43.20849" lon="2.31299">
        <ele>118</ele>
        <time>2024-05-11T06:47:48Z</time>
      </trkpt>
      <trkpt lat="43.20849" lon="2.31299">
        <ele>118</ele>
        <time>2024-05-11T06:47:49Z</time>
      </trkpt>
      <trkpt lat="43.20849" lon="2.31299">
        <ele>118</ele>
        <time>2024-05-11T06:47:50Z</time>
      </trkpt>
      <trkpt lat="43.20849" lon="2.31299">
        <ele>118</ele>
        <time>2024-05-11T06:47:51Z</time>
      </trkpt>
      <trkpt lat="43.20849" lon="2.31299">
        <ele>118</ele>
        <time>2024-05-11T06:47:52Z</time>
      </trkpt>
      <trkpt lat="43.20849" lon="2.31299">
        <ele>118</ele>
        <time>2024-05-11T06:47:53Z</time>
      </trkpt>
      <trkpt lat="43.20849" lon="2.31299">
        <ele>118</ele>
        <time>2024-05-11T06:47:54Z</time>
      </trkpt>
      <trkpt lat="43.20849" lon="2.31299">
        <ele>118</ele>
        <time>2024-05-11T06:47:55Z</time>
      </trkpt>
      <trkpt lat="43.20849" lon="2.31299">
        <ele>118</ele>
        <time>2024-05-11T06:47:56Z</time>
      </trkpt>
      <trkpt lat="43.20849" lon="2.31299">
        <ele>118</ele>
        <time>2024-05-11T06:47:57Z</time>
      </trkpt>
      <trkpt lat="43.20849" lon="2.31299">
        <ele>118</ele>
        <time>2024-05-11T06:47:58Z</time>
      </trkpt>
      <trkpt lat="43.20849" lon="2.31299">
        <ele>118</ele>
        <time>2024-05-11T06:47:59Z</time>
      </trkpt>
      <trkpt lat="43.20849" lon="2.31299">
        <ele>118</ele>
        <time>2024-05-11T06:48:00Z</time>
      </trkpt>
      <trkpt lat="43.20849" lon="2.31299">
        <ele>118</ele>
        <time>2024-05-11T06:48:01Z</time>
      </trkpt>
      <trkpt lat="43.20849" lon="2.31299">
        <ele>118</ele>
        <time>2024-05-11T06:48:02Z</time>
      </trkpt>
      <trkpt lat="43.20849" lon="2.31299">
        <ele>118</ele>
        <time>2024-05-11T06:48:03Z</time>
      </trkpt>
      <trkpt lat="43.20849" lon="2.31299">
        <ele>118</ele>
        <time>2024-05-11T06:48:04Z</time>
      </trkpt>
      <trkpt lat="43.20849" lon="2.31299">
        <ele>118</ele>
        <time>2024-05-11T06:48:05Z</time>
      </trkpt>
      <trkpt lat="43.20849" lon="2.31299">
        <ele>118</ele>
        <time>2024-05-11T06:48:06Z</time>
      </trkpt>
      <trkpt lat="43.20849" lon="2.31299">
        <ele>118</ele>
        <time>2024-05-11T06:48:07Z</time>
      </trkpt>
      <trkpt lat="43.20849" lon="2.31299">
        <ele>118</ele>
        <time>2024-05-11T06:48:08Z</time>
      </trkpt>
      <trkpt lat="43.20849" lon="2.31299">
        <ele>118</ele>
        <time>2024-05-11T06:48:09Z</time>
      </trkpt>
      <trkpt lat="43.20849" lon="2.31299">
        <ele>118</ele>
        <time>2024-05-11T06:48:10Z</time>
      </trkpt>
      <trkpt lat="43.20849" lon="2.31299">
        <ele>118</ele>
        <time>2024-05-11T06:48:11Z</time>
      </trkpt>
      <trkpt lat="43.20849" lon="2.31299">
        <ele>118</ele>
        <time>2024-05-11T06:48:12Z</time>
      </trkpt>
      <trkpt lat="43.20849" lon="2.31299">
        <ele>118</ele>
        <time>2024-05-11T06:48:13Z</time>
      </trkpt>
      <trkpt lat="43.20849" lon="2.31299">
        <ele>118</ele>
        <time>2024-05-11T06:48:14Z</time>
      </trkpt>
      <trkpt lat="43.20849" lon="2.31299">
        <ele>118</ele>
        <time>2024-05-11T06:48:15Z</time>
      </trkpt>
      <trkpt lat="43.20849" lon="2.31299">
        <ele>118</ele>
        <time>2024-05-11T06:48:16Z</time>
      </trkpt>
      <trkpt lat="43.20849" lon="2.31299">
        <ele>118</ele>
        <time>2024-05-11T06:48:17Z</time>
      </trkpt>
      <trkpt lat="43.20849" lon="2.31299">
        <ele>118</ele>
        <time>2024-05-11T06:48:18Z</time>
      </trkpt>
      <trkpt lat="43.20849" lon="2.31299">
        <ele>118</ele>
        <time>2024-05-11T06:48:19Z</time>
      </trkpt>
      <trkpt lat="43.20849" lon="2.31299">
        <ele>118</ele>
        <time>2024-05-11T06:48:20Z</time>
      </trkpt>
      <trkpt lat="43.20849" lon="2.31299">
        <ele>118</ele>
        <time>2024-05-11T06:48:21Z</time>
      </trkpt>
      <trkpt lat="43.20849" lon="2.31299">
        <ele>118</ele>
        <time>2024-05-11T06:48:22Z</time>
      </trkpt>
      <trkpt lat="43.20849" lon="2.31299">
        <ele>118</ele>
        <time>2024-05-11T06:48:23Z</time>
      </trkpt>
      <trkpt lat="43.20849" lon="2.31299">
        <ele>118</ele>
        <time>2024-05-11T06:48:24Z</time>
      </trkpt>
      <trkpt lat="43.20849" lon="2.31299">
        <ele>118</ele>
        <time>2024-05-11T06:48:25Z</time>
      </trkpt>
      <trkpt lat="43.20849" lon="2.31299">
        <ele>118</ele>
        <time>2024-05-11T06:48:26Z</time>
      </trkpt>
      <trkpt lat="43.20849" lon="2.31299">
        <ele>118</ele>
        <time>2024-05-11T06:48:27Z</time>
      </trkpt>
      <trkpt lat="43.20849" lon="2.31299">
        <ele>118</ele>
        <time>2024-05-11T06:48:28Z</time>
      </trkpt>
      <trkpt lat="43.20849" lon="2.31299">
        <ele>118</ele>
        <time>2024-05-11T06:48:29Z</time>
      </trkpt>
      <trkpt lat="43.2085" lon="2.31299">
        <ele>118</ele>
        <time>2024-05-11T06:48:30Z</time>
      </trkpt>
      <trkpt lat="43.2085" lon="2.31299">
        <ele>118</ele>
        <time>2024-05-11T06:48:31Z</time>
      </trkpt>
      <trkpt lat="43.2085" lon="2.31299">
        <ele>118</ele>
        <time>2024-05-11T06:48:32Z</time>
      </trkpt>
      <trkpt lat="43.2085" lon="2.31299">
        <ele>118</ele>
        <time>2024-05-11T06:48:33Z</time>
      </trkpt>
      <trkpt lat="43.2085" lon="2.31299">
        <ele>118</ele>
        <time>2024-05-11T06:48:34Z</time>
      </trkpt>
      <trkpt lat="43.2085" lon="2.31299">
        <ele>118</ele>
        <time>2024-05-11T06:48:35Z</time>
      </trkpt>
      <trkpt lat="43.2085" lon="2.31299">
        <ele>118</ele>
        <time>2024-05-11T06:48:36Z</time>
      </trkpt>
      <trkpt lat="43.2085" lon="2.31299">
        <ele>118</ele>
        <time>2024-05-11T06:48:37Z</time>
      </trkpt>
      <trkpt lat="43.2085" lon="2.31299">
        <ele>118</ele>
        <time>2024-05-11T06:48:38Z</time>
      </trkpt>
      <trkpt lat="43.2085" lon="2.31299">
        <ele>118</ele>
        <time>2024-05-11T06:48:39Z</time>
      </trkpt>
      <trkpt lat="43.2085" lon="2.31299">
        <ele>118</ele>
        <time>2024-05-11T06:48:40Z</time>
      </trkpt>
      <trkpt lat="43.2085" lon="2.31299">
        <ele>118</ele>
        <time>2024-05-11T06:48:41Z</time>
      </trkpt>
      <trkpt lat="43.2085" lon="2.31299">
        <ele>118</ele>
        <time>2024-05-11T06:48:42Z</time>
      </trkpt>
      <trkpt lat="43.2085" lon="2.31299">
        <ele>118</ele>
        <time>2024-05-11T06:48:43Z</time>
      </trkpt>
      <trkpt lat="43.2085" lon="2.31299">
        <ele>118</ele>
        <time>2024-05-11T06:48:44Z</time>
      </trkpt>
      <trkpt lat="43.20849" lon="2.31299">
        <ele>118</ele>
        <time>2024-05-11T06:48:45Z</time>
      </trkpt>
      <trkpt lat="43.20849" lon="2.31299">
        <ele>118</ele>
        <time>2024-05-11T06:48:46Z</time>
      </trkpt>
      <trkpt lat="43.20849" lon="2.31299">
        <ele>118</ele>
        <time>2024-05-11T06:48:47Z</time>
      </trkpt>
      <trkpt lat="43.20849" lon="2.31299">
        <ele>118</ele>
        <time>2024-05-11T06:48:48Z</time>
      </trkpt>
      <trkpt lat="43.20849" lon="2.31299">
        <ele>118</ele>
        <time>2024-05-11T06:48:49Z</time>
      </trkpt>
      <trkpt lat="43.20849" lon="2.31299">
        <ele>118</ele>
        <time>2024-05-11T06:48:50Z</time>
      </trkpt>
      <trkpt lat="43.20849" lon="2.31299">
        <ele>118</ele>
        <time>2024-05-11T06:48:51Z</time>
      </trkpt>
      <trkpt lat="43.20849" lon="2.31299">
        <ele>118</ele>
        <time>2024-05-11T06:48:52Z</time>
      </trkpt>
      <trkpt lat="43.20849" lon="2.31299">
        <ele>118</ele>
        <time>2024-05-11T06:48:53Z</time>
      </trkpt>
      <trkpt lat="43.20849" lon="2.31299">
        <ele>118</ele>
        <time>2024-05-11T06:48:54Z</time>
      </trkpt>
      <trkpt lat="43.20849" lon="2.31299">
        <ele>118</ele>
        <time>2024-05-11T06:48:55Z</time>
      </trkpt>
      <trkpt lat="43.20849" lon="2.31299">
        <ele>118</ele>
        <time>2024-05-11T06:48:56Z</time>
      </trkpt>
      <trkpt lat="43.20849" lon="2.31299">
        <ele>118</ele>
        <time>2024-05-11T06:48:57Z</time>
      </trkpt>
      <trkpt lat="43.20849" lon="2.31299">
        <ele>118</ele>
        <time>2024-05-11T06:48:58Z</time>
      </trkpt>
      <trkpt lat="43.20849" lon="2.31299">
        <ele>118</ele>
        <time>2024-05-11T06:48:59Z</time>
      </trkpt>
      <trkpt lat="43.20849" lon="2.31299">
        <ele>118</ele>
        <time>2024-05-11T06:49:00Z</time>
      </trkpt>
      <trkpt lat="43.20849" lon="2.31299">
        <ele>118</ele>
        <time>2024-05-11T06:49:01Z</time>
      </trkpt>
      <trkpt lat="43.20849" lon="2.31299">
        <ele>118</ele>
        <time>2024-05-11T06:49:02Z</time>
      </trkpt>
      <trkpt lat="43.20849" lon="2.31299">
        <ele>118</ele>
        <time>2024-05-11T06:49:03Z</time>
      </trkpt>
      <trkpt lat="43.20849" lon="2.31299">
        <ele>118</ele>
        <time>2024-05-11T06:49:04Z</time>
      </trkpt>
      <trkpt lat="43.20849" lon="2.31299">
        <ele>118</ele>
        <time>2024-05-11T06:49:05Z</time>
      </trkpt>
      <trkpt lat="43.20849" lon="2.31299">
        <ele>118</ele>
        <time>2024-05-11T06:49:06Z</time>
      </trkpt>
      <trkpt lat="43.20849" lon="2.31299">
        <ele>118</ele>
        <time>2024-05-11T06:49:07Z</time>
      </trkpt>
      <trkpt lat="43.20849" lon="2.31299">
        <ele>118</ele>
        <time>2024-05-11T06:49:08Z</time>
      </trkpt>
      <trkpt lat="43.20849" lon="2.31299">
        <ele>118</ele>
        <time>2024-05-11T06:49:09Z</time>
      </trkpt>
      <trkpt lat="43.20849" lon="2.31299">
        <ele>118</ele>
        <time>2024-05-11T06:49:10Z</time>
      </trkpt>
      <trkpt lat="43.20849" lon="2.31299">
        <ele>118</ele>
        <time>2024-05-11T06:49:11Z</time>
      </trkpt>
      <trkpt lat="43.20849" lon="2.31299">
        <ele>118</ele>
        <time>2024-05-11T06:49:12Z</time>
      </trkpt>
      <trkpt lat="43.20849" lon="2.31299">
        <ele>118</ele>
        <time>2024-05-11T06:49:13Z</time>
      </trkpt>
      <trkpt lat="43.20849" lon="2.31299">
        <ele>118</ele>
        <time>2024-05-11T06:49:14Z</time>
      </trkpt>
      <trkpt lat="43.20849" lon="2.31299">
        <ele>118</ele>
        <time>2024-05-11T06:49:15Z</time>
      </trkpt>
      <trkpt lat="43.20849" lon="2.31299">
        <ele>118</ele>
        <time>2024-05-11T06:49:16Z</time>
      </trkpt>
      <trkpt lat="43.20849" lon="2.31299">
        <ele>118</ele>
        <time>2024-05-11T06:49:17Z</time>
      </trkpt>
      <trkpt lat="43.20849" lon="2.31299">
        <ele>118</ele>
        <time>2024-05-11T06:49:18Z</time>
      </trkpt>
      <trkpt lat="43.20849" lon="2.31299">
        <ele>118</ele>
        <time>2024-05-11T06:49:19Z</time>
      </trkpt>
      <trkpt lat="43.20849" lon="2.31299">
        <ele>118</ele>
        <time>2024-05-11T06:49:20Z</time>
      </trkpt>
      <trkpt lat="43.20849" lon="2.31299">
        <ele>118</ele>
        <time>2024-05-11T06:49:21Z</time>
      </trkpt>
      <trkpt lat="43.20849" lon="2.31299">
        <ele>118</ele>
        <time>2024-05-11T06:49:22Z</time>
      </trkpt>
      <trkpt lat="43.20849" lon="2.31299">
        <ele>118</ele>
        <time>2024-05-11T06:49:23Z</time>
      </trkpt>
      <trkpt lat="43.20849" lon="2.31299">
        <ele>118</ele>
        <time>2024-05-11T06:49:24Z</time>
      </trkpt>
      <trkpt lat="43.20849" lon="2.31299">
        <ele>118</ele>
        <time>2024-05-11T06:49:25Z</time>
      </trkpt>
      <trkpt lat="43.20849" lon="2.31299">
        <ele>118</ele>
        <time>2024-05-11T06:49:26Z</time>
      </trkpt>
      <trkpt lat="43.20849" lon="2.31299">
        <ele>118</ele>
        <time>2024-05-11T06:49:27Z</time>
      </trkpt>
      <trkpt lat="43.20849" lon="2.31299">
        <ele>118</ele>
        <time>2024-05-11T06:49:28Z</time>
      </trkpt>
      <trkpt lat="43.20849" lon="2.31299">
        <ele>118</ele>
        <time>2024-05-11T06:49:29Z</time>
      </trkpt>
      <trkpt lat="43.20849" lon="2.31299">
        <ele>118</ele>
        <time>2024-05-11T06:49:30Z</time>
      </trkpt>
      <trkpt lat="43.20849" lon="2.31299">
        <ele>118</ele>
        <time>2024-05-11T06:49:31Z</time>
      </trkpt>
      <trkpt lat="43.20849" lon="2.31299">
        <ele>118</ele>
        <time>2024-05-11T06:49:32Z</time>
      </trkpt>
      <trkpt lat="43.20849" lon="2.31299">
        <ele>118</ele>
        <time>2024-05-11T06:49:33Z</time>
      </trkpt>
      <trkpt lat="43.20849" lon="2.31299">
        <ele>118</ele>
        <time>2024-05-11T06:49:34Z</time>
      </trkpt>
      <trkpt lat="43.20849" lon="2.31299">
        <ele>118</ele>
        <time>2024-05-11T06:49:35Z</time>
      </trkpt>
      <trkpt lat="43.20849" lon="2.31299">
        <ele>118</ele>
        <time>2024-05-11T06:49:36Z</time>
      </trkpt>
      <trkpt lat="43.20849" lon="2.31299">
        <ele>118</ele>
        <time>2024-05-11T06:49:37Z</time>
      </trkpt>
      <trkpt lat="43.20849" lon="2.31299">
        <ele>118</ele>
        <time>2024-05-11T06:49:38Z</time>
      </trkpt>
      <trkpt lat="43.20849" lon="2.31299">
        <ele>118</ele>
        <time>2024-05-11T06:49:39Z</time>
      </trkpt>
      <trkpt lat="43.20849" lon="2.31299">
        <ele>118</ele>
        <time>2024-05-11T06:49:40Z</time>
      </trkpt>
      <trkpt lat="43.20849" lon="2.31299">
        <ele>118</ele>
        <time>2024-05-11T06:49:41Z</time>
      </trkpt>
      <trkpt lat="43.20849" lon="2.31299">
        <ele>118</ele>
        <time>2024-05-11T06:49:42Z</time>
      </trkpt>
      <trkpt lat="43.20849" lon="2.31299">
        <ele>118</ele>
        <time>2024-05-11T06:49:43Z</time>
      </trkpt>
      <trkpt lat="43.20849" lon="2.31299">
        <ele>118</ele>
        <time>2024-05-11T06:49:44Z</time>
      </trkpt>
      <trkpt lat="43.20849" lon="2.31299">
        <ele>118</ele>
        <time>2024-05-11T06:49:45Z</time>
      </trkpt>
      <trkpt lat="43.20849" lon="2.31299">
        <ele>118</ele>
        <time>2024-05-11T06:49:46Z</time>
      </trkpt>
      <trkpt lat="43.20849" lon="2.31299">
        <ele>118</ele>
        <time>2024-05-11T06:49:47Z</time>
      </trkpt>
      <trkpt lat="43.20849" lon="2.31298">
        <ele>118</ele>
        <time>2024-05-11T06:49:48Z</time>
      </trkpt>
      <trkpt lat="43.20849" lon="2.31298">
        <ele>118</ele>
        <time>2024-05-11T06:49:49Z</time>
      </trkpt>
      <trkpt lat="43.20849" lon="2.31298">
        <ele>118</ele>
        <time>2024-05-11T06:49:50Z</time>
      </trkpt>
      <trkpt lat="43.20849" lon="2.31298">
        <ele>118</ele>
        <time>2024-05-11T06:49:51Z</time>
      </trkpt>
      <trkpt lat="43.20849" lon="2.31298">
        <ele>118</ele>
        <time>2024-05-11T06:49:52Z</time>
      </trkpt>
      <trkpt lat="43.20849" lon="2.31298">
        <ele>118</ele>
        <time>2024-05-11T06:49:53Z</time>
      </trkpt>
      <trkpt lat="43.20849" lon="2.31298">
        <ele>118</ele>
        <time>2024-05-11T06:49:54Z</time>
      </trkpt>
      <trkpt lat="43.2085" lon="2.31298">
        <ele>118</ele>
        <time>2024-05-11T06:49:55Z</time>
      </trkpt>
      <trkpt lat="43.2085" lon="2.31298">
        <ele>118</ele>
        <time>2024-05-11T06:49:56Z</time>
      </trkpt>
      <trkpt lat="43.2085" lon="2.31298">
        <ele>118</ele>
        <time>2024-05-11T06:49:57Z</time>
      </trkpt>
      <trkpt lat="43.2085" lon="2.31298">
        <ele>118</ele>
        <time>2024-05-11T06:49:58Z</time>
      </trkpt>
      <trkpt lat="43.2085" lon="2.31298">
        <ele>118</ele>
        <time>2024-05-11T06:49:59Z</time>
      </trkpt>
      <trkpt lat="43.2085" lon="2.31298">
        <ele>118</ele>
        <time>2024-05-11T06:50:00Z</time>
      </trkpt>
      <trkpt lat="43.2085" lon="2.31298">
        <ele>118</ele>
        <time>2024-05-11T06:50:01Z</time>
      </trkpt>
      <trkpt lat="43.2085" lon="2.31298">
        <ele>118</ele>
        <time>2024-05-11T06:50:02Z</time>
      </trkpt>
      <trkpt lat="43.2085" lon="2.31298">
        <ele>118</ele>
        <time>2024-05-11T06:50:03Z</time>
      </trkpt>
      <trkpt lat="43.2085" lon="2.31298">
        <ele>118</ele>
        <time>2024-05-11T06:50:04Z</time>
      </trkpt>
      <trkpt lat="43.2085" lon="2.31298">
        <ele>118</ele>
        <time>2024-05-11T06:50:05Z</time>
      </trkpt>
      <trkpt lat="43.2085" lon="2.31298">
        <ele>118</ele>
        <time>2024-05-11T06:50:06Z</time>
      </trkpt>
      <trkpt lat="43.2085" lon="2.31298">
        <ele>118</ele>
        <time>2024-05-11T06:50:07Z</time>
      </trkpt>
      <trkpt lat="43.2085" lon="2.31298">
        <ele>118</ele>
        <time>2024-05-11T06:50:08Z</time>
      </trkpt>
      <trkpt lat="43.2085" lon="2.31298">
        <ele>118</ele>
        <time>2024-05-11T06:50:09Z</time>
      </trkpt>
      <trkpt lat="43.2085" lon="2.31298">
        <ele>118</ele>
        <time>2024-05-11T06:50:10Z</time>
      </trkpt>
      <trkpt lat="43.2085" lon="2.31298">
        <ele>118</ele>
        <time>2024-05-11T06:50:11Z</time>
      </trkpt>
      <trkpt lat="43.2085" lon="2.31298">
        <ele>118</ele>
        <time>2024-05-11T06:50:12Z</time>
      </trkpt>
      <trkpt lat="43.2085" lon="2.31298">
        <ele>118</ele>
        <time>2024-05-11T06:50:13Z</time>
      </trkpt>
      <trkpt lat="43.2085" lon="2.31298">
        <ele>118</ele>
        <time>2024-05-11T06:50:14Z</time>
      </trkpt>
      <trkpt lat="43.2085" lon="2.31298">
        <ele>118</ele>
        <time>2024-05-11T06:50:15Z</time>
      </trkpt>
      <trkpt lat="43.2085" lon="2.31298">
        <ele>118</ele>
        <time>2024-05-11T06:50:16Z</time>
      </trkpt>
      <trkpt lat="43.2085" lon="2.31298">
        <ele>118</ele>
        <time>2024-05-11T06:50:17Z</time>
      </trkpt>
      <trkpt lat="43.2085" lon="2.31298">
        <ele>118</ele>
        <time>2024-05-11T06:50:18Z</time>
      </trkpt>
      <trkpt lat="43.2085" lon="2.31298">
        <ele>118</ele>
        <time>2024-05-11T06:50:19Z</time>
      </trkpt>
      <trkpt lat="43.2085" lon="2.31298">
        <ele>118</ele>
        <time>2024-05-11T06:50:20Z</time>
      </trkpt>
      <trkpt lat="43.2085" lon="2.31298">
        <ele>118</ele>
        <time>2024-05-11T06:50:21Z</time>
      </trkpt>
      <trkpt lat="43.2085" lon="2.31298">
        <ele>118</ele>
        <time>2024-05-11T06:50:22Z</time>
      </trkpt>
      <trkpt lat="43.2085" lon="2.31298">
        <ele>118</ele>
        <time>2024-05-11T06:50:23Z</time>
      </trkpt>
      <trkpt lat="43.2085" lon="2.31298">
        <ele>118</ele>
        <time>2024-05-11T06:50:24Z</time>
      </trkpt>
      <trkpt lat="43.2085" lon="2.31298">
        <ele>118</ele>
        <time>2024-05-11T06:50:25Z</time>
      </trkpt>
      <trkpt lat="43.2085" lon="2.31298">
        <ele>118</ele>
        <time>2024-05-11T06:50:26Z</time>
      </trkpt>
      <trkpt lat="43.2085" lon="2.31298">
        <ele>118</ele>
        <time>2024-05-11T06:50:27Z</time>
      </trkpt>
      <trkpt lat="43.2085" lon="2.31298">
        <ele>118</ele>
        <time>2024-05-11T06:50:28Z</time>
      </trkpt>
      <trkpt lat="43.2085" lon="2.31298">
        <ele>118</ele>
        <time>2024-05-11T06:50:29Z</time>
      </trkpt>
      <trkpt lat="43.2085" lon="2.31298">
        <ele>118</ele>
        <time>2024-05-11T06:50:30Z</time>
      </trkpt>
      <trkpt lat="43.2085" lon="2.31298">
        <ele>118</ele>
        <time>2024-05-11T06:50:31Z</time>
      </trkpt>
      <trkpt lat="43.2085" lon="2.31298">
        <ele>118</ele>
        <time>2024-05-11T06:50:32Z</time>
      </trkpt>
      <trkpt lat="43.2085" lon="2.31298">
        <ele>118</ele>
        <time>2024-05-11T06:50:33Z</time>
      </trkpt>
      <trkpt lat="43.2085" lon="2.31298">
        <ele>118</ele>
        <time>2024-05-11T06:50:34Z</time>
      </trkpt>
      <trkpt lat="43.2085" lon="2.31298">
        <ele>118</ele>
        <time>2024-05-11T06:50:35Z</time>
      </trkpt>
      <trkpt lat="43.2085" lon="2.31298">
        <ele>118</ele>
        <time>2024-05-11T06:50:36Z</time>
      </trkpt>
      <trkpt lat="43.2085" lon="2.31298">
        <ele>118</ele>
        <time>2024-05-11T06:50:37Z</time>
      </trkpt>
      <trkpt lat="43.2085" lon="2.31298">
        <ele>118</ele>
        <time>2024-05-11T06:50:38Z</time>
      </trkpt>
      <trkpt lat="43.2085" lon="2.31298">
        <ele>118</ele>
        <time>2024-05-11T06:50:39Z</time>
      </trkpt>
      <trkpt lat="43.2085" lon="2.31298">
        <ele>118</ele>
        <time>2024-05-11T06:50:40Z</time>
      </trkpt>
      <trkpt lat="43.2085" lon="2.31298">
        <ele>118</ele>
        <time>2024-05-11T06:50:41Z</time>
      </trkpt>
      <trkpt lat="43.2085" lon="2.31298">
        <ele>118</ele>
        <time>2024-05-11T06:50:42Z</time>
      </trkpt>
      <trkpt lat="43.2085" lon="2.31298">
        <ele>118</ele>
        <time>2024-05-11T06:50:43Z</time>
      </trkpt>
      <trkpt lat="43.2085" lon="2.31298">
        <ele>118</ele>
        <time>2024-05-11T06:50:44Z</time>
      </trkpt>
      <trkpt lat="43.2085" lon="2.31298">
        <ele>118</ele>
        <time>2024-05-11T06:50:45Z</time>
      </trkpt>
      <trkpt lat="43.2085" lon="2.31298">
        <ele>118</ele>
        <time>2024-05-11T06:50:46Z</time>
      </trkpt>
      <trkpt lat="43.2085" lon="2.31298">
        <ele>118</ele>
        <time>2024-05-11T06:50:47Z</time>
      </trkpt>
      <trkpt lat="43.2085" lon="2.31298">
        <ele>118</ele>
        <time>2024-05-11T06:50:48Z</time>
      </trkpt>
      <trkpt lat="43.2085" lon="2.31298">
        <ele>118</ele>
        <time>2024-05-11T06:50:49Z</time>
      </trkpt>
      <trkpt lat="43.2085" lon="2.31298">
        <ele>118</ele>
        <time>2024-05-11T06:50:50Z</time>
      </trkpt>
      <trkpt lat="43.2085" lon="2.31298">
        <ele>118</ele>
        <time>2024-05-11T06:50:51Z</time>
      </trkpt>
      <trkpt lat="43.2085" lon="2.31298">
        <ele>118</ele>
        <time>2024-05-11T06:50:52Z</time>
      </trkpt>
      <trkpt lat="43.2085" lon="2.31298">
        <ele>118</ele>
        <time>2024-05-11T06:50:53Z</time>
      </trkpt>
      <trkpt lat="43.2085" lon="2.31298">
        <ele>118</ele>
        <time>2024-05-11T06:50:54Z</time>
      </trkpt>
      <trkpt lat="43.2085" lon="2.31298">
        <ele>118</ele>
        <time>2024-05-11T06:50:55Z</time>
      </trkpt>
      <trkpt lat="43.2085" lon="2.31298">
        <ele>118</ele>
        <time>2024-05-11T06:50:56Z</time>
      </trkpt>
      <trkpt lat="43.2085" lon="2.31298">
        <ele>118</ele>
        <time>2024-05-11T06:50:57Z</time>
      </trkpt>
      <trkpt lat="43.2085" lon="2.31298">
        <ele>118</ele>
        <time>2024-05-11T06:50:58Z</time>
      </trkpt>
      <trkpt lat="43.2085" lon="2.31298">
        <ele>118</ele>
        <time>2024-05-11T06:50:59Z</time>
      </trkpt>
      <trkpt lat="43.2085" lon="2.31298">
        <ele>118</ele>
        <time>2024-05-11T06:51:00Z</time>
      </trkpt>
      <trkpt lat="43.2085" lon="2.31298">
        <ele>118</ele>
        <time>2024-05-11T06:51:01Z</time>
      </trkpt>
      <trkpt lat="43.2085" lon="2.31298">
        <ele>118</ele>
        <time>2024-05-11T06:51:02Z</time>
      </trkpt>
      <trkpt lat="43.2085" lon="2.31298">
        <ele>118</ele>
        <time>2024-05-11T06:51:03Z</time>
      </trkpt>
      <trkpt lat="43.2085" lon="2.31298">
        <ele>118</ele>
        <time>2024-05-11T06:51:04Z</time>
      </trkpt>
      <trkpt lat="43.2085" lon="2.31298">
        <ele>118</ele>
        <time>2024-05-11T06:51:05Z</time>
      </trkpt>
      <trkpt lat="43.2085" lon="2.31298">
        <ele>118</ele>
        <time>2024-05-11T06:51:06Z</time>
      </trkpt>
      <trkpt lat="43.2085" lon="2.31298">
        <ele>118</ele>
        <time>2024-05-11T06:51:07Z</time>
      </trkpt>
      <trkpt lat="43.2085" lon="2.31298">
        <ele>118</ele>
        <time>2024-05-11T06:51:08Z</time>
      </trkpt>
      <trkpt lat="43.2085" lon="2.31298">
        <ele>118</ele>
        <time>2024-05-11T06:51:09Z</time>
      </trkpt>
      <trkpt lat="43.2085" lon="2.31298">
        <ele>118</ele>
        <time>2024-05-11T06:51:10Z</time>
      </trkpt>
      <trkpt lat="43.2085" lon="2.31298">
        <ele>118</ele>
        <time>2024-05-11T06:51:11Z</time>
      </trkpt>
      <trkpt lat="43.2085" lon="2.31298">
        <ele>118</ele>
        <time>2024-05-11T06:51:12Z</time>
      </trkpt>
      <trkpt lat="43.2085" lon="2.31298">
        <ele>118</ele>
        <time>2024-05-11T06:51:13Z</time>
      </trkpt>
      <trkpt lat="43.2085" lon="2.31298">
        <ele>118</ele>
        <time>2024-05-11T06:51:14Z</time>
      </trkpt>
      <trkpt lat="43.2085" lon="2.31298">
        <ele>118</ele>
        <time>2024-05-11T06:51:15Z</time>
      </trkpt>
      <trkpt lat="43.2085" lon="2.31298">
        <ele>118</ele>
        <time>2024-05-11T06:51:16Z</time>
      </trkpt>
      <trkpt lat="43.2085" lon="2.31298">
        <ele>118</ele>
        <time>2024-05-11T06:51:17Z</time>
      </trkpt>
      <trkpt lat="43.2085" lon="2.31298">
        <ele>118</ele>
        <time>2024-05-11T06:51:18Z</time>
      </trkpt>
      <trkpt lat="43.2085" lon="2.31298">
        <ele>118</ele>
        <time>2024-05-11T06:51:19Z</time>
      </trkpt>
      <trkpt lat="43.2085" lon="2.31298">
        <ele>118</ele>
        <time>2024-05-11T06:51:20Z</time>
      </trkpt>
      <trkpt lat="43.2085" lon="2.31298">
        <ele>118</ele>
        <time>2024-05-11T06:51:21Z</time>
      </trkpt>
      <trkpt lat="43.2085" lon="2.31298">
        <ele>118</ele>
        <time>2024-05-11T06:51:22Z</time>
      </trkpt>
      <trkpt lat="43.2085" lon="2.31298">
        <ele>118</ele>
        <time>2024-05-11T06:51:23Z</time>
      </trkpt>
      <trkpt lat="43.2085" lon="2.31298">
        <ele>118</ele>
        <time>2024-05-11T06:51:24Z</time>
      </trkpt>
      <trkpt lat="43.2085" lon="2.31298">
        <ele>118</ele>
        <time>2024-05-11T06:51:25Z</time>
      </trkpt>
      <trkpt lat="43.2085" lon="2.31298">
        <ele>118</ele>
        <time>2024-05-11T06:51:26Z</time>
      </trkpt>
      <trkpt lat="43.2085" lon="2.31298">
        <ele>118</ele>
        <time>2024-05-11T06:51:27Z</time>
      </trkpt>
      <trkpt lat="43.2085" lon="2.31298">
        <ele>118</ele>
        <time>2024-05-11T06:51:28Z</time>
      </trkpt>
      <trkpt lat="43.2085" lon="2.31298">
        <ele>118</ele>
        <time>2024-05-11T06:51:29Z</time>
      </trkpt>
      <trkpt lat="43.2085" lon="2.31298">
        <ele>118</ele>
        <time>2024-05-11T06:51:30Z</time>
      </trkpt>
      <trkpt lat="43.2085" lon="2.31298">
        <ele>118</ele>
        <time>2024-05-11T06:51:31Z</time>
      </trkpt>
      <trkpt lat="43.2085" lon="2.31298">
        <ele>118</ele>
        <time>2024-05-11T06:51:32Z</time>
      </trkpt>
      <trkpt lat="43.2085" lon="2.31298">
        <ele>118</ele>
        <time>2024-05-11T06:51:33Z</time>
      </trkpt>
      <trkpt lat="43.2085" lon="2.31298">
        <ele>118</ele>
        <time>2024-05-11T06:51:34Z</time>
      </trkpt>
      <trkpt lat="43.2085" lon="2.31298">
        <ele>118</ele>
        <time>2024-05-11T06:51:35Z</time>
      </trkpt>
      <trkpt lat="43.20849" lon="2.31298">
        <ele>118</ele>
        <time>2024-05-11T06:51:36Z</time>
      </trkpt>
      <trkpt lat="43.20847" lon="2.31298">
        <ele>118</ele>
        <time>2024-05-11T06:51:37Z</time>
      </trkpt>
      <trkpt lat="43.20845" lon="2.31297">
        <ele>118</ele>
        <time>2024-05-11T06:51:38Z</time>
      </trkpt>
      <trkpt lat="43.20843" lon="2.31297">
        <ele>118</ele>
        <time>2024-05-11T06:51:39Z</time>
      </trkpt>
      <trkpt lat="43.2084" lon="2.31297">
        <ele>118</ele>
        <time>2024-05-11T06:51:40Z</time>
      </trkpt>
      <trkpt lat="43.20838" lon="2.31297">
        <ele>118</ele>
        <time>2024-05-11T06:51:41Z</time>
      </trkpt>
      <trkpt lat="43.20836" lon="2.31298">
        <ele>118</ele>
        <time>2024-05-11T06:51:42Z</time>
      </trkpt>
      <trkpt lat="43.20834" lon="2.31299">
        <ele>118</ele>
        <time>2024-05-11T06:51:43Z</time>
      </trkpt>
      <trkpt lat="43.20832" lon="2.313">
        <ele>118</ele>
        <time>2024-05-11T06:51:44Z</time>
      </trkpt>
      <trkpt lat="43.2083" lon="2.31301">
        <ele>117.9</ele>
        <time>2024-05-11T06:51:45Z</time>
      </trkpt>
      <trkpt lat="43.20829" lon="2.31301">
        <ele>117.8</ele>
        <time>2024-05-11T06:51:46Z</time>
      </trkpt>
      <trkpt lat="43.20827" lon="2.31302">
        <ele>117.8</ele>
        <time>2024-05-11T06:51:47Z</time>
      </trkpt>
      <trkpt lat="43.20825" lon="2.31302">
        <ele>117.7</ele>
        <time>2024-05-11T06:51:48Z</time>
      </trkpt>
      <trkpt lat="43.20824" lon="2.31302">
        <ele>117.7</ele>
        <time>2024-05-11T06:51:49Z</time>
      </trkpt>
      <trkpt lat="43.20822" lon="2.31301">
        <ele>117.6</ele>
        <time>2024-05-11T06:51:50Z</time>
      </trkpt>
      <trkpt lat="43.20821" lon="2.31299">
        <ele>117.6</ele>
        <time>2024-05-11T06:51:51Z</time>
      </trkpt>
      <trkpt lat="43.2082" lon="2.31297">
        <ele>117.5</ele>
        <time>2024-05-11T06:51:52Z</time>
      </trkpt>
      <trkpt lat="43.2082" lon="2.31296">
        <ele>117.5</ele>
        <time>2024-05-11T06:51:53Z</time>
      </trkpt>
      <trkpt lat="43.20821" lon="2.31293">
        <ele>117.6</ele>
        <time>2024-05-11T06:51:54Z</time>
      </trkpt>
      <trkpt lat="43.20822" lon="2.31291">
        <ele>117.6</ele>
        <time>2024-05-11T06:51:55Z</time>
      </trkpt>
      <trkpt lat="43.20824" lon="2.31289">
        <ele>117.7</ele>
        <time>2024-05-11T06:51:56Z</time>
      </trkpt>
      <trkpt lat="43.20827" lon="2.31287">
        <ele>117.8</ele>
        <time>2024-05-11T06:51:57Z</time>
      </trkpt>
      <trkpt lat="43.2083" lon="2.31286">
        <ele>117.9</ele>
        <time>2024-05-11T06:51:58Z</time>
      </trkpt>
      <trkpt lat="43.20833" lon="2.31284">
        <ele>118</ele>
        <time>2024-05-11T06:51:59Z</time>
      </trkpt>
      <trkpt lat="43.20836" lon="2.31283">
        <ele>118</ele>
        <time>2024-05-11T06:52:00Z</time>
      </trkpt>
      <trkpt lat="43.20839" lon="2.31281">
        <ele>118</ele>
        <time>2024-05-11T06:52:01Z</time>
      </trkpt>
      <trkpt lat="43.20842" lon="2.3128">
        <ele>118</ele>
        <time>2024-05-11T06:52:02Z</time>
      </trkpt>
      <trkpt lat="43.20845" lon="2.3128">
        <ele>118</ele>
        <time>2024-05-11T06:52:03Z</time>
      </trkpt>
      <trkpt lat="43.20849" lon="2.31281">
        <ele>118</ele>
        <time>2024-05-11T06:52:04Z</time>
      </trkpt>
      <trkpt lat="43.20851" lon="2.31283">
        <ele>118</ele>
        <time>2024-05-11T06:52:05Z</time>
      </trkpt>
      <trkpt lat="43.20854" lon="2.31287">
        <ele>118</ele>
        <time>2024-05-11T06:52:06Z</time>
      </trkpt>
      <trkpt lat="43.20855" lon="2.31291">
        <ele>118</ele>
        <time>2024-05-11T06:52:07Z</time>
      </trkpt>
      <trkpt lat="43.20857" lon="2.31295">
        <ele>118</ele>
        <time>2024-05-11T06:52:08Z</time>
      </trkpt>
      <trkpt lat="43.2086" lon="2.31298">
        <ele>118</ele>
        <time>2024-05-11T06:52:09Z</time>
      </trkpt>
      <trkpt lat="43.20863" lon="2.313">
        <ele>118.1</ele>
        <time>2024-05-11T06:52:10Z</time>
      </trkpt>
      <trkpt lat="43.20866" lon="2.313">
        <ele>118.4</ele>
        <time>2024-05-11T06:52:11Z</time>
      </trkpt>
      <trkpt lat="43.20869" lon="2.31298">
        <ele>118.6</ele>
        <time>2024-05-11T06:52:12Z</time>
      </trkpt>
      <trkpt lat="43.20871" lon="2.31295">
        <ele>118.7</ele>
        <time>2024-05-11T06:52:13Z</time>
      </trkpt>
      <trkpt lat="43.20873" lon="2.31291">
        <ele>118.9</ele>
        <time>2024-05-11T06:52:14Z</time>
      </trkpt>
      <trkpt lat="43.20874" lon="2.31286">
        <ele>118.9</ele>
        <time>2024-05-11T06:52:15Z</time>
      </trkpt>
      <trkpt lat="43.20874" lon="2.31282">
        <ele>118.9</ele>
        <time>2024-05-11T06:52:16Z</time>
      </trkpt>
      <trkpt lat="43.20876" lon="2.31278">
        <ele>119.1</ele>
        <time>2024-05-11T06:52:17Z</time>
      </trkpt>
      <trkpt lat="43.20878" lon="2.31276">
        <ele>119.2</ele>
        <time>2024-05-11T06:52:18Z</time>
      </trkpt>
      <trkpt lat="43.20881" lon="2.31277">
        <ele>119.4</ele>
        <time>2024-05-11T06:52:19Z</time>
      </trkpt>
      <trkpt lat="43.20885" lon="2.31278">
        <ele>119.7</ele>
        <time>2024-05-11T06:52:20Z</time>
      </trkpt>
      <trkpt lat="43.20888" lon="2.3128">
        <ele>119.9</ele>
        <time>2024-05-11T06:52:21Z</time>
      </trkpt>
      <trkpt lat="43.20891" lon="2.31281">
        <ele>120.1</ele>
        <time>2024-05-11T06:52:22Z</time>
      </trkpt>
      <trkpt lat="43.20894" lon="2.31281">
        <ele>120.2</ele>
        <time>2024-05-11T06:52:23Z</time>
      </trkpt>
      <trkpt lat="43.20897" lon="2.31279">
        <ele>120.3</ele>
        <time>2024-05-11T06:52:24Z</time>
      </trkpt>
      <trkpt lat="43.20899" lon="2.31276">
        <ele>120.4</ele>
        <time>2024-05-11T06:52:25Z</time>
      </trkpt>
      <trkpt lat="43.20899" lon="2.31272">
        <ele>120.4</ele>
        <time>2024-05-11T06:52:26Z</time>
      </trkpt>
      <trkpt lat="43.20899" lon="2.31268">
        <ele>120.4</ele>
        <time>2024-05-11T06:52:27Z</time>
      </trkpt>
      <trkpt lat="43.20897" lon="2.31265">
        <ele>120.3</ele>
        <time>2024-05-11T06:52:28Z</time>
      </trkpt>
      <trkpt lat="43.20894" lon="2.31263">
        <ele>120.2</ele>
        <time>2024-05-11T06:52:29Z</time>
      </trkpt>
      <trkpt lat="43.2089" lon="2.31264">
        <ele>120</ele>
        <time>2024-05-11T06:52:30Z</time>
      </trkpt>
      <trkpt lat="43.20886" lon="2.31266">
        <ele>119.8</ele>
        <time>2024-05-11T06:52:31Z</time>
      </trkpt>
      <trkpt lat="43.20882" lon="2.31269">
        <ele>119.6</ele>
        <time>2024-05-11T06:52:32Z</time>
      </trkpt>
      <trkpt lat="43.20878" lon="2.3127">
        <ele>119.3</ele>
        <time>2024-05-11T06:52:33Z</time>
      </trkpt>
      <trkpt lat="43.20874" lon="2.31271">
        <ele>119.1</ele>
        <time>2024-05-11T06:52:34Z</time>
      </trkpt>
      <trkpt lat="43.2087" lon="2.3127">
        <ele>118.8</ele>
        <time>2024-05-11T06:52:35Z</time>
      </trkpt>
      <trkpt lat="43.20867" lon="2.3127">
        <ele>118.6</ele>
        <time>2024-05-11T06:52:36Z</time>
      </trkpt>
      <trkpt lat="43.20863" lon="2.3127">
        <ele>118.4</ele>
        <time>2024-05-11T06:52:37Z</time>
      </trkpt>
      <trkpt lat="43.2086" lon="2.3127">
        <ele>118.3</ele>
        <time>2024-05-11T06:52:38Z</time>
      </trkpt>
      <trkpt lat="43.20857" lon="2.3127">
        <ele>118.2</ele>
        <time>2024-05-11T06:52:39Z</time>
      </trkpt>
      <trkpt lat="43.20855" lon="2.3127">
        <ele>118.2</ele>
        <time>2024-05-11T06:52:40Z</time>
      </trkpt>
      <trkpt lat="43.20853" lon="2.31271">
        <ele>118.2</ele>
        <time>2024-05-11T06:52:41Z</time>
      </trkpt>
      <trkpt lat="43.20851" lon="2.31272">
        <ele>118.1</ele>
        <time>2024-05-11T06:52:42Z</time>
      </trkpt>
      <trkpt lat="43.20849" lon="2.31273">
        <ele>118.1</ele>
        <time>2024-05-11T06:52:43Z</time>
      </trkpt>
      <trkpt lat="43.20847" lon="2.31274">
        <ele>118.1</ele>
        <time>2024-05-11T06:52:44Z</time>
      </trkpt>
      <trkpt lat="43.20845" lon="2.31274">
        <ele>118.1</ele>
        <time>2024-05-11T06:52:45Z</time>
      </trkpt>
      <trkpt lat="43.20844" lon="2.31274">
        <ele>118.1</ele>
        <time>2024-05-11T06:52:46Z</time>
      </trkpt>
      <trkpt lat="43.20843" lon="2.31275">
        <ele>118</ele>
        <time>2024-05-11T06:52:47Z</time>
      </trkpt>
      <trkpt lat="43.20842" lon="2.31275">
        <ele>118</ele>
        <time>2024-05-11T06:52:48Z</time>
      </trkpt>
      <trkpt lat="43.20841" lon="2.31275">
        <ele>118</ele>
        <time>2024-05-11T06:52:49Z</time>
      </trkpt>
      <trkpt lat="43.20841" lon="2.31276">
        <ele>118</ele>
        <time>2024-05-11T06:52:50Z</time>
      </trkpt>
      <trkpt lat="43.20841" lon="2.31276">
        <ele>118</ele>
        <time>2024-05-11T06:52:51Z</time>
      </trkpt>
      <trkpt lat="43.20841" lon="2.31276">
        <ele>118</ele>
        <time>2024-05-11T06:52:52Z</time>
      </trkpt>
      <trkpt lat="43.20841" lon="2.31275">
        <ele>118</ele>
        <time>2024-05-11T06:52:53Z</time>
      </trkpt>
      <trkpt lat="43.20841" lon="2.31275">
        <ele>118</ele>
        <time>2024-05-11T06:52:54Z</time>
      </trkpt>
      <trkpt lat="43.20841" lon="2.31275">
        <ele>118</ele>
        <time>2024-05-11T06:52:55Z</time>
      </trkpt>
      <trkpt lat="43.20841" lon="2.31275">
        <ele>118</ele>
        <time>2024-05-11T06:52:56Z</time>
      </trkpt>
      <trkpt lat="43.20841" lon="2.31275">
        <ele>118</ele>
        <time>2024-05-11T06:52:57Z</time>
      </trkpt>
      <trkpt lat="43.20841" lon="2.31275">
        <ele>118</ele>
        <time>2024-05-11T06:52:58Z</time>
      </trkpt>
      <trkpt lat="43.20841" lon="2.31275">
        <ele>118</ele>
        <time>2024-05-11T06:52:59Z</time>
      </trkpt>
      <trkpt lat="43.20841" lon="2.31275">
        <ele>118</ele>
        <time>2024-05-11T06:53:00Z</time>
      </trkpt>
      <trkpt lat="43.20841" lon="2.31275">
        <ele>118</ele>
        <time>2024-05-11T06:53:01Z</time>
      </trkpt>
      <trkpt lat="43.20841" lon="2.31275">
        <ele>118</ele>
        <time>2024-05-11T06:53:02Z</time>
      </trkpt>
      <trkpt lat="43.20841" lon="2.31275">
        <ele>118</ele>
        <time>2024-05-11T06:53:03Z</time>
      </trkpt>
      <trkpt lat="43.20841" lon="2.31275">
        <ele>118</ele>
        <time>2024-05-11T06:53:04Z</time>
      </trkpt>
      <trkpt lat="43.20841" lon="2.31275">
        <ele>118</ele>
        <time>2024-05-11T06:53:05Z</time>
      </trkpt>
      <trkpt lat="43.20841" lon="2.31275">
        <ele>118</ele>
        <time>2024-05-11T06:53:06Z</time>
      </trkpt>
      <trkpt lat="43.20841" lon="2.31275">
        <ele>118</ele>
        <time>2024-05-11T06:53:07Z</time>
      </trkpt>
      <trkpt lat="43.20841" lon="2.31275">
        <ele>118</ele>
        <time>2024-05-11T06:53:08Z</time>
      </trkpt>
      <trkpt lat="43.20841" lon="2.31275">
        <ele>118</ele>
        <time>2024-05-11T06:53:09Z</time>
      </trkpt>
      <trkpt lat="43.20841" lon="2.31275">
        <ele>118</ele>
        <time>2024-05-11T06:53:10Z</time>
      </trkpt>
      <trkpt lat="43.20841" lon="2.31275">
        <ele>118</ele>
        <time>2024-05-11T06:53:11Z</time>
      </trkpt>
      <trkpt lat="43.20841" lon="2.31275">
        <ele>118</ele>
        <time>2024-05-11T06:53:12Z</time>
      </trkpt>
      <trkpt lat="43.20841" lon="2.31275">
        <ele>118</ele>
        <time>2024-05-11T06:53:13Z</time>
      </trkpt>
      <trkpt lat="43.20841" lon="2.31275">
        <ele>118</ele>
        <time>2024-05-11T06:53:14Z</time>
      </trkpt>
      <trkpt lat="43.20841" lon="2.31275">
        <ele>118</ele>
        <time>2024-05-11T06:53:15Z</time>
      </trkpt>
      <trkpt lat="43.20841" lon="2.31275">
        <ele>118</ele>
        <time>2024-05-11T06:53:16Z</time>
      </trkpt>
      <trkpt lat="43.20841" lon="2.31275">
        <ele>118</ele>
        <time>2024-05-11T06:53:17Z</time>
      </trkpt>
      <trkpt lat="43.20841" lon="2.3128">
        <ele>118</ele>
        <time>2024-05-11T06:53:25Z</time>
      </trkpt>
      <trkpt lat="43.20841" lon="2.31275">
        <ele>118</ele>
        <time>2024-05-11T06:53:26Z</time>
      </trkpt>
      <trkpt lat="43.20841" lon="2.31275">
        <ele>118</ele>
        <time>2024-05-11T06:53:27Z</time>
      </trkpt>
      <trkpt lat="43.20841" lon="2.31275">
        <ele>118</ele>
        <time>2024-05-11T06:53:28Z</time>
      </trkpt>
      <trkpt lat="43.2084" lon="2.31276">
        <ele>118</ele>
        <time>2024-05-11T06:53:29Z</time>
      </trkpt>
      <trkpt lat="43.2084" lon="2.31276">
        <ele>118</ele>
        <time>2024-05-11T06:53:30Z</time>
      </trkpt>
      <trkpt lat="43.2084" lon="2.31276">
        <ele>118</ele>
        <time>2024-05-11T06:53:31Z</time>
      </trkpt>
      <trkpt lat="43.20839" lon="2.31277">
        <ele>118</ele>
        <time>2024-05-11T06:53:32Z</time>
      </trkpt>
      <trkpt lat="43.20838" lon="2.31279">
        <ele>118</ele>
        <time>2024-05-11T06:53:33Z</time>
      </trkpt>
      <trkpt lat="43.20836" lon="2.3128">
        <ele>118</ele>
        <time>2024-05-11T06:53:34Z</time>
      </trkpt>
      <trkpt lat="43.20834" lon="2.31282">
        <ele>118</ele>
        <time>2024-05-11T06:53:35Z</time>
      </trkpt>
      <trkpt lat="43.20832" lon="2.31284">
        <ele>118</ele>
        <time>2024-05-11T06:53:36Z</time>
      </trkpt>
      <trkpt lat="43.20829" lon="2.31287">
        <ele>117.8</ele>
        <time>2024-05-11T06:53:37Z</time>
      </trkpt>
      <trkpt lat="43.20826" lon="2.31288">
        <ele>117.7</ele>
        <time>2024-05-11T06:53:38Z</time>
      </trkpt>
      <trkpt lat="43.20823" lon="2.3129">
        <ele>117.6</ele>
        <time>2024-05-11T06:53:39Z</time>
      </trkpt>
      <trkpt lat="43.2082" lon="2.31291">
        <ele>117.5</ele>
        <time>2024-05-11T06:53:40Z</time>
      </trkpt>
      <trkpt lat="43.20817" lon="2.31292">
        <ele>117.4</ele>
        <time>2024-05-11T06:53:41Z</time>
      </trkpt>
      <trkpt lat="43.20815" lon="2.31293">
        <ele>117.3</ele>
        <time>2024-05-11T06:53:42Z</time>
      </trkpt>
      <trkpt lat="43.20812" lon="2.31294">
        <ele>117.2</ele>
        <time>2024-05-11T06:53:43Z</time>
      </trkpt>
      <trkpt lat="43.20811" lon="2.31296">
        <ele>117.2</ele>
        <time>2024-05-11T06:53:44Z</time>
      </trkpt>
      <trkpt lat="43.20809" lon="2.31297">
        <ele>117.1</ele>
        <time>2024-05-11T06:53:45Z</time>
      </trkpt>
      <trkpt lat="43.20806" lon="2.31299">
        <ele>117</ele>
        <time>2024-05-11T06:53:46Z</time>
      </trkpt>
      <trkpt lat="43.20802" lon="2.313">
        <ele>117.1</ele>
        <time>2024-05-11T06:53:47Z</time>
      </trkpt>
      <trkpt lat="43.20797" lon="2.31299">
        <ele>117.2</ele>
        <time>2024-05-11T06:53:48Z</time>
      </trkpt>
      <trkpt lat="43.20793" lon="2.31297">
        <ele>117.3</ele>
        <time>2024-05-11T06:53:49Z</time>
      </trkpt>
      <trkpt lat="43.2079" lon="2.31296">
        <ele>117.4</ele>
        <time>2024-05-11T06:53:50Z</time>
      </trkpt>
      <trkpt lat="43.20788" lon="2.31294">
        <ele>117.4</ele>
        <time>2024-05-11T06:53:51Z</time>
      </trkpt>
      <trkpt lat="43.20786" lon="2.31291">
        <ele>117.3</ele>
        <time>2024-05-11T06:53:52Z</time>
      </trkpt>
      <trkpt lat="43.20785" lon="2.31289">
        <ele>117.3</ele>
        <time>2024-05-11T06:53:53Z</time>
      </trkpt>
      <trkpt lat="43.20784" lon="2.31287">
        <ele>117.3</ele>
        <time>2024-05-11T06:53:54Z</time>
      </trkpt>
      <trkpt lat="43.20784" lon="2.31286">
        <ele>117.2</ele>
        <time>2024-05-11T06:53:55Z</time>
      </trkpt>
      <trkpt lat="43.20784" lon="2.31285">
        <ele>117.2</ele>
        <time>2024-05-11T06:53:56Z</time>
      </trkpt>
      <trkpt lat="43.20784" lon="2.31285">
        <ele>117.2</ele>
        <time>2024-05-11T06:53:57Z</time>
      </trkpt>
      <trkpt lat="43.20784" lon="2.31285">
        <ele>117.2</ele>
        <time>2024-05-11T06:53:58Z</time>
      </trkpt>
      <trkpt lat="43.20784" lon="2.31285">
        <ele>117.2</ele>
        <time>2024-05-11T06:53:59Z</time>
      </trkpt>
      <trkpt lat="43.20784" lon="2.31285">
        <ele>117.2</ele>
        <time>2024-05-11T06:54:00Z</time>
      </trkpt>
      <trkpt lat="43.20784" lon="2.31285">
        <ele>117.2</ele>
        <time>2024-05-11T06:54:01Z</time>
      </trkpt>
      <trkpt lat="43.20784" lon="2.31285">
        <ele>117.2</ele>
        <time>2024-05-11T06:54:02Z</time>
      </trkpt>
      <trkpt lat="43.20784" lon="2.31285">
        <ele>117.2</ele>
        <time>2024-05-11T06:54:03Z</time>
      </trkpt>
      <trkpt lat="43.20784" lon="2.31284">
        <ele>117.2</ele>
        <time>2024-05-11T06:54:04Z</time>
      </trkpt>
      <trkpt lat="43.20783" lon="2.31281">
        <ele>117.1</ele>
        <time>2024-05-11T06:54:05Z</time>
      </trkpt>
      <trkpt lat="43.20784" lon="2.31276">
        <ele>117.1</ele>
        <time>2024-05-11T06:54:06Z</time>
      </trkpt>
      <trkpt lat="43.20785" lon="2.31267">
        <ele>117.4</ele>
        <time>2024-05-11T06:54:07Z</time>
      </trkpt>
      <trkpt lat="43.20787" lon="2.31258">
        <ele>117.7</ele>
        <time>2024-05-11T06:54:08Z</time>
      </trkpt>
      <trkpt lat="43.20788" lon="2.3125">
        <ele>118</ele>
        <time>2024-05-11T06:54:09Z</time>
      </trkpt>
      <trkpt lat="43.20789" lon="2.31241">
        <ele>117.8</ele>
        <time>2024-05-11T06:54:10Z</time>
      </trkpt>
      <trkpt lat="43.2079" lon="2.31231">
        <ele>117.6</ele>
        <time>2024-05-11T06:54:11Z</time>
      </trkpt>
      <trkpt lat="43.20792" lon="2.31219">
        <ele>117.6</ele>
        <time>2024-05-11T06:54:12Z</time>
      </trkpt>
      <trkpt lat="43.20794" lon="2.31209">
        <ele>117.8</ele>
        <time>2024-05-11T06:54:13Z</time>
      </trkpt>
      <trkpt lat="43.20796" lon="2.31197">
        <ele>118</ele>
        <time>2024-05-11T06:54:14Z</time>
      </trkpt>
      <trkpt lat="43.20797" lon="2.31185">
        <ele>118</ele>
        <time>2024-05-11T06:54:15Z</time>
      </trkpt>
      <trkpt lat="43.208" lon="2.31174">
        <ele>117.7</ele>
        <time>2024-05-11T06:54:16Z</time>
      </trkpt>
      <trkpt lat="43.20802" lon="2.31164">
        <ele>117.4</ele>
        <time>2024-05-11T06:54:17Z</time>
      </trkpt>
      <trkpt lat="43.20804" lon="2.31153">
        <ele>117.2</ele>
        <time>2024-05-11T06:54:18Z</time>
      </trkpt>
      <trkpt lat="43.20806" lon="2.31142">
        <ele>117.1</ele>
        <time>2024-05-11T06:54:19Z</time>
      </trkpt>
      <trkpt lat="43.2081" lon="2.31132">
        <ele>118</ele>
        <time>2024-05-11T06:54:20Z</time>
      </trkpt>
      <trkpt lat="43.20813" lon="2.31121">
        <ele>118.7</ele>
        <time>2024-05-11T06:54:21Z</time>
      </trkpt>
      <trkpt lat="43.20816" lon="2.31111">
        <ele>119</ele>
        <time>2024-05-11T06:54:22Z</time>
      </trkpt>
      <trkpt lat="43.20818" lon="2.31102">
        <ele>119.2</ele>
        <time>2024-05-11T06:54:23Z</time>
      </trkpt>
      <trkpt lat="43.20821" lon="2.31094">
        <ele>119.3</ele>
        <time>2024-05-11T06:54:24Z</time>
      </trkpt>
      <trkpt lat="43.20824" lon="2.31086">
        <ele>119.3</ele>
        <time>2024-05-11T06:54:25Z</time>
      </trkpt>
      <trkpt lat="43.20826" lon="2.31079">
        <ele>119.3</ele>
        <time>2024-05-11T06:54:26Z</time>
      </trkpt>
      <trkpt lat="43.20829" lon="2.31072">
        <ele>119.2</ele>
        <time>2024-05-11T06:54:27Z</time>
      </trkpt>
      <trkpt lat="43.20831" lon="2.31065">
        <ele>119.1</ele>
        <time>2024-05-11T06:54:28Z</time>
      </trkpt>
      <trkpt lat="43.20835" lon="2.31059">
        <ele>119.1</ele>
        <time>2024-05-11T06:54:29Z</time>
      </trkpt>
      <trkpt lat="43.20839" lon="2.31054">
        <ele>119.2</ele>
        <time>2024-05-11T06:54:30Z</time>
      </trkpt>
      <trkpt lat="43.20844" lon="2.31051">
        <ele>119.5</ele>
        <time>2024-05-11T06:54:31Z</time>
      </trkpt>
      <trkpt lat="43.20848" lon="2.31048">
        <ele>119.7</ele>
        <time>2024-05-11T06:54:32Z</time>
      </trkpt>
      <trkpt lat="43.20851" lon="2.31046">
        <ele>119.8</ele>
        <time>2024-05-11T06:54:33Z</time>
      </trkpt>
      <trkpt lat="43.20854" lon="2.31044">
        <ele>119.9</ele>
        <time>2024-05-11T06:54:34Z</time>
      </trkpt>
      <trkpt lat="43.20859" lon="2.31043">
        <ele>120</ele>
        <time>2024-05-11T06:54:35Z</time>
      </trkpt>
      <trkpt lat="43.20865" lon="2.31042">
        <ele>120.1</ele>
        <time>2024-05-11T06:54:36Z</time>
      </trkpt>
      <trkpt lat="43.20872" lon="2.31038">
        <ele>120.1</ele>
        <time>2024-05-11T06:54:37Z</time>
      </trkpt>
      <trkpt lat="43.20876" lon="2.3103">
        <ele>120</ele>
        <time>2024-05-11T06:54:38Z</time>
      </trkpt>
      <trkpt lat="43.20879" lon="2.31021">
        <ele>120.2</ele>
        <time>2024-05-11T06:54:39Z</time>
      </trkpt>
      <trkpt lat="43.20877" lon="2.3101">
        <ele>120.4</ele>
        <time>2024-05-11T06:54:40Z</time>
      </trkpt>
      <trkpt lat="43.20873" lon="2.31001">
        <ele>120.4</ele>
        <time>2024-05-11T06:54:41Z</time>
      </trkpt>
      <trkpt lat="43.20866" lon="2.30995">
        <ele>120.2</ele>
        <time>2024-05-11T06:54:42Z</time>
      </trkpt>
      <trkpt lat="43.2086" lon="2.30992">
        <ele>120</ele>
        <time>2024-05-11T06:54:43Z</time>
      </trkpt>
      <trkpt lat="43.20852" lon="2.30997">
        <ele>120.3</ele>
        <time>2024-05-11T06:54:44Z</time>
      </trkpt>
      <trkpt lat="43.20847" lon="2.31006">
        <ele>120.4</ele>
        <time>2024-05-11T06:54:45Z</time>
      </trkpt>
      <trkpt lat="43.20844" lon="2.31019">
        <ele>120.2</ele>
        <time>2024-05-11T06:54:46Z</time>
      </trkpt>
      <trkpt lat="43.20841" lon="2.31033">
        <ele>119.9</ele>
        <time>2024-05-11T06:54:47Z</time>
      </trkpt>
      <trkpt lat="43.20836" lon="2.31048">
        <ele>119.3</ele>
        <time>2024-05-11T06:54:48Z</time>
      </trkpt>
      <trkpt lat="43.20831" lon="2.31063">
        <ele>119.1</ele>
        <time>2024-05-11T06:54:49Z</time>
      </trkpt>
      <trkpt lat="43.20825" lon="2.31079">
        <ele>119.3</ele>
        <time>2024-05-11T06:54:50Z</time>
      </trkpt>
      <trkpt lat="43.20818" lon="2.31095">
        <ele>119.3</ele>
        <time>2024-05-11T06:54:51Z</time>
      </trkpt>
      <trkpt lat="43.20813" lon="2.31112">
        <ele>119</ele>
        <time>2024-05-11T06:54:52Z</time>
      </trkpt>
      <trkpt lat="43.20808" lon="2.3113">
        <ele>117.9</ele>
        <time>2024-05-11T06:54:53Z</time>
      </trkpt>
      <trkpt lat="43.20804" lon="2.31146">
        <ele>117.2</ele>
        <time>2024-05-11T06:54:54Z</time>
      </trkpt>
      <trkpt lat="43.20802" lon="2.31159">
        <ele>117.4</ele>
        <time>2024-05-11T06:54:55Z</time>
      </trkpt>
      <trkpt lat="43.20799" lon="2.31171">
        <ele>117.8</ele>
        <time>2024-05-11T06:54:56Z</time>
      </trkpt>
      <trkpt lat="43.20794" lon="2.31184">
        <ele>118.1</ele>
        <time>2024-05-11T06:54:57Z</time>
      </trkpt>
      <trkpt lat="43.20791" lon="2.31196">
        <ele>118</ele>
        <time>2024-05-11T06:54:58Z</time>
      </trkpt>
      <trkpt lat="43.20789" lon="2.31206">
        <ele>117.8</ele>
        <time>2024-05-11T06:54:59Z</time>
      </trkpt>
      <trkpt lat="43.20786" lon="2.31214">
        <ele>117.5</ele>
        <time>2024-05-11T06:55:00Z</time>
      </trkpt>
      <trkpt lat="43.20783" lon="2.3122">
        <ele>117.3</ele>
        <time>2024-05-11T06:55:01Z</time>
      </trkpt>
      <trkpt lat="43.2078" lon="2.31225">
        <ele>117.2</ele>
        <time>2024-05-11T06:55:02Z</time>
      </trkpt>
      <trkpt lat="43.20777" lon="2.3123">
        <ele>117.3</ele>
        <time>2024-05-11T06:55:03Z</time>
      </trkpt>
      <trkpt lat="43.20773" lon="2.31235">
        <ele>117.7</ele>
        <time>2024-05-11T06:55:04Z</time>
      </trkpt>
      <trkpt lat="43.20768" lon="2.3124">
        <ele>118.1</ele>
        <time>2024-05-11T06:55:05Z</time>
      </trkpt>
      <trkpt lat="43.20763" lon="2.31243">
        <ele>118.4</ele>
        <time>2024-05-11T06:55:06Z</time>
      </trkpt>
      <trkpt lat="43.20756" lon="2.31243">
        <ele>118.7</ele>
        <time>2024-05-11T06:55:07Z</time>
      </trkpt>
      <trkpt lat="43.20748" lon="2.31241">
        <ele>119.1</ele>
        <time>2024-05-11T06:55:08Z</time>
      </trkpt>
      <trkpt lat="43.20741" lon="2.31237">
        <ele>119.3</ele>
        <time>2024-05-11T06:55:09Z</time>
      </trkpt>
      <trkpt lat="43.20735" lon="2.3123">
        <ele>119.5</ele>
        <time>2024-05-11T06:55:10Z</time>
      </trkpt>
      <trkpt lat="43.20731" lon="2.3122">
        <ele>119.8</ele>
        <time>2024-05-11T06:55:11Z</time>
      </trkpt>
      <trkpt lat="43.2073" lon="2.31209">
        <ele>120.2</ele>
        <time>2024-05-11T06:55:12Z</time>
      </trkpt>
      <trkpt lat="43.2073" lon="2.312">
        <ele>120.5</ele>
        <time>2024-05-11T06:55:13Z</time>
      </trkpt>
      <trkpt lat="43.20732" lon="2.31191">
        <ele>120.7</ele>
        <time>2024-05-11T06:55:14Z</time>
      </trkpt>
      <trkpt lat="43.20736" lon="2.31183">
        <ele>120.7</ele>
        <time>2024-05-11T06:55:15Z</time>
      </trkpt>
      <trkpt lat="43.20742" lon="2.31176">
        <ele>120.8</ele>
        <time>2024-05-11T06:55:16Z</time>
      </trkpt>
      <trkpt lat="43.2075" lon="2.3117">
        <ele>120.9</ele>
        <time>2024-05-11T06:55:17Z</time>
      </trkpt>
      <trkpt lat="43.2076" lon="2.31165">
        <ele>120.7</ele>
        <time>2024-05-11T06:55:18Z</time>
      </trkpt>
      <trkpt lat="43.20771" lon="2.31162">
        <ele>120.4</ele>
        <time>2024-05-11T06:55:19Z</time>
      </trkpt>
      <trkpt lat="43.20783" lon="2.31158">
        <ele>119.7</ele>
        <time>2024-05-11T06:55:20Z</time>
      </trkpt>
      <trkpt lat="43.20798" lon="2.31153">
        <ele>117.9</ele>
        <time>2024-05-11T06:55:21Z</time>
      </trkpt>
      <trkpt lat="43.20815" lon="2.3115">
        <ele>118.1</ele>
        <time>2024-05-11T06:55:22Z</time>
      </trkpt>
      <trkpt lat="43.20832" lon="2.31147">
        <ele>120.3</ele>
        <time>2024-05-11T06:55:23Z</time>
      </trkpt>
      <trkpt lat="43.20849" lon="2.31146">
        <ele>120.5</ele>
        <time>2024-05-11T06:55:24Z</time>
      </trkpt>
      <trkpt lat="43.20867" lon="2.31145">
        <ele>120.6</ele>
        <time>2024-05-11T06:55:25Z</time>
      </trkpt>
      <trkpt lat="43.20886" lon="2.31147">
        <ele>120.7</ele>
        <time>2024-05-11T06:55:26Z</time>
      </trkpt>
      <trkpt lat="43.20906" lon="2.3115">
        <ele>120.8</ele>
        <time>2024-05-11T06:55:27Z</time>
      </trkpt>
      <trkpt lat="43.20926" lon="2.31155">
        <ele>121.1</ele>
        <time>2024-05-11T06:55:28Z</time>
      </trkpt>
      <trkpt lat="43.20946" lon="2.31161">
        <ele>121.2</ele>
        <time>2024-05-11T06:55:29Z</time>
      </trkpt>
      <trkpt lat="43.20966" lon="2.31168">
        <ele>120.3</ele>
        <time>2024-05-11T06:55:30Z</time>
      </trkpt>
      <trkpt lat="43.20986" lon="2.31178">
        <ele>121.2</ele>
        <time>2024-05-11T06:55:31Z</time>
      </trkpt>
      <trkpt lat="43.21006" lon="2.3119">
        <ele>121</ele>
        <time>2024-05-11T06:55:32Z</time>
      </trkpt>
      <trkpt lat="43.21027" lon="2.31203">
        <ele>120.9</ele>
        <time>2024-05-11T06:55:33Z</time>
      </trkpt>
      <trkpt lat="43.21048" lon="2.31219">
        <ele>121.1</ele>
        <time>2024-05-11T06:55:34Z</time>
      </trkpt>
      <trkpt lat="43.21069" lon="2.31237">
        <ele>121.5</ele>
        <time>2024-05-11T06:55:35Z</time>
      </trkpt>
      <trkpt lat="43.21088" lon="2.31256">
        <ele>121.1</ele>
        <time>2024-05-11T06:55:36Z</time>
      </trkpt>
      <trkpt lat="43.21106" lon="2.31277">
        <ele>120.8</ele>
        <time>2024-05-11T06:55:37Z</time>
      </trkpt>
      <trkpt lat="43.21123" lon="2.313">
        <ele>121.2</ele>
        <time>2024-05-11T06:55:38Z</time>
      </trkpt>
      <trkpt lat="43.2114" lon="2.31324">
        <ele>120</ele>
        <time>2024-05-11T06:55:39Z</time>
      </trkpt>
      <trkpt lat="43.21155" lon="2.3135">
        <ele>120.5</ele>
        <time>2024-05-11T06:55:40Z</time>
      </trkpt>
      <trkpt lat="43.2117" lon="2.31377">
        <ele>120.3</ele>
        <time>2024-05-11T06:55:41Z</time>
      </trkpt>
      <trkpt lat="43.21184" lon="2.31406">
        <ele>120.7</ele>
        <time>2024-05-11T06:55:42Z</time>
      </trkpt>
      <trkpt lat="43.21196" lon="2.31436">
        <ele>120.2</ele>
        <time>2024-05-11T06:55:43Z</time>
      </trkpt>
      <trkpt lat="43.21207" lon="2.31467">
        <ele>123.5</ele>
        <time>2024-05-11T06:55:44Z</time>
      </trkpt>
      <trkpt lat="43.21217" lon="2.31498">
        <ele>123.3</ele>
        <time>2024-05-11T06:55:45Z</time>
      </trkpt>
      <trkpt lat="43.21225" lon="2.31532">
        <ele>120.9</ele>
        <time>2024-05-11T06:55:46Z</time>
      </trkpt>
      <trkpt lat="43.21232" lon="2.31564">
        <ele>123.3</ele>
        <time>2024-05-11T06:55:47Z</time>
      </trkpt>
      <trkpt lat="43.21233" lon="2.31599">
        <ele>122</ele>
        <time>2024-05-11T06:55:48Z</time>
      </trkpt>
      <trkpt lat="43.21234" lon="2.31634">
        <ele>120.8</ele>
        <time>2024-05-11T06:55:49Z</time>
      </trkpt>
      <trkpt lat="43.21235" lon="2.31668">
        <ele>120.6</ele>
        <time>2024-05-11T06:55:50Z</time>
      </trkpt>
      <trkpt lat="43.21236" lon="2.31702">
        <ele>120.5</ele>
        <time>2024-05-11T06:55:51Z</time>
      </trkpt>
      <trkpt lat="43.21236" lon="2.31735">
        <ele>120.5</ele>
        <time>2024-05-11T06:55:52Z</time>
      </trkpt>
      <trkpt lat="43.21236" lon="2.31768">
        <ele>120.2</ele>
        <time>2024-05-11T06:55:53Z</time>
      </trkpt>
      <trkpt lat="43.21236" lon="2.318">
        <ele>119.2</ele>
        <time>2024-05-11T06:55:54Z</time>
      </trkpt>
      <trkpt lat="43.21238" lon="2.31831">
        <ele>119</ele>
        <time>2024-05-11T06:55:55Z</time>
      </trkpt>
      <trkpt lat="43.21241" lon="2.31859">
        <ele>118.4</ele>
        <time>2024-05-11T06:55:56Z</time>
      </trkpt>
      <trkpt lat="43.21245" lon="2.31886">
        <ele>118.8</ele>
        <time>2024-05-11T06:55:57Z</time>
      </trkpt>
      <trkpt lat="43.2125" lon="2.31913">
        <ele>119</ele>
        <time>2024-05-11T06:55:58Z</time>
      </trkpt>
      <trkpt lat="43.21256" lon="2.3194">
        <ele>119</ele>
        <time>2024-05-11T06:55:59Z</time>
      </trkpt>
      <trkpt lat="43.21263" lon="2.31966">
        <ele>118.6</ele>
        <time>2024-05-11T06:56:00Z</time>
      </trkpt>
      <trkpt lat="43.21271" lon="2.31992">
        <ele>118.1</ele>
        <time>2024-05-11T06:56:01Z</time>
      </trkpt>
      <trkpt lat="43.21279" lon="2.32018">
        <ele>118.7</ele>
        <time>2024-05-11T06:56:02Z</time>
      </trkpt>
      <trkpt lat="43.21289" lon="2.32043">
        <ele>119</ele>
        <time>2024-05-11T06:56:03Z</time>
      </trkpt>
      <trkpt lat="43.21299" lon="2.32067">
        <ele>118.5</ele>
        <time>2024-05-11T06:56:04Z</time>
      </trkpt>
      <trkpt lat="43.21311" lon="2.3209">
        <ele>118.8</ele>
        <time>2024-05-11T06:56:05Z</time>
      </trkpt>
      <trkpt lat="43.21324" lon="2.32113">
        <ele>117.9</ele>
        <time>2024-05-11T06:56:06Z</time>
      </trkpt>
      <trkpt lat="43.21338" lon="2.32136">
        <ele>118</ele>
        <time>2024-05-11T06:56:07Z</time>
      </trkpt>
      <trkpt lat="43.21353" lon="2.32157">
        <ele>117.6</ele>
        <time>2024-05-11T06:56:08Z</time>
      </trkpt>
      <trkpt lat="43.21369" lon="2.32176">
        <ele>117.6</ele>
        <time>2024-05-11T06:56:09Z</time>
      </trkpt>
      <trkpt lat="43.21385" lon="2.32194">
        <ele>117.8</ele>
        <time>2024-05-11T06:56:10Z</time>
      </trkpt>
      <trkpt lat="43.214" lon="2.32208">
        <ele>116.9</ele>
        <time>2024-05-11T06:56:11Z</time>
      </trkpt>
      <trkpt lat="43.21415" lon="2.32221">
        <ele>117.8</ele>
        <time>2024-05-11T06:56:12Z</time>
      </trkpt>
      <trkpt lat="43.21429" lon="2.32232">
        <ele>115.8</ele>
        <time>2024-05-11T06:56:13Z</time>
      </trkpt>
      <trkpt lat="43.21443" lon="2.32243">
        <ele>114.5</ele>
        <time>2024-05-11T06:56:14Z</time>
      </trkpt>
      <trkpt lat="43.21458" lon="2.32252">
        <ele>115.3</ele>
        <time>2024-05-11T06:56:15Z</time>
      </trkpt>
      <trkpt lat="43.21473" lon="2.32261">
        <ele>115.8</ele>
        <time>2024-05-11T06:56:16Z</time>
      </trkpt>
      <trkpt lat="43.2149" lon="2.32268">
        <ele>115.8</ele>
        <time>2024-05-11T06:56:17Z</time>
      </trkpt>
      <trkpt lat="43.21506" lon="2.32275">
        <ele>116.6</ele>
        <time>2024-05-11T06:56:18Z</time>
      </trkpt>
      <trkpt lat="43.21523" lon="2.32281">
        <ele>115.8</ele>
        <time>2024-05-11T06:56:19Z</time>
      </trkpt>
      <trkpt lat="43.2154" lon="2.32287">
        <ele>115</ele>
        <time>2024-05-11T06:56:20Z</time>
      </trkpt>
      <trkpt lat="43.21557" lon="2.32293">
        <ele>114.9</ele>
        <time>2024-05-11T06:56:21Z</time>
      </trkpt>
      <trkpt lat="43.21575" lon="2.32298">
        <ele>114.1</ele>
        <time>2024-05-11T06:56:22Z</time>
      </trkpt>
      <trkpt lat="43.21593" lon="2.32302">
        <ele>113.5</ele>
        <time>2024-05-11T06:56:23Z</time>
      </trkpt>
      <trkpt lat="43.2161" lon="2.32306">
        <ele>113</ele>
        <time>2024-05-11T06:56:24Z</time>
      </trkpt>
      <trkpt lat="43.21627" lon="2.3231">
        <ele>112.2</ele>
        <time>2024-05-11T06:56:25Z</time>
      </trkpt>
      <trkpt lat="43.21645" lon="2.32314">
        <ele>111.2</ele>
        <time>2024-05-11T06:56:26Z</time>
      </trkpt>
      <trkpt lat="43.21662" lon="2.32317">
        <ele>110.7</ele>
        <time>2024-05-11T06:56:27Z</time>
      </trkpt>
      <trkpt lat="43.2168" lon="2.32321">
        <ele>110.2</ele>
        <time>2024-05-11T06:56:28Z</time>
      </trkpt>
      <trkpt lat="43.21698" lon="2.32325">
        <ele>110</ele>
        <time>2024-05-11T06:56:29Z</time>
      </trkpt>
      <trkpt lat="43.21716" lon="2.32329">
        <ele>110</ele>
        <time>2024-05-11T06:56:30Z</time>
      </trkpt>
      <trkpt lat="43.21734" lon="2.32333">
        <ele>110</ele>
        <time>2024-05-11T06:56:31Z</time>
      </trkpt>
      <trkpt lat="43.21752" lon="2.32337">
        <ele>109.5</ele>
        <time>2024-05-11T06:56:32Z</time>
      </trkpt>
      <trkpt lat="43.2177" lon="2.32341">
        <ele>108.7</ele>
        <time>2024-05-11T06:56:33Z</time>
      </trkpt>
      <trkpt lat="43.21789" lon="2.32346">
        <ele>108.3</ele>
        <time>2024-05-11T06:56:34Z</time>
      </trkpt>
      <trkpt lat="43.21808" lon="2.3235">
        <ele>108.4</ele>
        <time>2024-05-11T06:56:35Z</time>
      </trkpt>
      <trkpt lat="43.21829" lon="2.32354">
        <ele>108</ele>
        <time>2024-05-11T06:56:36Z</time>
      </trkpt>
      <trkpt lat="43.2185" lon="2.32359">
        <ele>108.6</ele>
        <time>2024-05-11T06:56:37Z</time>
      </trkpt>
      <trkpt lat="43.21872" lon="2.32364">
        <ele>108.3</ele>
        <time>2024-05-11T06:56:38Z</time>
      </trkpt>
      <trkpt lat="43.21893" lon="2.32369">
        <ele>107.4</ele>
        <time>2024-05-11T06:56:39Z</time>
      </trkpt>
      <trkpt lat="43.21914" lon="2.32374">
        <ele>107.1</ele>
        <time>2024-05-11T06:56:40Z</time>
      </trkpt>
      <trkpt lat="43.21936" lon="2.32379">
        <ele>106.9</ele>
        <time>2024-05-11T06:56:41Z</time>
      </trkpt>
      <trkpt lat="43.21958" lon="2.32384">
        <ele>106.9</ele>
        <time>2024-05-11T06:56:42Z</time>
      </trkpt>
      <trkpt lat="43.2198" lon="2.32388">
        <ele>107</ele>
        <time>2024-05-11T06:56:43Z</time>
      </trkpt>
      <trkpt lat="43.22001" lon="2.32393">
        <ele>106.7</ele>
        <time>2024-05-11T06:56:44Z</time>
      </trkpt>
      <trkpt lat="43.22023" lon="2.32398">
        <ele>106.3</ele>
        <time>2024-05-11T06:56:45Z</time>
      </trkpt>
      <trkpt lat="43.22044" lon="2.32402">
        <ele>106.3</ele>
        <time>2024-05-11T06:56:46Z</time>
      </trkpt>
      <trkpt lat="43.22065" lon="2.32408">
        <ele>106.4</ele>
        <time>2024-05-11T06:56:47Z</time>
      </trkpt>
      <trkpt lat="43.22087" lon="2.32413">
        <ele>107</ele>
        <time>2024-05-11T06:56:48Z</time>
      </trkpt>
      <trkpt lat="43.22109" lon="2.3242">
        <ele>107.6</ele>
        <time>2024-05-11T06:56:49Z</time>
      </trkpt>
      <trkpt lat="43.2213" lon="2.32428">
        <ele>107.1</ele>
        <time>2024-05-11T06:56:50Z</time>
      </trkpt>
      <trkpt lat="43.22151" lon="2.32439">
        <ele>107.6</ele>
        <time>2024-05-11T06:56:51Z</time>
      </trkpt>
      <trkpt lat="43.22172" lon="2.32451">
        <ele>108.9</ele>
        <time>2024-05-11T06:56:52Z</time>
      </trkpt>
      <trkpt lat="43.22192" lon="2.32464">
        <ele>109.6</ele>
        <time>2024-05-11T06:56:53Z</time>
      </trkpt>
      <trkpt lat="43.22211" lon="2.32478">
        <ele>110.4</ele>
        <time>2024-05-11T06:56:54Z</time>
      </trkpt>
      <trkpt lat="43.22229" lon="2.32493">
        <ele>110.1</ele>
        <time>2024-05-11T06:56:55Z</time>
      </trkpt>
      <trkpt lat="43.22246" lon="2.32508">
        <ele>110.7</ele>
        <time>2024-05-11T06:56:56Z</time>
      </trkpt>
      <trkpt lat="43.22262" lon="2.32525">
        <ele>109.1</ele>
        <time>2024-05-11T06:56:57Z</time>
      </trkpt>
      <trkpt lat="43.22278" lon="2.32542">
        <ele>107.5</ele>
        <time>2024-05-11T06:56:58Z</time>
      </trkpt>
      <trkpt lat="43.22292" lon="2.3256">
        <ele>106.9</ele>
        <time>2024-05-11T06:56:59Z</time>
      </trkpt>
      <trkpt lat="43.22306" lon="2.32578">
        <ele>110.2</ele>
        <time>2024-05-11T06:57:00Z</time>
      </trkpt>
      <trkpt lat="43.22318" lon="2.32596">
        <ele>109</ele>
        <time>2024-05-11T06:57:01Z</time>
      </trkpt>
      <trkpt lat="43.2233" lon="2.32614">
        <ele>110</ele>
        <time>2024-05-11T06:57:02Z</time>
      </trkpt>
      <trkpt lat="43.22341" lon="2.32632">
        <ele>108.5</ele>
        <time>2024-05-11T06:57:03Z</time>
      </trkpt>
      <trkpt lat="43.22352" lon="2.32651">
        <ele>107.6</ele>
        <time>2024-05-11T06:57:04Z</time>
      </trkpt>
      <trkpt lat="43.22363" lon="2.32671">
        <ele>108.1</ele>
        <time>2024-05-11T06:57:05Z</time>
      </trkpt>
      <trkpt lat="43.22374" lon="2.32691">
        <ele>106</ele>
        <time>2024-05-11T06:57:06Z</time>
      </trkpt>
      <trkpt lat="43.22385" lon="2.32711">
        <ele>106</ele>
        <time>2024-05-11T06:57:07Z</time>
      </trkpt>
      <trkpt lat="43.22396" lon="2.32732">
        <ele>104.8</ele>
        <time>2024-05-11T06:57:08Z</time>
      </trkpt>
      <trkpt lat="43.22408" lon="2.32753">
        <ele>104.3</ele>
        <time>2024-05-11T06:57:09Z</time>
      </trkpt>
      <trkpt lat="43.2242" lon="2.32774">
        <ele>103.9</ele>
        <time>2024-05-11T06:57:10Z</time>
      </trkpt>
      <trkpt lat="43.22431" lon="2.32795">
        <ele>102.7</ele>
        <time>2024-05-11T06:57:11Z</time>
      </trkpt>
      <trkpt lat="43.22442" lon="2.32814">
        <ele>103.2</ele>
        <time>2024-05-11T06:57:12Z</time>
      </trkpt>
      <trkpt lat="43.2245" lon="2.32829">
        <ele>104.7</ele>
        <time>2024-05-11T06:57:13Z</time>
      </trkpt>
      <trkpt lat="43.22458" lon="2.32843">
        <ele>106.3</ele>
        <time>2024-05-11T06:57:14Z</time>
      </trkpt>
      <trkpt lat="43.22465" lon="2.32855">
        <ele>105.3</ele>
        <time>2024-05-11T06:57:15Z</time>
      </trkpt>
      <trkpt lat="43.22469" lon="2.32862">
        <ele>103.7</ele>
        <time>2024-05-11T06:57:16Z</time>
      </trkpt>
      <trkpt lat="43.22473" lon="2.32869">
        <ele>103</ele>
        <time>2024-05-11T06:57:17Z</time>
      </trkpt>
      <trkpt lat="43.22476" lon="2.32876">
        <ele>103</ele>
        <time>2024-05-11T06:57:18Z</time>
      </trkpt>
      <trkpt lat="43.2248" lon="2.32883">
        <ele>103</ele>
        <time>2024-05-11T06:57:19Z</time>
      </trkpt>
      <trkpt lat="43.22484" lon="2.32891">
        <ele>103</ele>
        <time>2024-05-11T06:57:20Z</time>
      </trkpt>
      <trkpt lat="43.22488" lon="2.32898">
        <ele>103.2</ele>
        <time>2024-05-11T06:57:21Z</time>
      </trkpt>
      <trkpt lat="43.22492" lon="2.32905">
        <ele>103.4</ele>
        <time>2024-05-11T06:57:22Z</time>
      </trkpt>
      <trkpt lat="43.22495" lon="2.32912">
        <ele>103.7</ele>
        <time>2024-05-11T06:57:23Z</time>
      </trkpt>
      <trkpt lat="43.22498" lon="2.32919">
        <ele>103.9</ele>
        <time>2024-05-11T06:57:24Z</time>
      </trkpt>
      <trkpt lat="43.225" lon="2.32926">
        <ele>104</ele>
        <time>2024-05-11T06:57:25Z</time>
      </trkpt>
      <trkpt lat="43.22501" lon="2.32933">
        <ele>104</ele>
        <time>2024-05-11T06:57:26Z</time>
      </trkpt>
      <trkpt lat="43.22502" lon="2.32941">
        <ele>104.1</ele>
        <time>2024-05-11T06:57:27Z</time>
      </trkpt>
      <trkpt lat="43.22501" lon="2.3295">
        <ele>104</ele>
        <time>2024-05-11T06:57:28Z</time>
      </trkpt>
      <trkpt lat="43.22501" lon="2.32959">
        <ele>104.1</ele>
        <time>2024-05-11T06:57:29Z</time>
      </trkpt>
      <trkpt lat="43.225" lon="2.32969">
        <ele>104</ele>
        <time>2024-05-11T06:57:30Z</time>
      </trkpt>
      <trkpt lat="43.22499" lon="2.32977">
        <ele>104</ele>
        <time>2024-05-11T06:57:31Z</time>
      </trkpt>
      <trkpt lat="43.22499" lon="2.32986">
        <ele>104</ele>
        <time>2024-05-11T06:57:32Z</time>
      </trkpt>
      <trkpt lat="43.22499" lon="2.32995">
        <ele>104.1</ele>
        <time>2024-05-11T06:57:33Z</time>
      </trkpt>
      <trkpt lat="43.22502" lon="2.33004">
        <ele>104.5</ele>
        <time>2024-05-11T06:57:34Z</time>
      </trkpt>
      <trkpt lat="43.22506" lon="2.3301">
        <ele>105.1</ele>
        <time>2024-05-11T06:57:35Z</time>
      </trkpt>
      <trkpt lat="43.22512" lon="2.33015">
        <ele>105.4</ele>
        <time>2024-05-11T06:57:36Z</time>
      </trkpt>
      <trkpt lat="43.22518" lon="2.33016">
        <ele>105.3</ele>
        <time>2024-05-11T06:57:37Z</time>
      </trkpt>
      <trkpt lat="43.22523" lon="2.33015">
        <ele>105.1</ele>
        <time>2024-05-11T06:57:38Z</time>
      </trkpt>
      <trkpt lat="43.22527" lon="2.33012">
        <ele>105</ele>
        <time>2024-05-11T06:57:39Z</time>
      </trkpt>
      <trkpt lat="43.2253" lon="2.33009">
        <ele>105.1</ele>
        <time>2024-05-11T06:57:40Z</time>
      </trkpt>
      <trkpt lat="43.22533" lon="2.33008">
        <ele>105.2</ele>
        <time>2024-05-11T06:57:41Z</time>
      </trkpt>
      <trkpt lat="43.22534" lon="2.33006">
        <ele>105.3</ele>
        <time>2024-05-11T06:57:42Z</time>
      </trkpt>
      <trkpt lat="43.22536" lon="2.33005">
        <ele>105.3</ele>
        <time>2024-05-11T06:57:43Z</time>
      </trkpt>
      <trkpt lat="43.22538" lon="2.33004">
        <ele>105.4</ele>
        <time>2024-05-11T06:57:44Z</time>
      </trkpt>
      <trkpt lat="43.22539" lon="2.33003">
        <ele>105.4</ele>
        <time>2024-05-11T06:57:45Z</time>
      </trkpt>
      <trkpt lat="43.22541" lon="2.33002">
        <ele>105.5</ele>
        <time>2024-05-11T06:57:46Z</time>
      </trkpt>
      <trkpt lat="43.22542" lon="2.33001">
        <ele>105.5</ele>
        <time>2024-05-11T06:57:47Z</time>
      </trkpt>
      <trkpt lat="43.22544" lon="2.32998">
        <ele>105.5</ele>
        <time>2024-05-11T06:57:48Z</time>
      </trkpt>
      <trkpt lat="43.22547" lon="2.32995">
        <ele>105.5</ele>
        <time>2024-05-11T06:57:49Z</time>
      </trkpt>
      <trkpt lat="43.2255" lon="2.32993">
        <ele>105.4</ele>
        <time>2024-05-11T06:57:50Z</time>
      </trkpt>
      <trkpt lat="43.22553" lon="2.3299">
        <ele>105.3</ele>
        <time>2024-05-11T06:57:51Z</time>
      </trkpt>
      <trkpt lat="43.22556" lon="2.32987">
        <ele>105.1</ele>
        <time>2024-05-11T06:57:52Z</time>
      </trkpt>
      <trkpt lat="43.22559" lon="2.32984">
        <ele>104.8</ele>
        <time>2024-05-11T06:57:53Z</time>
      </trkpt>
      <trkpt lat="43.22562" lon="2.32981">
        <ele>104.5</ele>
        <time>2024-05-11T06:57:54Z</time>
      </trkpt>
      <trkpt lat="43.22564" lon="2.32978">
        <ele>104.2</ele>
        <time>2024-05-11T06:57:55Z</time>
      </trkpt>
      <trkpt lat="43.22566" lon="2.32976">
        <ele>103.9</ele>
        <time>2024-05-11T06:57:56Z</time>
      </trkpt>
      <trkpt lat="43.22568" lon="2.32974">
        <ele>103.7</ele>
        <time>2024-05-11T06:57:57Z</time>
      </trkpt>
      <trkpt lat="43.2257" lon="2.32972">
        <ele>103.5</ele>
        <time>2024-05-11T06:57:58Z</time>
      </trkpt>
      <trkpt lat="43.22573" lon="2.32969">
        <ele>103.3</ele>
        <time>2024-05-11T06:57:59Z</time>
      </trkpt>
      <trkpt lat="43.22576" lon="2.32966">
        <ele>103.2</ele>
        <time>2024-05-11T06:58:00Z</time>
      </trkpt>
      <trkpt lat="43.2258" lon="2.32962">
        <ele>103.1</ele>
        <time>2024-05-11T06:58:01Z</time>
      </trkpt>
      <trkpt lat="43.22584" lon="2.32958">
        <ele>103</ele>
        <time>2024-05-11T06:58:02Z</time>
      </trkpt>
      <trkpt lat="43.22588" lon="2.32953">
        <ele>103</ele>
        <time>2024-05-11T06:58:03Z</time>
      </trkpt>
      <trkpt lat="43.2259" lon="2.32949">
        <ele>103</ele>
        <time>2024-05-11T06:58:04Z</time>
      </trkpt>
      <trkpt lat="43.22592" lon="2.32946">
        <ele>103</ele>
        <time>2024-05-11T06:58:05Z</time>
      </trkpt>
      <trkpt lat="43.22594" lon="2.32942">
        <ele>102.9</ele>
        <time>2024-05-11T06:58:06Z</time>
      </trkpt>
      <trkpt lat="43.22596" lon="2.32939">
        <ele>102.8</ele>
        <time>2024-05-11T06:58:07Z</time>
      </trkpt>
      <trkpt lat="43.22597" lon="2.32937">
        <ele>102.7</ele>
        <time>2024-05-11T06:58:08Z</time>
      </trkpt>
      <trkpt lat="43.22599" lon="2.32934">
        <ele>102.6</ele>
        <time>2024-05-11T06:58:09Z</time>
      </trkpt>
      <trkpt lat="43.226" lon="2.32931">
        <ele>102.5</ele>
        <time>2024-05-11T06:58:10Z</time>
      </trkpt>
      <trkpt lat="43.22602" lon="2.32928">
        <ele>102.4</ele>
        <time>2024-05-11T06:58:11Z</time>
      </trkpt>
      <trkpt lat="43.22603" lon="2.32927">
        <ele>102.4</ele>
        <time>2024-05-11T06:58:12Z</time>
      </trkpt>
      <trkpt lat="43.22605" lon="2.32924">
        <ele>102.3</ele>
        <time>2024-05-11T06:58:13Z</time>
      </trkpt>
      <trkpt lat="43.22606" lon="2.32923">
        <ele>102.2</ele>
        <time>2024-05-11T06:58:14Z</time>
      </trkpt>
      <trkpt lat="43.22607" lon="2.32921">
        <ele>102.2</ele>
        <time>2024-05-11T06:58:15Z</time>
      </trkpt>
      <trkpt lat="43.22608" lon="2.3292">
        <ele>102.1</ele>
        <time>2024-05-11T06:58:16Z</time>
      </trkpt>
      <trkpt lat="43.22609" lon="2.32919">
        <ele>102.1</ele>
        <time>2024-05-11T06:58:17Z</time>
      </trkpt>
      <trkpt lat="43.2261" lon="2.32918">
        <ele>102</ele>
        <time>2024-05-11T06:58:18Z</time>
      </trkpt>
      <trkpt lat="43.2261" lon="2.32917">
        <ele>102</ele>
        <time>2024-05-11T06:58:19Z</time>
      </trkpt>
      <trkpt lat="43.22611" lon="2.32916">
        <ele>102</ele>
        <time>2024-05-11T06:58:20Z</time>
      </trkpt>
      <trkpt lat="43.22612" lon="2.32916">
        <ele>102</ele>
        <time>2024-05-11T06:58:21Z</time>
      </trkpt>
      <trkpt lat="43.22612" lon="2.32916">
        <ele>102</ele>
        <time>2024-05-11T06:58:22Z</time>
      </trkpt>
      <trkpt lat="43.22612" lon="2.32916">
        <ele>102</ele>
        <time>2024-05-11T06:58:23Z</time>
      </trkpt>
      <trkpt lat="43.22612" lon="2.32916">
        <ele>102</ele>
        <time>2024-05-11T06:58:24Z</time>
      </trkpt>
      <trkpt lat="43.22611" lon="2.32916">
        <ele>102</ele>
        <time>2024-05-11T06:58:25Z</time>
      </trkpt>
      <trkpt lat="43.22611" lon="2.32916">
        <ele>102</ele>
        <time>2024-05-11T06:58:26Z</time>
      </trkpt>
      <trkpt lat="43.22611" lon="2.32916">
        <ele>102</ele>
        <time>2024-05-11T06:58:27Z</time>
      </trkpt>
      <trkpt lat="43.22611" lon="2.32917">
        <ele>102</ele>
        <time>2024-05-11T06:58:28Z</time>
      </trkpt>
      <trkpt lat="43.22611" lon="2.32917">
        <ele>102</ele>
        <time>2024-05-11T06:58:29Z</time>
      </trkpt>
      <trkpt lat="43.22611" lon="2.32917">
        <ele>102</ele>
        <time>2024-05-11T06:58:30Z</time>
      </trkpt>
      <trkpt lat="43.22611" lon="2.32917">
        <ele>102</ele>
        <time>2024-05-11T06:58:31Z</time>
      </trkpt>
      <trkpt lat="43.22611" lon="2.32917">
        <ele>102</ele>
        <time>2024-05-11T06:58:32Z</time>
      </trkpt>
      <trkpt lat="43.22611" lon="2.32917">
        <ele>102</ele>
        <time>2024-05-11T06:58:33Z</time>
      </trkpt>
      <trkpt lat="43.22611" lon="2.32917">
        <ele>102</ele>
        <time>2024-05-11T06:58:34Z</time>
      </trkpt>
      <trkpt lat="43.22611" lon="2.32917">
        <ele>102</ele>
        <time>2024-05-11T06:58:35Z</time>
      </trkpt>
      <trkpt lat="43.22611" lon="2.32917">
        <ele>102</ele>
        <time>2024-05-11T06:58:36Z</time>
      </trkpt>
      <trkpt lat="43.22611" lon="2.32917">
        <ele>102</ele>
        <time>2024-05-11T06:58:37Z</time>
      </trkpt>
      <trkpt lat="43.22611" lon="2.32917">
        <ele>102</ele>
        <time>2024-05-11T06:58:38Z</time>
      </trkpt>
      <trkpt lat="43.22611" lon="2.32917">
        <ele>102</ele>
        <time>2024-05-11T06:58:39Z</time>
      </trkpt>
      <trkpt lat="43.22611" lon="2.32917">
        <ele>102</ele>
        <time>2024-05-11T06:58:40Z</time>
      </trkpt>
      <trkpt lat="43.22611" lon="2.32916">
        <ele>102</ele>
        <time>2024-05-11T06:58:41Z</time>
      </trkpt>
      <trkpt lat="43.22611" lon="2.32916">
        <ele>102</ele>
        <time>2024-05-11T06:58:42Z</time>
      </trkpt>
      <trkpt lat="43.22611" lon="2.32916">
        <ele>102</ele>
        <time>2024-05-11T06:58:43Z</time>
      </trkpt>
      <trkpt lat="43.22611" lon="2.32916">
        <ele>102</ele>
        <time>2024-05-11T06:58:44Z</time>
      </trkpt>
      <trkpt lat="43.2261" lon="2.32909">
        <ele>102</ele>
        <time>2024-05-11T07:10:47Z</time>
      </trkpt>
      <trkpt lat="43.22612" lon="2.32916">
        <ele>102</ele>
        <time>2024-05-11T07:10:48Z</time>
      </trkpt>
      <trkpt lat="43.2261" lon="2.32917">
        <ele>102</ele>
        <time>2024-05-11T07:10:49Z</time>
      </trkpt>
      <trkpt lat="43.22611" lon="2.3292">
        <ele>102.1</ele>
        <time>2024-05-11T07:10:50Z</time>
      </trkpt>
      <trkpt lat="43.22608" lon="2.32918">
        <ele>102</ele>
        <time>2024-05-11T07:10:51Z</time>
      </trkpt>
      <trkpt lat="43.22613" lon="2.32916">
        <ele>102</ele>
        <time>2024-05-11T07:10:52Z</time>
      </trkpt>
      <trkpt lat="43.22615" lon="2.32915">
        <ele>102</ele>
        <time>2024-05-11T07:10:53Z</time>
      </trkpt>
      <trkpt lat="43.22616" lon="2.32915">
        <ele>102</ele>
        <time>2024-05-11T07:10:54Z</time>
      </trkpt>
      <trkpt lat="43.22617" lon="2.32914">
        <ele>102</ele>
        <time>2024-05-11T07:10:55Z</time>
      </trkpt>
      <trkpt lat="43.22618" lon="2.32914">
        <ele>102</ele>
        <time>2024-05-11T07:10:56Z</time>
      </trkpt>
      <trkpt lat="43.22618" lon="2.32913">
        <ele>102</ele>
        <time>2024-05-11T07:10:57Z</time>
      </trkpt>
      <trkpt lat="43.22618" lon="2.32913">
        <ele>102</ele>
        <time>2024-05-11T07:10:58Z</time>
      </trkpt>
      <trkpt lat="43.22619" lon="2.32912">
        <ele>102</ele>
        <time>2024-05-11T07:10:59Z</time>
      </trkpt>
      <trkpt lat="43.22618" lon="2.32912">
        <ele>102</ele>
        <time>2024-05-11T07:11:00Z</time>
      </trkpt>
      <trkpt lat="43.22618" lon="2.32912">
        <ele>102</ele>
        <time>2024-05-11T07:11:01Z</time>
      </trkpt>
      <trkpt lat="43.22618" lon="2.32912">
        <ele>102</ele>
        <time>2024-05-11T07:11:02Z</time>
      </trkpt>
      <trkpt lat="43.22618" lon="2.32912">
        <ele>102</ele>
        <time>2024-05-11T07:11:03Z</time>
      </trkpt>
      <trkpt lat="43.22618" lon="2.32912">
        <ele>102</ele>
        <time>2024-05-11T07:11:04Z</time>
      </trkpt>
      <trkpt lat="43.22618" lon="2.32912">
        <ele>102</ele>
        <time>2024-05-11T07:11:05Z</time>
      </trkpt>
      <trkpt lat="43.22618" lon="2.32912">
        <ele>102</ele>
        <time>2024-05-11T07:11:06Z</time>
      </trkpt>
      <trkpt lat="43.22618" lon="2.32912">
        <ele>102</ele>
        <time>2024-05-11T07:11:07Z</time>
      </trkpt>
      <trkpt lat="43.22618" lon="2.32912">
        <ele>102</ele>
        <time>2024-05-11T07:11:08Z</time>
      </trkpt>
      <trkpt lat="43.22618" lon="2.32912">
        <ele>102</ele>
        <time>2024-05-11T07:11:09Z</time>
      </trkpt>
      <trkpt lat="43.22618" lon="2.32912">
        <ele>102</ele>
        <time>2024-05-11T07:11:10Z</time>
      </trkpt>
      <trkpt lat="43.22618" lon="2.32912">
        <ele>102</ele>
        <time>2024-05-11T07:11:11Z</time>
      </trkpt>
      <trkpt lat="43.22618" lon="2.32912">
        <ele>102</ele>
        <time>2024-05-11T07:11:12Z</time>
      </trkpt>
      <trkpt lat="43.22618" lon="2.32912">
        <ele>102</ele>
        <time>2024-05-11T07:11:13Z</time>
      </trkpt>
      <trkpt lat="43.22618" lon="2.32912">
        <ele>102</ele>
        <time>2024-05-11T07:11:14Z</time>
      </trkpt>
      <trkpt lat="43.22618" lon="2.32912">
        <ele>102</ele>
        <time>2024-05-11T07:11:15Z</time>
      </trkpt>
      <trkpt lat="43.22618" lon="2.32912">
        <ele>102</ele>
        <time>2024-05-11T07:11:16Z</time>
      </trkpt>
      <trkpt lat="43.22618" lon="2.32912">
        <ele>102</ele>
        <time>2024-05-11T07:11:17Z</time>
      </trkpt>
      <trkpt lat="43.22618" lon="2.32912">
        <ele>102</ele>
        <time>2024-05-11T07:11:18Z</time>
      </trkpt>
      <trkpt lat="43.22618" lon="2.32912">
        <ele>102</ele>
        <time>2024-05-11T07:11:19Z</time>
      </trkpt>
      <trkpt lat="43.22618" lon="2.32912">
        <ele>102</ele>
        <time>2024-05-11T07:11:20Z</time>
      </trkpt>
      <trkpt lat="43.22618" lon="2.32912">
        <ele>102</ele>
        <time>2024-05-11T07:11:21Z</time>
      </trkpt>
      <trkpt lat="43.22618" lon="2.32912">
        <ele>102</ele>
        <time>2024-05-11T07:11:22Z</time>
      </trkpt>
      <trkpt lat="43.22618" lon="2.32912">
        <ele>102</ele>
        <time>2024-05-11T07:11:23Z</time>
      </trkpt>
      <trkpt lat="43.22618" lon="2.32912">
        <ele>102</ele>
        <time>2024-05-11T07:11:24Z</time>
      </trkpt>
      <trkpt lat="43.22618" lon="2.32912">
        <ele>102</ele>
        <time>2024-05-11T07:11:25Z</time>
      </trkpt>
      <trkpt lat="43.22618" lon="2.32912">
        <ele>102</ele>
        <time>2024-05-11T07:11:26Z</time>
      </trkpt>
      <trkpt lat="43.22618" lon="2.32913">
        <ele>102</ele>
        <time>2024-05-11T07:11:27Z</time>
      </trkpt>
      <trkpt lat="43.22619" lon="2.32914">
        <ele>102</ele>
        <time>2024-05-11T07:11:28Z</time>
      </trkpt>
      <trkpt lat="43.2262" lon="2.32915">
        <ele>102</ele>
        <time>2024-05-11T07:11:29Z</time>
      </trkpt>
      <trkpt lat="43.22621" lon="2.32915">
        <ele>102</ele>
        <time>2024-05-11T07:11:30Z</time>
      </trkpt>
      <trkpt lat="43.22623" lon="2.32916">
        <ele>102</ele>
        <time>2024-05-11T07:11:31Z</time>
      </trkpt>
      <trkpt lat="43.22624" lon="2.32916">
        <ele>102</ele>
        <time>2024-05-11T07:11:32Z</time>
      </trkpt>
      <trkpt lat="43.22625" lon="2.32916">
        <ele>102</ele>
        <time>2024-05-11T07:11:33Z</time>
      </trkpt>
      <trkpt lat="43.22626" lon="2.32916">
        <ele>102</ele>
        <time>2024-05-11T07:11:34Z</time>
      </trkpt>
      <trkpt lat="43.22627" lon="2.32916">
        <ele>102</ele>
        <time>2024-05-11T07:11:35Z</time>
      </trkpt>
      <trkpt lat="43.22629" lon="2.32915">
        <ele>102</ele>
        <time>2024-05-11T07:11:36Z</time>
      </trkpt>
      <trkpt lat="43.2263" lon="2.32915">
        <ele>102</ele>
        <time>2024-05-11T07:11:37Z</time>
      </trkpt>
      <trkpt lat="43.22631" lon="2.32915">
        <ele>102</ele>
        <time>2024-05-11T07:11:38Z</time>
      </trkpt>
      <trkpt lat="43.22632" lon="2.32915">
        <ele>102</ele>
        <time>2024-05-11T07:11:39Z</time>
      </trkpt>
      <trkpt lat="43.22634" lon="2.32915">
        <ele>102</ele>
        <time>2024-05-11T07:11:40Z</time>
      </trkpt>
      <trkpt lat="43.22635" lon="2.32915">
        <ele>102</ele>
        <time>2024-05-11T07:11:41Z</time>
      </trkpt>
      <trkpt lat="43.22637" lon="2.32916">
        <ele>102</ele>
        <time>2024-05-11T07:11:42Z</time>
      </trkpt>
      <trkpt lat="43.22639" lon="2.32917">
        <ele>102</ele>
        <time>2024-05-11T07:11:43Z</time>
      </trkpt>
      <trkpt lat="43.22642" lon="2.32918">
        <ele>102</ele>
        <time>2024-05-11T07:11:44Z</time>
      </trkpt>
      <trkpt lat="43.22646" lon="2.32921">
        <ele>102.1</ele>
        <time>2024-05-11T07:11:45Z</time>
      </trkpt>
      <trkpt lat="43.2265" lon="2.32929">
        <ele>102.3</ele>
        <time>2024-05-11T07:11:46Z</time>
      </trkpt>
      <trkpt lat="43.22654" lon="2.32935">
        <ele>102.3</ele>
        <time>2024-05-11T07:11:47Z</time>
      </trkpt>
      <trkpt lat="43.22658" lon="2.3294">
        <ele>102.3</ele>
        <time>2024-05-11T07:11:48Z</time>
      </trkpt>
      <trkpt lat="43.22662" lon="2.32945">
        <ele>102.2</ele>
        <time>2024-05-11T07:11:49Z</time>
      </trkpt>
      <trkpt lat="43.22665" lon="2.32947">
        <ele>102.1</ele>
        <time>2024-05-11T07:11:50Z</time>
      </trkpt>
      <trkpt lat="43.22668" lon="2.32951">
        <ele>102.2</ele>
        <time>2024-05-11T07:11:51Z</time>
      </trkpt>
      <trkpt lat="43.22671" lon="2.32953">
        <ele>102.3</ele>
        <time>2024-05-11T07:11:52Z</time>
      </trkpt>
      <trkpt lat="43.22673" lon="2.32956">
        <ele>102.4</ele>
        <time>2024-05-11T07:11:53Z</time>
      </trkpt>
      <trkpt lat="43.22675" lon="2.32958">
        <ele>102.5</ele>
        <time>2024-05-11T07:11:54Z</time>
      </trkpt>
      <trkpt lat="43.22677" lon="2.3296">
        <ele>102.6</ele>
        <time>2024-05-11T07:11:55Z</time>
      </trkpt>
      <trkpt lat="43.2268" lon="2.32962">
        <ele>102.6</ele>
        <time>2024-05-11T07:11:56Z</time>
      </trkpt>
      <trkpt lat="43.22683" lon="2.32965">
        <ele>102.7</ele>
        <time>2024-05-11T07:11:57Z</time>
      </trkpt>
      <trkpt lat="43.22688" lon="2.32968">
        <ele>102.8</ele>
        <time>2024-05-11T07:11:58Z</time>
      </trkpt>
      <trkpt lat="43.22692" lon="2.32973">
        <ele>103</ele>
        <time>2024-05-11T07:11:59Z</time>
      </trkpt>
      <trkpt lat="43.22697" lon="2.32978">
        <ele>103.4</ele>
        <time>2024-05-11T07:12:00Z</time>
      </trkpt>
      <trkpt lat="43.22702" lon="2.32981">
        <ele>103.9</ele>
        <time>2024-05-11T07:12:01Z</time>
      </trkpt>
      <trkpt lat="43.22708" lon="2.3298">
        <ele>104.3</ele>
        <time>2024-05-11T07:12:02Z</time>
      </trkpt>
      <trkpt lat="43.22712" lon="2.32976">
        <ele>104.4</ele>
        <time>2024-05-11T07:12:03Z</time>
      </trkpt>
      <trkpt lat="43.22717" lon="2.32969">
        <ele>104.4</ele>
        <time>2024-05-11T07:12:04Z</time>
      </trkpt>
      <trkpt lat="43.22722" lon="2.32961">
        <ele>104.2</ele>
        <time>2024-05-11T07:12:05Z</time>
      </trkpt>
      <trkpt lat="43.22728" lon="2.32953">
        <ele>103.9</ele>
        <time>2024-05-11T07:12:06Z</time>
      </trkpt>
      <trkpt lat="43.22735" lon="2.32945">
        <ele>103.9</ele>
        <time>2024-05-11T07:12:07Z</time>
      </trkpt>
      <trkpt lat="43.2274" lon="2.32938">
        <ele>104.1</ele>
        <time>2024-05-11T07:12:08Z</time>
      </trkpt>
      <trkpt lat="43.22745" lon="2.32931">
        <ele>104.2</ele>
        <time>2024-05-11T07:12:09Z</time>
      </trkpt>
      <trkpt lat="43.22751" lon="2.32923">
        <ele>104.2</ele>
        <time>2024-05-11T07:12:10Z</time>
      </trkpt>
      <trkpt lat="43.22757" lon="2.32915">
        <ele>104</ele>
        <time>2024-05-11T07:12:11Z</time>
      </trkpt>
      <trkpt lat="43.22764" lon="2.32906">
        <ele>103.8</ele>
        <time>2024-05-11T07:12:12Z</time>
      </trkpt>
      <trkpt lat="43.22771" lon="2.32896">
        <ele>103.8</ele>
        <time>2024-05-11T07:12:13Z</time>
      </trkpt>
      <trkpt lat="43.22777" lon="2.32887">
        <ele>103.8</ele>
        <time>2024-05-11T07:12:14Z</time>
      </trkpt>
      <trkpt lat="43.22784" lon="2.32879">
        <ele>103.4</ele>
        <time>2024-05-11T07:12:15Z</time>
      </trkpt>
      <trkpt lat="43.2279" lon="2.32871">
        <ele>103.3</ele>
        <time>2024-05-11T07:12:16Z</time>
      </trkpt>
      <trkpt lat="43.22795" lon="2.32863">
        <ele>103.3</ele>
        <time>2024-05-11T07:12:17Z</time>
      </trkpt>
      <trkpt lat="43.22799" lon="2.32855">
        <ele>103.4</ele>
        <time>2024-05-11T07:12:18Z</time>
      </trkpt>
      <trkpt lat="43.228" lon="2.32847">
        <ele>103.3</ele>
        <time>2024-05-11T07:12:19Z</time>
      </trkpt>
      <trkpt lat="43.228" lon="2.3284">
        <ele>103.1</ele>
        <time>2024-05-11T07:12:20Z</time>
      </trkpt>
      <trkpt lat="43.228" lon="2.32834">
        <ele>103</ele>
        <time>2024-05-11T07:12:21Z</time>
      </trkpt>
      <trkpt lat="43.228" lon="2.32828">
        <ele>102.8</ele>
        <time>2024-05-11T07:12:22Z</time>
      </trkpt>
      <trkpt lat="43.22802" lon="2.32823">
        <ele>102.6</ele>
        <time>2024-05-11T07:12:23Z</time>
      </trkpt>
      <trkpt lat="43.22803" lon="2.32819">
        <ele>102.5</ele>
        <time>2024-05-11T07:12:24Z</time>
      </trkpt>
      <trkpt lat="43.22806" lon="2.32815">
        <ele>102.4</ele>
        <time>2024-05-11T07:12:25Z</time>
      </trkpt>
      <trkpt lat="43.2281" lon="2.32812">
        <ele>102.4</ele>
        <time>2024-05-11T07:12:26Z</time>
      </trkpt>
      <trkpt lat="43.22815" lon="2.32812">
        <ele>102.5</ele>
        <time>2024-05-11T07:12:27Z</time>
      </trkpt>
      <trkpt lat="43.2282" lon="2.32814">
        <ele>102.7</ele>
        <time>2024-05-11T07:12:28Z</time>
      </trkpt>
      <trkpt lat="43.22823" lon="2.32819">
        <ele>102.8</ele>
        <time>2024-05-11T07:12:29Z</time>
      </trkpt>
      <trkpt lat="43.22826" lon="2.32826">
        <ele>102.9</ele>
        <time>2024-05-11T07:12:30Z</time>
      </trkpt>
      <trkpt lat="43.22826" lon="2.32835">
        <ele>103.1</ele>
        <time>2024-05-11T07:12:31Z</time>
      </trkpt>
      <trkpt lat="43.22822" lon="2.32843">
        <ele>103.3</ele>
        <time>2024-05-11T07:12:32Z</time>
      </trkpt>
      <trkpt lat="43.22817" lon="2.32853">
        <ele>103.7</ele>
        <time>2024-05-11T07:12:33Z</time>
      </trkpt>
      <trkpt lat="43.2281" lon="2.32862">
        <ele>104</ele>
        <time>2024-05-11T07:12:34Z</time>
      </trkpt>
      <trkpt lat="43.22802" lon="2.32874">
        <ele>103.9</ele>
        <time>2024-05-11T07:12:35Z</time>
      </trkpt>
      <trkpt lat="43.22793" lon="2.32887">
        <ele>103.9</ele>
        <time>2024-05-11T07:12:36Z</time>
      </trkpt>
      <trkpt lat="43.22785" lon="2.329">
        <ele>103.9</ele>
        <time>2024-05-11T07:12:37Z</time>
      </trkpt>
      <trkpt lat="43.22778" lon="2.32912">
        <ele>104</ele>
        <time>2024-05-11T07:12:38Z</time>
      </trkpt>
      <trkpt lat="43.2277" lon="2.32924">
        <ele>104.1</ele>
        <time>2024-05-11T07:12:39Z</time>
      </trkpt>
      <trkpt lat="43.22763" lon="2.32935">
        <ele>104.4</ele>
        <time>2024-05-11T07:12:40Z</time>
      </trkpt>
      <trkpt lat="43.22757" lon="2.32945">
        <ele>104.7</ele>
        <time>2024-05-11T07:12:41Z</time>
      </trkpt>
      <trkpt lat="43.22752" lon="2.32953">
        <ele>104.9</ele>
        <time>2024-05-11T07:12:42Z</time>
      </trkpt>
      <trkpt lat="43.22748" lon="2.32959">
        <ele>104.9</ele>
        <time>2024-05-11T07:12:43Z</time>
      </trkpt>
      <trkpt lat="43.22745" lon="2.32965">
        <ele>104.9</ele>
        <time>2024-05-11T07:12:44Z</time>
      </trkpt>
      <trkpt lat="43.22741" lon="2.32971">
        <ele>105</ele>
        <time>2024-05-11T07:12:45Z</time>
      </trkpt>
      <trkpt lat="43.22736" lon="2.32978">
        <ele>105.1</ele>
        <time>2024-05-11T07:12:46Z</time>
      </trkpt>
      <trkpt lat="43.22731" lon="2.32985">
        <ele>105.3</ele>
        <time>2024-05-11T07:12:47Z</time>
      </trkpt>
      <trkpt lat="43.22726" lon="2.32992">
        <ele>105.6</ele>
        <time>2024-05-11T07:12:48Z</time>
      </trkpt>
      <trkpt lat="43.2272" lon="2.33">
        <ele>105.8</ele>
        <time>2024-05-11T07:12:49Z</time>
      </trkpt>
      <trkpt lat="43.22716" lon="2.33008">
        <ele>106</ele>
        <time>2024-05-11T07:12:50Z</time>
      </trkpt>
      <trkpt lat="43.22712" lon="2.33015">
        <ele>106.2</ele>
        <time>2024-05-11T07:12:51Z</time>
      </trkpt>
      <trkpt lat="43.22708" lon="2.33023">
        <ele>106.7</ele>
        <time>2024-05-11T07:12:52Z</time>
      </trkpt>
      <trkpt lat="43.22704" lon="2.33032">
        <ele>107.1</ele>
        <time>2024-05-11T07:12:53Z</time>
      </trkpt>
      <trkpt lat="43.22698" lon="2.33042">
        <ele>107.4</ele>
        <time>2024-05-11T07:12:54Z</time>
      </trkpt>
      <trkpt lat="43.22692" lon="2.33052">
        <ele>107.9</ele>
        <time>2024-05-11T07:12:55Z</time>
      </trkpt>
      <trkpt lat="43.22686" lon="2.33059">
        <ele>108.3</ele>
        <time>2024-05-11T07:12:56Z</time>
      </trkpt>
      <trkpt lat="43.22682" lon="2.33065">
        <ele>108.4</ele>
        <time>2024-05-11T07:12:57Z</time>
      </trkpt>
      <trkpt lat="43.22679" lon="2.33069">
        <ele>108.6</ele>
        <time>2024-05-11T07:12:58Z</time>
      </trkpt>
      <trkpt lat="43.22676" lon="2.33072">
        <ele>108.7</ele>
        <time>2024-05-11T07:12:59Z</time>
      </trkpt>
      <trkpt lat="43.22674" lon="2.33074">
        <ele>108.7</ele>
        <time>2024-05-11T07:13:00Z</time>
      </trkpt>
      <trkpt lat="43.22671" lon="2.33076">
        <ele>108.8</ele>
        <time>2024-05-11T07:13:01Z</time>
      </trkpt>
      <trkpt lat="43.22669" lon="2.33078">
        <ele>108.9</ele>
        <time>2024-05-11T07:13:02Z</time>
      </trkpt>
      <trkpt lat="43.22667" lon="2.33079">
        <ele>109</ele>
        <time>2024-05-11T07:13:03Z</time>
      </trkpt>
      <trkpt lat="43.22665" lon="2.3308">
        <ele>109.1</ele>
        <time>2024-05-11T07:13:04Z</time>
      </trkpt>
      <trkpt lat="43.22663" lon="2.33081">
        <ele>109.1</ele>
        <time>2024-05-11T07:13:05Z</time>
      </trkpt>
      <trkpt lat="43.22663" lon="2.33081">
        <ele>109.1</ele>
        <time>2024-05-11T07:13:06Z</time>
      </trkpt>
      <trkpt lat="43.22663" lon="2.3308">
        <ele>109.1</ele>
        <time>2024-05-11T07:13:07Z</time>
      </trkpt>
      <trkpt lat="43.22664" lon="2.3308">
        <ele>109.1</ele>
        <time>2024-05-11T07:13:08Z</time>
      </trkpt>
      <trkpt lat="43.22664" lon="2.3308">
        <ele>109.1</ele>
        <time>2024-05-11T07:13:09Z</time>
      </trkpt>
      <trkpt lat="43.22664" lon="2.3308">
        <ele>109.1</ele>
        <time>2024-05-11T07:13:10Z</time>
      </trkpt>
      <trkpt lat="43.22663" lon="2.3308">
        <ele>109.1</ele>
        <time>2024-05-11T07:13:11Z</time>
      </trkpt>
      <trkpt lat="43.22663" lon="2.3308">
        <ele>109.1</ele>
        <time>2024-05-11T07:13:12Z</time>
      </trkpt>
      <trkpt lat="43.22663" lon="2.3308">
        <ele>109.1</ele>
        <time>2024-05-11T07:13:13Z</time>
      </trkpt>
      <trkpt lat="43.22662" lon="2.3308">
        <ele>109.1</ele>
        <time>2024-05-11T07:13:14Z</time>
      </trkpt>
      <trkpt lat="43.22658" lon="2.33079">
        <ele>109.3</ele>
        <time>2024-05-11T07:13:15Z</time>
      </trkpt>
      <trkpt lat="43.22649" lon="2.33078">
        <ele>109.5</ele>
        <time>2024-05-11T07:13:16Z</time>
      </trkpt>
      <trkpt lat="43.2264" lon="2.33079">
        <ele>109.8</ele>
        <time>2024-05-11T07:13:17Z</time>
      </trkpt>
      <trkpt lat="43.22632" lon="2.33084">
        <ele>110</ele>
        <time>2024-05-11T07:13:18Z</time>
      </trkpt>
      <trkpt lat="43.22625" lon="2.33091">
        <ele>110.3</ele>
        <time>2024-05-11T07:13:19Z</time>
      </trkpt>
      <trkpt lat="43.2262" lon="2.33101">
        <ele>110.6</ele>
        <time>2024-05-11T07:13:20Z</time>
      </trkpt>
      <trkpt lat="43.22617" lon="2.33112">
        <ele>111</ele>
        <time>2024-05-11T07:13:21Z</time>
      </trkpt>
      <trkpt lat="43.22615" lon="2.33123">
        <ele>111.1</ele>
        <time>2024-05-11T07:13:22Z</time>
      </trkpt>
      <trkpt lat="43.22617" lon="2.33135">
        <ele>111.2</ele>
        <time>2024-05-11T07:13:23Z</time>
      </trkpt>
      <trkpt lat="43.22621" lon="2.33147">
        <ele>111.5</ele>
        <time>2024-05-11T07:13:24Z</time>
      </trkpt>
      <trkpt lat="43.22627" lon="2.33156">
        <ele>111.8</ele>
        <time>2024-05-11T07:13:25Z</time>
      </trkpt>
      <trkpt lat="43.22636" lon="2.33164">
        <ele>112</ele>
        <time>2024-05-11T07:13:26Z</time>
      </trkpt>
      <trkpt lat="43.22646" lon="2.33167">
        <ele>111.7</ele>
        <time>2024-05-11T07:13:27Z</time>
      </trkpt>
      <trkpt lat="43.22655" lon="2.33168">
        <ele>111.4</ele>
        <time>2024-05-11T07:13:28Z</time>
      </trkpt>
      <trkpt lat="43.22662" lon="2.33162">
        <ele>111.2</ele>
        <time>2024-05-11T07:13:29Z</time>
      </trkpt>
      <trkpt lat="43.22668" lon="2.33157">
        <ele>110.9</ele>
        <time>2024-05-11T07:13:30Z</time>
      </trkpt>
      <trkpt lat="43.22673" lon="2.33151">
        <ele>110.3</ele>
        <time>2024-05-11T07:13:31Z</time>
      </trkpt>
      <trkpt lat="43.22678" lon="2.33142">
        <ele>109.8</ele>
        <time>2024-05-11T07:13:32Z</time>
      </trkpt>
      <trkpt lat="43.22681" lon="2.33132">
        <ele>109.5</ele>
        <time>2024-05-11T07:13:33Z</time>
      </trkpt>
      <trkpt lat="43.22682" lon="2.33119">
        <ele>109.4</ele>
        <time>2024-05-11T07:13:34Z</time>
      </trkpt>
      <trkpt lat="43.22683" lon="2.33105">
        <ele>109.2</ele>
        <time>2024-05-11T07:13:35Z</time>
      </trkpt>
      <trkpt lat="43.22685" lon="2.33092">
        <ele>108.7</ele>
        <time>2024-05-11T07:13:36Z</time>
      </trkpt>
      <trkpt lat="43.22688" lon="2.33078">
        <ele>108.2</ele>
        <time>2024-05-11T07:13:37Z</time>
      </trkpt>
      <trkpt lat="43.22695" lon="2.33064">
        <ele>108</ele>
        <time>2024-05-11T07:13:38Z</time>
      </trkpt>
      <trkpt lat="43.22704" lon="2.3305">
        <ele>107.5</ele>
        <time>2024-05-11T07:13:39Z</time>
      </trkpt>
      <trkpt lat="43.22715" lon="2.33034">
        <ele>107.1</ele>
        <time>2024-05-11T07:13:40Z</time>
      </trkpt>
      <trkpt lat="43.22726" lon="2.33017">
        <ele>106.3</ele>
        <time>2024-05-11T07:13:41Z</time>
      </trkpt>
      <trkpt lat="43.22739" lon="2.32998">
        <ele>105.4</ele>
        <time>2024-05-11T07:13:42Z</time>
      </trkpt>
      <trkpt lat="43.22752" lon="2.32979">
        <ele>104.9</ele>
        <time>2024-05-11T07:13:43Z</time>
      </trkpt>
      <trkpt lat="43.22765" lon="2.32959">
        <ele>104.5</ele>
        <time>2024-05-11T07:13:44Z</time>
      </trkpt>
      <trkpt lat="43.22778" lon="2.3294">
        <ele>104</ele>
        <time>2024-05-11T07:13:45Z</time>
      </trkpt>
      <trkpt lat="43.22791" lon="2.3292">
        <ele>103.5</ele>
        <time>2024-05-11T07:13:46Z</time>
      </trkpt>
      <trkpt lat="43.22804" lon="2.329">
        <ele>103.6</ele>
        <time>2024-05-11T07:13:47Z</time>
      </trkpt>
      <trkpt lat="43.22817" lon="2.3288">
        <ele>103.4</ele>
        <time>2024-05-11T07:13:48Z</time>
      </trkpt>
      <trkpt lat="43.22831" lon="2.32859">
        <ele>103.9</ele>
        <time>2024-05-11T07:13:49Z</time>
      </trkpt>
      <trkpt lat="43.22845" lon="2.32839">
        <ele>102.9</ele>
        <time>2024-05-11T07:13:50Z</time>
      </trkpt>
      <trkpt lat="43.22859" lon="2.32819">
        <ele>103</ele>
        <time>2024-05-11T07:13:51Z</time>
      </trkpt>
      <trkpt lat="43.22873" lon="2.32798">
        <ele>102.2</ele>
        <time>2024-05-11T07:13:52Z</time>
      </trkpt>
      <trkpt lat="43.22887" lon="2.32778">
        <ele>102.9</ele>
        <time>2024-05-11T07:13:53Z</time>
      </trkpt>
      <trkpt lat="43.229" lon="2.32757">
        <ele>102.5</ele>
        <time>2024-05-11T07:13:54Z</time>
      </trkpt>
      <trkpt lat="43.22913" lon="2.32738">
        <ele>102.3</ele>
        <time>2024-05-11T07:13:55Z</time>
      </trkpt>
      <trkpt lat="43.22926" lon="2.3272">
        <ele>101.7</ele>
        <time>2024-05-11T07:13:56Z</time>
      </trkpt>
      <trkpt lat="43.22937" lon="2.32703">
        <ele>101.7</ele>
        <time>2024-05-11T07:13:57Z</time>
      </trkpt>
      <trkpt lat="43.22948" lon="2.32686">
        <ele>102.4</ele>
        <time>2024-05-11T07:13:58Z</time>
      </trkpt>
      <trkpt lat="43.22958" lon="2.3267">
        <ele>101.5</ele>
        <time>2024-05-11T07:13:59Z</time>
      </trkpt>
      <trkpt lat="43.22969" lon="2.32654">
        <ele>101.5</ele>
        <time>2024-05-11T07:14:00Z</time>
      </trkpt>
      <trkpt lat="43.2298" lon="2.32638">
        <ele>101.2</ele>
        <time>2024-05-11T07:14:01Z</time>
      </trkpt>
      <trkpt lat="43.22991" lon="2.32622">
        <ele>101.2</ele>
        <time>2024-05-11T07:14:02Z</time>
      </trkpt>
      <trkpt lat="43.23003" lon="2.32605">
        <ele>101.7</ele>
        <time>2024-05-11T07:14:03Z</time>
      </trkpt>
      <trkpt lat="43.23015" lon="2.32587">
        <ele>101.5</ele>
        <time>2024-05-11T07:14:04Z</time>
      </trkpt>
      <trkpt lat="43.23026" lon="2.3257">
        <ele>101.9</ele>
        <time>2024-05-11T07:14:05Z</time>
      </trkpt>
      <trkpt lat="43.23039" lon="2.32552">
        <ele>101.2</ele>
        <time>2024-05-11T07:14:06Z</time>
      </trkpt>
      <trkpt lat="43.2305" lon="2.32535">
        <ele>101.4</ele>
        <time>2024-05-11T07:14:07Z</time>
      </trkpt>
      <trkpt lat="43.23061" lon="2.32517">
        <ele>101.5</ele>
        <time>2024-05-11T07:14:08Z</time>
      </trkpt>
      <trkpt lat="43.23073" lon="2.32499">
        <ele>100.8</ele>
        <time>2024-05-11T07:14:09Z</time>
      </trkpt>
      <trkpt lat="43.23084" lon="2.3248">
        <ele>101.4</ele>
        <time>2024-05-11T07:14:10Z</time>
      </trkpt>
      <trkpt lat="43.23094" lon="2.32461">
        <ele>101</ele>
        <time>2024-05-11T07:14:11Z</time>
      </trkpt>
      <trkpt lat="43.23103" lon="2.32442">
        <ele>100.7</ele>
        <time>2024-05-11T07:14:12Z</time>
      </trkpt>
      <trkpt lat="43.23112" lon="2.32424">
        <ele>101.4</ele>
        <time>2024-05-11T07:14:13Z</time>
      </trkpt>
      <trkpt lat="43.2312" lon="2.32405">
        <ele>101.2</ele>
        <time>2024-05-11T07:14:14Z</time>
      </trkpt>
      <trkpt lat="43.23129" lon="2.32387">
        <ele>100.8</ele>
        <time>2024-05-11T07:14:15Z</time>
      </trkpt>
      <trkpt lat="43.23138" lon="2.32368">
        <ele>101.5</ele>
        <time>2024-05-11T07:14:16Z</time>
      </trkpt>
      <trkpt lat="43.23147" lon="2.32349">
        <ele>101.7</ele>
        <time>2024-05-11T07:14:17Z</time>
      </trkpt>
      <trkpt lat="43.23156" lon="2.32329">
        <ele>102</ele>
        <time>2024-05-11T07:14:18Z</time>
      </trkpt>
      <trkpt lat="43.23165" lon="2.3231">
        <ele>102</ele>
        <time>2024-05-11T07:14:19Z</time>
      </trkpt>
      <trkpt lat="43.23175" lon="2.32291">
        <ele>101.4</ele>
        <time>2024-05-11T07:14:20Z</time>
      </trkpt>
      <trkpt lat="43.23184" lon="2.32272">
        <ele>101</ele>
        <time>2024-05-11T07:14:21Z</time>
      </trkpt>
      <trkpt lat="43.23194" lon="2.32253">
        <ele>101.8</ele>
        <time>2024-05-11T07:14:22Z</time>
      </trkpt>
      <trkpt lat="43.23204" lon="2.32234">
        <ele>101.7</ele>
        <time>2024-05-11T07:14:23Z</time>
      </trkpt>
      <trkpt lat="43.23215" lon="2.32217">
        <ele>101.2</ele>
        <time>2024-05-11T07:14:24Z</time>
      </trkpt>
      <trkpt lat="43.23225" lon="2.322">
        <ele>102.2</ele>
        <time>2024-05-11T07:14:25Z</time>
      </trkpt>
      <trkpt lat="43.23235" lon="2.32184">
        <ele>102</ele>
        <time>2024-05-11T07:14:26Z</time>
      </trkpt>
      <trkpt lat="43.23246" lon="2.32169">
        <ele>102</ele>
        <time>2024-05-11T07:14:27Z</time>
      </trkpt>
      <trkpt lat="43.23258" lon="2.32153">
        <ele>102.1</ele>
        <time>2024-05-11T07:14:28Z</time>
      </trkpt>
      <trkpt lat="43.2327" lon="2.32139">
        <ele>102.3</ele>
        <time>2024-05-11T07:14:29Z</time>
      </trkpt>
      <trkpt lat="43.23282" lon="2.32124">
        <ele>102.3</ele>
        <time>2024-05-11T07:14:30Z</time>
      </trkpt>
      <trkpt lat="43.23294" lon="2.32111">
        <ele>102.4</ele>
        <time>2024-05-11T07:14:31Z</time>
      </trkpt>
      <trkpt lat="43.23307" lon="2.32097">
        <ele>103</ele>
        <time>2024-05-11T07:14:32Z</time>
      </trkpt>
      <trkpt lat="43.23319" lon="2.32084">
        <ele>103.5</ele>
        <time>2024-05-11T07:14:33Z</time>
      </trkpt>
      <trkpt lat="43.23332" lon="2.32073">
        <ele>103.5</ele>
        <time>2024-05-11T07:14:34Z</time>
      </trkpt>
      <trkpt lat="43.23344" lon="2.32062">
        <ele>103.7</ele>
        <time>2024-05-11T07:14:35Z</time>
      </trkpt>
      <trkpt lat="43.23358" lon="2.32051">
        <ele>104.1</ele>
        <time>2024-05-11T07:14:36Z</time>
      </trkpt>
      <trkpt lat="43.23371" lon="2.32039">
        <ele>103.9</ele>
        <time>2024-05-11T07:14:37Z</time>
      </trkpt>
      <trkpt lat="43.23385" lon="2.32029">
        <ele>104.7</ele>
        <time>2024-05-11T07:14:38Z</time>
      </trkpt>
      <trkpt lat="43.23399" lon="2.32017">
        <ele>104.3</ele>
        <time>2024-05-11T07:14:39Z</time>
      </trkpt>
      <trkpt lat="43.23414" lon="2.32006">
        <ele>104.4</ele>
        <time>2024-05-11T07:14:40Z</time>
      </trkpt>
      <trkpt lat="43.23428" lon="2.31994">
        <ele>104.5</ele>
        <time>2024-05-11T07:14:41Z</time>
      </trkpt>
      <trkpt lat="43.23443" lon="2.31981">
        <ele>104.4</ele>
        <time>2024-05-11T07:14:42Z</time>
      </trkpt>
      <trkpt lat="43.23459" lon="2.31969">
        <ele>104.7</ele>
        <time>2024-05-11T07:14:43Z</time>
      </trkpt>
      <trkpt lat="43.23474" lon="2.31956">
        <ele>104.5</ele>
        <time>2024-05-11T07:14:44Z</time>
      </trkpt>
      <trkpt lat="43.23489" lon="2.31943">
        <ele>105.1</ele>
        <time>2024-05-11T07:14:45Z</time>
      </trkpt>
      <trkpt lat="43.23504" lon="2.3193">
        <ele>104.8</ele>
        <time>2024-05-11T07:14:46Z</time>
      </trkpt>
      <trkpt lat="43.23519" lon="2.31917">
        <ele>105</ele>
        <time>2024-05-11T07:14:47Z</time>
      </trkpt>
      <trkpt lat="43.23535" lon="2.31904">
        <ele>104.2</ele>
        <time>2024-05-11T07:14:48Z</time>
      </trkpt>
      <trkpt lat="43.23551" lon="2.31891">
        <ele>104.7</ele>
        <time>2024-05-11T07:14:49Z</time>
      </trkpt>
      <trkpt lat="43.23566" lon="2.31877">
        <ele>104.4</ele>
        <time>2024-05-11T07:14:50Z</time>
      </trkpt>
      <trkpt lat="43.23581" lon="2.31864">
        <ele>104.7</ele>
        <time>2024-05-11T07:14:51Z</time>
      </trkpt>
      <trkpt lat="43.23596" lon="2.31852">
        <ele>103.6</ele>
        <time>2024-05-11T07:14:52Z</time>
      </trkpt>
      <trkpt lat="43.2361" lon="2.3184">
        <ele>103.3</ele>
        <time>2024-05-11T07:14:53Z</time>
      </trkpt>
      <trkpt lat="43.23624" lon="2.31829">
        <ele>102.8</ele>
        <time>2024-05-11T07:14:54Z</time>
      </trkpt>
      <trkpt lat="43.23637" lon="2.31818">
        <ele>102.2</ele>
        <time>2024-05-11T07:14:55Z</time>
      </trkpt>
      <trkpt lat="43.23649" lon="2.31807">
        <ele>102.2</ele>
        <time>2024-05-11T07:14:56Z</time>
      </trkpt>
      <trkpt lat="43.2366" lon="2.31799">
        <ele>101.9</ele>
        <time>2024-05-11T07:14:57Z</time>
      </trkpt>
      <trkpt lat="43.2367" lon="2.3179">
        <ele>102.1</ele>
        <time>2024-05-11T07:14:58Z</time>
      </trkpt>
      <trkpt lat="43.2368" lon="2.31781">
        <ele>102.3</ele>
        <time>2024-05-11T07:14:59Z</time>
      </trkpt>
      <trkpt lat="43.23689" lon="2.31773">
        <ele>102.1</ele>
        <time>2024-05-11T07:15:00Z</time>
      </trkpt>
      <trkpt lat="43.23698" lon="2.31764">
        <ele>102</ele>
        <time>2024-05-11T07:15:01Z</time>
      </trkpt>
      <trkpt lat="43.23708" lon="2.31755">
        <ele>102</ele>
        <time>2024-05-11T07:15:02Z</time>
      </trkpt>
      <trkpt lat="43.23718" lon="2.31745">
        <ele>102</ele>
        <time>2024-05-11T07:15:03Z</time>
      </trkpt>
      <trkpt lat="43.23728" lon="2.31734">
        <ele>102</ele>
        <time>2024-05-11T07:15:04Z</time>
      </trkpt>
      <trkpt lat="43.23738" lon="2.31722">
        <ele>102</ele>
        <time>2024-05-11T07:15:05Z</time>
      </trkpt>
      <trkpt lat="43.23749" lon="2.31708">
        <ele>102</ele>
        <time>2024-05-11T07:15:06Z</time>
      </trkpt>
      <trkpt lat="43.2376" lon="2.31693">
        <ele>102</ele>
        <time>2024-05-11T07:15:07Z</time>
      </trkpt>
      <trkpt lat="43.23771" lon="2.31676">
        <ele>102.3</ele>
        <time>2024-05-11T07:15:08Z</time>
      </trkpt>
      <trkpt lat="43.23782" lon="2.3166">
        <ele>102.7</ele>
        <time>2024-05-11T07:15:09Z</time>
      </trkpt>
      <trkpt lat="43.23792" lon="2.31643">
        <ele>102.5</ele>
        <time>2024-05-11T07:15:10Z</time>
      </trkpt>
      <trkpt lat="43.23802" lon="2.31628">
        <ele>102.8</ele>
        <time>2024-05-11T07:15:11Z</time>
      </trkpt>
      <trkpt lat="43.23811" lon="2.31615">
        <ele>102.8</ele>
        <time>2024-05-11T07:15:12Z</time>
      </trkpt>
      <trkpt lat="43.23819" lon="2.31603">
        <ele>102.5</ele>
        <time>2024-05-11T07:15:13Z</time>
      </trkpt>
      <trkpt lat="43.23827" lon="2.31591">
        <ele>102.6</ele>
        <time>2024-05-11T07:15:14Z</time>
      </trkpt>
      <trkpt lat="43.23834" lon="2.31581">
        <ele>103</ele>
        <time>2024-05-11T07:15:15Z</time>
      </trkpt>
      <trkpt lat="43.2384" lon="2.31572">
        <ele>102.9</ele>
        <time>2024-05-11T07:15:16Z</time>
      </trkpt>
      <trkpt lat="43.23846" lon="2.31564">
        <ele>102.9</ele>
        <time>2024-05-11T07:15:17Z</time>
      </trkpt>
      <trkpt lat="43.23851" lon="2.31558">
        <ele>102.9</ele>
        <time>2024-05-11T07:15:18Z</time>
      </trkpt>
      <trkpt lat="43.23856" lon="2.31553">
        <ele>103</ele>
        <time>2024-05-11T07:15:19Z</time>
      </trkpt>
      <trkpt lat="43.2386" lon="2.3155">
        <ele>103</ele>
        <time>2024-05-11T07:15:20Z</time>
      </trkpt>
      <trkpt lat="43.23864" lon="2.31547">
        <ele>102.9</ele>
        <time>2024-05-11T07:15:21Z</time>
      </trkpt>
      <trkpt lat="43.23866" lon="2.31545">
        <ele>102.9</ele>
        <time>2024-05-11T07:15:22Z</time>
      </trkpt>
      <trkpt lat="43.23868" lon="2.31544">
        <ele>102.9</ele>
        <time>2024-05-11T07:15:23Z</time>
      </trkpt>
      <trkpt lat="43.23869" lon="2.31544">
        <ele>102.8</ele>
        <time>2024-05-11T07:15:24Z</time>
      </trkpt>
      <trkpt lat="43.23869" lon="2.31544">
        <ele>102.8</ele>
        <time>2024-05-11T07:15:25Z</time>
      </trkpt>
      <trkpt lat="43.23869" lon="2.31544">
        <ele>102.8</ele>
        <time>2024-05-11T07:15:26Z</time>
      </trkpt>
      <trkpt lat="43.2387" lon="2.31543">
        <ele>102.8</ele>
        <time>2024-05-11T07:15:27Z</time>
      </trkpt>
      <trkpt lat="43.23874" lon="2.31542">
        <ele>102.8</ele>
        <time>2024-05-11T07:15:28Z</time>
      </trkpt>
      <trkpt lat="43.2388" lon="2.31541">
        <ele>102.7</ele>
        <time>2024-05-11T07:15:29Z</time>
      </trkpt>
      <trkpt lat="43.23887" lon="2.31538">
        <ele>102.7</ele>
        <time>2024-05-11T07:15:30Z</time>
      </trkpt>
      <trkpt lat="43.23892" lon="2.31531">
        <ele>102.8</ele>
        <time>2024-05-11T07:15:31Z</time>
      </trkpt>
      <trkpt lat="43.23895" lon="2.3152">
        <ele>102.9</ele>
        <time>2024-05-11T07:15:32Z</time>
      </trkpt>
      <trkpt lat="43.23893" lon="2.31509">
        <ele>103.3</ele>
        <time>2024-05-11T07:15:33Z</time>
      </trkpt>
      <trkpt lat="43.23891" lon="2.31499">
        <ele>103.8</ele>
        <time>2024-05-11T07:15:34Z</time>
      </trkpt>
      <trkpt lat="43.23891" lon="2.31486">
        <ele>103.8</ele>
        <time>2024-05-11T07:15:35Z</time>
      </trkpt>
      <trkpt lat="43.23894" lon="2.31472">
        <ele>103.5</ele>
        <time>2024-05-11T07:15:36Z</time>
      </trkpt>
      <trkpt lat="43.239" lon="2.31457">
        <ele>103.5</ele>
        <time>2024-05-11T07:15:37Z</time>
      </trkpt>
      <trkpt lat="43.23907" lon="2.31441">
        <ele>104.1</ele>
        <time>2024-05-11T07:15:38Z</time>
      </trkpt>
      <trkpt lat="43.23915" lon="2.31422">
        <ele>104.8</ele>
        <time>2024-05-11T07:15:39Z</time>
      </trkpt>
      <trkpt lat="43.23924" lon="2.31401">
        <ele>104.2</ele>
        <time>2024-05-11T07:15:40Z</time>
      </trkpt>
      <trkpt lat="43.23933" lon="2.31378">
        <ele>104.4</ele>
        <time>2024-05-11T07:15:41Z</time>
      </trkpt>
      <trkpt lat="43.23942" lon="2.31355">
        <ele>106</ele>
        <time>2024-05-11T07:15:42Z</time>
      </trkpt>
      <trkpt lat="43.23952" lon="2.31331">
        <ele>106.8</ele>
        <time>2024-05-11T07:15:43Z</time>
      </trkpt>
      <trkpt lat="43.23963" lon="2.31306">
        <ele>108</ele>
        <time>2024-05-11T07:15:44Z</time>
      </trkpt>
      <trkpt lat="43.23974" lon="2.3128">
        <ele>109</ele>
        <time>2024-05-11T07:15:45Z</time>
      </trkpt>
      <trkpt lat="43.23985" lon="2.31252">
        <ele>110.4</ele>
        <time>2024-05-11T07:15:46Z</time>
      </trkpt>
      <trkpt lat="43.23996" lon="2.31223">
        <ele>111.3</ele>
        <time>2024-05-11T07:15:47Z</time>
      </trkpt>
      <trkpt lat="43.24007" lon="2.31194">
        <ele>112</ele>
        <time>2024-05-11T07:15:48Z</time>
      </trkpt>
      <trkpt lat="43.24016" lon="2.31162">
        <ele>113</ele>
        <time>2024-05-11T07:15:49Z</time>
      </trkpt>
      <trkpt lat="43.24025" lon="2.31129">
        <ele>113.4</ele>
        <time>2024-05-11T07:15:50Z</time>
      </trkpt>
      <trkpt lat="43.24034" lon="2.31094">
        <ele>113.9</ele>
        <time>2024-05-11T07:15:51Z</time>
      </trkpt>
      <trkpt lat="43.24044" lon="2.31058">
        <ele>114</ele>
        <time>2024-05-11T07:15:52Z</time>
      </trkpt>
      <trkpt lat="43.24054" lon="2.31022">
        <ele>115</ele>
        <time>2024-05-11T07:15:53Z</time>
      </trkpt>
      <trkpt lat="43.24063" lon="2.30986">
        <ele>114.9</ele>
        <time>2024-05-11T07:15:54Z</time>
      </trkpt>
      <trkpt lat="43.24073" lon="2.30949">
        <ele>115.3</ele>
        <time>2024-05-11T07:15:55Z</time>
      </trkpt>
      <trkpt lat="43.24083" lon="2.30913">
        <ele>116</ele>
        <time>2024-05-11T07:15:56Z</time>
      </trkpt>
      <trkpt lat="43.24093" lon="2.30876">
        <ele>115.7</ele>
        <time>2024-05-11T07:15:57Z</time>
      </trkpt>
      <trkpt lat="43.24103" lon="2.3084">
        <ele>116.1</ele>
        <time>2024-05-11T07:15:58Z</time>
      </trkpt>
      <trkpt lat="43.24113" lon="2.30803">
        <ele>117</ele>
        <time>2024-05-11T07:15:59Z</time>
      </trkpt>
      <trkpt lat="43.24122" lon="2.30767">
        <ele>117.6</ele>
        <time>2024-05-11T07:16:00Z</time>
      </trkpt>
      <trkpt lat="43.24132" lon="2.30732">
        <ele>118.1</ele>
        <time>2024-05-11T07:16:01Z</time>
      </trkpt>
      <trkpt lat="43.24141" lon="2.30698">
        <ele>118.7</ele>
        <time>2024-05-11T07:16:02Z</time>
      </trkpt>
      <trkpt lat="43.2415" lon="2.30664">
        <ele>118.8</ele>
        <time>2024-05-11T07:16:03Z</time>
      </trkpt>
      <trkpt lat="43.24159" lon="2.30631">
        <ele>119.8</ele>
        <time>2024-05-11T07:16:04Z</time>
      </trkpt>
      <trkpt lat="43.24168" lon="2.30598">
        <ele>120.4</ele>
        <time>2024-05-11T07:16:05Z</time>
      </trkpt>
      <trkpt lat="43.24176" lon="2.30565">
        <ele>121.3</ele>
        <time>2024-05-11T07:16:06Z</time>
      </trkpt>
      <trkpt lat="43.24185" lon="2.30533">
        <ele>122.7</ele>
        <time>2024-05-11T07:16:07Z</time>
      </trkpt>
      <trkpt lat="43.24193" lon="2.305">
        <ele>124</ele>
        <time>2024-05-11T07:16:08Z</time>
      </trkpt>
      <trkpt lat="43.24202" lon="2.3047">
        <ele>124.8</ele>
        <time>2024-05-11T07:16:09Z</time>
      </trkpt>
      <trkpt lat="43.24209" lon="2.30441">
        <ele>125.7</ele>
        <time>2024-05-11T07:16:10Z</time>
      </trkpt>
      <trkpt lat="43.24217" lon="2.30413">
        <ele>127.2</ele>
        <time>2024-05-11T07:16:11Z</time>
      </trkpt>
      <trkpt lat="43.24224" lon="2.30386">
        <ele>128</ele>
        <time>2024-05-11T07:16:12Z</time>
      </trkpt>
      <trkpt lat="43.24231" lon="2.30359">
        <ele>128.8</ele>
        <time>2024-05-11T07:16:13Z</time>
      </trkpt>
      <trkpt lat="43.24239" lon="2.30334">
        <ele>129.4</ele>
        <time>2024-05-11T07:16:14Z</time>
      </trkpt>
      <trkpt lat="43.24247" lon="2.3031">
        <ele>129.9</ele>
        <time>2024-05-11T07:16:15Z</time>
      </trkpt>
      <trkpt lat="43.24255" lon="2.30287">
        <ele>130.5</ele>
        <time>2024-05-11T07:16:16Z</time>
      </trkpt>
      <trkpt lat="43.24263" lon="2.30266">
        <ele>130.7</ele>
        <time>2024-05-11T07:16:17Z</time>
      </trkpt>
      <trkpt lat="43.24272" lon="2.30245">
        <ele>131</ele>
        <time>2024-05-11T07:16:18Z</time>
      </trkpt>
      <trkpt lat="43.24281" lon="2.30224">
        <ele>130.9</ele>
        <time>2024-05-11T07:16:19Z</time>
      </trkpt>
      <trkpt lat="43.24291" lon="2.30202">
        <ele>131.3</ele>
        <time>2024-05-11T07:16:20Z</time>
      </trkpt>
      <trkpt lat="43.24301" lon="2.30181">
        <ele>131.6</ele>
        <time>2024-05-11T07:16:21Z</time>
      </trkpt>
      <trkpt lat="43.24311" lon="2.30159">
        <ele>131.8</ele>
        <time>2024-05-11T07:16:22Z</time>
      </trkpt>
      <trkpt lat="43.24322" lon="2.30138">
        <ele>131.4</ele>
        <time>2024-05-11T07:16:23Z</time>
      </trkpt>
      <trkpt lat="43.24331" lon="2.30116">
        <ele>131.2</ele>
        <time>2024-05-11T07:16:24Z</time>
      </trkpt>
      <trkpt lat="43.24341" lon="2.30095">
        <ele>131</ele>
        <time>2024-05-11T07:16:25Z</time>
      </trkpt>
      <trkpt lat="43.24352" lon="2.30073">
        <ele>130.6</ele>
        <time>2024-05-11T07:16:26Z</time>
      </trkpt>
      <trkpt lat="43.24363" lon="2.3005">
        <ele>129.6</ele>
        <time>2024-05-11T07:16:27Z</time>
      </trkpt>
      <trkpt lat="43.24374" lon="2.30026">
        <ele>128.4</ele>
        <time>2024-05-11T07:16:28Z</time>
      </trkpt>
      <trkpt lat="43.24386" lon="2.30002">
        <ele>127.9</ele>
        <time>2024-05-11T07:16:29Z</time>
      </trkpt>
      <trkpt lat="43.24397" lon="2.29977">
        <ele>127.2</ele>
        <time>2024-05-11T07:16:30Z</time>
      </trkpt>
      <trkpt lat="43.24408" lon="2.2995">
        <ele>125.7</ele>
        <time>2024-05-11T07:16:31Z</time>
      </trkpt>
      <trkpt lat="43.24417" lon="2.29924">
        <ele>125.3</ele>
        <time>2024-05-11T07:16:32Z</time>
      </trkpt>
      <trkpt lat="43.24424" lon="2.29897">
        <ele>123.8</ele>
        <time>2024-05-11T07:16:33Z</time>
      </trkpt>
      <trkpt lat="43.24432" lon="2.29869">
        <ele>122.8</ele>
        <time>2024-05-11T07:16:34Z</time>
      </trkpt>
      <trkpt lat="43.24438" lon="2.29841">
        <ele>122</ele>
        <time>2024-05-11T07:16:35Z</time>
      </trkpt>
      <trkpt lat="43.24446" lon="2.29813">
        <ele>121.3</ele>
        <time>2024-05-11T07:16:36Z</time>
      </trkpt>
      <trkpt lat="43.24453" lon="2.29785">
        <ele>120.6</ele>
        <time>2024-05-11T07:16:37Z</time>
      </trkpt>
      <trkpt lat="43.24461" lon="2.29756">
        <ele>119.8</ele>
        <time>2024-05-11T07:16:38Z</time>
      </trkpt>
      <trkpt lat="43.24468" lon="2.29726">
        <ele>119.1</ele>
        <time>2024-05-11T07:16:39Z</time>
      </trkpt>
      <trkpt lat="43.24477" lon="2.29697">
        <ele>119</ele>
        <time>2024-05-11T07:16:40Z</time>
      </trkpt>
      <trkpt lat="43.24485" lon="2.29667">
        <ele>119</ele>
        <time>2024-05-11T07:16:41Z</time>
      </trkpt>
      <trkpt lat="43.24494" lon="2.29637">
        <ele>118</ele>
        <time>2024-05-11T07:16:42Z</time>
      </trkpt>
      <trkpt lat="43.24502" lon="2.29606">
        <ele>118.1</ele>
        <time>2024-05-11T07:16:43Z</time>
      </trkpt>
      <trkpt lat="43.24511" lon="2.29574">
        <ele>118</ele>
        <time>2024-05-11T07:16:44Z</time>
      </trkpt>
      <trkpt lat="43.24521" lon="2.29543">
        <ele>118.2</ele>
        <time>2024-05-11T07:16:45Z</time>
      </trkpt>
      <trkpt lat="43.2453" lon="2.29511">
        <ele>119</ele>
        <time>2024-05-11T07:16:46Z</time>
      </trkpt>
      <trkpt lat="43.24539" lon="2.29479">
        <ele>119</ele>
        <time>2024-05-11T07:16:47Z</time>
      </trkpt>
      <trkpt lat="43.24549" lon="2.29448">
        <ele>118.8</ele>
        <time>2024-05-11T07:16:48Z</time>
      </trkpt>
      <trkpt lat="43.24557" lon="2.29418">
        <ele>120</ele>
        <time>2024-05-11T07:16:49Z</time>
      </trkpt>
      <trkpt lat="43.24566" lon="2.29389">
        <ele>120</ele>
        <time>2024-05-11T07:16:50Z</time>
      </trkpt>
      <trkpt lat="43.24574" lon="2.29361">
        <ele>119.7</ele>
        <time>2024-05-11T07:16:51Z</time>
      </trkpt>
      <trkpt lat="43.24582" lon="2.29334">
        <ele>120.9</ele>
        <time>2024-05-11T07:16:52Z</time>
      </trkpt>
      <trkpt lat="43.24591" lon="2.29307">
        <ele>120.3</ele>
        <time>2024-05-11T07:16:53Z</time>
      </trkpt>
      <trkpt lat="43.24599" lon="2.2928">
        <ele>120.6</ele>
        <time>2024-05-11T07:16:54Z</time>
      </trkpt>
      <trkpt lat="43.24608" lon="2.29252">
        <ele>121.7</ele>
        <time>2024-05-11T07:16:55Z</time>
      </trkpt>
      <trkpt lat="43.24617" lon="2.29224">
        <ele>122.2</ele>
        <time>2024-05-11T07:16:56Z</time>
      </trkpt>
      <trkpt lat="43.24627" lon="2.29196">
        <ele>122.6</ele>
        <time>2024-05-11T07:16:57Z</time>
      </trkpt>
      <trkpt lat="43.24636" lon="2.29169">
        <ele>122.9</ele>
        <time>2024-05-11T07:16:58Z</time>
      </trkpt>
      <trkpt lat="43.24646" lon="2.29143">
        <ele>123.3</ele>
        <time>2024-05-11T07:16:59Z</time>
      </trkpt>
      <trkpt lat="43.24655" lon="2.29116">
        <ele>123.6</ele>
        <time>2024-05-11T07:17:00Z</time>
      </trkpt>
      <trkpt lat="43.24665" lon="2.2909">
        <ele>123.9</ele>
        <time>2024-05-11T07:17:01Z</time>
      </trkpt>
      <trkpt lat="43.24674" lon="2.29063">
        <ele>124.3</ele>
        <time>2024-05-11T07:17:02Z</time>
      </trkpt>
      <trkpt lat="43.24684" lon="2.29038">
        <ele>124.6</ele>
        <time>2024-05-11T07:17:03Z</time>
      </trkpt>
      <trkpt lat="43.24693" lon="2.29013">
        <ele>125.5</ele>
        <time>2024-05-11T07:17:04Z</time>
      </trkpt>
      <trkpt lat="43.24702" lon="2.28989">
        <ele>125.7</ele>
        <time>2024-05-11T07:17:05Z</time>
      </trkpt>
      <trkpt lat="43.24711" lon="2.28965">
        <ele>125.6</ele>
        <time>2024-05-11T07:17:06Z</time>
      </trkpt>
      <trkpt lat="43.24719" lon="2.28942">
        <ele>125.9</ele>
        <time>2024-05-11T07:17:07Z</time>
      </trkpt>
      <trkpt lat="43.24727" lon="2.2892">
        <ele>126.3</ele>
        <time>2024-05-11T07:17:08Z</time>
      </trkpt>
      <trkpt lat="43.24736" lon="2.28898">
        <ele>127.3</ele>
        <time>2024-05-11T07:17:09Z</time>
      </trkpt>
      <trkpt lat="43.24743" lon="2.28876">
        <ele>127.6</ele>
        <time>2024-05-11T07:17:10Z</time>
      </trkpt>
      <trkpt lat="43.24752" lon="2.28853">
        <ele>128.1</ele>
        <time>2024-05-11T07:17:11Z</time>
      </trkpt>
      <trkpt lat="43.24761" lon="2.2883">
        <ele>128.8</ele>
        <time>2024-05-11T07:17:12Z</time>
      </trkpt>
      <trkpt lat="43.24769" lon="2.28807">
        <ele>129.4</ele>
        <time>2024-05-11T07:17:13Z</time>
      </trkpt>
      <trkpt lat="43.24778" lon="2.28784">
        <ele>130</ele>
        <time>2024-05-11T07:17:14Z</time>
      </trkpt>
      <trkpt lat="43.24787" lon="2.28761">
        <ele>130.7</ele>
        <time>2024-05-11T07:17:15Z</time>
      </trkpt>
      <trkpt lat="43.24796" lon="2.28739">
        <ele>131.1</ele>
        <time>2024-05-11T07:17:16Z</time>
      </trkpt>
      <trkpt lat="43.24804" lon="2.28716">
        <ele>131.2</ele>
        <time>2024-05-11T07:17:17Z</time>
      </trkpt>
      <trkpt lat="43.24813" lon="2.28693">
        <ele>132.8</ele>
        <time>2024-05-11T07:17:18Z</time>
      </trkpt>
      <trkpt lat="43.24822" lon="2.2867">
        <ele>133.8</ele>
        <time>2024-05-11T07:17:19Z</time>
      </trkpt>
      <trkpt lat="43.24831" lon="2.28647">
        <ele>134.1</ele>
        <time>2024-05-11T07:17:20Z</time>
      </trkpt>
      <trkpt lat="43.2484" lon="2.28624">
        <ele>134.7</ele>
        <time>2024-05-11T07:17:21Z</time>
      </trkpt>
      <trkpt lat="43.2485" lon="2.28602">
        <ele>135.7</ele>
        <time>2024-05-11T07:17:22Z</time>
      </trkpt>
      <trkpt lat="43.24859" lon="2.28579">
        <ele>136.7</ele>
        <time>2024-05-11T07:17:23Z</time>
      </trkpt>
      <trkpt lat="43.24869" lon="2.28556">
        <ele>137.6</ele>
        <time>2024-05-11T07:17:24Z</time>
      </trkpt>
      <trkpt lat="43.24879" lon="2.28534">
        <ele>137.2</ele>
        <time>2024-05-11T07:17:25Z</time>
      </trkpt>
      <trkpt lat="43.24889" lon="2.28512">
        <ele>138</ele>
        <time>2024-05-11T07:17:26Z</time>
      </trkpt>
      <trkpt lat="43.24899" lon="2.2849">
        <ele>139</ele>
        <time>2024-05-11T07:17:27Z</time>
      </trkpt>
      <trkpt lat="43.24908" lon="2.2847">
        <ele>139.4</ele>
        <time>2024-05-11T07:17:28Z</time>
      </trkpt>
      <trkpt lat="43.24917" lon="2.28451">
        <ele>140</ele>
        <time>2024-05-11T07:17:29Z</time>
      </trkpt>
      <trkpt lat="43.24926" lon="2.28431">
        <ele>140.4</ele>
        <time>2024-05-11T07:17:30Z</time>
      </trkpt>
      <trkpt lat="43.24935" lon="2.28411">
        <ele>141</ele>
        <time>2024-05-11T07:17:31Z</time>
      </trkpt>
      <trkpt lat="43.24945" lon="2.28391">
        <ele>142</ele>
        <time>2024-05-11T07:17:32Z</time>
      </trkpt>
      <trkpt lat="43.24955" lon="2.2837">
        <ele>142.3</ele>
        <time>2024-05-11T07:17:33Z</time>
      </trkpt>
      <trkpt lat="43.24964" lon="2.28348">
        <ele>142.8</ele>
        <time>2024-05-11T07:17:34Z</time>
      </trkpt>
      <trkpt lat="43.24974" lon="2.28325">
        <ele>143.1</ele>
        <time>2024-05-11T07:17:35Z</time>
      </trkpt>
      <trkpt lat="43.24984" lon="2.28302">
        <ele>143.4</ele>
        <time>2024-05-11T07:17:36Z</time>
      </trkpt>
      <trkpt lat="43.24994" lon="2.28279">
        <ele>143.8</ele>
        <time>2024-05-11T07:17:37Z</time>
      </trkpt>
      <trkpt lat="43.25004" lon="2.28254">
        <ele>144</ele>
        <time>2024-05-11T07:17:38Z</time>
      </trkpt>
      <trkpt lat="43.25012" lon="2.28229">
        <ele>144</ele>
        <time>2024-05-11T07:17:39Z</time>
      </trkpt>
      <trkpt lat="43.25019" lon="2.28203">
        <ele>144</ele>
        <time>2024-05-11T07:17:40Z</time>
      </trkpt>
      <trkpt lat="43.25025" lon="2.28178">
        <ele>144</ele>
        <time>2024-05-11T07:17:41Z</time>
      </trkpt>
      <trkpt lat="43.25031" lon="2.28154">
        <ele>143.4</ele>
        <time>2024-05-11T07:17:42Z</time>
      </trkpt>
      <trkpt lat="43.25037" lon="2.28128">
        <ele>142.7</ele>
        <time>2024-05-11T07:17:43Z</time>
      </trkpt>
      <trkpt lat="43.25043" lon="2.28103">
        <ele>142.6</ele>
        <time>2024-05-11T07:17:44Z</time>
      </trkpt>
      <trkpt lat="43.25049" lon="2.28077">
        <ele>143.1</ele>
        <time>2024-05-11T07:17:45Z</time>
      </trkpt>
      <trkpt lat="43.25056" lon="2.28051">
        <ele>144.1</ele>
        <time>2024-05-11T07:17:46Z</time>
      </trkpt>
      <trkpt lat="43.25063" lon="2.28024">
        <ele>143.5</ele>
        <time>2024-05-11T07:17:47Z</time>
      </trkpt>
      <trkpt lat="43.25071" lon="2.27999">
        <ele>142.8</ele>
        <time>2024-05-11T07:17:48Z</time>
      </trkpt>
      <trkpt lat="43.2508" lon="2.27973">
        <ele>144</ele>
        <time>2024-05-11T07:17:49Z</time>
      </trkpt>
      <trkpt lat="43.25088" lon="2.27947">
        <ele>142.9</ele>
        <time>2024-05-11T07:17:50Z</time>
      </trkpt>
      <trkpt lat="43.25098" lon="2.27921">
        <ele>142.5</ele>
        <time>2024-05-11T07:17:51Z</time>
      </trkpt>
      <trkpt lat="43.25107" lon="2.27895">
        <ele>142.1</ele>
        <time>2024-05-11T07:17:52Z</time>
      </trkpt>
      <trkpt lat="43.25117" lon="2.27868">
        <ele>141.3</ele>
        <time>2024-05-11T07:17:53Z</time>
      </trkpt>
      <trkpt lat="43.25127" lon="2.27842">
        <ele>141</ele>
        <time>2024-05-11T07:17:54Z</time>
      </trkpt>
      <trkpt lat="43.25137" lon="2.27816">
        <ele>141.2</ele>
        <time>2024-05-11T07:17:55Z</time>
      </trkpt>
      <trkpt lat="43.25146" lon="2.2779">
        <ele>140.5</ele>
        <time>2024-05-11T07:17:56Z</time>
      </trkpt>
      <trkpt lat="43.25156" lon="2.27764">
        <ele>140.4</ele>
        <time>2024-05-11T07:17:57Z</time>
      </trkpt>
      <trkpt lat="43.25165" lon="2.27739">
        <ele>140.4</ele>
        <time>2024-05-11T07:17:58Z</time>
      </trkpt>
      <trkpt lat="43.25174" lon="2.27714">
        <ele>140</ele>
        <time>2024-05-11T07:17:59Z</time>
      </trkpt>
      <trkpt lat="43.25183" lon="2.2769">
        <ele>139.4</ele>
        <time>2024-05-11T07:18:00Z</time>
      </trkpt>
      <trkpt lat="43.25191" lon="2.27666">
        <ele>138.6</ele>
        <time>2024-05-11T07:18:01Z</time>
      </trkpt>
      <trkpt lat="43.252" lon="2.27642">
        <ele>138.7</ele>
        <time>2024-05-11T07:18:02Z</time>
      </trkpt>
      <trkpt lat="43.25208" lon="2.27618">
        <ele>138</ele>
        <time>2024-05-11T07:18:03Z</time>
      </trkpt>
      <trkpt lat="43.25216" lon="2.27593">
        <ele>137.7</ele>
        <time>2024-05-11T07:18:04Z</time>
      </trkpt>
      <trkpt lat="43.25224" lon="2.27569">
        <ele>137.6</ele>
        <time>2024-05-11T07:18:05Z</time>
      </trkpt>
      <trkpt lat="43.25231" lon="2.27544">
        <ele>137.2</ele>
        <time>2024-05-11T07:18:06Z</time>
      </trkpt>
      <trkpt lat="43.25237" lon="2.27521">
        <ele>136.8</ele>
        <time>2024-05-11T07:18:07Z</time>
      </trkpt>
      <trkpt lat="43.25242" lon="2.27499">
        <ele>136.1</ele>
        <time>2024-05-11T07:18:08Z</time>
      </trkpt>
      <trkpt lat="43.25247" lon="2.2748">
        <ele>136</ele>
        <time>2024-05-11T07:18:09Z</time>
      </trkpt>
      <trkpt lat="43.25251" lon="2.2746">
        <ele>135.6</ele>
        <time>2024-05-11T07:18:10Z</time>
      </trkpt>
      <trkpt lat="43.25255" lon="2.2744">
        <ele>135.2</ele>
        <time>2024-05-11T07:18:11Z</time>
      </trkpt>
      <trkpt lat="43.25258" lon="2.27421">
        <ele>134.5</ele>
        <time>2024-05-11T07:18:12Z</time>
      </trkpt>
      <trkpt lat="43.25262" lon="2.27405">
        <ele>133.6</ele>
        <time>2024-05-11T07:18:13Z</time>
      </trkpt>
      <trkpt lat="43.25264" lon="2.27393">
        <ele>132.8</ele>
        <time>2024-05-11T07:18:14Z</time>
      </trkpt>
      <trkpt lat="43.25266" lon="2.2738">
        <ele>132.3</ele>
        <time>2024-05-11T07:18:15Z</time>
      </trkpt>
      <trkpt lat="43.25268" lon="2.27367">
        <ele>131.9</ele>
        <time>2024-05-11T07:18:16Z</time>
      </trkpt>
      <trkpt lat="43.2527" lon="2.27356">
        <ele>131.7</ele>
        <time>2024-05-11T07:18:17Z</time>
      </trkpt>
      <trkpt lat="43.25272" lon="2.27345">
        <ele>131.7</ele>
        <time>2024-05-11T07:18:18Z</time>
      </trkpt>
      <trkpt lat="43.25274" lon="2.27333">
        <ele>131.7</ele>
        <time>2024-05-11T07:18:19Z</time>
      </trkpt>
      <trkpt lat="43.25275" lon="2.2732">
        <ele>131.3</ele>
        <time>2024-05-11T07:18:20Z</time>
      </trkpt>
      <trkpt lat="43.25277" lon="2.27308">
        <ele>131</ele>
        <time>2024-05-11T07:18:21Z</time>
      </trkpt>
      <trkpt lat="43.25279" lon="2.27295">
        <ele>131</ele>
        <time>2024-05-11T07:18:22Z</time>
      </trkpt>
      <trkpt lat="43.25281" lon="2.27283">
        <ele>131</ele>
        <time>2024-05-11T07:18:23Z</time>
      </trkpt>
      <trkpt lat="43.25283" lon="2.2727">
        <ele>130.7</ele>
        <time>2024-05-11T07:18:24Z</time>
      </trkpt>
      <trkpt lat="43.25285" lon="2.27259">
        <ele>130.3</ele>
        <time>2024-05-11T07:18:25Z</time>
      </trkpt>
      <trkpt lat="43.25287" lon="2.27247">
        <ele>129.9</ele>
        <time>2024-05-11T07:18:26Z</time>
      </trkpt>
      <trkpt lat="43.25288" lon="2.27236">
        <ele>129.7</ele>
        <time>2024-05-11T07:18:27Z</time>
      </trkpt>
      <trkpt lat="43.2529" lon="2.27226">
        <ele>129.5</ele>
        <time>2024-05-11T07:18:28Z</time>
      </trkpt>
      <trkpt lat="43.25292" lon="2.27215">
        <ele>129.4</ele>
        <time>2024-05-11T07:18:29Z</time>
      </trkpt>
      <trkpt lat="43.25293" lon="2.27204">
        <ele>129.2</ele>
        <time>2024-05-11T07:18:30Z</time>
      </trkpt>
      <trkpt lat="43.25295" lon="2.27193">
        <ele>128.9</ele>
        <time>2024-05-11T07:18:31Z</time>
      </trkpt>
      <trkpt lat="43.25297" lon="2.27182">
        <ele>128.4</ele>
        <time>2024-05-11T07:18:32Z</time>
      </trkpt>
      <trkpt lat="43.25299" lon="2.27171">
        <ele>128</ele>
        <time>2024-05-11T07:18:33Z</time>
      </trkpt>
      <trkpt lat="43.253" lon="2.2716">
        <ele>127.6</ele>
        <time>2024-05-11T07:18:34Z</time>
      </trkpt>
      <trkpt lat="43.25302" lon="2.27149">
        <ele>127.2</ele>
        <time>2024-05-11T07:18:35Z</time>
      </trkpt>
      <trkpt lat="43.25304" lon="2.27139">
        <ele>126.9</ele>
        <time>2024-05-11T07:18:36Z</time>
      </trkpt>
      <trkpt lat="43.25306" lon="2.27128">
        <ele>126.6</ele>
        <time>2024-05-11T07:18:37Z</time>
      </trkpt>
      <trkpt lat="43.25308" lon="2.27117">
        <ele>126.3</ele>
        <time>2024-05-11T07:18:38Z</time>
      </trkpt>
      <trkpt lat="43.25309" lon="2.27106">
        <ele>125.9</ele>
        <time>2024-05-11T07:18:39Z</time>
      </trkpt>
      <trkpt lat="43.25311" lon="2.27095">
        <ele>125.5</ele>
        <time>2024-05-11T07:18:40Z</time>
      </trkpt>
      <trkpt lat="43.25313" lon="2.27084">
        <ele>125</ele>
        <time>2024-05-11T07:18:41Z</time>
      </trkpt>
      <trkpt lat="43.25315" lon="2.27071">
        <ele>124.3</ele>
        <time>2024-05-11T07:18:42Z</time>
      </trkpt>
      <trkpt lat="43.25317" lon="2.27057">
        <ele>123.5</ele>
        <time>2024-05-11T07:18:43Z</time>
      </trkpt>
      <trkpt lat="43.2532" lon="2.27043">
        <ele>123.3</ele>
        <time>2024-05-11T07:18:44Z</time>
      </trkpt>
      <trkpt lat="43.25322" lon="2.27029">
        <ele>123.2</ele>
        <time>2024-05-11T07:18:45Z</time>
      </trkpt>
      <trkpt lat="43.25325" lon="2.27015">
        <ele>122.6</ele>
        <time>2024-05-11T07:18:46Z</time>
      </trkpt>
      <trkpt lat="43.25327" lon="2.27001">
        <ele>121.8</ele>
        <time>2024-05-11T07:18:47Z</time>
      </trkpt>
      <trkpt lat="43.2533" lon="2.26987">
        <ele>121.4</ele>
        <time>2024-05-11T07:18:48Z</time>
      </trkpt>
      <trkpt lat="43.25333" lon="2.26973">
        <ele>121</ele>
        <time>2024-05-11T07:18:49Z</time>
      </trkpt>
      <trkpt lat="43.25335" lon="2.2696">
        <ele>120.2</ele>
        <time>2024-05-11T07:18:50Z</time>
      </trkpt>
      <trkpt lat="43.25336" lon="2.26951">
        <ele>119.6</ele>
        <time>2024-05-11T07:18:51Z</time>
      </trkpt>
      <trkpt lat="43.25338" lon="2.26944">
        <ele>119.2</ele>
        <time>2024-05-11T07:18:52Z</time>
      </trkpt>
      <trkpt lat="43.25339" lon="2.26939">
        <ele>119.2</ele>
        <time>2024-05-11T07:18:53Z</time>
      </trkpt>
      <trkpt lat="43.25339" lon="2.26936">
        <ele>119.2</ele>
        <time>2024-05-11T07:18:54Z</time>
      </trkpt>
      <trkpt lat="43.25339" lon="2.26935">
        <ele>119.2</ele>
        <time>2024-05-11T07:18:55Z</time>
      </trkpt>
      <trkpt lat="43.25339" lon="2.26936">
        <ele>119.2</ele>
        <time>2024-05-11T07:18:56Z</time>
      </trkpt>
      <trkpt lat="43.25339" lon="2.26936">
        <ele>119.2</ele>
        <time>2024-05-11T07:18:57Z</time>
      </trkpt>
      <trkpt lat="43.25339" lon="2.26937">
        <ele>119.2</ele>
        <time>2024-05-11T07:18:58Z</time>
      </trkpt>
      <trkpt lat="43.25339" lon="2.26937">
        <ele>119.2</ele>
        <time>2024-05-11T07:18:59Z</time>
      </trkpt>
      <trkpt lat="43.25339" lon="2.26937">
        <ele>119.2</ele>
        <time>2024-05-11T07:19:00Z</time>
      </trkpt>
      <trkpt lat="43.25339" lon="2.26937">
        <ele>119.2</ele>
        <time>2024-05-11T07:19:01Z</time>
      </trkpt>
      <trkpt lat="43.25339" lon="2.26937">
        <ele>119.2</ele>
        <time>2024-05-11T07:19:02Z</time>
      </trkpt>
      <trkpt lat="43.25339" lon="2.26937">
        <ele>119.2</ele>
        <time>2024-05-11T07:19:03Z</time>
      </trkpt>
      <trkpt lat="43.25339" lon="2.26937">
        <ele>119.2</ele>
        <time>2024-05-11T07:19:04Z</time>
      </trkpt>
      <trkpt lat="43.25339" lon="2.26937">
        <ele>119.2</ele>
        <time>2024-05-11T07:19:05Z</time>
      </trkpt>
      <trkpt lat="43.25339" lon="2.26937">
        <ele>119.2</ele>
        <time>2024-05-11T07:19:06Z</time>
      </trkpt>
      <trkpt lat="43.25339" lon="2.26937">
        <ele>119.2</ele>
        <time>2024-05-11T07:19:07Z</time>
      </trkpt>
      <trkpt lat="43.25339" lon="2.26937">
        <ele>119.2</ele>
        <time>2024-05-11T07:19:08Z</time>
      </trkpt>
      <trkpt lat="43.25339" lon="2.26937">
        <ele>119.2</ele>
        <time>2024-05-11T07:19:09Z</time>
      </trkpt>
      <trkpt lat="43.25339" lon="2.26937">
        <ele>119.2</ele>
        <time>2024-05-11T07:19:10Z</time>
      </trkpt>
      <trkpt lat="43.25339" lon="2.26937">
        <ele>119.2</ele>
        <time>2024-05-11T07:19:11Z</time>
      </trkpt>
      <trkpt lat="43.25339" lon="2.26937">
        <ele>119.2</ele>
        <time>2024-05-11T07:19:12Z</time>
      </trkpt>
      <trkpt lat="43.25339" lon="2.26937">
        <ele>119.2</ele>
        <time>2024-05-11T07:19:13Z</time>
      </trkpt>
      <trkpt lat="43.25339" lon="2.26937">
        <ele>119.2</ele>
        <time>2024-05-11T07:19:14Z</time>
      </trkpt>
      <trkpt lat="43.25339" lon="2.26937">
        <ele>119.2</ele>
        <time>2024-05-11T07:19:15Z</time>
      </trkpt>
      <trkpt lat="43.25339" lon="2.26937">
        <ele>119.2</ele>
        <time>2024-05-11T07:19:16Z</time>
      </trkpt>
      <trkpt lat="43.25339" lon="2.26937">
        <ele>119.2</ele>
        <time>2024-05-11T07:19:17Z</time>
      </trkpt>
      <trkpt lat="43.25339" lon="2.26937">
        <ele>119.2</ele>
        <time>2024-05-11T07:19:18Z</time>
      </trkpt>
      <trkpt lat="43.25339" lon="2.26937">
        <ele>119.2</ele>
        <time>2024-05-11T07:19:19Z</time>
      </trkpt>
      <trkpt lat="43.25339" lon="2.26937">
        <ele>119.2</ele>
        <time>2024-05-11T07:19:20Z</time>
      </trkpt>
      <trkpt lat="43.25339" lon="2.26937">
        <ele>119.2</ele>
        <time>2024-05-11T07:19:21Z</time>
      </trkpt>
      <trkpt lat="43.25339" lon="2.26937">
        <ele>119.2</ele>
        <time>2024-05-11T07:19:22Z</time>
      </trkpt>
      <trkpt lat="43.25339" lon="2.26937">
        <ele>119.2</ele>
        <time>2024-05-11T07:19:23Z</time>
      </trkpt>
      <trkpt lat="43.25339" lon="2.26937">
        <ele>119.2</ele>
        <time>2024-05-11T07:19:24Z</time>
      </trkpt>
      <trkpt lat="43.25339" lon="2.26937">
        <ele>119.2</ele>
        <time>2024-05-11T07:19:25Z</time>
      </trkpt>
      <trkpt lat="43.25339" lon="2.26937">
        <ele>119.2</ele>
        <time>2024-05-11T07:19:26Z</time>
      </trkpt>
      <trkpt lat="43.25339" lon="2.26937">
        <ele>119.2</ele>
        <time>2024-05-11T07:19:27Z</time>
      </trkpt>
      <trkpt lat="43.25339" lon="2.26937">
        <ele>119.2</ele>
        <time>2024-05-11T07:19:28Z</time>
      </trkpt>
      <trkpt lat="43.25339" lon="2.26937">
        <ele>119.2</ele>
        <time>2024-05-11T07:19:29Z</time>
      </trkpt>
      <trkpt lat="43.25339" lon="2.26937">
        <ele>119.2</ele>
        <time>2024-05-11T07:19:30Z</time>
      </trkpt>
      <trkpt lat="43.25339" lon="2.26937">
        <ele>119.2</ele>
        <time>2024-05-11T07:19:31Z</time>
      </trkpt>
      <trkpt lat="43.25339" lon="2.26937">
        <ele>119.2</ele>
        <time>2024-05-11T07:19:32Z</time>
      </trkpt>
      <trkpt lat="43.25339" lon="2.26937">
        <ele>119.2</ele>
        <time>2024-05-11T07:19:33Z</time>
      </trkpt>
      <trkpt lat="43.25339" lon="2.26937">
        <ele>119.2</ele>
        <time>2024-05-11T07:19:34Z</time>
      </trkpt>
      <trkpt lat="43.25339" lon="2.26937">
        <ele>119.2</ele>
        <time>2024-05-11T07:19:35Z</time>
      </trkpt>
      <trkpt lat="43.25339" lon="2.26937">
        <ele>119.2</ele>
        <time>2024-05-11T07:19:36Z</time>
      </trkpt>
      <trkpt lat="43.25339" lon="2.26937">
        <ele>119.2</ele>
        <time>2024-05-11T07:19:37Z</time>
      </trkpt>
      <trkpt lat="43.25339" lon="2.26937">
        <ele>119.2</ele>
        <time>2024-05-11T07:19:38Z</time>
      </trkpt>
      <trkpt lat="43.25339" lon="2.26937">
        <ele>119.2</ele>
        <time>2024-05-11T07:19:39Z</time>
      </trkpt>
      <trkpt lat="43.25339" lon="2.26937">
        <ele>119.2</ele>
        <time>2024-05-11T07:19:40Z</time>
      </trkpt>
      <trkpt lat="43.25339" lon="2.26937">
        <ele>119.2</ele>
        <time>2024-05-11T07:19:41Z</time>
      </trkpt>
      <trkpt lat="43.25339" lon="2.26937">
        <ele>119.2</ele>
        <time>2024-05-11T07:19:42Z</time>
      </trkpt>
      <trkpt lat="43.25339" lon="2.26937">
        <ele>119.2</ele>
        <time>2024-05-11T07:19:43Z</time>
      </trkpt>
      <trkpt lat="43.25339" lon="2.26937">
        <ele>119.2</ele>
        <time>2024-05-11T07:19:44Z</time>
      </trkpt>
      <trkpt lat="43.25339" lon="2.26937">
        <ele>119.2</ele>
        <time>2024-05-11T07:19:45Z</time>
      </trkpt>
      <trkpt lat="43.25339" lon="2.26937">
        <ele>119.2</ele>
        <time>2024-05-11T07:19:46Z</time>
      </trkpt>
      <trkpt lat="43.25339" lon="2.26937">
        <ele>119.2</ele>
        <time>2024-05-11T07:19:47Z</time>
      </trkpt>
      <trkpt lat="43.25339" lon="2.26937">
        <ele>119.2</ele>
        <time>2024-05-11T07:19:48Z</time>
      </trkpt>
      <trkpt lat="43.25339" lon="2.26937">
        <ele>119.2</ele>
        <time>2024-05-11T07:19:49Z</time>
      </trkpt>
      <trkpt lat="43.25339" lon="2.26937">
        <ele>119.2</ele>
        <time>2024-05-11T07:19:50Z</time>
      </trkpt>
      <trkpt lat="43.25339" lon="2.26937">
        <ele>119.2</ele>
        <time>2024-05-11T07:19:51Z</time>
      </trkpt>
      <trkpt lat="43.2534" lon="2.26934">
        <ele>119.2</ele>
        <time>2024-05-11T07:19:52Z</time>
      </trkpt>
      <trkpt lat="43.25341" lon="2.26927">
        <ele>119.3</ele>
        <time>2024-05-11T07:19:53Z</time>
      </trkpt>
      <trkpt lat="43.25342" lon="2.26916">
        <ele>119.3</ele>
        <time>2024-05-11T07:19:54Z</time>
      </trkpt>
      <trkpt lat="43.25344" lon="2.26905">
        <ele>118.8</ele>
        <time>2024-05-11T07:19:55Z</time>
      </trkpt>
      <trkpt lat="43.25346" lon="2.26893">
        <ele>118.2</ele>
        <time>2024-05-11T07:19:56Z</time>
      </trkpt>
      <trkpt lat="43.25348" lon="2.26881">
        <ele>117.6</ele>
        <time>2024-05-11T07:19:57Z</time>
      </trkpt>
      <trkpt lat="43.25351" lon="2.26868">
        <ele>117</ele>
        <time>2024-05-11T07:19:58Z</time>
      </trkpt>
      <trkpt lat="43.25353" lon="2.26855">
        <ele>116.6</ele>
        <time>2024-05-11T07:19:59Z</time>
      </trkpt>
      <trkpt lat="43.25355" lon="2.26841">
        <ele>116.2</ele>
        <time>2024-05-11T07:20:00Z</time>
      </trkpt>
      <trkpt lat="43.25357" lon="2.26827">
        <ele>116</ele>
        <time>2024-05-11T07:20:01Z</time>
      </trkpt>
      <trkpt lat="43.2536" lon="2.26812">
        <ele>116</ele>
        <time>2024-05-11T07:20:02Z</time>
      </trkpt>
      <trkpt lat="43.25363" lon="2.26797">
        <ele>115.5</ele>
        <time>2024-05-11T07:20:03Z</time>
      </trkpt>
      <trkpt lat="43.25365" lon="2.26782">
        <ele>114.6</ele>
        <time>2024-05-11T07:20:04Z</time>
      </trkpt>
      <trkpt lat="43.25367" lon="2.26764">
        <ele>114.3</ele>
        <time>2024-05-11T07:20:05Z</time>
      </trkpt>
      <trkpt lat="43.2537" lon="2.26748">
        <ele>114.3</ele>
        <time>2024-05-11T07:20:06Z</time>
      </trkpt>
      <trkpt lat="43.25373" lon="2.26731">
        <ele>114</ele>
        <time>2024-05-11T07:20:07Z</time>
      </trkpt>
      <trkpt lat="43.25376" lon="2.26714">
        <ele>113.6</ele>
        <time>2024-05-11T07:20:08Z</time>
      </trkpt>
      <trkpt lat="43.2538" lon="2.26698">
        <ele>112.9</ele>
        <time>2024-05-11T07:20:09Z</time>
      </trkpt>
      <trkpt lat="43.25383" lon="2.26682">
        <ele>112.4</ele>
        <time>2024-05-11T07:20:10Z</time>
      </trkpt>
      <trkpt lat="43.25387" lon="2.26666">
        <ele>112</ele>
        <time>2024-05-11T07:20:11Z</time>
      </trkpt>
      <trkpt lat="43.25392" lon="2.26649">
        <ele>112.2</ele>
        <time>2024-05-11T07:20:12Z</time>
      </trkpt>
      <trkpt lat="43.25396" lon="2.26633">
        <ele>112.3</ele>
        <time>2024-05-11T07:20:13Z</time>
      </trkpt>
      <trkpt lat="43.25399" lon="2.26617">
        <ele>112.4</ele>
        <time>2024-05-11T07:20:14Z</time>
      </trkpt>
      <trkpt lat="43.25403" lon="2.26601">
        <ele>112.1</ele>
        <time>2024-05-11T07:20:15Z</time>
      </trkpt>
      <trkpt lat="43.25407" lon="2.26585">
        <ele>111.7</ele>
        <time>2024-05-11T07:20:16Z</time>
      </trkpt>
      <trkpt lat="43.25411" lon="2.26569">
        <ele>111.3</ele>
        <time>2024-05-11T07:20:17Z</time>
      </trkpt>
      <trkpt lat="43.25415" lon="2.26554">
        <ele>110.9</ele>
        <time>2024-05-11T07:20:18Z</time>
      </trkpt>
      <trkpt lat="43.25419" lon="2.26538">
        <ele>110.6</ele>
        <time>2024-05-11T07:20:19Z</time>
      </trkpt>
      <trkpt lat="43.25424" lon="2.26523">
        <ele>110.7</ele>
        <time>2024-05-11T07:20:20Z</time>
      </trkpt>
      <trkpt lat="43.25428" lon="2.26511">
        <ele>110.7</ele>
        <time>2024-05-11T07:20:21Z</time>
      </trkpt>
      <trkpt lat="43.25432" lon="2.26503">
        <ele>110.7</ele>
        <time>2024-05-11T07:20:22Z</time>
      </trkpt>
      <trkpt lat="43.25436" lon="2.26495">
        <ele>110.6</ele>
        <time>2024-05-11T07:20:23Z</time>
      </trkpt>
      <trkpt lat="43.2544" lon="2.26488">
        <ele>110.5</ele>
        <time>2024-05-11T07:20:24Z</time>
      </trkpt>
      <trkpt lat="43.25444" lon="2.26481">
        <ele>110.3</ele>
        <time>2024-05-11T07:20:25Z</time>
      </trkpt>
      <trkpt lat="43.25448" lon="2.26474">
        <ele>110.1</ele>
        <time>2024-05-11T07:20:26Z</time>
      </trkpt>
      <trkpt lat="43.25452" lon="2.26468">
        <ele>109.9</ele>
        <time>2024-05-11T07:20:27Z</time>
      </trkpt>
      <trkpt lat="43.25457" lon="2.26462">
        <ele>109.8</ele>
        <time>2024-05-11T07:20:28Z</time>
      </trkpt>
      <trkpt lat="43.25461" lon="2.26456">
        <ele>109.8</ele>
        <time>2024-05-11T07:20:29Z</time>
      </trkpt>
      <trkpt lat="43.25466" lon="2.2645">
        <ele>109.8</ele>
        <time>2024-05-11T07:20:30Z</time>
      </trkpt>
      <trkpt lat="43.25471" lon="2.26445">
        <ele>110</ele>
        <time>2024-05-11T07:20:31Z</time>
      </trkpt>
      <trkpt lat="43.25475" lon="2.2644">
        <ele>110.1</ele>
        <time>2024-05-11T07:20:32Z</time>
      </trkpt>
      <trkpt lat="43.2548" lon="2.26435">
        <ele>110.2</ele>
        <time>2024-05-11T07:20:33Z</time>
      </trkpt>
      <trkpt lat="43.25484" lon="2.26429">
        <ele>110.2</ele>
        <time>2024-05-11T07:20:34Z</time>
      </trkpt>
      <trkpt lat="43.25488" lon="2.26425">
        <ele>110.2</ele>
        <time>2024-05-11T07:20:35Z</time>
      </trkpt>
      <trkpt lat="43.25492" lon="2.2642">
        <ele>110.1</ele>
        <time>2024-05-11T07:20:36Z</time>
      </trkpt>
      <trkpt lat="43.25498" lon="2.26415">
        <ele>110</ele>
        <time>2024-05-11T07:20:37Z</time>
      </trkpt>
      <trkpt lat="43.25503" lon="2.26409">
        <ele>110</ele>
        <time>2024-05-11T07:20:38Z</time>
      </trkpt>
      <trkpt lat="43.25508" lon="2.26403">
        <ele>110</ele>
        <time>2024-05-11T07:20:39Z</time>
      </trkpt>
      <trkpt lat="43.25512" lon="2.26399">
        <ele>110</ele>
        <time>2024-05-11T07:20:40Z</time>
      </trkpt>
      <trkpt lat="43.25515" lon="2.26396">
        <ele>110</ele>
        <time>2024-05-11T07:20:41Z</time>
      </trkpt>
      <trkpt lat="43.25517" lon="2.26394">
        <ele>110</ele>
        <time>2024-05-11T07:20:42Z</time>
      </trkpt>
      <trkpt lat="43.25518" lon="2.26392">
        <ele>110</ele>
        <time>2024-05-11T07:20:43Z</time>
      </trkpt>
      <trkpt lat="43.25518" lon="2.26391">
        <ele>110</ele>
        <time>2024-05-11T07:20:44Z</time>
      </trkpt>
      <trkpt lat="43.25518" lon="2.26391">
        <ele>110</ele>
        <time>2024-05-11T07:20:45Z</time>
      </trkpt>
      <trkpt lat="43.25518" lon="2.26391">
        <ele>110</ele>
        <time>2024-05-11T07:20:46Z</time>
      </trkpt>
      <trkpt lat="43.25518" lon="2.2639">
        <ele>110</ele>
        <time>2024-05-11T07:20:47Z</time>
      </trkpt>
      <trkpt lat="43.25519" lon="2.26388">
        <ele>110</ele>
        <time>2024-05-11T07:20:48Z</time>
      </trkpt>
      <trkpt lat="43.25521" lon="2.26382">
        <ele>109.9</ele>
        <time>2024-05-11T07:20:49Z</time>
      </trkpt>
      <trkpt lat="43.25523" lon="2.26372">
        <ele>109.9</ele>
        <time>2024-05-11T07:20:50Z</time>
      </trkpt>
      <trkpt lat="43.25526" lon="2.26359">
        <ele>110</ele>
        <time>2024-05-11T07:20:51Z</time>
      </trkpt>
      <trkpt lat="43.25529" lon="2.26346">
        <ele>110.5</ele>
        <time>2024-05-11T07:20:52Z</time>
      </trkpt>
      <trkpt lat="43.25532" lon="2.26332">
        <ele>110.5</ele>
        <time>2024-05-11T07:20:53Z</time>
      </trkpt>
      <trkpt lat="43.25536" lon="2.26314">
        <ele>107.3</ele>
        <time>2024-05-11T07:20:54Z</time>
      </trkpt>
      <trkpt lat="43.25541" lon="2.26294">
        <ele>106.2</ele>
        <time>2024-05-11T07:20:55Z</time>
      </trkpt>
      <trkpt lat="43.25546" lon="2.26274">
        <ele>107.2</ele>
        <time>2024-05-11T07:20:56Z</time>
      </trkpt>
      <trkpt lat="43.25552" lon="2.26254">
        <ele>110.3</ele>
        <time>2024-05-11T07:20:57Z</time>
      </trkpt>
      <trkpt lat="43.25558" lon="2.26232">
        <ele>110.1</ele>
        <time>2024-05-11T07:20:58Z</time>
      </trkpt>
      <trkpt lat="43.25563" lon="2.26211">
        <ele>109</ele>
        <time>2024-05-11T07:20:59Z</time>
      </trkpt>
      <trkpt lat="43.25569" lon="2.26191">
        <ele>108.4</ele>
        <time>2024-05-11T07:21:00Z</time>
      </trkpt>
      <trkpt lat="43.25575" lon="2.26171">
        <ele>107.5</ele>
        <time>2024-05-11T07:21:01Z</time>
      </trkpt>
      <trkpt lat="43.25581" lon="2.26149">
        <ele>108.8</ele>
        <time>2024-05-11T07:21:02Z</time>
      </trkpt>
      <trkpt lat="43.25586" lon="2.26126">
        <ele>109</ele>
        <time>2024-05-11T07:21:03Z</time>
      </trkpt>
      <trkpt lat="43.25592" lon="2.26104">
        <ele>107.8</ele>
        <time>2024-05-11T07:21:04Z</time>
      </trkpt>
      <trkpt lat="43.25599" lon="2.2608">
        <ele>107.8</ele>
        <time>2024-05-11T07:21:05Z</time>
      </trkpt>
      <trkpt lat="43.25606" lon="2.26056">
        <ele>110.4</ele>
        <time>2024-05-11T07:21:06Z</time>
      </trkpt>
      <trkpt lat="43.25613" lon="2.26033">
        <ele>110</ele>
        <time>2024-05-11T07:21:07Z</time>
      </trkpt>
      <trkpt lat="43.25621" lon="2.26011">
        <ele>109.3</ele>
        <time>2024-05-11T07:21:08Z</time>
      </trkpt>
      <trkpt lat="43.25631" lon="2.25991">
        <ele>110.2</ele>
        <time>2024-05-11T07:21:09Z</time>
      </trkpt>
      <trkpt lat="43.25641" lon="2.25974">
        <ele>110.8</ele>
        <time>2024-05-11T07:21:10Z</time>
      </trkpt>
      <trkpt lat="43.25649" lon="2.25958">
        <ele>112.5</ele>
        <time>2024-05-11T07:21:11Z</time>
      </trkpt>
      <trkpt lat="43.25658" lon="2.25944">
        <ele>113.3</ele>
        <time>2024-05-11T07:21:12Z</time>
      </trkpt>
      <trkpt lat="43.25666" lon="2.2593">
        <ele>112.6</ele>
        <time>2024-05-11T07:21:13Z</time>
      </trkpt>
      <trkpt lat="43.25674" lon="2.25915">
        <ele>112.4</ele>
        <time>2024-05-11T07:21:14Z</time>
      </trkpt>
      <trkpt lat="43.25681" lon="2.25898">
        <ele>113.4</ele>
        <time>2024-05-11T07:21:15Z</time>
      </trkpt>
      <trkpt lat="43.25688" lon="2.25881">
        <ele>113.5</ele>
        <time>2024-05-11T07:21:16Z</time>
      </trkpt>
      <trkpt lat="43.25695" lon="2.25862">
        <ele>112.9</ele>
        <time>2024-05-11T07:21:17Z</time>
      </trkpt>
      <trkpt lat="43.25701" lon="2.25842">
        <ele>113.9</ele>
        <time>2024-05-11T07:21:18Z</time>
      </trkpt>
      <trkpt lat="43.25706" lon="2.25823">
        <ele>114</ele>
        <time>2024-05-11T07:21:19Z</time>
      </trkpt>
      <trkpt lat="43.25711" lon="2.25803">
        <ele>114.1</ele>
        <time>2024-05-11T07:21:20Z</time>
      </trkpt>
      <trkpt lat="43.25716" lon="2.25784">
        <ele>113.7</ele>
        <time>2024-05-11T07:21:21Z</time>
      </trkpt>
      <trkpt lat="43.25721" lon="2.25764">
        <ele>114.1</ele>
        <time>2024-05-11T07:21:22Z</time>
      </trkpt>
      <trkpt lat="43.25726" lon="2.25746">
        <ele>114.6</ele>
        <time>2024-05-11T07:21:23Z</time>
      </trkpt>
      <trkpt lat="43.25731" lon="2.25728">
        <ele>114.3</ele>
        <time>2024-05-11T07:21:24Z</time>
      </trkpt>
      <trkpt lat="43.25735" lon="2.25711">
        <ele>114.3</ele>
        <time>2024-05-11T07:21:25Z</time>
      </trkpt>
      <trkpt lat="43.25738" lon="2.25694">
        <ele>114.6</ele>
        <time>2024-05-11T07:21:26Z</time>
      </trkpt>
      <trkpt lat="43.25742" lon="2.25679">
        <ele>114.7</ele>
        <time>2024-05-11T07:21:27Z</time>
      </trkpt>
      <trkpt lat="43.25747" lon="2.25664">
        <ele>114.7</ele>
        <time>2024-05-11T07:21:28Z</time>
      </trkpt>
      <trkpt lat="43.2575" lon="2.25649">
        <ele>115.3</ele>
        <time>2024-05-11T07:21:29Z</time>
      </trkpt>
      <trkpt lat="43.25754" lon="2.25633">
        <ele>115.5</ele>
        <time>2024-05-11T07:21:30Z</time>
      </trkpt>
      <trkpt lat="43.25757" lon="2.25617">
        <ele>115.2</ele>
        <time>2024-05-11T07:21:31Z</time>
      </trkpt>
      <trkpt lat="43.25761" lon="2.256">
        <ele>115.7</ele>
        <time>2024-05-11T07:21:32Z</time>
      </trkpt>
      <trkpt lat="43.25765" lon="2.25582">
        <ele>116.4</ele>
        <time>2024-05-11T07:21:33Z</time>
      </trkpt>
      <trkpt lat="43.25769" lon="2.25564">
        <ele>116.8</ele>
        <time>2024-05-11T07:21:34Z</time>
      </trkpt>
      <trkpt lat="43.25773" lon="2.25544">
        <ele>117.4</ele>
        <time>2024-05-11T07:21:35Z</time>
      </trkpt>
      <trkpt lat="43.25777" lon="2.25524">
        <ele>118.1</ele>
        <time>2024-05-11T07:21:36Z</time>
      </trkpt>
      <trkpt lat="43.25781" lon="2.25503">
        <ele>117.6</ele>
        <time>2024-05-11T07:21:37Z</time>
      </trkpt>
      <trkpt lat="43.25784" lon="2.25481">
        <ele>118.5</ele>
        <time>2024-05-11T07:21:38Z</time>
      </trkpt>
      <trkpt lat="43.25787" lon="2.2546">
        <ele>119.4</ele>
        <time>2024-05-11T07:21:39Z</time>
      </trkpt>
      <trkpt lat="43.2579" lon="2.25438">
        <ele>119.9</ele>
        <time>2024-05-11T07:21:40Z</time>
      </trkpt>
      <trkpt lat="43.25792" lon="2.25417">
        <ele>119.9</ele>
        <time>2024-05-11T07:21:41Z</time>
      </trkpt>
      <trkpt lat="43.25794" lon="2.25396">
        <ele>121</ele>
        <time>2024-05-11T07:21:42Z</time>
      </trkpt>
      <trkpt lat="43.25795" lon="2.25375">
        <ele>121.7</ele>
        <time>2024-05-11T07:21:43Z</time>
      </trkpt>
      <trkpt lat="43.25797" lon="2.25354">
        <ele>122</ele>
        <time>2024-05-11T07:21:44Z</time>
      </trkpt>
      <trkpt lat="43.25799" lon="2.25334">
        <ele>122</ele>
        <time>2024-05-11T07:21:45Z</time>
      </trkpt>
      <trkpt lat="43.25801" lon="2.25314">
        <ele>122.6</ele>
        <time>2024-05-11T07:21:46Z</time>
      </trkpt>
      <trkpt lat="43.25803" lon="2.25293">
        <ele>122.9</ele>
        <time>2024-05-11T07:21:47Z</time>
      </trkpt>
      <trkpt lat="43.25805" lon="2.2527">
        <ele>123</ele>
        <time>2024-05-11T07:21:48Z</time>
      </trkpt>
      <trkpt lat="43.25807" lon="2.25249">
        <ele>122.9</ele>
        <time>2024-05-11T07:21:49Z</time>
      </trkpt>
      <trkpt lat="43.2581" lon="2.25227">
        <ele>123</ele>
        <time>2024-05-11T07:21:50Z</time>
      </trkpt>
      <trkpt lat="43.25813" lon="2.25204">
        <ele>123</ele>
        <time>2024-05-11T07:21:51Z</time>
      </trkpt>
      <trkpt lat="43.25817" lon="2.25181">
        <ele>123</ele>
        <time>2024-05-11T07:21:52Z</time>
      </trkpt>
      <trkpt lat="43.25821" lon="2.25158">
        <ele>123</ele>
        <time>2024-05-11T07:21:53Z</time>
      </trkpt>
      <trkpt lat="43.25825" lon="2.25137">
        <ele>123</ele>
        <time>2024-05-11T07:21:54Z</time>
      </trkpt>
      <trkpt lat="43.25829" lon="2.25117">
        <ele>123.1</ele>
        <time>2024-05-11T07:21:55Z</time>
      </trkpt>
      <trkpt lat="43.25833" lon="2.25101">
        <ele>123.4</ele>
        <time>2024-05-11T07:21:56Z</time>
      </trkpt>
      <trkpt lat="43.25836" lon="2.25087">
        <ele>123.8</ele>
        <time>2024-05-11T07:21:57Z</time>
      </trkpt>
      <trkpt lat="43.2584" lon="2.25073">
        <ele>123.8</ele>
        <time>2024-05-11T07:21:58Z</time>
      </trkpt>
      <trkpt lat="43.25843" lon="2.25061">
        <ele>123.7</ele>
        <time>2024-05-11T07:21:59Z</time>
      </trkpt>
      <trkpt lat="43.25846" lon="2.25049">
        <ele>123.7</ele>
        <time>2024-05-11T07:22:00Z</time>
      </trkpt>
      <trkpt lat="43.2585" lon="2.25038">
        <ele>123.8</ele>
        <time>2024-05-11T07:22:01Z</time>
      </trkpt>
      <trkpt lat="43.25853" lon="2.25026">
        <ele>124</ele>
        <time>2024-05-11T07:22:02Z</time>
      </trkpt>
      <trkpt lat="43.25856" lon="2.25013">
        <ele>124</ele>
        <time>2024-05-11T07:22:03Z</time>
      </trkpt>
      <trkpt lat="43.2586" lon="2.25">
        <ele>124</ele>
        <time>2024-05-11T07:22:04Z</time>
      </trkpt>
      <trkpt lat="43.25863" lon="2.24987">
        <ele>124</ele>
        <time>2024-05-11T07:22:05Z</time>
      </trkpt>
      <trkpt lat="43.25867" lon="2.24975">
        <ele>124</ele>
        <time>2024-05-11T07:22:06Z</time>
      </trkpt>
      <trkpt lat="43.2587" lon="2.24962">
        <ele>124.1</ele>
        <time>2024-05-11T07:22:07Z</time>
      </trkpt>
      <trkpt lat="43.25874" lon="2.24952">
        <ele>124.3</ele>
        <time>2024-05-11T07:22:08Z</time>
      </trkpt>
      <trkpt lat="43.25877" lon="2.24944">
        <ele>124.6</ele>
        <time>2024-05-11T07:22:09Z</time>
      </trkpt>
      <trkpt lat="43.2588" lon="2.24937">
        <ele>124.7</ele>
        <time>2024-05-11T07:22:10Z</time>
      </trkpt>
      <trkpt lat="43.25883" lon="2.24932">
        <ele>124.8</ele>
        <time>2024-05-11T07:22:11Z</time>
      </trkpt>
      <trkpt lat="43.25885" lon="2.24929">
        <ele>124.9</ele>
        <time>2024-05-11T07:22:12Z</time>
      </trkpt>
      <trkpt lat="43.25887" lon="2.24926">
        <ele>124.9</ele>
        <time>2024-05-11T07:22:13Z</time>
      </trkpt>
      <trkpt lat="43.25887" lon="2.24926">
        <ele>124.9</ele>
        <time>2024-05-11T07:22:14Z</time>
      </trkpt>
      <trkpt lat="43.25887" lon="2.24926">
        <ele>124.9</ele>
        <time>2024-05-11T07:22:15Z</time>
      </trkpt>
      <trkpt lat="43.25887" lon="2.24926">
        <ele>124.9</ele>
        <time>2024-05-11T07:22:16Z</time>
      </trkpt>
      <trkpt lat="43.25888" lon="2.24926">
        <ele>125</ele>
        <time>2024-05-11T07:22:17Z</time>
      </trkpt>
      <trkpt lat="43.25888" lon="2.24925">
        <ele>125</ele>
        <time>2024-05-11T07:22:18Z</time>
      </trkpt>
      <trkpt lat="43.25888" lon="2.24925">
        <ele>125</ele>
        <time>2024-05-11T07:22:19Z</time>
      </trkpt>
      <trkpt lat="43.25888" lon="2.24925">
        <ele>125</ele>
        <time>2024-05-11T07:22:20Z</time>
      </trkpt>
      <trkpt lat="43.2589" lon="2.24923">
        <ele>125</ele>
        <time>2024-05-11T07:22:21Z</time>
      </trkpt>
      <trkpt lat="43.25894" lon="2.24921">
        <ele>125</ele>
        <time>2024-05-11T07:22:22Z</time>
      </trkpt>
      <trkpt lat="43.25899" lon="2.24917">
        <ele>125</ele>
        <time>2024-05-11T07:22:23Z</time>
      </trkpt>
      <trkpt lat="43.25905" lon="2.24909">
        <ele>125</ele>
        <time>2024-05-11T07:22:24Z</time>
      </trkpt>
      <trkpt lat="43.25913" lon="2.249">
        <ele>125</ele>
        <time>2024-05-11T07:22:25Z</time>
      </trkpt>
      <trkpt lat="43.25923" lon="2.24891">
        <ele>124.8</ele>
        <time>2024-05-11T07:22:26Z</time>
      </trkpt>
      <trkpt lat="43.25935" lon="2.24882">
        <ele>124.3</ele>
        <time>2024-05-11T07:22:27Z</time>
      </trkpt>
      <trkpt lat="43.25947" lon="2.24871">
        <ele>124</ele>
        <time>2024-05-11T07:22:28Z</time>
      </trkpt>
      <trkpt lat="43.2596" lon="2.24859">
        <ele>124</ele>
        <time>2024-05-11T07:22:29Z</time>
      </trkpt>
      <trkpt lat="43.25973" lon="2.24843">
        <ele>124</ele>
        <time>2024-05-11T07:22:30Z</time>
      </trkpt>
      <trkpt lat="43.25986" lon="2.24827">
        <ele>124.1</ele>
        <time>2024-05-11T07:22:31Z</time>
      </trkpt>
      <trkpt lat="43.25999" lon="2.2481">
        <ele>124.8</ele>
        <time>2024-05-11T07:22:32Z</time>
      </trkpt>
      <trkpt lat="43.26011" lon="2.24794">
        <ele>124.4</ele>
        <time>2024-05-11T07:22:33Z</time>
      </trkpt>
      <trkpt lat="43.26022" lon="2.2478">
        <ele>124</ele>
        <time>2024-05-11T07:22:34Z</time>
      </trkpt>
      <trkpt lat="43.26033" lon="2.24767">
        <ele>124.2</ele>
        <time>2024-05-11T07:22:35Z</time>
      </trkpt>
      <trkpt lat="43.26042" lon="2.24755">
        <ele>124.5</ele>
        <time>2024-05-11T07:22:36Z</time>
      </trkpt>
      <trkpt lat="43.26051" lon="2.24744">
        <ele>124.8</ele>
        <time>2024-05-11T07:22:37Z</time>
      </trkpt>
      <trkpt lat="43.26059" lon="2.24734">
        <ele>125</ele>
        <time>2024-05-11T07:22:38Z</time>
      </trkpt>
      <trkpt lat="43.26067" lon="2.24724">
        <ele>125</ele>
        <time>2024-05-11T07:22:39Z</time>
      </trkpt>
      <trkpt lat="43.26075" lon="2.24714">
        <ele>124.9</ele>
        <time>2024-05-11T07:22:40Z</time>
      </trkpt>
      <trkpt lat="43.26083" lon="2.24704">
        <ele>125</ele>
        <time>2024-05-11T07:22:41Z</time>
      </trkpt>
      <trkpt lat="43.26091" lon="2.24693">
        <ele>124.7</ele>
        <time>2024-05-11T07:22:42Z</time>
      </trkpt>
      <trkpt lat="43.26099" lon="2.24682">
        <ele>124.7</ele>
        <time>2024-05-11T07:22:43Z</time>
      </trkpt>
      <trkpt lat="43.26108" lon="2.24671">
        <ele>124.9</ele>
        <time>2024-05-11T07:22:44Z</time>
      </trkpt>
      <trkpt lat="43.26118" lon="2.24659">
        <ele>125.2</ele>
        <time>2024-05-11T07:22:45Z</time>
      </trkpt>
      <trkpt lat="43.26127" lon="2.24647">
        <ele>125.2</ele>
        <time>2024-05-11T07:22:46Z</time>
      </trkpt>
      <trkpt lat="43.26136" lon="2.24636">
        <ele>125</ele>
        <time>2024-05-11T07:22:47Z</time>
      </trkpt>
      <trkpt lat="43.26144" lon="2.24625">
        <ele>125.1</ele>
        <time>2024-05-11T07:22:48Z</time>
      </trkpt>
      <trkpt lat="43.26153" lon="2.24614">
        <ele>125.1</ele>
        <time>2024-05-11T07:22:49Z</time>
      </trkpt>
      <trkpt lat="43.2616" lon="2.24605">
        <ele>125</ele>
        <time>2024-05-11T07:22:50Z</time>
      </trkpt>
      <trkpt lat="43.26167" lon="2.24595">
        <ele>125</ele>
        <time>2024-05-11T07:22:51Z</time>
      </trkpt>
      <trkpt lat="43.26174" lon="2.24585">
        <ele>125</ele>
        <time>2024-05-11T07:22:52Z</time>
      </trkpt>
      <trkpt lat="43.26181" lon="2.24576">
        <ele>125.1</ele>
        <time>2024-05-11T07:22:53Z</time>
      </trkpt>
      <trkpt lat="43.26189" lon="2.24566">
        <ele>125.5</ele>
        <time>2024-05-11T07:22:54Z</time>
      </trkpt>
      <trkpt lat="43.26196" lon="2.24556">
        <ele>125.9</ele>
        <time>2024-05-11T07:22:55Z</time>
      </trkpt>
      <trkpt lat="43.26204" lon="2.24546">
        <ele>125.5</ele>
        <time>2024-05-11T07:22:56Z</time>
      </trkpt>
      <trkpt lat="43.26212" lon="2.24535">
        <ele>125.6</ele>
        <time>2024-05-11T07:22:57Z</time>
      </trkpt>
      <trkpt lat="43.26221" lon="2.24523">
        <ele>125.8</ele>
        <time>2024-05-11T07:22:58Z</time>
      </trkpt>
      <trkpt lat="43.26231" lon="2.24511">
        <ele>125.4</ele>
        <time>2024-05-11T07:22:59Z</time>
      </trkpt>
      <trkpt lat="43.26241" lon="2.24498">
        <ele>125.1</ele>
        <time>2024-05-11T07:23:00Z</time>
      </trkpt>
      <trkpt lat="43.26252" lon="2.24484">
        <ele>125.6</ele>
        <time>2024-05-11T07:23:01Z</time>
      </trkpt>
      <trkpt lat="43.26264" lon="2.24469">
        <ele>125.6</ele>
        <time>2024-05-11T07:23:02Z</time>
      </trkpt>
      <trkpt lat="43.26275" lon="2.24455">
        <ele>125.7</ele>
        <time>2024-05-11T07:23:03Z</time>
      </trkpt>
      <trkpt lat="43.26287" lon="2.24441">
        <ele>126</ele>
        <time>2024-05-11T07:23:04Z</time>
      </trkpt>
      <trkpt lat="43.26298" lon="2.24427">
        <ele>126</ele>
        <time>2024-05-11T07:23:05Z</time>
      </trkpt>
      <trkpt lat="43.26311" lon="2.24412">
        <ele>126</ele>
        <time>2024-05-11T07:23:06Z</time>
      </trkpt>
      <trkpt lat="43.26324" lon="2.24398">
        <ele>126</ele>
        <time>2024-05-11T07:23:07Z</time>
      </trkpt>
      <trkpt lat="43.26337" lon="2.24385">
        <ele>126</ele>
        <time>2024-05-11T07:23:08Z</time>
      </trkpt>
      <trkpt lat="43.2635" lon="2.24372">
        <ele>126</ele>
        <time>2024-05-11T07:23:09Z</time>
      </trkpt>
      <trkpt lat="43.26362" lon="2.2436">
        <ele>126</ele>
        <time>2024-05-11T07:23:10Z</time>
      </trkpt>
      <trkpt lat="43.26375" lon="2.24348">
        <ele>126</ele>
        <time>2024-05-11T07:23:11Z</time>
      </trkpt>
      <trkpt lat="43.26388" lon="2.24336">
        <ele>126</ele>
        <time>2024-05-11T07:23:12Z</time>
      </trkpt>
      <trkpt lat="43.264" lon="2.24323">
        <ele>126</ele>
        <time>2024-05-11T07:23:13Z</time>
      </trkpt>
      <trkpt lat="43.26414" lon="2.24311">
        <ele>126</ele>
        <time>2024-05-11T07:23:14Z</time>
      </trkpt>
      <trkpt lat="43.26427" lon="2.24298">
        <ele>126</ele>
        <time>2024-05-11T07:23:15Z</time>
      </trkpt>
      <trkpt lat="43.26442" lon="2.24285">
        <ele>126</ele>
        <time>2024-05-11T07:23:16Z</time>
      </trkpt>
      <trkpt lat="43.26456" lon="2.24272">
        <ele>126.1</ele>
        <time>2024-05-11T07:23:17Z</time>
      </trkpt>
      <trkpt lat="43.2647" lon="2.24259">
        <ele>126.6</ele>
        <time>2024-05-11T07:23:18Z</time>
      </trkpt>
      <trkpt lat="43.26485" lon="2.24245">
        <ele>126.5</ele>
        <time>2024-05-11T07:23:19Z</time>
      </trkpt>
      <trkpt lat="43.265" lon="2.24232">
        <ele>126.6</ele>
        <time>2024-05-11T07:23:20Z</time>
      </trkpt>
      <trkpt lat="43.26514" lon="2.24219">
        <ele>127</ele>
        <time>2024-05-11T07:23:21Z</time>
      </trkpt>
      <trkpt lat="43.26528" lon="2.24206">
        <ele>127</ele>
        <time>2024-05-11T07:23:22Z</time>
      </trkpt>
      <trkpt lat="43.26542" lon="2.24193">
        <ele>127</ele>
        <time>2024-05-11T07:23:23Z</time>
      </trkpt>
      <trkpt lat="43.26556" lon="2.2418">
        <ele>127</ele>
        <time>2024-05-11T07:23:24Z</time>
      </trkpt>
      <trkpt lat="43.26572" lon="2.24167">
        <ele>127</ele>
        <time>2024-05-11T07:23:25Z</time>
      </trkpt>
      <trkpt lat="43.26586" lon="2.24153">
        <ele>127</ele>
        <time>2024-05-11T07:23:26Z</time>
      </trkpt>
      <trkpt lat="43.26602" lon="2.24139">
        <ele>127.7</ele>
        <time>2024-05-11T07:23:27Z</time>
      </trkpt>
      <trkpt lat="43.26618" lon="2.24124">
        <ele>127.6</ele>
        <time>2024-05-11T07:23:28Z</time>
      </trkpt>
      <trkpt lat="43.26634" lon="2.24109">
        <ele>127.8</ele>
        <time>2024-05-11T07:23:29Z</time>
      </trkpt>
      <trkpt lat="43.26651" lon="2.24092">
        <ele>128</ele>
        <time>2024-05-11T07:23:30Z</time>
      </trkpt>
      <trkpt lat="43.2667" lon="2.24074">
        <ele>128</ele>
        <time>2024-05-11T07:23:31Z</time>
      </trkpt>
      <trkpt lat="43.2669" lon="2.24054">
        <ele>128.8</ele>
        <time>2024-05-11T07:23:32Z</time>
      </trkpt>
      <trkpt lat="43.2671" lon="2.24036">
        <ele>128.7</ele>
        <time>2024-05-11T07:23:33Z</time>
      </trkpt>
      <trkpt lat="43.2673" lon="2.24019">
        <ele>129.3</ele>
        <time>2024-05-11T07:23:34Z</time>
      </trkpt>
      <trkpt lat="43.26748" lon="2.24003">
        <ele>129.9</ele>
        <time>2024-05-11T07:23:35Z</time>
      </trkpt>
      <trkpt lat="43.26766" lon="2.23987">
        <ele>129.8</ele>
        <time>2024-05-11T07:23:36Z</time>
      </trkpt>
      <trkpt lat="43.26784" lon="2.23971">
        <ele>130</ele>
        <time>2024-05-11T07:23:37Z</time>
      </trkpt>
      <trkpt lat="43.26802" lon="2.23955">
        <ele>130.5</ele>
        <time>2024-05-11T07:23:38Z</time>
      </trkpt>
      <trkpt lat="43.26818" lon="2.23939">
        <ele>130.9</ele>
        <time>2024-05-11T07:23:39Z</time>
      </trkpt>
      <trkpt lat="43.26834" lon="2.23925">
        <ele>131</ele>
        <time>2024-05-11T07:23:40Z</time>
      </trkpt>
      <trkpt lat="43.26849" lon="2.23912">
        <ele>130.9</ele>
        <time>2024-05-11T07:23:41Z</time>
      </trkpt>
      <trkpt lat="43.26864" lon="2.23899">
        <ele>131.1</ele>
        <time>2024-05-11T07:23:42Z</time>
      </trkpt>
      <trkpt lat="43.26878" lon="2.23886">
        <ele>131.5</ele>
        <time>2024-05-11T07:23:43Z</time>
      </trkpt>
      <trkpt lat="43.26891" lon="2.23874">
        <ele>131.6</ele>
        <time>2024-05-11T07:23:44Z</time>
      </trkpt>
      <trkpt lat="43.26905" lon="2.23861">
        <ele>132.2</ele>
        <time>2024-05-11T07:23:45Z</time>
      </trkpt>
      <trkpt lat="43.26918" lon="2.23849">
        <ele>133.1</ele>
        <time>2024-05-11T07:23:46Z</time>
      </trkpt>
      <trkpt lat="43.26932" lon="2.23836">
        <ele>134.1</ele>
        <time>2024-05-11T07:23:47Z</time>
      </trkpt>
      <trkpt lat="43.26946" lon="2.23823">
        <ele>134.7</ele>
        <time>2024-05-11T07:23:48Z</time>
      </trkpt>
      <trkpt lat="43.26961" lon="2.23809">
        <ele>135.2</ele>
        <time>2024-05-11T07:23:49Z</time>
      </trkpt>
      <trkpt lat="43.26976" lon="2.23795">
        <ele>135.8</ele>
        <time>2024-05-11T07:23:50Z</time>
      </trkpt>
      <trkpt lat="43.26992" lon="2.23781">
        <ele>136.5</ele>
        <time>2024-05-11T07:23:51Z</time>
      </trkpt>
      <trkpt lat="43.27007" lon="2.23767">
        <ele>137</ele>
        <time>2024-05-11T07:23:52Z</time>
      </trkpt>
      <trkpt lat="43.27023" lon="2.23752">
        <ele>137.7</ele>
        <time>2024-05-11T07:23:53Z</time>
      </trkpt>
      <trkpt lat="43.27039" lon="2.23738">
        <ele>137.9</ele>
        <time>2024-05-11T07:23:54Z</time>
      </trkpt>
      <trkpt lat="43.27054" lon="2.23725">
        <ele>138.8</ele>
        <time>2024-05-11T07:23:55Z</time>
      </trkpt>
      <trkpt lat="43.27068" lon="2.23712">
        <ele>139.2</ele>
        <time>2024-05-11T07:23:56Z</time>
      </trkpt>
      <trkpt lat="43.27082" lon="2.237">
        <ele>139.9</ele>
        <time>2024-05-11T07:23:57Z</time>
      </trkpt>
      <trkpt lat="43.27095" lon="2.23688">
        <ele>140.4</ele>
        <time>2024-05-11T07:23:58Z</time>
      </trkpt>
      <trkpt lat="43.27107" lon="2.23676">
        <ele>140.9</ele>
        <time>2024-05-11T07:23:59Z</time>
      </trkpt>
      <trkpt lat="43.2712" lon="2.23664">
        <ele>141.6</ele>
        <time>2024-05-11T07:24:00Z</time>
      </trkpt>
      <trkpt lat="43.27133" lon="2.23652">
        <ele>142.6</ele>
        <time>2024-05-11T07:24:01Z</time>
      </trkpt>
      <trkpt lat="43.27147" lon="2.2364">
        <ele>143.3</ele>
        <time>2024-05-11T07:24:02Z</time>
      </trkpt>
      <trkpt lat="43.27161" lon="2.23627">
        <ele>143.7</ele>
        <time>2024-05-11T07:24:03Z</time>
      </trkpt>
      <trkpt lat="43.27175" lon="2.23614">
        <ele>144.3</ele>
        <time>2024-05-11T07:24:04Z</time>
      </trkpt>
      <trkpt lat="43.27189" lon="2.236">
        <ele>144.3</ele>
        <time>2024-05-11T07:24:05Z</time>
      </trkpt>
      <trkpt lat="43.27203" lon="2.23587">
        <ele>144.4</ele>
        <time>2024-05-11T07:24:06Z</time>
      </trkpt>
      <trkpt lat="43.27217" lon="2.23574">
        <ele>144.7</ele>
        <time>2024-05-11T07:24:07Z</time>
      </trkpt>
      <trkpt lat="43.27231" lon="2.23562">
        <ele>145.3</ele>
        <time>2024-05-11T07:24:08Z</time>
      </trkpt>
      <trkpt lat="43.27244" lon="2.2355">
        <ele>145.7</ele>
        <time>2024-05-11T07:24:09Z</time>
      </trkpt>
      <trkpt lat="43.27258" lon="2.23538">
        <ele>146.3</ele>
        <time>2024-05-11T07:24:10Z</time>
      </trkpt>
      <trkpt lat="43.27271" lon="2.23525">
        <ele>146.7</ele>
        <time>2024-05-11T07:24:11Z</time>
      </trkpt>
      <trkpt lat="43.27286" lon="2.23511">
        <ele>147.5</ele>
        <time>2024-05-11T07:24:12Z</time>
      </trkpt>
      <trkpt lat="43.273" lon="2.23498">
        <ele>148.5</ele>
        <time>2024-05-11T07:24:13Z</time>
      </trkpt>
      <trkpt lat="43.27316" lon="2.23484">
        <ele>149</ele>
        <time>2024-05-11T07:24:14Z</time>
      </trkpt>
      <trkpt lat="43.27331" lon="2.2347">
        <ele>149.8</ele>
        <time>2024-05-11T07:24:15Z</time>
      </trkpt>
      <trkpt lat="43.27347" lon="2.23456">
        <ele>150.2</ele>
        <time>2024-05-11T07:24:16Z</time>
      </trkpt>
      <trkpt lat="43.27362" lon="2.23441">
        <ele>150.8</ele>
        <time>2024-05-11T07:24:17Z</time>
      </trkpt>
      <trkpt lat="43.27379" lon="2.23426">
        <ele>151.2</ele>
        <time>2024-05-11T07:24:18Z</time>
      </trkpt>
      <trkpt lat="43.27395" lon="2.23411">
        <ele>152.4</ele>
        <time>2024-05-11T07:24:19Z</time>
      </trkpt>
      <trkpt lat="43.27412" lon="2.23395">
        <ele>153.1</ele>
        <time>2024-05-11T07:24:20Z</time>
      </trkpt>
      <trkpt lat="43.27428" lon="2.2338">
        <ele>153.8</ele>
        <time>2024-05-11T07:24:21Z</time>
      </trkpt>
      <trkpt lat="43.27443" lon="2.23366">
        <ele>154.2</ele>
        <time>2024-05-11T07:24:22Z</time>
      </trkpt>
      <trkpt lat="43.27458" lon="2.23351">
        <ele>155.1</ele>
        <time>2024-05-11T07:24:23Z</time>
      </trkpt>
      <trkpt lat="43.27473" lon="2.23338">
        <ele>155.4</ele>
        <time>2024-05-11T07:24:24Z</time>
      </trkpt>
      <trkpt lat="43.27488" lon="2.23325">
        <ele>156.4</ele>
        <time>2024-05-11T07:24:25Z</time>
      </trkpt>
      <trkpt lat="43.27503" lon="2.23312">
        <ele>156.6</ele>
        <time>2024-05-11T07:24:26Z</time>
      </trkpt>
      <trkpt lat="43.27518" lon="2.23301">
        <ele>155.9</ele>
        <time>2024-05-11T07:24:27Z</time>
      </trkpt>
      <trkpt lat="43.27532" lon="2.23291">
        <ele>156.4</ele>
        <time>2024-05-11T07:24:28Z</time>
      </trkpt>
      <trkpt lat="43.27547" lon="2.23282">
        <ele>156.5</ele>
        <time>2024-05-11T07:24:29Z</time>
      </trkpt>
      <trkpt lat="43.27561" lon="2.23273">
        <ele>156.2</ele>
        <time>2024-05-11T07:24:30Z</time>
      </trkpt>
      <trkpt lat="43.27575" lon="2.23265">
        <ele>156.6</ele>
        <time>2024-05-11T07:24:31Z</time>
      </trkpt>
      <trkpt lat="43.27587" lon="2.23258">
        <ele>156.7</ele>
        <time>2024-05-11T07:24:32Z</time>
      </trkpt>
      <trkpt lat="43.27598" lon="2.23252">
        <ele>156.7</ele>
        <time>2024-05-11T07:24:33Z</time>
      </trkpt>
      <trkpt lat="43.27609" lon="2.23246">
        <ele>156.6</ele>
        <time>2024-05-11T07:24:34Z</time>
      </trkpt>
      <trkpt lat="43.27619" lon="2.23241">
        <ele>156.6</ele>
        <time>2024-05-11T07:24:35Z</time>
      </trkpt>
      <trkpt lat="43.27629" lon="2.23235">
        <ele>156.6</ele>
        <time>2024-05-11T07:24:36Z</time>
      </trkpt>
      <trkpt lat="43.27639" lon="2.23229">
        <ele>156.5</ele>
        <time>2024-05-11T07:24:37Z</time>
      </trkpt>
      <trkpt lat="43.27648" lon="2.23224">
        <ele>156.5</ele>
        <time>2024-05-11T07:24:38Z</time>
      </trkpt>
      <trkpt lat="43.27657" lon="2.23219">
        <ele>156.3</ele>
        <time>2024-05-11T07:24:39Z</time>
      </trkpt>
      <trkpt lat="43.27666" lon="2.23214">
        <ele>156.1</ele>
        <time>2024-05-11T07:24:40Z</time>
      </trkpt>
      <trkpt lat="43.27675" lon="2.23209">
        <ele>156.2</ele>
        <time>2024-05-11T07:24:41Z</time>
      </trkpt>
      <trkpt lat="43.27685" lon="2.23203">
        <ele>156.2</ele>
        <time>2024-05-11T07:24:42Z</time>
      </trkpt>
      <trkpt lat="43.27694" lon="2.23198">
        <ele>156.4</ele>
        <time>2024-05-11T07:24:43Z</time>
      </trkpt>
      <trkpt lat="43.27703" lon="2.23193">
        <ele>156.5</ele>
        <time>2024-05-11T07:24:44Z</time>
      </trkpt>
      <trkpt lat="43.27713" lon="2.23188">
        <ele>156.7</ele>
        <time>2024-05-11T07:24:45Z</time>
      </trkpt>
      <trkpt lat="43.27722" lon="2.23183">
        <ele>156.8</ele>
        <time>2024-05-11T07:24:46Z</time>
      </trkpt>
      <trkpt lat="43.27731" lon="2.23177">
        <ele>156.6</ele>
        <time>2024-05-11T07:24:47Z</time>
      </trkpt>
      <trkpt lat="43.2774" lon="2.23173">
        <ele>156.8</ele>
        <time>2024-05-11T07:24:48Z</time>
      </trkpt>
      <trkpt lat="43.27749" lon="2.23168">
        <ele>157</ele>
        <time>2024-05-11T07:24:49Z</time>
      </trkpt>
      <trkpt lat="43.27757" lon="2.23164">
        <ele>157.1</ele>
        <time>2024-05-11T07:24:50Z</time>
      </trkpt>
      <trkpt lat="43.27764" lon="2.2316">
        <ele>157.3</ele>
        <time>2024-05-11T07:24:51Z</time>
      </trkpt>
      <trkpt lat="43.27772" lon="2.23156">
        <ele>157.6</ele>
        <time>2024-05-11T07:24:52Z</time>
      </trkpt>
      <trkpt lat="43.27779" lon="2.23151">
        <ele>158.1</ele>
        <time>2024-05-11T07:24:53Z</time>
      </trkpt>
      <trkpt lat="43.27787" lon="2.23146">
        <ele>158.6</ele>
        <time>2024-05-11T07:24:54Z</time>
      </trkpt>
      <trkpt lat="43.27795" lon="2.23142">
        <ele>159.2</ele>
        <time>2024-05-11T07:24:55Z</time>
      </trkpt>
      <trkpt lat="43.27802" lon="2.23139">
        <ele>159.7</ele>
        <time>2024-05-11T07:24:56Z</time>
      </trkpt>
      <trkpt lat="43.2781" lon="2.23137">
        <ele>160</ele>
        <time>2024-05-11T07:24:57Z</time>
      </trkpt>
      <trkpt lat="43.27818" lon="2.23136">
        <ele>160.3</ele>
        <time>2024-05-11T07:24:58Z</time>
      </trkpt>
      <trkpt lat="43.27826" lon="2.23137">
        <ele>160.7</ele>
        <time>2024-05-11T07:24:59Z</time>
      </trkpt>
      <trkpt lat="43.27832" lon="2.23139">
        <ele>161</ele>
        <time>2024-05-11T07:25:00Z</time>
      </trkpt>
      <trkpt lat="43.27839" lon="2.23142">
        <ele>161.4</ele>
        <time>2024-05-11T07:25:01Z</time>
      </trkpt>
      <trkpt lat="43.27845" lon="2.23144">
        <ele>161.8</ele>
        <time>2024-05-11T07:25:02Z</time>
      </trkpt>
      <trkpt lat="43.27849" lon="2.23146">
        <ele>162.1</ele>
        <time>2024-05-11T07:25:03Z</time>
      </trkpt>
      <trkpt lat="43.27852" lon="2.23148">
        <ele>162.3</ele>
        <time>2024-05-11T07:25:04Z</time>
      </trkpt>
      <trkpt lat="43.27855" lon="2.2315">
        <ele>162.6</ele>
        <time>2024-05-11T07:25:05Z</time>
      </trkpt>
      <trkpt lat="43.27856" lon="2.23151">
        <ele>162.6</ele>
        <time>2024-05-11T07:25:06Z</time>
      </trkpt>
      <trkpt lat="43.27857" lon="2.23152">
        <ele>162.7</ele>
        <time>2024-05-11T07:25:07Z</time>
      </trkpt>
      <trkpt lat="43.27856" lon="2.23152">
        <ele>162.6</ele>
        <time>2024-05-11T07:25:08Z</time>
      </trkpt>
      <trkpt lat="43.27856" lon="2.23152">
        <ele>162.6</ele>
        <time>2024-05-11T07:25:09Z</time>
      </trkpt>
      <trkpt lat="43.27856" lon="2.23152">
        <ele>162.6</ele>
        <time>2024-05-11T07:25:10Z</time>
      </trkpt>
      <trkpt lat="43.27857" lon="2.23152">
        <ele>162.7</ele>
        <time>2024-05-11T07:25:11Z</time>
      </trkpt>
      <trkpt lat="43.27857" lon="2.23153">
        <ele>162.7</ele>
        <time>2024-05-11T07:25:12Z</time>
      </trkpt>
      <trkpt lat="43.27858" lon="2.23154">
        <ele>162.8</ele>
        <time>2024-05-11T07:25:13Z</time>
      </trkpt>
      <trkpt lat="43.27861" lon="2.23159">
        <ele>163</ele>
        <time>2024-05-11T07:25:14Z</time>
      </trkpt>
      <trkpt lat="43.27866" lon="2.23166">
        <ele>163.4</ele>
        <time>2024-05-11T07:25:15Z</time>
      </trkpt>
      <trkpt lat="43.27872" lon="2.23171">
        <ele>163.8</ele>
        <time>2024-05-11T07:25:16Z</time>
      </trkpt>
      <trkpt lat="43.27879" lon="2.23172">
        <ele>164.3</ele>
        <time>2024-05-11T07:25:17Z</time>
      </trkpt>
      <trkpt lat="43.27886" lon="2.2317">
        <ele>164.8</ele>
        <time>2024-05-11T07:25:18Z</time>
      </trkpt>
      <trkpt lat="43.27892" lon="2.23164">
        <ele>165.3</ele>
        <time>2024-05-11T07:25:19Z</time>
      </trkpt>
      <trkpt lat="43.27895" lon="2.23155">
        <ele>165.8</ele>
        <time>2024-05-11T07:25:20Z</time>
      </trkpt>
      <trkpt lat="43.27897" lon="2.23146">
        <ele>166.1</ele>
        <time>2024-05-11T07:25:21Z</time>
      </trkpt>
      <trkpt lat="43.27898" lon="2.23136">
        <ele>166.3</ele>
        <time>2024-05-11T07:25:22Z</time>
      </trkpt>
      <trkpt lat="43.279" lon="2.23126">
        <ele>166.1</ele>
        <time>2024-05-11T07:25:23Z</time>
      </trkpt>
      <trkpt lat="43.27903" lon="2.23119">
        <ele>166.2</ele>
        <time>2024-05-11T07:25:24Z</time>
      </trkpt>
      <trkpt lat="43.27906" lon="2.23115">
        <ele>166.3</ele>
        <time>2024-05-11T07:25:25Z</time>
      </trkpt>
      <trkpt lat="43.27908" lon="2.23113">
        <ele>166.4</ele>
        <time>2024-05-11T07:25:26Z</time>
      </trkpt>
      <trkpt lat="43.2791" lon="2.23112">
        <ele>166.5</ele>
        <time>2024-05-11T07:25:27Z</time>
      </trkpt>
      <trkpt lat="43.27912" lon="2.23111">
        <ele>166.7</ele>
        <time>2024-05-11T07:25:28Z</time>
      </trkpt>
      <trkpt lat="43.27915" lon="2.2311">
        <ele>166.9</ele>
        <time>2024-05-11T07:25:29Z</time>
      </trkpt>
      <trkpt lat="43.27918" lon="2.23109">
        <ele>167.1</ele>
        <time>2024-05-11T07:25:30Z</time>
      </trkpt>
      <trkpt lat="43.27922" lon="2.23107">
        <ele>167.4</ele>
        <time>2024-05-11T07:25:31Z</time>
      </trkpt>
      <trkpt lat="43.27927" lon="2.23105">
        <ele>167.7</ele>
        <time>2024-05-11T07:25:32Z</time>
      </trkpt>
      <trkpt lat="43.27932" lon="2.23103">
        <ele>167.9</ele>
        <time>2024-05-11T07:25:33Z</time>
      </trkpt>
      <trkpt lat="43.27937" lon="2.23099">
        <ele>168.1</ele>
        <time>2024-05-11T07:25:34Z</time>
      </trkpt>
      <trkpt lat="43.27942" lon="2.23094">
        <ele>168.3</ele>
        <time>2024-05-11T07:25:35Z</time>
      </trkpt>
      <trkpt lat="43.27947" lon="2.23088">
        <ele>168.4</ele>
        <time>2024-05-11T07:25:36Z</time>
      </trkpt>
      <trkpt lat="43.27952" lon="2.2308">
        <ele>168.9</ele>
        <time>2024-05-11T07:25:37Z</time>
      </trkpt>
      <trkpt lat="43.27957" lon="2.23069">
        <ele>169.6</ele>
        <time>2024-05-11T07:25:38Z</time>
      </trkpt>
      <trkpt lat="43.27962" lon="2.23058">
        <ele>170.2</ele>
        <time>2024-05-11T07:25:39Z</time>
      </trkpt>
      <trkpt lat="43.27967" lon="2.23048">
        <ele>170.6</ele>
        <time>2024-05-11T07:25:40Z</time>
      </trkpt>
      <trkpt lat="43.27973" lon="2.23039">
        <ele>171</ele>
        <time>2024-05-11T07:25:41Z</time>
      </trkpt>
      <trkpt lat="43.2798" lon="2.23031">
        <ele>171.3</ele>
        <time>2024-05-11T07:25:42Z</time>
      </trkpt>
      <trkpt lat="43.27988" lon="2.23024">
        <ele>171.6</ele>
        <time>2024-05-11T07:25:43Z</time>
      </trkpt>
      <trkpt lat="43.27996" lon="2.23018">
        <ele>171.9</ele>
        <time>2024-05-11T07:25:44Z</time>
      </trkpt>
      <trkpt lat="43.28003" lon="2.23013">
        <ele>172</ele>
        <time>2024-05-11T07:25:45Z</time>
      </trkpt>
      <trkpt lat="43.2801" lon="2.23007">
        <ele>171.8</ele>
        <time>2024-05-11T07:25:46Z</time>
      </trkpt>
      <trkpt lat="43.28016" lon="2.23002">
        <ele>171.5</ele>
        <time>2024-05-11T07:25:47Z</time>
      </trkpt>
      <trkpt lat="43.28022" lon="2.22997">
        <ele>171.1</ele>
        <time>2024-05-11T07:25:48Z</time>
      </trkpt>
      <trkpt lat="43.28029" lon="2.22991">
        <ele>170.7</ele>
        <time>2024-05-11T07:25:49Z</time>
      </trkpt>
      <trkpt lat="43.28036" lon="2.22985">
        <ele>170.6</ele>
        <time>2024-05-11T07:25:50Z</time>
      </trkpt>
      <trkpt lat="43.28045" lon="2.22978">
        <ele>171.1</ele>
        <time>2024-05-11T07:25:51Z</time>
      </trkpt>
      <trkpt lat="43.28053" lon="2.22971">
        <ele>171.6</ele>
        <time>2024-05-11T07:25:52Z</time>
      </trkpt>
      <trkpt lat="43.28062" lon="2.22963">
        <ele>170.7</ele>
        <time>2024-05-11T07:25:53Z</time>
      </trkpt>
      <trkpt lat="43.28072" lon="2.22954">
        <ele>170.7</ele>
        <time>2024-05-11T07:25:54Z</time>
      </trkpt>
      <trkpt lat="43.2808" lon="2.22945">
        <ele>171.4</ele>
        <time>2024-05-11T07:25:55Z</time>
      </trkpt>
      <trkpt lat="43.28088" lon="2.22934">
        <ele>171.4</ele>
        <time>2024-05-11T07:25:56Z</time>
      </trkpt>
      <trkpt lat="43.28094" lon="2.22923">
        <ele>171.3</ele>
        <time>2024-05-11T07:25:57Z</time>
      </trkpt>
      <trkpt lat="43.28099" lon="2.22908">
        <ele>171.4</ele>
        <time>2024-05-11T07:25:58Z</time>
      </trkpt>
      <trkpt lat="43.28103" lon="2.22892">
        <ele>171.8</ele>
        <time>2024-05-11T07:25:59Z</time>
      </trkpt>
      <trkpt lat="43.28107" lon="2.22874">
        <ele>172.8</ele>
        <time>2024-05-11T07:26:00Z</time>
      </trkpt>
      <trkpt lat="43.28112" lon="2.22854">
        <ele>173.2</ele>
        <time>2024-05-11T07:26:01Z</time>
      </trkpt>
      <trkpt lat="43.28118" lon="2.22837">
        <ele>172.2</ele>
        <time>2024-05-11T07:26:02Z</time>
      </trkpt>
      <trkpt lat="43.28125" lon="2.22822">
        <ele>172.5</ele>
        <time>2024-05-11T07:26:03Z</time>
      </trkpt>
      <trkpt lat="43.28134" lon="2.22809">
        <ele>173.3</ele>
        <time>2024-05-11T07:26:04Z</time>
      </trkpt>
      <trkpt lat="43.28145" lon="2.22799">
        <ele>173.6</ele>
        <time>2024-05-11T07:26:05Z</time>
      </trkpt>
      <trkpt lat="43.28157" lon="2.22789">
        <ele>173.8</ele>
        <time>2024-05-11T07:26:06Z</time>
      </trkpt>
      <trkpt lat="43.28169" lon="2.2278">
        <ele>174.6</ele>
        <time>2024-05-11T07:26:07Z</time>
      </trkpt>
      <trkpt lat="43.28182" lon="2.22772">
        <ele>175.5</ele>
        <time>2024-05-11T07:26:08Z</time>
      </trkpt>
      <trkpt lat="43.28193" lon="2.22766">
        <ele>176.1</ele>
        <time>2024-05-11T07:26:09Z</time>
      </trkpt>
      <trkpt lat="43.28205" lon="2.2276">
        <ele>176.3</ele>
        <time>2024-05-11T07:26:10Z</time>
      </trkpt>
      <trkpt lat="43.28216" lon="2.22755">
        <ele>176.4</ele>
        <time>2024-05-11T07:26:11Z</time>
      </trkpt>
      <trkpt lat="43.28229" lon="2.22753">
        <ele>176.8</ele>
        <time>2024-05-11T07:26:12Z</time>
      </trkpt>
      <trkpt lat="43.28242" lon="2.22751">
        <ele>176.9</ele>
        <time>2024-05-11T07:26:13Z</time>
      </trkpt>
      <trkpt lat="43.28255" lon="2.22751">
        <ele>177.3</ele>
        <time>2024-05-11T07:26:14Z</time>
      </trkpt>
      <trkpt lat="43.28269" lon="2.22751">
        <ele>177.8</ele>
        <time>2024-05-11T07:26:15Z</time>
      </trkpt>
      <trkpt lat="43.28282" lon="2.22752">
        <ele>178.2</ele>
        <time>2024-05-11T07:26:16Z</time>
      </trkpt>
      <trkpt lat="43.28295" lon="2.22753">
        <ele>178.4</ele>
        <time>2024-05-11T07:26:17Z</time>
      </trkpt>
      <trkpt lat="43.28307" lon="2.22754">
        <ele>178.5</ele>
        <time>2024-05-11T07:26:18Z</time>
      </trkpt>
      <trkpt lat="43.28319" lon="2.22754">
        <ele>178.3</ele>
        <time>2024-05-11T07:26:19Z</time>
      </trkpt>
      <trkpt lat="43.28332" lon="2.22751">
        <ele>177.3</ele>
        <time>2024-05-11T07:26:20Z</time>
      </trkpt>
      <trkpt lat="43.28347" lon="2.22746">
        <ele>176.1</ele>
        <time>2024-05-11T07:26:21Z</time>
      </trkpt>
      <trkpt lat="43.28364" lon="2.22741">
        <ele>174.7</ele>
        <time>2024-05-11T07:26:22Z</time>
      </trkpt>
      <trkpt lat="43.28382" lon="2.22735">
        <ele>173.8</ele>
        <time>2024-05-11T07:26:23Z</time>
      </trkpt>
      <trkpt lat="43.28399" lon="2.22728">
        <ele>173.5</ele>
        <time>2024-05-11T07:26:24Z</time>
      </trkpt>
      <trkpt lat="43.28415" lon="2.22722">
        <ele>174.7</ele>
        <time>2024-05-11T07:26:25Z</time>
      </trkpt>
      <trkpt lat="43.2843" lon="2.22717">
        <ele>173.8</ele>
        <time>2024-05-11T07:26:26Z</time>
      </trkpt>
      <trkpt lat="43.28441" lon="2.22712">
        <ele>172.7</ele>
        <time>2024-05-11T07:26:27Z</time>
      </trkpt>
      <trkpt lat="43.28452" lon="2.22709">
        <ele>172.7</ele>
        <time>2024-05-11T07:26:28Z</time>
      </trkpt>
      <trkpt lat="43.28462" lon="2.22705">
        <ele>172.6</ele>
        <time>2024-05-11T07:26:29Z</time>
      </trkpt>
      <trkpt lat="43.28472" lon="2.22702">
        <ele>173.1</ele>
        <time>2024-05-11T07:26:30Z</time>
      </trkpt>
      <trkpt lat="43.28483" lon="2.227">
        <ele>173.1</ele>
        <time>2024-05-11T07:26:31Z</time>
      </trkpt>
      <trkpt lat="43.28494" lon="2.22698">
        <ele>172.9</ele>
        <time>2024-05-11T07:26:32Z</time>
      </trkpt>
      <trkpt lat="43.28507" lon="2.22695">
        <ele>171.9</ele>
        <time>2024-05-11T07:26:33Z</time>
      </trkpt>
      <trkpt lat="43.28519" lon="2.22693">
        <ele>170.7</ele>
        <time>2024-05-11T07:26:34Z</time>
      </trkpt>
      <trkpt lat="43.2853" lon="2.22692">
        <ele>170.1</ele>
        <time>2024-05-11T07:26:35Z</time>
      </trkpt>
      <trkpt lat="43.28542" lon="2.22692">
        <ele>170.2</ele>
        <time>2024-05-11T07:26:36Z</time>
      </trkpt>
      <trkpt lat="43.28554" lon="2.22691">
        <ele>169.9</ele>
        <time>2024-05-11T07:26:37Z</time>
      </trkpt>
      <trkpt lat="43.28566" lon="2.22692">
        <ele>169.8</ele>
        <time>2024-05-11T07:26:38Z</time>
      </trkpt>
      <trkpt lat="43.28579" lon="2.22694">
        <ele>170</ele>
        <time>2024-05-11T07:26:39Z</time>
      </trkpt>
      <trkpt lat="43.28592" lon="2.22697">
        <ele>170.3</ele>
        <time>2024-05-11T07:26:40Z</time>
      </trkpt>
      <trkpt lat="43.28605" lon="2.22699">
        <ele>170</ele>
        <time>2024-05-11T07:26:41Z</time>
      </trkpt>
      <trkpt lat="43.28618" lon="2.22702">
        <ele>169.6</ele>
        <time>2024-05-11T07:26:42Z</time>
      </trkpt>
      <trkpt lat="43.2863" lon="2.22706">
        <ele>169.4</ele>
        <time>2024-05-11T07:26:43Z</time>
      </trkpt>
      <trkpt lat="43.28643" lon="2.2271">
        <ele>168.7</ele>
        <time>2024-05-11T07:26:44Z</time>
      </trkpt>
      <trkpt lat="43.28655" lon="2.22715">
        <ele>168</ele>
        <time>2024-05-11T07:26:45Z</time>
      </trkpt>
      <trkpt lat="43.28667" lon="2.22721">
        <ele>167.6</ele>
        <time>2024-05-11T07:26:46Z</time>
      </trkpt>
      <trkpt lat="43.28678" lon="2.22728">
        <ele>167.1</ele>
        <time>2024-05-11T07:26:47Z</time>
      </trkpt>
      <trkpt lat="43.28689" lon="2.22737">
        <ele>166.7</ele>
        <time>2024-05-11T07:26:48Z</time>
      </trkpt>
      <trkpt lat="43.287" lon="2.22746">
        <ele>166.3</ele>
        <time>2024-05-11T07:26:49Z</time>
      </trkpt>
      <trkpt lat="43.2871" lon="2.22755">
        <ele>166.3</ele>
        <time>2024-05-11T07:26:50Z</time>
      </trkpt>
      <trkpt lat="43.28719" lon="2.22763">
        <ele>166.1</ele>
        <time>2024-05-11T07:26:51Z</time>
      </trkpt>
      <trkpt lat="43.28728" lon="2.22769">
        <ele>165.7</ele>
        <time>2024-05-11T07:26:52Z</time>
      </trkpt>
      <trkpt lat="43.28738" lon="2.22773">
        <ele>165.3</ele>
        <time>2024-05-11T07:26:53Z</time>
      </trkpt>
      <trkpt lat="43.28749" lon="2.22774">
        <ele>164.3</ele>
        <time>2024-05-11T07:26:54Z</time>
      </trkpt>
      <trkpt lat="43.28759" lon="2.22771">
        <ele>164.8</ele>
        <time>2024-05-11T07:26:55Z</time>
      </trkpt>
      <trkpt lat="43.28769" lon="2.22764">
        <ele>164.8</ele>
        <time>2024-05-11T07:26:56Z</time>
      </trkpt>
      <trkpt lat="43.28779" lon="2.22752">
        <ele>163.8</ele>
        <time>2024-05-11T07:26:57Z</time>
      </trkpt>
      <trkpt lat="43.28788" lon="2.22739">
        <ele>164.3</ele>
        <time>2024-05-11T07:26:58Z</time>
      </trkpt>
      <trkpt lat="43.28794" lon="2.22724">
        <ele>163.2</ele>
        <time>2024-05-11T07:26:59Z</time>
      </trkpt>
      <trkpt lat="43.288" lon="2.2271">
        <ele>162.6</ele>
        <time>2024-05-11T07:27:00Z</time>
      </trkpt>
      <trkpt lat="43.28806" lon="2.22697">
        <ele>162.4</ele>
        <time>2024-05-11T07:27:01Z</time>
      </trkpt>
      <trkpt lat="43.28812" lon="2.22683">
        <ele>162.1</ele>
        <time>2024-05-11T07:27:02Z</time>
      </trkpt>
      <trkpt lat="43.28817" lon="2.2267">
        <ele>161.5</ele>
        <time>2024-05-11T07:27:03Z</time>
      </trkpt>
      <trkpt lat="43.28823" lon="2.22656">
        <ele>161.1</ele>
        <time>2024-05-11T07:27:04Z</time>
      </trkpt>
      <trkpt lat="43.2883" lon="2.22643">
        <ele>160.9</ele>
        <time>2024-05-11T07:27:05Z</time>
      </trkpt>
      <trkpt lat="43.28837" lon="2.2263">
        <ele>160.7</ele>
        <time>2024-05-11T07:27:06Z</time>
      </trkpt>
      <trkpt lat="43.28846" lon="2.22618">
        <ele>161</ele>
        <time>2024-05-11T07:27:07Z</time>
      </trkpt>
      <trkpt lat="43.28856" lon="2.22607">
        <ele>160.8</ele>
        <time>2024-05-11T07:27:08Z</time>
      </trkpt>
      <trkpt lat="43.28866" lon="2.22598">
        <ele>159.8</ele>
        <time>2024-05-11T07:27:09Z</time>
      </trkpt>
      <trkpt lat="43.28877" lon="2.22589">
        <ele>159.3</ele>
        <time>2024-05-11T07:27:10Z</time>
      </trkpt>
      <trkpt lat="43.28888" lon="2.22581">
        <ele>159</ele>
        <time>2024-05-11T07:27:11Z</time>
      </trkpt>
      <trkpt lat="43.28899" lon="2.22573">
        <ele>159</ele>
        <time>2024-05-11T07:27:12Z</time>
      </trkpt>
      <trkpt lat="43.2891" lon="2.22566">
        <ele>159.6</ele>
        <time>2024-05-11T07:27:13Z</time>
      </trkpt>
      <trkpt lat="43.28923" lon="2.2256">
        <ele>159.6</ele>
        <time>2024-05-11T07:27:14Z</time>
      </trkpt>
      <trkpt lat="43.28936" lon="2.22555">
        <ele>157.8</ele>
        <time>2024-05-11T07:27:15Z</time>
      </trkpt>
      <trkpt lat="43.2895" lon="2.22552">
        <ele>156.9</ele>
        <time>2024-05-11T07:27:16Z</time>
      </trkpt>
      <trkpt lat="43.28964" lon="2.2255">
        <ele>156</ele>
        <time>2024-05-11T07:27:17Z</time>
      </trkpt>
      <trkpt lat="43.28977" lon="2.22548">
        <ele>155.2</ele>
        <time>2024-05-11T07:27:18Z</time>
      </trkpt>
      <trkpt lat="43.2899" lon="2.22546">
        <ele>154.5</ele>
        <time>2024-05-11T07:27:19Z</time>
      </trkpt>
      <trkpt lat="43.29004" lon="2.22545">
        <ele>154.2</ele>
        <time>2024-05-11T07:27:20Z</time>
      </trkpt>
      <trkpt lat="43.29018" lon="2.22543">
        <ele>154</ele>
        <time>2024-05-11T07:27:21Z</time>
      </trkpt>
      <trkpt lat="43.29031" lon="2.2254">
        <ele>154</ele>
        <time>2024-05-11T07:27:22Z</time>
      </trkpt>
      <trkpt lat="43.29044" lon="2.22536">
        <ele>154.4</ele>
        <time>2024-05-11T07:27:23Z</time>
      </trkpt>
      <trkpt lat="43.29056" lon="2.22528">
        <ele>154</ele>
        <time>2024-05-11T07:27:24Z</time>
      </trkpt>
      <trkpt lat="43.29068" lon="2.22518">
        <ele>153</ele>
        <time>2024-05-11T07:27:25Z</time>
      </trkpt>
      <trkpt lat="43.2908" lon="2.22505">
        <ele>152.8</ele>
        <time>2024-05-11T07:27:26Z</time>
      </trkpt>
      <trkpt lat="43.29092" lon="2.22494">
        <ele>152.7</ele>
        <time>2024-05-11T07:27:27Z</time>
      </trkpt>
      <trkpt lat="43.29105" lon="2.22483">
        <ele>152.2</ele>
        <time>2024-05-11T07:27:28Z</time>
      </trkpt>
      <trkpt lat="43.29118" lon="2.22472">
        <ele>151.9</ele>
        <time>2024-05-11T07:27:29Z</time>
      </trkpt>
      <trkpt lat="43.29131" lon="2.22462">
        <ele>151.2</ele>
        <time>2024-05-11T07:27:30Z</time>
      </trkpt>
      <trkpt lat="43.29144" lon="2.2245">
        <ele>151.1</ele>
        <time>2024-05-11T07:27:31Z</time>
      </trkpt>
      <trkpt lat="43.29156" lon="2.22436">
        <ele>150</ele>
        <time>2024-05-11T07:27:32Z</time>
      </trkpt>
      <trkpt lat="43.29167" lon="2.22422">
        <ele>150</ele>
        <time>2024-05-11T07:27:33Z</time>
      </trkpt>
      <trkpt lat="43.29177" lon="2.22408">
        <ele>149.6</ele>
        <time>2024-05-11T07:27:34Z</time>
      </trkpt>
      <trkpt lat="43.29189" lon="2.22396">
        <ele>149.5</ele>
        <time>2024-05-11T07:27:35Z</time>
      </trkpt>
      <trkpt lat="43.29201" lon="2.22386">
        <ele>149.2</ele>
        <time>2024-05-11T07:27:36Z</time>
      </trkpt>
      <trkpt lat="43.29214" lon="2.2238">
        <ele>149.4</ele>
        <time>2024-05-11T07:27:37Z</time>
      </trkpt>
      <trkpt lat="43.29228" lon="2.22378">
        <ele>149.4</ele>
        <time>2024-05-11T07:27:38Z</time>
      </trkpt>
      <trkpt lat="43.29242" lon="2.22376">
        <ele>148.2</ele>
        <time>2024-05-11T07:27:39Z</time>
      </trkpt>
      <trkpt lat="43.29256" lon="2.22374">
        <ele>147.3</ele>
        <time>2024-05-11T07:27:40Z</time>
      </trkpt>
      <trkpt lat="43.2927" lon="2.22372">
        <ele>147</ele>
        <time>2024-05-11T07:27:41Z</time>
      </trkpt>
      <trkpt lat="43.29284" lon="2.22372">
        <ele>147.1</ele>
        <time>2024-05-11T07:27:42Z</time>
      </trkpt>
      <trkpt lat="43.29297" lon="2.22371">
        <ele>146.8</ele>
        <time>2024-05-11T07:27:43Z</time>
      </trkpt>
      <trkpt lat="43.29312" lon="2.22374">
        <ele>146.8</ele>
        <time>2024-05-11T07:27:44Z</time>
      </trkpt>
      <trkpt lat="43.29325" lon="2.22377">
        <ele>145.8</ele>
        <time>2024-05-11T07:27:45Z</time>
      </trkpt>
      <trkpt lat="43.29339" lon="2.22382">
        <ele>145.3</ele>
        <time>2024-05-11T07:27:46Z</time>
      </trkpt>
      <trkpt lat="43.29353" lon="2.22385">
        <ele>144.6</ele>
        <time>2024-05-11T07:27:47Z</time>
      </trkpt>
      <trkpt lat="43.29367" lon="2.22387">
        <ele>144.3</ele>
        <time>2024-05-11T07:27:48Z</time>
      </trkpt>
      <trkpt lat="43.29382" lon="2.22387">
        <ele>144.3</ele>
        <time>2024-05-11T07:27:49Z</time>
      </trkpt>
      <trkpt lat="43.29396" lon="2.22385">
        <ele>144.1</ele>
        <time>2024-05-11T07:27:50Z</time>
      </trkpt>
      <trkpt lat="43.2941" lon="2.22381">
        <ele>143.5</ele>
        <time>2024-05-11T07:27:51Z</time>
      </trkpt>
      <trkpt lat="43.29425" lon="2.22376">
        <ele>143.1</ele>
        <time>2024-05-11T07:27:52Z</time>
      </trkpt>
      <trkpt lat="43.29438" lon="2.2237">
        <ele>142.6</ele>
        <time>2024-05-11T07:27:53Z</time>
      </trkpt>
      <trkpt lat="43.29452" lon="2.22365">
        <ele>142</ele>
        <time>2024-05-11T07:27:54Z</time>
      </trkpt>
      <trkpt lat="43.29465" lon="2.2236">
        <ele>141.3</ele>
        <time>2024-05-11T07:27:55Z</time>
      </trkpt>
      <trkpt lat="43.29477" lon="2.22355">
        <ele>141.3</ele>
        <time>2024-05-11T07:27:56Z</time>
      </trkpt>
      <trkpt lat="43.29488" lon="2.2235">
        <ele>141.6</ele>
        <time>2024-05-11T07:27:57Z</time>
      </trkpt>
      <trkpt lat="43.295" lon="2.22344">
        <ele>141.7</ele>
        <time>2024-05-11T07:27:58Z</time>
      </trkpt>
      <trkpt lat="43.29511" lon="2.2234">
        <ele>140.6</ele>
        <time>2024-05-11T07:27:59Z</time>
      </trkpt>
      <trkpt lat="43.29523" lon="2.22334">
        <ele>139.9</ele>
        <time>2024-05-11T07:28:00Z</time>
      </trkpt>
      <trkpt lat="43.29535" lon="2.22329">
        <ele>139.2</ele>
        <time>2024-05-11T07:28:01Z</time>
      </trkpt>
      <trkpt lat="43.29547" lon="2.22324">
        <ele>138.4</ele>
        <time>2024-05-11T07:28:02Z</time>
      </trkpt>
      <trkpt lat="43.29559" lon="2.22318">
        <ele>138</ele>
        <time>2024-05-11T07:28:03Z</time>
      </trkpt>
      <trkpt lat="43.29572" lon="2.22312">
        <ele>137.9</ele>
        <time>2024-05-11T07:28:04Z</time>
      </trkpt>
      <trkpt lat="43.29585" lon="2.22306">
        <ele>138.1</ele>
        <time>2024-05-11T07:28:05Z</time>
      </trkpt>
      <trkpt lat="43.29598" lon="2.22301">
        <ele>138.1</ele>
        <time>2024-05-11T07:28:06Z</time>
      </trkpt>
      <trkpt lat="43.29612" lon="2.22295">
        <ele>137.9</ele>
        <time>2024-05-11T07:28:07Z</time>
      </trkpt>
      <trkpt lat="43.29626" lon="2.22289">
        <ele>137.6</ele>
        <time>2024-05-11T07:28:08Z</time>
      </trkpt>
      <trkpt lat="43.29642" lon="2.22284">
        <ele>137.1</ele>
        <time>2024-05-11T07:28:09Z</time>
      </trkpt>
      <trkpt lat="43.29657" lon="2.22278">
        <ele>136.7</ele>
        <time>2024-05-11T07:28:10Z</time>
      </trkpt>
      <trkpt lat="43.29671" lon="2.22272">
        <ele>136.6</ele>
        <time>2024-05-11T07:28:11Z</time>
      </trkpt>
      <trkpt lat="43.29686" lon="2.22265">
        <ele>136.4</ele>
        <time>2024-05-11T07:28:12Z</time>
      </trkpt>
      <trkpt lat="43.297" lon="2.22256">
        <ele>136.4</ele>
        <time>2024-05-11T07:28:13Z</time>
      </trkpt>
      <trkpt lat="43.29713" lon="2.22246">
        <ele>136.5</ele>
        <time>2024-05-11T07:28:14Z</time>
      </trkpt>
      <trkpt lat="43.29726" lon="2.22236">
        <ele>136.6</ele>
        <time>2024-05-11T07:28:15Z</time>
      </trkpt>
      <trkpt lat="43.29739" lon="2.22224">
        <ele>137.2</ele>
        <time>2024-05-11T07:28:16Z</time>
      </trkpt>
      <trkpt lat="43.29752" lon="2.22214">
        <ele>137.4</ele>
        <time>2024-05-11T07:28:17Z</time>
      </trkpt>
      <trkpt lat="43.29763" lon="2.22204">
        <ele>137</ele>
        <time>2024-05-11T07:28:18Z</time>
      </trkpt>
      <trkpt lat="43.29775" lon="2.22195">
        <ele>136.9</ele>
        <time>2024-05-11T07:28:19Z</time>
      </trkpt>
      <trkpt lat="43.29787" lon="2.22185">
        <ele>137.2</ele>
        <time>2024-05-11T07:28:20Z</time>
      </trkpt>
      <trkpt lat="43.29798" lon="2.22176">
        <ele>137.2</ele>
        <time>2024-05-11T07:28:21Z</time>
      </trkpt>
      <trkpt lat="43.29809" lon="2.22166">
        <ele>137.1</ele>
        <time>2024-05-11T07:28:22Z</time>
      </trkpt>
      <trkpt lat="43.29819" lon="2.22158">
        <ele>137.3</ele>
        <time>2024-05-11T07:28:23Z</time>
      </trkpt>
      <trkpt lat="43.29829" lon="2.22148">
        <ele>137.3</ele>
        <time>2024-05-11T07:28:24Z</time>
      </trkpt>
      <trkpt lat="43.29839" lon="2.22139">
        <ele>137</ele>
        <time>2024-05-11T07:28:25Z</time>
      </trkpt>
      <trkpt lat="43.29849" lon="2.22131">
        <ele>137</ele>
        <time>2024-05-11T07:28:26Z</time>
      </trkpt>
      <trkpt lat="43.29858" lon="2.22122">
        <ele>137</ele>
        <time>2024-05-11T07:28:27Z</time>
      </trkpt>
      <trkpt lat="43.29868" lon="2.22114">
        <ele>137</ele>
        <time>2024-05-11T07:28:28Z</time>
      </trkpt>
      <trkpt lat="43.29878" lon="2.22106">
        <ele>137</ele>
        <time>2024-05-11T07:28:29Z</time>
      </trkpt>
      <trkpt lat="43.29888" lon="2.22097">
        <ele>137</ele>
        <time>2024-05-11T07:28:30Z</time>
      </trkpt>
      <trkpt lat="43.29898" lon="2.22088">
        <ele>137</ele>
        <time>2024-05-11T07:28:31Z</time>
      </trkpt>
      <trkpt lat="43.29908" lon="2.2208">
        <ele>137</ele>
        <time>2024-05-11T07:28:32Z</time>
      </trkpt>
      <trkpt lat="43.29918" lon="2.22071">
        <ele>137</ele>
        <time>2024-05-11T07:28:33Z</time>
      </trkpt>
      <trkpt lat="43.29928" lon="2.22063">
        <ele>137</ele>
        <time>2024-05-11T07:28:34Z</time>
      </trkpt>
      <trkpt lat="43.29938" lon="2.22054">
        <ele>137</ele>
        <time>2024-05-11T07:28:35Z</time>
      </trkpt>
      <trkpt lat="43.29948" lon="2.22045">
        <ele>137</ele>
        <time>2024-05-11T07:28:36Z</time>
      </trkpt>
      <trkpt lat="43.29957" lon="2.22036">
        <ele>137</ele>
        <time>2024-05-11T07:28:37Z</time>
      </trkpt>
      <trkpt lat="43.29966" lon="2.22029">
        <ele>137</ele>
        <time>2024-05-11T07:28:38Z</time>
      </trkpt>
      <trkpt lat="43.29976" lon="2.22021">
        <ele>137.1</ele>
        <time>2024-05-11T07:28:39Z</time>
      </trkpt>
      <trkpt lat="43.29985" lon="2.22014">
        <ele>137.5</ele>
        <time>2024-05-11T07:28:40Z</time>
      </trkpt>
      <trkpt lat="43.29991" lon="2.22007">
        <ele>137.7</ele>
        <time>2024-05-11T07:28:41Z</time>
      </trkpt>
      <trkpt lat="43.29999" lon="2.22001">
        <ele>138</ele>
        <time>2024-05-11T07:28:42Z</time>
      </trkpt>
      <trkpt lat="43.30006" lon="2.21995">
        <ele>137.9</ele>
        <time>2024-05-11T07:28:43Z</time>
      </trkpt>
      <trkpt lat="43.30013" lon="2.21989">
        <ele>137.8</ele>
        <time>2024-05-11T07:28:44Z</time>
      </trkpt>
      <trkpt lat="43.30019" lon="2.21983">
        <ele>137.8</ele>
        <time>2024-05-11T07:28:45Z</time>
      </trkpt>
      <trkpt lat="43.30025" lon="2.21978">
        <ele>137.9</ele>
        <time>2024-05-11T07:28:46Z</time>
      </trkpt>
      <trkpt lat="43.30033" lon="2.21973">
        <ele>138</ele>
        <time>2024-05-11T07:28:47Z</time>
      </trkpt>
      <trkpt lat="43.3004" lon="2.21967">
        <ele>137.9</ele>
        <time>2024-05-11T07:28:48Z</time>
      </trkpt>
      <trkpt lat="43.30049" lon="2.21959">
        <ele>137.9</ele>
        <time>2024-05-11T07:28:49Z</time>
      </trkpt>
      <trkpt lat="43.30058" lon="2.21951">
        <ele>138.1</ele>
        <time>2024-05-11T07:28:50Z</time>
      </trkpt>
      <trkpt lat="43.30068" lon="2.21943">
        <ele>138.4</ele>
        <time>2024-05-11T07:28:51Z</time>
      </trkpt>
      <trkpt lat="43.30078" lon="2.21934">
        <ele>138.4</ele>
        <time>2024-05-11T07:28:52Z</time>
      </trkpt>
      <trkpt lat="43.30088" lon="2.21925">
        <ele>138.4</ele>
        <time>2024-05-11T07:28:53Z</time>
      </trkpt>
      <trkpt lat="43.30097" lon="2.21916">
        <ele>138.5</ele>
        <time>2024-05-11T07:28:54Z</time>
      </trkpt>
      <trkpt lat="43.30108" lon="2.21908">
        <ele>138.9</ele>
        <time>2024-05-11T07:28:55Z</time>
      </trkpt>
      <trkpt lat="43.30118" lon="2.21898">
        <ele>139</ele>
        <time>2024-05-11T07:28:56Z</time>
      </trkpt>
      <trkpt lat="43.30129" lon="2.21889">
        <ele>139</ele>
        <time>2024-05-11T07:28:57Z</time>
      </trkpt>
      <trkpt lat="43.3014" lon="2.21879">
        <ele>139</ele>
        <time>2024-05-11T07:28:58Z</time>
      </trkpt>
      <trkpt lat="43.3015" lon="2.2187">
        <ele>139</ele>
        <time>2024-05-11T07:28:59Z</time>
      </trkpt>
      <trkpt lat="43.30161" lon="2.21861">
        <ele>139</ele>
        <time>2024-05-11T07:29:00Z</time>
      </trkpt>
      <trkpt lat="43.30171" lon="2.21851">
        <ele>139</ele>
        <time>2024-05-11T07:29:01Z</time>
      </trkpt>
      <trkpt lat="43.30181" lon="2.21842">
        <ele>139</ele>
        <time>2024-05-11T07:29:02Z</time>
      </trkpt>
      <trkpt lat="43.30191" lon="2.21833">
        <ele>139</ele>
        <time>2024-05-11T07:29:03Z</time>
      </trkpt>
      <trkpt lat="43.30201" lon="2.21825">
        <ele>139.1</ele>
        <time>2024-05-11T07:29:04Z</time>
      </trkpt>
      <trkpt lat="43.30209" lon="2.21816">
        <ele>139.3</ele>
        <time>2024-05-11T07:29:05Z</time>
      </trkpt>
      <trkpt lat="43.30218" lon="2.21809">
        <ele>139.7</ele>
        <time>2024-05-11T07:29:06Z</time>
      </trkpt>
      <trkpt lat="43.30226" lon="2.21802">
        <ele>139.8</ele>
        <time>2024-05-11T07:29:07Z</time>
      </trkpt>
      <trkpt lat="43.30233" lon="2.21797">
        <ele>139.5</ele>
        <time>2024-05-11T07:29:08Z</time>
      </trkpt>
      <trkpt lat="43.3024" lon="2.21793">
        <ele>139.5</ele>
        <time>2024-05-11T07:29:09Z</time>
      </trkpt>
      <trkpt lat="43.30249" lon="2.21787">
        <ele>139.7</ele>
        <time>2024-05-11T07:29:10Z</time>
      </trkpt>
      <trkpt lat="43.30256" lon="2.21779">
        <ele>140</ele>
        <time>2024-05-11T07:29:11Z</time>
      </trkpt>
      <trkpt lat="43.30265" lon="2.21771">
        <ele>140.1</ele>
        <time>2024-05-11T07:29:12Z</time>
      </trkpt>
      <trkpt lat="43.30274" lon="2.21762">
        <ele>140.5</ele>
        <time>2024-05-11T07:29:13Z</time>
      </trkpt>
      <trkpt lat="43.30285" lon="2.21753">
        <ele>140.7</ele>
        <time>2024-05-11T07:29:14Z</time>
      </trkpt>
      <trkpt lat="43.30296" lon="2.21744">
        <ele>140.4</ele>
        <time>2024-05-11T07:29:15Z</time>
      </trkpt>
      <trkpt lat="43.30308" lon="2.21734">
        <ele>140.6</ele>
        <time>2024-05-11T07:29:16Z</time>
      </trkpt>
      <trkpt lat="43.30319" lon="2.21725">
        <ele>140.9</ele>
        <time>2024-05-11T07:29:17Z</time>
      </trkpt>
      <trkpt lat="43.3033" lon="2.21715">
        <ele>141</ele>
        <time>2024-05-11T07:29:18Z</time>
      </trkpt>
      <trkpt lat="43.30341" lon="2.21706">
        <ele>141</ele>
        <time>2024-05-11T07:29:19Z</time>
      </trkpt>
      <trkpt lat="43.30352" lon="2.21697">
        <ele>141</ele>
        <time>2024-05-11T07:29:20Z</time>
      </trkpt>
      <trkpt lat="43.30362" lon="2.21687">
        <ele>141</ele>
        <time>2024-05-11T07:29:21Z</time>
      </trkpt>
      <trkpt lat="43.30373" lon="2.21679">
        <ele>141</ele>
        <time>2024-05-11T07:29:22Z</time>
      </trkpt>
      <trkpt lat="43.30384" lon="2.21669">
        <ele>141</ele>
        <time>2024-05-11T07:29:23Z</time>
      </trkpt>
      <trkpt lat="43.30395" lon="2.2166">
        <ele>141.1</ele>
        <time>2024-05-11T07:29:24Z</time>
      </trkpt>
      <trkpt lat="43.30406" lon="2.2165">
        <ele>141.4</ele>
        <time>2024-05-11T07:29:25Z</time>
      </trkpt>
      <trkpt lat="43.30418" lon="2.21639">
        <ele>142</ele>
        <time>2024-05-11T07:29:26Z</time>
      </trkpt>
      <trkpt lat="43.3043" lon="2.21631">
        <ele>141.9</ele>
        <time>2024-05-11T07:29:27Z</time>
      </trkpt>
      <trkpt lat="43.30443" lon="2.21622">
        <ele>142</ele>
        <time>2024-05-11T07:29:28Z</time>
      </trkpt>
      <trkpt lat="43.30455" lon="2.21614">
        <ele>142</ele>
        <time>2024-05-11T07:29:29Z</time>
      </trkpt>
      <trkpt lat="43.30467" lon="2.21606">
        <ele>142</ele>
        <time>2024-05-11T07:29:30Z</time>
      </trkpt>
      <trkpt lat="43.30479" lon="2.21599">
        <ele>142.2</ele>
        <time>2024-05-11T07:29:31Z</time>
      </trkpt>
      <trkpt lat="43.3049" lon="2.21594">
        <ele>142.6</ele>
        <time>2024-05-11T07:29:32Z</time>
      </trkpt>
      <trkpt lat="43.30502" lon="2.21588">
        <ele>142.9</ele>
        <time>2024-05-11T07:29:33Z</time>
      </trkpt>
      <trkpt lat="43.3051" lon="2.21588">
        <ele>142.7</ele>
        <time>2024-05-11T07:29:34Z</time>
      </trkpt>
      <trkpt lat="43.30521" lon="2.2159">
        <ele>142.4</ele>
        <time>2024-05-11T07:29:35Z</time>
      </trkpt>
      <trkpt lat="43.30531" lon="2.21593">
        <ele>142.3</ele>
        <time>2024-05-11T07:29:36Z</time>
      </trkpt>
      <trkpt lat="43.3054" lon="2.21596">
        <ele>142.4</ele>
        <time>2024-05-11T07:29:37Z</time>
      </trkpt>
      <trkpt lat="43.30549" lon="2.21598">
        <ele>142.6</ele>
        <time>2024-05-11T07:29:38Z</time>
      </trkpt>
      <trkpt lat="43.30559" lon="2.21599">
        <ele>142.7</ele>
        <time>2024-05-11T07:29:39Z</time>
      </trkpt>
      <trkpt lat="43.30569" lon="2.216">
        <ele>142.8</ele>
        <time>2024-05-11T07:29:40Z</time>
      </trkpt>
      <trkpt lat="43.30579" lon="2.21601">
        <ele>142.9</ele>
        <time>2024-05-11T07:29:41Z</time>
      </trkpt>
      <trkpt lat="43.30589" lon="2.21603">
        <ele>143.2</ele>
        <time>2024-05-11T07:29:42Z</time>
      </trkpt>
      <trkpt lat="43.30599" lon="2.21606">
        <ele>143.6</ele>
        <time>2024-05-11T07:29:43Z</time>
      </trkpt>
      <trkpt lat="43.30609" lon="2.21611">
        <ele>144</ele>
        <time>2024-05-11T07:29:44Z</time>
      </trkpt>
      <trkpt lat="43.30617" lon="2.21618">
        <ele>143.7</ele>
        <time>2024-05-11T07:29:45Z</time>
      </trkpt>
      <trkpt lat="43.30626" lon="2.21628">
        <ele>143.6</ele>
        <time>2024-05-11T07:29:46Z</time>
      </trkpt>
      <trkpt lat="43.30634" lon="2.21637">
        <ele>143.9</ele>
        <time>2024-05-11T07:29:47Z</time>
      </trkpt>
      <trkpt lat="43.30642" lon="2.21647">
        <ele>144.2</ele>
        <time>2024-05-11T07:29:48Z</time>
      </trkpt>
      <trkpt lat="43.30648" lon="2.21655">
        <ele>144.3</ele>
        <time>2024-05-11T07:29:49Z</time>
      </trkpt>
      <trkpt lat="43.30656" lon="2.21664">
        <ele>144.3</ele>
        <time>2024-05-11T07:29:50Z</time>
      </trkpt>
      <trkpt lat="43.30663" lon="2.21671">
        <ele>144.4</ele>
        <time>2024-05-11T07:29:51Z</time>
      </trkpt>
      <trkpt lat="43.30669" lon="2.21677">
        <ele>144.6</ele>
        <time>2024-05-11T07:29:52Z</time>
      </trkpt>
      <trkpt lat="43.30676" lon="2.21685">
        <ele>144.8</ele>
        <time>2024-05-11T07:29:53Z</time>
      </trkpt>
      <trkpt lat="43.30682" lon="2.21693">
        <ele>144.8</ele>
        <time>2024-05-11T07:29:54Z</time>
      </trkpt>
      <trkpt lat="43.30688" lon="2.21699">
        <ele>144.7</ele>
        <time>2024-05-11T07:29:55Z</time>
      </trkpt>
      <trkpt lat="43.30694" lon="2.21705">
        <ele>144.8</ele>
        <time>2024-05-11T07:29:56Z</time>
      </trkpt>
      <trkpt lat="43.30698" lon="2.2171">
        <ele>145</ele>
        <time>2024-05-11T07:29:57Z</time>
      </trkpt>
      <trkpt lat="43.30704" lon="2.21715">
        <ele>144.8</ele>
        <time>2024-05-11T07:29:58Z</time>
      </trkpt>
      <trkpt lat="43.30707" lon="2.21718">
        <ele>144.6</ele>
        <time>2024-05-11T07:29:59Z</time>
      </trkpt>
      <trkpt lat="43.3071" lon="2.21722">
        <ele>144.3</ele>
        <time>2024-05-11T07:30:00Z</time>
      </trkpt>
      <trkpt lat="43.30713" lon="2.21726">
        <ele>144.4</ele>
        <time>2024-05-11T07:30:01Z</time>
      </trkpt>
      <trkpt lat="43.30716" lon="2.2173">
        <ele>144.5</ele>
        <time>2024-05-11T07:30:02Z</time>
      </trkpt>
      <trkpt lat="43.30719" lon="2.21734">
        <ele>144.8</ele>
        <time>2024-05-11T07:30:03Z</time>
      </trkpt>
      <trkpt lat="43.30723" lon="2.21739">
        <ele>145.4</ele>
        <time>2024-05-11T07:30:04Z</time>
      </trkpt>
      <trkpt lat="43.30728" lon="2.21744">
        <ele>145.6</ele>
        <time>2024-05-11T07:30:05Z</time>
      </trkpt>
      <trkpt lat="43.30731" lon="2.21749">
        <ele>145.7</ele>
        <time>2024-05-11T07:30:06Z</time>
      </trkpt>
      <trkpt lat="43.30735" lon="2.21755">
        <ele>145.8</ele>
        <time>2024-05-11T07:30:07Z</time>
      </trkpt>
      <trkpt lat="43.30738" lon="2.2176">
        <ele>146.3</ele>
        <time>2024-05-11T07:30:08Z</time>
      </trkpt>
      <trkpt lat="43.30741" lon="2.21766">
        <ele>147.2</ele>
        <time>2024-05-11T07:30:09Z</time>
      </trkpt>
      <trkpt lat="43.30746" lon="2.2177">
        <ele>148</ele>
        <time>2024-05-11T07:30:10Z</time>
      </trkpt>
      <trkpt lat="43.30751" lon="2.21771">
        <ele>148.1</ele>
        <time>2024-05-11T07:30:11Z</time>
      </trkpt>
      <trkpt lat="43.30755" lon="2.21769">
        <ele>147.2</ele>
        <time>2024-05-11T07:30:12Z</time>
      </trkpt>
      <trkpt lat="43.30759" lon="2.21763">
        <ele>145.9</ele>
        <time>2024-05-11T07:30:13Z</time>
      </trkpt>
      <trkpt lat="43.30762" lon="2.21755">
        <ele>145.1</ele>
        <time>2024-05-11T07:30:14Z</time>
      </trkpt>
      <trkpt lat="43.30765" lon="2.21746">
        <ele>145.7</ele>
        <time>2024-05-11T07:30:15Z</time>
      </trkpt>
      <trkpt lat="43.30768" lon="2.21737">
        <ele>147.3</ele>
        <time>2024-05-11T07:30:16Z</time>
      </trkpt>
      <trkpt lat="43.30771" lon="2.21728">
        <ele>149</ele>
        <time>2024-05-11T07:30:17Z</time>
      </trkpt>
      <trkpt lat="43.30774" lon="2.21718">
        <ele>150.5</ele>
        <time>2024-05-11T07:30:18Z</time>
      </trkpt>
      <trkpt lat="43.30777" lon="2.21709">
        <ele>151.4</ele>
        <time>2024-05-11T07:30:19Z</time>
      </trkpt>
      <trkpt lat="43.30779" lon="2.21699">
        <ele>152</ele>
        <time>2024-05-11T07:30:20Z</time>
      </trkpt>
      <trkpt lat="43.30781" lon="2.21691">
        <ele>153</ele>
        <time>2024-05-11T07:30:21Z</time>
      </trkpt>
      <trkpt lat="43.30783" lon="2.21684">
        <ele>154.2</ele>
        <time>2024-05-11T07:30:22Z</time>
      </trkpt>
      <trkpt lat="43.30786" lon="2.21676">
        <ele>155.5</ele>
        <time>2024-05-11T07:30:23Z</time>
      </trkpt>
      <trkpt lat="43.30787" lon="2.21667">
        <ele>156.6</ele>
        <time>2024-05-11T07:30:24Z</time>
      </trkpt>
      <trkpt lat="43.3079" lon="2.21658">
        <ele>157.1</ele>
        <time>2024-05-11T07:30:25Z</time>
      </trkpt>
      <trkpt lat="43.30793" lon="2.21648">
        <ele>157.4</ele>
        <time>2024-05-11T07:30:26Z</time>
      </trkpt>
      <trkpt lat="43.30795" lon="2.21638">
        <ele>157.7</ele>
        <time>2024-05-11T07:30:27Z</time>
      </trkpt>
      <trkpt lat="43.30798" lon="2.21628">
        <ele>158.1</ele>
        <time>2024-05-11T07:30:28Z</time>
      </trkpt>
      <trkpt lat="43.30801" lon="2.21617">
        <ele>158.6</ele>
        <time>2024-05-11T07:30:29Z</time>
      </trkpt>
      <trkpt lat="43.30804" lon="2.21607">
        <ele>159.1</ele>
        <time>2024-05-11T07:30:30Z</time>
      </trkpt>
      <trkpt lat="43.30807" lon="2.21597">
        <ele>159.6</ele>
        <time>2024-05-11T07:30:31Z</time>
      </trkpt>
      <trkpt lat="43.3081" lon="2.21587">
        <ele>160.4</ele>
        <time>2024-05-11T07:30:32Z</time>
      </trkpt>
      <trkpt lat="43.30812" lon="2.21578">
        <ele>161.3</ele>
        <time>2024-05-11T07:30:33Z</time>
      </trkpt>
      <trkpt lat="43.30815" lon="2.21568">
        <ele>162.5</ele>
        <time>2024-05-11T07:30:34Z</time>
      </trkpt>
      <trkpt lat="43.30818" lon="2.21558">
        <ele>163.6</ele>
        <time>2024-05-11T07:30:35Z</time>
      </trkpt>
      <trkpt lat="43.3082" lon="2.21547">
        <ele>164.5</ele>
        <time>2024-05-11T07:30:36Z</time>
      </trkpt>
      <trkpt lat="43.30823" lon="2.21537">
        <ele>165.3</ele>
        <time>2024-05-11T07:30:37Z</time>
      </trkpt>
      <trkpt lat="43.30824" lon="2.21528">
        <ele>165.7</ele>
        <time>2024-05-11T07:30:38Z</time>
      </trkpt>
      <trkpt lat="43.30825" lon="2.2152">
        <ele>165.7</ele>
        <time>2024-05-11T07:30:39Z</time>
      </trkpt>
      <trkpt lat="43.30827" lon="2.21513">
        <ele>165.8</ele>
        <time>2024-05-11T07:30:40Z</time>
      </trkpt>
      <trkpt lat="43.3083" lon="2.21507">
        <ele>165.9</ele>
        <time>2024-05-11T07:30:41Z</time>
      </trkpt>
      <trkpt lat="43.30832" lon="2.21502">
        <ele>166</ele>
        <time>2024-05-11T07:30:42Z</time>
      </trkpt>
      <trkpt lat="43.30835" lon="2.215">
        <ele>166.2</ele>
        <time>2024-05-11T07:30:43Z</time>
      </trkpt>
      <trkpt lat="43.30839" lon="2.21499">
        <ele>166.6</ele>
        <time>2024-05-11T07:30:44Z</time>
      </trkpt>
      <trkpt lat="43.30845" lon="2.21501">
        <ele>167.3</ele>
        <time>2024-05-11T07:30:45Z</time>
      </trkpt>
      <trkpt lat="43.30852" lon="2.21503">
        <ele>168</ele>
        <time>2024-05-11T07:30:46Z</time>
      </trkpt>
      <trkpt lat="43.3086" lon="2.21505">
        <ele>168.9</ele>
        <time>2024-05-11T07:30:47Z</time>
      </trkpt>
      <trkpt lat="43.30867" lon="2.21508">
        <ele>169.4</ele>
        <time>2024-05-11T07:30:48Z</time>
      </trkpt>
      <trkpt lat="43.30874" lon="2.21509">
        <ele>169.9</ele>
        <time>2024-05-11T07:30:49Z</time>
      </trkpt>
      <trkpt lat="43.3088" lon="2.21511">
        <ele>170.4</ele>
        <time>2024-05-11T07:30:50Z</time>
      </trkpt>
      <trkpt lat="43.30888" lon="2.21513">
        <ele>170.9</ele>
        <time>2024-05-11T07:30:51Z</time>
      </trkpt>
      <trkpt lat="43.30894" lon="2.21516">
        <ele>171.2</ele>
        <time>2024-05-11T07:30:52Z</time>
      </trkpt>
      <trkpt lat="43.309" lon="2.21518">
        <ele>171.4</ele>
        <time>2024-05-11T07:30:53Z</time>
      </trkpt>
      <trkpt lat="43.30907" lon="2.2152">
        <ele>171.7</ele>
        <time>2024-05-11T07:30:54Z</time>
      </trkpt>
      <trkpt lat="43.30913" lon="2.21523">
        <ele>171.9</ele>
        <time>2024-05-11T07:30:55Z</time>
      </trkpt>
      <trkpt lat="43.30918" lon="2.21524">
        <ele>172.1</ele>
        <time>2024-05-11T07:30:56Z</time>
      </trkpt>
      <trkpt lat="43.30923" lon="2.21526">
        <ele>172.5</ele>
        <time>2024-05-11T07:30:57Z</time>
      </trkpt>
      <trkpt lat="43.30927" lon="2.21527">
        <ele>172.8</ele>
        <time>2024-05-11T07:30:58Z</time>
      </trkpt>
      <trkpt lat="43.3093" lon="2.21529">
        <ele>172.9</ele>
        <time>2024-05-11T07:30:59Z</time>
      </trkpt>
      <trkpt lat="43.30932" lon="2.2153">
        <ele>173</ele>
        <time>2024-05-11T07:31:00Z</time>
      </trkpt>
      <trkpt lat="43.30934" lon="2.21531">
        <ele>173.1</ele>
        <time>2024-05-11T07:31:01Z</time>
      </trkpt>
      <trkpt lat="43.30935" lon="2.21531">
        <ele>173.2</ele>
        <time>2024-05-11T07:31:02Z</time>
      </trkpt>
      <trkpt lat="43.30937" lon="2.21531">
        <ele>173.3</ele>
        <time>2024-05-11T07:31:03Z</time>
      </trkpt>
      <trkpt lat="43.30937" lon="2.2153">
        <ele>173.3</ele>
        <time>2024-05-11T07:31:04Z</time>
      </trkpt>
      <trkpt lat="43.30937" lon="2.21529">
        <ele>173.4</ele>
        <time>2024-05-11T07:31:05Z</time>
      </trkpt>
      <trkpt lat="43.30937" lon="2.21528">
        <ele>173.5</ele>
        <time>2024-05-11T07:31:06Z</time>
      </trkpt>
      <trkpt lat="43.30937" lon="2.21528">
        <ele>173.5</ele>
        <time>2024-05-11T07:31:07Z</time>
      </trkpt>
      <trkpt lat="43.30937" lon="2.21528">
        <ele>173.5</ele>
        <time>2024-05-11T07:31:08Z</time>
      </trkpt>
      <trkpt lat="43.30937" lon="2.21528">
        <ele>173.5</ele>
        <time>2024-05-11T07:31:09Z</time>
      </trkpt>
      <trkpt lat="43.30937" lon="2.21528">
        <ele>173.5</ele>
        <time>2024-05-11T07:31:10Z</time>
      </trkpt>
      <trkpt lat="43.30937" lon="2.21528">
        <ele>173.5</ele>
        <time>2024-05-11T07:31:11Z</time>
      </trkpt>
      <trkpt lat="43.30937" lon="2.21528">
        <ele>173.5</ele>
        <time>2024-05-11T07:31:12Z</time>
      </trkpt>
      <trkpt lat="43.30938" lon="2.21528">
        <ele>173.5</ele>
        <time>2024-05-11T07:31:13Z</time>
      </trkpt>
      <trkpt lat="43.30938" lon="2.21528">
        <ele>173.5</ele>
        <time>2024-05-11T07:31:14Z</time>
      </trkpt>
      <trkpt lat="43.30938" lon="2.21528">
        <ele>173.5</ele>
        <time>2024-05-11T07:31:15Z</time>
      </trkpt>
      <trkpt lat="43.30938" lon="2.21528">
        <ele>173.5</ele>
        <time>2024-05-11T07:31:16Z</time>
      </trkpt>
      <trkpt lat="43.30938" lon="2.21528">
        <ele>173.5</ele>
        <time>2024-05-11T07:31:17Z</time>
      </trkpt>
      <trkpt lat="43.30938" lon="2.21528">
        <ele>173.5</ele>
        <time>2024-05-11T07:31:18Z</time>
      </trkpt>
      <trkpt lat="43.30939" lon="2.21527">
        <ele>173.6</ele>
        <time>2024-05-11T07:31:19Z</time>
      </trkpt>
      <trkpt lat="43.3094" lon="2.21527">
        <ele>173.7</ele>
        <time>2024-05-11T07:31:20Z</time>
      </trkpt>
      <trkpt lat="43.30942" lon="2.21525">
        <ele>173.9</ele>
        <time>2024-05-11T07:31:21Z</time>
      </trkpt>
      <trkpt lat="43.30945" lon="2.21522">
        <ele>174.2</ele>
        <time>2024-05-11T07:31:22Z</time>
      </trkpt>
      <trkpt lat="43.30948" lon="2.21519">
        <ele>174.4</ele>
        <time>2024-05-11T07:31:23Z</time>
      </trkpt>
      <trkpt lat="43.3095" lon="2.21516">
        <ele>174.5</ele>
        <time>2024-05-11T07:31:24Z</time>
      </trkpt>
      <trkpt lat="43.30952" lon="2.21514">
        <ele>174.6</ele>
        <time>2024-05-11T07:31:25Z</time>
      </trkpt>
      <trkpt lat="43.30953" lon="2.21512">
        <ele>174.7</ele>
        <time>2024-05-11T07:31:26Z</time>
      </trkpt>
      <trkpt lat="43.30954" lon="2.2151">
        <ele>174.9</ele>
        <time>2024-05-11T07:31:27Z</time>
      </trkpt>
      <trkpt lat="43.30955" lon="2.21508">
        <ele>175</ele>
        <time>2024-05-11T07:31:28Z</time>
      </trkpt>
      <trkpt lat="43.30956" lon="2.21506">
        <ele>175.1</ele>
        <time>2024-05-11T07:31:29Z</time>
      </trkpt>
      <trkpt lat="43.30958" lon="2.21503">
        <ele>175.3</ele>
        <time>2024-05-11T07:31:30Z</time>
      </trkpt>
      <trkpt lat="43.3096" lon="2.21501">
        <ele>175.5</ele>
        <time>2024-05-11T07:31:31Z</time>
      </trkpt>
      <trkpt lat="43.30961" lon="2.215">
        <ele>175.6</ele>
        <time>2024-05-11T07:31:32Z</time>
      </trkpt>
      <trkpt lat="43.30962" lon="2.21501">
        <ele>175.6</ele>
        <time>2024-05-11T07:31:33Z</time>
      </trkpt>
      <trkpt lat="43.30963" lon="2.21502">
        <ele>175.5</ele>
        <time>2024-05-11T07:31:34Z</time>
      </trkpt>
      <trkpt lat="43.30963" lon="2.21503">
        <ele>175.5</ele>
        <time>2024-05-11T07:31:35Z</time>
      </trkpt>
      <trkpt lat="43.30962" lon="2.21503">
        <ele>175.5</ele>
        <time>2024-05-11T07:31:36Z</time>
      </trkpt>
      <trkpt lat="43.30962" lon="2.21504">
        <ele>175.4</ele>
        <time>2024-05-11T07:31:37Z</time>
      </trkpt>
      <trkpt lat="43.30963" lon="2.21504">
        <ele>175.4</ele>
        <time>2024-05-11T07:31:38Z</time>
      </trkpt>
      <trkpt lat="43.30963" lon="2.21504">
        <ele>175.4</ele>
        <time>2024-05-11T07:31:39Z</time>
      </trkpt>
      <trkpt lat="43.30963" lon="2.21504">
        <ele>175.4</ele>
        <time>2024-05-11T07:31:40Z</time>
      </trkpt>
      <trkpt lat="43.30963" lon="2.21504">
        <ele>175.4</ele>
        <time>2024-05-11T07:31:41Z</time>
      </trkpt>
      <trkpt lat="43.30964" lon="2.21504">
        <ele>175.5</ele>
        <time>2024-05-11T07:31:42Z</time>
      </trkpt>
      <trkpt lat="43.30965" lon="2.21504">
        <ele>175.5</ele>
        <time>2024-05-11T07:31:43Z</time>
      </trkpt>
      <trkpt lat="43.30966" lon="2.21504">
        <ele>175.5</ele>
        <time>2024-05-11T07:31:44Z</time>
      </trkpt>
      <trkpt lat="43.30966" lon="2.21504">
        <ele>175.5</ele>
        <time>2024-05-11T07:31:45Z</time>
      </trkpt>
      <trkpt lat="43.30967" lon="2.21503">
        <ele>175.6</ele>
        <time>2024-05-11T07:31:46Z</time>
      </trkpt>
      <trkpt lat="43.30967" lon="2.21503">
        <ele>175.6</ele>
        <time>2024-05-11T07:31:47Z</time>
      </trkpt>
      <trkpt lat="43.30967" lon="2.21503">
        <ele>175.6</ele>
        <time>2024-05-11T07:31:48Z</time>
      </trkpt>
      <trkpt lat="43.30967" lon="2.21504">
        <ele>175.6</ele>
        <time>2024-05-11T07:31:49Z</time>
      </trkpt>
      <trkpt lat="43.30967" lon="2.21505">
        <ele>175.5</ele>
        <time>2024-05-11T07:31:50Z</time>
      </trkpt>
      <trkpt lat="43.30967" lon="2.21505">
        <ele>175.5</ele>
        <time>2024-05-11T07:31:51Z</time>
      </trkpt>
      <trkpt lat="43.30967" lon="2.21505">
        <ele>175.5</ele>
        <time>2024-05-11T07:31:52Z</time>
      </trkpt>
      <trkpt lat="43.30967" lon="2.21505">
        <ele>175.5</ele>
        <time>2024-05-11T07:31:53Z</time>
      </trkpt>
      <trkpt lat="43.30967" lon="2.21504">
        <ele>175.6</ele>
        <time>2024-05-11T07:31:54Z</time>
      </trkpt>
      <trkpt lat="43.30967" lon="2.21504">
        <ele>175.6</ele>
        <time>2024-05-11T07:31:55Z</time>
      </trkpt>
      <trkpt lat="43.30967" lon="2.21503">
        <ele>175.6</ele>
        <time>2024-05-11T07:31:56Z</time>
      </trkpt>
      <trkpt lat="43.30968" lon="2.21503">
        <ele>175.6</ele>
        <time>2024-05-11T07:31:57Z</time>
      </trkpt>
      <trkpt lat="43.30968" lon="2.21503">
        <ele>175.6</ele>
        <time>2024-05-11T07:31:58Z</time>
      </trkpt>
      <trkpt lat="43.30968" lon="2.21502">
        <ele>175.7</ele>
        <time>2024-05-11T07:31:59Z</time>
      </trkpt>
      <trkpt lat="43.30968" lon="2.21502">
        <ele>175.7</ele>
        <time>2024-05-11T07:32:00Z</time>
      </trkpt>
      <trkpt lat="43.30968" lon="2.21502">
        <ele>175.7</ele>
        <time>2024-05-11T07:32:01Z</time>
      </trkpt>
      <trkpt lat="43.30969" lon="2.21502">
        <ele>175.7</ele>
        <time>2024-05-11T07:32:02Z</time>
      </trkpt>
      <trkpt lat="43.30969" lon="2.21502">
        <ele>175.7</ele>
        <time>2024-05-11T07:32:03Z</time>
      </trkpt>
      <trkpt lat="43.30969" lon="2.21502">
        <ele>175.7</ele>
        <time>2024-05-11T07:32:04Z</time>
      </trkpt>
      <trkpt lat="43.30969" lon="2.21502">
        <ele>175.7</ele>
        <time>2024-05-11T07:32:05Z</time>
      </trkpt>
      <trkpt lat="43.30969" lon="2.21502">
        <ele>175.7</ele>
        <time>2024-05-11T07:32:06Z</time>
      </trkpt>
      <trkpt lat="43.30969" lon="2.21502">
        <ele>175.7</ele>
        <time>2024-05-11T07:32:07Z</time>
      </trkpt>
      <trkpt lat="43.30969" lon="2.21502">
        <ele>175.7</ele>
        <time>2024-05-11T07:32:08Z</time>
      </trkpt>
      <trkpt lat="43.30969" lon="2.21502">
        <ele>175.7</ele>
        <time>2024-05-11T07:32:09Z</time>
      </trkpt>
      <trkpt lat="43.30969" lon="2.21502">
        <ele>175.7</ele>
        <time>2024-05-11T07:32:10Z</time>
      </trkpt>
      <trkpt lat="43.30969" lon="2.21502">
        <ele>175.7</ele>
        <time>2024-05-11T07:32:11Z</time>
      </trkpt>
      <trkpt lat="43.30968" lon="2.21502">
        <ele>175.7</ele>
        <time>2024-05-11T07:32:12Z</time>
      </trkpt>
      <trkpt lat="43.30968" lon="2.21502">
        <ele>175.7</ele>
        <time>2024-05-11T07:32:13Z</time>
      </trkpt>
      <trkpt lat="43.30968" lon="2.21502">
        <ele>175.7</ele>
        <time>2024-05-11T07:32:14Z</time>
      </trkpt>
      <trkpt lat="43.30968" lon="2.21503">
        <ele>175.6</ele>
        <time>2024-05-11T07:32:15Z</time>
      </trkpt>
      <trkpt lat="43.30968" lon="2.21503">
        <ele>175.6</ele>
        <time>2024-05-11T07:32:16Z</time>
      </trkpt>
      <trkpt lat="43.30968" lon="2.21503">
        <ele>175.6</ele>
        <time>2024-05-11T07:32:17Z</time>
      </trkpt>
      <trkpt lat="43.30968" lon="2.21503">
        <ele>175.6</ele>
        <time>2024-05-11T07:32:18Z</time>
      </trkpt>
      <trkpt lat="43.30968" lon="2.21503">
        <ele>175.6</ele>
        <time>2024-05-11T07:32:19Z</time>
      </trkpt>
      <trkpt lat="43.30968" lon="2.21503">
        <ele>175.6</ele>
        <time>2024-05-11T07:32:20Z</time>
      </trkpt>
      <trkpt lat="43.30968" lon="2.21503">
        <ele>175.6</ele>
        <time>2024-05-11T07:32:21Z</time>
      </trkpt>
      <trkpt lat="43.30968" lon="2.21504">
        <ele>175.6</ele>
        <time>2024-05-11T07:32:22Z</time>
      </trkpt>
      <trkpt lat="43.30968" lon="2.21504">
        <ele>175.6</ele>
        <time>2024-05-11T07:32:23Z</time>
      </trkpt>
      <trkpt lat="43.30968" lon="2.21504">
        <ele>175.6</ele>
        <time>2024-05-11T07:32:24Z</time>
      </trkpt>
      <trkpt lat="43.30968" lon="2.21504">
        <ele>175.6</ele>
        <time>2024-05-11T07:32:25Z</time>
      </trkpt>
      <trkpt lat="43.30968" lon="2.21504">
        <ele>175.6</ele>
        <time>2024-05-11T07:32:26Z</time>
      </trkpt>
      <trkpt lat="43.30964" lon="2.21508">
        <ele>175.2</ele>
        <time>2024-05-11T08:32:51Z</time>
      </trkpt>
      <trkpt lat="43.30965" lon="2.21509">
        <ele>175.2</ele>
        <time>2024-05-11T08:32:52Z</time>
      </trkpt>
      <trkpt lat="43.30964" lon="2.2151">
        <ele>175.1</ele>
        <time>2024-05-11T08:32:53Z</time>
      </trkpt>
      <trkpt lat="43.30964" lon="2.21507">
        <ele>175.3</ele>
        <time>2024-05-11T08:32:54Z</time>
      </trkpt>
      <trkpt lat="43.30964" lon="2.21506">
        <ele>175.3</ele>
        <time>2024-05-11T08:32:55Z</time>
      </trkpt>
      <trkpt lat="43.30963" lon="2.21511">
        <ele>175</ele>
        <time>2024-05-11T08:32:56Z</time>
      </trkpt>
      <trkpt lat="43.30961" lon="2.21512">
        <ele>174.9</ele>
        <time>2024-05-11T08:32:57Z</time>
      </trkpt>
      <trkpt lat="43.30962" lon="2.21512">
        <ele>174.9</ele>
        <time>2024-05-11T08:32:58Z</time>
      </trkpt>
      <trkpt lat="43.30962" lon="2.21511">
        <ele>175</ele>
        <time>2024-05-11T08:32:59Z</time>
      </trkpt>
      <trkpt lat="43.30962" lon="2.2151">
        <ele>175</ele>
        <time>2024-05-11T08:33:00Z</time>
      </trkpt>
      <trkpt lat="43.30962" lon="2.21509">
        <ele>175.1</ele>
        <time>2024-05-11T08:33:01Z</time>
      </trkpt>
      <trkpt lat="43.30962" lon="2.21508">
        <ele>175.2</ele>
        <time>2024-05-11T08:33:02Z</time>
      </trkpt>
      <trkpt lat="43.30962" lon="2.21508">
        <ele>175.2</ele>
        <time>2024-05-11T08:33:03Z</time>
      </trkpt>
      <trkpt lat="43.30961" lon="2.21509">
        <ele>175.1</ele>
        <time>2024-05-11T08:33:04Z</time>
      </trkpt>
      <trkpt lat="43.30961" lon="2.21509">
        <ele>175.1</ele>
        <time>2024-05-11T08:33:05Z</time>
      </trkpt>
      <trkpt lat="43.30961" lon="2.21509">
        <ele>175.1</ele>
        <time>2024-05-11T08:33:06Z</time>
      </trkpt>
      <trkpt lat="43.3096" lon="2.21508">
        <ele>175.1</ele>
        <time>2024-05-11T08:33:07Z</time>
      </trkpt>
      <trkpt lat="43.30961" lon="2.21508">
        <ele>175.1</ele>
        <time>2024-05-11T08:33:08Z</time>
      </trkpt>
      <trkpt lat="43.30961" lon="2.21508">
        <ele>175.1</ele>
        <time>2024-05-11T08:33:09Z</time>
      </trkpt>
      <trkpt lat="43.3096" lon="2.21509">
        <ele>175.1</ele>
        <time>2024-05-11T08:33:10Z</time>
      </trkpt>
      <trkpt lat="43.3096" lon="2.21509">
        <ele>175.1</ele>
        <time>2024-05-11T08:33:11Z</time>
      </trkpt>
      <trkpt lat="43.3096" lon="2.21508">
        <ele>175.1</ele>
        <time>2024-05-11T08:33:12Z</time>
      </trkpt>
      <trkpt lat="43.3096" lon="2.21509">
        <ele>175.1</ele>
        <time>2024-05-11T08:33:13Z</time>
      </trkpt>
      <trkpt lat="43.3096" lon="2.21508">
        <ele>175.1</ele>
        <time>2024-05-11T08:33:14Z</time>
      </trkpt>
      <trkpt lat="43.3096" lon="2.21508">
        <ele>175.1</ele>
        <time>2024-05-11T08:33:15Z</time>
      </trkpt>
      <trkpt lat="43.30961" lon="2.21508">
        <ele>175.1</ele>
        <time>2024-05-11T08:33:16Z</time>
      </trkpt>
      <trkpt lat="43.30961" lon="2.21508">
        <ele>175.1</ele>
        <time>2024-05-11T08:33:17Z</time>
      </trkpt>
      <trkpt lat="43.30961" lon="2.21508">
        <ele>175.1</ele>
        <time>2024-05-11T08:33:18Z</time>
      </trkpt>
      <trkpt lat="43.30961" lon="2.21507">
        <ele>175.2</ele>
        <time>2024-05-11T08:33:19Z</time>
      </trkpt>
      <trkpt lat="43.30961" lon="2.21507">
        <ele>175.2</ele>
        <time>2024-05-11T08:33:20Z</time>
      </trkpt>
      <trkpt lat="43.30961" lon="2.21507">
        <ele>175.2</ele>
        <time>2024-05-11T08:33:21Z</time>
      </trkpt>
      <trkpt lat="43.30961" lon="2.21507">
        <ele>175.2</ele>
        <time>2024-05-11T08:33:22Z</time>
      </trkpt>
      <trkpt lat="43.30961" lon="2.21507">
        <ele>175.2</ele>
        <time>2024-05-11T08:33:23Z</time>
      </trkpt>
      <trkpt lat="43.30961" lon="2.21507">
        <ele>175.2</ele>
        <time>2024-05-11T08:33:24Z</time>
      </trkpt>
      <trkpt lat="43.30961" lon="2.21507">
        <ele>175.2</ele>
        <time>2024-05-11T08:33:25Z</time>
      </trkpt>
      <trkpt lat="43.30961" lon="2.21507">
        <ele>175.2</ele>
        <time>2024-05-11T08:33:26Z</time>
      </trkpt>
      <trkpt lat="43.30961" lon="2.21507">
        <ele>175.2</ele>
        <time>2024-05-11T08:33:27Z</time>
      </trkpt>
      <trkpt lat="43.30961" lon="2.21507">
        <ele>175.2</ele>
        <time>2024-05-11T08:33:28Z</time>
      </trkpt>
      <trkpt lat="43.30961" lon="2.21507">
        <ele>175.2</ele>
        <time>2024-05-11T08:33:29Z</time>
      </trkpt>
      <trkpt lat="43.30961" lon="2.21507">
        <ele>175.2</ele>
        <time>2024-05-11T08:33:30Z</time>
      </trkpt>
      <trkpt lat="43.30961" lon="2.21507">
        <ele>175.2</ele>
        <time>2024-05-11T08:33:31Z</time>
      </trkpt>
      <trkpt lat="43.30961" lon="2.21507">
        <ele>175.2</ele>
        <time>2024-05-11T08:33:32Z</time>
      </trkpt>
      <trkpt lat="43.30961" lon="2.21507">
        <ele>175.2</ele>
        <time>2024-05-11T08:33:33Z</time>
      </trkpt>
      <trkpt lat="43.30961" lon="2.21507">
        <ele>175.2</ele>
        <time>2024-05-11T08:33:34Z</time>
      </trkpt>
      <trkpt lat="43.30961" lon="2.21507">
        <ele>175.2</ele>
        <time>2024-05-11T08:33:35Z</time>
      </trkpt>
      <trkpt lat="43.30961" lon="2.21507">
        <ele>175.2</ele>
        <time>2024-05-11T08:33:36Z</time>
      </trkpt>
      <trkpt lat="43.30961" lon="2.21507">
        <ele>175.2</ele>
        <time>2024-05-11T08:33:37Z</time>
      </trkpt>
      <trkpt lat="43.30961" lon="2.21507">
        <ele>175.2</ele>
        <time>2024-05-11T08:33:38Z</time>
      </trkpt>
      <trkpt lat="43.30961" lon="2.21507">
        <ele>175.2</ele>
        <time>2024-05-11T08:33:39Z</time>
      </trkpt>
      <trkpt lat="43.30961" lon="2.21507">
        <ele>175.2</ele>
        <time>2024-05-11T08:33:40Z</time>
      </trkpt>
      <trkpt lat="43.30961" lon="2.21507">
        <ele>175.2</ele>
        <time>2024-05-11T08:33:41Z</time>
      </trkpt>
      <trkpt lat="43.30961" lon="2.21507">
        <ele>175.2</ele>
        <time>2024-05-11T08:33:42Z</time>
      </trkpt>
      <trkpt lat="43.30961" lon="2.21507">
        <ele>175.2</ele>
        <time>2024-05-11T08:33:43Z</time>
      </trkpt>
      <trkpt lat="43.30961" lon="2.21507">
        <ele>175.2</ele>
        <time>2024-05-11T08:33:44Z</time>
      </trkpt>
      <trkpt lat="43.30961" lon="2.21507">
        <ele>175.2</ele>
        <time>2024-05-11T08:33:45Z</time>
      </trkpt>
      <trkpt lat="43.30961" lon="2.21507">
        <ele>175.2</ele>
        <time>2024-05-11T08:33:46Z</time>
      </trkpt>
      <trkpt lat="43.30961" lon="2.21507">
        <ele>175.2</ele>
        <time>2024-05-11T08:33:47Z</time>
      </trkpt>
      <trkpt lat="43.30961" lon="2.21507">
        <ele>175.2</ele>
        <time>2024-05-11T08:33:48Z</time>
      </trkpt>
      <trkpt lat="43.30961" lon="2.21507">
        <ele>175.2</ele>
        <time>2024-05-11T08:33:49Z</time>
      </trkpt>
      <trkpt lat="43.30961" lon="2.21507">
        <ele>175.2</ele>
        <time>2024-05-11T08:33:50Z</time>
      </trkpt>
      <trkpt lat="43.30961" lon="2.21507">
        <ele>175.2</ele>
        <time>2024-05-11T08:33:51Z</time>
      </trkpt>
      <trkpt lat="43.30961" lon="2.21507">
        <ele>175.2</ele>
        <time>2024-05-11T08:33:52Z</time>
      </trkpt>
      <trkpt lat="43.30961" lon="2.21507">
        <ele>175.2</ele>
        <time>2024-05-11T08:33:53Z</time>
      </trkpt>
      <trkpt lat="43.30961" lon="2.21507">
        <ele>175.2</ele>
        <time>2024-05-11T08:33:54Z</time>
      </trkpt>
      <trkpt lat="43.30961" lon="2.21507">
        <ele>175.2</ele>
        <time>2024-05-11T08:33:55Z</time>
      </trkpt>
      <trkpt lat="43.30961" lon="2.21507">
        <ele>175.2</ele>
        <time>2024-05-11T08:33:56Z</time>
      </trkpt>
      <trkpt lat="43.30961" lon="2.21507">
        <ele>175.2</ele>
        <time>2024-05-11T08:33:57Z</time>
      </trkpt>
      <trkpt lat="43.30961" lon="2.21507">
        <ele>175.2</ele>
        <time>2024-05-11T08:33:58Z</time>
      </trkpt>
      <trkpt lat="43.30961" lon="2.21507">
        <ele>175.2</ele>
        <time>2024-05-11T08:33:59Z</time>
      </trkpt>
      <trkpt lat="43.30961" lon="2.21507">
        <ele>175.2</ele>
        <time>2024-05-11T08:34:00Z</time>
      </trkpt>
      <trkpt lat="43.30961" lon="2.21507">
        <ele>175.2</ele>
        <time>2024-05-11T08:34:01Z</time>
      </trkpt>
      <trkpt lat="43.30961" lon="2.21507">
        <ele>175.2</ele>
        <time>2024-05-11T08:34:02Z</time>
      </trkpt>
      <trkpt lat="43.30961" lon="2.21507">
        <ele>175.2</ele>
        <time>2024-05-11T08:34:03Z</time>
      </trkpt>
      <trkpt lat="43.30961" lon="2.21507">
        <ele>175.2</ele>
        <time>2024-05-11T08:34:04Z</time>
      </trkpt>
      <trkpt lat="43.30961" lon="2.21507">
        <ele>175.2</ele>
        <time>2024-05-11T08:34:05Z</time>
      </trkpt>
      <trkpt lat="43.30961" lon="2.21507">
        <ele>175.2</ele>
        <time>2024-05-11T08:34:06Z</time>
      </trkpt>
      <trkpt lat="43.30961" lon="2.21507">
        <ele>175.2</ele>
        <time>2024-05-11T08:34:07Z</time>
      </trkpt>
      <trkpt lat="43.30961" lon="2.21507">
        <ele>175.2</ele>
        <time>2024-05-11T08:34:08Z</time>
      </trkpt>
      <trkpt lat="43.30961" lon="2.21507">
        <ele>175.2</ele>
        <time>2024-05-11T08:34:09Z</time>
      </trkpt>
      <trkpt lat="43.30961" lon="2.21507">
        <ele>175.2</ele>
        <time>2024-05-11T08:34:10Z</time>
      </trkpt>
      <trkpt lat="43.30961" lon="2.21507">
        <ele>175.2</ele>
        <time>2024-05-11T08:34:11Z</time>
      </trkpt>
      <trkpt lat="43.30961" lon="2.21507">
        <ele>175.2</ele>
        <time>2024-05-11T08:34:12Z</time>
      </trkpt>
      <trkpt lat="43.30961" lon="2.21507">
        <ele>175.2</ele>
        <time>2024-05-11T08:34:13Z</time>
      </trkpt>
      <trkpt lat="43.30961" lon="2.21507">
        <ele>175.2</ele>
        <time>2024-05-11T08:34:14Z</time>
      </trkpt>
      <trkpt lat="43.30961" lon="2.21507">
        <ele>175.2</ele>
        <time>2024-05-11T08:34:15Z</time>
      </trkpt>
      <trkpt lat="43.30961" lon="2.21507">
        <ele>175.2</ele>
        <time>2024-05-11T08:34:16Z</time>
      </trkpt>
      <trkpt lat="43.30961" lon="2.21507">
        <ele>175.2</ele>
        <time>2024-05-11T08:34:17Z</time>
      </trkpt>
      <trkpt lat="43.30961" lon="2.21507">
        <ele>175.2</ele>
        <time>2024-05-11T08:34:18Z</time>
      </trkpt>
      <trkpt lat="43.30961" lon="2.21507">
        <ele>175.2</ele>
        <time>2024-05-11T08:34:19Z</time>
      </trkpt>
      <trkpt lat="43.30961" lon="2.21507">
        <ele>175.2</ele>
        <time>2024-05-11T08:34:20Z</time>
      </trkpt>
      <trkpt lat="43.30961" lon="2.21507">
        <ele>175.2</ele>
        <time>2024-05-11T08:34:21Z</time>
      </trkpt>
      <trkpt lat="43.30961" lon="2.21507">
        <ele>175.2</ele>
        <time>2024-05-11T08:34:22Z</time>
      </trkpt>
      <trkpt lat="43.30961" lon="2.21507">
        <ele>175.2</ele>
        <time>2024-05-11T08:34:23Z</time>
      </trkpt>
      <trkpt lat="43.30961" lon="2.21507">
        <ele>175.2</ele>
        <time>2024-05-11T08:34:24Z</time>
      </trkpt>
      <trkpt lat="43.30961" lon="2.21506">
        <ele>175.3</ele>
        <time>2024-05-11T08:34:25Z</time>
      </trkpt>
      <trkpt lat="43.3096" lon="2.21506">
        <ele>175.2</ele>
        <time>2024-05-11T08:34:26Z</time>
      </trkpt>
      <trkpt lat="43.30961" lon="2.21506">
        <ele>175.3</ele>
        <time>2024-05-11T08:34:27Z</time>
      </trkpt>
      <trkpt lat="43.30961" lon="2.21506">
        <ele>175.3</ele>
        <time>2024-05-11T08:34:28Z</time>
      </trkpt>
      <trkpt lat="43.30961" lon="2.21505">
        <ele>175.3</ele>
        <time>2024-05-11T08:34:29Z</time>
      </trkpt>
      <trkpt lat="43.30961" lon="2.21505">
        <ele>175.3</ele>
        <time>2024-05-11T08:34:30Z</time>
      </trkpt>
      <trkpt lat="43.30961" lon="2.21505">
        <ele>175.3</ele>
        <time>2024-05-11T08:34:31Z</time>
      </trkpt>
      <trkpt lat="43.30961" lon="2.21505">
        <ele>175.3</ele>
        <time>2024-05-11T08:34:32Z</time>
      </trkpt>
      <trkpt lat="43.30961" lon="2.21505">
        <ele>175.3</ele>
        <time>2024-05-11T08:34:33Z</time>
      </trkpt>
      <trkpt lat="43.30961" lon="2.21505">
        <ele>175.3</ele>
        <time>2024-05-11T08:34:34Z</time>
      </trkpt>
      <trkpt lat="43.30961" lon="2.21505">
        <ele>175.3</ele>
        <time>2024-05-11T08:34:35Z</time>
      </trkpt>
      <trkpt lat="43.30961" lon="2.21504">
        <ele>175.4</ele>
        <time>2024-05-11T08:34:36Z</time>
      </trkpt>
      <trkpt lat="43.30961" lon="2.21504">
        <ele>175.4</ele>
        <time>2024-05-11T08:34:37Z</time>
      </trkpt>
      <trkpt lat="43.30961" lon="2.21504">
        <ele>175.4</ele>
        <time>2024-05-11T08:34:38Z</time>
      </trkpt>
      <trkpt lat="43.30961" lon="2.21504">
        <ele>175.4</ele>
        <time>2024-05-11T08:34:39Z</time>
      </trkpt>
      <trkpt lat="43.30961" lon="2.21504">
        <ele>175.4</ele>
        <time>2024-05-11T08:34:40Z</time>
      </trkpt>
      <trkpt lat="43.30961" lon="2.21504">
        <ele>175.4</ele>
        <time>2024-05-11T08:34:41Z</time>
      </trkpt>
      <trkpt lat="43.30961" lon="2.21504">
        <ele>175.4</ele>
        <time>2024-05-11T08:34:42Z</time>
      </trkpt>
      <trkpt lat="43.30961" lon="2.21504">
        <ele>175.4</ele>
        <time>2024-05-11T08:34:43Z</time>
      </trkpt>
      <trkpt lat="43.30961" lon="2.21504">
        <ele>175.4</ele>
        <time>2024-05-11T08:34:44Z</time>
      </trkpt>
      <trkpt lat="43.30961" lon="2.21504">
        <ele>175.4</ele>
        <time>2024-05-11T08:34:45Z</time>
      </trkpt>
      <trkpt lat="43.30961" lon="2.21504">
        <ele>175.4</ele>
        <time>2024-05-11T08:34:46Z</time>
      </trkpt>
      <trkpt lat="43.30961" lon="2.21504">
        <ele>175.4</ele>
        <time>2024-05-11T08:34:47Z</time>
      </trkpt>
      <trkpt lat="43.30961" lon="2.21504">
        <ele>175.4</ele>
        <time>2024-05-11T08:34:48Z</time>
      </trkpt>
      <trkpt lat="43.30961" lon="2.21504">
        <ele>175.4</ele>
        <time>2024-05-11T08:34:49Z</time>
      </trkpt>
      <trkpt lat="43.30961" lon="2.21504">
        <ele>175.4</ele>
        <time>2024-05-11T08:34:50Z</time>
      </trkpt>
      <trkpt lat="43.30961" lon="2.21504">
        <ele>175.4</ele>
        <time>2024-05-11T08:34:51Z</time>
      </trkpt>
      <trkpt lat="43.30961" lon="2.21504">
        <ele>175.4</ele>
        <time>2024-05-11T08:34:52Z</time>
      </trkpt>
      <trkpt lat="43.30961" lon="2.21504">
        <ele>175.4</ele>
        <time>2024-05-11T08:34:53Z</time>
      </trkpt>
      <trkpt lat="43.30961" lon="2.21504">
        <ele>175.4</ele>
        <time>2024-05-11T08:34:54Z</time>
      </trkpt>
      <trkpt lat="43.30961" lon="2.21504">
        <ele>175.4</ele>
        <time>2024-05-11T08:34:55Z</time>
      </trkpt>
      <trkpt lat="43.30961" lon="2.21504">
        <ele>175.4</ele>
        <time>2024-05-11T08:34:56Z</time>
      </trkpt>
      <trkpt lat="43.30961" lon="2.21504">
        <ele>175.4</ele>
        <time>2024-05-11T08:34:57Z</time>
      </trkpt>
      <trkpt lat="43.30961" lon="2.21504">
        <ele>175.4</ele>
        <time>2024-05-11T08:34:58Z</time>
      </trkpt>
      <trkpt lat="43.30961" lon="2.21504">
        <ele>175.4</ele>
        <time>2024-05-11T08:34:59Z</time>
      </trkpt>
      <trkpt lat="43.30961" lon="2.21504">
        <ele>175.4</ele>
        <time>2024-05-11T08:35:00Z</time>
      </trkpt>
      <trkpt lat="43.30961" lon="2.21502">
        <ele>175.5</ele>
        <time>2024-05-11T08:35:01Z</time>
      </trkpt>
      <trkpt lat="43.3096" lon="2.21499">
        <ele>175.6</ele>
        <time>2024-05-11T08:35:02Z</time>
      </trkpt>
      <trkpt lat="43.30961" lon="2.21494">
        <ele>175.9</ele>
        <time>2024-05-11T08:35:03Z</time>
      </trkpt>
      <trkpt lat="43.30963" lon="2.21489">
        <ele>176.2</ele>
        <time>2024-05-11T08:35:04Z</time>
      </trkpt>
      <trkpt lat="43.3097" lon="2.21485">
        <ele>176.9</ele>
        <time>2024-05-11T08:35:05Z</time>
      </trkpt>
      <trkpt lat="43.30975" lon="2.21479">
        <ele>177.7</ele>
        <time>2024-05-11T08:35:06Z</time>
      </trkpt>
      <trkpt lat="43.30979" lon="2.21473">
        <ele>178.4</ele>
        <time>2024-05-11T08:35:07Z</time>
      </trkpt>
      <trkpt lat="43.30983" lon="2.21465">
        <ele>178.9</ele>
        <time>2024-05-11T08:35:08Z</time>
      </trkpt>
      <trkpt lat="43.30987" lon="2.21458">
        <ele>179.3</ele>
        <time>2024-05-11T08:35:09Z</time>
      </trkpt>
      <trkpt lat="43.3099" lon="2.21452">
        <ele>179.5</ele>
        <time>2024-05-11T08:35:10Z</time>
      </trkpt>
      <trkpt lat="43.30994" lon="2.21448">
        <ele>179.8</ele>
        <time>2024-05-11T08:35:11Z</time>
      </trkpt>
      <trkpt lat="43.30998" lon="2.21446">
        <ele>179.9</ele>
        <time>2024-05-11T08:35:12Z</time>
      </trkpt>
      <trkpt lat="43.31002" lon="2.21445">
        <ele>180.1</ele>
        <time>2024-05-11T08:35:13Z</time>
      </trkpt>
      <trkpt lat="43.31007" lon="2.21446">
        <ele>180.5</ele>
        <time>2024-05-11T08:35:14Z</time>
      </trkpt>
      <trkpt lat="43.31013" lon="2.21447">
        <ele>180.8</ele>
        <time>2024-05-11T08:35:15Z</time>
      </trkpt>
      <trkpt lat="43.3102" lon="2.21445">
        <ele>181.4</ele>
        <time>2024-05-11T08:35:16Z</time>
      </trkpt>
      <trkpt lat="43.31031" lon="2.21446">
        <ele>181.9</ele>
        <time>2024-05-11T08:35:17Z</time>
      </trkpt>
      <trkpt lat="43.31039" lon="2.21446">
        <ele>182</ele>
        <time>2024-05-11T08:35:18Z</time>
      </trkpt>
      <trkpt lat="43.31046" lon="2.21446">
        <ele>182</ele>
        <time>2024-05-11T08:35:19Z</time>
      </trkpt>
      <trkpt lat="43.31052" lon="2.21445">
        <ele>182</ele>
        <time>2024-05-11T08:35:20Z</time>
      </trkpt>
      <trkpt lat="43.31058" lon="2.21445">
        <ele>182.1</ele>
        <time>2024-05-11T08:35:21Z</time>
      </trkpt>
      <trkpt lat="43.31062" lon="2.21445">
        <ele>182.2</ele>
        <time>2024-05-11T08:35:22Z</time>
      </trkpt>
      <trkpt lat="43.31066" lon="2.21444">
        <ele>182.4</ele>
        <time>2024-05-11T08:35:23Z</time>
      </trkpt>
      <trkpt lat="43.3107" lon="2.21442">
        <ele>182.5</ele>
        <time>2024-05-11T08:35:24Z</time>
      </trkpt>
      <trkpt lat="43.31073" lon="2.2144">
        <ele>182.6</ele>
        <time>2024-05-11T08:35:25Z</time>
      </trkpt>
      <trkpt lat="43.31076" lon="2.21436">
        <ele>182.6</ele>
        <time>2024-05-11T08:35:26Z</time>
      </trkpt>
      <trkpt lat="43.31078" lon="2.21432">
        <ele>182.5</ele>
        <time>2024-05-11T08:35:27Z</time>
      </trkpt>
      <trkpt lat="43.31082" lon="2.21429">
        <ele>182.4</ele>
        <time>2024-05-11T08:35:28Z</time>
      </trkpt>
      <trkpt lat="43.31084" lon="2.21427">
        <ele>182.3</ele>
        <time>2024-05-11T08:35:29Z</time>
      </trkpt>
      <trkpt lat="43.31087" lon="2.21427">
        <ele>182</ele>
        <time>2024-05-11T08:35:30Z</time>
      </trkpt>
      <trkpt lat="43.31091" lon="2.21429">
        <ele>181.8</ele>
        <time>2024-05-11T08:35:31Z</time>
      </trkpt>
      <trkpt lat="43.31097" lon="2.21434">
        <ele>181.9</ele>
        <time>2024-05-11T08:35:32Z</time>
      </trkpt>
      <trkpt lat="43.31103" lon="2.21438">
        <ele>182.1</ele>
        <time>2024-05-11T08:35:33Z</time>
      </trkpt>
      <trkpt lat="43.31107" lon="2.21443">
        <ele>182.8</ele>
        <time>2024-05-11T08:35:34Z</time>
      </trkpt>
      <trkpt lat="43.3111" lon="2.21446">
        <ele>183.1</ele>
        <time>2024-05-11T08:35:35Z</time>
      </trkpt>
      <trkpt lat="43.31113" lon="2.21449">
        <ele>182.9</ele>
        <time>2024-05-11T08:35:36Z</time>
      </trkpt>
      <trkpt lat="43.31115" lon="2.2145">
        <ele>182.6</ele>
        <time>2024-05-11T08:35:37Z</time>
      </trkpt>
      <trkpt lat="43.31119" lon="2.21454">
        <ele>182.4</ele>
        <time>2024-05-11T08:35:38Z</time>
      </trkpt>
      <trkpt lat="43.31124" lon="2.21458">
        <ele>182.3</ele>
        <time>2024-05-11T08:35:39Z</time>
      </trkpt>
      <trkpt lat="43.31128" lon="2.21461">
        <ele>182.4</ele>
        <time>2024-05-11T08:35:40Z</time>
      </trkpt>
      <trkpt lat="43.31132" lon="2.21464">
        <ele>182.6</ele>
        <time>2024-05-11T08:35:41Z</time>
      </trkpt>
      <trkpt lat="43.31136" lon="2.21468">
        <ele>183.2</ele>
        <time>2024-05-11T08:35:42Z</time>
      </trkpt>
      <trkpt lat="43.3114" lon="2.21472">
        <ele>183.7</ele>
        <time>2024-05-11T08:35:43Z</time>
      </trkpt>
      <trkpt lat="43.31143" lon="2.21476">
        <ele>183.5</ele>
        <time>2024-05-11T08:35:44Z</time>
      </trkpt>
      <trkpt lat="43.31146" lon="2.21479">
        <ele>183.4</ele>
        <time>2024-05-11T08:35:45Z</time>
      </trkpt>
      <trkpt lat="43.31149" lon="2.21483">
        <ele>183.6</ele>
        <time>2024-05-11T08:35:46Z</time>
      </trkpt>
      <trkpt lat="43.31152" lon="2.21485">
        <ele>183.6</ele>
        <time>2024-05-11T08:35:47Z</time>
      </trkpt>
      <trkpt lat="43.31154" lon="2.21488">
        <ele>184</ele>
        <time>2024-05-11T08:35:48Z</time>
      </trkpt>
      <trkpt lat="43.31156" lon="2.21491">
        <ele>184.5</ele>
        <time>2024-05-11T08:35:49Z</time>
      </trkpt>
      <trkpt lat="43.31158" lon="2.21494">
        <ele>185.1</ele>
        <time>2024-05-11T08:35:50Z</time>
      </trkpt>
      <trkpt lat="43.3116" lon="2.21496">
        <ele>185.6</ele>
        <time>2024-05-11T08:35:51Z</time>
      </trkpt>
      <trkpt lat="43.31164" lon="2.21494">
        <ele>185.2</ele>
        <time>2024-05-11T08:35:52Z</time>
      </trkpt>
      <trkpt lat="43.31166" lon="2.2149">
        <ele>184.1</ele>
        <time>2024-05-11T08:35:53Z</time>
      </trkpt>
      <trkpt lat="43.31168" lon="2.21485">
        <ele>182.4</ele>
        <time>2024-05-11T08:35:54Z</time>
      </trkpt>
      <trkpt lat="43.31169" lon="2.21479">
        <ele>180.4</ele>
        <time>2024-05-11T08:35:55Z</time>
      </trkpt>
      <trkpt lat="43.31172" lon="2.21471">
        <ele>176.7</ele>
        <time>2024-05-11T08:35:56Z</time>
      </trkpt>
      <trkpt lat="43.31174" lon="2.21463">
        <ele>172.3</ele>
        <time>2024-05-11T08:35:57Z</time>
      </trkpt>
      <trkpt lat="43.31177" lon="2.21455">
        <ele>168.2</ele>
        <time>2024-05-11T08:35:58Z</time>
      </trkpt>
      <trkpt lat="43.31179" lon="2.21448">
        <ele>165</ele>
        <time>2024-05-11T08:35:59Z</time>
      </trkpt>
      <trkpt lat="43.31182" lon="2.21442">
        <ele>164.1</ele>
        <time>2024-05-11T08:36:00Z</time>
      </trkpt>
      <trkpt lat="43.31184" lon="2.21436">
        <ele>166.1</ele>
        <time>2024-05-11T08:36:01Z</time>
      </trkpt>
      <trkpt lat="43.31186" lon="2.21429">
        <ele>169</ele>
        <time>2024-05-11T08:36:02Z</time>
      </trkpt>
      <trkpt lat="43.31189" lon="2.2142">
        <ele>174</ele>
        <time>2024-05-11T08:36:03Z</time>
      </trkpt>
      <trkpt lat="43.31192" lon="2.2141">
        <ele>180.1</ele>
        <time>2024-05-11T08:36:04Z</time>
      </trkpt>
      <trkpt lat="43.31195" lon="2.21399">
        <ele>186</ele>
        <time>2024-05-11T08:36:05Z</time>
      </trkpt>
      <trkpt lat="43.31198" lon="2.21385">
        <ele>190.6</ele>
        <time>2024-05-11T08:36:06Z</time>
      </trkpt>
      <trkpt lat="43.312" lon="2.21369">
        <ele>192.1</ele>
        <time>2024-05-11T08:36:07Z</time>
      </trkpt>
      <trkpt lat="43.31202" lon="2.21353">
        <ele>193.5</ele>
        <time>2024-05-11T08:36:08Z</time>
      </trkpt>
      <trkpt lat="43.31204" lon="2.21338">
        <ele>194.5</ele>
        <time>2024-05-11T08:36:09Z</time>
      </trkpt>
      <trkpt lat="43.31207" lon="2.21323">
        <ele>195.1</ele>
        <time>2024-05-11T08:36:10Z</time>
      </trkpt>
      <trkpt lat="43.31211" lon="2.21306">
        <ele>195.4</ele>
        <time>2024-05-11T08:36:11Z</time>
      </trkpt>
      <trkpt lat="43.31217" lon="2.2129">
        <ele>197.8</ele>
        <time>2024-05-11T08:36:12Z</time>
      </trkpt>
      <trkpt lat="43.31225" lon="2.21275">
        <ele>199.6</ele>
        <time>2024-05-11T08:36:13Z</time>
      </trkpt>
      <trkpt lat="43.31234" lon="2.21259">
        <ele>202.3</ele>
        <time>2024-05-11T08:36:14Z</time>
      </trkpt>
      <trkpt lat="43.31245" lon="2.21244">
        <ele>204.6</ele>
        <time>2024-05-11T08:36:15Z</time>
      </trkpt>
      <trkpt lat="43.31258" lon="2.2123">
        <ele>205.7</ele>
        <time>2024-05-11T08:36:16Z</time>
      </trkpt>
      <trkpt lat="43.31271" lon="2.21217">
        <ele>206.8</ele>
        <time>2024-05-11T08:36:17Z</time>
      </trkpt>
      <trkpt lat="43.31283" lon="2.21208">
        <ele>208</ele>
        <time>2024-05-11T08:36:18Z</time>
      </trkpt>
      <trkpt lat="43.31295" lon="2.212">
        <ele>208.8</ele>
        <time>2024-05-11T08:36:19Z</time>
      </trkpt>
      <trkpt lat="43.31305" lon="2.21192">
        <ele>209.3</ele>
        <time>2024-05-11T08:36:20Z</time>
      </trkpt>
      <trkpt lat="43.31315" lon="2.21186">
        <ele>211.3</ele>
        <time>2024-05-11T08:36:21Z</time>
      </trkpt>
      <trkpt lat="43.31324" lon="2.2118">
        <ele>212.3</ele>
        <time>2024-05-11T08:36:22Z</time>
      </trkpt>
      <trkpt lat="43.31333" lon="2.21173">
        <ele>212.5</ele>
        <time>2024-05-11T08:36:23Z</time>
      </trkpt>
      <trkpt lat="43.31341" lon="2.21168">
        <ele>213.2</ele>
        <time>2024-05-11T08:36:24Z</time>
      </trkpt>
      <trkpt lat="43.31349" lon="2.21163">
        <ele>214.4</ele>
        <time>2024-05-11T08:36:25Z</time>
      </trkpt>
      <trkpt lat="43.31357" lon="2.21158">
        <ele>215.5</ele>
        <time>2024-05-11T08:36:26Z</time>
      </trkpt>
      <trkpt lat="43.31366" lon="2.21153">
        <ele>216.3</ele>
        <time>2024-05-11T08:36:27Z</time>
      </trkpt>
      <trkpt lat="43.31375" lon="2.21147">
        <ele>216.6</ele>
        <time>2024-05-11T08:36:28Z</time>
      </trkpt>
      <trkpt lat="43.31386" lon="2.21141">
        <ele>217</ele>
        <time>2024-05-11T08:36:29Z</time>
      </trkpt>
      <trkpt lat="43.31397" lon="2.21134">
        <ele>218.1</ele>
        <time>2024-05-11T08:36:30Z</time>
      </trkpt>
      <trkpt lat="43.31408" lon="2.21127">
        <ele>219.3</ele>
        <time>2024-05-11T08:36:31Z</time>
      </trkpt>
      <trkpt lat="43.31419" lon="2.21119">
        <ele>220.1</ele>
        <time>2024-05-11T08:36:32Z</time>
      </trkpt>
      <trkpt lat="43.3143" lon="2.2111">
        <ele>221</ele>
        <time>2024-05-11T08:36:33Z</time>
      </trkpt>
      <trkpt lat="43.31439" lon="2.211">
        <ele>221.7</ele>
        <time>2024-05-11T08:36:34Z</time>
      </trkpt>
      <trkpt lat="43.31447" lon="2.21088">
        <ele>222.1</ele>
        <time>2024-05-11T08:36:35Z</time>
      </trkpt>
      <trkpt lat="43.31455" lon="2.21072">
        <ele>222.6</ele>
        <time>2024-05-11T08:36:36Z</time>
      </trkpt>
      <trkpt lat="43.31463" lon="2.21054">
        <ele>223</ele>
        <time>2024-05-11T08:36:37Z</time>
      </trkpt>
      <trkpt lat="43.31471" lon="2.21034">
        <ele>223.7</ele>
        <time>2024-05-11T08:36:38Z</time>
      </trkpt>
      <trkpt lat="43.31478" lon="2.21016">
        <ele>224.6</ele>
        <time>2024-05-11T08:36:39Z</time>
      </trkpt>
      <trkpt lat="43.31483" lon="2.21006">
        <ele>225.2</ele>
        <time>2024-05-11T08:36:40Z</time>
      </trkpt>
      <trkpt lat="43.31486" lon="2.21">
        <ele>225.5</ele>
        <time>2024-05-11T08:36:41Z</time>
      </trkpt>
      <trkpt lat="43.31488" lon="2.20995">
        <ele>225.7</ele>
        <time>2024-05-11T08:36:42Z</time>
      </trkpt>
      <trkpt lat="43.3149" lon="2.20991">
        <ele>226</ele>
        <time>2024-05-11T08:36:43Z</time>
      </trkpt>
      <trkpt lat="43.31492" lon="2.20987">
        <ele>226.2</ele>
        <time>2024-05-11T08:36:44Z</time>
      </trkpt>
      <trkpt lat="43.31495" lon="2.2098">
        <ele>226.5</ele>
        <time>2024-05-11T08:36:45Z</time>
      </trkpt>
      <trkpt lat="43.31499" lon="2.20971">
        <ele>227</ele>
        <time>2024-05-11T08:36:46Z</time>
      </trkpt>
      <trkpt lat="43.31503" lon="2.20961">
        <ele>227</ele>
        <time>2024-05-11T08:36:47Z</time>
      </trkpt>
      <trkpt lat="43.31508" lon="2.20952">
        <ele>227.2</ele>
        <time>2024-05-11T08:36:48Z</time>
      </trkpt>
      <trkpt lat="43.31511" lon="2.20944">
        <ele>227.4</ele>
        <time>2024-05-11T08:36:49Z</time>
      </trkpt>
      <trkpt lat="43.31515" lon="2.20936">
        <ele>227.8</ele>
        <time>2024-05-11T08:36:50Z</time>
      </trkpt>
      <trkpt lat="43.31517" lon="2.2093">
        <ele>228.1</ele>
        <time>2024-05-11T08:36:51Z</time>
      </trkpt>
      <trkpt lat="43.3152" lon="2.20925">
        <ele>228.4</ele>
        <time>2024-05-11T08:36:52Z</time>
      </trkpt>
      <trkpt lat="43.31522" lon="2.2092">
        <ele>228.7</ele>
        <time>2024-05-11T08:36:53Z</time>
      </trkpt>
      <trkpt lat="43.31525" lon="2.20913">
        <ele>229</ele>
        <time>2024-05-11T08:36:54Z</time>
      </trkpt>
      <trkpt lat="43.31528" lon="2.20905">
        <ele>229.4</ele>
        <time>2024-05-11T08:36:55Z</time>
      </trkpt>
      <trkpt lat="43.31533" lon="2.20896">
        <ele>229.8</ele>
        <time>2024-05-11T08:36:56Z</time>
      </trkpt>
      <trkpt lat="43.31538" lon="2.20885">
        <ele>230.2</ele>
        <time>2024-05-11T08:36:57Z</time>
      </trkpt>
      <trkpt lat="43.31543" lon="2.20874">
        <ele>230.8</ele>
        <time>2024-05-11T08:36:58Z</time>
      </trkpt>
      <trkpt lat="43.31548" lon="2.20863">
        <ele>231.6</ele>
        <time>2024-05-11T08:36:59Z</time>
      </trkpt>
      <trkpt lat="43.31554" lon="2.20851">
        <ele>231.9</ele>
        <time>2024-05-11T08:37:00Z</time>
      </trkpt>
      <trkpt lat="43.3156" lon="2.20837">
        <ele>232.3</ele>
        <time>2024-05-11T08:37:01Z</time>
      </trkpt>
      <trkpt lat="43.31567" lon="2.20822">
        <ele>233.5</ele>
        <time>2024-05-11T08:37:02Z</time>
      </trkpt>
      <trkpt lat="43.31574" lon="2.20807">
        <ele>234.6</ele>
        <time>2024-05-11T08:37:03Z</time>
      </trkpt>
      <trkpt lat="43.31582" lon="2.20791">
        <ele>235.5</ele>
        <time>2024-05-11T08:37:04Z</time>
      </trkpt>
      <trkpt lat="43.31589" lon="2.20774">
        <ele>236.3</ele>
        <time>2024-05-11T08:37:05Z</time>
      </trkpt>
      <trkpt lat="43.31596" lon="2.2076">
        <ele>237.1</ele>
        <time>2024-05-11T08:37:06Z</time>
      </trkpt>
      <trkpt lat="43.31603" lon="2.20746">
        <ele>238</ele>
        <time>2024-05-11T08:37:07Z</time>
      </trkpt>
      <trkpt lat="43.3161" lon="2.20734">
        <ele>239.1</ele>
        <time>2024-05-11T08:37:08Z</time>
      </trkpt>
      <trkpt lat="43.31617" lon="2.20722">
        <ele>240.2</ele>
        <time>2024-05-11T08:37:09Z</time>
      </trkpt>
      <trkpt lat="43.31625" lon="2.20709">
        <ele>241</ele>
        <time>2024-05-11T08:37:10Z</time>
      </trkpt>
      <trkpt lat="43.31634" lon="2.20695">
        <ele>241.8</ele>
        <time>2024-05-11T08:37:11Z</time>
      </trkpt>
      <trkpt lat="43.31643" lon="2.20682">
        <ele>242.9</ele>
        <time>2024-05-11T08:37:12Z</time>
      </trkpt>
      <trkpt lat="43.31652" lon="2.20668">
        <ele>243.9</ele>
        <time>2024-05-11T08:37:13Z</time>
      </trkpt>
      <trkpt lat="43.31662" lon="2.20652">
        <ele>244.4</ele>
        <time>2024-05-11T08:37:14Z</time>
      </trkpt>
      <trkpt lat="43.31673" lon="2.20636">
        <ele>245.1</ele>
        <time>2024-05-11T08:37:15Z</time>
      </trkpt>
      <trkpt lat="43.31684" lon="2.2062">
        <ele>245.7</ele>
        <time>2024-05-11T08:37:16Z</time>
      </trkpt>
      <trkpt lat="43.31696" lon="2.20603">
        <ele>246.3</ele>
        <time>2024-05-11T08:37:17Z</time>
      </trkpt>
      <trkpt lat="43.31708" lon="2.20587">
        <ele>247.4</ele>
        <time>2024-05-11T08:37:18Z</time>
      </trkpt>
      <trkpt lat="43.31719" lon="2.20571">
        <ele>248.3</ele>
        <time>2024-05-11T08:37:19Z</time>
      </trkpt>
      <trkpt lat="43.31731" lon="2.20556">
        <ele>249.3</ele>
        <time>2024-05-11T08:37:20Z</time>
      </trkpt>
      <trkpt lat="43.31743" lon="2.20539">
        <ele>250.3</ele>
        <time>2024-05-11T08:37:21Z</time>
      </trkpt>
      <trkpt lat="43.31755" lon="2.20522">
        <ele>251.2</ele>
        <time>2024-05-11T08:37:22Z</time>
      </trkpt>
      <trkpt lat="43.31768" lon="2.20504">
        <ele>252.4</ele>
        <time>2024-05-11T08:37:23Z</time>
      </trkpt>
      <trkpt lat="43.31781" lon="2.20486">
        <ele>253.4</ele>
        <time>2024-05-11T08:37:24Z</time>
      </trkpt>
      <trkpt lat="43.31794" lon="2.20468">
        <ele>254.2</ele>
        <time>2024-05-11T08:37:25Z</time>
      </trkpt>
      <trkpt lat="43.31807" lon="2.20449">
        <ele>255.7</ele>
        <time>2024-05-11T08:37:26Z</time>
      </trkpt>
      <trkpt lat="43.3182" lon="2.20429">
        <ele>257.1</ele>
        <time>2024-05-11T08:37:27Z</time>
      </trkpt>
      <trkpt lat="43.31834" lon="2.2041">
        <ele>258.7</ele>
        <time>2024-05-11T08:37:28Z</time>
      </trkpt>
      <trkpt lat="43.31848" lon="2.20391">
        <ele>260.2</ele>
        <time>2024-05-11T08:37:29Z</time>
      </trkpt>
      <trkpt lat="43.31862" lon="2.20371">
        <ele>261.9</ele>
        <time>2024-05-11T08:37:30Z</time>
      </trkpt>
      <trkpt lat="43.31876" lon="2.20352">
        <ele>263.5</ele>
        <time>2024-05-11T08:37:31Z</time>
      </trkpt>
      <trkpt lat="43.3189" lon="2.20332">
        <ele>266.1</ele>
        <time>2024-05-11T08:37:32Z</time>
      </trkpt>
      <trkpt lat="43.31904" lon="2.20312">
        <ele>267.4</ele>
        <time>2024-05-11T08:37:33Z</time>
      </trkpt>
      <trkpt lat="43.31918" lon="2.20292">
        <ele>269.5</ele>
        <time>2024-05-11T08:37:34Z</time>
      </trkpt>
      <trkpt lat="43.31933" lon="2.20272">
        <ele>271.6</ele>
        <time>2024-05-11T08:37:35Z</time>
      </trkpt>
      <trkpt lat="43.31947" lon="2.20253">
        <ele>273.7</ele>
        <time>2024-05-11T08:37:36Z</time>
      </trkpt>
      <trkpt lat="43.31962" lon="2.20233">
        <ele>275.4</ele>
        <time>2024-05-11T08:37:37Z</time>
      </trkpt>
      <trkpt lat="43.31976" lon="2.20213">
        <ele>277.4</ele>
        <time>2024-05-11T08:37:38Z</time>
      </trkpt>
      <trkpt lat="43.31991" lon="2.20193">
        <ele>279.5</ele>
        <time>2024-05-11T08:37:39Z</time>
      </trkpt>
      <trkpt lat="43.32005" lon="2.20173">
        <ele>281.4</ele>
        <time>2024-05-11T08:37:40Z</time>
      </trkpt>
      <trkpt lat="43.3202" lon="2.20153">
        <ele>283.5</ele>
        <time>2024-05-11T08:37:41Z</time>
      </trkpt>
      <trkpt lat="43.32034" lon="2.20133">
        <ele>285.2</ele>
        <time>2024-05-11T08:37:42Z</time>
      </trkpt>
      <trkpt lat="43.32049" lon="2.20113">
        <ele>285.9</ele>
        <time>2024-05-11T08:37:43Z</time>
      </trkpt>
      <trkpt lat="43.32063" lon="2.20092">
        <ele>287.5</ele>
        <time>2024-05-11T08:37:44Z</time>
      </trkpt>
      <trkpt lat="43.32078" lon="2.20071">
        <ele>288.4</ele>
        <time>2024-05-11T08:37:45Z</time>
      </trkpt>
      <trkpt lat="43.32093" lon="2.2005">
        <ele>289</ele>
        <time>2024-05-11T08:37:46Z</time>
      </trkpt>
      <trkpt lat="43.32107" lon="2.20029">
        <ele>289</ele>
        <time>2024-05-11T08:37:47Z</time>
      </trkpt>
      <trkpt lat="43.32122" lon="2.20009">
        <ele>288.6</ele>
        <time>2024-05-11T08:37:48Z</time>
      </trkpt>
      <trkpt lat="43.32137" lon="2.19989">
        <ele>288</ele>
        <time>2024-05-11T08:37:49Z</time>
      </trkpt>
      <trkpt lat="43.32154" lon="2.19973">
        <ele>286.9</ele>
        <time>2024-05-11T08:37:50Z</time>
      </trkpt>
      <trkpt lat="43.32172" lon="2.19959">
        <ele>285.7</ele>
        <time>2024-05-11T08:37:51Z</time>
      </trkpt>
      <trkpt lat="43.32193" lon="2.19947">
        <ele>284.2</ele>
        <time>2024-05-11T08:37:52Z</time>
      </trkpt>
      <trkpt lat="43.32214" lon="2.19936">
        <ele>283.3</ele>
        <time>2024-05-11T08:37:53Z</time>
      </trkpt>
      <trkpt lat="43.32235" lon="2.19925">
        <ele>282.4</ele>
        <time>2024-05-11T08:37:54Z</time>
      </trkpt>
      <trkpt lat="43.32257" lon="2.19912">
        <ele>281.7</ele>
        <time>2024-05-11T08:37:55Z</time>
      </trkpt>
      <trkpt lat="43.32279" lon="2.199">
        <ele>280.9</ele>
        <time>2024-05-11T08:37:56Z</time>
      </trkpt>
      <trkpt lat="43.32302" lon="2.19888">
        <ele>280.1</ele>
        <time>2024-05-11T08:37:57Z</time>
      </trkpt>
      <trkpt lat="43.32325" lon="2.19875">
        <ele>279.3</ele>
        <time>2024-05-11T08:37:58Z</time>
      </trkpt>
      <trkpt lat="43.32348" lon="2.19862">
        <ele>278.5</ele>
        <time>2024-05-11T08:37:59Z</time>
      </trkpt>
      <trkpt lat="43.32371" lon="2.19849">
        <ele>278</ele>
        <time>2024-05-11T08:38:00Z</time>
      </trkpt>
      <trkpt lat="43.32394" lon="2.19837">
        <ele>278</ele>
        <time>2024-05-11T08:38:01Z</time>
      </trkpt>
      <trkpt lat="43.32417" lon="2.19824">
        <ele>277.7</ele>
        <time>2024-05-11T08:38:02Z</time>
      </trkpt>
      <trkpt lat="43.3244" lon="2.19812">
        <ele>277.9</ele>
        <time>2024-05-11T08:38:03Z</time>
      </trkpt>
      <trkpt lat="43.32463" lon="2.19801">
        <ele>278.5</ele>
        <time>2024-05-11T08:38:04Z</time>
      </trkpt>
      <trkpt lat="43.32485" lon="2.19789">
        <ele>279.3</ele>
        <time>2024-05-11T08:38:05Z</time>
      </trkpt>
      <trkpt lat="43.32507" lon="2.19777">
        <ele>280</ele>
        <time>2024-05-11T08:38:06Z</time>
      </trkpt>
      <trkpt lat="43.32528" lon="2.19762">
        <ele>279.4</ele>
        <time>2024-05-11T08:38:07Z</time>
      </trkpt>
      <trkpt lat="43.32547" lon="2.19744">
        <ele>278.9</ele>
        <time>2024-05-11T08:38:08Z</time>
      </trkpt>
      <trkpt lat="43.32566" lon="2.19726">
        <ele>279</ele>
        <time>2024-05-11T08:38:09Z</time>
      </trkpt>
      <trkpt lat="43.32585" lon="2.19706">
        <ele>279.6</ele>
        <time>2024-05-11T08:38:10Z</time>
      </trkpt>
      <trkpt lat="43.32603" lon="2.19686">
        <ele>280.1</ele>
        <time>2024-05-11T08:38:11Z</time>
      </trkpt>
      <trkpt lat="43.32619" lon="2.19664">
        <ele>280.7</ele>
        <time>2024-05-11T08:38:12Z</time>
      </trkpt>
      <trkpt lat="43.32633" lon="2.19639">
        <ele>280.8</ele>
        <time>2024-05-11T08:38:13Z</time>
      </trkpt>
      <trkpt lat="43.32646" lon="2.19612">
        <ele>282</ele>
        <time>2024-05-11T08:38:14Z</time>
      </trkpt>
      <trkpt lat="43.32658" lon="2.19585">
        <ele>282.9</ele>
        <time>2024-05-11T08:38:15Z</time>
      </trkpt>
      <trkpt lat="43.3267" lon="2.19557">
        <ele>284.9</ele>
        <time>2024-05-11T08:38:16Z</time>
      </trkpt>
      <trkpt lat="43.32683" lon="2.19529">
        <ele>286</ele>
        <time>2024-05-11T08:38:17Z</time>
      </trkpt>
      <trkpt lat="43.32696" lon="2.19501">
        <ele>287.9</ele>
        <time>2024-05-11T08:38:18Z</time>
      </trkpt>
      <trkpt lat="43.32709" lon="2.19472">
        <ele>290</ele>
        <time>2024-05-11T08:38:19Z</time>
      </trkpt>
      <trkpt lat="43.32722" lon="2.19443">
        <ele>292</ele>
        <time>2024-05-11T08:38:20Z</time>
      </trkpt>
      <trkpt lat="43.32735" lon="2.19414">
        <ele>293.1</ele>
        <time>2024-05-11T08:38:21Z</time>
      </trkpt>
      <trkpt lat="43.32748" lon="2.19384">
        <ele>294.9</ele>
        <time>2024-05-11T08:38:22Z</time>
      </trkpt>
      <trkpt lat="43.32761" lon="2.19354">
        <ele>295.9</ele>
        <time>2024-05-11T08:38:23Z</time>
      </trkpt>
      <trkpt lat="43.32775" lon="2.19324">
        <ele>297.7</ele>
        <time>2024-05-11T08:38:24Z</time>
      </trkpt>
      <trkpt lat="43.32791" lon="2.19297">
        <ele>298.8</ele>
        <time>2024-05-11T08:38:25Z</time>
      </trkpt>
      <trkpt lat="43.32809" lon="2.19271">
        <ele>299.9</ele>
        <time>2024-05-11T08:38:26Z</time>
      </trkpt>
      <trkpt lat="43.32828" lon="2.19246">
        <ele>301.4</ele>
        <time>2024-05-11T08:38:27Z</time>
      </trkpt>
      <trkpt lat="43.32846" lon="2.19221">
        <ele>302.9</ele>
        <time>2024-05-11T08:38:28Z</time>
      </trkpt>
      <trkpt lat="43.32865" lon="2.19195">
        <ele>304.3</ele>
        <time>2024-05-11T08:38:29Z</time>
      </trkpt>
      <trkpt lat="43.32883" lon="2.1917">
        <ele>305.4</ele>
        <time>2024-05-11T08:38:30Z</time>
      </trkpt>
      <trkpt lat="43.32902" lon="2.19145">
        <ele>306.9</ele>
        <time>2024-05-11T08:38:31Z</time>
      </trkpt>
      <trkpt lat="43.32921" lon="2.19121">
        <ele>308.3</ele>
        <time>2024-05-11T08:38:32Z</time>
      </trkpt>
      <trkpt lat="43.32942" lon="2.19099">
        <ele>309.4</ele>
        <time>2024-05-11T08:38:33Z</time>
      </trkpt>
      <trkpt lat="43.32964" lon="2.1908">
        <ele>310.4</ele>
        <time>2024-05-11T08:38:34Z</time>
      </trkpt>
      <trkpt lat="43.32987" lon="2.19064">
        <ele>312.1</ele>
        <time>2024-05-11T08:38:35Z</time>
      </trkpt>
      <trkpt lat="43.3301" lon="2.19049">
        <ele>313.8</ele>
        <time>2024-05-11T08:38:36Z</time>
      </trkpt>
      <trkpt lat="43.33034" lon="2.19034">
        <ele>316.1</ele>
        <time>2024-05-11T08:38:37Z</time>
      </trkpt>
      <trkpt lat="43.33057" lon="2.19019">
        <ele>317.4</ele>
        <time>2024-05-11T08:38:38Z</time>
      </trkpt>
      <trkpt lat="43.33081" lon="2.19004">
        <ele>318.9</ele>
        <time>2024-05-11T08:38:39Z</time>
      </trkpt>
      <trkpt lat="43.33104" lon="2.18989">
        <ele>320.2</ele>
        <time>2024-05-11T08:38:40Z</time>
      </trkpt>
      <trkpt lat="43.33128" lon="2.18973">
        <ele>321.2</ele>
        <time>2024-05-11T08:38:41Z</time>
      </trkpt>
      <trkpt lat="43.33152" lon="2.18958">
        <ele>322.9</ele>
        <time>2024-05-11T08:38:42Z</time>
      </trkpt>
      <trkpt lat="43.33176" lon="2.18943">
        <ele>324.7</ele>
        <time>2024-05-11T08:38:43Z</time>
      </trkpt>
      <trkpt lat="43.33199" lon="2.18928">
        <ele>326.3</ele>
        <time>2024-05-11T08:38:44Z</time>
      </trkpt>
      <trkpt lat="43.33223" lon="2.18914">
        <ele>328.1</ele>
        <time>2024-05-11T08:38:45Z</time>
      </trkpt>
      <trkpt lat="43.33246" lon="2.18899">
        <ele>329.7</ele>
        <time>2024-05-11T08:38:46Z</time>
      </trkpt>
      <trkpt lat="43.33269" lon="2.18883">
        <ele>331.4</ele>
        <time>2024-05-11T08:38:47Z</time>
      </trkpt>
      <trkpt lat="43.33293" lon="2.18868">
        <ele>333.1</ele>
        <time>2024-05-11T08:38:48Z</time>
      </trkpt>
      <trkpt lat="43.33317" lon="2.18853">
        <ele>334.5</ele>
        <time>2024-05-11T08:38:49Z</time>
      </trkpt>
      <trkpt lat="43.33341" lon="2.18838">
        <ele>336.1</ele>
        <time>2024-05-11T08:38:50Z</time>
      </trkpt>
      <trkpt lat="43.33365" lon="2.18823">
        <ele>337.2</ele>
        <time>2024-05-11T08:38:51Z</time>
      </trkpt>
      <trkpt lat="43.33389" lon="2.18808">
        <ele>338.9</ele>
        <time>2024-05-11T08:38:52Z</time>
      </trkpt>
      <trkpt lat="43.33412" lon="2.18792">
        <ele>340.2</ele>
        <time>2024-05-11T08:38:53Z</time>
      </trkpt>
      <trkpt lat="43.33436" lon="2.18778">
        <ele>342.4</ele>
        <time>2024-05-11T08:38:54Z</time>
      </trkpt>
      <trkpt lat="43.33459" lon="2.18763">
        <ele>344.3</ele>
        <time>2024-05-11T08:38:55Z</time>
      </trkpt>
      <trkpt lat="43.33481" lon="2.18748">
        <ele>345.6</ele>
        <time>2024-05-11T08:38:56Z</time>
      </trkpt>
      <trkpt lat="43.33503" lon="2.18733">
        <ele>347.2</ele>
        <time>2024-05-11T08:38:57Z</time>
      </trkpt>
      <trkpt lat="43.33525" lon="2.18719">
        <ele>348.8</ele>
        <time>2024-05-11T08:38:58Z</time>
      </trkpt>
      <trkpt lat="43.33546" lon="2.18706">
        <ele>350.7</ele>
        <time>2024-05-11T08:38:59Z</time>
      </trkpt>
      <trkpt lat="43.33567" lon="2.18693">
        <ele>352.4</ele>
        <time>2024-05-11T08:39:00Z</time>
      </trkpt>
      <trkpt lat="43.33588" lon="2.1868">
        <ele>353.9</ele>
        <time>2024-05-11T08:39:01Z</time>
      </trkpt>
      <trkpt lat="43.33608" lon="2.18667">
        <ele>355.8</ele>
        <time>2024-05-11T08:39:02Z</time>
      </trkpt>
      <trkpt lat="43.33628" lon="2.18653">
        <ele>356.9</ele>
        <time>2024-05-11T08:39:03Z</time>
      </trkpt>
      <trkpt lat="43.33649" lon="2.1864">
        <ele>358.7</ele>
        <time>2024-05-11T08:39:04Z</time>
      </trkpt>
      <trkpt lat="43.3367" lon="2.18627">
        <ele>360.7</ele>
        <time>2024-05-11T08:39:05Z</time>
      </trkpt>
      <trkpt lat="43.33691" lon="2.18614">
        <ele>362.6</ele>
        <time>2024-05-11T08:39:06Z</time>
      </trkpt>
      <trkpt lat="43.33713" lon="2.18601">
        <ele>364.6</ele>
        <time>2024-05-11T08:39:07Z</time>
      </trkpt>
      <trkpt lat="43.33735" lon="2.18587">
        <ele>366.4</ele>
        <time>2024-05-11T08:39:08Z</time>
      </trkpt>
      <trkpt lat="43.33757" lon="2.18572">
        <ele>367.9</ele>
        <time>2024-05-11T08:39:09Z</time>
      </trkpt>
      <trkpt lat="43.3378" lon="2.18557">
        <ele>370.1</ele>
        <time>2024-05-11T08:39:10Z</time>
      </trkpt>
      <trkpt lat="43.33802" lon="2.18543">
        <ele>372.2</ele>
        <time>2024-05-11T08:39:11Z</time>
      </trkpt>
      <trkpt lat="43.33824" lon="2.18528">
        <ele>373.7</ele>
        <time>2024-05-11T08:39:12Z</time>
      </trkpt>
      <trkpt lat="43.33846" lon="2.18514">
        <ele>375.2</ele>
        <time>2024-05-11T08:39:13Z</time>
      </trkpt>
      <trkpt lat="43.33868" lon="2.185">
        <ele>377.2</ele>
        <time>2024-05-11T08:39:14Z</time>
      </trkpt>
      <trkpt lat="43.33889" lon="2.18487">
        <ele>378.5</ele>
        <time>2024-05-11T08:39:15Z</time>
      </trkpt>
      <trkpt lat="43.33909" lon="2.18474">
        <ele>379.6</ele>
        <time>2024-05-11T08:39:16Z</time>
      </trkpt>
      <trkpt lat="43.33929" lon="2.18462">
        <ele>380.2</ele>
        <time>2024-05-11T08:39:17Z</time>
      </trkpt>
      <trkpt lat="43.33948" lon="2.18449">
        <ele>380.8</ele>
        <time>2024-05-11T08:39:18Z</time>
      </trkpt>
      <trkpt lat="43.33966" lon="2.18437">
        <ele>381</ele>
        <time>2024-05-11T08:39:19Z</time>
      </trkpt>
      <trkpt lat="43.33985" lon="2.18424">
        <ele>380.9</ele>
        <time>2024-05-11T08:39:20Z</time>
      </trkpt>
      <trkpt lat="43.34004" lon="2.18412">
        <ele>381</ele>
        <time>2024-05-11T08:39:21Z</time>
      </trkpt>
      <trkpt lat="43.34023" lon="2.18399">
        <ele>381.5</ele>
        <time>2024-05-11T08:39:22Z</time>
      </trkpt>
      <trkpt lat="43.34042" lon="2.18387">
        <ele>381.5</ele>
        <time>2024-05-11T08:39:23Z</time>
      </trkpt>
      <trkpt lat="43.34061" lon="2.18374">
        <ele>381.5</ele>
        <time>2024-05-11T08:39:24Z</time>
      </trkpt>
      <trkpt lat="43.34081" lon="2.1836">
        <ele>382</ele>
        <time>2024-05-11T08:39:25Z</time>
      </trkpt>
      <trkpt lat="43.34101" lon="2.18347">
        <ele>382.3</ele>
        <time>2024-05-11T08:39:26Z</time>
      </trkpt>
      <trkpt lat="43.34122" lon="2.18333">
        <ele>383</ele>
        <time>2024-05-11T08:39:27Z</time>
      </trkpt>
      <trkpt lat="43.34143" lon="2.18319">
        <ele>383.1</ele>
        <time>2024-05-11T08:39:28Z</time>
      </trkpt>
      <trkpt lat="43.34165" lon="2.18305">
        <ele>383.9</ele>
        <time>2024-05-11T08:39:29Z</time>
      </trkpt>
      <trkpt lat="43.34187" lon="2.1829">
        <ele>384.7</ele>
        <time>2024-05-11T08:39:30Z</time>
      </trkpt>
      <trkpt lat="43.34209" lon="2.18276">
        <ele>385.5</ele>
        <time>2024-05-11T08:39:31Z</time>
      </trkpt>
      <trkpt lat="43.34232" lon="2.18262">
        <ele>386.7</ele>
        <time>2024-05-11T08:39:32Z</time>
      </trkpt>
      <trkpt lat="43.34254" lon="2.18247">
        <ele>388</ele>
        <time>2024-05-11T08:39:33Z</time>
      </trkpt>
      <trkpt lat="43.34277" lon="2.18232">
        <ele>388.9</ele>
        <time>2024-05-11T08:39:34Z</time>
      </trkpt>
      <trkpt lat="43.34301" lon="2.18217">
        <ele>389.8</ele>
        <time>2024-05-11T08:39:35Z</time>
      </trkpt>
      <trkpt lat="43.34324" lon="2.18202">
        <ele>391.3</ele>
        <time>2024-05-11T08:39:36Z</time>
      </trkpt>
      <trkpt lat="43.34347" lon="2.18187">
        <ele>392.4</ele>
        <time>2024-05-11T08:39:37Z</time>
      </trkpt>
      <trkpt lat="43.34369" lon="2.18173">
        <ele>393.6</ele>
        <time>2024-05-11T08:39:38Z</time>
      </trkpt>
      <trkpt lat="43.3439" lon="2.18159">
        <ele>394.8</ele>
        <time>2024-05-11T08:39:39Z</time>
      </trkpt>
      <trkpt lat="43.34411" lon="2.18145">
        <ele>395.8</ele>
        <time>2024-05-11T08:39:40Z</time>
      </trkpt>
      <trkpt lat="43.34432" lon="2.18131">
        <ele>396.7</ele>
        <time>2024-05-11T08:39:41Z</time>
      </trkpt>
      <trkpt lat="43.34452" lon="2.18117">
        <ele>396.9</ele>
        <time>2024-05-11T08:39:42Z</time>
      </trkpt>
      <trkpt lat="43.34473" lon="2.18104">
        <ele>397.8</ele>
        <time>2024-05-11T08:39:43Z</time>
      </trkpt>
      <trkpt lat="43.34493" lon="2.1809">
        <ele>399.5</ele>
        <time>2024-05-11T08:39:44Z</time>
      </trkpt>
      <trkpt lat="43.34514" lon="2.18077">
        <ele>400.3</ele>
        <time>2024-05-11T08:39:45Z</time>
      </trkpt>
      <trkpt lat="43.34533" lon="2.18064">
        <ele>401.4</ele>
        <time>2024-05-11T08:39:46Z</time>
      </trkpt>
      <trkpt lat="43.34552" lon="2.18053">
        <ele>402.6</ele>
        <time>2024-05-11T08:39:47Z</time>
      </trkpt>
      <trkpt lat="43.34572" lon="2.18046">
        <ele>403.7</ele>
        <time>2024-05-11T08:39:48Z</time>
      </trkpt>
      <trkpt lat="43.34592" lon="2.18041">
        <ele>405.3</ele>
        <time>2024-05-11T08:39:49Z</time>
      </trkpt>
      <trkpt lat="43.34613" lon="2.18037">
        <ele>407.1</ele>
        <time>2024-05-11T08:39:50Z</time>
      </trkpt>
      <trkpt lat="43.34633" lon="2.18032">
        <ele>407.8</ele>
        <time>2024-05-11T08:39:51Z</time>
      </trkpt>
      <trkpt lat="43.34655" lon="2.18028">
        <ele>409.2</ele>
        <time>2024-05-11T08:39:52Z</time>
      </trkpt>
      <trkpt lat="43.34676" lon="2.18024">
        <ele>410.6</ele>
        <time>2024-05-11T08:39:53Z</time>
      </trkpt>
      <trkpt lat="43.34697" lon="2.1802">
        <ele>411.9</ele>
        <time>2024-05-11T08:39:54Z</time>
      </trkpt>
      <trkpt lat="43.34717" lon="2.18016">
        <ele>413.5</ele>
        <time>2024-05-11T08:39:55Z</time>
      </trkpt>
      <trkpt lat="43.34736" lon="2.18012">
        <ele>415.3</ele>
        <time>2024-05-11T08:39:56Z</time>
      </trkpt>
      <trkpt lat="43.34755" lon="2.18008">
        <ele>417.3</ele>
        <time>2024-05-11T08:39:57Z</time>
      </trkpt>
      <trkpt lat="43.34774" lon="2.18004">
        <ele>419.6</ele>
        <time>2024-05-11T08:39:58Z</time>
      </trkpt>
      <trkpt lat="43.34793" lon="2.18">
        <ele>421.6</ele>
        <time>2024-05-11T08:39:59Z</time>
      </trkpt>
      <trkpt lat="43.34813" lon="2.17996">
        <ele>423.8</ele>
        <time>2024-05-11T08:40:00Z</time>
      </trkpt>
      <trkpt lat="43.34833" lon="2.17991">
        <ele>426</ele>
        <time>2024-05-11T08:40:01Z</time>
      </trkpt>
      <trkpt lat="43.34853" lon="2.17987">
        <ele>427.7</ele>
        <time>2024-05-11T08:40:02Z</time>
      </trkpt>
      <trkpt lat="43.34874" lon="2.17982">
        <ele>430.5</ele>
        <time>2024-05-11T08:40:03Z</time>
      </trkpt>
      <trkpt lat="43.34895" lon="2.17977">
        <ele>433.5</ele>
        <time>2024-05-11T08:40:04Z</time>
      </trkpt>
      <trkpt lat="43.34916" lon="2.17972">
        <ele>435.9</ele>
        <time>2024-05-11T08:40:05Z</time>
      </trkpt>
      <trkpt lat="43.34938" lon="2.17968">
        <ele>438.2</ele>
        <time>2024-05-11T08:40:06Z</time>
      </trkpt>
      <trkpt lat="43.3496" lon="2.17964">
        <ele>440.4</ele>
        <time>2024-05-11T08:40:07Z</time>
      </trkpt>
      <trkpt lat="43.34981" lon="2.1796">
        <ele>442</ele>
        <time>2024-05-11T08:40:08Z</time>
      </trkpt>
      <trkpt lat="43.35002" lon="2.17956">
        <ele>443.2</ele>
        <time>2024-05-11T08:40:09Z</time>
      </trkpt>
      <trkpt lat="43.35023" lon="2.17952">
        <ele>445.5</ele>
        <time>2024-05-11T08:40:10Z</time>
      </trkpt>
      <trkpt lat="43.35043" lon="2.17947">
        <ele>446.5</ele>
        <time>2024-05-11T08:40:11Z</time>
      </trkpt>
      <trkpt lat="43.35063" lon="2.17942">
        <ele>447.5</ele>
        <time>2024-05-11T08:40:12Z</time>
      </trkpt>
      <trkpt lat="43.35082" lon="2.17937">
        <ele>448.6</ele>
        <time>2024-05-11T08:40:13Z</time>
      </trkpt>
      <trkpt lat="43.35101" lon="2.17931">
        <ele>449.8</ele>
        <time>2024-05-11T08:40:14Z</time>
      </trkpt>
      <trkpt lat="43.35121" lon="2.17924">
        <ele>451</ele>
        <time>2024-05-11T08:40:15Z</time>
      </trkpt>
      <trkpt lat="43.35141" lon="2.17917">
        <ele>452.2</ele>
        <time>2024-05-11T08:40:16Z</time>
      </trkpt>
      <trkpt lat="43.35161" lon="2.17909">
        <ele>453.1</ele>
        <time>2024-05-11T08:40:17Z</time>
      </trkpt>
      <trkpt lat="43.35182" lon="2.17901">
        <ele>453.7</ele>
        <time>2024-05-11T08:40:18Z</time>
      </trkpt>
      <trkpt lat="43.35202" lon="2.17894">
        <ele>454.7</ele>
        <time>2024-05-11T08:40:19Z</time>
      </trkpt>
      <trkpt lat="43.35222" lon="2.17886">
        <ele>455.8</ele>
        <time>2024-05-11T08:40:20Z</time>
      </trkpt>
      <trkpt lat="43.35242" lon="2.17879">
        <ele>456.7</ele>
        <time>2024-05-11T08:40:21Z</time>
      </trkpt>
      <trkpt lat="43.3526" lon="2.17872">
        <ele>457.4</ele>
        <time>2024-05-11T08:40:22Z</time>
      </trkpt>
      <trkpt lat="43.35278" lon="2.17865">
        <ele>458.2</ele>
        <time>2024-05-11T08:40:23Z</time>
      </trkpt>
      <trkpt lat="43.35294" lon="2.17859">
        <ele>459.1</ele>
        <time>2024-05-11T08:40:24Z</time>
      </trkpt>
      <trkpt lat="43.35311" lon="2.17852">
        <ele>460.1</ele>
        <time>2024-05-11T08:40:25Z</time>
      </trkpt>
      <trkpt lat="43.35328" lon="2.17846">
        <ele>461.1</ele>
        <time>2024-05-11T08:40:26Z</time>
      </trkpt>
      <trkpt lat="43.35345" lon="2.1784">
        <ele>462.2</ele>
        <time>2024-05-11T08:40:27Z</time>
      </trkpt>
      <trkpt lat="43.35363" lon="2.17833">
        <ele>463.2</ele>
        <time>2024-05-11T08:40:28Z</time>
      </trkpt>
      <trkpt lat="43.3538" lon="2.17827">
        <ele>464.8</ele>
        <time>2024-05-11T08:40:29Z</time>
      </trkpt>
      <trkpt lat="43.35397" lon="2.1782">
        <ele>466.3</ele>
        <time>2024-05-11T08:40:30Z</time>
      </trkpt>
      <trkpt lat="43.35414" lon="2.17814">
        <ele>467.4</ele>
        <time>2024-05-11T08:40:31Z</time>
      </trkpt>
      <trkpt lat="43.35432" lon="2.17806">
        <ele>468.1</ele>
        <time>2024-05-11T08:40:32Z</time>
      </trkpt>
      <trkpt lat="43.35449" lon="2.17799">
        <ele>468.7</ele>
        <time>2024-05-11T08:40:33Z</time>
      </trkpt>
      <trkpt lat="43.35467" lon="2.17793">
        <ele>469.3</ele>
        <time>2024-05-11T08:40:34Z</time>
      </trkpt>
      <trkpt lat="43.35484" lon="2.17786">
        <ele>469.8</ele>
        <time>2024-05-11T08:40:35Z</time>
      </trkpt>
      <trkpt lat="43.35502" lon="2.17779">
        <ele>470.2</ele>
        <time>2024-05-11T08:40:36Z</time>
      </trkpt>
      <trkpt lat="43.35519" lon="2.17772">
        <ele>470.6</ele>
        <time>2024-05-11T08:40:37Z</time>
      </trkpt>
      <trkpt lat="43.35537" lon="2.17764">
        <ele>471.5</ele>
        <time>2024-05-11T08:40:38Z</time>
      </trkpt>
      <trkpt lat="43.35554" lon="2.17757">
        <ele>472.2</ele>
        <time>2024-05-11T08:40:39Z</time>
      </trkpt>
      <trkpt lat="43.35572" lon="2.1775">
        <ele>473.2</ele>
        <time>2024-05-11T08:40:40Z</time>
      </trkpt>
      <trkpt lat="43.35588" lon="2.17744">
        <ele>474.1</ele>
        <time>2024-05-11T08:40:41Z</time>
      </trkpt>
      <trkpt lat="43.35604" lon="2.17737">
        <ele>475</ele>
        <time>2024-05-11T08:40:42Z</time>
      </trkpt>
      <trkpt lat="43.35619" lon="2.1773">
        <ele>475.3</ele>
        <time>2024-05-11T08:40:43Z</time>
      </trkpt>
      <trkpt lat="43.35633" lon="2.17723">
        <ele>475</ele>
        <time>2024-05-11T08:40:44Z</time>
      </trkpt>
      <trkpt lat="43.35647" lon="2.17715">
        <ele>474.8</ele>
        <time>2024-05-11T08:40:45Z</time>
      </trkpt>
      <trkpt lat="43.35661" lon="2.17706">
        <ele>474.6</ele>
        <time>2024-05-11T08:40:46Z</time>
      </trkpt>
      <trkpt lat="43.35676" lon="2.17698">
        <ele>474.6</ele>
        <time>2024-05-11T08:40:47Z</time>
      </trkpt>
      <trkpt lat="43.35691" lon="2.17688">
        <ele>474.4</ele>
        <time>2024-05-11T08:40:48Z</time>
      </trkpt>
      <trkpt lat="43.35706" lon="2.1768">
        <ele>474.8</ele>
        <time>2024-05-11T08:40:49Z</time>
      </trkpt>
      <trkpt lat="43.3572" lon="2.17672">
        <ele>475.2</ele>
        <time>2024-05-11T08:40:50Z</time>
      </trkpt>
      <trkpt lat="43.35734" lon="2.17663">
        <ele>475.8</ele>
        <time>2024-05-11T08:40:51Z</time>
      </trkpt>
      <trkpt lat="43.35749" lon="2.17655">
        <ele>475.8</ele>
        <time>2024-05-11T08:40:52Z</time>
      </trkpt>
      <trkpt lat="43.35763" lon="2.17648">
        <ele>475</ele>
        <time>2024-05-11T08:40:53Z</time>
      </trkpt>
      <trkpt lat="43.35777" lon="2.17645">
        <ele>474.9</ele>
        <time>2024-05-11T08:40:54Z</time>
      </trkpt>
      <trkpt lat="43.35792" lon="2.17644">
        <ele>474.3</ele>
        <time>2024-05-11T08:40:55Z</time>
      </trkpt>
      <trkpt lat="43.35806" lon="2.17647">
        <ele>474.4</ele>
        <time>2024-05-11T08:40:56Z</time>
      </trkpt>
      <trkpt lat="43.35819" lon="2.17654">
        <ele>472.9</ele>
        <time>2024-05-11T08:40:57Z</time>
      </trkpt>
      <trkpt lat="43.35831" lon="2.17664">
        <ele>472.8</ele>
        <time>2024-05-11T08:40:58Z</time>
      </trkpt>
      <trkpt lat="43.35841" lon="2.17677">
        <ele>472.1</ele>
        <time>2024-05-11T08:40:59Z</time>
      </trkpt>
      <trkpt lat="43.3585" lon="2.17692">
        <ele>471.8</ele>
        <time>2024-05-11T08:41:00Z</time>
      </trkpt>
      <trkpt lat="43.35859" lon="2.17708">
        <ele>472.1</ele>
        <time>2024-05-11T08:41:01Z</time>
      </trkpt>
      <trkpt lat="43.35867" lon="2.17722">
        <ele>472.7</ele>
        <time>2024-05-11T08:41:02Z</time>
      </trkpt>
      <trkpt lat="43.35877" lon="2.17734">
        <ele>473.1</ele>
        <time>2024-05-11T08:41:03Z</time>
      </trkpt>
      <trkpt lat="43.35887" lon="2.17743">
        <ele>472.2</ele>
        <time>2024-05-11T08:41:04Z</time>
      </trkpt>
      <trkpt lat="43.35899" lon="2.17751">
        <ele>471.8</ele>
        <time>2024-05-11T08:41:05Z</time>
      </trkpt>
      <trkpt lat="43.3591" lon="2.17755">
        <ele>471.2</ele>
        <time>2024-05-11T08:41:06Z</time>
      </trkpt>
      <trkpt lat="43.35921" lon="2.17758">
        <ele>471</ele>
        <time>2024-05-11T08:41:07Z</time>
      </trkpt>
      <trkpt lat="43.3593" lon="2.17757">
        <ele>470.9</ele>
        <time>2024-05-11T08:41:08Z</time>
      </trkpt>
      <trkpt lat="43.35939" lon="2.17755">
        <ele>470.6</ele>
        <time>2024-05-11T08:41:09Z</time>
      </trkpt>
      <trkpt lat="43.35948" lon="2.17749">
        <ele>469.3</ele>
        <time>2024-05-11T08:41:10Z</time>
      </trkpt>
      <trkpt lat="43.35954" lon="2.1774">
        <ele>467.2</ele>
        <time>2024-05-11T08:41:11Z</time>
      </trkpt>
      <trkpt lat="43.35959" lon="2.17729">
        <ele>465.3</ele>
        <time>2024-05-11T08:41:12Z</time>
      </trkpt>
      <trkpt lat="43.35963" lon="2.17716">
        <ele>464.3</ele>
        <time>2024-05-11T08:41:13Z</time>
      </trkpt>
      <trkpt lat="43.35965" lon="2.17701">
        <ele>464.4</ele>
        <time>2024-05-11T08:41:14Z</time>
      </trkpt>
      <trkpt lat="43.35964" lon="2.17686">
        <ele>464.9</ele>
        <time>2024-05-11T08:41:15Z</time>
      </trkpt>
      <trkpt lat="43.3596" lon="2.1767">
        <ele>465.8</ele>
        <time>2024-05-11T08:41:16Z</time>
      </trkpt>
      <trkpt lat="43.35954" lon="2.17654">
        <ele>467.2</ele>
        <time>2024-05-11T08:41:17Z</time>
      </trkpt>
      <trkpt lat="43.35948" lon="2.17638">
        <ele>469</ele>
        <time>2024-05-11T08:41:18Z</time>
      </trkpt>
      <trkpt lat="43.35941" lon="2.17622">
        <ele>470.4</ele>
        <time>2024-05-11T08:41:19Z</time>
      </trkpt>
      <trkpt lat="43.35933" lon="2.17606">
        <ele>471.9</ele>
        <time>2024-05-11T08:41:20Z</time>
      </trkpt>
      <trkpt lat="43.35925" lon="2.17589">
        <ele>474.4</ele>
        <time>2024-05-11T08:41:21Z</time>
      </trkpt>
      <trkpt lat="43.35918" lon="2.17573">
        <ele>476.9</ele>
        <time>2024-05-11T08:41:22Z</time>
      </trkpt>
      <trkpt lat="43.3591" lon="2.17556">
        <ele>479</ele>
        <time>2024-05-11T08:41:23Z</time>
      </trkpt>
      <trkpt lat="43.35904" lon="2.1754">
        <ele>479.8</ele>
        <time>2024-05-11T08:41:24Z</time>
      </trkpt>
      <trkpt lat="43.35898" lon="2.17524">
        <ele>480.7</ele>
        <time>2024-05-11T08:41:25Z</time>
      </trkpt>
      <trkpt lat="43.35894" lon="2.17507">
        <ele>481.4</ele>
        <time>2024-05-11T08:41:26Z</time>
      </trkpt>
      <trkpt lat="43.35892" lon="2.1749">
        <ele>482</ele>
        <time>2024-05-11T08:41:27Z</time>
      </trkpt>
      <trkpt lat="43.35892" lon="2.17473">
        <ele>482.6</ele>
        <time>2024-05-11T08:41:28Z</time>
      </trkpt>
      <trkpt lat="43.35896" lon="2.17457">
        <ele>483.9</ele>
        <time>2024-05-11T08:41:29Z</time>
      </trkpt>
      <trkpt lat="43.35899" lon="2.17442">
        <ele>484.8</ele>
        <time>2024-05-11T08:41:30Z</time>
      </trkpt>
      <trkpt lat="43.35903" lon="2.1743">
        <ele>485.3</ele>
        <time>2024-05-11T08:41:31Z</time>
      </trkpt>
      <trkpt lat="43.35905" lon="2.17421">
        <ele>485.4</ele>
        <time>2024-05-11T08:41:32Z</time>
      </trkpt>
      <trkpt lat="43.35907" lon="2.17416">
        <ele>485.6</ele>
        <time>2024-05-11T08:41:33Z</time>
      </trkpt>
      <trkpt lat="43.35908" lon="2.17412">
        <ele>485.6</ele>
        <time>2024-05-11T08:41:34Z</time>
      </trkpt>
      <trkpt lat="43.35909" lon="2.17409">
        <ele>485.7</ele>
        <time>2024-05-11T08:41:35Z</time>
      </trkpt>
      <trkpt lat="43.35909" lon="2.17406">
        <ele>485.6</ele>
        <time>2024-05-11T08:41:36Z</time>
      </trkpt>
      <trkpt lat="43.3591" lon="2.17404">
        <ele>485.7</ele>
        <time>2024-05-11T08:41:37Z</time>
      </trkpt>
      <trkpt lat="43.35911" lon="2.17401">
        <ele>485.8</ele>
        <time>2024-05-11T08:41:38Z</time>
      </trkpt>
      <trkpt lat="43.35912" lon="2.17395">
        <ele>485.9</ele>
        <time>2024-05-11T08:41:39Z</time>
      </trkpt>
      <trkpt lat="43.35914" lon="2.17389">
        <ele>486.3</ele>
        <time>2024-05-11T08:41:40Z</time>
      </trkpt>
      <trkpt lat="43.35916" lon="2.17382">
        <ele>486.6</ele>
        <time>2024-05-11T08:41:41Z</time>
      </trkpt>
      <trkpt lat="43.35918" lon="2.17374">
        <ele>486.8</ele>
        <time>2024-05-11T08:41:42Z</time>
      </trkpt>
      <trkpt lat="43.3592" lon="2.17368">
        <ele>487.2</ele>
        <time>2024-05-11T08:41:43Z</time>
      </trkpt>
      <trkpt lat="43.35922" lon="2.17363">
        <ele>487.6</ele>
        <time>2024-05-11T08:41:44Z</time>
      </trkpt>
      <trkpt lat="43.35924" lon="2.17359">
        <ele>487.9</ele>
        <time>2024-05-11T08:41:45Z</time>
      </trkpt>
      <trkpt lat="43.35926" lon="2.17355">
        <ele>488.2</ele>
        <time>2024-05-11T08:41:46Z</time>
      </trkpt>
      <trkpt lat="43.35927" lon="2.17352">
        <ele>488.4</ele>
        <time>2024-05-11T08:41:47Z</time>
      </trkpt>
      <trkpt lat="43.35928" lon="2.17349">
        <ele>488.5</ele>
        <time>2024-05-11T08:41:48Z</time>
      </trkpt>
      <trkpt lat="43.35929" lon="2.17346">
        <ele>488.6</ele>
        <time>2024-05-11T08:41:49Z</time>
      </trkpt>
      <trkpt lat="43.35929" lon="2.17344">
        <ele>488.5</ele>
        <time>2024-05-11T08:41:50Z</time>
      </trkpt>
      <trkpt lat="43.35929" lon="2.17344">
        <ele>488.5</ele>
        <time>2024-05-11T08:41:51Z</time>
      </trkpt>
      <trkpt lat="43.35929" lon="2.17344">
        <ele>488.5</ele>
        <time>2024-05-11T08:41:52Z</time>
      </trkpt>
      <trkpt lat="43.35929" lon="2.17344">
        <ele>488.5</ele>
        <time>2024-05-11T08:41:53Z</time>
      </trkpt>
      <trkpt lat="43.35929" lon="2.17344">
        <ele>488.5</ele>
        <time>2024-05-11T08:41:54Z</time>
      </trkpt>
      <trkpt lat="43.35929" lon="2.17344">
        <ele>488.5</ele>
        <time>2024-05-11T08:41:55Z</time>
      </trkpt>
      <trkpt lat="43.3593" lon="2.17344">
        <ele>488.9</ele>
        <time>2024-05-11T08:41:56Z</time>
      </trkpt>
      <trkpt lat="43.3593" lon="2.17344">
        <ele>488.9</ele>
        <time>2024-05-11T08:41:57Z</time>
      </trkpt>
      <trkpt lat="43.3593" lon="2.17343">
        <ele>488.8</ele>
        <time>2024-05-11T08:41:58Z</time>
      </trkpt>
      <trkpt lat="43.3593" lon="2.1734">
        <ele>488.7</ele>
        <time>2024-05-11T08:41:59Z</time>
      </trkpt>
      <trkpt lat="43.35931" lon="2.17334">
        <ele>488.7</ele>
        <time>2024-05-11T08:42:00Z</time>
      </trkpt>
      <trkpt lat="43.35932" lon="2.17326">
        <ele>488.4</ele>
        <time>2024-05-11T08:42:01Z</time>
      </trkpt>
      <trkpt lat="43.35934" lon="2.17318">
        <ele>488.6</ele>
        <time>2024-05-11T08:42:02Z</time>
      </trkpt>
      <trkpt lat="43.35935" lon="2.17311">
        <ele>488.4</ele>
        <time>2024-05-11T08:42:03Z</time>
      </trkpt>
      <trkpt lat="43.35937" lon="2.17305">
        <ele>488.8</ele>
        <time>2024-05-11T08:42:04Z</time>
      </trkpt>
      <trkpt lat="43.35938" lon="2.17299">
        <ele>489.1</ele>
        <time>2024-05-11T08:42:05Z</time>
      </trkpt>
      <trkpt lat="43.35939" lon="2.17293">
        <ele>489.5</ele>
        <time>2024-05-11T08:42:06Z</time>
      </trkpt>
      <trkpt lat="43.35941" lon="2.17286">
        <ele>490.6</ele>
        <time>2024-05-11T08:42:07Z</time>
      </trkpt>
      <trkpt lat="43.35943" lon="2.17279">
        <ele>492</ele>
        <time>2024-05-11T08:42:08Z</time>
      </trkpt>
      <trkpt lat="43.35945" lon="2.17272">
        <ele>492.8</ele>
        <time>2024-05-11T08:42:09Z</time>
      </trkpt>
      <trkpt lat="43.35947" lon="2.17265">
        <ele>492.9</ele>
        <time>2024-05-11T08:42:10Z</time>
      </trkpt>
      <trkpt lat="43.35949" lon="2.17259">
        <ele>493.2</ele>
        <time>2024-05-11T08:42:11Z</time>
      </trkpt>
      <trkpt lat="43.3595" lon="2.17252">
        <ele>493.1</ele>
        <time>2024-05-11T08:42:12Z</time>
      </trkpt>
      <trkpt lat="43.35952" lon="2.17246">
        <ele>493.4</ele>
        <time>2024-05-11T08:42:13Z</time>
      </trkpt>
      <trkpt lat="43.35953" lon="2.1724">
        <ele>493.2</ele>
        <time>2024-05-11T08:42:14Z</time>
      </trkpt>
      <trkpt lat="43.35954" lon="2.17235">
        <ele>493.2</ele>
        <time>2024-05-11T08:42:15Z</time>
      </trkpt>
      <trkpt lat="43.35955" lon="2.17228">
        <ele>493</ele>
        <time>2024-05-11T08:42:16Z</time>
      </trkpt>
      <trkpt lat="43.35956" lon="2.1722">
        <ele>492.8</ele>
        <time>2024-05-11T08:42:17Z</time>
      </trkpt>
      <trkpt lat="43.35956" lon="2.1721">
        <ele>492.1</ele>
        <time>2024-05-11T08:42:18Z</time>
      </trkpt>
      <trkpt lat="43.35957" lon="2.172">
        <ele>491.8</ele>
        <time>2024-05-11T08:42:19Z</time>
      </trkpt>
      <trkpt lat="43.35958" lon="2.17189">
        <ele>491.9</ele>
        <time>2024-05-11T08:42:20Z</time>
      </trkpt>
      <trkpt lat="43.3596" lon="2.17179">
        <ele>492.7</ele>
        <time>2024-05-11T08:42:21Z</time>
      </trkpt>
      <trkpt lat="43.35961" lon="2.1717">
        <ele>493.2</ele>
        <time>2024-05-11T08:42:22Z</time>
      </trkpt>
      <trkpt lat="43.35962" lon="2.1716">
        <ele>493.1</ele>
        <time>2024-05-11T08:42:23Z</time>
      </trkpt>
      <trkpt lat="43.35963" lon="2.1715">
        <ele>492.8</ele>
        <time>2024-05-11T08:42:24Z</time>
      </trkpt>
      <trkpt lat="43.35965" lon="2.1714">
        <ele>493</ele>
        <time>2024-05-11T08:42:25Z</time>
      </trkpt>
      <trkpt lat="43.35967" lon="2.17129">
        <ele>492.4</ele>
        <time>2024-05-11T08:42:26Z</time>
      </trkpt>
      <trkpt lat="43.3597" lon="2.17119">
        <ele>492.2</ele>
        <time>2024-05-11T08:42:27Z</time>
      </trkpt>
      <trkpt lat="43.35973" lon="2.1711">
        <ele>492.1</ele>
        <time>2024-05-11T08:42:28Z</time>
      </trkpt>
      <trkpt lat="43.35975" lon="2.171">
        <ele>491.8</ele>
        <time>2024-05-11T08:42:29Z</time>
      </trkpt>
      <trkpt lat="43.35978" lon="2.1709">
        <ele>491.7</ele>
        <time>2024-05-11T08:42:30Z</time>
      </trkpt>
      <trkpt lat="43.35982" lon="2.1708">
        <ele>491.8</ele>
        <time>2024-05-11T08:42:31Z</time>
      </trkpt>
      <trkpt lat="43.35985" lon="2.17071">
        <ele>491.4</ele>
        <time>2024-05-11T08:42:32Z</time>
      </trkpt>
      <trkpt lat="43.35989" lon="2.17062">
        <ele>491.3</ele>
        <time>2024-05-11T08:42:33Z</time>
      </trkpt>
      <trkpt lat="43.35992" lon="2.17052">
        <ele>490.7</ele>
        <time>2024-05-11T08:42:34Z</time>
      </trkpt>
      <trkpt lat="43.35996" lon="2.17042">
        <ele>489.8</ele>
        <time>2024-05-11T08:42:35Z</time>
      </trkpt>
      <trkpt lat="43.35999" lon="2.17032">
        <ele>488.6</ele>
        <time>2024-05-11T08:42:36Z</time>
      </trkpt>
      <trkpt lat="43.36002" lon="2.17022">
        <ele>487.8</ele>
        <time>2024-05-11T08:42:37Z</time>
      </trkpt>
      <trkpt lat="43.36005" lon="2.17012">
        <ele>487.5</ele>
        <time>2024-05-11T08:42:38Z</time>
      </trkpt>
      <trkpt lat="43.36008" lon="2.17001">
        <ele>487.2</ele>
        <time>2024-05-11T08:42:39Z</time>
      </trkpt>
      <trkpt lat="43.36011" lon="2.1699">
        <ele>486.9</ele>
        <time>2024-05-11T08:42:40Z</time>
      </trkpt>
      <trkpt lat="43.36014" lon="2.1698">
        <ele>486.6</ele>
        <time>2024-05-11T08:42:41Z</time>
      </trkpt>
      <trkpt lat="43.36017" lon="2.1697">
        <ele>486</ele>
        <time>2024-05-11T08:42:42Z</time>
      </trkpt>
      <trkpt lat="43.3602" lon="2.1696">
        <ele>485.4</ele>
        <time>2024-05-11T08:42:43Z</time>
      </trkpt>
      <trkpt lat="43.36023" lon="2.1695">
        <ele>484.5</ele>
        <time>2024-05-11T08:42:44Z</time>
      </trkpt>
      <trkpt lat="43.36026" lon="2.1694">
        <ele>483.3</ele>
        <time>2024-05-11T08:42:45Z</time>
      </trkpt>
      <trkpt lat="43.36031" lon="2.16931">
        <ele>482.1</ele>
        <time>2024-05-11T08:42:46Z</time>
      </trkpt>
      <trkpt lat="43.36037" lon="2.16924">
        <ele>481.1</ele>
        <time>2024-05-11T08:42:47Z</time>
      </trkpt>
      <trkpt lat="43.36045" lon="2.1692">
        <ele>480.6</ele>
        <time>2024-05-11T08:42:48Z</time>
      </trkpt>
      <trkpt lat="43.36053" lon="2.16917">
        <ele>480.1</ele>
        <time>2024-05-11T08:42:49Z</time>
      </trkpt>
      <trkpt lat="43.36062" lon="2.16915">
        <ele>479.5</ele>
        <time>2024-05-11T08:42:50Z</time>
      </trkpt>
      <trkpt lat="43.36072" lon="2.16913">
        <ele>479</ele>
        <time>2024-05-11T08:42:51Z</time>
      </trkpt>
      <trkpt lat="43.36082" lon="2.16911">
        <ele>478.6</ele>
        <time>2024-05-11T08:42:52Z</time>
      </trkpt>
      <trkpt lat="43.36092" lon="2.16909">
        <ele>478.4</ele>
        <time>2024-05-11T08:42:53Z</time>
      </trkpt>
      <trkpt lat="43.36102" lon="2.16906">
        <ele>478</ele>
        <time>2024-05-11T08:42:54Z</time>
      </trkpt>
      <trkpt lat="43.36112" lon="2.16904">
        <ele>477.8</ele>
        <time>2024-05-11T08:42:55Z</time>
      </trkpt>
      <trkpt lat="43.36121" lon="2.16899">
        <ele>476.3</ele>
        <time>2024-05-11T08:42:56Z</time>
      </trkpt>
      <trkpt lat="43.36127" lon="2.16891">
        <ele>474</ele>
        <time>2024-05-11T08:42:57Z</time>
      </trkpt>
      <trkpt lat="43.36131" lon="2.16881">
        <ele>472.1</ele>
        <time>2024-05-11T08:42:58Z</time>
      </trkpt>
      <trkpt lat="43.36132" lon="2.16869">
        <ele>470.4</ele>
        <time>2024-05-11T08:42:59Z</time>
      </trkpt>
      <trkpt lat="43.36132" lon="2.16859">
        <ele>469.1</ele>
        <time>2024-05-11T08:43:00Z</time>
      </trkpt>
      <trkpt lat="43.36132" lon="2.1685">
        <ele>468.7</ele>
        <time>2024-05-11T08:43:01Z</time>
      </trkpt>
      <trkpt lat="43.36132" lon="2.16845">
        <ele>468.4</ele>
        <time>2024-05-11T08:43:02Z</time>
      </trkpt>
      <trkpt lat="43.36131" lon="2.1684">
        <ele>468.1</ele>
        <time>2024-05-11T08:43:03Z</time>
      </trkpt>
      <trkpt lat="43.3613" lon="2.16837">
        <ele>467.9</ele>
        <time>2024-05-11T08:43:04Z</time>
      </trkpt>
      <trkpt lat="43.36129" lon="2.16834">
        <ele>467.7</ele>
        <time>2024-05-11T08:43:05Z</time>
      </trkpt>
      <trkpt lat="43.36127" lon="2.16831">
        <ele>467.8</ele>
        <time>2024-05-11T08:43:06Z</time>
      </trkpt>
      <trkpt lat="43.36125" lon="2.16828">
        <ele>468.1</ele>
        <time>2024-05-11T08:43:07Z</time>
      </trkpt>
      <trkpt lat="43.36122" lon="2.16826">
        <ele>468.1</ele>
        <time>2024-05-11T08:43:08Z</time>
      </trkpt>
      <trkpt lat="43.36119" lon="2.16824">
        <ele>468.1</ele>
        <time>2024-05-11T08:43:09Z</time>
      </trkpt>
      <trkpt lat="43.36115" lon="2.16822">
        <ele>468.1</ele>
        <time>2024-05-11T08:43:10Z</time>
      </trkpt>
      <trkpt lat="43.36111" lon="2.1682">
        <ele>467.9</ele>
        <time>2024-05-11T08:43:11Z</time>
      </trkpt>
      <trkpt lat="43.36107" lon="2.16819">
        <ele>467.5</ele>
        <time>2024-05-11T08:43:12Z</time>
      </trkpt>
      <trkpt lat="43.36104" lon="2.16819">
        <ele>467.1</ele>
        <time>2024-05-11T08:43:13Z</time>
      </trkpt>
      <trkpt lat="43.361" lon="2.16818">
        <ele>466.7</ele>
        <time>2024-05-11T08:43:14Z</time>
      </trkpt>
      <trkpt lat="43.36097" lon="2.16818">
        <ele>466.3</ele>
        <time>2024-05-11T08:43:15Z</time>
      </trkpt>
      <trkpt lat="43.36095" lon="2.16818">
        <ele>466</ele>
        <time>2024-05-11T08:43:16Z</time>
      </trkpt>
      <trkpt lat="43.36092" lon="2.16818">
        <ele>465.7</ele>
        <time>2024-05-11T08:43:17Z</time>
      </trkpt>
      <trkpt lat="43.36089" lon="2.16817">
        <ele>465.3</ele>
        <time>2024-05-11T08:43:18Z</time>
      </trkpt>
      <trkpt lat="43.36085" lon="2.16817">
        <ele>464.8</ele>
        <time>2024-05-11T08:43:19Z</time>
      </trkpt>
      <trkpt lat="43.36081" lon="2.16816">
        <ele>464.6</ele>
        <time>2024-05-11T08:43:20Z</time>
      </trkpt>
      <trkpt lat="43.36076" lon="2.16815">
        <ele>464.6</ele>
        <time>2024-05-11T08:43:21Z</time>
      </trkpt>
      <trkpt lat="43.36071" lon="2.16812">
        <ele>464.7</ele>
        <time>2024-05-11T08:43:22Z</time>
      </trkpt>
      <trkpt lat="43.36067" lon="2.16809">
        <ele>464.8</ele>
        <time>2024-05-11T08:43:23Z</time>
      </trkpt>
      <trkpt lat="43.36064" lon="2.16806">
        <ele>465</ele>
        <time>2024-05-11T08:43:24Z</time>
      </trkpt>
      <trkpt lat="43.3606" lon="2.16803">
        <ele>465.6</ele>
        <time>2024-05-11T08:43:25Z</time>
      </trkpt>
      <trkpt lat="43.36058" lon="2.16799">
        <ele>466.3</ele>
        <time>2024-05-11T08:43:26Z</time>
      </trkpt>
      <trkpt lat="43.36055" lon="2.16795">
        <ele>466.8</ele>
        <time>2024-05-11T08:43:27Z</time>
      </trkpt>
      <trkpt lat="43.36052" lon="2.16791">
        <ele>467.3</ele>
        <time>2024-05-11T08:43:28Z</time>
      </trkpt>
      <trkpt lat="43.36049" lon="2.16787">
        <ele>467.9</ele>
        <time>2024-05-11T08:43:29Z</time>
      </trkpt>
      <trkpt lat="43.36047" lon="2.16783">
        <ele>468.6</ele>
        <time>2024-05-11T08:43:30Z</time>
      </trkpt>
      <trkpt lat="43.36045" lon="2.1678">
        <ele>469.1</ele>
        <time>2024-05-11T08:43:31Z</time>
      </trkpt>
      <trkpt lat="43.36042" lon="2.16777">
        <ele>469.8</ele>
        <time>2024-05-11T08:43:32Z</time>
      </trkpt>
      <trkpt lat="43.36039" lon="2.16774">
        <ele>470.4</ele>
        <time>2024-05-11T08:43:33Z</time>
      </trkpt>
      <trkpt lat="43.36036" lon="2.1677">
        <ele>471.2</ele>
        <time>2024-05-11T08:43:34Z</time>
      </trkpt>
      <trkpt lat="43.36033" lon="2.16767">
        <ele>471.4</ele>
        <time>2024-05-11T08:43:35Z</time>
      </trkpt>
      <trkpt lat="43.3603" lon="2.16762">
        <ele>471.8</ele>
        <time>2024-05-11T08:43:36Z</time>
      </trkpt>
      <trkpt lat="43.36027" lon="2.16757">
        <ele>471.7</ele>
        <time>2024-05-11T08:43:37Z</time>
      </trkpt>
      <trkpt lat="43.36025" lon="2.16751">
        <ele>471.8</ele>
        <time>2024-05-11T08:43:38Z</time>
      </trkpt>
      <trkpt lat="43.36023" lon="2.16743">
        <ele>471.3</ele>
        <time>2024-05-11T08:43:39Z</time>
      </trkpt>
      <trkpt lat="43.36024" lon="2.16735">
        <ele>472.1</ele>
        <time>2024-05-11T08:43:40Z</time>
      </trkpt>
      <trkpt lat="43.36024" lon="2.16726">
        <ele>472.4</ele>
        <time>2024-05-11T08:43:41Z</time>
      </trkpt>
      <trkpt lat="43.36025" lon="2.16719">
        <ele>473.2</ele>
        <time>2024-05-11T08:43:42Z</time>
      </trkpt>
      <trkpt lat="43.36027" lon="2.16712">
        <ele>474.5</ele>
        <time>2024-05-11T08:43:43Z</time>
      </trkpt>
      <trkpt lat="43.36029" lon="2.16706">
        <ele>475.4</ele>
        <time>2024-05-11T08:43:44Z</time>
      </trkpt>
      <trkpt lat="43.3603" lon="2.16701">
        <ele>475.7</ele>
        <time>2024-05-11T08:43:45Z</time>
      </trkpt>
      <trkpt lat="43.3603" lon="2.16695">
        <ele>475.7</ele>
        <time>2024-05-11T08:43:46Z</time>
      </trkpt>
      <trkpt lat="43.36031" lon="2.16688">
        <ele>476</ele>
        <time>2024-05-11T08:43:47Z</time>
      </trkpt>
      <trkpt lat="43.36031" lon="2.1668">
        <ele>475.9</ele>
        <time>2024-05-11T08:43:48Z</time>
      </trkpt>
      <trkpt lat="43.36032" lon="2.16671">
        <ele>476.1</ele>
        <time>2024-05-11T08:43:49Z</time>
      </trkpt>
      <trkpt lat="43.36033" lon="2.16664">
        <ele>476.4</ele>
        <time>2024-05-11T08:43:50Z</time>
      </trkpt>
      <trkpt lat="43.36034" lon="2.16657">
        <ele>476.8</ele>
        <time>2024-05-11T08:43:51Z</time>
      </trkpt>
      <trkpt lat="43.36035" lon="2.16648">
        <ele>477.1</ele>
        <time>2024-05-11T08:43:52Z</time>
      </trkpt>
      <trkpt lat="43.36036" lon="2.16641">
        <ele>477.4</ele>
        <time>2024-05-11T08:43:53Z</time>
      </trkpt>
      <trkpt lat="43.36037" lon="2.16634">
        <ele>477.7</ele>
        <time>2024-05-11T08:43:54Z</time>
      </trkpt>
      <trkpt lat="43.36038" lon="2.16627">
        <ele>477.8</ele>
        <time>2024-05-11T08:43:55Z</time>
      </trkpt>
      <trkpt lat="43.36039" lon="2.16622">
        <ele>478</ele>
        <time>2024-05-11T08:43:56Z</time>
      </trkpt>
      <trkpt lat="43.3604" lon="2.16618">
        <ele>478.2</ele>
        <time>2024-05-11T08:43:57Z</time>
      </trkpt>
      <trkpt lat="43.36041" lon="2.16615">
        <ele>478.4</ele>
        <time>2024-05-11T08:43:58Z</time>
      </trkpt>
      <trkpt lat="43.36041" lon="2.16611">
        <ele>478.4</ele>
        <time>2024-05-11T08:43:59Z</time>
      </trkpt>
      <trkpt lat="43.36041" lon="2.16607">
        <ele>478.7</ele>
        <time>2024-05-11T08:44:00Z</time>
      </trkpt>
      <trkpt lat="43.36041" lon="2.16604">
        <ele>478.9</ele>
        <time>2024-05-11T08:44:01Z</time>
      </trkpt>
      <trkpt lat="43.36041" lon="2.16601">
        <ele>479.1</ele>
        <time>2024-05-11T08:44:02Z</time>
      </trkpt>
      <trkpt lat="43.36042" lon="2.16597">
        <ele>479.6</ele>
        <time>2024-05-11T08:44:03Z</time>
      </trkpt>
      <trkpt lat="43.36042" lon="2.16594">
        <ele>479.8</ele>
        <time>2024-05-11T08:44:04Z</time>
      </trkpt>
      <trkpt lat="43.36042" lon="2.16593">
        <ele>479.8</ele>
        <time>2024-05-11T08:44:05Z</time>
      </trkpt>
      <trkpt lat="43.36042" lon="2.16592">
        <ele>479.9</ele>
        <time>2024-05-11T08:44:06Z</time>
      </trkpt>
      <trkpt lat="43.36042" lon="2.16593">
        <ele>479.8</ele>
        <time>2024-05-11T08:44:07Z</time>
      </trkpt>
      <trkpt lat="43.36042" lon="2.16593">
        <ele>479.8</ele>
        <time>2024-05-11T08:44:08Z</time>
      </trkpt>
      <trkpt lat="43.36043" lon="2.16593">
        <ele>480</ele>
        <time>2024-05-11T08:44:09Z</time>
      </trkpt>
      <trkpt lat="43.36043" lon="2.16593">
        <ele>480</ele>
        <time>2024-05-11T08:44:10Z</time>
      </trkpt>
      <trkpt lat="43.36043" lon="2.16592">
        <ele>480</ele>
        <time>2024-05-11T08:44:11Z</time>
      </trkpt>
      <trkpt lat="43.36043" lon="2.1659">
        <ele>480.2</ele>
        <time>2024-05-11T08:44:12Z</time>
      </trkpt>
      <trkpt lat="43.36044" lon="2.16586">
        <ele>480.6</ele>
        <time>2024-05-11T08:44:13Z</time>
      </trkpt>
      <trkpt lat="43.36045" lon="2.1658">
        <ele>481.1</ele>
        <time>2024-05-11T08:44:14Z</time>
      </trkpt>
      <trkpt lat="43.36046" lon="2.16574">
        <ele>481.8</ele>
        <time>2024-05-11T08:44:15Z</time>
      </trkpt>
      <trkpt lat="43.36047" lon="2.1657">
        <ele>482.2</ele>
        <time>2024-05-11T08:44:16Z</time>
      </trkpt>
      <trkpt lat="43.36048" lon="2.16566">
        <ele>482.6</ele>
        <time>2024-05-11T08:44:17Z</time>
      </trkpt>
      <trkpt lat="43.36048" lon="2.16563">
        <ele>482.8</ele>
        <time>2024-05-11T08:44:18Z</time>
      </trkpt>
      <trkpt lat="43.36048" lon="2.16562">
        <ele>482.9</ele>
        <time>2024-05-11T08:44:19Z</time>
      </trkpt>
      <trkpt lat="43.36047" lon="2.16562">
        <ele>482.8</ele>
        <time>2024-05-11T08:44:20Z</time>
      </trkpt>
      <trkpt lat="43.36047" lon="2.16562">
        <ele>482.8</ele>
        <time>2024-05-11T08:44:21Z</time>
      </trkpt>
      <trkpt lat="43.36046" lon="2.16561">
        <ele>482.9</ele>
        <time>2024-05-11T08:44:22Z</time>
      </trkpt>
      <trkpt lat="43.36045" lon="2.16559">
        <ele>482.9</ele>
        <time>2024-05-11T08:44:23Z</time>
      </trkpt>
      <trkpt lat="43.36044" lon="2.16557">
        <ele>483</ele>
        <time>2024-05-11T08:44:24Z</time>
      </trkpt>
      <trkpt lat="43.36043" lon="2.16556">
        <ele>483.1</ele>
        <time>2024-05-11T08:44:25Z</time>
      </trkpt>
      <trkpt lat="43.36042" lon="2.16555">
        <ele>483</ele>
        <time>2024-05-11T08:44:26Z</time>
      </trkpt>
      <trkpt lat="43.3604" lon="2.16554">
        <ele>482.9</ele>
        <time>2024-05-11T08:44:27Z</time>
      </trkpt>
      <trkpt lat="43.3604" lon="2.16554">
        <ele>482.9</ele>
        <time>2024-05-11T08:44:28Z</time>
      </trkpt>
      <trkpt lat="43.3604" lon="2.16554">
        <ele>482.9</ele>
        <time>2024-05-11T08:44:29Z</time>
      </trkpt>
      <trkpt lat="43.3604" lon="2.16554">
        <ele>482.9</ele>
        <time>2024-05-11T08:44:30Z</time>
      </trkpt>
      <trkpt lat="43.36039" lon="2.16554">
        <ele>482.9</ele>
        <time>2024-05-11T08:44:31Z</time>
      </trkpt>
      <trkpt lat="43.36039" lon="2.16553">
        <ele>482.9</ele>
        <time>2024-05-11T08:44:32Z</time>
      </trkpt>
      <trkpt lat="43.36038" lon="2.16553">
        <ele>482.8</ele>
        <time>2024-05-11T08:44:33Z</time>
      </trkpt>
      <trkpt lat="43.36038" lon="2.16552">
        <ele>482.9</ele>
        <time>2024-05-11T08:44:34Z</time>
      </trkpt>
      <trkpt lat="43.36037" lon="2.16552">
        <ele>482.8</ele>
        <time>2024-05-11T08:44:35Z</time>
      </trkpt>
      <trkpt lat="43.36037" lon="2.16551">
        <ele>482.8</ele>
        <time>2024-05-11T08:44:36Z</time>
      </trkpt>
      <trkpt lat="43.36036" lon="2.1655">
        <ele>482.8</ele>
        <time>2024-05-11T08:44:37Z</time>
      </trkpt>
      <trkpt lat="43.36035" lon="2.16549">
        <ele>482.8</ele>
        <time>2024-05-11T08:44:38Z</time>
      </trkpt>
      <trkpt lat="43.36033" lon="2.16547">
        <ele>482.7</ele>
        <time>2024-05-11T08:44:39Z</time>
      </trkpt>
      <trkpt lat="43.36032" lon="2.16544">
        <ele>482.7</ele>
        <time>2024-05-11T08:44:40Z</time>
      </trkpt>
      <trkpt lat="43.36032" lon="2.1654">
        <ele>482.9</ele>
        <time>2024-05-11T08:44:41Z</time>
      </trkpt>
      <trkpt lat="43.36033" lon="2.16537">
        <ele>483</ele>
        <time>2024-05-11T08:44:42Z</time>
      </trkpt>
      <trkpt lat="43.36035" lon="2.16534">
        <ele>483.3</ele>
        <time>2024-05-11T08:44:43Z</time>
      </trkpt>
      <trkpt lat="43.36037" lon="2.16532">
        <ele>483.5</ele>
        <time>2024-05-11T08:44:44Z</time>
      </trkpt>
      <trkpt lat="43.36037" lon="2.16529">
        <ele>483.6</ele>
        <time>2024-05-11T08:44:45Z</time>
      </trkpt>
      <trkpt lat="43.36037" lon="2.16528">
        <ele>483.7</ele>
        <time>2024-05-11T08:44:46Z</time>
      </trkpt>
      <trkpt lat="43.36037" lon="2.16527">
        <ele>483.7</ele>
        <time>2024-05-11T08:44:47Z</time>
      </trkpt>
      <trkpt lat="43.36036" lon="2.16526">
        <ele>483.7</ele>
        <time>2024-05-11T08:44:48Z</time>
      </trkpt>
      <trkpt lat="43.36035" lon="2.16526">
        <ele>483.6</ele>
        <time>2024-05-11T08:44:49Z</time>
      </trkpt>
      <trkpt lat="43.36035" lon="2.16526">
        <ele>483.6</ele>
        <time>2024-05-11T08:44:50Z</time>
      </trkpt>
      <trkpt lat="43.36035" lon="2.16526">
        <ele>483.6</ele>
        <time>2024-05-11T08:44:51Z</time>
      </trkpt>
      <trkpt lat="43.36035" lon="2.16527">
        <ele>483.5</ele>
        <time>2024-05-11T08:44:52Z</time>
      </trkpt>
      <trkpt lat="43.36035" lon="2.16527">
        <ele>483.5</ele>
        <time>2024-05-11T08:44:53Z</time>
      </trkpt>
      <trkpt lat="43.36034" lon="2.16527">
        <ele>483.5</ele>
        <time>2024-05-11T08:44:54Z</time>
      </trkpt>
      <trkpt lat="43.36034" lon="2.16527">
        <ele>483.5</ele>
        <time>2024-05-11T08:44:55Z</time>
      </trkpt>
      <trkpt lat="43.36034" lon="2.16528">
        <ele>483.4</ele>
        <time>2024-05-11T08:44:56Z</time>
      </trkpt>
      <trkpt lat="43.36033" lon="2.16528">
        <ele>483.4</ele>
        <time>2024-05-11T08:44:57Z</time>
      </trkpt>
      <trkpt lat="43.36033" lon="2.16528">
        <ele>483.4</ele>
        <time>2024-05-11T08:44:58Z</time>
      </trkpt>
      <trkpt lat="43.36033" lon="2.16528">
        <ele>483.4</ele>
        <time>2024-05-11T08:44:59Z</time>
      </trkpt>
      <trkpt lat="43.36033" lon="2.16529">
        <ele>483.3</ele>
        <time>2024-05-11T08:45:00Z</time>
      </trkpt>
      <trkpt lat="43.36033" lon="2.16529">
        <ele>483.3</ele>
        <time>2024-05-11T08:45:01Z</time>
      </trkpt>
      <trkpt lat="43.36033" lon="2.1653">
        <ele>483.3</ele>
        <time>2024-05-11T08:45:02Z</time>
      </trkpt>
      <trkpt lat="43.36033" lon="2.1653">
        <ele>483.3</ele>
        <time>2024-05-11T08:45:03Z</time>
      </trkpt>
      <trkpt lat="43.36032" lon="2.16531">
        <ele>483.2</ele>
        <time>2024-05-11T08:45:04Z</time>
      </trkpt>
      <trkpt lat="43.36033" lon="2.16531">
        <ele>483.3</ele>
        <time>2024-05-11T08:45:05Z</time>
      </trkpt>
      <trkpt lat="43.36033" lon="2.16532">
        <ele>483.2</ele>
        <time>2024-05-11T08:45:06Z</time>
      </trkpt>
      <trkpt lat="43.36033" lon="2.16532">
        <ele>483.2</ele>
        <time>2024-05-11T08:45:07Z</time>
      </trkpt>
      <trkpt lat="43.36033" lon="2.16532">
        <ele>483.2</ele>
        <time>2024-05-11T08:45:08Z</time>
      </trkpt>
      <trkpt lat="43.36033" lon="2.16532">
        <ele>483.2</ele>
        <time>2024-05-11T08:45:09Z</time>
      </trkpt>
      <trkpt lat="43.36033" lon="2.16533">
        <ele>483.2</ele>
        <time>2024-05-11T08:45:10Z</time>
      </trkpt>
      <trkpt lat="43.36033" lon="2.16533">
        <ele>483.2</ele>
        <time>2024-05-11T08:45:11Z</time>
      </trkpt>
      <trkpt lat="43.36033" lon="2.16533">
        <ele>483.2</ele>
        <time>2024-05-11T08:45:12Z</time>
      </trkpt>
      <trkpt lat="43.36033" lon="2.16533">
        <ele>483.2</ele>
        <time>2024-05-11T08:45:13Z</time>
      </trkpt>
      <trkpt lat="43.36033" lon="2.16533">
        <ele>483.2</ele>
        <time>2024-05-11T08:45:14Z</time>
      </trkpt>
      <trkpt lat="43.36033" lon="2.16533">
        <ele>483.2</ele>
        <time>2024-05-11T08:45:15Z</time>
      </trkpt>
      <trkpt lat="43.36033" lon="2.16533">
        <ele>483.2</ele>
        <time>2024-05-11T08:45:16Z</time>
      </trkpt>
      <trkpt lat="43.36033" lon="2.16533">
        <ele>483.2</ele>
        <time>2024-05-11T08:45:17Z</time>
      </trkpt>
      <trkpt lat="43.36033" lon="2.16533">
        <ele>483.2</ele>
        <time>2024-05-11T08:45:18Z</time>
      </trkpt>
      <trkpt lat="43.36033" lon="2.16533">
        <ele>483.2</ele>
        <time>2024-05-11T08:45:19Z</time>
      </trkpt>
      <trkpt lat="43.36033" lon="2.16533">
        <ele>483.2</ele>
        <time>2024-05-11T08:45:20Z</time>
      </trkpt>
      <trkpt lat="43.36033" lon="2.16533">
        <ele>483.2</ele>
        <time>2024-05-11T08:45:21Z</time>
      </trkpt>
      <trkpt lat="43.36033" lon="2.16533">
        <ele>483.2</ele>
        <time>2024-05-11T08:45:22Z</time>
      </trkpt>
      <trkpt lat="43.36033" lon="2.16533">
        <ele>483.2</ele>
        <time>2024-05-11T08:45:23Z</time>
      </trkpt>
      <trkpt lat="43.36033" lon="2.16533">
        <ele>483.2</ele>
        <time>2024-05-11T08:45:24Z</time>
      </trkpt>
      <trkpt lat="43.36033" lon="2.16533">
        <ele>483.2</ele>
        <time>2024-05-11T08:45:25Z</time>
      </trkpt>
      <trkpt lat="43.36033" lon="2.16533">
        <ele>483.2</ele>
        <time>2024-05-11T08:45:26Z</time>
      </trkpt>
      <trkpt lat="43.36033" lon="2.16533">
        <ele>483.2</ele>
        <time>2024-05-11T08:45:27Z</time>
      </trkpt>
      <trkpt lat="43.36033" lon="2.16533">
        <ele>483.2</ele>
        <time>2024-05-11T08:45:28Z</time>
      </trkpt>
      <trkpt lat="43.36033" lon="2.16533">
        <ele>483.2</ele>
        <time>2024-05-11T08:45:29Z</time>
      </trkpt>
      <trkpt lat="43.36033" lon="2.16533">
        <ele>483.2</ele>
        <time>2024-05-11T08:45:30Z</time>
      </trkpt>
      <trkpt lat="43.36033" lon="2.16533">
        <ele>483.2</ele>
        <time>2024-05-11T08:45:31Z</time>
      </trkpt>
      <trkpt lat="43.36033" lon="2.16533">
        <ele>483.2</ele>
        <time>2024-05-11T08:45:32Z</time>
      </trkpt>
      <trkpt lat="43.36033" lon="2.16533">
        <ele>483.2</ele>
        <time>2024-05-11T08:45:33Z</time>
      </trkpt>
      <trkpt lat="43.36033" lon="2.16533">
        <ele>483.2</ele>
        <time>2024-05-11T08:45:34Z</time>
      </trkpt>
      <trkpt lat="43.36033" lon="2.16533">
        <ele>483.2</ele>
        <time>2024-05-11T08:45:35Z</time>
      </trkpt>
      <trkpt lat="43.36033" lon="2.16533">
        <ele>483.2</ele>
        <time>2024-05-11T08:45:36Z</time>
      </trkpt>
      <trkpt lat="43.36033" lon="2.16533">
        <ele>483.2</ele>
        <time>2024-05-11T08:45:37Z</time>
      </trkpt>
      <trkpt lat="43.36033" lon="2.16533">
        <ele>483.2</ele>
        <time>2024-05-11T08:45:38Z</time>
      </trkpt>
      <trkpt lat="43.36033" lon="2.16533">
        <ele>483.2</ele>
        <time>2024-05-11T08:45:39Z</time>
      </trkpt>
      <trkpt lat="43.36029" lon="2.16534">
        <ele>482.9</ele>
        <time>2024-05-11T08:55:46Z</time>
      </trkpt>
      <trkpt lat="43.36029" lon="2.16534">
        <ele>482.9</ele>
        <time>2024-05-11T08:55:47Z</time>
      </trkpt>
      <trkpt lat="43.36032" lon="2.16532">
        <ele>483.2</ele>
        <time>2024-05-11T08:55:48Z</time>
      </trkpt>
      <trkpt lat="43.36031" lon="2.16536">
        <ele>482.9</ele>
        <time>2024-05-11T08:55:49Z</time>
      </trkpt>
      <trkpt lat="43.36033" lon="2.16523">
        <ele>483.5</ele>
        <time>2024-05-11T08:55:50Z</time>
      </trkpt>
      <trkpt lat="43.36032" lon="2.16524">
        <ele>483.4</ele>
        <time>2024-05-11T08:55:51Z</time>
      </trkpt>
      <trkpt lat="43.36033" lon="2.16525">
        <ele>483.5</ele>
        <time>2024-05-11T08:55:52Z</time>
      </trkpt>
      <trkpt lat="43.36033" lon="2.16526">
        <ele>483.4</ele>
        <time>2024-05-11T08:55:53Z</time>
      </trkpt>
      <trkpt lat="43.36033" lon="2.16527">
        <ele>483.4</ele>
        <time>2024-05-11T08:55:54Z</time>
      </trkpt>
      <trkpt lat="43.36033" lon="2.16529">
        <ele>483.3</ele>
        <time>2024-05-11T08:55:55Z</time>
      </trkpt>
      <trkpt lat="43.36033" lon="2.1653">
        <ele>483.3</ele>
        <time>2024-05-11T08:55:56Z</time>
      </trkpt>
      <trkpt lat="43.36033" lon="2.16533">
        <ele>483.2</ele>
        <time>2024-05-11T08:55:57Z</time>
      </trkpt>
      <trkpt lat="43.36033" lon="2.16536">
        <ele>483.1</ele>
        <time>2024-05-11T08:55:58Z</time>
      </trkpt>
      <trkpt lat="43.36033" lon="2.1654">
        <ele>482.9</ele>
        <time>2024-05-11T08:55:59Z</time>
      </trkpt>
      <trkpt lat="43.36034" lon="2.16544">
        <ele>482.9</ele>
        <time>2024-05-11T08:56:00Z</time>
      </trkpt>
      <trkpt lat="43.36035" lon="2.16547">
        <ele>482.8</ele>
        <time>2024-05-11T08:56:01Z</time>
      </trkpt>
      <trkpt lat="43.36037" lon="2.1655">
        <ele>482.9</ele>
        <time>2024-05-11T08:56:02Z</time>
      </trkpt>
      <trkpt lat="43.36039" lon="2.16551">
        <ele>483</ele>
        <time>2024-05-11T08:56:03Z</time>
      </trkpt>
      <trkpt lat="43.36041" lon="2.16552">
        <ele>483.1</ele>
        <time>2024-05-11T08:56:04Z</time>
      </trkpt>
      <trkpt lat="43.36042" lon="2.16552">
        <ele>483.2</ele>
        <time>2024-05-11T08:56:05Z</time>
      </trkpt>
      <trkpt lat="43.36042" lon="2.16551">
        <ele>483.2</ele>
        <time>2024-05-11T08:56:06Z</time>
      </trkpt>
      <trkpt lat="43.36042" lon="2.16551">
        <ele>483.2</ele>
        <time>2024-05-11T08:56:07Z</time>
      </trkpt>
      <trkpt lat="43.36042" lon="2.16551">
        <ele>483.2</ele>
        <time>2024-05-11T08:56:08Z</time>
      </trkpt>
      <trkpt lat="43.36042" lon="2.16551">
        <ele>483.2</ele>
        <time>2024-05-11T08:56:09Z</time>
      </trkpt>
      <trkpt lat="43.36042" lon="2.16551">
        <ele>483.2</ele>
        <time>2024-05-11T08:56:10Z</time>
      </trkpt>
      <trkpt lat="43.36042" lon="2.16551">
        <ele>483.2</ele>
        <time>2024-05-11T08:56:11Z</time>
      </trkpt>
      <trkpt lat="43.36042" lon="2.1655">
        <ele>483.2</ele>
        <time>2024-05-11T08:56:12Z</time>
      </trkpt>
      <trkpt lat="43.36042" lon="2.1655">
        <ele>483.2</ele>
        <time>2024-05-11T08:56:13Z</time>
      </trkpt>
      <trkpt lat="43.36042" lon="2.1655">
        <ele>483.2</ele>
        <time>2024-05-11T08:56:14Z</time>
      </trkpt>
      <trkpt lat="43.36042" lon="2.16549">
        <ele>483.3</ele>
        <time>2024-05-11T08:56:15Z</time>
      </trkpt>
      <trkpt lat="43.36042" lon="2.16549">
        <ele>483.3</ele>
        <time>2024-05-11T08:56:16Z</time>
      </trkpt>
      <trkpt lat="43.36042" lon="2.16549">
        <ele>483.3</ele>
        <time>2024-05-11T08:56:17Z</time>
      </trkpt>
      <trkpt lat="43.36042" lon="2.16549">
        <ele>483.3</ele>
        <time>2024-05-11T08:56:18Z</time>
      </trkpt>
      <trkpt lat="43.36042" lon="2.16549">
        <ele>483.3</ele>
        <time>2024-05-11T08:56:19Z</time>
      </trkpt>
      <trkpt lat="43.36042" lon="2.1655">
        <ele>483.2</ele>
        <time>2024-05-11T08:56:20Z</time>
      </trkpt>
      <trkpt lat="43.36042" lon="2.1655">
        <ele>483.2</ele>
        <time>2024-05-11T08:56:21Z</time>
      </trkpt>
      <trkpt lat="43.36042" lon="2.1655">
        <ele>483.2</ele>
        <time>2024-05-11T08:56:22Z</time>
      </trkpt>
      <trkpt lat="43.36042" lon="2.1655">
        <ele>483.2</ele>
        <time>2024-05-11T08:56:23Z</time>
      </trkpt>
      <trkpt lat="43.36043" lon="2.1655">
        <ele>483.3</ele>
        <time>2024-05-11T08:56:24Z</time>
      </trkpt>
      <trkpt lat="43.36044" lon="2.16552">
        <ele>483.3</ele>
        <time>2024-05-11T08:56:25Z</time>
      </trkpt>
      <trkpt lat="43.36047" lon="2.16553">
        <ele>483.5</ele>
        <time>2024-05-11T08:56:26Z</time>
      </trkpt>
      <trkpt lat="43.3605" lon="2.16553">
        <ele>483.7</ele>
        <time>2024-05-11T08:56:27Z</time>
      </trkpt>
      <trkpt lat="43.36052" lon="2.16551">
        <ele>483.9</ele>
        <time>2024-05-11T08:56:28Z</time>
      </trkpt>
      <trkpt lat="43.36051" lon="2.1654">
        <ele>484.2</ele>
        <time>2024-05-11T08:56:29Z</time>
      </trkpt>
      <trkpt lat="43.36052" lon="2.16529">
        <ele>484.7</ele>
        <time>2024-05-11T08:56:30Z</time>
      </trkpt>
      <trkpt lat="43.36053" lon="2.16518">
        <ele>485.2</ele>
        <time>2024-05-11T08:56:31Z</time>
      </trkpt>
      <trkpt lat="43.36054" lon="2.16507">
        <ele>485.6</ele>
        <time>2024-05-11T08:56:32Z</time>
      </trkpt>
      <trkpt lat="43.36056" lon="2.16494">
        <ele>486.3</ele>
        <time>2024-05-11T08:56:33Z</time>
      </trkpt>
      <trkpt lat="43.36058" lon="2.16479">
        <ele>487</ele>
        <time>2024-05-11T08:56:34Z</time>
      </trkpt>
      <trkpt lat="43.3606" lon="2.16462">
        <ele>487.8</ele>
        <time>2024-05-11T08:56:35Z</time>
      </trkpt>
      <trkpt lat="43.36063" lon="2.16446">
        <ele>488.7</ele>
        <time>2024-05-11T08:56:36Z</time>
      </trkpt>
      <trkpt lat="43.36066" lon="2.1643">
        <ele>489.6</ele>
        <time>2024-05-11T08:56:37Z</time>
      </trkpt>
      <trkpt lat="43.3607" lon="2.16414">
        <ele>490.5</ele>
        <time>2024-05-11T08:56:38Z</time>
      </trkpt>
      <trkpt lat="43.36076" lon="2.16398">
        <ele>490.7</ele>
        <time>2024-05-11T08:56:39Z</time>
      </trkpt>
      <trkpt lat="43.36083" lon="2.16381">
        <ele>491</ele>
        <time>2024-05-11T08:56:40Z</time>
      </trkpt>
      <trkpt lat="43.36091" lon="2.16364">
        <ele>491.3</ele>
        <time>2024-05-11T08:56:41Z</time>
      </trkpt>
      <trkpt lat="43.36099" lon="2.1635">
        <ele>492</ele>
        <time>2024-05-11T08:56:42Z</time>
      </trkpt>
      <trkpt lat="43.36106" lon="2.16335">
        <ele>492.8</ele>
        <time>2024-05-11T08:56:43Z</time>
      </trkpt>
      <trkpt lat="43.36116" lon="2.16322">
        <ele>493.8</ele>
        <time>2024-05-11T08:56:44Z</time>
      </trkpt>
      <trkpt lat="43.36126" lon="2.16309">
        <ele>494.9</ele>
        <time>2024-05-11T08:56:45Z</time>
      </trkpt>
      <trkpt lat="43.36137" lon="2.16297">
        <ele>496.2</ele>
        <time>2024-05-11T08:56:46Z</time>
      </trkpt>
      <trkpt lat="43.36148" lon="2.16285">
        <ele>497.2</ele>
        <time>2024-05-11T08:56:47Z</time>
      </trkpt>
      <trkpt lat="43.3616" lon="2.16274">
        <ele>498</ele>
        <time>2024-05-11T08:56:48Z</time>
      </trkpt>
      <trkpt lat="43.36172" lon="2.16264">
        <ele>499.3</ele>
        <time>2024-05-11T08:56:49Z</time>
      </trkpt>
      <trkpt lat="43.36183" lon="2.16256">
        <ele>500.3</ele>
        <time>2024-05-11T08:56:50Z</time>
      </trkpt>
      <trkpt lat="43.36192" lon="2.16247">
        <ele>501.1</ele>
        <time>2024-05-11T08:56:51Z</time>
      </trkpt>
      <trkpt lat="43.36202" lon="2.16239">
        <ele>502.2</ele>
        <time>2024-05-11T08:56:52Z</time>
      </trkpt>
      <trkpt lat="43.36212" lon="2.16231">
        <ele>503.2</ele>
        <time>2024-05-11T08:56:53Z</time>
      </trkpt>
      <trkpt lat="43.36221" lon="2.16223">
        <ele>503.9</ele>
        <time>2024-05-11T08:56:54Z</time>
      </trkpt>
      <trkpt lat="43.36231" lon="2.16216">
        <ele>504.5</ele>
        <time>2024-05-11T08:56:55Z</time>
      </trkpt>
      <trkpt lat="43.36238" lon="2.1621">
        <ele>505</ele>
        <time>2024-05-11T08:56:56Z</time>
      </trkpt>
      <trkpt lat="43.36245" lon="2.16204">
        <ele>505.5</ele>
        <time>2024-05-11T08:56:57Z</time>
      </trkpt>
      <trkpt lat="43.3625" lon="2.162">
        <ele>505.8</ele>
        <time>2024-05-11T08:56:58Z</time>
      </trkpt>
      <trkpt lat="43.36255" lon="2.16197">
        <ele>506.3</ele>
        <time>2024-05-11T08:56:59Z</time>
      </trkpt>
      <trkpt lat="43.36258" lon="2.16196">
        <ele>506.5</ele>
        <time>2024-05-11T08:57:00Z</time>
      </trkpt>
      <trkpt lat="43.3626" lon="2.16195">
        <ele>506.7</ele>
        <time>2024-05-11T08:57:01Z</time>
      </trkpt>
      <trkpt lat="43.36262" lon="2.16194">
        <ele>506.9</ele>
        <time>2024-05-11T08:57:02Z</time>
      </trkpt>
      <trkpt lat="43.36266" lon="2.16193">
        <ele>507.2</ele>
        <time>2024-05-11T08:57:03Z</time>
      </trkpt>
      <trkpt lat="43.3627" lon="2.16189">
        <ele>507.5</ele>
        <time>2024-05-11T08:57:04Z</time>
      </trkpt>
      <trkpt lat="43.36276" lon="2.16183">
        <ele>507.9</ele>
        <time>2024-05-11T08:57:05Z</time>
      </trkpt>
      <trkpt lat="43.36282" lon="2.16175">
        <ele>508.2</ele>
        <time>2024-05-11T08:57:06Z</time>
      </trkpt>
      <trkpt lat="43.3629" lon="2.16168">
        <ele>508.4</ele>
        <time>2024-05-11T08:57:07Z</time>
      </trkpt>
      <trkpt lat="43.36301" lon="2.16159">
        <ele>509.3</ele>
        <time>2024-05-11T08:57:08Z</time>
      </trkpt>
      <trkpt lat="43.36313" lon="2.16149">
        <ele>510.4</ele>
        <time>2024-05-11T08:57:09Z</time>
      </trkpt>
      <trkpt lat="43.36326" lon="2.16139">
        <ele>511</ele>
        <time>2024-05-11T08:57:10Z</time>
      </trkpt>
      <trkpt lat="43.36339" lon="2.16128">
        <ele>511.6</ele>
        <time>2024-05-11T08:57:11Z</time>
      </trkpt>
      <trkpt lat="43.36353" lon="2.16117">
        <ele>512.5</ele>
        <time>2024-05-11T08:57:12Z</time>
      </trkpt>
      <trkpt lat="43.36368" lon="2.16105">
        <ele>513.5</ele>
        <time>2024-05-11T08:57:13Z</time>
      </trkpt>
      <trkpt lat="43.36384" lon="2.16092">
        <ele>514.5</ele>
        <time>2024-05-11T08:57:14Z</time>
      </trkpt>
      <trkpt lat="43.364" lon="2.16079">
        <ele>515.6</ele>
        <time>2024-05-11T08:57:15Z</time>
      </trkpt>
      <trkpt lat="43.36416" lon="2.16066">
        <ele>516.6</ele>
        <time>2024-05-11T08:57:16Z</time>
      </trkpt>
      <trkpt lat="43.36432" lon="2.16054">
        <ele>518</ele>
        <time>2024-05-11T08:57:17Z</time>
      </trkpt>
      <trkpt lat="43.36449" lon="2.1604">
        <ele>518.2</ele>
        <time>2024-05-11T08:57:18Z</time>
      </trkpt>
      <trkpt lat="43.36467" lon="2.16026">
        <ele>519.4</ele>
        <time>2024-05-11T08:57:19Z</time>
      </trkpt>
      <trkpt lat="43.36485" lon="2.16012">
        <ele>521.1</ele>
        <time>2024-05-11T08:57:20Z</time>
      </trkpt>
      <trkpt lat="43.36504" lon="2.15997">
        <ele>522.4</ele>
        <time>2024-05-11T08:57:21Z</time>
      </trkpt>
      <trkpt lat="43.36523" lon="2.15981">
        <ele>523.9</ele>
        <time>2024-05-11T08:57:22Z</time>
      </trkpt>
      <trkpt lat="43.36542" lon="2.15966">
        <ele>525.3</ele>
        <time>2024-05-11T08:57:23Z</time>
      </trkpt>
      <trkpt lat="43.36561" lon="2.15952">
        <ele>526.7</ele>
        <time>2024-05-11T08:57:24Z</time>
      </trkpt>
      <trkpt lat="43.36579" lon="2.15938">
        <ele>527.7</ele>
        <time>2024-05-11T08:57:25Z</time>
      </trkpt>
      <trkpt lat="43.36595" lon="2.15925">
        <ele>529</ele>
        <time>2024-05-11T08:57:26Z</time>
      </trkpt>
      <trkpt lat="43.36611" lon="2.15913">
        <ele>530.1</ele>
        <time>2024-05-11T08:57:27Z</time>
      </trkpt>
      <trkpt lat="43.36625" lon="2.15901">
        <ele>532</ele>
        <time>2024-05-11T08:57:28Z</time>
      </trkpt>
      <trkpt lat="43.36639" lon="2.15888">
        <ele>533</ele>
        <time>2024-05-11T08:57:29Z</time>
      </trkpt>
      <trkpt lat="43.36653" lon="2.15872">
        <ele>534.9</ele>
        <time>2024-05-11T08:57:30Z</time>
      </trkpt>
      <trkpt lat="43.36665" lon="2.15855">
        <ele>535.6</ele>
        <time>2024-05-11T08:57:31Z</time>
      </trkpt>
      <trkpt lat="43.36676" lon="2.15835">
        <ele>537.4</ele>
        <time>2024-05-11T08:57:32Z</time>
      </trkpt>
      <trkpt lat="43.36687" lon="2.1581">
        <ele>537.8</ele>
        <time>2024-05-11T08:57:33Z</time>
      </trkpt>
      <trkpt lat="43.36698" lon="2.15783">
        <ele>538.3</ele>
        <time>2024-05-11T08:57:34Z</time>
      </trkpt>
      <trkpt lat="43.3671" lon="2.15756">
        <ele>540.5</ele>
        <time>2024-05-11T08:57:35Z</time>
      </trkpt>
      <trkpt lat="43.36722" lon="2.1573">
        <ele>541.5</ele>
        <time>2024-05-11T08:57:36Z</time>
      </trkpt>
      <trkpt lat="43.36735" lon="2.15706">
        <ele>543.4</ele>
        <time>2024-05-11T08:57:37Z</time>
      </trkpt>
      <trkpt lat="43.36751" lon="2.15683">
        <ele>545.7</ele>
        <time>2024-05-11T08:57:38Z</time>
      </trkpt>
      <trkpt lat="43.36768" lon="2.1566">
        <ele>546.5</ele>
        <time>2024-05-11T08:57:39Z</time>
      </trkpt>
      <trkpt lat="43.36787" lon="2.15641">
        <ele>548.1</ele>
        <time>2024-05-11T08:57:40Z</time>
      </trkpt>
      <trkpt lat="43.36805" lon="2.15624">
        <ele>548.9</ele>
        <time>2024-05-11T08:57:41Z</time>
      </trkpt>
      <trkpt lat="43.36825" lon="2.15612">
        <ele>548.8</ele>
        <time>2024-05-11T08:57:42Z</time>
      </trkpt>
      <trkpt lat="43.36847" lon="2.15602">
        <ele>549.7</ele>
        <time>2024-05-11T08:57:43Z</time>
      </trkpt>
      <trkpt lat="43.36871" lon="2.15594">
        <ele>551.2</ele>
        <time>2024-05-11T08:57:44Z</time>
      </trkpt>
      <trkpt lat="43.36894" lon="2.15585">
        <ele>552.7</ele>
        <time>2024-05-11T08:57:45Z</time>
      </trkpt>
      <trkpt lat="43.36915" lon="2.15579">
        <ele>554.2</ele>
        <time>2024-05-11T08:57:46Z</time>
      </trkpt>
      <trkpt lat="43.36937" lon="2.15577">
        <ele>555.7</ele>
        <time>2024-05-11T08:57:47Z</time>
      </trkpt>
      <trkpt lat="43.36959" lon="2.15579">
        <ele>557.5</ele>
        <time>2024-05-11T08:57:48Z</time>
      </trkpt>
      <trkpt lat="43.36981" lon="2.15585">
        <ele>559.5</ele>
        <time>2024-05-11T08:57:49Z</time>
      </trkpt>
      <trkpt lat="43.37003" lon="2.15595">
        <ele>561.3</ele>
        <time>2024-05-11T08:57:50Z</time>
      </trkpt>
      <trkpt lat="43.37025" lon="2.15605">
        <ele>562.3</ele>
        <time>2024-05-11T08:57:51Z</time>
      </trkpt>
      <trkpt lat="43.37047" lon="2.15614">
        <ele>563.4</ele>
        <time>2024-05-11T08:57:52Z</time>
      </trkpt>
      <trkpt lat="43.37068" lon="2.15622">
        <ele>564.6</ele>
        <time>2024-05-11T08:57:53Z</time>
      </trkpt>
      <trkpt lat="43.3709" lon="2.15627">
        <ele>564.6</ele>
        <time>2024-05-11T08:57:54Z</time>
      </trkpt>
      <trkpt lat="43.37109" lon="2.15627">
        <ele>562.6</ele>
        <time>2024-05-11T08:57:55Z</time>
      </trkpt>
      <trkpt lat="43.37126" lon="2.1562">
        <ele>560.9</ele>
        <time>2024-05-11T08:57:56Z</time>
      </trkpt>
      <trkpt lat="43.37139" lon="2.15604">
        <ele>559.5</ele>
        <time>2024-05-11T08:57:57Z</time>
      </trkpt>
      <trkpt lat="43.37148" lon="2.15579">
        <ele>562.5</ele>
        <time>2024-05-11T08:57:58Z</time>
      </trkpt>
      <trkpt lat="43.37157" lon="2.15547">
        <ele>568</ele>
        <time>2024-05-11T08:57:59Z</time>
      </trkpt>
      <trkpt lat="43.37171" lon="2.15525">
        <ele>569.2</ele>
        <time>2024-05-11T08:58:00Z</time>
      </trkpt>
      <trkpt lat="43.37186" lon="2.15501">
        <ele>569.7</ele>
        <time>2024-05-11T08:58:01Z</time>
      </trkpt>
      <trkpt lat="43.37203" lon="2.15477">
        <ele>570.3</ele>
        <time>2024-05-11T08:58:02Z</time>
      </trkpt>
      <trkpt lat="43.37221" lon="2.15454">
        <ele>570.3</ele>
        <time>2024-05-11T08:58:03Z</time>
      </trkpt>
      <trkpt lat="43.37238" lon="2.1543">
        <ele>570.9</ele>
        <time>2024-05-11T08:58:04Z</time>
      </trkpt>
      <trkpt lat="43.37256" lon="2.15408">
        <ele>572</ele>
        <time>2024-05-11T08:58:05Z</time>
      </trkpt>
      <trkpt lat="43.37272" lon="2.15386">
        <ele>572.5</ele>
        <time>2024-05-11T08:58:06Z</time>
      </trkpt>
      <trkpt lat="43.37288" lon="2.15365">
        <ele>573.2</ele>
        <time>2024-05-11T08:58:07Z</time>
      </trkpt>
      <trkpt lat="43.37304" lon="2.15344">
        <ele>574.3</ele>
        <time>2024-05-11T08:58:08Z</time>
      </trkpt>
      <trkpt lat="43.3732" lon="2.15323">
        <ele>575</ele>
        <time>2024-05-11T08:58:09Z</time>
      </trkpt>
      <trkpt lat="43.37336" lon="2.15301">
        <ele>576.3</ele>
        <time>2024-05-11T08:58:10Z</time>
      </trkpt>
      <trkpt lat="43.37355" lon="2.15276">
        <ele>577.8</ele>
        <time>2024-05-11T08:58:11Z</time>
      </trkpt>
      <trkpt lat="43.37374" lon="2.15251">
        <ele>579.4</ele>
        <time>2024-05-11T08:58:12Z</time>
      </trkpt>
      <trkpt lat="43.37395" lon="2.15226">
        <ele>581.1</ele>
        <time>2024-05-11T08:58:13Z</time>
      </trkpt>
      <trkpt lat="43.37415" lon="2.15202">
        <ele>582.7</ele>
        <time>2024-05-11T08:58:14Z</time>
      </trkpt>
      <trkpt lat="43.37433" lon="2.15175">
        <ele>583.4</ele>
        <time>2024-05-11T08:58:15Z</time>
      </trkpt>
      <trkpt lat="43.37449" lon="2.15144">
        <ele>584</ele>
        <time>2024-05-11T08:58:16Z</time>
      </trkpt>
      <trkpt lat="43.37465" lon="2.15113">
        <ele>584.9</ele>
        <time>2024-05-11T08:58:17Z</time>
      </trkpt>
      <trkpt lat="43.3748" lon="2.15081">
        <ele>585.8</ele>
        <time>2024-05-11T08:58:18Z</time>
      </trkpt>
      <trkpt lat="43.37495" lon="2.1505">
        <ele>586.3</ele>
        <time>2024-05-11T08:58:19Z</time>
      </trkpt>
      <trkpt lat="43.37509" lon="2.1502">
        <ele>586.8</ele>
        <time>2024-05-11T08:58:20Z</time>
      </trkpt>
      <trkpt lat="43.37524" lon="2.14992">
        <ele>587</ele>
        <time>2024-05-11T08:58:21Z</time>
      </trkpt>
      <trkpt lat="43.37538" lon="2.14964">
        <ele>587</ele>
        <time>2024-05-11T08:58:22Z</time>
      </trkpt>
      <trkpt lat="43.37552" lon="2.14937">
        <ele>587</ele>
        <time>2024-05-11T08:58:23Z</time>
      </trkpt>
      <trkpt lat="43.37565" lon="2.1491">
        <ele>586.9</ele>
        <time>2024-05-11T08:58:24Z</time>
      </trkpt>
      <trkpt lat="43.37579" lon="2.14884">
        <ele>586.2</ele>
        <time>2024-05-11T08:58:25Z</time>
      </trkpt>
      <trkpt lat="43.37592" lon="2.14859">
        <ele>586</ele>
        <time>2024-05-11T08:58:26Z</time>
      </trkpt>
      <trkpt lat="43.37604" lon="2.14834">
        <ele>585.3</ele>
        <time>2024-05-11T08:58:27Z</time>
      </trkpt>
      <trkpt lat="43.37617" lon="2.14809">
        <ele>585</ele>
        <time>2024-05-11T08:58:28Z</time>
      </trkpt>
      <trkpt lat="43.37629" lon="2.14785">
        <ele>584.5</ele>
        <time>2024-05-11T08:58:29Z</time>
      </trkpt>
      <trkpt lat="43.37642" lon="2.14761">
        <ele>584</ele>
        <time>2024-05-11T08:58:30Z</time>
      </trkpt>
      <trkpt lat="43.37654" lon="2.14738">
        <ele>584</ele>
        <time>2024-05-11T08:58:31Z</time>
      </trkpt>
      <trkpt lat="43.37664" lon="2.14717">
        <ele>583.8</ele>
        <time>2024-05-11T08:58:32Z</time>
      </trkpt>
      <trkpt lat="43.37674" lon="2.14697">
        <ele>583.3</ele>
        <time>2024-05-11T08:58:33Z</time>
      </trkpt>
      <trkpt lat="43.37684" lon="2.14677">
        <ele>583.2</ele>
        <time>2024-05-11T08:58:34Z</time>
      </trkpt>
      <trkpt lat="43.37693" lon="2.14658">
        <ele>582.7</ele>
        <time>2024-05-11T08:58:35Z</time>
      </trkpt>
      <trkpt lat="43.37702" lon="2.1464">
        <ele>582.6</ele>
        <time>2024-05-11T08:58:36Z</time>
      </trkpt>
      <trkpt lat="43.37712" lon="2.14621">
        <ele>582.6</ele>
        <time>2024-05-11T08:58:37Z</time>
      </trkpt>
      <trkpt lat="43.37722" lon="2.146">
        <ele>582.2</ele>
        <time>2024-05-11T08:58:38Z</time>
      </trkpt>
      <trkpt lat="43.37734" lon="2.14582">
        <ele>582.2</ele>
        <time>2024-05-11T08:58:39Z</time>
      </trkpt>
      <trkpt lat="43.37747" lon="2.14564">
        <ele>581.7</ele>
        <time>2024-05-11T08:58:40Z</time>
      </trkpt>
      <trkpt lat="43.37761" lon="2.14545">
        <ele>581.5</ele>
        <time>2024-05-11T08:58:41Z</time>
      </trkpt>
      <trkpt lat="43.37777" lon="2.14525">
        <ele>580.9</ele>
        <time>2024-05-11T08:58:42Z</time>
      </trkpt>
      <trkpt lat="43.37794" lon="2.14504">
        <ele>581.5</ele>
        <time>2024-05-11T08:58:43Z</time>
      </trkpt>
      <trkpt lat="43.3781" lon="2.14485">
        <ele>581.9</ele>
        <time>2024-05-11T08:58:44Z</time>
      </trkpt>
      <trkpt lat="43.37827" lon="2.14465">
        <ele>582.2</ele>
        <time>2024-05-11T08:58:45Z</time>
      </trkpt>
      <trkpt lat="43.37843" lon="2.14445">
        <ele>583.1</ele>
        <time>2024-05-11T08:58:46Z</time>
      </trkpt>
      <trkpt lat="43.37858" lon="2.14425">
        <ele>582</ele>
        <time>2024-05-11T08:58:47Z</time>
      </trkpt>
      <trkpt lat="43.37873" lon="2.14406">
        <ele>581.2</ele>
        <time>2024-05-11T08:58:48Z</time>
      </trkpt>
      <trkpt lat="43.37888" lon="2.14387">
        <ele>579.8</ele>
        <time>2024-05-11T08:58:49Z</time>
      </trkpt>
      <trkpt lat="43.37903" lon="2.14369">
        <ele>579.1</ele>
        <time>2024-05-11T08:58:50Z</time>
      </trkpt>
      <trkpt lat="43.37917" lon="2.1435">
        <ele>578.6</ele>
        <time>2024-05-11T08:58:51Z</time>
      </trkpt>
      <trkpt lat="43.37931" lon="2.14333">
        <ele>578.5</ele>
        <time>2024-05-11T08:58:52Z</time>
      </trkpt>
      <trkpt lat="43.37945" lon="2.14316">
        <ele>578.4</ele>
        <time>2024-05-11T08:58:53Z</time>
      </trkpt>
      <trkpt lat="43.37959" lon="2.14299">
        <ele>577.7</ele>
        <time>2024-05-11T08:58:54Z</time>
      </trkpt>
      <trkpt lat="43.37971" lon="2.14283">
        <ele>577.9</ele>
        <time>2024-05-11T08:58:55Z</time>
      </trkpt>
      <trkpt lat="43.37982" lon="2.14269">
        <ele>577.7</ele>
        <time>2024-05-11T08:58:56Z</time>
      </trkpt>
      <trkpt lat="43.37993" lon="2.14255">
        <ele>578.2</ele>
        <time>2024-05-11T08:58:57Z</time>
      </trkpt>
      <trkpt lat="43.38003" lon="2.14242">
        <ele>578.8</ele>
        <time>2024-05-11T08:58:58Z</time>
      </trkpt>
      <trkpt lat="43.38014" lon="2.14229">
        <ele>579</ele>
        <time>2024-05-11T08:58:59Z</time>
      </trkpt>
      <trkpt lat="43.38025" lon="2.14215">
        <ele>579.8</ele>
        <time>2024-05-11T08:59:00Z</time>
      </trkpt>
      <trkpt lat="43.38037" lon="2.142">
        <ele>580</ele>
        <time>2024-05-11T08:59:01Z</time>
      </trkpt>
      <trkpt lat="43.38049" lon="2.14185">
        <ele>580.3</ele>
        <time>2024-05-11T08:59:02Z</time>
      </trkpt>
      <trkpt lat="43.38061" lon="2.14169">
        <ele>580.9</ele>
        <time>2024-05-11T08:59:03Z</time>
      </trkpt>
      <trkpt lat="43.38075" lon="2.14153">
        <ele>581.3</ele>
        <time>2024-05-11T08:59:04Z</time>
      </trkpt>
      <trkpt lat="43.38088" lon="2.14136">
        <ele>582.3</ele>
        <time>2024-05-11T08:59:05Z</time>
      </trkpt>
      <trkpt lat="43.38102" lon="2.14118">
        <ele>582.8</ele>
        <time>2024-05-11T08:59:06Z</time>
      </trkpt>
      <trkpt lat="43.38116" lon="2.141">
        <ele>583.9</ele>
        <time>2024-05-11T08:59:07Z</time>
      </trkpt>
      <trkpt lat="43.38131" lon="2.1408">
        <ele>584.6</ele>
        <time>2024-05-11T08:59:08Z</time>
      </trkpt>
      <trkpt lat="43.38146" lon="2.14061">
        <ele>584.4</ele>
        <time>2024-05-11T08:59:09Z</time>
      </trkpt>
      <trkpt lat="43.38163" lon="2.14041">
        <ele>584</ele>
        <time>2024-05-11T08:59:10Z</time>
      </trkpt>
      <trkpt lat="43.38179" lon="2.14021">
        <ele>584.1</ele>
        <time>2024-05-11T08:59:11Z</time>
      </trkpt>
      <trkpt lat="43.38196" lon="2.13999">
        <ele>583</ele>
        <time>2024-05-11T08:59:12Z</time>
      </trkpt>
      <trkpt lat="43.38213" lon="2.13979">
        <ele>582.2</ele>
        <time>2024-05-11T08:59:13Z</time>
      </trkpt>
      <trkpt lat="43.38229" lon="2.13958">
        <ele>581.4</ele>
        <time>2024-05-11T08:59:14Z</time>
      </trkpt>
      <trkpt lat="43.38245" lon="2.13938">
        <ele>581</ele>
        <time>2024-05-11T08:59:15Z</time>
      </trkpt>
      <trkpt lat="43.3826" lon="2.13918">
        <ele>580.3</ele>
        <time>2024-05-11T08:59:16Z</time>
      </trkpt>
      <trkpt lat="43.38276" lon="2.139">
        <ele>579.7</ele>
        <time>2024-05-11T08:59:17Z</time>
      </trkpt>
      <trkpt lat="43.38293" lon="2.13884">
        <ele>579.4</ele>
        <time>2024-05-11T08:59:18Z</time>
      </trkpt>
      <trkpt lat="43.3831" lon="2.13872">
        <ele>579.5</ele>
        <time>2024-05-11T08:59:19Z</time>
      </trkpt>
      <trkpt lat="43.38328" lon="2.13862">
        <ele>578.5</ele>
        <time>2024-05-11T08:59:20Z</time>
      </trkpt>
      <trkpt lat="43.38346" lon="2.13855">
        <ele>577.5</ele>
        <time>2024-05-11T08:59:21Z</time>
      </trkpt>
      <trkpt lat="43.38364" lon="2.13848">
        <ele>576.8</ele>
        <time>2024-05-11T08:59:22Z</time>
      </trkpt>
      <trkpt lat="43.38383" lon="2.13841">
        <ele>576.7</ele>
        <time>2024-05-11T08:59:23Z</time>
      </trkpt>
      <trkpt lat="43.38401" lon="2.13834">
        <ele>576.5</ele>
        <time>2024-05-11T08:59:24Z</time>
      </trkpt>
      <trkpt lat="43.38419" lon="2.13827">
        <ele>576.7</ele>
        <time>2024-05-11T08:59:25Z</time>
      </trkpt>
      <trkpt lat="43.38438" lon="2.1382">
        <ele>576</ele>
        <time>2024-05-11T08:59:26Z</time>
      </trkpt>
      <trkpt lat="43.38456" lon="2.13813">
        <ele>575.7</ele>
        <time>2024-05-11T08:59:27Z</time>
      </trkpt>
      <trkpt lat="43.38474" lon="2.13807">
        <ele>575.7</ele>
        <time>2024-05-11T08:59:28Z</time>
      </trkpt>
      <trkpt lat="43.38493" lon="2.138">
        <ele>575.7</ele>
        <time>2024-05-11T08:59:29Z</time>
      </trkpt>
      <trkpt lat="43.38512" lon="2.13793">
        <ele>574.8</ele>
        <time>2024-05-11T08:59:30Z</time>
      </trkpt>
      <trkpt lat="43.38532" lon="2.13785">
        <ele>574.1</ele>
        <time>2024-05-11T08:59:31Z</time>
      </trkpt>
      <trkpt lat="43.38552" lon="2.13778">
        <ele>575</ele>
        <time>2024-05-11T08:59:32Z</time>
      </trkpt>
      <trkpt lat="43.38571" lon="2.13771">
        <ele>572.1</ele>
        <time>2024-05-11T08:59:33Z</time>
      </trkpt>
      <trkpt lat="43.38591" lon="2.13764">
        <ele>569</ele>
        <time>2024-05-11T08:59:34Z</time>
      </trkpt>
      <trkpt lat="43.38609" lon="2.13757">
        <ele>567</ele>
        <time>2024-05-11T08:59:35Z</time>
      </trkpt>
      <trkpt lat="43.38627" lon="2.1375">
        <ele>571</ele>
        <time>2024-05-11T08:59:36Z</time>
      </trkpt>
      <trkpt lat="43.38645" lon="2.13744">
        <ele>574.1</ele>
        <time>2024-05-11T08:59:37Z</time>
      </trkpt>
      <trkpt lat="43.38661" lon="2.13738">
        <ele>575.4</ele>
        <time>2024-05-11T08:59:38Z</time>
      </trkpt>
      <trkpt lat="43.38677" lon="2.13733">
        <ele>576.6</ele>
        <time>2024-05-11T08:59:39Z</time>
      </trkpt>
      <trkpt lat="43.38694" lon="2.13726">
        <ele>578</ele>
        <time>2024-05-11T08:59:40Z</time>
      </trkpt>
      <trkpt lat="43.38709" lon="2.13717">
        <ele>578.6</ele>
        <time>2024-05-11T08:59:41Z</time>
      </trkpt>
      <trkpt lat="43.38724" lon="2.13705">
        <ele>579</ele>
        <time>2024-05-11T08:59:42Z</time>
      </trkpt>
      <trkpt lat="43.38738" lon="2.13691">
        <ele>579.6</ele>
        <time>2024-05-11T08:59:43Z</time>
      </trkpt>
      <trkpt lat="43.38752" lon="2.13675">
        <ele>580.3</ele>
        <time>2024-05-11T08:59:44Z</time>
      </trkpt>
      <trkpt lat="43.38766" lon="2.13658">
        <ele>579.9</ele>
        <time>2024-05-11T08:59:45Z</time>
      </trkpt>
      <trkpt lat="43.3878" lon="2.13641">
        <ele>581.1</ele>
        <time>2024-05-11T08:59:46Z</time>
      </trkpt>
      <trkpt lat="43.38793" lon="2.13624">
        <ele>582.6</ele>
        <time>2024-05-11T08:59:47Z</time>
      </trkpt>
      <trkpt lat="43.38807" lon="2.13606">
        <ele>584.2</ele>
        <time>2024-05-11T08:59:48Z</time>
      </trkpt>
      <trkpt lat="43.38821" lon="2.13589">
        <ele>585.8</ele>
        <time>2024-05-11T08:59:49Z</time>
      </trkpt>
      <trkpt lat="43.38835" lon="2.13571">
        <ele>587.9</ele>
        <time>2024-05-11T08:59:50Z</time>
      </trkpt>
      <trkpt lat="43.38849" lon="2.13554">
        <ele>589.1</ele>
        <time>2024-05-11T08:59:51Z</time>
      </trkpt>
      <trkpt lat="43.38862" lon="2.1354">
        <ele>590.1</ele>
        <time>2024-05-11T08:59:52Z</time>
      </trkpt>
      <trkpt lat="43.38873" lon="2.13526">
        <ele>591.2</ele>
        <time>2024-05-11T08:59:53Z</time>
      </trkpt>
      <trkpt lat="43.38881" lon="2.13517">
        <ele>592.2</ele>
        <time>2024-05-11T08:59:54Z</time>
      </trkpt>
      <trkpt lat="43.38887" lon="2.13509">
        <ele>593</ele>
        <time>2024-05-11T08:59:55Z</time>
      </trkpt>
      <trkpt lat="43.38893" lon="2.13502">
        <ele>593.6</ele>
        <time>2024-05-11T08:59:56Z</time>
      </trkpt>
      <trkpt lat="43.38897" lon="2.13496">
        <ele>594</ele>
        <time>2024-05-11T08:59:57Z</time>
      </trkpt>
      <trkpt lat="43.38902" lon="2.13491">
        <ele>594.2</ele>
        <time>2024-05-11T08:59:58Z</time>
      </trkpt>
      <trkpt lat="43.38906" lon="2.13486">
        <ele>594.4</ele>
        <time>2024-05-11T08:59:59Z</time>
      </trkpt>
      <trkpt lat="43.38909" lon="2.13482">
        <ele>594.6</ele>
        <time>2024-05-11T09:00:00Z</time>
      </trkpt>
      <trkpt lat="43.38914" lon="2.13476">
        <ele>594.8</ele>
        <time>2024-05-11T09:00:01Z</time>
      </trkpt>
      <trkpt lat="43.38919" lon="2.13469">
        <ele>595.2</ele>
        <time>2024-05-11T09:00:02Z</time>
      </trkpt>
      <trkpt lat="43.38925" lon="2.13461">
        <ele>595.6</ele>
        <time>2024-05-11T09:00:03Z</time>
      </trkpt>
      <trkpt lat="43.38932" lon="2.13453">
        <ele>596.2</ele>
        <time>2024-05-11T09:00:04Z</time>
      </trkpt>
      <trkpt lat="43.38939" lon="2.13445">
        <ele>596.9</ele>
        <time>2024-05-11T09:00:05Z</time>
      </trkpt>
      <trkpt lat="43.38947" lon="2.13437">
        <ele>597.6</ele>
        <time>2024-05-11T09:00:06Z</time>
      </trkpt>
      <trkpt lat="43.38955" lon="2.13427">
        <ele>598.4</ele>
        <time>2024-05-11T09:00:07Z</time>
      </trkpt>
      <trkpt lat="43.38964" lon="2.13417">
        <ele>599</ele>
        <time>2024-05-11T09:00:08Z</time>
      </trkpt>
      <trkpt lat="43.38973" lon="2.13405">
        <ele>599.5</ele>
        <time>2024-05-11T09:00:09Z</time>
      </trkpt>
      <trkpt lat="43.38984" lon="2.13391">
        <ele>600.8</ele>
        <time>2024-05-11T09:00:10Z</time>
      </trkpt>
      <trkpt lat="43.38995" lon="2.13377">
        <ele>602.1</ele>
        <time>2024-05-11T09:00:11Z</time>
      </trkpt>
      <trkpt lat="43.39008" lon="2.13361">
        <ele>603.6</ele>
        <time>2024-05-11T09:00:12Z</time>
      </trkpt>
      <trkpt lat="43.39021" lon="2.13346">
        <ele>604.9</ele>
        <time>2024-05-11T09:00:13Z</time>
      </trkpt>
      <trkpt lat="43.39034" lon="2.1333">
        <ele>605.8</ele>
        <time>2024-05-11T09:00:14Z</time>
      </trkpt>
      <trkpt lat="43.39048" lon="2.13313">
        <ele>607.3</ele>
        <time>2024-05-11T09:00:15Z</time>
      </trkpt>
      <trkpt lat="43.39062" lon="2.13295">
        <ele>608.5</ele>
        <time>2024-05-11T09:00:16Z</time>
      </trkpt>
      <trkpt lat="43.39077" lon="2.13275">
        <ele>608.1</ele>
        <time>2024-05-11T09:00:17Z</time>
      </trkpt>
      <trkpt lat="43.39092" lon="2.13254">
        <ele>608.2</ele>
        <time>2024-05-11T09:00:18Z</time>
      </trkpt>
      <trkpt lat="43.39107" lon="2.13234">
        <ele>608</ele>
        <time>2024-05-11T09:00:19Z</time>
      </trkpt>
      <trkpt lat="43.39122" lon="2.13214">
        <ele>605.9</ele>
        <time>2024-05-11T09:00:20Z</time>
      </trkpt>
      <trkpt lat="43.39137" lon="2.13193">
        <ele>604.2</ele>
        <time>2024-05-11T09:00:21Z</time>
      </trkpt>
      <trkpt lat="43.39152" lon="2.13171">
        <ele>607.2</ele>
        <time>2024-05-11T09:00:22Z</time>
      </trkpt>
      <trkpt lat="43.39166" lon="2.1315">
        <ele>610.4</ele>
        <time>2024-05-11T09:00:23Z</time>
      </trkpt>
      <trkpt lat="43.39181" lon="2.13129">
        <ele>612</ele>
        <time>2024-05-11T09:00:24Z</time>
      </trkpt>
      <trkpt lat="43.39197" lon="2.13108">
        <ele>613.3</ele>
        <time>2024-05-11T09:00:25Z</time>
      </trkpt>
      <trkpt lat="43.39212" lon="2.13087">
        <ele>614.9</ele>
        <time>2024-05-11T09:00:26Z</time>
      </trkpt>
      <trkpt lat="43.39228" lon="2.13065">
        <ele>616</ele>
        <time>2024-05-11T09:00:27Z</time>
      </trkpt>
      <trkpt lat="43.39243" lon="2.13044">
        <ele>617.7</ele>
        <time>2024-05-11T09:00:28Z</time>
      </trkpt>
      <trkpt lat="43.39257" lon="2.13025">
        <ele>619</ele>
        <time>2024-05-11T09:00:29Z</time>
      </trkpt>
      <trkpt lat="43.3927" lon="2.13004">
        <ele>620.8</ele>
        <time>2024-05-11T09:00:30Z</time>
      </trkpt>
      <trkpt lat="43.39281" lon="2.12982">
        <ele>621.6</ele>
        <time>2024-05-11T09:00:31Z</time>
      </trkpt>
      <trkpt lat="43.39292" lon="2.12958">
        <ele>623.5</ele>
        <time>2024-05-11T09:00:32Z</time>
      </trkpt>
      <trkpt lat="43.39302" lon="2.12933">
        <ele>624.5</ele>
        <time>2024-05-11T09:00:33Z</time>
      </trkpt>
      <trkpt lat="43.39311" lon="2.12907">
        <ele>625.5</ele>
        <time>2024-05-11T09:00:34Z</time>
      </trkpt>
      <trkpt lat="43.3932" lon="2.1288">
        <ele>627.4</ele>
        <time>2024-05-11T09:00:35Z</time>
      </trkpt>
      <trkpt lat="43.39329" lon="2.12854">
        <ele>628.3</ele>
        <time>2024-05-11T09:00:36Z</time>
      </trkpt>
      <trkpt lat="43.39338" lon="2.12828">
        <ele>629.1</ele>
        <time>2024-05-11T09:00:37Z</time>
      </trkpt>
      <trkpt lat="43.39346" lon="2.12803">
        <ele>630.6</ele>
        <time>2024-05-11T09:00:38Z</time>
      </trkpt>
      <trkpt lat="43.39354" lon="2.12778">
        <ele>631.7</ele>
        <time>2024-05-11T09:00:39Z</time>
      </trkpt>
      <trkpt lat="43.39362" lon="2.12754">
        <ele>632.2</ele>
        <time>2024-05-11T09:00:40Z</time>
      </trkpt>
      <trkpt lat="43.3937" lon="2.1273">
        <ele>633.4</ele>
        <time>2024-05-11T09:00:41Z</time>
      </trkpt>
      <trkpt lat="43.39378" lon="2.12707">
        <ele>633.7</ele>
        <time>2024-05-11T09:00:42Z</time>
      </trkpt>
      <trkpt lat="43.39386" lon="2.12686">
        <ele>634.1</ele>
        <time>2024-05-11T09:00:43Z</time>
      </trkpt>
      <trkpt lat="43.39396" lon="2.12666">
        <ele>634.7</ele>
        <time>2024-05-11T09:00:44Z</time>
      </trkpt>
      <trkpt lat="43.39406" lon="2.12649">
        <ele>635.4</ele>
        <time>2024-05-11T09:00:45Z</time>
      </trkpt>
      <trkpt lat="43.39418" lon="2.12637">
        <ele>636.9</ele>
        <time>2024-05-11T09:00:46Z</time>
      </trkpt>
      <trkpt lat="43.3943" lon="2.12625">
        <ele>636.9</ele>
        <time>2024-05-11T09:00:47Z</time>
      </trkpt>
      <trkpt lat="43.39441" lon="2.12614">
        <ele>637.6</ele>
        <time>2024-05-11T09:00:48Z</time>
      </trkpt>
      <trkpt lat="43.3945" lon="2.12603">
        <ele>637.7</ele>
        <time>2024-05-11T09:00:49Z</time>
      </trkpt>
      <trkpt lat="43.39459" lon="2.1259">
        <ele>637.9</ele>
        <time>2024-05-11T09:00:50Z</time>
      </trkpt>
      <trkpt lat="43.39465" lon="2.12576">
        <ele>638</ele>
        <time>2024-05-11T09:00:51Z</time>
      </trkpt>
      <trkpt lat="43.3947" lon="2.12561">
        <ele>638.5</ele>
        <time>2024-05-11T09:00:52Z</time>
      </trkpt>
      <trkpt lat="43.39473" lon="2.12544">
        <ele>639.1</ele>
        <time>2024-05-11T09:00:53Z</time>
      </trkpt>
      <trkpt lat="43.39474" lon="2.12526">
        <ele>639.2</ele>
        <time>2024-05-11T09:00:54Z</time>
      </trkpt>
      <trkpt lat="43.39473" lon="2.12508">
        <ele>639.1</ele>
        <time>2024-05-11T09:00:55Z</time>
      </trkpt>
      <trkpt lat="43.39471" lon="2.12491">
        <ele>639</ele>
        <time>2024-05-11T09:00:56Z</time>
      </trkpt>
      <trkpt lat="43.39466" lon="2.12475">
        <ele>638.7</ele>
        <time>2024-05-11T09:00:57Z</time>
      </trkpt>
      <trkpt lat="43.39458" lon="2.12462">
        <ele>638.6</ele>
        <time>2024-05-11T09:00:58Z</time>
      </trkpt>
      <trkpt lat="43.3945" lon="2.12447">
        <ele>640.4</ele>
        <time>2024-05-11T09:00:59Z</time>
      </trkpt>
      <trkpt lat="43.3944" lon="2.12434">
        <ele>640.4</ele>
        <time>2024-05-11T09:01:00Z</time>
      </trkpt>
      <trkpt lat="43.39431" lon="2.12419">
        <ele>639.9</ele>
        <time>2024-05-11T09:01:01Z</time>
      </trkpt>
      <trkpt lat="43.39422" lon="2.12403">
        <ele>640.4</ele>
        <time>2024-05-11T09:01:02Z</time>
      </trkpt>
      <trkpt lat="43.39415" lon="2.12384">
        <ele>641.7</ele>
        <time>2024-05-11T09:01:03Z</time>
      </trkpt>
      <trkpt lat="43.3941" lon="2.12364">
        <ele>640.8</ele>
        <time>2024-05-11T09:01:04Z</time>
      </trkpt>
      <trkpt lat="43.39406" lon="2.12345">
        <ele>640.1</ele>
        <time>2024-05-11T09:01:05Z</time>
      </trkpt>
      <trkpt lat="43.39404" lon="2.12322">
        <ele>640.7</ele>
        <time>2024-05-11T09:01:06Z</time>
      </trkpt>
      <trkpt lat="43.39402" lon="2.123">
        <ele>642</ele>
        <time>2024-05-11T09:01:07Z</time>
      </trkpt>
      <trkpt lat="43.39399" lon="2.12281">
        <ele>643.8</ele>
        <time>2024-05-11T09:01:08Z</time>
      </trkpt>
      <trkpt lat="43.39394" lon="2.12263">
        <ele>644.2</ele>
        <time>2024-05-11T09:01:09Z</time>
      </trkpt>
      <trkpt lat="43.39387" lon="2.12247">
        <ele>643.9</ele>
        <time>2024-05-11T09:01:10Z</time>
      </trkpt>
      <trkpt lat="43.39377" lon="2.12234">
        <ele>644</ele>
        <time>2024-05-11T09:01:11Z</time>
      </trkpt>
      <trkpt lat="43.39366" lon="2.12223">
        <ele>645</ele>
        <time>2024-05-11T09:01:12Z</time>
      </trkpt>
      <trkpt lat="43.39352" lon="2.12213">
        <ele>644.6</ele>
        <time>2024-05-11T09:01:13Z</time>
      </trkpt>
      <trkpt lat="43.39338" lon="2.12202">
        <ele>644.4</ele>
        <time>2024-05-11T09:01:14Z</time>
      </trkpt>
      <trkpt lat="43.39325" lon="2.12189">
        <ele>644.4</ele>
        <time>2024-05-11T09:01:15Z</time>
      </trkpt>
      <trkpt lat="43.39313" lon="2.12173">
        <ele>644.7</ele>
        <time>2024-05-11T09:01:16Z</time>
      </trkpt>
      <trkpt lat="43.39303" lon="2.12154">
        <ele>644.7</ele>
        <time>2024-05-11T09:01:17Z</time>
      </trkpt>
      <trkpt lat="43.39293" lon="2.12133">
        <ele>644.1</ele>
        <time>2024-05-11T09:01:18Z</time>
      </trkpt>
      <trkpt lat="43.39285" lon="2.1211">
        <ele>645.3</ele>
        <time>2024-05-11T09:01:19Z</time>
      </trkpt>
      <trkpt lat="43.39279" lon="2.12087">
        <ele>645.1</ele>
        <time>2024-05-11T09:01:20Z</time>
      </trkpt>
      <trkpt lat="43.39275" lon="2.12063">
        <ele>645.1</ele>
        <time>2024-05-11T09:01:21Z</time>
      </trkpt>
      <trkpt lat="43.39273" lon="2.12037">
        <ele>645.2</ele>
        <time>2024-05-11T09:01:22Z</time>
      </trkpt>
      <trkpt lat="43.39273" lon="2.12011">
        <ele>645.8</ele>
        <time>2024-05-11T09:01:23Z</time>
      </trkpt>
      <trkpt lat="43.39274" lon="2.11986">
        <ele>646.3</ele>
        <time>2024-05-11T09:01:24Z</time>
      </trkpt>
      <trkpt lat="43.39276" lon="2.11962">
        <ele>646.6</ele>
        <time>2024-05-11T09:01:25Z</time>
      </trkpt>
      <trkpt lat="43.3928" lon="2.11943">
        <ele>647</ele>
        <time>2024-05-11T09:01:26Z</time>
      </trkpt>
      <trkpt lat="43.39284" lon="2.11928">
        <ele>646.6</ele>
        <time>2024-05-11T09:01:27Z</time>
      </trkpt>
      <trkpt lat="43.39291" lon="2.11915">
        <ele>646.4</ele>
        <time>2024-05-11T09:01:28Z</time>
      </trkpt>
      <trkpt lat="43.39298" lon="2.11904">
        <ele>646</ele>
        <time>2024-05-11T09:01:29Z</time>
      </trkpt>
      <trkpt lat="43.39309" lon="2.11899">
        <ele>646.5</ele>
        <time>2024-05-11T09:01:30Z</time>
      </trkpt>
      <trkpt lat="43.39319" lon="2.11896">
        <ele>646.7</ele>
        <time>2024-05-11T09:01:31Z</time>
      </trkpt>
      <trkpt lat="43.39331" lon="2.11895">
        <ele>647.1</ele>
        <time>2024-05-11T09:01:32Z</time>
      </trkpt>
      <trkpt lat="43.39344" lon="2.11897">
        <ele>647.5</ele>
        <time>2024-05-11T09:01:33Z</time>
      </trkpt>
      <trkpt lat="43.39358" lon="2.119">
        <ele>648.1</ele>
        <time>2024-05-11T09:01:34Z</time>
      </trkpt>
      <trkpt lat="43.39371" lon="2.11905">
        <ele>648.2</ele>
        <time>2024-05-11T09:01:35Z</time>
      </trkpt>
      <trkpt lat="43.39385" lon="2.11909">
        <ele>648.1</ele>
        <time>2024-05-11T09:01:36Z</time>
      </trkpt>
      <trkpt lat="43.39398" lon="2.11913">
        <ele>648.1</ele>
        <time>2024-05-11T09:01:37Z</time>
      </trkpt>
      <trkpt lat="43.39411" lon="2.11915">
        <ele>648</ele>
        <time>2024-05-11T09:01:38Z</time>
      </trkpt>
      <trkpt lat="43.39422" lon="2.11912">
        <ele>648</ele>
        <time>2024-05-11T09:01:39Z</time>
      </trkpt>
      <trkpt lat="43.39434" lon="2.11908">
        <ele>649.2</ele>
        <time>2024-05-11T09:01:40Z</time>
      </trkpt>
      <trkpt lat="43.39444" lon="2.11901">
        <ele>650.4</ele>
        <time>2024-05-11T09:01:41Z</time>
      </trkpt>
      <trkpt lat="43.39453" lon="2.11889">
        <ele>652.5</ele>
        <time>2024-05-11T09:01:42Z</time>
      </trkpt>
      <trkpt lat="43.3946" lon="2.11876">
        <ele>654</ele>
        <time>2024-05-11T09:01:43Z</time>
      </trkpt>
      <trkpt lat="43.39467" lon="2.11859">
        <ele>655.4</ele>
        <time>2024-05-11T09:01:44Z</time>
      </trkpt>
      <trkpt lat="43.39472" lon="2.11841">
        <ele>656.2</ele>
        <time>2024-05-11T09:01:45Z</time>
      </trkpt>
      <trkpt lat="43.39475" lon="2.11821">
        <ele>656.1</ele>
        <time>2024-05-11T09:01:46Z</time>
      </trkpt>
      <trkpt lat="43.39477" lon="2.11801">
        <ele>655.7</ele>
        <time>2024-05-11T09:01:47Z</time>
      </trkpt>
      <trkpt lat="43.39476" lon="2.11781">
        <ele>654.8</ele>
        <time>2024-05-11T09:01:48Z</time>
      </trkpt>
      <trkpt lat="43.39474" lon="2.11763">
        <ele>654.3</ele>
        <time>2024-05-11T09:01:49Z</time>
      </trkpt>
      <trkpt lat="43.3947" lon="2.11744">
        <ele>653.7</ele>
        <time>2024-05-11T09:01:50Z</time>
      </trkpt>
      <trkpt lat="43.39464" lon="2.11727">
        <ele>653.5</ele>
        <time>2024-05-11T09:01:51Z</time>
      </trkpt>
      <trkpt lat="43.39457" lon="2.11709">
        <ele>653.8</ele>
        <time>2024-05-11T09:01:52Z</time>
      </trkpt>
      <trkpt lat="43.39443" lon="2.11698">
        <ele>653.5</ele>
        <time>2024-05-11T09:01:53Z</time>
      </trkpt>
      <trkpt lat="43.3943" lon="2.11686">
        <ele>653.7</ele>
        <time>2024-05-11T09:01:54Z</time>
      </trkpt>
      <trkpt lat="43.39415" lon="2.11672">
        <ele>654.1</ele>
        <time>2024-05-11T09:01:55Z</time>
      </trkpt>
      <trkpt lat="43.39398" lon="2.11657">
        <ele>653.2</ele>
        <time>2024-05-11T09:01:56Z</time>
      </trkpt>
      <trkpt lat="43.39382" lon="2.11641">
        <ele>652.5</ele>
        <time>2024-05-11T09:01:57Z</time>
      </trkpt>
      <trkpt lat="43.39366" lon="2.11625">
        <ele>650.8</ele>
        <time>2024-05-11T09:01:58Z</time>
      </trkpt>
      <trkpt lat="43.3935" lon="2.11607">
        <ele>649.2</ele>
        <time>2024-05-11T09:01:59Z</time>
      </trkpt>
      <trkpt lat="43.39334" lon="2.11589">
        <ele>647.7</ele>
        <time>2024-05-11T09:02:00Z</time>
      </trkpt>
      <trkpt lat="43.39319" lon="2.1157">
        <ele>647.1</ele>
        <time>2024-05-11T09:02:01Z</time>
      </trkpt>
      <trkpt lat="43.39304" lon="2.11552">
        <ele>647</ele>
        <time>2024-05-11T09:02:02Z</time>
      </trkpt>
      <trkpt lat="43.39291" lon="2.11532">
        <ele>646.3</ele>
        <time>2024-05-11T09:02:03Z</time>
      </trkpt>
      <trkpt lat="43.3928" lon="2.11511">
        <ele>645.8</ele>
        <time>2024-05-11T09:02:04Z</time>
      </trkpt>
      <trkpt lat="43.39271" lon="2.11489">
        <ele>645</ele>
        <time>2024-05-11T09:02:05Z</time>
      </trkpt>
      <trkpt lat="43.39266" lon="2.11464">
        <ele>644.3</ele>
        <time>2024-05-11T09:02:06Z</time>
      </trkpt>
      <trkpt lat="43.39263" lon="2.11437">
        <ele>643.9</ele>
        <time>2024-05-11T09:02:07Z</time>
      </trkpt>
      <trkpt lat="43.3926" lon="2.1141">
        <ele>643.3</ele>
        <time>2024-05-11T09:02:08Z</time>
      </trkpt>
      <trkpt lat="43.39258" lon="2.11379">
        <ele>642.4</ele>
        <time>2024-05-11T09:02:09Z</time>
      </trkpt>
      <trkpt lat="43.39257" lon="2.11349">
        <ele>641.8</ele>
        <time>2024-05-11T09:02:10Z</time>
      </trkpt>
      <trkpt lat="43.39254" lon="2.11319">
        <ele>640.7</ele>
        <time>2024-05-11T09:02:11Z</time>
      </trkpt>
      <trkpt lat="43.39252" lon="2.1129">
        <ele>639.8</ele>
        <time>2024-05-11T09:02:12Z</time>
      </trkpt>
      <trkpt lat="43.39251" lon="2.11262">
        <ele>638.6</ele>
        <time>2024-05-11T09:02:13Z</time>
      </trkpt>
      <trkpt lat="43.39249" lon="2.11233">
        <ele>636.6</ele>
        <time>2024-05-11T09:02:14Z</time>
      </trkpt>
      <trkpt lat="43.39248" lon="2.11206">
        <ele>635</ele>
        <time>2024-05-11T09:02:15Z</time>
      </trkpt>
      <trkpt lat="43.39247" lon="2.11179">
        <ele>633.7</ele>
        <time>2024-05-11T09:02:16Z</time>
      </trkpt>
      <trkpt lat="43.39246" lon="2.11153">
        <ele>632.9</ele>
        <time>2024-05-11T09:02:17Z</time>
      </trkpt>
      <trkpt lat="43.39244" lon="2.11128">
        <ele>632.4</ele>
        <time>2024-05-11T09:02:18Z</time>
      </trkpt>
      <trkpt lat="43.39242" lon="2.11103">
        <ele>632.4</ele>
        <time>2024-05-11T09:02:19Z</time>
      </trkpt>
      <trkpt lat="43.39237" lon="2.11079">
        <ele>632.2</ele>
        <time>2024-05-11T09:02:20Z</time>
      </trkpt>
      <trkpt lat="43.39232" lon="2.11059">
        <ele>632</ele>
        <time>2024-05-11T09:02:21Z</time>
      </trkpt>
      <trkpt lat="43.39227" lon="2.11042">
        <ele>631.5</ele>
        <time>2024-05-11T09:02:22Z</time>
      </trkpt>
      <trkpt lat="43.39223" lon="2.11024">
        <ele>630.9</ele>
        <time>2024-05-11T09:02:23Z</time>
      </trkpt>
      <trkpt lat="43.3922" lon="2.11007">
        <ele>630</ele>
        <time>2024-05-11T09:02:24Z</time>
      </trkpt>
      <trkpt lat="43.39223" lon="2.10988">
        <ele>629.7</ele>
        <time>2024-05-11T09:02:25Z</time>
      </trkpt>
      <trkpt lat="43.39226" lon="2.10972">
        <ele>629.4</ele>
        <time>2024-05-11T09:02:26Z</time>
      </trkpt>
      <trkpt lat="43.39232" lon="2.10957">
        <ele>629.3</ele>
        <time>2024-05-11T09:02:27Z</time>
      </trkpt>
      <trkpt lat="43.39238" lon="2.10942">
        <ele>628.9</ele>
        <time>2024-05-11T09:02:28Z</time>
      </trkpt>
      <trkpt lat="43.39248" lon="2.10927">
        <ele>628.6</ele>
        <time>2024-05-11T09:02:29Z</time>
      </trkpt>
      <trkpt lat="43.39259" lon="2.10911">
        <ele>628</ele>
        <time>2024-05-11T09:02:30Z</time>
      </trkpt>
      <trkpt lat="43.39271" lon="2.10894">
        <ele>627.1</ele>
        <time>2024-05-11T09:02:31Z</time>
      </trkpt>
      <trkpt lat="43.39285" lon="2.10877">
        <ele>626.1</ele>
        <time>2024-05-11T09:02:32Z</time>
      </trkpt>
      <trkpt lat="43.39299" lon="2.1086">
        <ele>625.4</ele>
        <time>2024-05-11T09:02:33Z</time>
      </trkpt>
      <trkpt lat="43.39312" lon="2.10842">
        <ele>624.8</ele>
        <time>2024-05-11T09:02:34Z</time>
      </trkpt>
      <trkpt lat="43.39326" lon="2.10823">
        <ele>624.3</ele>
        <time>2024-05-11T09:02:35Z</time>
      </trkpt>
      <trkpt lat="43.39341" lon="2.10804">
        <ele>623.7</ele>
        <time>2024-05-11T09:02:36Z</time>
      </trkpt>
      <trkpt lat="43.39354" lon="2.10783">
        <ele>623</ele>
        <time>2024-05-11T09:02:37Z</time>
      </trkpt>
      <trkpt lat="43.39366" lon="2.10761">
        <ele>623.3</ele>
        <time>2024-05-11T09:02:38Z</time>
      </trkpt>
      <trkpt lat="43.39377" lon="2.10738">
        <ele>623.3</ele>
        <time>2024-05-11T09:02:39Z</time>
      </trkpt>
      <trkpt lat="43.39388" lon="2.10716">
        <ele>623.3</ele>
        <time>2024-05-11T09:02:40Z</time>
      </trkpt>
      <trkpt lat="43.39399" lon="2.10695">
        <ele>622.2</ele>
        <time>2024-05-11T09:02:41Z</time>
      </trkpt>
      <trkpt lat="43.3941" lon="2.10673">
        <ele>622.3</ele>
        <time>2024-05-11T09:02:42Z</time>
      </trkpt>
      <trkpt lat="43.39421" lon="2.10651">
        <ele>622.2</ele>
        <time>2024-05-11T09:02:43Z</time>
      </trkpt>
      <trkpt lat="43.39433" lon="2.10629">
        <ele>621.5</ele>
        <time>2024-05-11T09:02:44Z</time>
      </trkpt>
      <trkpt lat="43.39443" lon="2.10605">
        <ele>622</ele>
        <time>2024-05-11T09:02:45Z</time>
      </trkpt>
      <trkpt lat="43.39454" lon="2.10581">
        <ele>621.4</ele>
        <time>2024-05-11T09:02:46Z</time>
      </trkpt>
      <trkpt lat="43.39463" lon="2.10555">
        <ele>620.7</ele>
        <time>2024-05-11T09:02:47Z</time>
      </trkpt>
      <trkpt lat="43.39472" lon="2.10529">
        <ele>620</ele>
        <time>2024-05-11T09:02:48Z</time>
      </trkpt>
      <trkpt lat="43.39481" lon="2.10502">
        <ele>618.1</ele>
        <time>2024-05-11T09:02:49Z</time>
      </trkpt>
      <trkpt lat="43.3949" lon="2.10476">
        <ele>617.5</ele>
        <time>2024-05-11T09:02:50Z</time>
      </trkpt>
      <trkpt lat="43.39499" lon="2.10451">
        <ele>617.6</ele>
        <time>2024-05-11T09:02:51Z</time>
      </trkpt>
      <trkpt lat="43.39508" lon="2.10425">
        <ele>617.6</ele>
        <time>2024-05-11T09:02:52Z</time>
      </trkpt>
      <trkpt lat="43.39516" lon="2.10398">
        <ele>617.9</ele>
        <time>2024-05-11T09:02:53Z</time>
      </trkpt>
      <trkpt lat="43.39523" lon="2.10369">
        <ele>617.9</ele>
        <time>2024-05-11T09:02:54Z</time>
      </trkpt>
      <trkpt lat="43.39528" lon="2.10341">
        <ele>618.4</ele>
        <time>2024-05-11T09:02:55Z</time>
      </trkpt>
      <trkpt lat="43.39533" lon="2.10313">
        <ele>618.5</ele>
        <time>2024-05-11T09:02:56Z</time>
      </trkpt>
      <trkpt lat="43.39538" lon="2.10284">
        <ele>617.4</ele>
        <time>2024-05-11T09:02:57Z</time>
      </trkpt>
      <trkpt lat="43.39543" lon="2.10256">
        <ele>616.9</ele>
        <time>2024-05-11T09:02:58Z</time>
      </trkpt>
      <trkpt lat="43.39547" lon="2.10227">
        <ele>616.4</ele>
        <time>2024-05-11T09:02:59Z</time>
      </trkpt>
      <trkpt lat="43.39552" lon="2.10197">
        <ele>615.9</ele>
        <time>2024-05-11T09:03:00Z</time>
      </trkpt>
      <trkpt lat="43.39557" lon="2.10168">
        <ele>616.5</ele>
        <time>2024-05-11T09:03:01Z</time>
      </trkpt>
      <trkpt lat="43.39562" lon="2.10139">
        <ele>616.4</ele>
        <time>2024-05-11T09:03:02Z</time>
      </trkpt>
      <trkpt lat="43.39567" lon="2.10111">
        <ele>615.5</ele>
        <time>2024-05-11T09:03:03Z</time>
      </trkpt>
      <trkpt lat="43.39571" lon="2.10083">
        <ele>615.7</ele>
        <time>2024-05-11T09:03:04Z</time>
      </trkpt>
      <trkpt lat="43.39575" lon="2.10055">
        <ele>614.8</ele>
        <time>2024-05-11T09:03:05Z</time>
      </trkpt>
      <trkpt lat="43.39577" lon="2.10027">
        <ele>614.3</ele>
        <time>2024-05-11T09:03:06Z</time>
      </trkpt>
      <trkpt lat="43.39578" lon="2.09999">
        <ele>613.3</ele>
        <time>2024-05-11T09:03:07Z</time>
      </trkpt>
      <trkpt lat="43.39578" lon="2.0997">
        <ele>613.3</ele>
        <time>2024-05-11T09:03:08Z</time>
      </trkpt>
      <trkpt lat="43.3958" lon="2.09942">
        <ele>612.8</ele>
        <time>2024-05-11T09:03:09Z</time>
      </trkpt>
      <trkpt lat="43.39582" lon="2.09913">
        <ele>612.5</ele>
        <time>2024-05-11T09:03:10Z</time>
      </trkpt>
      <trkpt lat="43.39584" lon="2.09883">
        <ele>612.8</ele>
        <time>2024-05-11T09:03:11Z</time>
      </trkpt>
      <trkpt lat="43.39587" lon="2.09853">
        <ele>612.1</ele>
        <time>2024-05-11T09:03:12Z</time>
      </trkpt>
      <trkpt lat="43.39589" lon="2.09824">
        <ele>611.6</ele>
        <time>2024-05-11T09:03:13Z</time>
      </trkpt>
      <trkpt lat="43.39591" lon="2.09795">
        <ele>610.7</ele>
        <time>2024-05-11T09:03:14Z</time>
      </trkpt>
      <trkpt lat="43.39593" lon="2.09767">
        <ele>609.3</ele>
        <time>2024-05-11T09:03:15Z</time>
      </trkpt>
      <trkpt lat="43.39596" lon="2.09739">
        <ele>608.5</ele>
        <time>2024-05-11T09:03:16Z</time>
      </trkpt>
      <trkpt lat="43.39599" lon="2.09713">
        <ele>608.1</ele>
        <time>2024-05-11T09:03:17Z</time>
      </trkpt>
      <trkpt lat="43.39602" lon="2.09688">
        <ele>607.5</ele>
        <time>2024-05-11T09:03:18Z</time>
      </trkpt>
      <trkpt lat="43.39606" lon="2.09664">
        <ele>607.1</ele>
        <time>2024-05-11T09:03:19Z</time>
      </trkpt>
      <trkpt lat="43.3961" lon="2.09641">
        <ele>606.2</ele>
        <time>2024-05-11T09:03:20Z</time>
      </trkpt>
      <trkpt lat="43.39613" lon="2.09622">
        <ele>605.6</ele>
        <time>2024-05-11T09:03:21Z</time>
      </trkpt>
      <trkpt lat="43.39619" lon="2.09604">
        <ele>604.5</ele>
        <time>2024-05-11T09:03:22Z</time>
      </trkpt>
      <trkpt lat="43.39624" lon="2.09586">
        <ele>603.6</ele>
        <time>2024-05-11T09:03:23Z</time>
      </trkpt>
      <trkpt lat="43.3963" lon="2.0957">
        <ele>603.1</ele>
        <time>2024-05-11T09:03:24Z</time>
      </trkpt>
      <trkpt lat="43.39638" lon="2.09558">
        <ele>602.9</ele>
        <time>2024-05-11T09:03:25Z</time>
      </trkpt>
      <trkpt lat="43.39647" lon="2.09549">
        <ele>602.4</ele>
        <time>2024-05-11T09:03:26Z</time>
      </trkpt>
      <trkpt lat="43.39657" lon="2.09542">
        <ele>602</ele>
        <time>2024-05-11T09:03:27Z</time>
      </trkpt>
      <trkpt lat="43.39668" lon="2.09535">
        <ele>602</ele>
        <time>2024-05-11T09:03:28Z</time>
      </trkpt>
      <trkpt lat="43.3968" lon="2.09528">
        <ele>602</ele>
        <time>2024-05-11T09:03:29Z</time>
      </trkpt>
      <trkpt lat="43.39692" lon="2.0952">
        <ele>601.2</ele>
        <time>2024-05-11T09:03:30Z</time>
      </trkpt>
      <trkpt lat="43.39705" lon="2.09512">
        <ele>600.7</ele>
        <time>2024-05-11T09:03:31Z</time>
      </trkpt>
      <trkpt lat="43.39719" lon="2.09505">
        <ele>601</ele>
        <time>2024-05-11T09:03:32Z</time>
      </trkpt>
      <trkpt lat="43.39732" lon="2.09497">
        <ele>601.1</ele>
        <time>2024-05-11T09:03:33Z</time>
      </trkpt>
      <trkpt lat="43.39745" lon="2.0949">
        <ele>601.3</ele>
        <time>2024-05-11T09:03:34Z</time>
      </trkpt>
      <trkpt lat="43.39757" lon="2.09482">
        <ele>601.8</ele>
        <time>2024-05-11T09:03:35Z</time>
      </trkpt>
      <trkpt lat="43.39767" lon="2.09472">
        <ele>602.2</ele>
        <time>2024-05-11T09:03:36Z</time>
      </trkpt>
      <trkpt lat="43.39777" lon="2.09459">
        <ele>602.9</ele>
        <time>2024-05-11T09:03:37Z</time>
      </trkpt>
      <trkpt lat="43.39785" lon="2.09443">
        <ele>604</ele>
        <time>2024-05-11T09:03:38Z</time>
      </trkpt>
      <trkpt lat="43.39792" lon="2.09427">
        <ele>604.7</ele>
        <time>2024-05-11T09:03:39Z</time>
      </trkpt>
      <trkpt lat="43.39798" lon="2.09409">
        <ele>605.3</ele>
        <time>2024-05-11T09:03:40Z</time>
      </trkpt>
      <trkpt lat="43.39804" lon="2.0939">
        <ele>606.7</ele>
        <time>2024-05-11T09:03:41Z</time>
      </trkpt>
      <trkpt lat="43.39807" lon="2.0937">
        <ele>608</ele>
        <time>2024-05-11T09:03:42Z</time>
      </trkpt>
      <trkpt lat="43.39808" lon="2.0935">
        <ele>608.9</ele>
        <time>2024-05-11T09:03:43Z</time>
      </trkpt>
      <trkpt lat="43.39807" lon="2.09331">
        <ele>609.4</ele>
        <time>2024-05-11T09:03:44Z</time>
      </trkpt>
      <trkpt lat="43.39805" lon="2.09312">
        <ele>609.7</ele>
        <time>2024-05-11T09:03:45Z</time>
      </trkpt>
      <trkpt lat="43.39802" lon="2.09295">
        <ele>610.5</ele>
        <time>2024-05-11T09:03:46Z</time>
      </trkpt>
      <trkpt lat="43.398" lon="2.09278">
        <ele>611.8</ele>
        <time>2024-05-11T09:03:47Z</time>
      </trkpt>
      <trkpt lat="43.398" lon="2.0926">
        <ele>612.8</ele>
        <time>2024-05-11T09:03:48Z</time>
      </trkpt>
      <trkpt lat="43.39801" lon="2.09242">
        <ele>613.3</ele>
        <time>2024-05-11T09:03:49Z</time>
      </trkpt>
      <trkpt lat="43.39804" lon="2.09224">
        <ele>613.5</ele>
        <time>2024-05-11T09:03:50Z</time>
      </trkpt>
      <trkpt lat="43.3981" lon="2.09207">
        <ele>614.9</ele>
        <time>2024-05-11T09:03:51Z</time>
      </trkpt>
      <trkpt lat="43.39816" lon="2.09191">
        <ele>615.7</ele>
        <time>2024-05-11T09:03:52Z</time>
      </trkpt>
      <trkpt lat="43.39821" lon="2.09176">
        <ele>615.8</ele>
        <time>2024-05-11T09:03:53Z</time>
      </trkpt>
      <trkpt lat="43.39827" lon="2.09163">
        <ele>616.3</ele>
        <time>2024-05-11T09:03:54Z</time>
      </trkpt>
      <trkpt lat="43.39833" lon="2.09152">
        <ele>616.9</ele>
        <time>2024-05-11T09:03:55Z</time>
      </trkpt>
      <trkpt lat="43.3984" lon="2.09145">
        <ele>616.9</ele>
        <time>2024-05-11T09:03:56Z</time>
      </trkpt>
      <trkpt lat="43.39847" lon="2.09143">
        <ele>617.2</ele>
        <time>2024-05-11T09:03:57Z</time>
      </trkpt>
      <trkpt lat="43.39854" lon="2.09143">
        <ele>617.7</ele>
        <time>2024-05-11T09:03:58Z</time>
      </trkpt>
      <trkpt lat="43.39863" lon="2.09146">
        <ele>618.3</ele>
        <time>2024-05-11T09:03:59Z</time>
      </trkpt>
      <trkpt lat="43.39872" lon="2.09153">
        <ele>618.5</ele>
        <time>2024-05-11T09:04:00Z</time>
      </trkpt>
      <trkpt lat="43.39882" lon="2.09163">
        <ele>618.9</ele>
        <time>2024-05-11T09:04:01Z</time>
      </trkpt>
      <trkpt lat="43.39893" lon="2.09175">
        <ele>619.5</ele>
        <time>2024-05-11T09:04:02Z</time>
      </trkpt>
      <trkpt lat="43.39906" lon="2.09188">
        <ele>619.9</ele>
        <time>2024-05-11T09:04:03Z</time>
      </trkpt>
      <trkpt lat="43.39919" lon="2.09202">
        <ele>620.1</ele>
        <time>2024-05-11T09:04:04Z</time>
      </trkpt>
      <trkpt lat="43.39934" lon="2.09216">
        <ele>619.9</ele>
        <time>2024-05-11T09:04:05Z</time>
      </trkpt>
      <trkpt lat="43.39947" lon="2.0923">
        <ele>620.4</ele>
        <time>2024-05-11T09:04:06Z</time>
      </trkpt>
      <trkpt lat="43.39961" lon="2.09244">
        <ele>620.4</ele>
        <time>2024-05-11T09:04:07Z</time>
      </trkpt>
      <trkpt lat="43.39975" lon="2.09258">
        <ele>620.5</ele>
        <time>2024-05-11T09:04:08Z</time>
      </trkpt>
      <trkpt lat="43.39989" lon="2.09271">
        <ele>620.9</ele>
        <time>2024-05-11T09:04:09Z</time>
      </trkpt>
      <trkpt lat="43.40002" lon="2.09283">
        <ele>621.1</ele>
        <time>2024-05-11T09:04:10Z</time>
      </trkpt>
      <trkpt lat="43.40016" lon="2.09292">
        <ele>620.9</ele>
        <time>2024-05-11T09:04:11Z</time>
      </trkpt>
      <trkpt lat="43.4003" lon="2.09297">
        <ele>620.7</ele>
        <time>2024-05-11T09:04:12Z</time>
      </trkpt>
      <trkpt lat="43.40044" lon="2.09299">
        <ele>620.8</ele>
        <time>2024-05-11T09:04:13Z</time>
      </trkpt>
      <trkpt lat="43.40059" lon="2.09298">
        <ele>620.8</ele>
        <time>2024-05-11T09:04:14Z</time>
      </trkpt>
      <trkpt lat="43.40074" lon="2.09294">
        <ele>620.9</ele>
        <time>2024-05-11T09:04:15Z</time>
      </trkpt>
      <trkpt lat="43.40088" lon="2.09286">
        <ele>621.2</ele>
        <time>2024-05-11T09:04:16Z</time>
      </trkpt>
      <trkpt lat="43.40101" lon="2.09276">
        <ele>621.6</ele>
        <time>2024-05-11T09:04:17Z</time>
      </trkpt>
      <trkpt lat="43.40114" lon="2.09263">
        <ele>622.5</ele>
        <time>2024-05-11T09:04:18Z</time>
      </trkpt>
      <trkpt lat="43.40125" lon="2.09246">
        <ele>623.6</ele>
        <time>2024-05-11T09:04:19Z</time>
      </trkpt>
      <trkpt lat="43.40135" lon="2.09228">
        <ele>623.1</ele>
        <time>2024-05-11T09:04:20Z</time>
      </trkpt>
      <trkpt lat="43.40146" lon="2.09208">
        <ele>624</ele>
        <time>2024-05-11T09:04:21Z</time>
      </trkpt>
      <trkpt lat="43.40157" lon="2.09186">
        <ele>624.5</ele>
        <time>2024-05-11T09:04:22Z</time>
      </trkpt>
      <trkpt lat="43.40169" lon="2.09164">
        <ele>625.2</ele>
        <time>2024-05-11T09:04:23Z</time>
      </trkpt>
      <trkpt lat="43.40181" lon="2.09144">
        <ele>625.9</ele>
        <time>2024-05-11T09:04:24Z</time>
      </trkpt>
      <trkpt lat="43.40194" lon="2.09124">
        <ele>626.8</ele>
        <time>2024-05-11T09:04:25Z</time>
      </trkpt>
      <trkpt lat="43.40207" lon="2.09105">
        <ele>627.1</ele>
        <time>2024-05-11T09:04:26Z</time>
      </trkpt>
      <trkpt lat="43.40222" lon="2.09088">
        <ele>627.5</ele>
        <time>2024-05-11T09:04:27Z</time>
      </trkpt>
      <trkpt lat="43.40235" lon="2.0907">
        <ele>627.9</ele>
        <time>2024-05-11T09:04:28Z</time>
      </trkpt>
      <trkpt lat="43.40248" lon="2.09052">
        <ele>628.4</ele>
        <time>2024-05-11T09:04:29Z</time>
      </trkpt>
      <trkpt lat="43.4026" lon="2.09031">
        <ele>629</ele>
        <time>2024-05-11T09:04:30Z</time>
      </trkpt>
      <trkpt lat="43.40271" lon="2.09009">
        <ele>629.3</ele>
        <time>2024-05-11T09:04:31Z</time>
      </trkpt>
      <trkpt lat="43.40282" lon="2.08986">
        <ele>630.3</ele>
        <time>2024-05-11T09:04:32Z</time>
      </trkpt>
      <trkpt lat="43.40294" lon="2.08964">
        <ele>631.3</ele>
        <time>2024-05-11T09:04:33Z</time>
      </trkpt>
      <trkpt lat="43.40306" lon="2.08941">
        <ele>631.8</ele>
        <time>2024-05-11T09:04:34Z</time>
      </trkpt>
      <trkpt lat="43.40319" lon="2.0892">
        <ele>632.7</ele>
        <time>2024-05-11T09:04:35Z</time>
      </trkpt>
      <trkpt lat="43.40332" lon="2.08899">
        <ele>633.5</ele>
        <time>2024-05-11T09:04:36Z</time>
      </trkpt>
      <trkpt lat="43.40345" lon="2.08878">
        <ele>633.9</ele>
        <time>2024-05-11T09:04:37Z</time>
      </trkpt>
      <trkpt lat="43.40358" lon="2.08858">
        <ele>634.2</ele>
        <time>2024-05-11T09:04:38Z</time>
      </trkpt>
      <trkpt lat="43.40372" lon="2.08839">
        <ele>635.4</ele>
        <time>2024-05-11T09:04:39Z</time>
      </trkpt>
      <trkpt lat="43.40386" lon="2.0882">
        <ele>636</ele>
        <time>2024-05-11T09:04:40Z</time>
      </trkpt>
      <trkpt lat="43.404" lon="2.08802">
        <ele>636.6</ele>
        <time>2024-05-11T09:04:41Z</time>
      </trkpt>
      <trkpt lat="43.40415" lon="2.08784">
        <ele>636.7</ele>
        <time>2024-05-11T09:04:42Z</time>
      </trkpt>
      <trkpt lat="43.4043" lon="2.08766">
        <ele>637.6</ele>
        <time>2024-05-11T09:04:43Z</time>
      </trkpt>
      <trkpt lat="43.40445" lon="2.08747">
        <ele>637.9</ele>
        <time>2024-05-11T09:04:44Z</time>
      </trkpt>
      <trkpt lat="43.4046" lon="2.08728">
        <ele>639.2</ele>
        <time>2024-05-11T09:04:45Z</time>
      </trkpt>
      <trkpt lat="43.40474" lon="2.08706">
        <ele>639.5</ele>
        <time>2024-05-11T09:04:46Z</time>
      </trkpt>
      <trkpt lat="43.40487" lon="2.08684">
        <ele>639.9</ele>
        <time>2024-05-11T09:04:47Z</time>
      </trkpt>
      <trkpt lat="43.40501" lon="2.0866">
        <ele>640.8</ele>
        <time>2024-05-11T09:04:48Z</time>
      </trkpt>
      <trkpt lat="43.40514" lon="2.08634">
        <ele>641.2</ele>
        <time>2024-05-11T09:04:49Z</time>
      </trkpt>
      <trkpt lat="43.40527" lon="2.08608">
        <ele>641.9</ele>
        <time>2024-05-11T09:04:50Z</time>
      </trkpt>
      <trkpt lat="43.40539" lon="2.08583">
        <ele>642.4</ele>
        <time>2024-05-11T09:04:51Z</time>
      </trkpt>
      <trkpt lat="43.40551" lon="2.08559">
        <ele>642</ele>
        <time>2024-05-11T09:04:52Z</time>
      </trkpt>
      <trkpt lat="43.40562" lon="2.08535">
        <ele>641.3</ele>
        <time>2024-05-11T09:04:53Z</time>
      </trkpt>
      <trkpt lat="43.40573" lon="2.08513">
        <ele>640.7</ele>
        <time>2024-05-11T09:04:54Z</time>
      </trkpt>
      <trkpt lat="43.40584" lon="2.08489">
        <ele>640</ele>
        <time>2024-05-11T09:04:55Z</time>
      </trkpt>
      <trkpt lat="43.40594" lon="2.08466">
        <ele>639.5</ele>
        <time>2024-05-11T09:04:56Z</time>
      </trkpt>
      <trkpt lat="43.40605" lon="2.08443">
        <ele>638.4</ele>
        <time>2024-05-11T09:04:57Z</time>
      </trkpt>
      <trkpt lat="43.40615" lon="2.08421">
        <ele>637</ele>
        <time>2024-05-11T09:04:58Z</time>
      </trkpt>
      <trkpt lat="43.40625" lon="2.08398">
        <ele>636.2</ele>
        <time>2024-05-11T09:04:59Z</time>
      </trkpt>
      <trkpt lat="43.40636" lon="2.08376">
        <ele>635.2</ele>
        <time>2024-05-11T09:05:00Z</time>
      </trkpt>
      <trkpt lat="43.40646" lon="2.08355">
        <ele>634.8</ele>
        <time>2024-05-11T09:05:01Z</time>
      </trkpt>
      <trkpt lat="43.40654" lon="2.08336">
        <ele>634.1</ele>
        <time>2024-05-11T09:05:02Z</time>
      </trkpt>
      <trkpt lat="43.40662" lon="2.08319">
        <ele>633.5</ele>
        <time>2024-05-11T09:05:03Z</time>
      </trkpt>
      <trkpt lat="43.4067" lon="2.08301">
        <ele>632.8</ele>
        <time>2024-05-11T09:05:04Z</time>
      </trkpt>
      <trkpt lat="43.40678" lon="2.08283">
        <ele>632.2</ele>
        <time>2024-05-11T09:05:05Z</time>
      </trkpt>
      <trkpt lat="43.40686" lon="2.08266">
        <ele>631.2</ele>
        <time>2024-05-11T09:05:06Z</time>
      </trkpt>
      <trkpt lat="43.40694" lon="2.08252">
        <ele>630.1</ele>
        <time>2024-05-11T09:05:07Z</time>
      </trkpt>
      <trkpt lat="43.407" lon="2.08238">
        <ele>629.2</ele>
        <time>2024-05-11T09:05:08Z</time>
      </trkpt>
      <trkpt lat="43.40706" lon="2.08225">
        <ele>628.6</ele>
        <time>2024-05-11T09:05:09Z</time>
      </trkpt>
      <trkpt lat="43.40713" lon="2.08212">
        <ele>628.1</ele>
        <time>2024-05-11T09:05:10Z</time>
      </trkpt>
      <trkpt lat="43.40719" lon="2.08199">
        <ele>627.3</ele>
        <time>2024-05-11T09:05:11Z</time>
      </trkpt>
      <trkpt lat="43.40723" lon="2.08189">
        <ele>626.8</ele>
        <time>2024-05-11T09:05:12Z</time>
      </trkpt>
      <trkpt lat="43.40728" lon="2.08178">
        <ele>626.5</ele>
        <time>2024-05-11T09:05:13Z</time>
      </trkpt>
      <trkpt lat="43.40733" lon="2.08168">
        <ele>626.1</ele>
        <time>2024-05-11T09:05:14Z</time>
      </trkpt>
      <trkpt lat="43.40739" lon="2.08159">
        <ele>625.6</ele>
        <time>2024-05-11T09:05:15Z</time>
      </trkpt>
      <trkpt lat="43.40745" lon="2.0815">
        <ele>624.9</ele>
        <time>2024-05-11T09:05:16Z</time>
      </trkpt>
      <trkpt lat="43.40753" lon="2.0814">
        <ele>624</ele>
        <time>2024-05-11T09:05:17Z</time>
      </trkpt>
      <trkpt lat="43.40761" lon="2.08134">
        <ele>623.4</ele>
        <time>2024-05-11T09:05:18Z</time>
      </trkpt>
      <trkpt lat="43.40769" lon="2.08128">
        <ele>622.9</ele>
        <time>2024-05-11T09:05:19Z</time>
      </trkpt>
      <trkpt lat="43.40779" lon="2.08124">
        <ele>622.4</ele>
        <time>2024-05-11T09:05:20Z</time>
      </trkpt>
      <trkpt lat="43.40789" lon="2.08123">
        <ele>621.6</ele>
        <time>2024-05-11T09:05:21Z</time>
      </trkpt>
      <trkpt lat="43.40799" lon="2.08123">
        <ele>620.9</ele>
        <time>2024-05-11T09:05:22Z</time>
      </trkpt>
      <trkpt lat="43.40809" lon="2.08126">
        <ele>620.2</ele>
        <time>2024-05-11T09:05:23Z</time>
      </trkpt>
      <trkpt lat="43.40819" lon="2.08128">
        <ele>619.5</ele>
        <time>2024-05-11T09:05:24Z</time>
      </trkpt>
      <trkpt lat="43.40828" lon="2.08129">
        <ele>618.7</ele>
        <time>2024-05-11T09:05:25Z</time>
      </trkpt>
      <trkpt lat="43.40836" lon="2.08131">
        <ele>618.3</ele>
        <time>2024-05-11T09:05:26Z</time>
      </trkpt>
      <trkpt lat="43.40841" lon="2.08132">
        <ele>618.2</ele>
        <time>2024-05-11T09:05:27Z</time>
      </trkpt>
      <trkpt lat="43.40846" lon="2.08133">
        <ele>618.1</ele>
        <time>2024-05-11T09:05:28Z</time>
      </trkpt>
      <trkpt lat="43.4085" lon="2.08134">
        <ele>618</ele>
        <time>2024-05-11T09:05:29Z</time>
      </trkpt>
      <trkpt lat="43.40854" lon="2.08135">
        <ele>618</ele>
        <time>2024-05-11T09:05:30Z</time>
      </trkpt>
      <trkpt lat="43.40857" lon="2.08136">
        <ele>617.9</ele>
        <time>2024-05-11T09:05:31Z</time>
      </trkpt>
      <trkpt lat="43.40861" lon="2.08136">
        <ele>617.8</ele>
        <time>2024-05-11T09:05:32Z</time>
      </trkpt>
      <trkpt lat="43.40864" lon="2.08137">
        <ele>617.7</ele>
        <time>2024-05-11T09:05:33Z</time>
      </trkpt>
      <trkpt lat="43.40868" lon="2.08137">
        <ele>617.4</ele>
        <time>2024-05-11T09:05:34Z</time>
      </trkpt>
      <trkpt lat="43.40872" lon="2.08137">
        <ele>617.1</ele>
        <time>2024-05-11T09:05:35Z</time>
      </trkpt>
      <trkpt lat="43.40877" lon="2.08137">
        <ele>616.8</ele>
        <time>2024-05-11T09:05:36Z</time>
      </trkpt>
      <trkpt lat="43.4088" lon="2.08136">
        <ele>616.5</ele>
        <time>2024-05-11T09:05:37Z</time>
      </trkpt>
      <trkpt lat="43.40883" lon="2.08136">
        <ele>616.3</ele>
        <time>2024-05-11T09:05:38Z</time>
      </trkpt>
      <trkpt lat="43.40887" lon="2.08135">
        <ele>616</ele>
        <time>2024-05-11T09:05:39Z</time>
      </trkpt>
      <trkpt lat="43.40891" lon="2.08133">
        <ele>615.7</ele>
        <time>2024-05-11T09:05:40Z</time>
      </trkpt>
      <trkpt lat="43.40894" lon="2.08132">
        <ele>615.4</ele>
        <time>2024-05-11T09:05:41Z</time>
      </trkpt>
      <trkpt lat="43.40898" lon="2.0813">
        <ele>615.1</ele>
        <time>2024-05-11T09:05:42Z</time>
      </trkpt>
      <trkpt lat="43.40903" lon="2.08128">
        <ele>614.8</ele>
        <time>2024-05-11T09:05:43Z</time>
      </trkpt>
      <trkpt lat="43.40907" lon="2.08125">
        <ele>614.5</ele>
        <time>2024-05-11T09:05:44Z</time>
      </trkpt>
      <trkpt lat="43.4091" lon="2.08123">
        <ele>614.3</ele>
        <time>2024-05-11T09:05:45Z</time>
      </trkpt>
      <trkpt lat="43.40914" lon="2.0812">
        <ele>614.1</ele>
        <time>2024-05-11T09:05:46Z</time>
      </trkpt>
      <trkpt lat="43.40918" lon="2.08115">
        <ele>613.9</ele>
        <time>2024-05-11T09:05:47Z</time>
      </trkpt>
      <trkpt lat="43.40922" lon="2.08111">
        <ele>613.8</ele>
        <time>2024-05-11T09:05:48Z</time>
      </trkpt>
      <trkpt lat="43.40927" lon="2.08106">
        <ele>613.5</ele>
        <time>2024-05-11T09:05:49Z</time>
      </trkpt>
      <trkpt lat="43.40932" lon="2.08102">
        <ele>613.3</ele>
        <time>2024-05-11T09:05:50Z</time>
      </trkpt>
      <trkpt lat="43.40936" lon="2.08097">
        <ele>613.1</ele>
        <time>2024-05-11T09:05:51Z</time>
      </trkpt>
      <trkpt lat="43.40941" lon="2.08092">
        <ele>613</ele>
        <time>2024-05-11T09:05:52Z</time>
      </trkpt>
      <trkpt lat="43.40947" lon="2.08086">
        <ele>613</ele>
        <time>2024-05-11T09:05:53Z</time>
      </trkpt>
      <trkpt lat="43.40952" lon="2.0808">
        <ele>612.9</ele>
        <time>2024-05-11T09:05:54Z</time>
      </trkpt>
      <trkpt lat="43.40958" lon="2.08074">
        <ele>612.8</ele>
        <time>2024-05-11T09:05:55Z</time>
      </trkpt>
      <trkpt lat="43.40964" lon="2.08068">
        <ele>612.8</ele>
        <time>2024-05-11T09:05:56Z</time>
      </trkpt>
      <trkpt lat="43.4097" lon="2.08061">
        <ele>612.9</ele>
        <time>2024-05-11T09:05:57Z</time>
      </trkpt>
      <trkpt lat="43.40976" lon="2.08056">
        <ele>613</ele>
        <time>2024-05-11T09:05:58Z</time>
      </trkpt>
      <trkpt lat="43.40982" lon="2.0805">
        <ele>612.8</ele>
        <time>2024-05-11T09:05:59Z</time>
      </trkpt>
      <trkpt lat="43.40988" lon="2.08044">
        <ele>612.6</ele>
        <time>2024-05-11T09:06:00Z</time>
      </trkpt>
      <trkpt lat="43.40993" lon="2.08038">
        <ele>612.4</ele>
        <time>2024-05-11T09:06:01Z</time>
      </trkpt>
      <trkpt lat="43.40999" lon="2.08033">
        <ele>612.2</ele>
        <time>2024-05-11T09:06:02Z</time>
      </trkpt>
      <trkpt lat="43.41004" lon="2.08028">
        <ele>612.2</ele>
        <time>2024-05-11T09:06:03Z</time>
      </trkpt>
      <trkpt lat="43.41009" lon="2.08024">
        <ele>612.2</ele>
        <time>2024-05-11T09:06:04Z</time>
      </trkpt>
      <trkpt lat="43.41014" lon="2.08019">
        <ele>612.2</ele>
        <time>2024-05-11T09:06:05Z</time>
      </trkpt>
      <trkpt lat="43.41019" lon="2.08015">
        <ele>612.2</ele>
        <time>2024-05-11T09:06:06Z</time>
      </trkpt>
      <trkpt lat="43.41024" lon="2.08011">
        <ele>612.3</ele>
        <time>2024-05-11T09:06:07Z</time>
      </trkpt>
      <trkpt lat="43.41028" lon="2.08006">
        <ele>612.2</ele>
        <time>2024-05-11T09:06:08Z</time>
      </trkpt>
      <trkpt lat="43.41033" lon="2.08002">
        <ele>612.3</ele>
        <time>2024-05-11T09:06:09Z</time>
      </trkpt>
      <trkpt lat="43.41037" lon="2.07998">
        <ele>612.2</ele>
        <time>2024-05-11T09:06:10Z</time>
      </trkpt>
      <trkpt lat="43.41041" lon="2.07994">
        <ele>612</ele>
        <time>2024-05-11T09:06:11Z</time>
      </trkpt>
      <trkpt lat="43.41045" lon="2.0799">
        <ele>611.9</ele>
        <time>2024-05-11T09:06:12Z</time>
      </trkpt>
      <trkpt lat="43.41048" lon="2.07987">
        <ele>611.8</ele>
        <time>2024-05-11T09:06:13Z</time>
      </trkpt>
      <trkpt lat="43.41052" lon="2.07984">
        <ele>611.7</ele>
        <time>2024-05-11T09:06:14Z</time>
      </trkpt>
      <trkpt lat="43.41055" lon="2.07981">
        <ele>611.6</ele>
        <time>2024-05-11T09:06:15Z</time>
      </trkpt>
      <trkpt lat="43.41059" lon="2.07977">
        <ele>611.6</ele>
        <time>2024-05-11T09:06:16Z</time>
      </trkpt>
      <trkpt lat="43.41064" lon="2.07973">
        <ele>611.7</ele>
        <time>2024-05-11T09:06:17Z</time>
      </trkpt>
      <trkpt lat="43.41069" lon="2.07968">
        <ele>611.7</ele>
        <time>2024-05-11T09:06:18Z</time>
      </trkpt>
      <trkpt lat="43.41073" lon="2.07964">
        <ele>611.8</ele>
        <time>2024-05-11T09:06:19Z</time>
      </trkpt>
      <trkpt lat="43.41079" lon="2.07958">
        <ele>611.7</ele>
        <time>2024-05-11T09:06:20Z</time>
      </trkpt>
      <trkpt lat="43.41084" lon="2.07953">
        <ele>611.7</ele>
        <time>2024-05-11T09:06:21Z</time>
      </trkpt>
      <trkpt lat="43.41089" lon="2.07948">
        <ele>611.7</ele>
        <time>2024-05-11T09:06:22Z</time>
      </trkpt>
      <trkpt lat="43.41095" lon="2.07943">
        <ele>611.8</ele>
        <time>2024-05-11T09:06:23Z</time>
      </trkpt>
      <trkpt lat="43.41101" lon="2.07938">
        <ele>611.9</ele>
        <time>2024-05-11T09:06:24Z</time>
      </trkpt>
      <trkpt lat="43.41109" lon="2.07932">
        <ele>612</ele>
        <time>2024-05-11T09:06:25Z</time>
      </trkpt>
      <trkpt lat="43.41115" lon="2.07927">
        <ele>611.9</ele>
        <time>2024-05-11T09:06:26Z</time>
      </trkpt>
      <trkpt lat="43.41122" lon="2.07922">
        <ele>611.8</ele>
        <time>2024-05-11T09:06:27Z</time>
      </trkpt>
      <trkpt lat="43.41128" lon="2.07917">
        <ele>611.6</ele>
        <time>2024-05-11T09:06:28Z</time>
      </trkpt>
      <trkpt lat="43.41134" lon="2.07912">
        <ele>611.3</ele>
        <time>2024-05-11T09:06:29Z</time>
      </trkpt>
      <trkpt lat="43.4114" lon="2.07907">
        <ele>611</ele>
        <time>2024-05-11T09:06:30Z</time>
      </trkpt>
      <trkpt lat="43.41146" lon="2.07902">
        <ele>610.6</ele>
        <time>2024-05-11T09:06:31Z</time>
      </trkpt>
      <trkpt lat="43.41151" lon="2.07898">
        <ele>610.3</ele>
        <time>2024-05-11T09:06:32Z</time>
      </trkpt>
      <trkpt lat="43.41155" lon="2.07894">
        <ele>610</ele>
        <time>2024-05-11T09:06:33Z</time>
      </trkpt>
      <trkpt lat="43.41159" lon="2.07892">
        <ele>610</ele>
        <time>2024-05-11T09:06:34Z</time>
      </trkpt>
      <trkpt lat="43.41162" lon="2.0789">
        <ele>609.9</ele>
        <time>2024-05-11T09:06:35Z</time>
      </trkpt>
      <trkpt lat="43.41164" lon="2.07888">
        <ele>609.8</ele>
        <time>2024-05-11T09:06:36Z</time>
      </trkpt>
      <trkpt lat="43.41165" lon="2.07887">
        <ele>609.8</ele>
        <time>2024-05-11T09:06:37Z</time>
      </trkpt>
      <trkpt lat="43.41166" lon="2.07887">
        <ele>609.8</ele>
        <time>2024-05-11T09:06:38Z</time>
      </trkpt>
      <trkpt lat="43.41167" lon="2.07886">
        <ele>609.8</ele>
        <time>2024-05-11T09:06:39Z</time>
      </trkpt>
      <trkpt lat="43.41167" lon="2.07886">
        <ele>609.8</ele>
        <time>2024-05-11T09:06:40Z</time>
      </trkpt>
      <trkpt lat="43.41167" lon="2.07886">
        <ele>609.8</ele>
        <time>2024-05-11T09:06:41Z</time>
      </trkpt>
      <trkpt lat="43.41167" lon="2.07885">
        <ele>609.7</ele>
        <time>2024-05-11T09:06:42Z</time>
      </trkpt>
      <trkpt lat="43.41167" lon="2.07886">
        <ele>609.8</ele>
        <time>2024-05-11T09:06:43Z</time>
      </trkpt>
      <trkpt lat="43.41167" lon="2.07885">
        <ele>609.7</ele>
        <time>2024-05-11T09:06:44Z</time>
      </trkpt>
      <trkpt lat="43.41167" lon="2.07885">
        <ele>609.7</ele>
        <time>2024-05-11T09:06:45Z</time>
      </trkpt>
      <trkpt lat="43.41167" lon="2.07885">
        <ele>609.7</ele>
        <time>2024-05-11T09:06:46Z</time>
      </trkpt>
      <trkpt lat="43.41167" lon="2.07885">
        <ele>609.7</ele>
        <time>2024-05-11T09:06:47Z</time>
      </trkpt>
      <trkpt lat="43.41167" lon="2.07885">
        <ele>609.7</ele>
        <time>2024-05-11T09:06:48Z</time>
      </trkpt>
      <trkpt lat="43.41167" lon="2.07885">
        <ele>609.7</ele>
        <time>2024-05-11T09:06:49Z</time>
      </trkpt>
      <trkpt lat="43.41167" lon="2.07885">
        <ele>609.7</ele>
        <time>2024-05-11T09:06:50Z</time>
      </trkpt>
      <trkpt lat="43.41167" lon="2.07885">
        <ele>609.7</ele>
        <time>2024-05-11T09:06:51Z</time>
      </trkpt>
      <trkpt lat="43.41167" lon="2.07885">
        <ele>609.7</ele>
        <time>2024-05-11T09:06:52Z</time>
      </trkpt>
      <trkpt lat="43.41169" lon="2.07882">
        <ele>609.7</ele>
        <time>2024-05-11T09:06:53Z</time>
      </trkpt>
      <trkpt lat="43.41172" lon="2.07879">
        <ele>609.7</ele>
        <time>2024-05-11T09:06:54Z</time>
      </trkpt>
      <trkpt lat="43.41177" lon="2.07874">
        <ele>609.7</ele>
        <time>2024-05-11T09:06:55Z</time>
      </trkpt>
      <trkpt lat="43.41183" lon="2.07869">
        <ele>609.7</ele>
        <time>2024-05-11T09:06:56Z</time>
      </trkpt>
      <trkpt lat="43.41189" lon="2.07864">
        <ele>609.8</ele>
        <time>2024-05-11T09:06:57Z</time>
      </trkpt>
      <trkpt lat="43.41195" lon="2.07858">
        <ele>609.9</ele>
        <time>2024-05-11T09:06:58Z</time>
      </trkpt>
      <trkpt lat="43.41202" lon="2.07853">
        <ele>610.3</ele>
        <time>2024-05-11T09:06:59Z</time>
      </trkpt>
      <trkpt lat="43.41208" lon="2.07845">
        <ele>610.4</ele>
        <time>2024-05-11T09:07:00Z</time>
      </trkpt>
      <trkpt lat="43.41214" lon="2.07837">
        <ele>610.5</ele>
        <time>2024-05-11T09:07:01Z</time>
      </trkpt>
      <trkpt lat="43.4122" lon="2.07828">
        <ele>610.6</ele>
        <time>2024-05-11T09:07:02Z</time>
      </trkpt>
      <trkpt lat="43.41224" lon="2.07819">
        <ele>610.6</ele>
        <time>2024-05-11T09:07:03Z</time>
      </trkpt>
      <trkpt lat="43.4123" lon="2.07809">
        <ele>610.7</ele>
        <time>2024-05-11T09:07:04Z</time>
      </trkpt>
      <trkpt lat="43.41234" lon="2.07798">
        <ele>610.6</ele>
        <time>2024-05-11T09:07:05Z</time>
      </trkpt>
      <trkpt lat="43.41238" lon="2.07786">
        <ele>610.4</ele>
        <time>2024-05-11T09:07:06Z</time>
      </trkpt>
      <trkpt lat="43.41241" lon="2.07775">
        <ele>610.2</ele>
        <time>2024-05-11T09:07:07Z</time>
      </trkpt>
      <trkpt lat="43.41244" lon="2.07764">
        <ele>610</ele>
        <time>2024-05-11T09:07:08Z</time>
      </trkpt>
      <trkpt lat="43.41246" lon="2.07753">
        <ele>609.7</ele>
        <time>2024-05-11T09:07:09Z</time>
      </trkpt>
      <trkpt lat="43.41248" lon="2.07742">
        <ele>609.5</ele>
        <time>2024-05-11T09:07:10Z</time>
      </trkpt>
      <trkpt lat="43.4125" lon="2.07733">
        <ele>609.4</ele>
        <time>2024-05-11T09:07:11Z</time>
      </trkpt>
      <trkpt lat="43.41251" lon="2.07726">
        <ele>609.3</ele>
        <time>2024-05-11T09:07:12Z</time>
      </trkpt>
      <trkpt lat="43.41252" lon="2.0772">
        <ele>609.3</ele>
        <time>2024-05-11T09:07:13Z</time>
      </trkpt>
      <trkpt lat="43.41253" lon="2.07714">
        <ele>609.4</ele>
        <time>2024-05-11T09:07:14Z</time>
      </trkpt>
      <trkpt lat="43.41254" lon="2.07708">
        <ele>609.5</ele>
        <time>2024-05-11T09:07:15Z</time>
      </trkpt>
      <trkpt lat="43.41254" lon="2.07701">
        <ele>609.5</ele>
        <time>2024-05-11T09:07:16Z</time>
      </trkpt>
      <trkpt lat="43.41255" lon="2.07692">
        <ele>609.6</ele>
        <time>2024-05-11T09:07:17Z</time>
      </trkpt>
      <trkpt lat="43.41255" lon="2.07681">
        <ele>609.6</ele>
        <time>2024-05-11T09:07:18Z</time>
      </trkpt>
      <trkpt lat="43.41254" lon="2.07668">
        <ele>609.6</ele>
        <time>2024-05-11T09:07:19Z</time>
      </trkpt>
      <trkpt lat="43.41253" lon="2.07655">
        <ele>609.5</ele>
        <time>2024-05-11T09:07:20Z</time>
      </trkpt>
      <trkpt lat="43.41251" lon="2.07642">
        <ele>609.2</ele>
        <time>2024-05-11T09:07:21Z</time>
      </trkpt>
      <trkpt lat="43.41248" lon="2.0763">
        <ele>608.6</ele>
        <time>2024-05-11T09:07:22Z</time>
      </trkpt>
      <trkpt lat="43.41243" lon="2.07617">
        <ele>608.1</ele>
        <time>2024-05-11T09:07:23Z</time>
      </trkpt>
      <trkpt lat="43.41237" lon="2.07603">
        <ele>608</ele>
        <time>2024-05-11T09:07:24Z</time>
      </trkpt>
      <trkpt lat="43.41232" lon="2.07588">
        <ele>608.4</ele>
        <time>2024-05-11T09:07:25Z</time>
      </trkpt>
      <trkpt lat="43.41227" lon="2.07573">
        <ele>608.4</ele>
        <time>2024-05-11T09:07:26Z</time>
      </trkpt>
      <trkpt lat="43.41222" lon="2.07558">
        <ele>608</ele>
        <time>2024-05-11T09:07:27Z</time>
      </trkpt>
      <trkpt lat="43.41218" lon="2.07543">
        <ele>607.7</ele>
        <time>2024-05-11T09:07:28Z</time>
      </trkpt>
      <trkpt lat="43.41214" lon="2.07527">
        <ele>607.4</ele>
        <time>2024-05-11T09:07:29Z</time>
      </trkpt>
      <trkpt lat="43.41211" lon="2.07509">
        <ele>606.9</ele>
        <time>2024-05-11T09:07:30Z</time>
      </trkpt>
      <trkpt lat="43.4121" lon="2.0749">
        <ele>606.5</ele>
        <time>2024-05-11T09:07:31Z</time>
      </trkpt>
      <trkpt lat="43.4121" lon="2.0747">
        <ele>606.2</ele>
        <time>2024-05-11T09:07:32Z</time>
      </trkpt>
      <trkpt lat="43.41211" lon="2.0745">
        <ele>605.6</ele>
        <time>2024-05-11T09:07:33Z</time>
      </trkpt>
      <trkpt lat="43.41215" lon="2.07429">
        <ele>605.4</ele>
        <time>2024-05-11T09:07:34Z</time>
      </trkpt>
      <trkpt lat="43.4122" lon="2.07408">
        <ele>605.1</ele>
        <time>2024-05-11T09:07:35Z</time>
      </trkpt>
      <trkpt lat="43.41224" lon="2.07386">
        <ele>604.3</ele>
        <time>2024-05-11T09:07:36Z</time>
      </trkpt>
      <trkpt lat="43.4123" lon="2.07365">
        <ele>604.5</ele>
        <time>2024-05-11T09:07:37Z</time>
      </trkpt>
      <trkpt lat="43.41236" lon="2.07344">
        <ele>603.5</ele>
        <time>2024-05-11T09:07:38Z</time>
      </trkpt>
      <trkpt lat="43.41243" lon="2.07322">
        <ele>602.3</ele>
        <time>2024-05-11T09:07:39Z</time>
      </trkpt>
      <trkpt lat="43.4125" lon="2.07302">
        <ele>601.6</ele>
        <time>2024-05-11T09:07:40Z</time>
      </trkpt>
      <trkpt lat="43.41258" lon="2.07281">
        <ele>601.1</ele>
        <time>2024-05-11T09:07:41Z</time>
      </trkpt>
      <trkpt lat="43.41267" lon="2.07262">
        <ele>600.6</ele>
        <time>2024-05-11T09:07:42Z</time>
      </trkpt>
      <trkpt lat="43.41275" lon="2.07243">
        <ele>600</ele>
        <time>2024-05-11T09:07:43Z</time>
      </trkpt>
      <trkpt lat="43.41284" lon="2.07223">
        <ele>600.4</ele>
        <time>2024-05-11T09:07:44Z</time>
      </trkpt>
      <trkpt lat="43.41292" lon="2.07202">
        <ele>599.5</ele>
        <time>2024-05-11T09:07:45Z</time>
      </trkpt>
      <trkpt lat="43.41299" lon="2.07177">
        <ele>598.1</ele>
        <time>2024-05-11T09:07:46Z</time>
      </trkpt>
      <trkpt lat="43.41306" lon="2.07149">
        <ele>596.9</ele>
        <time>2024-05-11T09:07:47Z</time>
      </trkpt>
      <trkpt lat="43.41314" lon="2.0712">
        <ele>597.3</ele>
        <time>2024-05-11T09:07:48Z</time>
      </trkpt>
      <trkpt lat="43.41321" lon="2.07091">
        <ele>596.2</ele>
        <time>2024-05-11T09:07:49Z</time>
      </trkpt>
      <trkpt lat="43.41328" lon="2.07065">
        <ele>595</ele>
        <time>2024-05-11T09:07:50Z</time>
      </trkpt>
      <trkpt lat="43.41334" lon="2.07043">
        <ele>594.3</ele>
        <time>2024-05-11T09:07:51Z</time>
      </trkpt>
      <trkpt lat="43.41339" lon="2.07023">
        <ele>594.6</ele>
        <time>2024-05-11T09:07:52Z</time>
      </trkpt>
      <trkpt lat="43.41344" lon="2.07003">
        <ele>594.9</ele>
        <time>2024-05-11T09:07:53Z</time>
      </trkpt>
      <trkpt lat="43.41347" lon="2.06984">
        <ele>593.7</ele>
        <time>2024-05-11T09:07:54Z</time>
      </trkpt>
      <trkpt lat="43.41347" lon="2.06967">
        <ele>592.6</ele>
        <time>2024-05-11T09:07:55Z</time>
      </trkpt>
      <trkpt lat="43.41344" lon="2.0695">
        <ele>592.2</ele>
        <time>2024-05-11T09:07:56Z</time>
      </trkpt>
      <trkpt lat="43.41337" lon="2.06936">
        <ele>591.5</ele>
        <time>2024-05-11T09:07:57Z</time>
      </trkpt>
      <trkpt lat="43.41328" lon="2.06924">
        <ele>590.7</ele>
        <time>2024-05-11T09:07:58Z</time>
      </trkpt>
      <trkpt lat="43.41318" lon="2.06912">
        <ele>590.4</ele>
        <time>2024-05-11T09:07:59Z</time>
      </trkpt>
      <trkpt lat="43.41305" lon="2.06901">
        <ele>589.1</ele>
        <time>2024-05-11T09:08:00Z</time>
      </trkpt>
      <trkpt lat="43.41293" lon="2.0689">
        <ele>588.5</ele>
        <time>2024-05-11T09:08:01Z</time>
      </trkpt>
      <trkpt lat="43.41281" lon="2.06879">
        <ele>588.1</ele>
        <time>2024-05-11T09:08:02Z</time>
      </trkpt>
      <trkpt lat="43.41269" lon="2.06868">
        <ele>587.7</ele>
        <time>2024-05-11T09:08:03Z</time>
      </trkpt>
      <trkpt lat="43.41258" lon="2.06856">
        <ele>587.6</ele>
        <time>2024-05-11T09:08:04Z</time>
      </trkpt>
      <trkpt lat="43.4125" lon="2.06842">
        <ele>586.3</ele>
        <time>2024-05-11T09:08:05Z</time>
      </trkpt>
      <trkpt lat="43.41245" lon="2.06826">
        <ele>585.1</ele>
        <time>2024-05-11T09:08:06Z</time>
      </trkpt>
      <trkpt lat="43.41242" lon="2.06809">
        <ele>584.2</ele>
        <time>2024-05-11T09:08:07Z</time>
      </trkpt>
      <trkpt lat="43.41241" lon="2.0679">
        <ele>583.7</ele>
        <time>2024-05-11T09:08:08Z</time>
      </trkpt>
      <trkpt lat="43.41241" lon="2.0677">
        <ele>582.8</ele>
        <time>2024-05-11T09:08:09Z</time>
      </trkpt>
      <trkpt lat="43.41243" lon="2.0675">
        <ele>581.7</ele>
        <time>2024-05-11T09:08:10Z</time>
      </trkpt>
      <trkpt lat="43.41246" lon="2.0673">
        <ele>580.7</ele>
        <time>2024-05-11T09:08:11Z</time>
      </trkpt>
      <trkpt lat="43.41249" lon="2.06708">
        <ele>580.3</ele>
        <time>2024-05-11T09:08:12Z</time>
      </trkpt>
      <trkpt lat="43.41253" lon="2.06683">
        <ele>579.7</ele>
        <time>2024-05-11T09:08:13Z</time>
      </trkpt>
      <trkpt lat="43.41257" lon="2.06657">
        <ele>578.3</ele>
        <time>2024-05-11T09:08:14Z</time>
      </trkpt>
      <trkpt lat="43.41263" lon="2.0663">
        <ele>577</ele>
        <time>2024-05-11T09:08:15Z</time>
      </trkpt>
      <trkpt lat="43.41268" lon="2.06605">
        <ele>576</ele>
        <time>2024-05-11T09:08:16Z</time>
      </trkpt>
      <trkpt lat="43.41274" lon="2.0658">
        <ele>575.6</ele>
        <time>2024-05-11T09:08:17Z</time>
      </trkpt>
      <trkpt lat="43.41279" lon="2.06559">
        <ele>574.6</ele>
        <time>2024-05-11T09:08:18Z</time>
      </trkpt>
      <trkpt lat="43.41285" lon="2.06538">
        <ele>573.7</ele>
        <time>2024-05-11T09:08:19Z</time>
      </trkpt>
      <trkpt lat="43.41293" lon="2.06518">
        <ele>572.9</ele>
        <time>2024-05-11T09:08:20Z</time>
      </trkpt>
      <trkpt lat="43.41302" lon="2.065">
        <ele>572.2</ele>
        <time>2024-05-11T09:08:21Z</time>
      </trkpt>
      <trkpt lat="43.4131" lon="2.06483">
        <ele>570.4</ele>
        <time>2024-05-11T09:08:22Z</time>
      </trkpt>
      <trkpt lat="43.41321" lon="2.06472">
        <ele>569.6</ele>
        <time>2024-05-11T09:08:23Z</time>
      </trkpt>
      <trkpt lat="43.4133" lon="2.06459">
        <ele>568.3</ele>
        <time>2024-05-11T09:08:24Z</time>
      </trkpt>
      <trkpt lat="43.41342" lon="2.06447">
        <ele>567.1</ele>
        <time>2024-05-11T09:08:25Z</time>
      </trkpt>
      <trkpt lat="43.41353" lon="2.06435">
        <ele>566.3</ele>
        <time>2024-05-11T09:08:26Z</time>
      </trkpt>
      <trkpt lat="43.41365" lon="2.06422">
        <ele>566</ele>
        <time>2024-05-11T09:08:27Z</time>
      </trkpt>
      <trkpt lat="43.41377" lon="2.06405">
        <ele>565.8</ele>
        <time>2024-05-11T09:08:28Z</time>
      </trkpt>
      <trkpt lat="43.41387" lon="2.06383">
        <ele>564.9</ele>
        <time>2024-05-11T09:08:29Z</time>
      </trkpt>
      <trkpt lat="43.41397" lon="2.06359">
        <ele>564.9</ele>
        <time>2024-05-11T09:08:30Z</time>
      </trkpt>
      <trkpt lat="43.41407" lon="2.06335">
        <ele>563.4</ele>
        <time>2024-05-11T09:08:31Z</time>
      </trkpt>
      <trkpt lat="43.41419" lon="2.06311">
        <ele>562.3</ele>
        <time>2024-05-11T09:08:32Z</time>
      </trkpt>
      <trkpt lat="43.41433" lon="2.06291">
        <ele>561.8</ele>
        <time>2024-05-11T09:08:33Z</time>
      </trkpt>
      <trkpt lat="43.41448" lon="2.06273">
        <ele>560.9</ele>
        <time>2024-05-11T09:08:34Z</time>
      </trkpt>
      <trkpt lat="43.41463" lon="2.06256">
        <ele>559.7</ele>
        <time>2024-05-11T09:08:35Z</time>
      </trkpt>
      <trkpt lat="43.41477" lon="2.06239">
        <ele>559.2</ele>
        <time>2024-05-11T09:08:36Z</time>
      </trkpt>
      <trkpt lat="43.4149" lon="2.06221">
        <ele>559.4</ele>
        <time>2024-05-11T09:08:37Z</time>
      </trkpt>
      <trkpt lat="43.41502" lon="2.06202">
        <ele>558.5</ele>
        <time>2024-05-11T09:08:38Z</time>
      </trkpt>
      <trkpt lat="43.41513" lon="2.06186">
        <ele>557.1</ele>
        <time>2024-05-11T09:08:39Z</time>
      </trkpt>
      <trkpt lat="43.41525" lon="2.06173">
        <ele>554.7</ele>
        <time>2024-05-11T09:08:40Z</time>
      </trkpt>
      <trkpt lat="43.41538" lon="2.06164">
        <ele>553.4</ele>
        <time>2024-05-11T09:08:41Z</time>
      </trkpt>
      <trkpt lat="43.41553" lon="2.0616">
        <ele>553.4</ele>
        <time>2024-05-11T09:08:42Z</time>
      </trkpt>
      <trkpt lat="43.4157" lon="2.06157">
        <ele>552.7</ele>
        <time>2024-05-11T09:08:43Z</time>
      </trkpt>
      <trkpt lat="43.41588" lon="2.06154">
        <ele>551.5</ele>
        <time>2024-05-11T09:08:44Z</time>
      </trkpt>
      <trkpt lat="43.41606" lon="2.06151">
        <ele>550.2</ele>
        <time>2024-05-11T09:08:45Z</time>
      </trkpt>
      <trkpt lat="43.41626" lon="2.06148">
        <ele>549.5</ele>
        <time>2024-05-11T09:08:46Z</time>
      </trkpt>
      <trkpt lat="43.41646" lon="2.06145">
        <ele>549</ele>
        <time>2024-05-11T09:08:47Z</time>
      </trkpt>
      <trkpt lat="43.41666" lon="2.06142">
        <ele>548.4</ele>
        <time>2024-05-11T09:08:48Z</time>
      </trkpt>
      <trkpt lat="43.41686" lon="2.0614">
        <ele>547.5</ele>
        <time>2024-05-11T09:08:49Z</time>
      </trkpt>
      <trkpt lat="43.41707" lon="2.06136">
        <ele>545.1</ele>
        <time>2024-05-11T09:08:50Z</time>
      </trkpt>
      <trkpt lat="43.41729" lon="2.06134">
        <ele>542.1</ele>
        <time>2024-05-11T09:08:51Z</time>
      </trkpt>
      <trkpt lat="43.4175" lon="2.06134">
        <ele>538.6</ele>
        <time>2024-05-11T09:08:52Z</time>
      </trkpt>
      <trkpt lat="43.41769" lon="2.06139">
        <ele>534.5</ele>
        <time>2024-05-11T09:08:53Z</time>
      </trkpt>
      <trkpt lat="43.41788" lon="2.06147">
        <ele>531.9</ele>
        <time>2024-05-11T09:08:54Z</time>
      </trkpt>
      <trkpt lat="43.41806" lon="2.06157">
        <ele>531.6</ele>
        <time>2024-05-11T09:08:55Z</time>
      </trkpt>
      <trkpt lat="43.41823" lon="2.06165">
        <ele>534.6</ele>
        <time>2024-05-11T09:08:56Z</time>
      </trkpt>
      <trkpt lat="43.4184" lon="2.06168">
        <ele>536.6</ele>
        <time>2024-05-11T09:08:57Z</time>
      </trkpt>
      <trkpt lat="43.41858" lon="2.0617">
        <ele>538</ele>
        <time>2024-05-11T09:08:58Z</time>
      </trkpt>
      <trkpt lat="43.41877" lon="2.06162">
        <ele>537</ele>
        <time>2024-05-11T09:08:59Z</time>
      </trkpt>
      <trkpt lat="43.41894" lon="2.06153">
        <ele>536.3</ele>
        <time>2024-05-11T09:09:00Z</time>
      </trkpt>
      <trkpt lat="43.41909" lon="2.06141">
        <ele>535.4</ele>
        <time>2024-05-11T09:09:01Z</time>
      </trkpt>
      <trkpt lat="43.41923" lon="2.06128">
        <ele>536.9</ele>
        <time>2024-05-11T09:09:02Z</time>
      </trkpt>
      <trkpt lat="43.41936" lon="2.06111">
        <ele>538.9</ele>
        <time>2024-05-11T09:09:03Z</time>
      </trkpt>
      <trkpt lat="43.41937" lon="2.06085">
        <ele>534.4</ele>
        <time>2024-05-11T09:09:04Z</time>
      </trkpt>
      <trkpt lat="43.41945" lon="2.06065">
        <ele>532.9</ele>
        <time>2024-05-11T09:09:05Z</time>
      </trkpt>
      <trkpt lat="43.41953" lon="2.06046">
        <ele>531.2</ele>
        <time>2024-05-11T09:09:06Z</time>
      </trkpt>
      <trkpt lat="43.41962" lon="2.06029">
        <ele>529.4</ele>
        <time>2024-05-11T09:09:07Z</time>
      </trkpt>
      <trkpt lat="43.41974" lon="2.06013">
        <ele>527.6</ele>
        <time>2024-05-11T09:09:08Z</time>
      </trkpt>
      <trkpt lat="43.41987" lon="2.06001">
        <ele>526.4</ele>
        <time>2024-05-11T09:09:09Z</time>
      </trkpt>
      <trkpt lat="43.42001" lon="2.05991">
        <ele>526.1</ele>
        <time>2024-05-11T09:09:10Z</time>
      </trkpt>
      <trkpt lat="43.42015" lon="2.05984">
        <ele>525.5</ele>
        <time>2024-05-11T09:09:11Z</time>
      </trkpt>
      <trkpt lat="43.4203" lon="2.05978">
        <ele>524.8</ele>
        <time>2024-05-11T09:09:12Z</time>
      </trkpt>
      <trkpt lat="43.42044" lon="2.05972">
        <ele>523.5</ele>
        <time>2024-05-11T09:09:13Z</time>
      </trkpt>
      <trkpt lat="43.4206" lon="2.05969">
        <ele>523.1</ele>
        <time>2024-05-11T09:09:14Z</time>
      </trkpt>
      <trkpt lat="43.42075" lon="2.05967">
        <ele>522.7</ele>
        <time>2024-05-11T09:09:15Z</time>
      </trkpt>
      <trkpt lat="43.4209" lon="2.05967">
        <ele>522.5</ele>
        <time>2024-05-11T09:09:16Z</time>
      </trkpt>
      <trkpt lat="43.42106" lon="2.05968">
        <ele>521.7</ele>
        <time>2024-05-11T09:09:17Z</time>
      </trkpt>
      <trkpt lat="43.42122" lon="2.0597">
        <ele>520.9</ele>
        <time>2024-05-11T09:09:18Z</time>
      </trkpt>
      <trkpt lat="43.42137" lon="2.05971">
        <ele>519.7</ele>
        <time>2024-05-11T09:09:19Z</time>
      </trkpt>
      <trkpt lat="43.42152" lon="2.05967">
        <ele>518.9</ele>
        <time>2024-05-11T09:09:20Z</time>
      </trkpt>
      <trkpt lat="43.42167" lon="2.0596">
        <ele>517.2</ele>
        <time>2024-05-11T09:09:21Z</time>
      </trkpt>
      <trkpt lat="43.42181" lon="2.0595">
        <ele>516.8</ele>
        <time>2024-05-11T09:09:22Z</time>
      </trkpt>
      <trkpt lat="43.42195" lon="2.05938">
        <ele>516.1</ele>
        <time>2024-05-11T09:09:23Z</time>
      </trkpt>
      <trkpt lat="43.42209" lon="2.05924">
        <ele>516.2</ele>
        <time>2024-05-11T09:09:24Z</time>
      </trkpt>
      <trkpt lat="43.42223" lon="2.05908">
        <ele>515.5</ele>
        <time>2024-05-11T09:09:25Z</time>
      </trkpt>
      <trkpt lat="43.42235" lon="2.05889">
        <ele>514.1</ele>
        <time>2024-05-11T09:09:26Z</time>
      </trkpt>
      <trkpt lat="43.42249" lon="2.0587">
        <ele>513.5</ele>
        <time>2024-05-11T09:09:27Z</time>
      </trkpt>
      <trkpt lat="43.42262" lon="2.05852">
        <ele>510.6</ele>
        <time>2024-05-11T09:09:28Z</time>
      </trkpt>
      <trkpt lat="43.42277" lon="2.05837">
        <ele>508.3</ele>
        <time>2024-05-11T09:09:29Z</time>
      </trkpt>
      <trkpt lat="43.42292" lon="2.05822">
        <ele>506.7</ele>
        <time>2024-05-11T09:09:30Z</time>
      </trkpt>
      <trkpt lat="43.42308" lon="2.05809">
        <ele>506</ele>
        <time>2024-05-11T09:09:31Z</time>
      </trkpt>
      <trkpt lat="43.42323" lon="2.05796">
        <ele>505.7</ele>
        <time>2024-05-11T09:09:32Z</time>
      </trkpt>
      <trkpt lat="43.42338" lon="2.05784">
        <ele>505.6</ele>
        <time>2024-05-11T09:09:33Z</time>
      </trkpt>
      <trkpt lat="43.42354" lon="2.05772">
        <ele>505.9</ele>
        <time>2024-05-11T09:09:34Z</time>
      </trkpt>
      <trkpt lat="43.4237" lon="2.05759">
        <ele>505.6</ele>
        <time>2024-05-11T09:09:35Z</time>
      </trkpt>
      <trkpt lat="43.42385" lon="2.05745">
        <ele>504.2</ele>
        <time>2024-05-11T09:09:36Z</time>
      </trkpt>
      <trkpt lat="43.42401" lon="2.05732">
        <ele>503.7</ele>
        <time>2024-05-11T09:09:37Z</time>
      </trkpt>
      <trkpt lat="43.42416" lon="2.0572">
        <ele>502.8</ele>
        <time>2024-05-11T09:09:38Z</time>
      </trkpt>
      <trkpt lat="43.42433" lon="2.05711">
        <ele>501.7</ele>
        <time>2024-05-11T09:09:39Z</time>
      </trkpt>
      <trkpt lat="43.4245" lon="2.05703">
        <ele>500.6</ele>
        <time>2024-05-11T09:09:40Z</time>
      </trkpt>
      <trkpt lat="43.42468" lon="2.05699">
        <ele>500.7</ele>
        <time>2024-05-11T09:09:41Z</time>
      </trkpt>
      <trkpt lat="43.42485" lon="2.05697">
        <ele>500.2</ele>
        <time>2024-05-11T09:09:42Z</time>
      </trkpt>
      <trkpt lat="43.42502" lon="2.05697">
        <ele>500.4</ele>
        <time>2024-05-11T09:09:43Z</time>
      </trkpt>
      <trkpt lat="43.42519" lon="2.05695">
        <ele>500</ele>
        <time>2024-05-11T09:09:44Z</time>
      </trkpt>
      <trkpt lat="43.42535" lon="2.05692">
        <ele>499.5</ele>
        <time>2024-05-11T09:09:45Z</time>
      </trkpt>
      <trkpt lat="43.42551" lon="2.05686">
        <ele>498.3</ele>
        <time>2024-05-11T09:09:46Z</time>
      </trkpt>
      <trkpt lat="43.42566" lon="2.05679">
        <ele>496.1</ele>
        <time>2024-05-11T09:09:47Z</time>
      </trkpt>
      <trkpt lat="43.4258" lon="2.05671">
        <ele>494.1</ele>
        <time>2024-05-11T09:09:48Z</time>
      </trkpt>
      <trkpt lat="43.4259" lon="2.05665">
        <ele>492</ele>
        <time>2024-05-11T09:09:49Z</time>
      </trkpt>
      <trkpt lat="43.42598" lon="2.0566">
        <ele>490.1</ele>
        <time>2024-05-11T09:09:50Z</time>
      </trkpt>
      <trkpt lat="43.42606" lon="2.05658">
        <ele>489.3</ele>
        <time>2024-05-11T09:09:51Z</time>
      </trkpt>
      <trkpt lat="43.42615" lon="2.05661">
        <ele>488.7</ele>
        <time>2024-05-11T09:09:52Z</time>
      </trkpt>
      <trkpt lat="43.42622" lon="2.05667">
        <ele>487.9</ele>
        <time>2024-05-11T09:09:53Z</time>
      </trkpt>
      <trkpt lat="43.42626" lon="2.05678">
        <ele>487.7</ele>
        <time>2024-05-11T09:09:54Z</time>
      </trkpt>
      <trkpt lat="43.42627" lon="2.05689">
        <ele>488.3</ele>
        <time>2024-05-11T09:09:55Z</time>
      </trkpt>
      <trkpt lat="43.42628" lon="2.05703">
        <ele>488.2</ele>
        <time>2024-05-11T09:09:56Z</time>
      </trkpt>
      <trkpt lat="43.42629" lon="2.05719">
        <ele>487.7</ele>
        <time>2024-05-11T09:09:57Z</time>
      </trkpt>
      <trkpt lat="43.42628" lon="2.05738">
        <ele>487.2</ele>
        <time>2024-05-11T09:09:58Z</time>
      </trkpt>
      <trkpt lat="43.42627" lon="2.05756">
        <ele>486.3</ele>
        <time>2024-05-11T09:09:59Z</time>
      </trkpt>
      <trkpt lat="43.42626" lon="2.05774">
        <ele>484.9</ele>
        <time>2024-05-11T09:10:00Z</time>
      </trkpt>
      <trkpt lat="43.42623" lon="2.05792">
        <ele>484.8</ele>
        <time>2024-05-11T09:10:01Z</time>
      </trkpt>
      <trkpt lat="43.42621" lon="2.0581">
        <ele>484.2</ele>
        <time>2024-05-11T09:10:02Z</time>
      </trkpt>
      <trkpt lat="43.42619" lon="2.05829">
        <ele>483.2</ele>
        <time>2024-05-11T09:10:03Z</time>
      </trkpt>
      <trkpt lat="43.42617" lon="2.05847">
        <ele>482.3</ele>
        <time>2024-05-11T09:10:04Z</time>
      </trkpt>
      <trkpt lat="43.42616" lon="2.05865">
        <ele>481.1</ele>
        <time>2024-05-11T09:10:05Z</time>
      </trkpt>
      <trkpt lat="43.42615" lon="2.05883">
        <ele>480.3</ele>
        <time>2024-05-11T09:10:06Z</time>
      </trkpt>
      <trkpt lat="43.42616" lon="2.059">
        <ele>479.2</ele>
        <time>2024-05-11T09:10:07Z</time>
      </trkpt>
      <trkpt lat="43.42616" lon="2.05916">
        <ele>478.9</ele>
        <time>2024-05-11T09:10:08Z</time>
      </trkpt>
      <trkpt lat="43.42616" lon="2.05928">
        <ele>478.8</ele>
        <time>2024-05-11T09:10:09Z</time>
      </trkpt>
      <trkpt lat="43.42619" lon="2.05937">
        <ele>477.7</ele>
        <time>2024-05-11T09:10:10Z</time>
      </trkpt>
      <trkpt lat="43.42623" lon="2.05946">
        <ele>476.6</ele>
        <time>2024-05-11T09:10:11Z</time>
      </trkpt>
      <trkpt lat="43.42628" lon="2.05953">
        <ele>475.8</ele>
        <time>2024-05-11T09:10:12Z</time>
      </trkpt>
      <trkpt lat="43.42634" lon="2.05959">
        <ele>475</ele>
        <time>2024-05-11T09:10:13Z</time>
      </trkpt>
      <trkpt lat="43.42642" lon="2.05962">
        <ele>475.1</ele>
        <time>2024-05-11T09:10:14Z</time>
      </trkpt>
      <trkpt lat="43.42652" lon="2.05961">
        <ele>476.6</ele>
        <time>2024-05-11T09:10:15Z</time>
      </trkpt>
      <trkpt lat="43.42661" lon="2.05958">
        <ele>477.5</ele>
        <time>2024-05-11T09:10:16Z</time>
      </trkpt>
      <trkpt lat="43.42669" lon="2.0595">
        <ele>477.4</ele>
        <time>2024-05-11T09:10:17Z</time>
      </trkpt>
      <trkpt lat="43.42676" lon="2.05938">
        <ele>477.8</ele>
        <time>2024-05-11T09:10:18Z</time>
      </trkpt>
      <trkpt lat="43.42682" lon="2.05925">
        <ele>477.7</ele>
        <time>2024-05-11T09:10:19Z</time>
      </trkpt>
      <trkpt lat="43.42689" lon="2.05909">
        <ele>477</ele>
        <time>2024-05-11T09:10:20Z</time>
      </trkpt>
      <trkpt lat="43.42695" lon="2.05892">
        <ele>475.1</ele>
        <time>2024-05-11T09:10:21Z</time>
      </trkpt>
      <trkpt lat="43.42701" lon="2.05874">
        <ele>473.8</ele>
        <time>2024-05-11T09:10:22Z</time>
      </trkpt>
      <trkpt lat="43.42709" lon="2.05854">
        <ele>473.1</ele>
        <time>2024-05-11T09:10:23Z</time>
      </trkpt>
      <trkpt lat="43.42717" lon="2.05834">
        <ele>472.3</ele>
        <time>2024-05-11T09:10:24Z</time>
      </trkpt>
      <trkpt lat="43.42726" lon="2.05812">
        <ele>470.1</ele>
        <time>2024-05-11T09:10:25Z</time>
      </trkpt>
      <trkpt lat="43.42734" lon="2.05791">
        <ele>468.5</ele>
        <time>2024-05-11T09:10:26Z</time>
      </trkpt>
      <trkpt lat="43.42743" lon="2.05769">
        <ele>467.3</ele>
        <time>2024-05-11T09:10:27Z</time>
      </trkpt>
      <trkpt lat="43.42751" lon="2.05748">
        <ele>466</ele>
        <time>2024-05-11T09:10:28Z</time>
      </trkpt>
      <trkpt lat="43.42759" lon="2.05728">
        <ele>465.2</ele>
        <time>2024-05-11T09:10:29Z</time>
      </trkpt>
      <trkpt lat="43.42769" lon="2.05708">
        <ele>465</ele>
        <time>2024-05-11T09:10:30Z</time>
      </trkpt>
      <trkpt lat="43.42778" lon="2.05688">
        <ele>464.7</ele>
        <time>2024-05-11T09:10:31Z</time>
      </trkpt>
      <trkpt lat="43.42788" lon="2.0567">
        <ele>464</ele>
        <time>2024-05-11T09:10:32Z</time>
      </trkpt>
      <trkpt lat="43.428" lon="2.05654">
        <ele>463.9</ele>
        <time>2024-05-11T09:10:33Z</time>
      </trkpt>
      <trkpt lat="43.42812" lon="2.05639">
        <ele>463.9</ele>
        <time>2024-05-11T09:10:34Z</time>
      </trkpt>
      <trkpt lat="43.42826" lon="2.05627">
        <ele>463.9</ele>
        <time>2024-05-11T09:10:35Z</time>
      </trkpt>
      <trkpt lat="43.42841" lon="2.05616">
        <ele>464.2</ele>
        <time>2024-05-11T09:10:36Z</time>
      </trkpt>
      <trkpt lat="43.42857" lon="2.05606">
        <ele>464</ele>
        <time>2024-05-11T09:10:37Z</time>
      </trkpt>
      <trkpt lat="43.42872" lon="2.05596">
        <ele>463.4</ele>
        <time>2024-05-11T09:10:38Z</time>
      </trkpt>
      <trkpt lat="43.42887" lon="2.05583">
        <ele>462.4</ele>
        <time>2024-05-11T09:10:39Z</time>
      </trkpt>
      <trkpt lat="43.429" lon="2.05569">
        <ele>460.8</ele>
        <time>2024-05-11T09:10:40Z</time>
      </trkpt>
      <trkpt lat="43.42912" lon="2.05552">
        <ele>458.3</ele>
        <time>2024-05-11T09:10:41Z</time>
      </trkpt>
      <trkpt lat="43.42923" lon="2.05535">
        <ele>456</ele>
        <time>2024-05-11T09:10:42Z</time>
      </trkpt>
      <trkpt lat="43.42935" lon="2.05518">
        <ele>454.7</ele>
        <time>2024-05-11T09:10:43Z</time>
      </trkpt>
      <trkpt lat="43.42945" lon="2.05501">
        <ele>452.6</ele>
        <time>2024-05-11T09:10:44Z</time>
      </trkpt>
      <trkpt lat="43.42956" lon="2.05485">
        <ele>450.5</ele>
        <time>2024-05-11T09:10:45Z</time>
      </trkpt>
      <trkpt lat="43.42969" lon="2.05472">
        <ele>450.5</ele>
        <time>2024-05-11T09:10:46Z</time>
      </trkpt>
      <trkpt lat="43.42983" lon="2.05464">
        <ele>448.8</ele>
        <time>2024-05-11T09:10:47Z</time>
      </trkpt>
      <trkpt lat="43.42997" lon="2.05458">
        <ele>447.4</ele>
        <time>2024-05-11T09:10:48Z</time>
      </trkpt>
      <trkpt lat="43.43011" lon="2.05452">
        <ele>444</ele>
        <time>2024-05-11T09:10:49Z</time>
      </trkpt>
      <trkpt lat="43.43023" lon="2.0545">
        <ele>442.7</ele>
        <time>2024-05-11T09:10:50Z</time>
      </trkpt>
      <trkpt lat="43.43035" lon="2.05452">
        <ele>442.7</ele>
        <time>2024-05-11T09:10:51Z</time>
      </trkpt>
      <trkpt lat="43.43046" lon="2.05459">
        <ele>444.1</ele>
        <time>2024-05-11T09:10:52Z</time>
      </trkpt>
      <trkpt lat="43.43056" lon="2.05467">
        <ele>445.2</ele>
        <time>2024-05-11T09:10:53Z</time>
      </trkpt>
      <trkpt lat="43.43065" lon="2.05476">
        <ele>446.3</ele>
        <time>2024-05-11T09:10:54Z</time>
      </trkpt>
      <trkpt lat="43.43074" lon="2.05486">
        <ele>446.8</ele>
        <time>2024-05-11T09:10:55Z</time>
      </trkpt>
      <trkpt lat="43.43083" lon="2.05496">
        <ele>446.4</ele>
        <time>2024-05-11T09:10:56Z</time>
      </trkpt>
      <trkpt lat="43.43092" lon="2.05505">
        <ele>446.5</ele>
        <time>2024-05-11T09:10:57Z</time>
      </trkpt>
      <trkpt lat="43.431" lon="2.05515">
        <ele>446.8</ele>
        <time>2024-05-11T09:10:58Z</time>
      </trkpt>
      <trkpt lat="43.43108" lon="2.05524">
        <ele>446.3</ele>
        <time>2024-05-11T09:10:59Z</time>
      </trkpt>
      <trkpt lat="43.43115" lon="2.05533">
        <ele>446.6</ele>
        <time>2024-05-11T09:11:00Z</time>
      </trkpt>
      <trkpt lat="43.43122" lon="2.05538">
        <ele>446.6</ele>
        <time>2024-05-11T09:11:01Z</time>
      </trkpt>
      <trkpt lat="43.43129" lon="2.05536">
        <ele>445.6</ele>
        <time>2024-05-11T09:11:02Z</time>
      </trkpt>
      <trkpt lat="43.43137" lon="2.05533">
        <ele>444.6</ele>
        <time>2024-05-11T09:11:03Z</time>
      </trkpt>
      <trkpt lat="43.43143" lon="2.05528">
        <ele>444.9</ele>
        <time>2024-05-11T09:11:04Z</time>
      </trkpt>
      <trkpt lat="43.4315" lon="2.0552">
        <ele>446.2</ele>
        <time>2024-05-11T09:11:05Z</time>
      </trkpt>
      <trkpt lat="43.43155" lon="2.0551">
        <ele>447.3</ele>
        <time>2024-05-11T09:11:06Z</time>
      </trkpt>
      <trkpt lat="43.43156" lon="2.05498">
        <ele>447.5</ele>
        <time>2024-05-11T09:11:07Z</time>
      </trkpt>
      <trkpt lat="43.43155" lon="2.05484">
        <ele>447.2</ele>
        <time>2024-05-11T09:11:08Z</time>
      </trkpt>
      <trkpt lat="43.43153" lon="2.05469">
        <ele>446.7</ele>
        <time>2024-05-11T09:11:09Z</time>
      </trkpt>
      <trkpt lat="43.43147" lon="2.05455">
        <ele>445.4</ele>
        <time>2024-05-11T09:11:10Z</time>
      </trkpt>
      <trkpt lat="43.43141" lon="2.0544">
        <ele>444.1</ele>
        <time>2024-05-11T09:11:11Z</time>
      </trkpt>
      <trkpt lat="43.43135" lon="2.05425">
        <ele>443.5</ele>
        <time>2024-05-11T09:11:12Z</time>
      </trkpt>
      <trkpt lat="43.4313" lon="2.05411">
        <ele>443.1</ele>
        <time>2024-05-11T09:11:13Z</time>
      </trkpt>
      <trkpt lat="43.43124" lon="2.05397">
        <ele>441.9</ele>
        <time>2024-05-11T09:11:14Z</time>
      </trkpt>
      <trkpt lat="43.4312" lon="2.05382">
        <ele>440.3</ele>
        <time>2024-05-11T09:11:15Z</time>
      </trkpt>
      <trkpt lat="43.43117" lon="2.05366">
        <ele>438.2</ele>
        <time>2024-05-11T09:11:16Z</time>
      </trkpt>
      <trkpt lat="43.43116" lon="2.05351">
        <ele>436.1</ele>
        <time>2024-05-11T09:11:17Z</time>
      </trkpt>
      <trkpt lat="43.43119" lon="2.05336">
        <ele>435.9</ele>
        <time>2024-05-11T09:11:18Z</time>
      </trkpt>
      <trkpt lat="43.43123" lon="2.0532">
        <ele>435.9</ele>
        <time>2024-05-11T09:11:19Z</time>
      </trkpt>
      <trkpt lat="43.43127" lon="2.05303">
        <ele>435.8</ele>
        <time>2024-05-11T09:11:20Z</time>
      </trkpt>
      <trkpt lat="43.43132" lon="2.05284">
        <ele>435.9</ele>
        <time>2024-05-11T09:11:21Z</time>
      </trkpt>
      <trkpt lat="43.43136" lon="2.05266">
        <ele>435.3</ele>
        <time>2024-05-11T09:11:22Z</time>
      </trkpt>
      <trkpt lat="43.43142" lon="2.05247">
        <ele>434.6</ele>
        <time>2024-05-11T09:11:23Z</time>
      </trkpt>
      <trkpt lat="43.43151" lon="2.05228">
        <ele>433.7</ele>
        <time>2024-05-11T09:11:24Z</time>
      </trkpt>
      <trkpt lat="43.4316" lon="2.05209">
        <ele>432.6</ele>
        <time>2024-05-11T09:11:25Z</time>
      </trkpt>
      <trkpt lat="43.43169" lon="2.0519">
        <ele>431.9</ele>
        <time>2024-05-11T09:11:26Z</time>
      </trkpt>
      <trkpt lat="43.43178" lon="2.0517">
        <ele>430.7</ele>
        <time>2024-05-11T09:11:27Z</time>
      </trkpt>
      <trkpt lat="43.43188" lon="2.05149">
        <ele>429.7</ele>
        <time>2024-05-11T09:11:28Z</time>
      </trkpt>
      <trkpt lat="43.43198" lon="2.05127">
        <ele>429</ele>
        <time>2024-05-11T09:11:29Z</time>
      </trkpt>
      <trkpt lat="43.43208" lon="2.05105">
        <ele>428.4</ele>
        <time>2024-05-11T09:11:30Z</time>
      </trkpt>
      <trkpt lat="43.43218" lon="2.05082">
        <ele>427.7</ele>
        <time>2024-05-11T09:11:31Z</time>
      </trkpt>
      <trkpt lat="43.43229" lon="2.0506">
        <ele>426.8</ele>
        <time>2024-05-11T09:11:32Z</time>
      </trkpt>
      <trkpt lat="43.4324" lon="2.05038">
        <ele>426.2</ele>
        <time>2024-05-11T09:11:33Z</time>
      </trkpt>
      <trkpt lat="43.43252" lon="2.05018">
        <ele>426.2</ele>
        <time>2024-05-11T09:11:34Z</time>
      </trkpt>
      <trkpt lat="43.43265" lon="2.05001">
        <ele>426.1</ele>
        <time>2024-05-11T09:11:35Z</time>
      </trkpt>
      <trkpt lat="43.43279" lon="2.04985">
        <ele>425.9</ele>
        <time>2024-05-11T09:11:36Z</time>
      </trkpt>
      <trkpt lat="43.43293" lon="2.04969">
        <ele>423.6</ele>
        <time>2024-05-11T09:11:37Z</time>
      </trkpt>
      <trkpt lat="43.43307" lon="2.04954">
        <ele>421.4</ele>
        <time>2024-05-11T09:11:38Z</time>
      </trkpt>
      <trkpt lat="43.43321" lon="2.04939">
        <ele>419.4</ele>
        <time>2024-05-11T09:11:39Z</time>
      </trkpt>
      <trkpt lat="43.43335" lon="2.04925">
        <ele>417.5</ele>
        <time>2024-05-11T09:11:40Z</time>
      </trkpt>
      <trkpt lat="43.43348" lon="2.0491">
        <ele>416.6</ele>
        <time>2024-05-11T09:11:41Z</time>
      </trkpt>
      <trkpt lat="43.43361" lon="2.04896">
        <ele>416.3</ele>
        <time>2024-05-11T09:11:42Z</time>
      </trkpt>
      <trkpt lat="43.43374" lon="2.04882">
        <ele>416.3</ele>
        <time>2024-05-11T09:11:43Z</time>
      </trkpt>
      <trkpt lat="43.43387" lon="2.04868">
        <ele>415.9</ele>
        <time>2024-05-11T09:11:44Z</time>
      </trkpt>
      <trkpt lat="43.434" lon="2.04855">
        <ele>415.8</ele>
        <time>2024-05-11T09:11:45Z</time>
      </trkpt>
      <trkpt lat="43.43413" lon="2.04843">
        <ele>416</ele>
        <time>2024-05-11T09:11:46Z</time>
      </trkpt>
      <trkpt lat="43.43426" lon="2.04832">
        <ele>415.6</ele>
        <time>2024-05-11T09:11:47Z</time>
      </trkpt>
      <trkpt lat="43.4344" lon="2.04821">
        <ele>415.5</ele>
        <time>2024-05-11T09:11:48Z</time>
      </trkpt>
      <trkpt lat="43.43453" lon="2.04811">
        <ele>414.4</ele>
        <time>2024-05-11T09:11:49Z</time>
      </trkpt>
      <trkpt lat="43.43466" lon="2.04801">
        <ele>413.1</ele>
        <time>2024-05-11T09:11:50Z</time>
      </trkpt>
      <trkpt lat="43.43478" lon="2.04789">
        <ele>411.1</ele>
        <time>2024-05-11T09:11:51Z</time>
      </trkpt>
      <trkpt lat="43.43489" lon="2.04777">
        <ele>409.7</ele>
        <time>2024-05-11T09:11:52Z</time>
      </trkpt>
      <trkpt lat="43.43498" lon="2.04762">
        <ele>409.4</ele>
        <time>2024-05-11T09:11:53Z</time>
      </trkpt>
      <trkpt lat="43.43504" lon="2.04744">
        <ele>408.9</ele>
        <time>2024-05-11T09:11:54Z</time>
      </trkpt>
      <trkpt lat="43.4351" lon="2.04725">
        <ele>408.5</ele>
        <time>2024-05-11T09:11:55Z</time>
      </trkpt>
      <trkpt lat="43.43515" lon="2.04705">
        <ele>408.6</ele>
        <time>2024-05-11T09:11:56Z</time>
      </trkpt>
      <trkpt lat="43.43521" lon="2.04683">
        <ele>408.6</ele>
        <time>2024-05-11T09:11:57Z</time>
      </trkpt>
      <trkpt lat="43.43526" lon="2.0466">
        <ele>407.9</ele>
        <time>2024-05-11T09:11:58Z</time>
      </trkpt>
      <trkpt lat="43.4353" lon="2.04635">
        <ele>407.6</ele>
        <time>2024-05-11T09:11:59Z</time>
      </trkpt>
      <trkpt lat="43.43534" lon="2.04611">
        <ele>407.5</ele>
        <time>2024-05-11T09:12:00Z</time>
      </trkpt>
      <trkpt lat="43.43538" lon="2.04587">
        <ele>407.3</ele>
        <time>2024-05-11T09:12:01Z</time>
      </trkpt>
      <trkpt lat="43.43541" lon="2.04562">
        <ele>406.7</ele>
        <time>2024-05-11T09:12:02Z</time>
      </trkpt>
      <trkpt lat="43.43545" lon="2.04539">
        <ele>406.3</ele>
        <time>2024-05-11T09:12:03Z</time>
      </trkpt>
      <trkpt lat="43.43548" lon="2.04515">
        <ele>405.4</ele>
        <time>2024-05-11T09:12:04Z</time>
      </trkpt>
      <trkpt lat="43.4355" lon="2.04491">
        <ele>404.4</ele>
        <time>2024-05-11T09:12:05Z</time>
      </trkpt>
      <trkpt lat="43.43551" lon="2.04467">
        <ele>402.9</ele>
        <time>2024-05-11T09:12:06Z</time>
      </trkpt>
      <trkpt lat="43.43551" lon="2.04444">
        <ele>401</ele>
        <time>2024-05-11T09:12:07Z</time>
      </trkpt>
      <trkpt lat="43.43549" lon="2.04421">
        <ele>400</ele>
        <time>2024-05-11T09:12:08Z</time>
      </trkpt>
      <trkpt lat="43.43548" lon="2.04397">
        <ele>399.5</ele>
        <time>2024-05-11T09:12:09Z</time>
      </trkpt>
      <trkpt lat="43.43548" lon="2.04372">
        <ele>398.4</ele>
        <time>2024-05-11T09:12:10Z</time>
      </trkpt>
      <trkpt lat="43.4355" lon="2.04348">
        <ele>397.8</ele>
        <time>2024-05-11T09:12:11Z</time>
      </trkpt>
      <trkpt lat="43.43552" lon="2.04325">
        <ele>397.3</ele>
        <time>2024-05-11T09:12:12Z</time>
      </trkpt>
      <trkpt lat="43.43554" lon="2.04301">
        <ele>397.1</ele>
        <time>2024-05-11T09:12:13Z</time>
      </trkpt>
      <trkpt lat="43.43555" lon="2.04279">
        <ele>395.9</ele>
        <time>2024-05-11T09:12:14Z</time>
      </trkpt>
      <trkpt lat="43.43555" lon="2.04256">
        <ele>394.3</ele>
        <time>2024-05-11T09:12:15Z</time>
      </trkpt>
      <trkpt lat="43.43554" lon="2.04233">
        <ele>393.4</ele>
        <time>2024-05-11T09:12:16Z</time>
      </trkpt>
      <trkpt lat="43.43554" lon="2.04211">
        <ele>393</ele>
        <time>2024-05-11T09:12:17Z</time>
      </trkpt>
      <trkpt lat="43.43557" lon="2.04189">
        <ele>392.8</ele>
        <time>2024-05-11T09:12:18Z</time>
      </trkpt>
      <trkpt lat="43.43562" lon="2.0417">
        <ele>392</ele>
        <time>2024-05-11T09:12:19Z</time>
      </trkpt>
      <trkpt lat="43.4357" lon="2.04151">
        <ele>390.3</ele>
        <time>2024-05-11T09:12:20Z</time>
      </trkpt>
      <trkpt lat="43.43581" lon="2.04133">
        <ele>390.1</ele>
        <time>2024-05-11T09:12:21Z</time>
      </trkpt>
      <trkpt lat="43.43592" lon="2.04114">
        <ele>390.5</ele>
        <time>2024-05-11T09:12:22Z</time>
      </trkpt>
      <trkpt lat="43.43603" lon="2.04095">
        <ele>389.3</ele>
        <time>2024-05-11T09:12:23Z</time>
      </trkpt>
      <trkpt lat="43.43614" lon="2.04076">
        <ele>388.3</ele>
        <time>2024-05-11T09:12:24Z</time>
      </trkpt>
      <trkpt lat="43.43624" lon="2.04057">
        <ele>386.6</ele>
        <time>2024-05-11T09:12:25Z</time>
      </trkpt>
      <trkpt lat="43.43635" lon="2.04038">
        <ele>386.1</ele>
        <time>2024-05-11T09:12:26Z</time>
      </trkpt>
      <trkpt lat="43.43646" lon="2.0402">
        <ele>386</ele>
        <time>2024-05-11T09:12:27Z</time>
      </trkpt>
      <trkpt lat="43.43657" lon="2.04002">
        <ele>385.2</ele>
        <time>2024-05-11T09:12:28Z</time>
      </trkpt>
      <trkpt lat="43.43668" lon="2.03984">
        <ele>385.5</ele>
        <time>2024-05-11T09:12:29Z</time>
      </trkpt>
      <trkpt lat="43.43679" lon="2.03965">
        <ele>384.9</ele>
        <time>2024-05-11T09:12:30Z</time>
      </trkpt>
      <trkpt lat="43.4369" lon="2.03947">
        <ele>383.7</ele>
        <time>2024-05-11T09:12:31Z</time>
      </trkpt>
      <trkpt lat="43.43701" lon="2.03929">
        <ele>383.9</ele>
        <time>2024-05-11T09:12:32Z</time>
      </trkpt>
      <trkpt lat="43.43713" lon="2.03911">
        <ele>383.3</ele>
        <time>2024-05-11T09:12:33Z</time>
      </trkpt>
      <trkpt lat="43.43723" lon="2.03893">
        <ele>382.5</ele>
        <time>2024-05-11T09:12:34Z</time>
      </trkpt>
      <trkpt lat="43.43734" lon="2.03875">
        <ele>381.9</ele>
        <time>2024-05-11T09:12:35Z</time>
      </trkpt>
      <trkpt lat="43.43743" lon="2.03856">
        <ele>382.1</ele>
        <time>2024-05-11T09:12:36Z</time>
      </trkpt>
      <trkpt lat="43.43752" lon="2.03836">
        <ele>382.7</ele>
        <time>2024-05-11T09:12:37Z</time>
      </trkpt>
      <trkpt lat="43.43759" lon="2.03817">
        <ele>382.1</ele>
        <time>2024-05-11T09:12:38Z</time>
      </trkpt>
      <trkpt lat="43.43767" lon="2.03798">
        <ele>381.7</ele>
        <time>2024-05-11T09:12:39Z</time>
      </trkpt>
      <trkpt lat="43.43774" lon="2.03779">
        <ele>380.4</ele>
        <time>2024-05-11T09:12:40Z</time>
      </trkpt>
      <trkpt lat="43.43781" lon="2.0376">
        <ele>379.2</ele>
        <time>2024-05-11T09:12:41Z</time>
      </trkpt>
      <trkpt lat="43.43787" lon="2.03743">
        <ele>378.2</ele>
        <time>2024-05-11T09:12:42Z</time>
      </trkpt>
      <trkpt lat="43.43793" lon="2.03726">
        <ele>377.7</ele>
        <time>2024-05-11T09:12:43Z</time>
      </trkpt>
      <trkpt lat="43.43799" lon="2.0371">
        <ele>377.4</ele>
        <time>2024-05-11T09:12:44Z</time>
      </trkpt>
      <trkpt lat="43.43805" lon="2.03694">
        <ele>376.8</ele>
        <time>2024-05-11T09:12:45Z</time>
      </trkpt>
      <trkpt lat="43.43811" lon="2.03679">
        <ele>375.5</ele>
        <time>2024-05-11T09:12:46Z</time>
      </trkpt>
      <trkpt lat="43.43818" lon="2.03663">
        <ele>374.3</ele>
        <time>2024-05-11T09:12:47Z</time>
      </trkpt>
      <trkpt lat="43.43825" lon="2.03648">
        <ele>373.3</ele>
        <time>2024-05-11T09:12:48Z</time>
      </trkpt>
      <trkpt lat="43.43834" lon="2.03632">
        <ele>372.6</ele>
        <time>2024-05-11T09:12:49Z</time>
      </trkpt>
      <trkpt lat="43.43843" lon="2.03617">
        <ele>372.1</ele>
        <time>2024-05-11T09:12:50Z</time>
      </trkpt>
      <trkpt lat="43.43853" lon="2.03602">
        <ele>371.7</ele>
        <time>2024-05-11T09:12:51Z</time>
      </trkpt>
      <trkpt lat="43.43862" lon="2.03588">
        <ele>371.3</ele>
        <time>2024-05-11T09:12:52Z</time>
      </trkpt>
      <trkpt lat="43.43872" lon="2.03574">
        <ele>370.6</ele>
        <time>2024-05-11T09:12:53Z</time>
      </trkpt>
      <trkpt lat="43.43881" lon="2.03561">
        <ele>370.5</ele>
        <time>2024-05-11T09:12:54Z</time>
      </trkpt>
      <trkpt lat="43.4389" lon="2.03547">
        <ele>371</ele>
        <time>2024-05-11T09:12:55Z</time>
      </trkpt>
      <trkpt lat="43.439" lon="2.03534">
        <ele>370.9</ele>
        <time>2024-05-11T09:12:56Z</time>
      </trkpt>
      <trkpt lat="43.4391" lon="2.0352">
        <ele>370.9</ele>
        <time>2024-05-11T09:12:57Z</time>
      </trkpt>
      <trkpt lat="43.4392" lon="2.03505">
        <ele>370.7</ele>
        <time>2024-05-11T09:12:58Z</time>
      </trkpt>
      <trkpt lat="43.4393" lon="2.0349">
        <ele>370.4</ele>
        <time>2024-05-11T09:12:59Z</time>
      </trkpt>
      <trkpt lat="43.43941" lon="2.03475">
        <ele>370.8</ele>
        <time>2024-05-11T09:13:00Z</time>
      </trkpt>
      <trkpt lat="43.43951" lon="2.03461">
        <ele>370.3</ele>
        <time>2024-05-11T09:13:01Z</time>
      </trkpt>
      <trkpt lat="43.43962" lon="2.03446">
        <ele>369.4</ele>
        <time>2024-05-11T09:13:02Z</time>
      </trkpt>
      <trkpt lat="43.43973" lon="2.0343">
        <ele>368.9</ele>
        <time>2024-05-11T09:13:03Z</time>
      </trkpt>
      <trkpt lat="43.43982" lon="2.03413">
        <ele>368.7</ele>
        <time>2024-05-11T09:13:04Z</time>
      </trkpt>
      <trkpt lat="43.43992" lon="2.03395">
        <ele>368.3</ele>
        <time>2024-05-11T09:13:05Z</time>
      </trkpt>
      <trkpt lat="43.44001" lon="2.03378">
        <ele>368.2</ele>
        <time>2024-05-11T09:13:06Z</time>
      </trkpt>
      <trkpt lat="43.44009" lon="2.03359">
        <ele>367.8</ele>
        <time>2024-05-11T09:13:07Z</time>
      </trkpt>
      <trkpt lat="43.44018" lon="2.0334">
        <ele>367.2</ele>
        <time>2024-05-11T09:13:08Z</time>
      </trkpt>
      <trkpt lat="43.44025" lon="2.03322">
        <ele>366.8</ele>
        <time>2024-05-11T09:13:09Z</time>
      </trkpt>
      <trkpt lat="43.44034" lon="2.03304">
        <ele>366</ele>
        <time>2024-05-11T09:13:10Z</time>
      </trkpt>
      <trkpt lat="43.44041" lon="2.03286">
        <ele>366</ele>
        <time>2024-05-11T09:13:11Z</time>
      </trkpt>
      <trkpt lat="43.44049" lon="2.03269">
        <ele>365.5</ele>
        <time>2024-05-11T09:13:12Z</time>
      </trkpt>
      <trkpt lat="43.44057" lon="2.03253">
        <ele>364.6</ele>
        <time>2024-05-11T09:13:13Z</time>
      </trkpt>
      <trkpt lat="43.44064" lon="2.03236">
        <ele>364.1</ele>
        <time>2024-05-11T09:13:14Z</time>
      </trkpt>
      <trkpt lat="43.44072" lon="2.0322">
        <ele>363.7</ele>
        <time>2024-05-11T09:13:15Z</time>
      </trkpt>
      <trkpt lat="43.44079" lon="2.03204">
        <ele>363.3</ele>
        <time>2024-05-11T09:13:16Z</time>
      </trkpt>
      <trkpt lat="43.44086" lon="2.03189">
        <ele>362.8</ele>
        <time>2024-05-11T09:13:17Z</time>
      </trkpt>
      <trkpt lat="43.44091" lon="2.03178">
        <ele>362.8</ele>
        <time>2024-05-11T09:13:18Z</time>
      </trkpt>
      <trkpt lat="43.44094" lon="2.03169">
        <ele>363.1</ele>
        <time>2024-05-11T09:13:19Z</time>
      </trkpt>
      <trkpt lat="43.44097" lon="2.03161">
        <ele>362.9</ele>
        <time>2024-05-11T09:13:20Z</time>
      </trkpt>
      <trkpt lat="43.441" lon="2.03154">
        <ele>362.6</ele>
        <time>2024-05-11T09:13:21Z</time>
      </trkpt>
      <trkpt lat="43.44103" lon="2.03148">
        <ele>362.4</ele>
        <time>2024-05-11T09:13:22Z</time>
      </trkpt>
      <trkpt lat="43.44106" lon="2.0314">
        <ele>362.2</ele>
        <time>2024-05-11T09:13:23Z</time>
      </trkpt>
      <trkpt lat="43.44108" lon="2.03133">
        <ele>362.1</ele>
        <time>2024-05-11T09:13:24Z</time>
      </trkpt>
      <trkpt lat="43.4411" lon="2.03125">
        <ele>362</ele>
        <time>2024-05-11T09:13:25Z</time>
      </trkpt>
      <trkpt lat="43.44111" lon="2.03116">
        <ele>362</ele>
        <time>2024-05-11T09:13:26Z</time>
      </trkpt>
      <trkpt lat="43.44112" lon="2.03104">
        <ele>362</ele>
        <time>2024-05-11T09:13:27Z</time>
      </trkpt>
      <trkpt lat="43.44112" lon="2.03092">
        <ele>362</ele>
        <time>2024-05-11T09:13:28Z</time>
      </trkpt>
      <trkpt lat="43.4411" lon="2.03079">
        <ele>361.9</ele>
        <time>2024-05-11T09:13:29Z</time>
      </trkpt>
      <trkpt lat="43.44107" lon="2.03066">
        <ele>361.5</ele>
        <time>2024-05-11T09:13:30Z</time>
      </trkpt>
      <trkpt lat="43.44104" lon="2.03053">
        <ele>361.1</ele>
        <time>2024-05-11T09:13:31Z</time>
      </trkpt>
      <trkpt lat="43.44101" lon="2.0304">
        <ele>360.4</ele>
        <time>2024-05-11T09:13:32Z</time>
      </trkpt>
      <trkpt lat="43.44098" lon="2.03028">
        <ele>360</ele>
        <time>2024-05-11T09:13:33Z</time>
      </trkpt>
      <trkpt lat="43.44096" lon="2.03016">
        <ele>359</ele>
        <time>2024-05-11T09:13:34Z</time>
      </trkpt>
      <trkpt lat="43.44093" lon="2.03005">
        <ele>358.1</ele>
        <time>2024-05-11T09:13:35Z</time>
      </trkpt>
      <trkpt lat="43.44091" lon="2.02993">
        <ele>357.2</ele>
        <time>2024-05-11T09:13:36Z</time>
      </trkpt>
      <trkpt lat="43.44089" lon="2.02983">
        <ele>356.6</ele>
        <time>2024-05-11T09:13:37Z</time>
      </trkpt>
      <trkpt lat="43.44087" lon="2.02972">
        <ele>355.9</ele>
        <time>2024-05-11T09:13:38Z</time>
      </trkpt>
      <trkpt lat="43.44085" lon="2.02961">
        <ele>355.5</ele>
        <time>2024-05-11T09:13:39Z</time>
      </trkpt>
      <trkpt lat="43.44083" lon="2.0295">
        <ele>355.2</ele>
        <time>2024-05-11T09:13:40Z</time>
      </trkpt>
      <trkpt lat="43.4408" lon="2.02939">
        <ele>355</ele>
        <time>2024-05-11T09:13:41Z</time>
      </trkpt>
      <trkpt lat="43.44078" lon="2.02927">
        <ele>354.9</ele>
        <time>2024-05-11T09:13:42Z</time>
      </trkpt>
      <trkpt lat="43.44076" lon="2.02915">
        <ele>354.7</ele>
        <time>2024-05-11T09:13:43Z</time>
      </trkpt>
      <trkpt lat="43.44074" lon="2.02902">
        <ele>354.3</ele>
        <time>2024-05-11T09:13:44Z</time>
      </trkpt>
      <trkpt lat="43.44073" lon="2.02888">
        <ele>354</ele>
        <time>2024-05-11T09:13:45Z</time>
      </trkpt>
      <trkpt lat="43.44072" lon="2.02874">
        <ele>354</ele>
        <time>2024-05-11T09:13:46Z</time>
      </trkpt>
      <trkpt lat="43.44072" lon="2.0286">
        <ele>354</ele>
        <time>2024-05-11T09:13:47Z</time>
      </trkpt>
      <trkpt lat="43.44071" lon="2.02845">
        <ele>353.7</ele>
        <time>2024-05-11T09:13:48Z</time>
      </trkpt>
      <trkpt lat="43.44071" lon="2.02831">
        <ele>353.4</ele>
        <time>2024-05-11T09:13:49Z</time>
      </trkpt>
      <trkpt lat="43.44072" lon="2.02816">
        <ele>353.2</ele>
        <time>2024-05-11T09:13:50Z</time>
      </trkpt>
      <trkpt lat="43.44072" lon="2.02801">
        <ele>353</ele>
        <time>2024-05-11T09:13:51Z</time>
      </trkpt>
      <trkpt lat="43.44073" lon="2.02787">
        <ele>353</ele>
        <time>2024-05-11T09:13:52Z</time>
      </trkpt>
      <trkpt lat="43.44074" lon="2.02772">
        <ele>353</ele>
        <time>2024-05-11T09:13:53Z</time>
      </trkpt>
      <trkpt lat="43.44075" lon="2.02758">
        <ele>353</ele>
        <time>2024-05-11T09:13:54Z</time>
      </trkpt>
      <trkpt lat="43.44075" lon="2.02742">
        <ele>352.7</ele>
        <time>2024-05-11T09:13:55Z</time>
      </trkpt>
      <trkpt lat="43.44076" lon="2.02727">
        <ele>352.2</ele>
        <time>2024-05-11T09:13:56Z</time>
      </trkpt>
      <trkpt lat="43.44076" lon="2.02712">
        <ele>351.6</ele>
        <time>2024-05-11T09:13:57Z</time>
      </trkpt>
      <trkpt lat="43.44077" lon="2.02696">
        <ele>351.1</ele>
        <time>2024-05-11T09:13:58Z</time>
      </trkpt>
      <trkpt lat="43.44078" lon="2.0268">
        <ele>350.6</ele>
        <time>2024-05-11T09:13:59Z</time>
      </trkpt>
      <trkpt lat="43.44078" lon="2.02665">
        <ele>350.2</ele>
        <time>2024-05-11T09:14:00Z</time>
      </trkpt>
      <trkpt lat="43.44079" lon="2.02649">
        <ele>350.7</ele>
        <time>2024-05-11T09:14:01Z</time>
      </trkpt>
      <trkpt lat="43.4408" lon="2.02635">
        <ele>351.3</ele>
        <time>2024-05-11T09:14:02Z</time>
      </trkpt>
      <trkpt lat="43.44081" lon="2.02621">
        <ele>352.2</ele>
        <time>2024-05-11T09:14:03Z</time>
      </trkpt>
      <trkpt lat="43.44082" lon="2.02607">
        <ele>353.1</ele>
        <time>2024-05-11T09:14:04Z</time>
      </trkpt>
      <trkpt lat="43.44082" lon="2.02593">
        <ele>353.6</ele>
        <time>2024-05-11T09:14:05Z</time>
      </trkpt>
      <trkpt lat="43.44083" lon="2.02581">
        <ele>354.1</ele>
        <time>2024-05-11T09:14:06Z</time>
      </trkpt>
      <trkpt lat="43.44083" lon="2.02571">
        <ele>354.4</ele>
        <time>2024-05-11T09:14:07Z</time>
      </trkpt>
      <trkpt lat="43.44084" lon="2.02561">
        <ele>354.8</ele>
        <time>2024-05-11T09:14:08Z</time>
      </trkpt>
      <trkpt lat="43.44084" lon="2.02551">
        <ele>355</ele>
        <time>2024-05-11T09:14:09Z</time>
      </trkpt>
      <trkpt lat="43.44085" lon="2.02542">
        <ele>355</ele>
        <time>2024-05-11T09:14:10Z</time>
      </trkpt>
      <trkpt lat="43.44085" lon="2.02533">
        <ele>355</ele>
        <time>2024-05-11T09:14:11Z</time>
      </trkpt>
      <trkpt lat="43.44086" lon="2.02523">
        <ele>355</ele>
        <time>2024-05-11T09:14:12Z</time>
      </trkpt>
      <trkpt lat="43.44086" lon="2.02514">
        <ele>355</ele>
        <time>2024-05-11T09:14:13Z</time>
      </trkpt>
      <trkpt lat="43.44087" lon="2.02504">
        <ele>355</ele>
        <time>2024-05-11T09:14:14Z</time>
      </trkpt>
      <trkpt lat="43.44087" lon="2.02494">
        <ele>354.8</ele>
        <time>2024-05-11T09:14:15Z</time>
      </trkpt>
      <trkpt lat="43.44088" lon="2.02483">
        <ele>354.4</ele>
        <time>2024-05-11T09:14:16Z</time>
      </trkpt>
      <trkpt lat="43.44088" lon="2.02471">
        <ele>354</ele>
        <time>2024-05-11T09:14:17Z</time>
      </trkpt>
      <trkpt lat="43.44089" lon="2.0246">
        <ele>353.9</ele>
        <time>2024-05-11T09:14:18Z</time>
      </trkpt>
      <trkpt lat="43.4409" lon="2.02447">
        <ele>353.8</ele>
        <time>2024-05-11T09:14:19Z</time>
      </trkpt>
      <trkpt lat="43.44091" lon="2.02435">
        <ele>353.4</ele>
        <time>2024-05-11T09:14:20Z</time>
      </trkpt>
      <trkpt lat="43.44093" lon="2.02423">
        <ele>352.9</ele>
        <time>2024-05-11T09:14:21Z</time>
      </trkpt>
      <trkpt lat="43.44094" lon="2.02412">
        <ele>352.6</ele>
        <time>2024-05-11T09:14:22Z</time>
      </trkpt>
      <trkpt lat="43.44097" lon="2.02404">
        <ele>352.3</ele>
        <time>2024-05-11T09:14:23Z</time>
      </trkpt>
      <trkpt lat="43.441" lon="2.02397">
        <ele>352</ele>
        <time>2024-05-11T09:14:24Z</time>
      </trkpt>
      <trkpt lat="43.44103" lon="2.02393">
        <ele>351.7</ele>
        <time>2024-05-11T09:14:25Z</time>
      </trkpt>
      <trkpt lat="43.44106" lon="2.02389">
        <ele>351.4</ele>
        <time>2024-05-11T09:14:26Z</time>
      </trkpt>
      <trkpt lat="43.44107" lon="2.02385">
        <ele>351.1</ele>
        <time>2024-05-11T09:14:27Z</time>
      </trkpt>
      <trkpt lat="43.44106" lon="2.0238">
        <ele>350.8</ele>
        <time>2024-05-11T09:14:28Z</time>
      </trkpt>
      <trkpt lat="43.44105" lon="2.02377">
        <ele>350.8</ele>
        <time>2024-05-11T09:14:29Z</time>
      </trkpt>
      <trkpt lat="43.44103" lon="2.02375">
        <ele>350.9</ele>
        <time>2024-05-11T09:14:30Z</time>
      </trkpt>
      <trkpt lat="43.44102" lon="2.02375">
        <ele>351</ele>
        <time>2024-05-11T09:14:31Z</time>
      </trkpt>
      <trkpt lat="43.44103" lon="2.02374">
        <ele>350.8</ele>
        <time>2024-05-11T09:14:32Z</time>
      </trkpt>
      <trkpt lat="43.44103" lon="2.02374">
        <ele>350.8</ele>
        <time>2024-05-11T09:14:33Z</time>
      </trkpt>
      <trkpt lat="43.44103" lon="2.02375">
        <ele>350.9</ele>
        <time>2024-05-11T09:14:34Z</time>
      </trkpt>
      <trkpt lat="43.44103" lon="2.02375">
        <ele>350.9</ele>
        <time>2024-05-11T09:14:35Z</time>
      </trkpt>
      <trkpt lat="43.44103" lon="2.02375">
        <ele>350.9</ele>
        <time>2024-05-11T09:14:36Z</time>
      </trkpt>
      <trkpt lat="43.44102" lon="2.02374">
        <ele>350.9</ele>
        <time>2024-05-11T09:14:37Z</time>
      </trkpt>
      <trkpt lat="43.44102" lon="2.02374">
        <ele>350.9</ele>
        <time>2024-05-11T09:14:38Z</time>
      </trkpt>
      <trkpt lat="43.44101" lon="2.02373">
        <ele>351</ele>
        <time>2024-05-11T09:14:39Z</time>
      </trkpt>
      <trkpt lat="43.441" lon="2.02373">
        <ele>351.1</ele>
        <time>2024-05-11T09:14:40Z</time>
      </trkpt>
      <trkpt lat="43.44099" lon="2.02373">
        <ele>351.2</ele>
        <time>2024-05-11T09:14:41Z</time>
      </trkpt>
      <trkpt lat="43.44098" lon="2.02372">
        <ele>351.3</ele>
        <time>2024-05-11T09:14:42Z</time>
      </trkpt>
      <trkpt lat="43.44095" lon="2.02371">
        <ele>351.6</ele>
        <time>2024-05-11T09:14:43Z</time>
      </trkpt>
      <trkpt lat="43.44088" lon="2.02367">
        <ele>352.4</ele>
        <time>2024-05-11T09:14:44Z</time>
      </trkpt>
      <trkpt lat="43.44081" lon="2.02361">
        <ele>353.2</ele>
        <time>2024-05-11T09:14:45Z</time>
      </trkpt>
      <trkpt lat="43.44074" lon="2.02352">
        <ele>354.1</ele>
        <time>2024-05-11T09:14:46Z</time>
      </trkpt>
      <trkpt lat="43.44066" lon="2.02342">
        <ele>355.4</ele>
        <time>2024-05-11T09:14:47Z</time>
      </trkpt>
      <trkpt lat="43.44057" lon="2.02333">
        <ele>356.9</ele>
        <time>2024-05-11T09:14:48Z</time>
      </trkpt>
      <trkpt lat="43.44049" lon="2.02322">
        <ele>357.6</ele>
        <time>2024-05-11T09:14:49Z</time>
      </trkpt>
      <trkpt lat="43.4404" lon="2.02311">
        <ele>358.4</ele>
        <time>2024-05-11T09:14:50Z</time>
      </trkpt>
      <trkpt lat="43.44032" lon="2.02298">
        <ele>359.2</ele>
        <time>2024-05-11T09:14:51Z</time>
      </trkpt>
      <trkpt lat="43.44024" lon="2.02285">
        <ele>359.6</ele>
        <time>2024-05-11T09:14:52Z</time>
      </trkpt>
      <trkpt lat="43.44015" lon="2.02271">
        <ele>359.9</ele>
        <time>2024-05-11T09:14:53Z</time>
      </trkpt>
      <trkpt lat="43.44007" lon="2.02258">
        <ele>360.5</ele>
        <time>2024-05-11T09:14:54Z</time>
      </trkpt>
      <trkpt lat="43.43999" lon="2.02244">
        <ele>361.2</ele>
        <time>2024-05-11T09:14:55Z</time>
      </trkpt>
      <trkpt lat="43.43992" lon="2.02232">
        <ele>361.3</ele>
        <time>2024-05-11T09:14:56Z</time>
      </trkpt>
      <trkpt lat="43.43985" lon="2.0222">
        <ele>361.5</ele>
        <time>2024-05-11T09:14:57Z</time>
      </trkpt>
      <trkpt lat="43.4398" lon="2.02208">
        <ele>361.8</ele>
        <time>2024-05-11T09:14:58Z</time>
      </trkpt>
      <trkpt lat="43.43975" lon="2.02197">
        <ele>362</ele>
        <time>2024-05-11T09:14:59Z</time>
      </trkpt>
      <trkpt lat="43.4397" lon="2.02186">
        <ele>362.1</ele>
        <time>2024-05-11T09:15:00Z</time>
      </trkpt>
      <trkpt lat="43.43965" lon="2.02174">
        <ele>362.1</ele>
        <time>2024-05-11T09:15:01Z</time>
      </trkpt>
      <trkpt lat="43.4396" lon="2.02163">
        <ele>362.1</ele>
        <time>2024-05-11T09:15:02Z</time>
      </trkpt>
      <trkpt lat="43.43955" lon="2.02152">
        <ele>361.8</ele>
        <time>2024-05-11T09:15:03Z</time>
      </trkpt>
      <trkpt lat="43.43949" lon="2.02142">
        <ele>361.3</ele>
        <time>2024-05-11T09:15:04Z</time>
      </trkpt>
      <trkpt lat="43.43943" lon="2.02133">
        <ele>360.8</ele>
        <time>2024-05-11T09:15:05Z</time>
      </trkpt>
      <trkpt lat="43.43937" lon="2.02124">
        <ele>360.1</ele>
        <time>2024-05-11T09:15:06Z</time>
      </trkpt>
      <trkpt lat="43.43932" lon="2.02116">
        <ele>359.6</ele>
        <time>2024-05-11T09:15:07Z</time>
      </trkpt>
      <trkpt lat="43.43927" lon="2.02108">
        <ele>359.2</ele>
        <time>2024-05-11T09:15:08Z</time>
      </trkpt>
      <trkpt lat="43.43923" lon="2.021">
        <ele>358.8</ele>
        <time>2024-05-11T09:15:09Z</time>
      </trkpt>
      <trkpt lat="43.43919" lon="2.02093">
        <ele>358.3</ele>
        <time>2024-05-11T09:15:10Z</time>
      </trkpt>
      <trkpt lat="43.43914" lon="2.02085">
        <ele>357.6</ele>
        <time>2024-05-11T09:15:11Z</time>
      </trkpt>
      <trkpt lat="43.4391" lon="2.02077">
        <ele>357</ele>
        <time>2024-05-11T09:15:12Z</time>
      </trkpt>
      <trkpt lat="43.43905" lon="2.02067">
        <ele>356.3</ele>
        <time>2024-05-11T09:15:13Z</time>
      </trkpt>
      <trkpt lat="43.43902" lon="2.02055">
        <ele>355.9</ele>
        <time>2024-05-11T09:15:14Z</time>
      </trkpt>
      <trkpt lat="43.439" lon="2.02042">
        <ele>355.6</ele>
        <time>2024-05-11T09:15:15Z</time>
      </trkpt>
      <trkpt lat="43.43898" lon="2.02029">
        <ele>355.3</ele>
        <time>2024-05-11T09:15:16Z</time>
      </trkpt>
      <trkpt lat="43.43897" lon="2.02016">
        <ele>355.3</ele>
        <time>2024-05-11T09:15:17Z</time>
      </trkpt>
      <trkpt lat="43.43892" lon="2.02003">
        <ele>354.5</ele>
        <time>2024-05-11T09:15:18Z</time>
      </trkpt>
      <trkpt lat="43.43888" lon="2.0199">
        <ele>354.8</ele>
        <time>2024-05-11T09:15:19Z</time>
      </trkpt>
      <trkpt lat="43.43882" lon="2.01977">
        <ele>354.1</ele>
        <time>2024-05-11T09:15:20Z</time>
      </trkpt>
      <trkpt lat="43.43878" lon="2.01964">
        <ele>353.8</ele>
        <time>2024-05-11T09:15:21Z</time>
      </trkpt>
      <trkpt lat="43.43874" lon="2.0195">
        <ele>353.7</ele>
        <time>2024-05-11T09:15:22Z</time>
      </trkpt>
      <trkpt lat="43.43869" lon="2.01935">
        <ele>354</ele>
        <time>2024-05-11T09:15:23Z</time>
      </trkpt>
      <trkpt lat="43.43863" lon="2.01921">
        <ele>354.7</ele>
        <time>2024-05-11T09:15:24Z</time>
      </trkpt>
      <trkpt lat="43.43857" lon="2.01907">
        <ele>354.8</ele>
        <time>2024-05-11T09:15:25Z</time>
      </trkpt>
      <trkpt lat="43.43851" lon="2.01892">
        <ele>354.6</ele>
        <time>2024-05-11T09:15:26Z</time>
      </trkpt>
      <trkpt lat="43.43844" lon="2.01878">
        <ele>353.7</ele>
        <time>2024-05-11T09:15:27Z</time>
      </trkpt>
      <trkpt lat="43.43837" lon="2.01863">
        <ele>352.7</ele>
        <time>2024-05-11T09:15:28Z</time>
      </trkpt>
      <trkpt lat="43.43831" lon="2.01849">
        <ele>350.9</ele>
        <time>2024-05-11T09:15:29Z</time>
      </trkpt>
      <trkpt lat="43.43824" lon="2.01838">
        <ele>348.2</ele>
        <time>2024-05-11T09:15:30Z</time>
      </trkpt>
      <trkpt lat="43.43816" lon="2.0183">
        <ele>345.2</ele>
        <time>2024-05-11T09:15:31Z</time>
      </trkpt>
      <trkpt lat="43.43808" lon="2.01828">
        <ele>342.6</ele>
        <time>2024-05-11T09:15:32Z</time>
      </trkpt>
      <trkpt lat="43.43799" lon="2.01831">
        <ele>340.7</ele>
        <time>2024-05-11T09:15:33Z</time>
      </trkpt>
      <trkpt lat="43.4379" lon="2.01838">
        <ele>339.6</ele>
        <time>2024-05-11T09:15:34Z</time>
      </trkpt>
      <trkpt lat="43.43784" lon="2.01847">
        <ele>339.5</ele>
        <time>2024-05-11T09:15:35Z</time>
      </trkpt>
      <trkpt lat="43.43778" lon="2.01858">
        <ele>339.7</ele>
        <time>2024-05-11T09:15:36Z</time>
      </trkpt>
      <trkpt lat="43.43774" lon="2.01867">
        <ele>340</ele>
        <time>2024-05-11T09:15:37Z</time>
      </trkpt>
      <trkpt lat="43.43772" lon="2.01871">
        <ele>340.1</ele>
        <time>2024-05-11T09:15:38Z</time>
      </trkpt>
      <trkpt lat="43.4377" lon="2.01875">
        <ele>340.2</ele>
        <time>2024-05-11T09:15:39Z</time>
      </trkpt>
      <trkpt lat="43.43769" lon="2.01877">
        <ele>340.2</ele>
        <time>2024-05-11T09:15:40Z</time>
      </trkpt>
      <trkpt lat="43.43768" lon="2.01879">
        <ele>340.2</ele>
        <time>2024-05-11T09:15:41Z</time>
      </trkpt>
      <trkpt lat="43.43766" lon="2.01882">
        <ele>340.2</ele>
        <time>2024-05-11T09:15:42Z</time>
      </trkpt>
      <trkpt lat="43.43765" lon="2.01884">
        <ele>340.3</ele>
        <time>2024-05-11T09:15:43Z</time>
      </trkpt>
      <trkpt lat="43.43763" lon="2.01887">
        <ele>340.3</ele>
        <time>2024-05-11T09:15:44Z</time>
      </trkpt>
      <trkpt lat="43.4376" lon="2.01888">
        <ele>340</ele>
        <time>2024-05-11T09:15:45Z</time>
      </trkpt>
      <trkpt lat="43.43757" lon="2.01891">
        <ele>339.8</ele>
        <time>2024-05-11T09:15:46Z</time>
      </trkpt>
      <trkpt lat="43.43754" lon="2.01893">
        <ele>339.5</ele>
        <time>2024-05-11T09:15:47Z</time>
      </trkpt>
      <trkpt lat="43.43753" lon="2.01893">
        <ele>339.3</ele>
        <time>2024-05-11T09:15:48Z</time>
      </trkpt>
      <trkpt lat="43.43751" lon="2.01894">
        <ele>339.1</ele>
        <time>2024-05-11T09:15:49Z</time>
      </trkpt>
      <trkpt lat="43.4375" lon="2.01896">
        <ele>339</ele>
        <time>2024-05-11T09:15:50Z</time>
      </trkpt>
      <trkpt lat="43.43749" lon="2.01896">
        <ele>338.8</ele>
        <time>2024-05-11T09:15:51Z</time>
      </trkpt>
      <trkpt lat="43.43749" lon="2.01896">
        <ele>338.8</ele>
        <time>2024-05-11T09:15:52Z</time>
      </trkpt>
      <trkpt lat="43.43749" lon="2.01896">
        <ele>338.8</ele>
        <time>2024-05-11T09:15:53Z</time>
      </trkpt>
      <trkpt lat="43.43749" lon="2.01896">
        <ele>338.8</ele>
        <time>2024-05-11T09:15:54Z</time>
      </trkpt>
      <trkpt lat="43.43749" lon="2.01896">
        <ele>338.8</ele>
        <time>2024-05-11T09:15:55Z</time>
      </trkpt>
      <trkpt lat="43.43749" lon="2.01896">
        <ele>338.8</ele>
        <time>2024-05-11T09:15:56Z</time>
      </trkpt>
      <trkpt lat="43.43748" lon="2.01897">
        <ele>338.5</ele>
        <time>2024-05-11T09:15:57Z</time>
      </trkpt>
      <trkpt lat="43.43745" lon="2.01899">
        <ele>337.9</ele>
        <time>2024-05-11T09:15:58Z</time>
      </trkpt>
      <trkpt lat="43.43743" lon="2.01901">
        <ele>337.5</ele>
        <time>2024-05-11T09:15:59Z</time>
      </trkpt>
      <trkpt lat="43.43739" lon="2.01903">
        <ele>336.6</ele>
        <time>2024-05-11T09:16:00Z</time>
      </trkpt>
      <trkpt lat="43.43735" lon="2.01906">
        <ele>335.9</ele>
        <time>2024-05-11T09:16:01Z</time>
      </trkpt>
      <trkpt lat="43.43732" lon="2.01909">
        <ele>335.4</ele>
        <time>2024-05-11T09:16:02Z</time>
      </trkpt>
      <trkpt lat="43.43728" lon="2.01912">
        <ele>334.8</ele>
        <time>2024-05-11T09:16:03Z</time>
      </trkpt>
      <trkpt lat="43.43725" lon="2.01914">
        <ele>334.3</ele>
        <time>2024-05-11T09:16:04Z</time>
      </trkpt>
      <trkpt lat="43.43722" lon="2.01916">
        <ele>333.9</ele>
        <time>2024-05-11T09:16:05Z</time>
      </trkpt>
      <trkpt lat="43.43719" lon="2.01918">
        <ele>333.6</ele>
        <time>2024-05-11T09:16:06Z</time>
      </trkpt>
      <trkpt lat="43.43716" lon="2.0192">
        <ele>333.4</ele>
        <time>2024-05-11T09:16:07Z</time>
      </trkpt>
      <trkpt lat="43.43714" lon="2.01922">
        <ele>333.4</ele>
        <time>2024-05-11T09:16:08Z</time>
      </trkpt>
      <trkpt lat="43.43711" lon="2.01924">
        <ele>333.2</ele>
        <time>2024-05-11T09:16:09Z</time>
      </trkpt>
      <trkpt lat="43.43709" lon="2.01926">
        <ele>333.3</ele>
        <time>2024-05-11T09:16:10Z</time>
      </trkpt>
      <trkpt lat="43.43707" lon="2.01927">
        <ele>333.2</ele>
        <time>2024-05-11T09:16:11Z</time>
      </trkpt>
      <trkpt lat="43.43705" lon="2.01928">
        <ele>333</ele>
        <time>2024-05-11T09:16:12Z</time>
      </trkpt>
      <trkpt lat="43.43704" lon="2.01929">
        <ele>333.1</ele>
        <time>2024-05-11T09:16:13Z</time>
      </trkpt>
      <trkpt lat="43.43704" lon="2.01929">
        <ele>333.1</ele>
        <time>2024-05-11T09:16:14Z</time>
      </trkpt>
      <trkpt lat="43.43704" lon="2.01929">
        <ele>333.1</ele>
        <time>2024-05-11T09:16:15Z</time>
      </trkpt>
      <trkpt lat="43.43703" lon="2.0193">
        <ele>333.1</ele>
        <time>2024-05-11T09:16:16Z</time>
      </trkpt>
      <trkpt lat="43.43703" lon="2.0193">
        <ele>333.1</ele>
        <time>2024-05-11T09:16:17Z</time>
      </trkpt>
      <trkpt lat="43.43703" lon="2.0193">
        <ele>333.1</ele>
        <time>2024-05-11T09:16:18Z</time>
      </trkpt>
      <trkpt lat="43.43703" lon="2.0193">
        <ele>333.1</ele>
        <time>2024-05-11T09:16:19Z</time>
      </trkpt>
      <trkpt lat="43.43703" lon="2.01931">
        <ele>333.3</ele>
        <time>2024-05-11T09:16:20Z</time>
      </trkpt>
      <trkpt lat="43.43702" lon="2.01931">
        <ele>333.2</ele>
        <time>2024-05-11T09:16:21Z</time>
      </trkpt>
      <trkpt lat="43.43701" lon="2.01931">
        <ele>333</ele>
        <time>2024-05-11T09:16:22Z</time>
      </trkpt>
      <trkpt lat="43.437" lon="2.01932">
        <ele>333.1</ele>
        <time>2024-05-11T09:16:23Z</time>
      </trkpt>
      <trkpt lat="43.43699" lon="2.01933">
        <ele>333.2</ele>
        <time>2024-05-11T09:16:24Z</time>
      </trkpt>
      <trkpt lat="43.43699" lon="2.01934">
        <ele>333.4</ele>
        <time>2024-05-11T09:16:25Z</time>
      </trkpt>
      <trkpt lat="43.43698" lon="2.01934">
        <ele>333.2</ele>
        <time>2024-05-11T09:16:26Z</time>
      </trkpt>
      <trkpt lat="43.43699" lon="2.01934">
        <ele>333.4</ele>
        <time>2024-05-11T09:16:27Z</time>
      </trkpt>
      <trkpt lat="43.43699" lon="2.01934">
        <ele>333.4</ele>
        <time>2024-05-11T09:16:28Z</time>
      </trkpt>
      <trkpt lat="43.43699" lon="2.01934">
        <ele>333.4</ele>
        <time>2024-05-11T09:16:29Z</time>
      </trkpt>
      <trkpt lat="43.43699" lon="2.01934">
        <ele>333.4</ele>
        <time>2024-05-11T09:16:30Z</time>
      </trkpt>
      <trkpt lat="43.43699" lon="2.01934">
        <ele>333.4</ele>
        <time>2024-05-11T09:16:31Z</time>
      </trkpt>
      <trkpt lat="43.43698" lon="2.01935">
        <ele>333.4</ele>
        <time>2024-05-11T09:16:32Z</time>
      </trkpt>
      <trkpt lat="43.43698" lon="2.01936">
        <ele>333.6</ele>
        <time>2024-05-11T09:16:33Z</time>
      </trkpt>
      <trkpt lat="43.43698" lon="2.01936">
        <ele>333.6</ele>
        <time>2024-05-11T09:16:34Z</time>
      </trkpt>
      <trkpt lat="43.43698" lon="2.01937">
        <ele>333.8</ele>
        <time>2024-05-11T09:16:35Z</time>
      </trkpt>
      <trkpt lat="43.43698" lon="2.01937">
        <ele>333.8</ele>
        <time>2024-05-11T09:16:36Z</time>
      </trkpt>
      <trkpt lat="43.43698" lon="2.01937">
        <ele>333.8</ele>
        <time>2024-05-11T09:16:37Z</time>
      </trkpt>
      <trkpt lat="43.43698" lon="2.01937">
        <ele>333.8</ele>
        <time>2024-05-11T09:16:38Z</time>
      </trkpt>
      <trkpt lat="43.43698" lon="2.01937">
        <ele>333.8</ele>
        <time>2024-05-11T09:16:39Z</time>
      </trkpt>
      <trkpt lat="43.43698" lon="2.01937">
        <ele>333.8</ele>
        <time>2024-05-11T09:16:40Z</time>
      </trkpt>
      <trkpt lat="43.43698" lon="2.01936">
        <ele>333.6</ele>
        <time>2024-05-11T09:16:41Z</time>
      </trkpt>
      <trkpt lat="43.43698" lon="2.01937">
        <ele>333.8</ele>
        <time>2024-05-11T09:16:42Z</time>
      </trkpt>
      <trkpt lat="43.43697" lon="2.01937">
        <ele>333.7</ele>
        <time>2024-05-11T09:16:43Z</time>
      </trkpt>
      <trkpt lat="43.43697" lon="2.01938">
        <ele>333.9</ele>
        <time>2024-05-11T09:16:44Z</time>
      </trkpt>
      <trkpt lat="43.43697" lon="2.01938">
        <ele>333.9</ele>
        <time>2024-05-11T09:16:45Z</time>
      </trkpt>
      <trkpt lat="43.43697" lon="2.01939">
        <ele>334.1</ele>
        <time>2024-05-11T09:16:46Z</time>
      </trkpt>
      <trkpt lat="43.43697" lon="2.01939">
        <ele>334.1</ele>
        <time>2024-05-11T09:16:47Z</time>
      </trkpt>
      <trkpt lat="43.43697" lon="2.01939">
        <ele>334.1</ele>
        <time>2024-05-11T09:16:48Z</time>
      </trkpt>
      <trkpt lat="43.43697" lon="2.0194">
        <ele>334.3</ele>
        <time>2024-05-11T09:16:49Z</time>
      </trkpt>
      <trkpt lat="43.43697" lon="2.0194">
        <ele>334.3</ele>
        <time>2024-05-11T09:16:50Z</time>
      </trkpt>
      <trkpt lat="43.43697" lon="2.01941">
        <ele>334.6</ele>
        <time>2024-05-11T09:16:51Z</time>
      </trkpt>
      <trkpt lat="43.43697" lon="2.01942">
        <ele>334.8</ele>
        <time>2024-05-11T09:16:52Z</time>
      </trkpt>
      <trkpt lat="43.43697" lon="2.01942">
        <ele>334.8</ele>
        <time>2024-05-11T09:16:53Z</time>
      </trkpt>
      <trkpt lat="43.43697" lon="2.01942">
        <ele>334.8</ele>
        <time>2024-05-11T09:16:54Z</time>
      </trkpt>
      <trkpt lat="43.43697" lon="2.01942">
        <ele>334.8</ele>
        <time>2024-05-11T09:16:55Z</time>
      </trkpt>
      <trkpt lat="43.43697" lon="2.01942">
        <ele>334.8</ele>
        <time>2024-05-11T09:16:56Z</time>
      </trkpt>
      <trkpt lat="43.43697" lon="2.01943">
        <ele>335</ele>
        <time>2024-05-11T09:16:57Z</time>
      </trkpt>
      <trkpt lat="43.43697" lon="2.01943">
        <ele>335</ele>
        <time>2024-05-11T09:16:58Z</time>
      </trkpt>
      <trkpt lat="43.43697" lon="2.01943">
        <ele>335</ele>
        <time>2024-05-11T09:16:59Z</time>
      </trkpt>
      <trkpt lat="43.43697" lon="2.01943">
        <ele>335</ele>
        <time>2024-05-11T09:17:00Z</time>
      </trkpt>
      <trkpt lat="43.43697" lon="2.01944">
        <ele>335.2</ele>
        <time>2024-05-11T09:17:01Z</time>
      </trkpt>
      <trkpt lat="43.43697" lon="2.01944">
        <ele>335.2</ele>
        <time>2024-05-11T09:17:02Z</time>
      </trkpt>
      <trkpt lat="43.43697" lon="2.01944">
        <ele>335.2</ele>
        <time>2024-05-11T09:17:03Z</time>
      </trkpt>
      <trkpt lat="43.43697" lon="2.01944">
        <ele>335.2</ele>
        <time>2024-05-11T09:17:04Z</time>
      </trkpt>
      <trkpt lat="43.43697" lon="2.01945">
        <ele>335.4</ele>
        <time>2024-05-11T09:17:05Z</time>
      </trkpt>
      <trkpt lat="43.43697" lon="2.01945">
        <ele>335.4</ele>
        <time>2024-05-11T09:17:06Z</time>
      </trkpt>
      <trkpt lat="43.43697" lon="2.01945">
        <ele>335.4</ele>
        <time>2024-05-11T09:17:07Z</time>
      </trkpt>
      <trkpt lat="43.43697" lon="2.01945">
        <ele>335.4</ele>
        <time>2024-05-11T09:17:08Z</time>
      </trkpt>
      <trkpt lat="43.43697" lon="2.01945">
        <ele>335.4</ele>
        <time>2024-05-11T09:17:09Z</time>
      </trkpt>
      <trkpt lat="43.43697" lon="2.01946">
        <ele>335.6</ele>
        <time>2024-05-11T09:17:10Z</time>
      </trkpt>
      <trkpt lat="43.43697" lon="2.01947">
        <ele>335.7</ele>
        <time>2024-05-11T09:17:11Z</time>
      </trkpt>
      <trkpt lat="43.43697" lon="2.01949">
        <ele>336.1</ele>
        <time>2024-05-11T09:17:12Z</time>
      </trkpt>
      <trkpt lat="43.43697" lon="2.01951">
        <ele>336.4</ele>
        <time>2024-05-11T09:17:13Z</time>
      </trkpt>
      <trkpt lat="43.43697" lon="2.01951">
        <ele>336.4</ele>
        <time>2024-05-11T09:17:14Z</time>
      </trkpt>
      <trkpt lat="43.43697" lon="2.01952">
        <ele>336.6</ele>
        <time>2024-05-11T09:17:15Z</time>
      </trkpt>
      <trkpt lat="43.43697" lon="2.01951">
        <ele>336.4</ele>
        <time>2024-05-11T09:17:16Z</time>
      </trkpt>
      <trkpt lat="43.43697" lon="2.01951">
        <ele>336.4</ele>
        <time>2024-05-11T09:17:17Z</time>
      </trkpt>
      <trkpt lat="43.43696" lon="2.01952">
        <ele>336.5</ele>
        <time>2024-05-11T09:17:18Z</time>
      </trkpt>
      <trkpt lat="43.43696" lon="2.01953">
        <ele>336.7</ele>
        <time>2024-05-11T09:17:19Z</time>
      </trkpt>
      <trkpt lat="43.43695" lon="2.01955">
        <ele>337</ele>
        <time>2024-05-11T09:17:20Z</time>
      </trkpt>
      <trkpt lat="43.43693" lon="2.01957">
        <ele>337.3</ele>
        <time>2024-05-11T09:17:21Z</time>
      </trkpt>
      <trkpt lat="43.43691" lon="2.01958">
        <ele>337.4</ele>
        <time>2024-05-11T09:17:22Z</time>
      </trkpt>
      <trkpt lat="43.4369" lon="2.01959">
        <ele>337.6</ele>
        <time>2024-05-11T09:17:23Z</time>
      </trkpt>
      <trkpt lat="43.43688" lon="2.0196">
        <ele>337.8</ele>
        <time>2024-05-11T09:17:24Z</time>
      </trkpt>
      <trkpt lat="43.43687" lon="2.01961">
        <ele>338</ele>
        <time>2024-05-11T09:17:25Z</time>
      </trkpt>
      <trkpt lat="43.43686" lon="2.01962">
        <ele>338.2</ele>
        <time>2024-05-11T09:17:26Z</time>
      </trkpt>
      <trkpt lat="43.43685" lon="2.01962">
        <ele>338.2</ele>
        <time>2024-05-11T09:17:27Z</time>
      </trkpt>
      <trkpt lat="43.43684" lon="2.01963">
        <ele>338.3</ele>
        <time>2024-05-11T09:17:28Z</time>
      </trkpt>
      <trkpt lat="43.43683" lon="2.01964">
        <ele>338.5</ele>
        <time>2024-05-11T09:17:29Z</time>
      </trkpt>
      <trkpt lat="43.43681" lon="2.01964">
        <ele>338.5</ele>
        <time>2024-05-11T09:17:30Z</time>
      </trkpt>
      <trkpt lat="43.4368" lon="2.01964">
        <ele>338.5</ele>
        <time>2024-05-11T09:17:31Z</time>
      </trkpt>
      <trkpt lat="43.4368" lon="2.01963">
        <ele>338.3</ele>
        <time>2024-05-11T09:17:32Z</time>
      </trkpt>
      <trkpt lat="43.43679" lon="2.01963">
        <ele>338.3</ele>
        <time>2024-05-11T09:17:33Z</time>
      </trkpt>
      <trkpt lat="43.43678" lon="2.01963">
        <ele>338.3</ele>
        <time>2024-05-11T09:17:34Z</time>
      </trkpt>
      <trkpt lat="43.43678" lon="2.01963">
        <ele>338.3</ele>
        <time>2024-05-11T09:17:35Z</time>
      </trkpt>
      <trkpt lat="43.43677" lon="2.01963">
        <ele>338.3</ele>
        <time>2024-05-11T09:17:36Z</time>
      </trkpt>
      <trkpt lat="43.43677" lon="2.01963">
        <ele>338.3</ele>
        <time>2024-05-11T09:17:37Z</time>
      </trkpt>
      <trkpt lat="43.43676" lon="2.01964">
        <ele>338.5</ele>
        <time>2024-05-11T09:17:38Z</time>
      </trkpt>
      <trkpt lat="43.43676" lon="2.01964">
        <ele>338.5</ele>
        <time>2024-05-11T09:17:39Z</time>
      </trkpt>
      <trkpt lat="43.43677" lon="2.01964">
        <ele>338.5</ele>
        <time>2024-05-11T09:17:40Z</time>
      </trkpt>
      <trkpt lat="43.43677" lon="2.01964">
        <ele>338.5</ele>
        <time>2024-05-11T09:17:41Z</time>
      </trkpt>
      <trkpt lat="43.43677" lon="2.01963">
        <ele>338.3</ele>
        <time>2024-05-11T09:17:42Z</time>
      </trkpt>
      <trkpt lat="43.43677" lon="2.01963">
        <ele>338.3</ele>
        <time>2024-05-11T09:17:43Z</time>
      </trkpt>
      <trkpt lat="43.43677" lon="2.01963">
        <ele>338.3</ele>
        <time>2024-05-11T09:17:44Z</time>
      </trkpt>
      <trkpt lat="43.43677" lon="2.01963">
        <ele>338.3</ele>
        <time>2024-05-11T09:17:45Z</time>
      </trkpt>
      <trkpt lat="43.43677" lon="2.01963">
        <ele>338.3</ele>
        <time>2024-05-11T09:17:46Z</time>
      </trkpt>
      <trkpt lat="43.43677" lon="2.01963">
        <ele>338.3</ele>
        <time>2024-05-11T09:17:47Z</time>
      </trkpt>
      <trkpt lat="43.43678" lon="2.01963">
        <ele>338.3</ele>
        <time>2024-05-11T09:17:48Z</time>
      </trkpt>
      <trkpt lat="43.43678" lon="2.01963">
        <ele>338.3</ele>
        <time>2024-05-11T09:17:49Z</time>
      </trkpt>
      <trkpt lat="43.43678" lon="2.01963">
        <ele>338.3</ele>
        <time>2024-05-11T09:17:50Z</time>
      </trkpt>
      <trkpt lat="43.43678" lon="2.01963">
        <ele>338.3</ele>
        <time>2024-05-11T09:17:51Z</time>
      </trkpt>
      <trkpt lat="43.43678" lon="2.01963">
        <ele>338.3</ele>
        <time>2024-05-11T09:17:52Z</time>
      </trkpt>
      <trkpt lat="43.43678" lon="2.01963">
        <ele>338.3</ele>
        <time>2024-05-11T09:17:53Z</time>
      </trkpt>
      <trkpt lat="43.43678" lon="2.01963">
        <ele>338.3</ele>
        <time>2024-05-11T09:17:54Z</time>
      </trkpt>
      <trkpt lat="43.43678" lon="2.01963">
        <ele>338.3</ele>
        <time>2024-05-11T09:17:55Z</time>
      </trkpt>
      <trkpt lat="43.43678" lon="2.01962">
        <ele>338.2</ele>
        <time>2024-05-11T09:17:56Z</time>
      </trkpt>
      <trkpt lat="43.43678" lon="2.01962">
        <ele>338.2</ele>
        <time>2024-05-11T09:17:57Z</time>
      </trkpt>
      <trkpt lat="43.43678" lon="2.01962">
        <ele>338.2</ele>
        <time>2024-05-11T09:17:58Z</time>
      </trkpt>
      <trkpt lat="43.43678" lon="2.01962">
        <ele>338.2</ele>
        <time>2024-05-11T09:17:59Z</time>
      </trkpt>
      <trkpt lat="43.43678" lon="2.01962">
        <ele>338.2</ele>
        <time>2024-05-11T09:18:00Z</time>
      </trkpt>
      <trkpt lat="43.43678" lon="2.01962">
        <ele>338.2</ele>
        <time>2024-05-11T09:18:01Z</time>
      </trkpt>
      <trkpt lat="43.43678" lon="2.01962">
        <ele>338.2</ele>
        <time>2024-05-11T09:18:02Z</time>
      </trkpt>
      <trkpt lat="43.43678" lon="2.01962">
        <ele>338.2</ele>
        <time>2024-05-11T09:18:03Z</time>
      </trkpt>
      <trkpt lat="43.43678" lon="2.01962">
        <ele>338.2</ele>
        <time>2024-05-11T09:18:04Z</time>
      </trkpt>
      <trkpt lat="43.43679" lon="2.01962">
        <ele>338.2</ele>
        <time>2024-05-11T09:18:05Z</time>
      </trkpt>
      <trkpt lat="43.43679" lon="2.01962">
        <ele>338.2</ele>
        <time>2024-05-11T09:18:06Z</time>
      </trkpt>
      <trkpt lat="43.43684" lon="2.01972">
        <ele>340</ele>
        <time>2024-05-11T09:18:39Z</time>
      </trkpt>
      <trkpt lat="43.43679" lon="2.01961">
        <ele>338</ele>
        <time>2024-05-11T09:18:40Z</time>
      </trkpt>
      <trkpt lat="43.43679" lon="2.01961">
        <ele>338</ele>
        <time>2024-05-11T09:18:41Z</time>
      </trkpt>
      <trkpt lat="43.43679" lon="2.01962">
        <ele>338.2</ele>
        <time>2024-05-11T09:18:42Z</time>
      </trkpt>
      <trkpt lat="43.43679" lon="2.01962">
        <ele>338.2</ele>
        <time>2024-05-11T09:18:43Z</time>
      </trkpt>
      <trkpt lat="43.43679" lon="2.01962">
        <ele>338.2</ele>
        <time>2024-05-11T09:18:44Z</time>
      </trkpt>
      <trkpt lat="43.43679" lon="2.01961">
        <ele>338</ele>
        <time>2024-05-11T09:18:45Z</time>
      </trkpt>
      <trkpt lat="43.43679" lon="2.01961">
        <ele>338</ele>
        <time>2024-05-11T09:18:46Z</time>
      </trkpt>
      <trkpt lat="43.43679" lon="2.01962">
        <ele>338.2</ele>
        <time>2024-05-11T09:18:47Z</time>
      </trkpt>
      <trkpt lat="43.43679" lon="2.01962">
        <ele>338.2</ele>
        <time>2024-05-11T09:18:48Z</time>
      </trkpt>
      <trkpt lat="43.43679" lon="2.01962">
        <ele>338.2</ele>
        <time>2024-05-11T09:18:49Z</time>
      </trkpt>
      <trkpt lat="43.43679" lon="2.01962">
        <ele>338.2</ele>
        <time>2024-05-11T09:18:50Z</time>
      </trkpt>
      <trkpt lat="43.43679" lon="2.01962">
        <ele>338.2</ele>
        <time>2024-05-11T09:18:51Z</time>
      </trkpt>
      <trkpt lat="43.43679" lon="2.01962">
        <ele>338.2</ele>
        <time>2024-05-11T09:18:52Z</time>
      </trkpt>
      <trkpt lat="43.43679" lon="2.01962">
        <ele>338.2</ele>
        <time>2024-05-11T09:18:53Z</time>
      </trkpt>
      <trkpt lat="43.4368" lon="2.01962">
        <ele>338.2</ele>
        <time>2024-05-11T09:18:54Z</time>
      </trkpt>
      <trkpt lat="43.4368" lon="2.01962">
        <ele>338.2</ele>
        <time>2024-05-11T09:18:55Z</time>
      </trkpt>
      <trkpt lat="43.4368" lon="2.01962">
        <ele>338.2</ele>
        <time>2024-05-11T09:18:56Z</time>
      </trkpt>
      <trkpt lat="43.4368" lon="2.01962">
        <ele>338.2</ele>
        <time>2024-05-11T09:18:57Z</time>
      </trkpt>
      <trkpt lat="43.43679" lon="2.01962">
        <ele>338.2</ele>
        <time>2024-05-11T09:18:58Z</time>
      </trkpt>
      <trkpt lat="43.43679" lon="2.01962">
        <ele>338.2</ele>
        <time>2024-05-11T09:18:59Z</time>
      </trkpt>
      <trkpt lat="43.43679" lon="2.01962">
        <ele>338.2</ele>
        <time>2024-05-11T09:19:00Z</time>
      </trkpt>
      <trkpt lat="43.43679" lon="2.01962">
        <ele>338.2</ele>
        <time>2024-05-11T09:19:01Z</time>
      </trkpt>
      <trkpt lat="43.43679" lon="2.01962">
        <ele>338.2</ele>
        <time>2024-05-11T09:19:02Z</time>
      </trkpt>
      <trkpt lat="43.43678" lon="2.01962">
        <ele>338.2</ele>
        <time>2024-05-11T09:19:03Z</time>
      </trkpt>
      <trkpt lat="43.43678" lon="2.01962">
        <ele>338.2</ele>
        <time>2024-05-11T09:19:04Z</time>
      </trkpt>
      <trkpt lat="43.43678" lon="2.01963">
        <ele>338.3</ele>
        <time>2024-05-11T09:19:05Z</time>
      </trkpt>
      <trkpt lat="43.43678" lon="2.01963">
        <ele>338.3</ele>
        <time>2024-05-11T09:19:06Z</time>
      </trkpt>
      <trkpt lat="43.43678" lon="2.01963">
        <ele>338.3</ele>
        <time>2024-05-11T09:19:07Z</time>
      </trkpt>
      <trkpt lat="43.43678" lon="2.01963">
        <ele>338.3</ele>
        <time>2024-05-11T09:19:08Z</time>
      </trkpt>
      <trkpt lat="43.43678" lon="2.01963">
        <ele>338.3</ele>
        <time>2024-05-11T09:19:09Z</time>
      </trkpt>
      <trkpt lat="43.44147" lon="2.02319">
        <ele>344.3</ele>
        <time>2024-05-11T12:01:34Z</time>
      </trkpt>
      <trkpt lat="43.44147" lon="2.02319">
        <ele>344.3</ele>
        <time>2024-05-11T12:01:35Z</time>
      </trkpt>
      <trkpt lat="43.44146" lon="2.02322">
        <ele>344.5</ele>
        <time>2024-05-11T12:01:36Z</time>
      </trkpt>
      <trkpt lat="43.44144" lon="2.02322">
        <ele>344.7</ele>
        <time>2024-05-11T12:01:37Z</time>
      </trkpt>
      <trkpt lat="43.44142" lon="2.02321">
        <ele>345</ele>
        <time>2024-05-11T12:01:38Z</time>
      </trkpt>
      <trkpt lat="43.44141" lon="2.02321">
        <ele>345.2</ele>
        <time>2024-05-11T12:01:39Z</time>
      </trkpt>
      <trkpt lat="43.44141" lon="2.0232">
        <ele>345.2</ele>
        <time>2024-05-11T12:01:40Z</time>
      </trkpt>
      <trkpt lat="43.4414" lon="2.02319">
        <ele>345.4</ele>
        <time>2024-05-11T12:01:41Z</time>
      </trkpt>
      <trkpt lat="43.44138" lon="2.02319">
        <ele>345.7</ele>
        <time>2024-05-11T12:01:42Z</time>
      </trkpt>
      <trkpt lat="43.44136" lon="2.02319">
        <ele>346.1</ele>
        <time>2024-05-11T12:01:43Z</time>
      </trkpt>
      <trkpt lat="43.44133" lon="2.02322">
        <ele>346.6</ele>
        <time>2024-05-11T12:01:44Z</time>
      </trkpt>
      <trkpt lat="43.44129" lon="2.02329">
        <ele>347</ele>
        <time>2024-05-11T12:01:45Z</time>
      </trkpt>
      <trkpt lat="43.44126" lon="2.02335">
        <ele>347.4</ele>
        <time>2024-05-11T12:01:46Z</time>
      </trkpt>
      <trkpt lat="43.44122" lon="2.02341">
        <ele>348.1</ele>
        <time>2024-05-11T12:01:47Z</time>
      </trkpt>
      <trkpt lat="43.44118" lon="2.02348">
        <ele>348.6</ele>
        <time>2024-05-11T12:01:48Z</time>
      </trkpt>
      <trkpt lat="43.44114" lon="2.02354">
        <ele>349</ele>
        <time>2024-05-11T12:01:49Z</time>
      </trkpt>
      <trkpt lat="43.44111" lon="2.02359">
        <ele>349.1</ele>
        <time>2024-05-11T12:01:50Z</time>
      </trkpt>
      <trkpt lat="43.44109" lon="2.02364">
        <ele>349.5</ele>
        <time>2024-05-11T12:01:51Z</time>
      </trkpt>
      <trkpt lat="43.44107" lon="2.02367">
        <ele>350</ele>
        <time>2024-05-11T12:01:52Z</time>
      </trkpt>
      <trkpt lat="43.44105" lon="2.02369">
        <ele>350.3</ele>
        <time>2024-05-11T12:01:53Z</time>
      </trkpt>
      <trkpt lat="43.44104" lon="2.02371">
        <ele>350.6</ele>
        <time>2024-05-11T12:01:54Z</time>
      </trkpt>
      <trkpt lat="43.44104" lon="2.02371">
        <ele>350.6</ele>
        <time>2024-05-11T12:01:55Z</time>
      </trkpt>
      <trkpt lat="43.44104" lon="2.02371">
        <ele>350.6</ele>
        <time>2024-05-11T12:01:56Z</time>
      </trkpt>
      <trkpt lat="43.44104" lon="2.02371">
        <ele>350.6</ele>
        <time>2024-05-11T12:01:57Z</time>
      </trkpt>
      <trkpt lat="43.44104" lon="2.02372">
        <ele>350.6</ele>
        <time>2024-05-11T12:01:58Z</time>
      </trkpt>
      <trkpt lat="43.44104" lon="2.02372">
        <ele>350.6</ele>
        <time>2024-05-11T12:01:59Z</time>
      </trkpt>
      <trkpt lat="43.44104" lon="2.02372">
        <ele>350.6</ele>
        <time>2024-05-11T12:02:00Z</time>
      </trkpt>
      <trkpt lat="43.44104" lon="2.02373">
        <ele>350.7</ele>
        <time>2024-05-11T12:02:01Z</time>
      </trkpt>
      <trkpt lat="43.44104" lon="2.02373">
        <ele>350.7</ele>
        <time>2024-05-11T12:02:02Z</time>
      </trkpt>
      <trkpt lat="43.44104" lon="2.02373">
        <ele>350.7</ele>
        <time>2024-05-11T12:02:03Z</time>
      </trkpt>
      <trkpt lat="43.44104" lon="2.02374">
        <ele>350.7</ele>
        <time>2024-05-11T12:02:04Z</time>
      </trkpt>
      <trkpt lat="43.44104" lon="2.02374">
        <ele>350.7</ele>
        <time>2024-05-11T12:02:05Z</time>
      </trkpt>
      <trkpt lat="43.44103" lon="2.02374">
        <ele>350.8</ele>
        <time>2024-05-11T12:02:06Z</time>
      </trkpt>
      <trkpt lat="43.44103" lon="2.02374">
        <ele>350.8</ele>
        <time>2024-05-11T12:02:07Z</time>
      </trkpt>
      <trkpt lat="43.44103" lon="2.02375">
        <ele>350.9</ele>
        <time>2024-05-11T12:02:08Z</time>
      </trkpt>
      <trkpt lat="43.44103" lon="2.02375">
        <ele>350.9</ele>
        <time>2024-05-11T12:02:09Z</time>
      </trkpt>
      <trkpt lat="43.44103" lon="2.02375">
        <ele>350.9</ele>
        <time>2024-05-11T12:02:10Z</time>
      </trkpt>
      <trkpt lat="43.44103" lon="2.02375">
        <ele>350.9</ele>
        <time>2024-05-11T12:02:11Z</time>
      </trkpt>
      <trkpt lat="43.44103" lon="2.02375">
        <ele>350.9</ele>
        <time>2024-05-11T12:02:12Z</time>
      </trkpt>
      <trkpt lat="43.44103" lon="2.02375">
        <ele>350.9</ele>
        <time>2024-05-11T12:02:13Z</time>
      </trkpt>
      <trkpt lat="43.44103" lon="2.02375">
        <ele>350.9</ele>
        <time>2024-05-11T12:02:14Z</time>
      </trkpt>
      <trkpt lat="43.44103" lon="2.02375">
        <ele>350.9</ele>
        <time>2024-05-11T12:02:15Z</time>
      </trkpt>
      <trkpt lat="43.44103" lon="2.02375">
        <ele>350.9</ele>
        <time>2024-05-11T12:02:16Z</time>
      </trkpt>
      <trkpt lat="43.44103" lon="2.02375">
        <ele>350.9</ele>
        <time>2024-05-11T12:02:17Z</time>
      </trkpt>
      <trkpt lat="43.44103" lon="2.02375">
        <ele>350.9</ele>
        <time>2024-05-11T12:02:18Z</time>
      </trkpt>
      <trkpt lat="43.44103" lon="2.02375">
        <ele>350.9</ele>
        <time>2024-05-11T12:02:19Z</time>
      </trkpt>
      <trkpt lat="43.44103" lon="2.02375">
        <ele>350.9</ele>
        <time>2024-05-11T12:02:20Z</time>
      </trkpt>
      <trkpt lat="43.44103" lon="2.02375">
        <ele>350.9</ele>
        <time>2024-05-11T12:02:21Z</time>
      </trkpt>
      <trkpt lat="43.44103" lon="2.02375">
        <ele>350.9</ele>
        <time>2024-05-11T12:02:22Z</time>
      </trkpt>
      <trkpt lat="43.44103" lon="2.02375">
        <ele>350.9</ele>
        <time>2024-05-11T12:02:23Z</time>
      </trkpt>
      <trkpt lat="43.44103" lon="2.02375">
        <ele>350.9</ele>
        <time>2024-05-11T12:02:24Z</time>
      </trkpt>
      <trkpt lat="43.44103" lon="2.02375">
        <ele>350.9</ele>
        <time>2024-05-11T12:02:25Z</time>
      </trkpt>
      <trkpt lat="43.44103" lon="2.02375">
        <ele>350.9</ele>
        <time>2024-05-11T12:02:26Z</time>
      </trkpt>
      <trkpt lat="43.44103" lon="2.02375">
        <ele>350.9</ele>
        <time>2024-05-11T12:02:27Z</time>
      </trkpt>
      <trkpt lat="43.44103" lon="2.02375">
        <ele>350.9</ele>
        <time>2024-05-11T12:02:28Z</time>
      </trkpt>
      <trkpt lat="43.44103" lon="2.02375">
        <ele>350.9</ele>
        <time>2024-05-11T12:02:29Z</time>
      </trkpt>
      <trkpt lat="43.44103" lon="2.02375">
        <ele>350.9</ele>
        <time>2024-05-11T12:02:30Z</time>
      </trkpt>
      <trkpt lat="43.44103" lon="2.02375">
        <ele>350.9</ele>
        <time>2024-05-11T12:02:31Z</time>
      </trkpt>
      <trkpt lat="43.44103" lon="2.02375">
        <ele>350.9</ele>
        <time>2024-05-11T12:02:32Z</time>
      </trkpt>
      <trkpt lat="43.44103" lon="2.02375">
        <ele>350.9</ele>
        <time>2024-05-11T12:02:33Z</time>
      </trkpt>
      <trkpt lat="43.44103" lon="2.02375">
        <ele>350.9</ele>
        <time>2024-05-11T12:02:34Z</time>
      </trkpt>
      <trkpt lat="43.44103" lon="2.02375">
        <ele>350.9</ele>
        <time>2024-05-11T12:02:35Z</time>
      </trkpt>
      <trkpt lat="43.44101" lon="2.02376">
        <ele>351.1</ele>
        <time>2024-05-11T12:02:36Z</time>
      </trkpt>
      <trkpt lat="43.44098" lon="2.02374">
        <ele>351.4</ele>
        <time>2024-05-11T12:02:37Z</time>
      </trkpt>
      <trkpt lat="43.44094" lon="2.02371">
        <ele>351.7</ele>
        <time>2024-05-11T12:02:38Z</time>
      </trkpt>
      <trkpt lat="43.44088" lon="2.02365">
        <ele>352.4</ele>
        <time>2024-05-11T12:02:39Z</time>
      </trkpt>
      <trkpt lat="43.44082" lon="2.02359">
        <ele>353.2</ele>
        <time>2024-05-11T12:02:40Z</time>
      </trkpt>
      <trkpt lat="43.44076" lon="2.02353">
        <ele>353.9</ele>
        <time>2024-05-11T12:02:41Z</time>
      </trkpt>
      <trkpt lat="43.44069" lon="2.02346">
        <ele>354.9</ele>
        <time>2024-05-11T12:02:42Z</time>
      </trkpt>
      <trkpt lat="43.44062" lon="2.02336">
        <ele>356.1</ele>
        <time>2024-05-11T12:02:43Z</time>
      </trkpt>
      <trkpt lat="43.44053" lon="2.02326">
        <ele>357.4</ele>
        <time>2024-05-11T12:02:44Z</time>
      </trkpt>
      <trkpt lat="43.44046" lon="2.02316">
        <ele>358</ele>
        <time>2024-05-11T12:02:45Z</time>
      </trkpt>
      <trkpt lat="43.4404" lon="2.02307">
        <ele>358.5</ele>
        <time>2024-05-11T12:02:46Z</time>
      </trkpt>
      <trkpt lat="43.44033" lon="2.02297">
        <ele>359.2</ele>
        <time>2024-05-11T12:02:47Z</time>
      </trkpt>
      <trkpt lat="43.44026" lon="2.02286">
        <ele>359.6</ele>
        <time>2024-05-11T12:02:48Z</time>
      </trkpt>
      <trkpt lat="43.44019" lon="2.02274">
        <ele>359.9</ele>
        <time>2024-05-11T12:02:49Z</time>
      </trkpt>
      <trkpt lat="43.44011" lon="2.02263">
        <ele>360.2</ele>
        <time>2024-05-11T12:02:50Z</time>
      </trkpt>
      <trkpt lat="43.44003" lon="2.02251">
        <ele>360.9</ele>
        <time>2024-05-11T12:02:51Z</time>
      </trkpt>
      <trkpt lat="43.43996" lon="2.02238">
        <ele>361.2</ele>
        <time>2024-05-11T12:02:52Z</time>
      </trkpt>
      <trkpt lat="43.43989" lon="2.02224">
        <ele>361.5</ele>
        <time>2024-05-11T12:02:53Z</time>
      </trkpt>
      <trkpt lat="43.43982" lon="2.0221">
        <ele>361.8</ele>
        <time>2024-05-11T12:02:54Z</time>
      </trkpt>
      <trkpt lat="43.43977" lon="2.02197">
        <ele>362.1</ele>
        <time>2024-05-11T12:02:55Z</time>
      </trkpt>
      <trkpt lat="43.43972" lon="2.02185">
        <ele>362.3</ele>
        <time>2024-05-11T12:02:56Z</time>
      </trkpt>
      <trkpt lat="43.43966" lon="2.02174">
        <ele>362.2</ele>
        <time>2024-05-11T12:02:57Z</time>
      </trkpt>
      <trkpt lat="43.43962" lon="2.02165">
        <ele>362.3</ele>
        <time>2024-05-11T12:02:58Z</time>
      </trkpt>
      <trkpt lat="43.43958" lon="2.02156">
        <ele>362</ele>
        <time>2024-05-11T12:02:59Z</time>
      </trkpt>
      <trkpt lat="43.43954" lon="2.02148">
        <ele>361.7</ele>
        <time>2024-05-11T12:03:00Z</time>
      </trkpt>
      <trkpt lat="43.43949" lon="2.0214">
        <ele>361.3</ele>
        <time>2024-05-11T12:03:01Z</time>
      </trkpt>
      <trkpt lat="43.43944" lon="2.02132">
        <ele>360.9</ele>
        <time>2024-05-11T12:03:02Z</time>
      </trkpt>
      <trkpt lat="43.43938" lon="2.02123">
        <ele>360.2</ele>
        <time>2024-05-11T12:03:03Z</time>
      </trkpt>
      <trkpt lat="43.43932" lon="2.02115">
        <ele>359.6</ele>
        <time>2024-05-11T12:03:04Z</time>
      </trkpt>
      <trkpt lat="43.43926" lon="2.02106">
        <ele>359.1</ele>
        <time>2024-05-11T12:03:05Z</time>
      </trkpt>
      <trkpt lat="43.43921" lon="2.02097">
        <ele>358.5</ele>
        <time>2024-05-11T12:03:06Z</time>
      </trkpt>
      <trkpt lat="43.43916" lon="2.02087">
        <ele>357.9</ele>
        <time>2024-05-11T12:03:07Z</time>
      </trkpt>
      <trkpt lat="43.43911" lon="2.02076">
        <ele>357.2</ele>
        <time>2024-05-11T12:03:08Z</time>
      </trkpt>
      <trkpt lat="43.43906" lon="2.02064">
        <ele>356.5</ele>
        <time>2024-05-11T12:03:09Z</time>
      </trkpt>
      <trkpt lat="43.43902" lon="2.02051">
        <ele>355.9</ele>
        <time>2024-05-11T12:03:10Z</time>
      </trkpt>
      <trkpt lat="43.439" lon="2.02037">
        <ele>355.6</ele>
        <time>2024-05-11T12:03:11Z</time>
      </trkpt>
      <trkpt lat="43.43899" lon="2.02025">
        <ele>355.5</ele>
        <time>2024-05-11T12:03:12Z</time>
      </trkpt>
      <trkpt lat="43.43896" lon="2.02013">
        <ele>355.2</ele>
        <time>2024-05-11T12:03:13Z</time>
      </trkpt>
      <trkpt lat="43.43892" lon="2.02002">
        <ele>354.6</ele>
        <time>2024-05-11T12:03:14Z</time>
      </trkpt>
      <trkpt lat="43.43886" lon="2.0199">
        <ele>354.2</ele>
        <time>2024-05-11T12:03:15Z</time>
      </trkpt>
      <trkpt lat="43.43881" lon="2.01978">
        <ele>353.7</ele>
        <time>2024-05-11T12:03:16Z</time>
      </trkpt>
      <trkpt lat="43.43877" lon="2.01967">
        <ele>353.2</ele>
        <time>2024-05-11T12:03:17Z</time>
      </trkpt>
      <trkpt lat="43.43874" lon="2.01956">
        <ele>353.1</ele>
        <time>2024-05-11T12:03:18Z</time>
      </trkpt>
      <trkpt lat="43.43872" lon="2.01947">
        <ele>353.3</ele>
        <time>2024-05-11T12:03:19Z</time>
      </trkpt>
      <trkpt lat="43.4387" lon="2.01941">
        <ele>353.4</ele>
        <time>2024-05-11T12:03:20Z</time>
      </trkpt>
      <trkpt lat="43.43869" lon="2.01938">
        <ele>353.5</ele>
        <time>2024-05-11T12:03:21Z</time>
      </trkpt>
      <trkpt lat="43.43868" lon="2.01934">
        <ele>353.8</ele>
        <time>2024-05-11T12:03:22Z</time>
      </trkpt>
      <trkpt lat="43.43867" lon="2.01932">
        <ele>353.9</ele>
        <time>2024-05-11T12:03:23Z</time>
      </trkpt>
      <trkpt lat="43.43867" lon="2.0193">
        <ele>354.2</ele>
        <time>2024-05-11T12:03:24Z</time>
      </trkpt>
      <trkpt lat="43.43866" lon="2.01928">
        <ele>354.2</ele>
        <time>2024-05-11T12:03:25Z</time>
      </trkpt>
      <trkpt lat="43.43866" lon="2.01928">
        <ele>354.2</ele>
        <time>2024-05-11T12:03:26Z</time>
      </trkpt>
      <trkpt lat="43.43866" lon="2.01928">
        <ele>354.2</ele>
        <time>2024-05-11T12:03:27Z</time>
      </trkpt>
      <trkpt lat="43.43866" lon="2.01929">
        <ele>354.1</ele>
        <time>2024-05-11T12:03:28Z</time>
      </trkpt>
      <trkpt lat="43.43866" lon="2.01929">
        <ele>354.1</ele>
        <time>2024-05-11T12:03:29Z</time>
      </trkpt>
      <trkpt lat="43.43866" lon="2.01929">
        <ele>354.1</ele>
        <time>2024-05-11T12:03:30Z</time>
      </trkpt>
      <trkpt lat="43.43866" lon="2.01929">
        <ele>354.1</ele>
        <time>2024-05-11T12:03:31Z</time>
      </trkpt>
      <trkpt lat="43.43866" lon="2.01929">
        <ele>354.1</ele>
        <time>2024-05-11T12:03:32Z</time>
      </trkpt>
      <trkpt lat="43.43866" lon="2.01929">
        <ele>354.1</ele>
        <time>2024-05-11T12:03:33Z</time>
      </trkpt>
      <trkpt lat="43.43866" lon="2.01929">
        <ele>354.1</ele>
        <time>2024-05-11T12:03:34Z</time>
      </trkpt>
      <trkpt lat="43.43866" lon="2.01929">
        <ele>354.1</ele>
        <time>2024-05-11T12:03:35Z</time>
      </trkpt>
      <trkpt lat="43.43865" lon="2.01928">
        <ele>354</ele>
        <time>2024-05-11T12:03:36Z</time>
      </trkpt>
      <trkpt lat="43.43864" lon="2.01927">
        <ele>353.9</ele>
        <time>2024-05-11T12:03:37Z</time>
      </trkpt>
      <trkpt lat="43.43864" lon="2.01924">
        <ele>354.4</ele>
        <time>2024-05-11T12:03:38Z</time>
      </trkpt>
      <trkpt lat="43.43863" lon="2.01922">
        <ele>354.5</ele>
        <time>2024-05-11T12:03:39Z</time>
      </trkpt>
      <trkpt lat="43.43862" lon="2.0192">
        <ele>354.6</ele>
        <time>2024-05-11T12:03:40Z</time>
      </trkpt>
      <trkpt lat="43.43861" lon="2.01917">
        <ele>354.9</ele>
        <time>2024-05-11T12:03:41Z</time>
      </trkpt>
      <trkpt lat="43.43861" lon="2.01916">
        <ele>355</ele>
        <time>2024-05-11T12:03:42Z</time>
      </trkpt>
      <trkpt lat="43.43861" lon="2.01916">
        <ele>355</ele>
        <time>2024-05-11T12:03:43Z</time>
      </trkpt>
      <trkpt lat="43.43861" lon="2.01916">
        <ele>355</ele>
        <time>2024-05-11T12:03:44Z</time>
      </trkpt>
      <trkpt lat="43.43861" lon="2.01916">
        <ele>355</ele>
        <time>2024-05-11T12:03:45Z</time>
      </trkpt>
      <trkpt lat="43.43861" lon="2.01916">
        <ele>355</ele>
        <time>2024-05-11T12:03:46Z</time>
      </trkpt>
      <trkpt lat="43.43861" lon="2.01916">
        <ele>355</ele>
        <time>2024-05-11T12:03:47Z</time>
      </trkpt>
      <trkpt lat="43.43861" lon="2.01916">
        <ele>355</ele>
        <time>2024-05-11T12:03:48Z</time>
      </trkpt>
      <trkpt lat="43.4386" lon="2.01915">
        <ele>354.9</ele>
        <time>2024-05-11T12:03:49Z</time>
      </trkpt>
      <trkpt lat="43.4386" lon="2.01915">
        <ele>354.9</ele>
        <time>2024-05-11T12:03:50Z</time>
      </trkpt>
      <trkpt lat="43.4386" lon="2.01915">
        <ele>354.9</ele>
        <time>2024-05-11T12:03:51Z</time>
      </trkpt>
      <trkpt lat="43.4386" lon="2.01915">
        <ele>354.9</ele>
        <time>2024-05-11T12:03:52Z</time>
      </trkpt>
      <trkpt lat="43.4386" lon="2.01915">
        <ele>354.9</ele>
        <time>2024-05-11T12:03:53Z</time>
      </trkpt>
      <trkpt lat="43.4386" lon="2.01915">
        <ele>354.9</ele>
        <time>2024-05-11T12:03:54Z</time>
      </trkpt>
      <trkpt lat="43.4386" lon="2.01915">
        <ele>354.9</ele>
        <time>2024-05-11T12:03:55Z</time>
      </trkpt>
      <trkpt lat="43.4386" lon="2.01915">
        <ele>354.9</ele>
        <time>2024-05-11T12:03:56Z</time>
      </trkpt>
      <trkpt lat="43.4386" lon="2.01915">
        <ele>354.9</ele>
        <time>2024-05-11T12:03:57Z</time>
      </trkpt>
      <trkpt lat="43.4386" lon="2.01915">
        <ele>354.9</ele>
        <time>2024-05-11T12:03:58Z</time>
      </trkpt>
      <trkpt lat="43.4386" lon="2.01915">
        <ele>354.9</ele>
        <time>2024-05-11T12:03:59Z</time>
      </trkpt>
      <trkpt lat="43.4386" lon="2.01915">
        <ele>354.9</ele>
        <time>2024-05-11T12:04:00Z</time>
      </trkpt>
      <trkpt lat="43.4386" lon="2.01915">
        <ele>354.9</ele>
        <time>2024-05-11T12:04:01Z</time>
      </trkpt>
      <trkpt lat="43.4386" lon="2.01915">
        <ele>354.9</ele>
        <time>2024-05-11T12:04:02Z</time>
      </trkpt>
      <trkpt lat="43.4386" lon="2.01915">
        <ele>354.9</ele>
        <time>2024-05-11T12:04:03Z</time>
      </trkpt>
      <trkpt lat="43.4386" lon="2.01915">
        <ele>354.9</ele>
        <time>2024-05-11T12:04:04Z</time>
      </trkpt>
      <trkpt lat="43.4386" lon="2.01915">
        <ele>354.9</ele>
        <time>2024-05-11T12:04:05Z</time>
      </trkpt>
      <trkpt lat="43.4386" lon="2.01915">
        <ele>354.9</ele>
        <time>2024-05-11T12:04:06Z</time>
      </trkpt>
      <trkpt lat="43.4386" lon="2.01914">
        <ele>355</ele>
        <time>2024-05-11T12:04:07Z</time>
      </trkpt>
      <trkpt lat="43.4386" lon="2.01914">
        <ele>355</ele>
        <time>2024-05-11T12:04:08Z</time>
      </trkpt>
      <trkpt lat="43.43859" lon="2.01912">
        <ele>354.9</ele>
        <time>2024-05-11T12:04:09Z</time>
      </trkpt>
      <trkpt lat="43.43857" lon="2.0191">
        <ele>354.6</ele>
        <time>2024-05-11T12:04:10Z</time>
      </trkpt>
      <trkpt lat="43.43856" lon="2.01906">
        <ele>354.7</ele>
        <time>2024-05-11T12:04:11Z</time>
      </trkpt>
      <trkpt lat="43.43854" lon="2.01903">
        <ele>354.4</ele>
        <time>2024-05-11T12:04:12Z</time>
      </trkpt>
      <trkpt lat="43.43852" lon="2.01899">
        <ele>354.3</ele>
        <time>2024-05-11T12:04:13Z</time>
      </trkpt>
      <trkpt lat="43.43851" lon="2.01896">
        <ele>354.3</ele>
        <time>2024-05-11T12:04:14Z</time>
      </trkpt>
      <trkpt lat="43.43849" lon="2.01893">
        <ele>354.1</ele>
        <time>2024-05-11T12:04:15Z</time>
      </trkpt>
      <trkpt lat="43.43848" lon="2.0189">
        <ele>354.1</ele>
        <time>2024-05-11T12:04:16Z</time>
      </trkpt>
      <trkpt lat="43.43846" lon="2.01888">
        <ele>353.8</ele>
        <time>2024-05-11T12:04:17Z</time>
      </trkpt>
      <trkpt lat="43.43845" lon="2.01885">
        <ele>353.7</ele>
        <time>2024-05-11T12:04:18Z</time>
      </trkpt>
      <trkpt lat="43.43844" lon="2.01882">
        <ele>353.6</ele>
        <time>2024-05-11T12:04:19Z</time>
      </trkpt>
      <trkpt lat="43.43842" lon="2.01878">
        <ele>353.3</ele>
        <time>2024-05-11T12:04:20Z</time>
      </trkpt>
      <trkpt lat="43.4384" lon="2.01875">
        <ele>352.9</ele>
        <time>2024-05-11T12:04:21Z</time>
      </trkpt>
      <trkpt lat="43.43838" lon="2.0187">
        <ele>352.7</ele>
        <time>2024-05-11T12:04:22Z</time>
      </trkpt>
      <trkpt lat="43.43836" lon="2.01864">
        <ele>352.5</ele>
        <time>2024-05-11T12:04:23Z</time>
      </trkpt>
      <trkpt lat="43.43833" lon="2.01857">
        <ele>351.8</ele>
        <time>2024-05-11T12:04:24Z</time>
      </trkpt>
      <trkpt lat="43.43829" lon="2.0185">
        <ele>350.3</ele>
        <time>2024-05-11T12:04:25Z</time>
      </trkpt>
      <trkpt lat="43.43826" lon="2.01843">
        <ele>349.1</ele>
        <time>2024-05-11T12:04:26Z</time>
      </trkpt>
      <trkpt lat="43.43822" lon="2.01837">
        <ele>347.5</ele>
        <time>2024-05-11T12:04:27Z</time>
      </trkpt>
      <trkpt lat="43.43817" lon="2.01832">
        <ele>345.6</ele>
        <time>2024-05-11T12:04:28Z</time>
      </trkpt>
      <trkpt lat="43.43811" lon="2.0183">
        <ele>343.6</ele>
        <time>2024-05-11T12:04:29Z</time>
      </trkpt>
      <trkpt lat="43.43806" lon="2.01831">
        <ele>342.1</ele>
        <time>2024-05-11T12:04:30Z</time>
      </trkpt>
      <trkpt lat="43.43801" lon="2.01833">
        <ele>341.2</ele>
        <time>2024-05-11T12:04:31Z</time>
      </trkpt>
      <trkpt lat="43.43796" lon="2.01836">
        <ele>340.5</ele>
        <time>2024-05-11T12:04:32Z</time>
      </trkpt>
      <trkpt lat="43.4379" lon="2.01841">
        <ele>339.9</ele>
        <time>2024-05-11T12:04:33Z</time>
      </trkpt>
      <trkpt lat="43.43785" lon="2.01846">
        <ele>339.5</ele>
        <time>2024-05-11T12:04:34Z</time>
      </trkpt>
      <trkpt lat="43.43781" lon="2.01854">
        <ele>339.7</ele>
        <time>2024-05-11T12:04:35Z</time>
      </trkpt>
      <trkpt lat="43.43776" lon="2.01862">
        <ele>339.9</ele>
        <time>2024-05-11T12:04:36Z</time>
      </trkpt>
      <trkpt lat="43.43772" lon="2.01871">
        <ele>340.1</ele>
        <time>2024-05-11T12:04:37Z</time>
      </trkpt>
      <trkpt lat="43.43767" lon="2.01878">
        <ele>340.1</ele>
        <time>2024-05-11T12:04:38Z</time>
      </trkpt>
      <trkpt lat="43.43762" lon="2.01885">
        <ele>340</ele>
        <time>2024-05-11T12:04:39Z</time>
      </trkpt>
      <trkpt lat="43.43755" lon="2.01891">
        <ele>339.6</ele>
        <time>2024-05-11T12:04:40Z</time>
      </trkpt>
      <trkpt lat="43.43748" lon="2.01896">
        <ele>338.5</ele>
        <time>2024-05-11T12:04:41Z</time>
      </trkpt>
      <trkpt lat="43.43742" lon="2.01901">
        <ele>337.2</ele>
        <time>2024-05-11T12:04:42Z</time>
      </trkpt>
      <trkpt lat="43.43735" lon="2.01907">
        <ele>335.9</ele>
        <time>2024-05-11T12:04:43Z</time>
      </trkpt>
      <trkpt lat="43.43728" lon="2.01912">
        <ele>334.8</ele>
        <time>2024-05-11T12:04:44Z</time>
      </trkpt>
      <trkpt lat="43.43722" lon="2.01917">
        <ele>334</ele>
        <time>2024-05-11T12:04:45Z</time>
      </trkpt>
      <trkpt lat="43.43717" lon="2.01922">
        <ele>333.9</ele>
        <time>2024-05-11T12:04:46Z</time>
      </trkpt>
      <trkpt lat="43.43711" lon="2.01926">
        <ele>333.6</ele>
        <time>2024-05-11T12:04:47Z</time>
      </trkpt>
      <trkpt lat="43.43707" lon="2.01929">
        <ele>333.5</ele>
        <time>2024-05-11T12:04:48Z</time>
      </trkpt>
      <trkpt lat="43.43703" lon="2.01932">
        <ele>333.5</ele>
        <time>2024-05-11T12:04:49Z</time>
      </trkpt>
      <trkpt lat="43.43698" lon="2.01935">
        <ele>333.4</ele>
        <time>2024-05-11T12:04:50Z</time>
      </trkpt>
      <trkpt lat="43.43694" lon="2.01938">
        <ele>333.6</ele>
        <time>2024-05-11T12:04:51Z</time>
      </trkpt>
      <trkpt lat="43.43689" lon="2.01942">
        <ele>334.5</ele>
        <time>2024-05-11T12:04:52Z</time>
      </trkpt>
      <trkpt lat="43.43683" lon="2.01946">
        <ele>335.3</ele>
        <time>2024-05-11T12:04:53Z</time>
      </trkpt>
      <trkpt lat="43.43678" lon="2.0195">
        <ele>336</ele>
        <time>2024-05-11T12:04:54Z</time>
      </trkpt>
      <trkpt lat="43.43671" lon="2.01952">
        <ele>336.4</ele>
        <time>2024-05-11T12:04:55Z</time>
      </trkpt>
      <trkpt lat="43.43663" lon="2.01954">
        <ele>336.8</ele>
        <time>2024-05-11T12:04:56Z</time>
      </trkpt>
      <trkpt lat="43.43656" lon="2.01953">
        <ele>336.8</ele>
        <time>2024-05-11T12:04:57Z</time>
      </trkpt>
      <trkpt lat="43.4365" lon="2.0195">
        <ele>336.5</ele>
        <time>2024-05-11T12:04:58Z</time>
      </trkpt>
      <trkpt lat="43.43645" lon="2.01947">
        <ele>336.2</ele>
        <time>2024-05-11T12:04:59Z</time>
      </trkpt>
      <trkpt lat="43.43641" lon="2.01945">
        <ele>336</ele>
        <time>2024-05-11T12:05:00Z</time>
      </trkpt>
      <trkpt lat="43.43637" lon="2.01943">
        <ele>335.8</ele>
        <time>2024-05-11T12:05:01Z</time>
      </trkpt>
      <trkpt lat="43.43633" lon="2.01941">
        <ele>335.5</ele>
        <time>2024-05-11T12:05:02Z</time>
      </trkpt>
      <trkpt lat="43.43628" lon="2.01937">
        <ele>335</ele>
        <time>2024-05-11T12:05:03Z</time>
      </trkpt>
      <trkpt lat="43.43621" lon="2.01934">
        <ele>334.8</ele>
        <time>2024-05-11T12:05:04Z</time>
      </trkpt>
      <trkpt lat="43.43613" lon="2.01929">
        <ele>334.8</ele>
        <time>2024-05-11T12:05:05Z</time>
      </trkpt>
      <trkpt lat="43.43604" lon="2.01924">
        <ele>334.7</ele>
        <time>2024-05-11T12:05:06Z</time>
      </trkpt>
      <trkpt lat="43.43594" lon="2.01919">
        <ele>334.7</ele>
        <time>2024-05-11T12:05:07Z</time>
      </trkpt>
      <trkpt lat="43.43584" lon="2.01913">
        <ele>334.8</ele>
        <time>2024-05-11T12:05:08Z</time>
      </trkpt>
      <trkpt lat="43.43573" lon="2.01908">
        <ele>334.7</ele>
        <time>2024-05-11T12:05:09Z</time>
      </trkpt>
      <trkpt lat="43.43562" lon="2.01902">
        <ele>334.5</ele>
        <time>2024-05-11T12:05:10Z</time>
      </trkpt>
      <trkpt lat="43.43551" lon="2.01896">
        <ele>333.8</ele>
        <time>2024-05-11T12:05:11Z</time>
      </trkpt>
      <trkpt lat="43.43539" lon="2.01889">
        <ele>332.2</ele>
        <time>2024-05-11T12:05:12Z</time>
      </trkpt>
      <trkpt lat="43.43527" lon="2.01884">
        <ele>330.5</ele>
        <time>2024-05-11T12:05:13Z</time>
      </trkpt>
      <trkpt lat="43.43515" lon="2.01878">
        <ele>328.4</ele>
        <time>2024-05-11T12:05:14Z</time>
      </trkpt>
      <trkpt lat="43.43503" lon="2.01871">
        <ele>326.1</ele>
        <time>2024-05-11T12:05:15Z</time>
      </trkpt>
      <trkpt lat="43.43489" lon="2.01864">
        <ele>324.4</ele>
        <time>2024-05-11T12:05:16Z</time>
      </trkpt>
      <trkpt lat="43.43475" lon="2.01857">
        <ele>323.2</ele>
        <time>2024-05-11T12:05:17Z</time>
      </trkpt>
      <trkpt lat="43.43462" lon="2.0185">
        <ele>322.8</ele>
        <time>2024-05-11T12:05:18Z</time>
      </trkpt>
      <trkpt lat="43.43449" lon="2.01843">
        <ele>322.7</ele>
        <time>2024-05-11T12:05:19Z</time>
      </trkpt>
      <trkpt lat="43.43436" lon="2.01836">
        <ele>323.2</ele>
        <time>2024-05-11T12:05:20Z</time>
      </trkpt>
      <trkpt lat="43.43423" lon="2.01829">
        <ele>323.9</ele>
        <time>2024-05-11T12:05:21Z</time>
      </trkpt>
      <trkpt lat="43.43411" lon="2.01822">
        <ele>324.6</ele>
        <time>2024-05-11T12:05:22Z</time>
      </trkpt>
      <trkpt lat="43.434" lon="2.01816">
        <ele>325.2</ele>
        <time>2024-05-11T12:05:23Z</time>
      </trkpt>
      <trkpt lat="43.43388" lon="2.0181">
        <ele>325.9</ele>
        <time>2024-05-11T12:05:24Z</time>
      </trkpt>
      <trkpt lat="43.43378" lon="2.01805">
        <ele>326.4</ele>
        <time>2024-05-11T12:05:25Z</time>
      </trkpt>
      <trkpt lat="43.43367" lon="2.01799">
        <ele>327</ele>
        <time>2024-05-11T12:05:26Z</time>
      </trkpt>
      <trkpt lat="43.43357" lon="2.01793">
        <ele>327.7</ele>
        <time>2024-05-11T12:05:27Z</time>
      </trkpt>
      <trkpt lat="43.43347" lon="2.01788">
        <ele>328.3</ele>
        <time>2024-05-11T12:05:28Z</time>
      </trkpt>
      <trkpt lat="43.43337" lon="2.01783">
        <ele>328.8</ele>
        <time>2024-05-11T12:05:29Z</time>
      </trkpt>
      <trkpt lat="43.43326" lon="2.01777">
        <ele>329.5</ele>
        <time>2024-05-11T12:05:30Z</time>
      </trkpt>
      <trkpt lat="43.43315" lon="2.01771">
        <ele>330.2</ele>
        <time>2024-05-11T12:05:31Z</time>
      </trkpt>
      <trkpt lat="43.43303" lon="2.01764">
        <ele>330.7</ele>
        <time>2024-05-11T12:05:32Z</time>
      </trkpt>
      <trkpt lat="43.43291" lon="2.01758">
        <ele>331.3</ele>
        <time>2024-05-11T12:05:33Z</time>
      </trkpt>
      <trkpt lat="43.43279" lon="2.01751">
        <ele>331.9</ele>
        <time>2024-05-11T12:05:34Z</time>
      </trkpt>
      <trkpt lat="43.43266" lon="2.01745">
        <ele>332.8</ele>
        <time>2024-05-11T12:05:35Z</time>
      </trkpt>
      <trkpt lat="43.43252" lon="2.01737">
        <ele>333.9</ele>
        <time>2024-05-11T12:05:36Z</time>
      </trkpt>
      <trkpt lat="43.43239" lon="2.01729">
        <ele>334.4</ele>
        <time>2024-05-11T12:05:37Z</time>
      </trkpt>
      <trkpt lat="43.43225" lon="2.01723">
        <ele>334.9</ele>
        <time>2024-05-11T12:05:38Z</time>
      </trkpt>
      <trkpt lat="43.43211" lon="2.01716">
        <ele>334.9</ele>
        <time>2024-05-11T12:05:39Z</time>
      </trkpt>
      <trkpt lat="43.43199" lon="2.0171">
        <ele>334.9</ele>
        <time>2024-05-11T12:05:40Z</time>
      </trkpt>
      <trkpt lat="43.43187" lon="2.01702">
        <ele>335</ele>
        <time>2024-05-11T12:05:41Z</time>
      </trkpt>
      <trkpt lat="43.43176" lon="2.01693">
        <ele>334.9</ele>
        <time>2024-05-11T12:05:42Z</time>
      </trkpt>
      <trkpt lat="43.43164" lon="2.01683">
        <ele>334</ele>
        <time>2024-05-11T12:05:43Z</time>
      </trkpt>
      <trkpt lat="43.43152" lon="2.01671">
        <ele>332.7</ele>
        <time>2024-05-11T12:05:44Z</time>
      </trkpt>
      <trkpt lat="43.43139" lon="2.01657">
        <ele>331.7</ele>
        <time>2024-05-11T12:05:45Z</time>
      </trkpt>
      <trkpt lat="43.43125" lon="2.01644">
        <ele>330.7</ele>
        <time>2024-05-11T12:05:46Z</time>
      </trkpt>
      <trkpt lat="43.43112" lon="2.0163">
        <ele>329.7</ele>
        <time>2024-05-11T12:05:47Z</time>
      </trkpt>
      <trkpt lat="43.43099" lon="2.01616">
        <ele>329.2</ele>
        <time>2024-05-11T12:05:48Z</time>
      </trkpt>
      <trkpt lat="43.43085" lon="2.01603">
        <ele>328.7</ele>
        <time>2024-05-11T12:05:49Z</time>
      </trkpt>
      <trkpt lat="43.43071" lon="2.0159">
        <ele>328.6</ele>
        <time>2024-05-11T12:05:50Z</time>
      </trkpt>
      <trkpt lat="43.43058" lon="2.01576">
        <ele>328.7</ele>
        <time>2024-05-11T12:05:51Z</time>
      </trkpt>
      <trkpt lat="43.43045" lon="2.01562">
        <ele>328.2</ele>
        <time>2024-05-11T12:05:52Z</time>
      </trkpt>
      <trkpt lat="43.43031" lon="2.01549">
        <ele>328</ele>
        <time>2024-05-11T12:05:53Z</time>
      </trkpt>
      <trkpt lat="43.43018" lon="2.01534">
        <ele>328.4</ele>
        <time>2024-05-11T12:05:54Z</time>
      </trkpt>
      <trkpt lat="43.43004" lon="2.0152">
        <ele>328.5</ele>
        <time>2024-05-11T12:05:55Z</time>
      </trkpt>
      <trkpt lat="43.4299" lon="2.01506">
        <ele>329</ele>
        <time>2024-05-11T12:05:56Z</time>
      </trkpt>
      <trkpt lat="43.42975" lon="2.01491">
        <ele>329.5</ele>
        <time>2024-05-11T12:05:57Z</time>
      </trkpt>
      <trkpt lat="43.4296" lon="2.01476">
        <ele>329.7</ele>
        <time>2024-05-11T12:05:58Z</time>
      </trkpt>
      <trkpt lat="43.42946" lon="2.01461">
        <ele>329.5</ele>
        <time>2024-05-11T12:05:59Z</time>
      </trkpt>
      <trkpt lat="43.42931" lon="2.01447">
        <ele>329.1</ele>
        <time>2024-05-11T12:06:00Z</time>
      </trkpt>
      <trkpt lat="43.42915" lon="2.01436">
        <ele>329</ele>
        <time>2024-05-11T12:06:01Z</time>
      </trkpt>
      <trkpt lat="43.429" lon="2.01428">
        <ele>329.2</ele>
        <time>2024-05-11T12:06:02Z</time>
      </trkpt>
      <trkpt lat="43.42884" lon="2.01424">
        <ele>329.3</ele>
        <time>2024-05-11T12:06:03Z</time>
      </trkpt>
      <trkpt lat="43.42868" lon="2.01422">
        <ele>329.2</ele>
        <time>2024-05-11T12:06:04Z</time>
      </trkpt>
      <trkpt lat="43.42852" lon="2.01423">
        <ele>329.5</ele>
        <time>2024-05-11T12:06:05Z</time>
      </trkpt>
      <trkpt lat="43.42836" lon="2.01427">
        <ele>329.9</ele>
        <time>2024-05-11T12:06:06Z</time>
      </trkpt>
      <trkpt lat="43.4282" lon="2.01434">
        <ele>330.3</ele>
        <time>2024-05-11T12:06:07Z</time>
      </trkpt>
      <trkpt lat="43.42806" lon="2.01444">
        <ele>331</ele>
        <time>2024-05-11T12:06:08Z</time>
      </trkpt>
      <trkpt lat="43.42792" lon="2.01456">
        <ele>330.9</ele>
        <time>2024-05-11T12:06:09Z</time>
      </trkpt>
      <trkpt lat="43.4278" lon="2.01471">
        <ele>331.8</ele>
        <time>2024-05-11T12:06:10Z</time>
      </trkpt>
      <trkpt lat="43.42769" lon="2.01488">
        <ele>331.6</ele>
        <time>2024-05-11T12:06:11Z</time>
      </trkpt>
      <trkpt lat="43.4276" lon="2.01507">
        <ele>332.3</ele>
        <time>2024-05-11T12:06:12Z</time>
      </trkpt>
      <trkpt lat="43.42753" lon="2.01528">
        <ele>333.1</ele>
        <time>2024-05-11T12:06:13Z</time>
      </trkpt>
      <trkpt lat="43.42745" lon="2.01549">
        <ele>333.7</ele>
        <time>2024-05-11T12:06:14Z</time>
      </trkpt>
      <trkpt lat="43.42738" lon="2.0157">
        <ele>334.8</ele>
        <time>2024-05-11T12:06:15Z</time>
      </trkpt>
      <trkpt lat="43.4273" lon="2.0159">
        <ele>335.5</ele>
        <time>2024-05-11T12:06:16Z</time>
      </trkpt>
      <trkpt lat="43.42724" lon="2.01609">
        <ele>336</ele>
        <time>2024-05-11T12:06:17Z</time>
      </trkpt>
      <trkpt lat="43.42717" lon="2.01628">
        <ele>336.7</ele>
        <time>2024-05-11T12:06:18Z</time>
      </trkpt>
      <trkpt lat="43.42711" lon="2.01645">
        <ele>337</ele>
        <time>2024-05-11T12:06:19Z</time>
      </trkpt>
      <trkpt lat="43.42705" lon="2.01662">
        <ele>337.2</ele>
        <time>2024-05-11T12:06:20Z</time>
      </trkpt>
      <trkpt lat="43.42698" lon="2.01679">
        <ele>338.1</ele>
        <time>2024-05-11T12:06:21Z</time>
      </trkpt>
      <trkpt lat="43.42691" lon="2.01695">
        <ele>338.7</ele>
        <time>2024-05-11T12:06:22Z</time>
      </trkpt>
      <trkpt lat="43.42682" lon="2.0171">
        <ele>339.3</ele>
        <time>2024-05-11T12:06:23Z</time>
      </trkpt>
      <trkpt lat="43.42672" lon="2.01723">
        <ele>340.3</ele>
        <time>2024-05-11T12:06:24Z</time>
      </trkpt>
      <trkpt lat="43.42662" lon="2.01736">
        <ele>341</ele>
        <time>2024-05-11T12:06:25Z</time>
      </trkpt>
      <trkpt lat="43.42651" lon="2.01747">
        <ele>341</ele>
        <time>2024-05-11T12:06:26Z</time>
      </trkpt>
      <trkpt lat="43.42641" lon="2.01758">
        <ele>341.1</ele>
        <time>2024-05-11T12:06:27Z</time>
      </trkpt>
      <trkpt lat="43.42631" lon="2.01768">
        <ele>341.2</ele>
        <time>2024-05-11T12:06:28Z</time>
      </trkpt>
      <trkpt lat="43.42621" lon="2.01776">
        <ele>340.9</ele>
        <time>2024-05-11T12:06:29Z</time>
      </trkpt>
      <trkpt lat="43.42611" lon="2.01781">
        <ele>340.2</ele>
        <time>2024-05-11T12:06:30Z</time>
      </trkpt>
      <trkpt lat="43.42601" lon="2.01781">
        <ele>340.2</ele>
        <time>2024-05-11T12:06:31Z</time>
      </trkpt>
      <trkpt lat="43.4259" lon="2.01778">
        <ele>340</ele>
        <time>2024-05-11T12:06:32Z</time>
      </trkpt>
      <trkpt lat="43.42581" lon="2.0177">
        <ele>340</ele>
        <time>2024-05-11T12:06:33Z</time>
      </trkpt>
      <trkpt lat="43.42575" lon="2.01756">
        <ele>340.5</ele>
        <time>2024-05-11T12:06:34Z</time>
      </trkpt>
      <trkpt lat="43.42573" lon="2.01738">
        <ele>341.5</ele>
        <time>2024-05-11T12:06:35Z</time>
      </trkpt>
      <trkpt lat="43.42576" lon="2.01718">
        <ele>341.8</ele>
        <time>2024-05-11T12:06:36Z</time>
      </trkpt>
      <trkpt lat="43.42576" lon="2.01699">
        <ele>342.6</ele>
        <time>2024-05-11T12:06:37Z</time>
      </trkpt>
      <trkpt lat="43.42575" lon="2.0168">
        <ele>343.5</ele>
        <time>2024-05-11T12:06:38Z</time>
      </trkpt>
      <trkpt lat="43.42571" lon="2.01663">
        <ele>344.7</ele>
        <time>2024-05-11T12:06:39Z</time>
      </trkpt>
      <trkpt lat="43.42564" lon="2.01647">
        <ele>345.9</ele>
        <time>2024-05-11T12:06:40Z</time>
      </trkpt>
      <trkpt lat="43.42556" lon="2.01632">
        <ele>346.9</ele>
        <time>2024-05-11T12:06:41Z</time>
      </trkpt>
      <trkpt lat="43.42545" lon="2.01621">
        <ele>348.3</ele>
        <time>2024-05-11T12:06:42Z</time>
      </trkpt>
      <trkpt lat="43.42533" lon="2.01613">
        <ele>349.5</ele>
        <time>2024-05-11T12:06:43Z</time>
      </trkpt>
      <trkpt lat="43.42518" lon="2.01609">
        <ele>351</ele>
        <time>2024-05-11T12:06:44Z</time>
      </trkpt>
      <trkpt lat="43.42502" lon="2.01606">
        <ele>352.6</ele>
        <time>2024-05-11T12:06:45Z</time>
      </trkpt>
      <trkpt lat="43.42486" lon="2.01602">
        <ele>354</ele>
        <time>2024-05-11T12:06:46Z</time>
      </trkpt>
      <trkpt lat="43.42469" lon="2.01598">
        <ele>355.3</ele>
        <time>2024-05-11T12:06:47Z</time>
      </trkpt>
      <trkpt lat="43.42452" lon="2.01593">
        <ele>356.2</ele>
        <time>2024-05-11T12:06:48Z</time>
      </trkpt>
      <trkpt lat="43.42435" lon="2.0159">
        <ele>357.5</ele>
        <time>2024-05-11T12:06:49Z</time>
      </trkpt>
      <trkpt lat="43.42418" lon="2.01586">
        <ele>359</ele>
        <time>2024-05-11T12:06:50Z</time>
      </trkpt>
      <trkpt lat="43.424" lon="2.01581">
        <ele>360.6</ele>
        <time>2024-05-11T12:06:51Z</time>
      </trkpt>
      <trkpt lat="43.42383" lon="2.01577">
        <ele>361.9</ele>
        <time>2024-05-11T12:06:52Z</time>
      </trkpt>
      <trkpt lat="43.42366" lon="2.01573">
        <ele>363</ele>
        <time>2024-05-11T12:06:53Z</time>
      </trkpt>
      <trkpt lat="43.4235" lon="2.01569">
        <ele>363.5</ele>
        <time>2024-05-11T12:06:54Z</time>
      </trkpt>
      <trkpt lat="43.42333" lon="2.01565">
        <ele>364.1</ele>
        <time>2024-05-11T12:06:55Z</time>
      </trkpt>
      <trkpt lat="43.42316" lon="2.0156">
        <ele>365.4</ele>
        <time>2024-05-11T12:06:56Z</time>
      </trkpt>
      <trkpt lat="43.42299" lon="2.01556">
        <ele>367</ele>
        <time>2024-05-11T12:06:57Z</time>
      </trkpt>
      <trkpt lat="43.42283" lon="2.01552">
        <ele>368.8</ele>
        <time>2024-05-11T12:06:58Z</time>
      </trkpt>
      <trkpt lat="43.42267" lon="2.01549">
        <ele>370.2</ele>
        <time>2024-05-11T12:06:59Z</time>
      </trkpt>
      <trkpt lat="43.42254" lon="2.01546">
        <ele>371.2</ele>
        <time>2024-05-11T12:07:00Z</time>
      </trkpt>
      <trkpt lat="43.42242" lon="2.01543">
        <ele>371.9</ele>
        <time>2024-05-11T12:07:01Z</time>
      </trkpt>
      <trkpt lat="43.4223" lon="2.01541">
        <ele>372.7</ele>
        <time>2024-05-11T12:07:02Z</time>
      </trkpt>
      <trkpt lat="43.42219" lon="2.01538">
        <ele>373.1</ele>
        <time>2024-05-11T12:07:03Z</time>
      </trkpt>
      <trkpt lat="43.42207" lon="2.01535">
        <ele>373.8</ele>
        <time>2024-05-11T12:07:04Z</time>
      </trkpt>
      <trkpt lat="43.42195" lon="2.01532">
        <ele>374.6</ele>
        <time>2024-05-11T12:07:05Z</time>
      </trkpt>
      <trkpt lat="43.42183" lon="2.01529">
        <ele>375</ele>
        <time>2024-05-11T12:07:06Z</time>
      </trkpt>
      <trkpt lat="43.42171" lon="2.01526">
        <ele>375.5</ele>
        <time>2024-05-11T12:07:07Z</time>
      </trkpt>
      <trkpt lat="43.42159" lon="2.01523">
        <ele>376.3</ele>
        <time>2024-05-11T12:07:08Z</time>
      </trkpt>
      <trkpt lat="43.42147" lon="2.01522">
        <ele>377.5</ele>
        <time>2024-05-11T12:07:09Z</time>
      </trkpt>
      <trkpt lat="43.42136" lon="2.0152">
        <ele>378.6</ele>
        <time>2024-05-11T12:07:10Z</time>
      </trkpt>
      <trkpt lat="43.42125" lon="2.01519">
        <ele>380.1</ele>
        <time>2024-05-11T12:07:11Z</time>
      </trkpt>
      <trkpt lat="43.42115" lon="2.01518">
        <ele>381.4</ele>
        <time>2024-05-11T12:07:12Z</time>
      </trkpt>
      <trkpt lat="43.42107" lon="2.01516">
        <ele>382.8</ele>
        <time>2024-05-11T12:07:13Z</time>
      </trkpt>
      <trkpt lat="43.42098" lon="2.01511">
        <ele>384.9</ele>
        <time>2024-05-11T12:07:14Z</time>
      </trkpt>
      <trkpt lat="43.42091" lon="2.01502">
        <ele>386.6</ele>
        <time>2024-05-11T12:07:15Z</time>
      </trkpt>
      <trkpt lat="43.42086" lon="2.0149">
        <ele>388.4</ele>
        <time>2024-05-11T12:07:16Z</time>
      </trkpt>
      <trkpt lat="43.42084" lon="2.01475">
        <ele>389.6</ele>
        <time>2024-05-11T12:07:17Z</time>
      </trkpt>
      <trkpt lat="43.42084" lon="2.0146">
        <ele>390.6</ele>
        <time>2024-05-11T12:07:18Z</time>
      </trkpt>
      <trkpt lat="43.42086" lon="2.01443">
        <ele>390.8</ele>
        <time>2024-05-11T12:07:19Z</time>
      </trkpt>
      <trkpt lat="43.42093" lon="2.0142">
        <ele>389.5</ele>
        <time>2024-05-11T12:07:20Z</time>
      </trkpt>
      <trkpt lat="43.42099" lon="2.01398">
        <ele>389.2</ele>
        <time>2024-05-11T12:07:21Z</time>
      </trkpt>
      <trkpt lat="43.42104" lon="2.01378">
        <ele>389</ele>
        <time>2024-05-11T12:07:22Z</time>
      </trkpt>
      <trkpt lat="43.42108" lon="2.0136">
        <ele>388.8</ele>
        <time>2024-05-11T12:07:23Z</time>
      </trkpt>
      <trkpt lat="43.42112" lon="2.01342">
        <ele>388</ele>
        <time>2024-05-11T12:07:24Z</time>
      </trkpt>
      <trkpt lat="43.42113" lon="2.01323">
        <ele>388.3</ele>
        <time>2024-05-11T12:07:25Z</time>
      </trkpt>
      <trkpt lat="43.42113" lon="2.01306">
        <ele>388.4</ele>
        <time>2024-05-11T12:07:26Z</time>
      </trkpt>
      <trkpt lat="43.42104" lon="2.01293">
        <ele>390.1</ele>
        <time>2024-05-11T12:07:27Z</time>
      </trkpt>
      <trkpt lat="43.42098" lon="2.01279">
        <ele>390</ele>
        <time>2024-05-11T12:07:28Z</time>
      </trkpt>
      <trkpt lat="43.42088" lon="2.01269">
        <ele>389.7</ele>
        <time>2024-05-11T12:07:29Z</time>
      </trkpt>
      <trkpt lat="43.42074" lon="2.01262">
        <ele>389.2</ele>
        <time>2024-05-11T12:07:30Z</time>
      </trkpt>
      <trkpt lat="43.42058" lon="2.01261">
        <ele>390.2</ele>
        <time>2024-05-11T12:07:31Z</time>
      </trkpt>
      <trkpt lat="43.42034" lon="2.01262">
        <ele>394.2</ele>
        <time>2024-05-11T12:07:32Z</time>
      </trkpt>
      <trkpt lat="43.42014" lon="2.01257">
        <ele>395.8</ele>
        <time>2024-05-11T12:07:33Z</time>
      </trkpt>
      <trkpt lat="43.41995" lon="2.01251">
        <ele>397</ele>
        <time>2024-05-11T12:07:34Z</time>
      </trkpt>
      <trkpt lat="43.41976" lon="2.01244">
        <ele>399.2</ele>
        <time>2024-05-11T12:07:35Z</time>
      </trkpt>
      <trkpt lat="43.41956" lon="2.01238">
        <ele>401.2</ele>
        <time>2024-05-11T12:07:36Z</time>
      </trkpt>
      <trkpt lat="43.41936" lon="2.01233">
        <ele>402.8</ele>
        <time>2024-05-11T12:07:37Z</time>
      </trkpt>
      <trkpt lat="43.41917" lon="2.01227">
        <ele>403.2</ele>
        <time>2024-05-11T12:07:38Z</time>
      </trkpt>
      <trkpt lat="43.41899" lon="2.01222">
        <ele>404.8</ele>
        <time>2024-05-11T12:07:39Z</time>
      </trkpt>
      <trkpt lat="43.41883" lon="2.01215">
        <ele>407.2</ele>
        <time>2024-05-11T12:07:40Z</time>
      </trkpt>
      <trkpt lat="43.41869" lon="2.01206">
        <ele>409.2</ele>
        <time>2024-05-11T12:07:41Z</time>
      </trkpt>
      <trkpt lat="43.41857" lon="2.01195">
        <ele>408.6</ele>
        <time>2024-05-11T12:07:42Z</time>
      </trkpt>
      <trkpt lat="43.41849" lon="2.01181">
        <ele>408.3</ele>
        <time>2024-05-11T12:07:43Z</time>
      </trkpt>
      <trkpt lat="43.41846" lon="2.01164">
        <ele>406.9</ele>
        <time>2024-05-11T12:07:44Z</time>
      </trkpt>
      <trkpt lat="43.41845" lon="2.01149">
        <ele>410.2</ele>
        <time>2024-05-11T12:07:45Z</time>
      </trkpt>
      <trkpt lat="43.41847" lon="2.01134">
        <ele>412.5</ele>
        <time>2024-05-11T12:07:46Z</time>
      </trkpt>
      <trkpt lat="43.41865" lon="2.01129">
        <ele>408.5</ele>
        <time>2024-05-11T12:07:47Z</time>
      </trkpt>
      <trkpt lat="43.41879" lon="2.01121">
        <ele>408.1</ele>
        <time>2024-05-11T12:07:48Z</time>
      </trkpt>
      <trkpt lat="43.41894" lon="2.0111">
        <ele>408.7</ele>
        <time>2024-05-11T12:07:49Z</time>
      </trkpt>
      <trkpt lat="43.41909" lon="2.01097">
        <ele>410.2</ele>
        <time>2024-05-11T12:07:50Z</time>
      </trkpt>
      <trkpt lat="43.41921" lon="2.01085">
        <ele>411.6</ele>
        <time>2024-05-11T12:07:51Z</time>
      </trkpt>
      <trkpt lat="43.41933" lon="2.01071">
        <ele>411.5</ele>
        <time>2024-05-11T12:07:52Z</time>
      </trkpt>
      <trkpt lat="43.41943" lon="2.01055">
        <ele>412.3</ele>
        <time>2024-05-11T12:07:53Z</time>
      </trkpt>
      <trkpt lat="43.41949" lon="2.01036">
        <ele>412.6</ele>
        <time>2024-05-11T12:07:54Z</time>
      </trkpt>
      <trkpt lat="43.41953" lon="2.01016">
        <ele>412.7</ele>
        <time>2024-05-11T12:07:55Z</time>
      </trkpt>
      <trkpt lat="43.41954" lon="2.00995">
        <ele>412.9</ele>
        <time>2024-05-11T12:07:56Z</time>
      </trkpt>
      <trkpt lat="43.41952" lon="2.00974">
        <ele>413.6</ele>
        <time>2024-05-11T12:07:57Z</time>
      </trkpt>
      <trkpt lat="43.41946" lon="2.00955">
        <ele>414.3</ele>
        <time>2024-05-11T12:07:58Z</time>
      </trkpt>
      <trkpt lat="43.41937" lon="2.00937">
        <ele>415.1</ele>
        <time>2024-05-11T12:07:59Z</time>
      </trkpt>
      <trkpt lat="43.41926" lon="2.00921">
        <ele>416.3</ele>
        <time>2024-05-11T12:08:00Z</time>
      </trkpt>
      <trkpt lat="43.41916" lon="2.00905">
        <ele>417.4</ele>
        <time>2024-05-11T12:08:01Z</time>
      </trkpt>
      <trkpt lat="43.41911" lon="2.00889">
        <ele>418.3</ele>
        <time>2024-05-11T12:08:02Z</time>
      </trkpt>
      <trkpt lat="43.4191" lon="2.00869">
        <ele>419.2</ele>
        <time>2024-05-11T12:08:03Z</time>
      </trkpt>
      <trkpt lat="43.41912" lon="2.00849">
        <ele>419.6</ele>
        <time>2024-05-11T12:08:04Z</time>
      </trkpt>
      <trkpt lat="43.41916" lon="2.00829">
        <ele>419.6</ele>
        <time>2024-05-11T12:08:05Z</time>
      </trkpt>
      <trkpt lat="43.41917" lon="2.0081">
        <ele>420.5</ele>
        <time>2024-05-11T12:08:06Z</time>
      </trkpt>
      <trkpt lat="43.41915" lon="2.00791">
        <ele>421.2</ele>
        <time>2024-05-11T12:08:07Z</time>
      </trkpt>
      <trkpt lat="43.4191" lon="2.00772">
        <ele>422</ele>
        <time>2024-05-11T12:08:08Z</time>
      </trkpt>
      <trkpt lat="43.41901" lon="2.00754">
        <ele>423.2</ele>
        <time>2024-05-11T12:08:09Z</time>
      </trkpt>
      <trkpt lat="43.41891" lon="2.00736">
        <ele>423.7</ele>
        <time>2024-05-11T12:08:10Z</time>
      </trkpt>
      <trkpt lat="43.41879" lon="2.00717">
        <ele>424.9</ele>
        <time>2024-05-11T12:08:11Z</time>
      </trkpt>
      <trkpt lat="43.41867" lon="2.00699">
        <ele>426.3</ele>
        <time>2024-05-11T12:08:12Z</time>
      </trkpt>
      <trkpt lat="43.41856" lon="2.00681">
        <ele>427.7</ele>
        <time>2024-05-11T12:08:13Z</time>
      </trkpt>
      <trkpt lat="43.41845" lon="2.00662">
        <ele>428.5</ele>
        <time>2024-05-11T12:08:14Z</time>
      </trkpt>
      <trkpt lat="43.41834" lon="2.00645">
        <ele>429.8</ele>
        <time>2024-05-11T12:08:15Z</time>
      </trkpt>
      <trkpt lat="43.41825" lon="2.00629">
        <ele>429.7</ele>
        <time>2024-05-11T12:08:16Z</time>
      </trkpt>
      <trkpt lat="43.41815" lon="2.00616">
        <ele>430.3</ele>
        <time>2024-05-11T12:08:17Z</time>
      </trkpt>
      <trkpt lat="43.41803" lon="2.00608">
        <ele>431.1</ele>
        <time>2024-05-11T12:08:18Z</time>
      </trkpt>
      <trkpt lat="43.41792" lon="2.00607">
        <ele>430.4</ele>
        <time>2024-05-11T12:08:19Z</time>
      </trkpt>
      <trkpt lat="43.41779" lon="2.00611">
        <ele>431</ele>
        <time>2024-05-11T12:08:20Z</time>
      </trkpt>
      <trkpt lat="43.41767" lon="2.00619">
        <ele>431.8</ele>
        <time>2024-05-11T12:08:21Z</time>
      </trkpt>
      <trkpt lat="43.41754" lon="2.00628">
        <ele>432.7</ele>
        <time>2024-05-11T12:08:22Z</time>
      </trkpt>
      <trkpt lat="43.41743" lon="2.00635">
        <ele>434.1</ele>
        <time>2024-05-11T12:08:23Z</time>
      </trkpt>
      <trkpt lat="43.41732" lon="2.00638">
        <ele>434.8</ele>
        <time>2024-05-11T12:08:24Z</time>
      </trkpt>
      <trkpt lat="43.41721" lon="2.00634">
        <ele>434.3</ele>
        <time>2024-05-11T12:08:25Z</time>
      </trkpt>
      <trkpt lat="43.41711" lon="2.00622">
        <ele>435.3</ele>
        <time>2024-05-11T12:08:26Z</time>
      </trkpt>
      <trkpt lat="43.41704" lon="2.00605">
        <ele>435.4</ele>
        <time>2024-05-11T12:08:27Z</time>
      </trkpt>
      <trkpt lat="43.41697" lon="2.00586">
        <ele>436.1</ele>
        <time>2024-05-11T12:08:28Z</time>
      </trkpt>
      <trkpt lat="43.41692" lon="2.00565">
        <ele>437.2</ele>
        <time>2024-05-11T12:08:29Z</time>
      </trkpt>
      <trkpt lat="43.41689" lon="2.00542">
        <ele>438.3</ele>
        <time>2024-05-11T12:08:30Z</time>
      </trkpt>
      <trkpt lat="43.41688" lon="2.00519">
        <ele>439.1</ele>
        <time>2024-05-11T12:08:31Z</time>
      </trkpt>
      <trkpt lat="43.41688" lon="2.00496">
        <ele>440</ele>
        <time>2024-05-11T12:08:32Z</time>
      </trkpt>
      <trkpt lat="43.41687" lon="2.00476">
        <ele>441.2</ele>
        <time>2024-05-11T12:08:33Z</time>
      </trkpt>
      <trkpt lat="43.41685" lon="2.00457">
        <ele>441.3</ele>
        <time>2024-05-11T12:08:34Z</time>
      </trkpt>
      <trkpt lat="43.41682" lon="2.0044">
        <ele>440.9</ele>
        <time>2024-05-11T12:08:35Z</time>
      </trkpt>
      <trkpt lat="43.41677" lon="2.00424">
        <ele>439.6</ele>
        <time>2024-05-11T12:08:36Z</time>
      </trkpt>
      <trkpt lat="43.41668" lon="2.00413">
        <ele>439.2</ele>
        <time>2024-05-11T12:08:37Z</time>
      </trkpt>
      <trkpt lat="43.41647" lon="2.00416">
        <ele>445</ele>
        <time>2024-05-11T12:08:38Z</time>
      </trkpt>
      <trkpt lat="43.41634" lon="2.00409">
        <ele>445.8</ele>
        <time>2024-05-11T12:08:39Z</time>
      </trkpt>
      <trkpt lat="43.41621" lon="2.00401">
        <ele>446.8</ele>
        <time>2024-05-11T12:08:40Z</time>
      </trkpt>
      <trkpt lat="43.41608" lon="2.00392">
        <ele>447</ele>
        <time>2024-05-11T12:08:41Z</time>
      </trkpt>
      <trkpt lat="43.41597" lon="2.00382">
        <ele>446.9</ele>
        <time>2024-05-11T12:08:42Z</time>
      </trkpt>
      <trkpt lat="43.41587" lon="2.00371">
        <ele>447.1</ele>
        <time>2024-05-11T12:08:43Z</time>
      </trkpt>
      <trkpt lat="43.41586" lon="2.00357">
        <ele>445.7</ele>
        <time>2024-05-11T12:08:44Z</time>
      </trkpt>
      <trkpt lat="43.41587" lon="2.00343">
        <ele>447</ele>
        <time>2024-05-11T12:08:45Z</time>
      </trkpt>
      <trkpt lat="43.41589" lon="2.00329">
        <ele>448.7</ele>
        <time>2024-05-11T12:08:46Z</time>
      </trkpt>
      <trkpt lat="43.41594" lon="2.00316">
        <ele>450.7</ele>
        <time>2024-05-11T12:08:47Z</time>
      </trkpt>
      <trkpt lat="43.416" lon="2.00302">
        <ele>452.2</ele>
        <time>2024-05-11T12:08:48Z</time>
      </trkpt>
      <trkpt lat="43.41603" lon="2.00288">
        <ele>452.9</ele>
        <time>2024-05-11T12:08:49Z</time>
      </trkpt>
      <trkpt lat="43.41604" lon="2.00273">
        <ele>453.7</ele>
        <time>2024-05-11T12:08:50Z</time>
      </trkpt>
      <trkpt lat="43.41602" lon="2.00257">
        <ele>454.1</ele>
        <time>2024-05-11T12:08:51Z</time>
      </trkpt>
      <trkpt lat="43.41598" lon="2.00239">
        <ele>454.2</ele>
        <time>2024-05-11T12:08:52Z</time>
      </trkpt>
      <trkpt lat="43.41592" lon="2.00221">
        <ele>454.7</ele>
        <time>2024-05-11T12:08:53Z</time>
      </trkpt>
      <trkpt lat="43.41584" lon="2.00204">
        <ele>455.5</ele>
        <time>2024-05-11T12:08:54Z</time>
      </trkpt>
      <trkpt lat="43.41574" lon="2.0019">
        <ele>456</ele>
        <time>2024-05-11T12:08:55Z</time>
      </trkpt>
      <trkpt lat="43.41563" lon="2.0018">
        <ele>456.5</ele>
        <time>2024-05-11T12:08:56Z</time>
      </trkpt>
      <trkpt lat="43.41551" lon="2.00176">
        <ele>457.1</ele>
        <time>2024-05-11T12:08:57Z</time>
      </trkpt>
      <trkpt lat="43.41539" lon="2.00178">
        <ele>457.7</ele>
        <time>2024-05-11T12:08:58Z</time>
      </trkpt>
      <trkpt lat="43.41525" lon="2.00183">
        <ele>459</ele>
        <time>2024-05-11T12:08:59Z</time>
      </trkpt>
      <trkpt lat="43.41511" lon="2.00188">
        <ele>460</ele>
        <time>2024-05-11T12:09:00Z</time>
      </trkpt>
      <trkpt lat="43.41497" lon="2.00194">
        <ele>461.2</ele>
        <time>2024-05-11T12:09:01Z</time>
      </trkpt>
      <trkpt lat="43.41484" lon="2.00199">
        <ele>462.9</ele>
        <time>2024-05-11T12:09:02Z</time>
      </trkpt>
      <trkpt lat="43.41471" lon="2.00202">
        <ele>464.2</ele>
        <time>2024-05-11T12:09:03Z</time>
      </trkpt>
      <trkpt lat="43.41459" lon="2.00201">
        <ele>464.8</ele>
        <time>2024-05-11T12:09:04Z</time>
      </trkpt>
      <trkpt lat="43.41446" lon="2.00198">
        <ele>465.3</ele>
        <time>2024-05-11T12:09:05Z</time>
      </trkpt>
      <trkpt lat="43.41435" lon="2.00192">
        <ele>466</ele>
        <time>2024-05-11T12:09:06Z</time>
      </trkpt>
      <trkpt lat="43.41423" lon="2.00182">
        <ele>467</ele>
        <time>2024-05-11T12:09:07Z</time>
      </trkpt>
      <trkpt lat="43.41412" lon="2.00171">
        <ele>467.4</ele>
        <time>2024-05-11T12:09:08Z</time>
      </trkpt>
      <trkpt lat="43.41402" lon="2.00156">
        <ele>467.3</ele>
        <time>2024-05-11T12:09:09Z</time>
      </trkpt>
      <trkpt lat="43.41393" lon="2.00139">
        <ele>467</ele>
        <time>2024-05-11T12:09:10Z</time>
      </trkpt>
      <trkpt lat="43.41385" lon="2.0012">
        <ele>466.8</ele>
        <time>2024-05-11T12:09:11Z</time>
      </trkpt>
      <trkpt lat="43.41378" lon="2.00101">
        <ele>465.8</ele>
        <time>2024-05-11T12:09:12Z</time>
      </trkpt>
      <trkpt lat="43.41373" lon="2.00083">
        <ele>465</ele>
        <time>2024-05-11T12:09:13Z</time>
      </trkpt>
      <trkpt lat="43.41369" lon="2.00065">
        <ele>464.3</ele>
        <time>2024-05-11T12:09:14Z</time>
      </trkpt>
      <trkpt lat="43.41364" lon="2.00047">
        <ele>463.7</ele>
        <time>2024-05-11T12:09:15Z</time>
      </trkpt>
      <trkpt lat="43.41359" lon="2.00029">
        <ele>462.9</ele>
        <time>2024-05-11T12:09:16Z</time>
      </trkpt>
      <trkpt lat="43.41353" lon="2.00011">
        <ele>461.4</ele>
        <time>2024-05-11T12:09:17Z</time>
      </trkpt>
      <trkpt lat="43.41348" lon="1.99991">
        <ele>460.2</ele>
        <time>2024-05-11T12:09:18Z</time>
      </trkpt>
      <trkpt lat="43.41342" lon="1.99972">
        <ele>459.3</ele>
        <time>2024-05-11T12:09:19Z</time>
      </trkpt>
      <trkpt lat="43.41337" lon="1.99953">
        <ele>459</ele>
        <time>2024-05-11T12:09:20Z</time>
      </trkpt>
      <trkpt lat="43.41332" lon="1.99935">
        <ele>458.4</ele>
        <time>2024-05-11T12:09:21Z</time>
      </trkpt>
      <trkpt lat="43.41327" lon="1.99916">
        <ele>457.1</ele>
        <time>2024-05-11T12:09:22Z</time>
      </trkpt>
      <trkpt lat="43.41322" lon="1.99897">
        <ele>455.9</ele>
        <time>2024-05-11T12:09:23Z</time>
      </trkpt>
      <trkpt lat="43.41316" lon="1.99877">
        <ele>455.2</ele>
        <time>2024-05-11T12:09:24Z</time>
      </trkpt>
      <trkpt lat="43.4131" lon="1.99859">
        <ele>455.2</ele>
        <time>2024-05-11T12:09:25Z</time>
      </trkpt>
      <trkpt lat="43.41303" lon="1.99841">
        <ele>454.6</ele>
        <time>2024-05-11T12:09:26Z</time>
      </trkpt>
      <trkpt lat="43.41294" lon="1.99824">
        <ele>454</ele>
        <time>2024-05-11T12:09:27Z</time>
      </trkpt>
      <trkpt lat="43.41285" lon="1.99809">
        <ele>454.1</ele>
        <time>2024-05-11T12:09:28Z</time>
      </trkpt>
      <trkpt lat="43.41276" lon="1.99795">
        <ele>454</ele>
        <time>2024-05-11T12:09:29Z</time>
      </trkpt>
      <trkpt lat="43.41268" lon="1.99782">
        <ele>454</ele>
        <time>2024-05-11T12:09:30Z</time>
      </trkpt>
      <trkpt lat="43.41259" lon="1.99769">
        <ele>453.8</ele>
        <time>2024-05-11T12:09:31Z</time>
      </trkpt>
      <trkpt lat="43.4125" lon="1.99758">
        <ele>453.3</ele>
        <time>2024-05-11T12:09:32Z</time>
      </trkpt>
      <trkpt lat="43.41242" lon="1.99746">
        <ele>452.9</ele>
        <time>2024-05-11T12:09:33Z</time>
      </trkpt>
      <trkpt lat="43.41234" lon="1.99736">
        <ele>452.5</ele>
        <time>2024-05-11T12:09:34Z</time>
      </trkpt>
      <trkpt lat="43.41226" lon="1.99727">
        <ele>452.2</ele>
        <time>2024-05-11T12:09:35Z</time>
      </trkpt>
      <trkpt lat="43.41219" lon="1.99719">
        <ele>451.9</ele>
        <time>2024-05-11T12:09:36Z</time>
      </trkpt>
      <trkpt lat="43.41212" lon="1.99712">
        <ele>451.6</ele>
        <time>2024-05-11T12:09:37Z</time>
      </trkpt>
      <trkpt lat="43.41205" lon="1.99704">
        <ele>451.3</ele>
        <time>2024-05-11T12:09:38Z</time>
      </trkpt>
      <trkpt lat="43.41197" lon="1.99696">
        <ele>451.1</ele>
        <time>2024-05-11T12:09:39Z</time>
      </trkpt>
      <trkpt lat="43.41189" lon="1.99686">
        <ele>450.3</ele>
        <time>2024-05-11T12:09:40Z</time>
      </trkpt>
      <trkpt lat="43.41181" lon="1.99677">
        <ele>449.4</ele>
        <time>2024-05-11T12:09:41Z</time>
      </trkpt>
      <trkpt lat="43.41172" lon="1.99667">
        <ele>448.4</ele>
        <time>2024-05-11T12:09:42Z</time>
      </trkpt>
      <trkpt lat="43.41164" lon="1.99657">
        <ele>447.8</ele>
        <time>2024-05-11T12:09:43Z</time>
      </trkpt>
      <trkpt lat="43.41156" lon="1.99647">
        <ele>447.2</ele>
        <time>2024-05-11T12:09:44Z</time>
      </trkpt>
      <trkpt lat="43.41148" lon="1.99637">
        <ele>446.7</ele>
        <time>2024-05-11T12:09:45Z</time>
      </trkpt>
      <trkpt lat="43.41141" lon="1.99626">
        <ele>446.2</ele>
        <time>2024-05-11T12:09:46Z</time>
      </trkpt>
      <trkpt lat="43.41134" lon="1.99614">
        <ele>445.5</ele>
        <time>2024-05-11T12:09:47Z</time>
      </trkpt>
      <trkpt lat="43.41127" lon="1.99604">
        <ele>444.6</ele>
        <time>2024-05-11T12:09:48Z</time>
      </trkpt>
      <trkpt lat="43.41121" lon="1.99593">
        <ele>443.6</ele>
        <time>2024-05-11T12:09:49Z</time>
      </trkpt>
      <trkpt lat="43.41113" lon="1.99583">
        <ele>442.3</ele>
        <time>2024-05-11T12:09:50Z</time>
      </trkpt>
      <trkpt lat="43.41106" lon="1.99573">
        <ele>442.3</ele>
        <time>2024-05-11T12:09:51Z</time>
      </trkpt>
      <trkpt lat="43.41099" lon="1.99563">
        <ele>442.4</ele>
        <time>2024-05-11T12:09:52Z</time>
      </trkpt>
      <trkpt lat="43.41091" lon="1.99554">
        <ele>442.4</ele>
        <time>2024-05-11T12:09:53Z</time>
      </trkpt>
      <trkpt lat="43.41082" lon="1.99543">
        <ele>443.4</ele>
        <time>2024-05-11T12:09:54Z</time>
      </trkpt>
      <trkpt lat="43.41073" lon="1.99532">
        <ele>444.4</ele>
        <time>2024-05-11T12:09:55Z</time>
      </trkpt>
      <trkpt lat="43.41064" lon="1.99519">
        <ele>444.3</ele>
        <time>2024-05-11T12:09:56Z</time>
      </trkpt>
      <trkpt lat="43.41056" lon="1.99505">
        <ele>444</ele>
        <time>2024-05-11T12:09:57Z</time>
      </trkpt>
      <trkpt lat="43.41049" lon="1.99488">
        <ele>443.8</ele>
        <time>2024-05-11T12:09:58Z</time>
      </trkpt>
      <trkpt lat="43.41043" lon="1.9947">
        <ele>443.5</ele>
        <time>2024-05-11T12:09:59Z</time>
      </trkpt>
      <trkpt lat="43.41037" lon="1.99451">
        <ele>443.3</ele>
        <time>2024-05-11T12:10:00Z</time>
      </trkpt>
      <trkpt lat="43.41033" lon="1.99433">
        <ele>443.2</ele>
        <time>2024-05-11T12:10:01Z</time>
      </trkpt>
      <trkpt lat="43.41028" lon="1.99415">
        <ele>443</ele>
        <time>2024-05-11T12:10:02Z</time>
      </trkpt>
      <trkpt lat="43.41021" lon="1.99396">
        <ele>443</ele>
        <time>2024-05-11T12:10:03Z</time>
      </trkpt>
      <trkpt lat="43.41013" lon="1.99378">
        <ele>443</ele>
        <time>2024-05-11T12:10:04Z</time>
      </trkpt>
      <trkpt lat="43.41004" lon="1.99359">
        <ele>443</ele>
        <time>2024-05-11T12:10:05Z</time>
      </trkpt>
      <trkpt lat="43.40995" lon="1.9934">
        <ele>442.9</ele>
        <time>2024-05-11T12:10:06Z</time>
      </trkpt>
      <trkpt lat="43.40986" lon="1.99322">
        <ele>442.3</ele>
        <time>2024-05-11T12:10:07Z</time>
      </trkpt>
      <trkpt lat="43.40976" lon="1.99305">
        <ele>441.3</ele>
        <time>2024-05-11T12:10:08Z</time>
      </trkpt>
      <trkpt lat="43.40967" lon="1.99287">
        <ele>441.5</ele>
        <time>2024-05-11T12:10:09Z</time>
      </trkpt>
      <trkpt lat="43.40957" lon="1.99274">
        <ele>441.8</ele>
        <time>2024-05-11T12:10:10Z</time>
      </trkpt>
      <trkpt lat="43.40945" lon="1.99263">
        <ele>442.1</ele>
        <time>2024-05-11T12:10:11Z</time>
      </trkpt>
      <trkpt lat="43.40932" lon="1.99253">
        <ele>442.8</ele>
        <time>2024-05-11T12:10:12Z</time>
      </trkpt>
      <trkpt lat="43.40917" lon="1.99244">
        <ele>443.6</ele>
        <time>2024-05-11T12:10:13Z</time>
      </trkpt>
      <trkpt lat="43.40902" lon="1.99235">
        <ele>444.9</ele>
        <time>2024-05-11T12:10:14Z</time>
      </trkpt>
      <trkpt lat="43.40888" lon="1.99225">
        <ele>445.8</ele>
        <time>2024-05-11T12:10:15Z</time>
      </trkpt>
      <trkpt lat="43.40874" lon="1.99212">
        <ele>446.3</ele>
        <time>2024-05-11T12:10:16Z</time>
      </trkpt>
      <trkpt lat="43.40861" lon="1.99198">
        <ele>446</ele>
        <time>2024-05-11T12:10:17Z</time>
      </trkpt>
      <trkpt lat="43.4085" lon="1.99184">
        <ele>445.8</ele>
        <time>2024-05-11T12:10:18Z</time>
      </trkpt>
      <trkpt lat="43.40839" lon="1.99171">
        <ele>445.4</ele>
        <time>2024-05-11T12:10:19Z</time>
      </trkpt>
      <trkpt lat="43.40827" lon="1.99161">
        <ele>445.2</ele>
        <time>2024-05-11T12:10:20Z</time>
      </trkpt>
      <trkpt lat="43.40814" lon="1.99154">
        <ele>445.5</ele>
        <time>2024-05-11T12:10:21Z</time>
      </trkpt>
      <trkpt lat="43.40801" lon="1.99151">
        <ele>445.6</ele>
        <time>2024-05-11T12:10:22Z</time>
      </trkpt>
      <trkpt lat="43.40787" lon="1.9915">
        <ele>445.6</ele>
        <time>2024-05-11T12:10:23Z</time>
      </trkpt>
      <trkpt lat="43.40772" lon="1.9915">
        <ele>445.7</ele>
        <time>2024-05-11T12:10:24Z</time>
      </trkpt>
      <trkpt lat="43.40758" lon="1.99152">
        <ele>445.9</ele>
        <time>2024-05-11T12:10:25Z</time>
      </trkpt>
      <trkpt lat="43.40745" lon="1.99154">
        <ele>445.6</ele>
        <time>2024-05-11T12:10:26Z</time>
      </trkpt>
      <trkpt lat="43.40732" lon="1.99155">
        <ele>444.8</ele>
        <time>2024-05-11T12:10:27Z</time>
      </trkpt>
      <trkpt lat="43.4072" lon="1.99155">
        <ele>444.1</ele>
        <time>2024-05-11T12:10:28Z</time>
      </trkpt>
      <trkpt lat="43.40707" lon="1.99155">
        <ele>443.4</ele>
        <time>2024-05-11T12:10:29Z</time>
      </trkpt>
      <trkpt lat="43.40694" lon="1.99152">
        <ele>443.1</ele>
        <time>2024-05-11T12:10:30Z</time>
      </trkpt>
      <trkpt lat="43.40682" lon="1.99149">
        <ele>442</ele>
        <time>2024-05-11T12:10:31Z</time>
      </trkpt>
      <trkpt lat="43.40671" lon="1.99144">
        <ele>441.6</ele>
        <time>2024-05-11T12:10:32Z</time>
      </trkpt>
      <trkpt lat="43.40662" lon="1.99135">
        <ele>441.3</ele>
        <time>2024-05-11T12:10:33Z</time>
      </trkpt>
      <trkpt lat="43.40655" lon="1.99124">
        <ele>440.9</ele>
        <time>2024-05-11T12:10:34Z</time>
      </trkpt>
      <trkpt lat="43.40651" lon="1.9911">
        <ele>441.6</ele>
        <time>2024-05-11T12:10:35Z</time>
      </trkpt>
      <trkpt lat="43.40648" lon="1.99094">
        <ele>441.2</ele>
        <time>2024-05-11T12:10:36Z</time>
      </trkpt>
      <trkpt lat="43.40644" lon="1.99079">
        <ele>440.9</ele>
        <time>2024-05-11T12:10:37Z</time>
      </trkpt>
      <trkpt lat="43.40637" lon="1.99066">
        <ele>440.4</ele>
        <time>2024-05-11T12:10:38Z</time>
      </trkpt>
      <trkpt lat="43.40627" lon="1.99058">
        <ele>439.6</ele>
        <time>2024-05-11T12:10:39Z</time>
      </trkpt>
      <trkpt lat="43.40616" lon="1.99052">
        <ele>438.9</ele>
        <time>2024-05-11T12:10:40Z</time>
      </trkpt>
      <trkpt lat="43.40604" lon="1.99048">
        <ele>437.9</ele>
        <time>2024-05-11T12:10:41Z</time>
      </trkpt>
      <trkpt lat="43.40593" lon="1.99041">
        <ele>437.3</ele>
        <time>2024-05-11T12:10:42Z</time>
      </trkpt>
      <trkpt lat="43.40585" lon="1.99032">
        <ele>437.6</ele>
        <time>2024-05-11T12:10:43Z</time>
      </trkpt>
      <trkpt lat="43.40578" lon="1.9902">
        <ele>437</ele>
        <time>2024-05-11T12:10:44Z</time>
      </trkpt>
      <trkpt lat="43.40574" lon="1.99005">
        <ele>437</ele>
        <time>2024-05-11T12:10:45Z</time>
      </trkpt>
      <trkpt lat="43.40572" lon="1.98988">
        <ele>436.2</ele>
        <time>2024-05-11T12:10:46Z</time>
      </trkpt>
      <trkpt lat="43.40571" lon="1.9897">
        <ele>435.3</ele>
        <time>2024-05-11T12:10:47Z</time>
      </trkpt>
      <trkpt lat="43.40571" lon="1.98949">
        <ele>435.3</ele>
        <time>2024-05-11T12:10:48Z</time>
      </trkpt>
      <trkpt lat="43.40572" lon="1.98926">
        <ele>436.1</ele>
        <time>2024-05-11T12:10:49Z</time>
      </trkpt>
      <trkpt lat="43.40573" lon="1.98902">
        <ele>436.7</ele>
        <time>2024-05-11T12:10:50Z</time>
      </trkpt>
      <trkpt lat="43.40574" lon="1.98877">
        <ele>437.4</ele>
        <time>2024-05-11T12:10:51Z</time>
      </trkpt>
      <trkpt lat="43.40575" lon="1.98854">
        <ele>437.9</ele>
        <time>2024-05-11T12:10:52Z</time>
      </trkpt>
      <trkpt lat="43.40576" lon="1.9883">
        <ele>437.5</ele>
        <time>2024-05-11T12:10:53Z</time>
      </trkpt>
      <trkpt lat="43.40577" lon="1.98807">
        <ele>436.7</ele>
        <time>2024-05-11T12:10:54Z</time>
      </trkpt>
      <trkpt lat="43.40579" lon="1.98784">
        <ele>436.3</ele>
        <time>2024-05-11T12:10:55Z</time>
      </trkpt>
      <trkpt lat="43.40583" lon="1.98763">
        <ele>436.4</ele>
        <time>2024-05-11T12:10:56Z</time>
      </trkpt>
      <trkpt lat="43.40588" lon="1.98743">
        <ele>436</ele>
        <time>2024-05-11T12:10:57Z</time>
      </trkpt>
      <trkpt lat="43.40593" lon="1.98725">
        <ele>435.2</ele>
        <time>2024-05-11T12:10:58Z</time>
      </trkpt>
      <trkpt lat="43.40597" lon="1.98712">
        <ele>435.1</ele>
        <time>2024-05-11T12:10:59Z</time>
      </trkpt>
      <trkpt lat="43.406" lon="1.98703">
        <ele>435.1</ele>
        <time>2024-05-11T12:11:00Z</time>
      </trkpt>
      <trkpt lat="43.40603" lon="1.98696">
        <ele>435.2</ele>
        <time>2024-05-11T12:11:01Z</time>
      </trkpt>
      <trkpt lat="43.40606" lon="1.9869">
        <ele>435.3</ele>
        <time>2024-05-11T12:11:02Z</time>
      </trkpt>
      <trkpt lat="43.40608" lon="1.98684">
        <ele>435.2</ele>
        <time>2024-05-11T12:11:03Z</time>
      </trkpt>
      <trkpt lat="43.40611" lon="1.98677">
        <ele>435.4</ele>
        <time>2024-05-11T12:11:04Z</time>
      </trkpt>
      <trkpt lat="43.40614" lon="1.98669">
        <ele>435.4</ele>
        <time>2024-05-11T12:11:05Z</time>
      </trkpt>
      <trkpt lat="43.40618" lon="1.98661">
        <ele>435.3</ele>
        <time>2024-05-11T12:11:06Z</time>
      </trkpt>
      <trkpt lat="43.40621" lon="1.98652">
        <ele>435</ele>
        <time>2024-05-11T12:11:07Z</time>
      </trkpt>
      <trkpt lat="43.40624" lon="1.98643">
        <ele>434.7</ele>
        <time>2024-05-11T12:11:08Z</time>
      </trkpt>
      <trkpt lat="43.40628" lon="1.98634">
        <ele>434.4</ele>
        <time>2024-05-11T12:11:09Z</time>
      </trkpt>
      <trkpt lat="43.40632" lon="1.98623">
        <ele>434</ele>
        <time>2024-05-11T12:11:10Z</time>
      </trkpt>
      <trkpt lat="43.40637" lon="1.9861">
        <ele>433.7</ele>
        <time>2024-05-11T12:11:11Z</time>
      </trkpt>
      <trkpt lat="43.40642" lon="1.98597">
        <ele>433.8</ele>
        <time>2024-05-11T12:11:12Z</time>
      </trkpt>
      <trkpt lat="43.40647" lon="1.98583">
        <ele>433.9</ele>
        <time>2024-05-11T12:11:13Z</time>
      </trkpt>
      <trkpt lat="43.40652" lon="1.9857">
        <ele>433.7</ele>
        <time>2024-05-11T12:11:14Z</time>
      </trkpt>
      <trkpt lat="43.40657" lon="1.98558">
        <ele>433.4</ele>
        <time>2024-05-11T12:11:15Z</time>
      </trkpt>
      <trkpt lat="43.40661" lon="1.98546">
        <ele>432.9</ele>
        <time>2024-05-11T12:11:16Z</time>
      </trkpt>
      <trkpt lat="43.40665" lon="1.98534">
        <ele>432.3</ele>
        <time>2024-05-11T12:11:17Z</time>
      </trkpt>
      <trkpt lat="43.4067" lon="1.98522">
        <ele>432</ele>
        <time>2024-05-11T12:11:18Z</time>
      </trkpt>
      <trkpt lat="43.40673" lon="1.98511">
        <ele>431.6</ele>
        <time>2024-05-11T12:11:19Z</time>
      </trkpt>
      <trkpt lat="43.40676" lon="1.98502">
        <ele>431.2</ele>
        <time>2024-05-11T12:11:20Z</time>
      </trkpt>
      <trkpt lat="43.40678" lon="1.98493">
        <ele>430.8</ele>
        <time>2024-05-11T12:11:21Z</time>
      </trkpt>
      <trkpt lat="43.40679" lon="1.98485">
        <ele>430.3</ele>
        <time>2024-05-11T12:11:22Z</time>
      </trkpt>
      <trkpt lat="43.40681" lon="1.98477">
        <ele>429.9</ele>
        <time>2024-05-11T12:11:23Z</time>
      </trkpt>
      <trkpt lat="43.40682" lon="1.9847">
        <ele>429.5</ele>
        <time>2024-05-11T12:11:24Z</time>
      </trkpt>
      <trkpt lat="43.40683" lon="1.98463">
        <ele>429.3</ele>
        <time>2024-05-11T12:11:25Z</time>
      </trkpt>
      <trkpt lat="43.40683" lon="1.98455">
        <ele>429</ele>
        <time>2024-05-11T12:11:26Z</time>
      </trkpt>
      <trkpt lat="43.40684" lon="1.98446">
        <ele>428.7</ele>
        <time>2024-05-11T12:11:27Z</time>
      </trkpt>
      <trkpt lat="43.40684" lon="1.98436">
        <ele>428.1</ele>
        <time>2024-05-11T12:11:28Z</time>
      </trkpt>
      <trkpt lat="43.40685" lon="1.98427">
        <ele>427.6</ele>
        <time>2024-05-11T12:11:29Z</time>
      </trkpt>
      <trkpt lat="43.40686" lon="1.98418">
        <ele>427.1</ele>
        <time>2024-05-11T12:11:30Z</time>
      </trkpt>
      <trkpt lat="43.40687" lon="1.98409">
        <ele>426.7</ele>
        <time>2024-05-11T12:11:31Z</time>
      </trkpt>
      <trkpt lat="43.40687" lon="1.98401">
        <ele>426.4</ele>
        <time>2024-05-11T12:11:32Z</time>
      </trkpt>
      <trkpt lat="43.40688" lon="1.98393">
        <ele>426.1</ele>
        <time>2024-05-11T12:11:33Z</time>
      </trkpt>
      <trkpt lat="43.40688" lon="1.98385">
        <ele>425.7</ele>
        <time>2024-05-11T12:11:34Z</time>
      </trkpt>
      <trkpt lat="43.40688" lon="1.98377">
        <ele>425.1</ele>
        <time>2024-05-11T12:11:35Z</time>
      </trkpt>
      <trkpt lat="43.40687" lon="1.9837">
        <ele>424.6</ele>
        <time>2024-05-11T12:11:36Z</time>
      </trkpt>
      <trkpt lat="43.40687" lon="1.98364">
        <ele>424.2</ele>
        <time>2024-05-11T12:11:37Z</time>
      </trkpt>
      <trkpt lat="43.40686" lon="1.98359">
        <ele>423.9</ele>
        <time>2024-05-11T12:11:38Z</time>
      </trkpt>
      <trkpt lat="43.40685" lon="1.98354">
        <ele>423.7</ele>
        <time>2024-05-11T12:11:39Z</time>
      </trkpt>
      <trkpt lat="43.40684" lon="1.98348">
        <ele>423.4</ele>
        <time>2024-05-11T12:11:40Z</time>
      </trkpt>
      <trkpt lat="43.40682" lon="1.98343">
        <ele>423.1</ele>
        <time>2024-05-11T12:11:41Z</time>
      </trkpt>
      <trkpt lat="43.4068" lon="1.98338">
        <ele>422.7</ele>
        <time>2024-05-11T12:11:42Z</time>
      </trkpt>
      <trkpt lat="43.40679" lon="1.98333">
        <ele>422.4</ele>
        <time>2024-05-11T12:11:43Z</time>
      </trkpt>
      <trkpt lat="43.40677" lon="1.98328">
        <ele>422.2</ele>
        <time>2024-05-11T12:11:44Z</time>
      </trkpt>
      <trkpt lat="43.40674" lon="1.98323">
        <ele>421.9</ele>
        <time>2024-05-11T12:11:45Z</time>
      </trkpt>
      <trkpt lat="43.40672" lon="1.98318">
        <ele>421.6</ele>
        <time>2024-05-11T12:11:46Z</time>
      </trkpt>
      <trkpt lat="43.4067" lon="1.98313">
        <ele>421.4</ele>
        <time>2024-05-11T12:11:47Z</time>
      </trkpt>
      <trkpt lat="43.40668" lon="1.98308">
        <ele>421.1</ele>
        <time>2024-05-11T12:11:48Z</time>
      </trkpt>
      <trkpt lat="43.40665" lon="1.98302">
        <ele>420.8</ele>
        <time>2024-05-11T12:11:49Z</time>
      </trkpt>
      <trkpt lat="43.40663" lon="1.98296">
        <ele>420.5</ele>
        <time>2024-05-11T12:11:50Z</time>
      </trkpt>
      <trkpt lat="43.40661" lon="1.98288">
        <ele>420.2</ele>
        <time>2024-05-11T12:11:51Z</time>
      </trkpt>
      <trkpt lat="43.40659" lon="1.9828">
        <ele>419.8</ele>
        <time>2024-05-11T12:11:52Z</time>
      </trkpt>
      <trkpt lat="43.40656" lon="1.98272">
        <ele>419.2</ele>
        <time>2024-05-11T12:11:53Z</time>
      </trkpt>
      <trkpt lat="43.40654" lon="1.98264">
        <ele>418.6</ele>
        <time>2024-05-11T12:11:54Z</time>
      </trkpt>
      <trkpt lat="43.40653" lon="1.98256">
        <ele>417.9</ele>
        <time>2024-05-11T12:11:55Z</time>
      </trkpt>
      <trkpt lat="43.40651" lon="1.98246">
        <ele>417.1</ele>
        <time>2024-05-11T12:11:56Z</time>
      </trkpt>
      <trkpt lat="43.40648" lon="1.98236">
        <ele>416.3</ele>
        <time>2024-05-11T12:11:57Z</time>
      </trkpt>
      <trkpt lat="43.40646" lon="1.98225">
        <ele>415.5</ele>
        <time>2024-05-11T12:11:58Z</time>
      </trkpt>
      <trkpt lat="43.40644" lon="1.98214">
        <ele>414.9</ele>
        <time>2024-05-11T12:11:59Z</time>
      </trkpt>
      <trkpt lat="43.40642" lon="1.98202">
        <ele>414.4</ele>
        <time>2024-05-11T12:12:00Z</time>
      </trkpt>
      <trkpt lat="43.4064" lon="1.9819">
        <ele>413.9</ele>
        <time>2024-05-11T12:12:01Z</time>
      </trkpt>
      <trkpt lat="43.40639" lon="1.98179">
        <ele>413.4</ele>
        <time>2024-05-11T12:12:02Z</time>
      </trkpt>
      <trkpt lat="43.40637" lon="1.98169">
        <ele>413</ele>
        <time>2024-05-11T12:12:03Z</time>
      </trkpt>
      <trkpt lat="43.40635" lon="1.98158">
        <ele>412.1</ele>
        <time>2024-05-11T12:12:04Z</time>
      </trkpt>
      <trkpt lat="43.40634" lon="1.98147">
        <ele>411.4</ele>
        <time>2024-05-11T12:12:05Z</time>
      </trkpt>
      <trkpt lat="43.40632" lon="1.98136">
        <ele>410.5</ele>
        <time>2024-05-11T12:12:06Z</time>
      </trkpt>
      <trkpt lat="43.4063" lon="1.98124">
        <ele>409.6</ele>
        <time>2024-05-11T12:12:07Z</time>
      </trkpt>
      <trkpt lat="43.40629" lon="1.98112">
        <ele>408.7</ele>
        <time>2024-05-11T12:12:08Z</time>
      </trkpt>
      <trkpt lat="43.40627" lon="1.98099">
        <ele>407.9</ele>
        <time>2024-05-11T12:12:09Z</time>
      </trkpt>
      <trkpt lat="43.40625" lon="1.98085">
        <ele>407.1</ele>
        <time>2024-05-11T12:12:10Z</time>
      </trkpt>
      <trkpt lat="43.40622" lon="1.98072">
        <ele>406.3</ele>
        <time>2024-05-11T12:12:11Z</time>
      </trkpt>
      <trkpt lat="43.40619" lon="1.98057">
        <ele>405.4</ele>
        <time>2024-05-11T12:12:12Z</time>
      </trkpt>
      <trkpt lat="43.40615" lon="1.98042">
        <ele>404.6</ele>
        <time>2024-05-11T12:12:13Z</time>
      </trkpt>
      <trkpt lat="43.40608" lon="1.98026">
        <ele>403.8</ele>
        <time>2024-05-11T12:12:14Z</time>
      </trkpt>
      <trkpt lat="43.40598" lon="1.98012">
        <ele>402.7</ele>
        <time>2024-05-11T12:12:15Z</time>
      </trkpt>
      <trkpt lat="43.40586" lon="1.98001">
        <ele>402</ele>
        <time>2024-05-11T12:12:16Z</time>
      </trkpt>
      <trkpt lat="43.40575" lon="1.97989">
        <ele>401.9</ele>
        <time>2024-05-11T12:12:17Z</time>
      </trkpt>
      <trkpt lat="43.40565" lon="1.97977">
        <ele>401.8</ele>
        <time>2024-05-11T12:12:18Z</time>
      </trkpt>
      <trkpt lat="43.40555" lon="1.97963">
        <ele>401.7</ele>
        <time>2024-05-11T12:12:19Z</time>
      </trkpt>
      <trkpt lat="43.40547" lon="1.97949">
        <ele>401.2</ele>
        <time>2024-05-11T12:12:20Z</time>
      </trkpt>
      <trkpt lat="43.40538" lon="1.97934">
        <ele>400.6</ele>
        <time>2024-05-11T12:12:21Z</time>
      </trkpt>
      <trkpt lat="43.40529" lon="1.9792">
        <ele>400.1</ele>
        <time>2024-05-11T12:12:22Z</time>
      </trkpt>
      <trkpt lat="43.4052" lon="1.97907">
        <ele>399.7</ele>
        <time>2024-05-11T12:12:23Z</time>
      </trkpt>
      <trkpt lat="43.40511" lon="1.97895">
        <ele>399.2</ele>
        <time>2024-05-11T12:12:24Z</time>
      </trkpt>
      <trkpt lat="43.40501" lon="1.97882">
        <ele>398.8</ele>
        <time>2024-05-11T12:12:25Z</time>
      </trkpt>
      <trkpt lat="43.40492" lon="1.97869">
        <ele>397.7</ele>
        <time>2024-05-11T12:12:26Z</time>
      </trkpt>
      <trkpt lat="43.40484" lon="1.97858">
        <ele>396.7</ele>
        <time>2024-05-11T12:12:27Z</time>
      </trkpt>
      <trkpt lat="43.40478" lon="1.97849">
        <ele>395.9</ele>
        <time>2024-05-11T12:12:28Z</time>
      </trkpt>
      <trkpt lat="43.40472" lon="1.97843">
        <ele>395.3</ele>
        <time>2024-05-11T12:12:29Z</time>
      </trkpt>
      <trkpt lat="43.40466" lon="1.97839">
        <ele>395</ele>
        <time>2024-05-11T12:12:30Z</time>
      </trkpt>
      <trkpt lat="43.40458" lon="1.97836">
        <ele>394.6</ele>
        <time>2024-05-11T12:12:31Z</time>
      </trkpt>
      <trkpt lat="43.4045" lon="1.97834">
        <ele>394.2</ele>
        <time>2024-05-11T12:12:32Z</time>
      </trkpt>
      <trkpt lat="43.40441" lon="1.97836">
        <ele>393.8</ele>
        <time>2024-05-11T12:12:33Z</time>
      </trkpt>
      <trkpt lat="43.40432" lon="1.97839">
        <ele>393.3</ele>
        <time>2024-05-11T12:12:34Z</time>
      </trkpt>
      <trkpt lat="43.40423" lon="1.97845">
        <ele>392.9</ele>
        <time>2024-05-11T12:12:35Z</time>
      </trkpt>
      <trkpt lat="43.40414" lon="1.97853">
        <ele>392.5</ele>
        <time>2024-05-11T12:12:36Z</time>
      </trkpt>
      <trkpt lat="43.40406" lon="1.97863">
        <ele>392.3</ele>
        <time>2024-05-11T12:12:37Z</time>
      </trkpt>
      <trkpt lat="43.40398" lon="1.97873">
        <ele>392.1</ele>
        <time>2024-05-11T12:12:38Z</time>
      </trkpt>
      <trkpt lat="43.40389" lon="1.97882">
        <ele>391.8</ele>
        <time>2024-05-11T12:12:39Z</time>
      </trkpt>
      <trkpt lat="43.4038" lon="1.97892">
        <ele>391.4</ele>
        <time>2024-05-11T12:12:40Z</time>
      </trkpt>
      <trkpt lat="43.4037" lon="1.97903">
        <ele>390.8</ele>
        <time>2024-05-11T12:12:41Z</time>
      </trkpt>
      <trkpt lat="43.4036" lon="1.97914">
        <ele>389.9</ele>
        <time>2024-05-11T12:12:42Z</time>
      </trkpt>
      <trkpt lat="43.4035" lon="1.97924">
        <ele>389.4</ele>
        <time>2024-05-11T12:12:43Z</time>
      </trkpt>
      <trkpt lat="43.4034" lon="1.97934">
        <ele>388.6</ele>
        <time>2024-05-11T12:12:44Z</time>
      </trkpt>
      <trkpt lat="43.4033" lon="1.97944">
        <ele>387.6</ele>
        <time>2024-05-11T12:12:45Z</time>
      </trkpt>
      <trkpt lat="43.4032" lon="1.97954">
        <ele>386.7</ele>
        <time>2024-05-11T12:12:46Z</time>
      </trkpt>
      <trkpt lat="43.40309" lon="1.97963">
        <ele>385.5</ele>
        <time>2024-05-11T12:12:47Z</time>
      </trkpt>
      <trkpt lat="43.40299" lon="1.97972">
        <ele>384.1</ele>
        <time>2024-05-11T12:12:48Z</time>
      </trkpt>
      <trkpt lat="43.40288" lon="1.9798">
        <ele>383</ele>
        <time>2024-05-11T12:12:49Z</time>
      </trkpt>
      <trkpt lat="43.40277" lon="1.97988">
        <ele>382</ele>
        <time>2024-05-11T12:12:50Z</time>
      </trkpt>
      <trkpt lat="43.40266" lon="1.97996">
        <ele>381.3</ele>
        <time>2024-05-11T12:12:51Z</time>
      </trkpt>
      <trkpt lat="43.40254" lon="1.98005">
        <ele>380.6</ele>
        <time>2024-05-11T12:12:52Z</time>
      </trkpt>
      <trkpt lat="43.40241" lon="1.98013">
        <ele>379.2</ele>
        <time>2024-05-11T12:12:53Z</time>
      </trkpt>
      <trkpt lat="43.40228" lon="1.98022">
        <ele>377.6</ele>
        <time>2024-05-11T12:12:54Z</time>
      </trkpt>
      <trkpt lat="43.40214" lon="1.9803">
        <ele>376.3</ele>
        <time>2024-05-11T12:12:55Z</time>
      </trkpt>
      <trkpt lat="43.402" lon="1.98039">
        <ele>375.4</ele>
        <time>2024-05-11T12:12:56Z</time>
      </trkpt>
      <trkpt lat="43.40186" lon="1.98047">
        <ele>374.6</ele>
        <time>2024-05-11T12:12:57Z</time>
      </trkpt>
      <trkpt lat="43.40172" lon="1.98056">
        <ele>373.6</ele>
        <time>2024-05-11T12:12:58Z</time>
      </trkpt>
      <trkpt lat="43.40159" lon="1.98065">
        <ele>372.7</ele>
        <time>2024-05-11T12:12:59Z</time>
      </trkpt>
      <trkpt lat="43.40146" lon="1.98073">
        <ele>371.7</ele>
        <time>2024-05-11T12:13:00Z</time>
      </trkpt>
      <trkpt lat="43.40135" lon="1.9808">
        <ele>370.7</ele>
        <time>2024-05-11T12:13:01Z</time>
      </trkpt>
      <trkpt lat="43.40125" lon="1.98087">
        <ele>370</ele>
        <time>2024-05-11T12:13:02Z</time>
      </trkpt>
      <trkpt lat="43.40116" lon="1.98093">
        <ele>369.4</ele>
        <time>2024-05-11T12:13:03Z</time>
      </trkpt>
      <trkpt lat="43.40107" lon="1.98099">
        <ele>368.9</ele>
        <time>2024-05-11T12:13:04Z</time>
      </trkpt>
      <trkpt lat="43.40097" lon="1.98105">
        <ele>368.5</ele>
        <time>2024-05-11T12:13:05Z</time>
      </trkpt>
      <trkpt lat="43.40088" lon="1.98109">
        <ele>368.2</ele>
        <time>2024-05-11T12:13:06Z</time>
      </trkpt>
      <trkpt lat="43.40077" lon="1.98113">
        <ele>367.9</ele>
        <time>2024-05-11T12:13:07Z</time>
      </trkpt>
      <trkpt lat="43.40067" lon="1.98116">
        <ele>367.9</ele>
        <time>2024-05-11T12:13:08Z</time>
      </trkpt>
      <trkpt lat="43.40056" lon="1.98118">
        <ele>368</ele>
        <time>2024-05-11T12:13:09Z</time>
      </trkpt>
      <trkpt lat="43.40043" lon="1.9812">
        <ele>367.5</ele>
        <time>2024-05-11T12:13:10Z</time>
      </trkpt>
      <trkpt lat="43.4003" lon="1.9812">
        <ele>367.1</ele>
        <time>2024-05-11T12:13:11Z</time>
      </trkpt>
      <trkpt lat="43.40017" lon="1.9812">
        <ele>366.6</ele>
        <time>2024-05-11T12:13:12Z</time>
      </trkpt>
      <trkpt lat="43.40003" lon="1.98119">
        <ele>366.1</ele>
        <time>2024-05-11T12:13:13Z</time>
      </trkpt>
      <trkpt lat="43.3999" lon="1.98118">
        <ele>365.6</ele>
        <time>2024-05-11T12:13:14Z</time>
      </trkpt>
      <trkpt lat="43.39977" lon="1.98118">
        <ele>365.2</ele>
        <time>2024-05-11T12:13:15Z</time>
      </trkpt>
      <trkpt lat="43.39965" lon="1.98116">
        <ele>364.5</ele>
        <time>2024-05-11T12:13:16Z</time>
      </trkpt>
      <trkpt lat="43.39953" lon="1.98114">
        <ele>363.7</ele>
        <time>2024-05-11T12:13:17Z</time>
      </trkpt>
      <trkpt lat="43.39942" lon="1.9811">
        <ele>362.9</ele>
        <time>2024-05-11T12:13:18Z</time>
      </trkpt>
      <trkpt lat="43.3993" lon="1.98106">
        <ele>362.2</ele>
        <time>2024-05-11T12:13:19Z</time>
      </trkpt>
      <trkpt lat="43.39917" lon="1.981">
        <ele>361.2</ele>
        <time>2024-05-11T12:13:20Z</time>
      </trkpt>
      <trkpt lat="43.39904" lon="1.98094">
        <ele>360</ele>
        <time>2024-05-11T12:13:21Z</time>
      </trkpt>
      <trkpt lat="43.39892" lon="1.98086">
        <ele>359.1</ele>
        <time>2024-05-11T12:13:22Z</time>
      </trkpt>
      <trkpt lat="43.39879" lon="1.98079">
        <ele>358</ele>
        <time>2024-05-11T12:13:23Z</time>
      </trkpt>
      <trkpt lat="43.39867" lon="1.98072">
        <ele>356.6</ele>
        <time>2024-05-11T12:13:24Z</time>
      </trkpt>
      <trkpt lat="43.39854" lon="1.98064">
        <ele>355</ele>
        <time>2024-05-11T12:13:25Z</time>
      </trkpt>
      <trkpt lat="43.39841" lon="1.98057">
        <ele>353.6</ele>
        <time>2024-05-11T12:13:26Z</time>
      </trkpt>
      <trkpt lat="43.39828" lon="1.9805">
        <ele>352.6</ele>
        <time>2024-05-11T12:13:27Z</time>
      </trkpt>
      <trkpt lat="43.39816" lon="1.98042">
        <ele>351.4</ele>
        <time>2024-05-11T12:13:28Z</time>
      </trkpt>
      <trkpt lat="43.39803" lon="1.98036">
        <ele>350.1</ele>
        <time>2024-05-11T12:13:29Z</time>
      </trkpt>
      <trkpt lat="43.3979" lon="1.98032">
        <ele>348.9</ele>
        <time>2024-05-11T12:13:30Z</time>
      </trkpt>
      <trkpt lat="43.39776" lon="1.98031">
        <ele>347.9</ele>
        <time>2024-05-11T12:13:31Z</time>
      </trkpt>
      <trkpt lat="43.39763" lon="1.98032">
        <ele>346.8</ele>
        <time>2024-05-11T12:13:32Z</time>
      </trkpt>
      <trkpt lat="43.39752" lon="1.98033">
        <ele>345.8</ele>
        <time>2024-05-11T12:13:33Z</time>
      </trkpt>
      <trkpt lat="43.39741" lon="1.98036">
        <ele>345.1</ele>
        <time>2024-05-11T12:13:34Z</time>
      </trkpt>
      <trkpt lat="43.3973" lon="1.98037">
        <ele>344.6</ele>
        <time>2024-05-11T12:13:35Z</time>
      </trkpt>
      <trkpt lat="43.3972" lon="1.98038">
        <ele>344.2</ele>
        <time>2024-05-11T12:13:36Z</time>
      </trkpt>
      <trkpt lat="43.3971" lon="1.98037">
        <ele>344</ele>
        <time>2024-05-11T12:13:37Z</time>
      </trkpt>
      <trkpt lat="43.397" lon="1.98035">
        <ele>343.9</ele>
        <time>2024-05-11T12:13:38Z</time>
      </trkpt>
      <trkpt lat="43.3969" lon="1.98033">
        <ele>343.5</ele>
        <time>2024-05-11T12:13:39Z</time>
      </trkpt>
      <trkpt lat="43.39679" lon="1.98029">
        <ele>342.9</ele>
        <time>2024-05-11T12:13:40Z</time>
      </trkpt>
      <trkpt lat="43.39668" lon="1.98024">
        <ele>342.1</ele>
        <time>2024-05-11T12:13:41Z</time>
      </trkpt>
      <trkpt lat="43.39656" lon="1.9802">
        <ele>341.1</ele>
        <time>2024-05-11T12:13:42Z</time>
      </trkpt>
      <trkpt lat="43.39645" lon="1.98015">
        <ele>340.1</ele>
        <time>2024-05-11T12:13:43Z</time>
      </trkpt>
      <trkpt lat="43.39634" lon="1.9801">
        <ele>339.1</ele>
        <time>2024-05-11T12:13:44Z</time>
      </trkpt>
      <trkpt lat="43.39623" lon="1.98005">
        <ele>338.1</ele>
        <time>2024-05-11T12:13:45Z</time>
      </trkpt>
      <trkpt lat="43.39611" lon="1.98001">
        <ele>337.1</ele>
        <time>2024-05-11T12:13:46Z</time>
      </trkpt>
      <trkpt lat="43.396" lon="1.97997">
        <ele>336.4</ele>
        <time>2024-05-11T12:13:47Z</time>
      </trkpt>
      <trkpt lat="43.39588" lon="1.97994">
        <ele>335.8</ele>
        <time>2024-05-11T12:13:48Z</time>
      </trkpt>
      <trkpt lat="43.39576" lon="1.97991">
        <ele>334.8</ele>
        <time>2024-05-11T12:13:49Z</time>
      </trkpt>
      <trkpt lat="43.39566" lon="1.97989">
        <ele>334</ele>
        <time>2024-05-11T12:13:50Z</time>
      </trkpt>
      <trkpt lat="43.39555" lon="1.97987">
        <ele>333</ele>
        <time>2024-05-11T12:13:51Z</time>
      </trkpt>
      <trkpt lat="43.39545" lon="1.97985">
        <ele>332.2</ele>
        <time>2024-05-11T12:13:52Z</time>
      </trkpt>
      <trkpt lat="43.39535" lon="1.97983">
        <ele>331.3</ele>
        <time>2024-05-11T12:13:53Z</time>
      </trkpt>
      <trkpt lat="43.39524" lon="1.9798">
        <ele>330.2</ele>
        <time>2024-05-11T12:13:54Z</time>
      </trkpt>
      <trkpt lat="43.39513" lon="1.97978">
        <ele>328.8</ele>
        <time>2024-05-11T12:13:55Z</time>
      </trkpt>
      <trkpt lat="43.39502" lon="1.97976">
        <ele>327.5</ele>
        <time>2024-05-11T12:13:56Z</time>
      </trkpt>
      <trkpt lat="43.3949" lon="1.97974">
        <ele>326.4</ele>
        <time>2024-05-11T12:13:57Z</time>
      </trkpt>
      <trkpt lat="43.39478" lon="1.97971">
        <ele>325.4</ele>
        <time>2024-05-11T12:13:58Z</time>
      </trkpt>
      <trkpt lat="43.39465" lon="1.97968">
        <ele>324.3</ele>
        <time>2024-05-11T12:13:59Z</time>
      </trkpt>
      <trkpt lat="43.39451" lon="1.97965">
        <ele>323</ele>
        <time>2024-05-11T12:14:00Z</time>
      </trkpt>
      <trkpt lat="43.39438" lon="1.97962">
        <ele>321.8</ele>
        <time>2024-05-11T12:14:01Z</time>
      </trkpt>
      <trkpt lat="43.39424" lon="1.97959">
        <ele>320.6</ele>
        <time>2024-05-11T12:14:02Z</time>
      </trkpt>
      <trkpt lat="43.3941" lon="1.97956">
        <ele>319.4</ele>
        <time>2024-05-11T12:14:03Z</time>
      </trkpt>
      <trkpt lat="43.39397" lon="1.97953">
        <ele>318.2</ele>
        <time>2024-05-11T12:14:04Z</time>
      </trkpt>
      <trkpt lat="43.39383" lon="1.9795">
        <ele>317.1</ele>
        <time>2024-05-11T12:14:05Z</time>
      </trkpt>
      <trkpt lat="43.3937" lon="1.97947">
        <ele>316.4</ele>
        <time>2024-05-11T12:14:06Z</time>
      </trkpt>
      <trkpt lat="43.39356" lon="1.97944">
        <ele>315.4</ele>
        <time>2024-05-11T12:14:07Z</time>
      </trkpt>
      <trkpt lat="43.39342" lon="1.97941">
        <ele>313.8</ele>
        <time>2024-05-11T12:14:08Z</time>
      </trkpt>
      <trkpt lat="43.39329" lon="1.97939">
        <ele>312.4</ele>
        <time>2024-05-11T12:14:09Z</time>
      </trkpt>
      <trkpt lat="43.39318" lon="1.97936">
        <ele>311.2</ele>
        <time>2024-05-11T12:14:10Z</time>
      </trkpt>
      <trkpt lat="43.39309" lon="1.97933">
        <ele>310.3</ele>
        <time>2024-05-11T12:14:11Z</time>
      </trkpt>
      <trkpt lat="43.39301" lon="1.97926">
        <ele>309.6</ele>
        <time>2024-05-11T12:14:12Z</time>
      </trkpt>
      <trkpt lat="43.39297" lon="1.97916">
        <ele>309.3</ele>
        <time>2024-05-11T12:14:13Z</time>
      </trkpt>
      <trkpt lat="43.39295" lon="1.97904">
        <ele>308.3</ele>
        <time>2024-05-11T12:14:14Z</time>
      </trkpt>
      <trkpt lat="43.39297" lon="1.97893">
        <ele>307.7</ele>
        <time>2024-05-11T12:14:15Z</time>
      </trkpt>
      <trkpt lat="43.39301" lon="1.9788">
        <ele>306.9</ele>
        <time>2024-05-11T12:14:16Z</time>
      </trkpt>
      <trkpt lat="43.39308" lon="1.97868">
        <ele>306.8</ele>
        <time>2024-05-11T12:14:17Z</time>
      </trkpt>
      <trkpt lat="43.39316" lon="1.97854">
        <ele>306.4</ele>
        <time>2024-05-11T12:14:18Z</time>
      </trkpt>
      <trkpt lat="43.39323" lon="1.97839">
        <ele>305.5</ele>
        <time>2024-05-11T12:14:19Z</time>
      </trkpt>
      <trkpt lat="43.39328" lon="1.97822">
        <ele>305</ele>
        <time>2024-05-11T12:14:20Z</time>
      </trkpt>
      <trkpt lat="43.3933" lon="1.97805">
        <ele>304.6</ele>
        <time>2024-05-11T12:14:21Z</time>
      </trkpt>
      <trkpt lat="43.39329" lon="1.97789">
        <ele>304.7</ele>
        <time>2024-05-11T12:14:22Z</time>
      </trkpt>
      <trkpt lat="43.39325" lon="1.97773">
        <ele>304.7</ele>
        <time>2024-05-11T12:14:23Z</time>
      </trkpt>
      <trkpt lat="43.3932" lon="1.97756">
        <ele>304.5</ele>
        <time>2024-05-11T12:14:24Z</time>
      </trkpt>
      <trkpt lat="43.39315" lon="1.97738">
        <ele>303.9</ele>
        <time>2024-05-11T12:14:25Z</time>
      </trkpt>
      <trkpt lat="43.3931" lon="1.97721">
        <ele>303.1</ele>
        <time>2024-05-11T12:14:26Z</time>
      </trkpt>
      <trkpt lat="43.39305" lon="1.97706">
        <ele>302.4</ele>
        <time>2024-05-11T12:14:27Z</time>
      </trkpt>
      <trkpt lat="43.39299" lon="1.97691">
        <ele>301.6</ele>
        <time>2024-05-11T12:14:28Z</time>
      </trkpt>
      <trkpt lat="43.39291" lon="1.97677">
        <ele>300.8</ele>
        <time>2024-05-11T12:14:29Z</time>
      </trkpt>
      <trkpt lat="43.39282" lon="1.97667">
        <ele>300.2</ele>
        <time>2024-05-11T12:14:30Z</time>
      </trkpt>
      <trkpt lat="43.39272" lon="1.97661">
        <ele>299.6</ele>
        <time>2024-05-11T12:14:31Z</time>
      </trkpt>
      <trkpt lat="43.39261" lon="1.97658">
        <ele>299.1</ele>
        <time>2024-05-11T12:14:32Z</time>
      </trkpt>
      <trkpt lat="43.3925" lon="1.97658">
        <ele>298.7</ele>
        <time>2024-05-11T12:14:33Z</time>
      </trkpt>
      <trkpt lat="43.39239" lon="1.9766">
        <ele>298</ele>
        <time>2024-05-11T12:14:34Z</time>
      </trkpt>
      <trkpt lat="43.39228" lon="1.97661">
        <ele>297.2</ele>
        <time>2024-05-11T12:14:35Z</time>
      </trkpt>
      <trkpt lat="43.39218" lon="1.97663">
        <ele>296.4</ele>
        <time>2024-05-11T12:14:36Z</time>
      </trkpt>
      <trkpt lat="43.3921" lon="1.97664">
        <ele>295.6</ele>
        <time>2024-05-11T12:14:37Z</time>
      </trkpt>
      <trkpt lat="43.39201" lon="1.97665">
        <ele>294.6</ele>
        <time>2024-05-11T12:14:38Z</time>
      </trkpt>
      <trkpt lat="43.39193" lon="1.97667">
        <ele>293.9</ele>
        <time>2024-05-11T12:14:39Z</time>
      </trkpt>
      <trkpt lat="43.39184" lon="1.97667">
        <ele>293.3</ele>
        <time>2024-05-11T12:14:40Z</time>
      </trkpt>
      <trkpt lat="43.39175" lon="1.97665">
        <ele>292.5</ele>
        <time>2024-05-11T12:14:41Z</time>
      </trkpt>
      <trkpt lat="43.39167" lon="1.97661">
        <ele>291.6</ele>
        <time>2024-05-11T12:14:42Z</time>
      </trkpt>
      <trkpt lat="43.39159" lon="1.97654">
        <ele>290.5</ele>
        <time>2024-05-11T12:14:43Z</time>
      </trkpt>
      <trkpt lat="43.39153" lon="1.97644">
        <ele>289.4</ele>
        <time>2024-05-11T12:14:44Z</time>
      </trkpt>
      <trkpt lat="43.39148" lon="1.9763">
        <ele>288.3</ele>
        <time>2024-05-11T12:14:45Z</time>
      </trkpt>
      <trkpt lat="43.39145" lon="1.97616">
        <ele>287.6</ele>
        <time>2024-05-11T12:14:46Z</time>
      </trkpt>
      <trkpt lat="43.39143" lon="1.976">
        <ele>286.5</ele>
        <time>2024-05-11T12:14:47Z</time>
      </trkpt>
      <trkpt lat="43.39143" lon="1.97584">
        <ele>285.3</ele>
        <time>2024-05-11T12:14:48Z</time>
      </trkpt>
      <trkpt lat="43.39143" lon="1.97566">
        <ele>284.7</ele>
        <time>2024-05-11T12:14:49Z</time>
      </trkpt>
      <trkpt lat="43.39145" lon="1.9755">
        <ele>284</ele>
        <time>2024-05-11T12:14:50Z</time>
      </trkpt>
      <trkpt lat="43.39148" lon="1.97533">
        <ele>283</ele>
        <time>2024-05-11T12:14:51Z</time>
      </trkpt>
      <trkpt lat="43.39151" lon="1.97517">
        <ele>282.1</ele>
        <time>2024-05-11T12:14:52Z</time>
      </trkpt>
      <trkpt lat="43.39153" lon="1.975">
        <ele>281</ele>
        <time>2024-05-11T12:14:53Z</time>
      </trkpt>
      <trkpt lat="43.39154" lon="1.97483">
        <ele>280.2</ele>
        <time>2024-05-11T12:14:54Z</time>
      </trkpt>
      <trkpt lat="43.39154" lon="1.97466">
        <ele>279.1</ele>
        <time>2024-05-11T12:14:55Z</time>
      </trkpt>
      <trkpt lat="43.39155" lon="1.97448">
        <ele>277.6</ele>
        <time>2024-05-11T12:14:56Z</time>
      </trkpt>
      <trkpt lat="43.39157" lon="1.9743">
        <ele>276.4</ele>
        <time>2024-05-11T12:14:57Z</time>
      </trkpt>
      <trkpt lat="43.3916" lon="1.97414">
        <ele>275.6</ele>
        <time>2024-05-11T12:14:58Z</time>
      </trkpt>
      <trkpt lat="43.39164" lon="1.97397">
        <ele>275</ele>
        <time>2024-05-11T12:14:59Z</time>
      </trkpt>
      <trkpt lat="43.39169" lon="1.97382">
        <ele>274.5</ele>
        <time>2024-05-11T12:15:00Z</time>
      </trkpt>
      <trkpt lat="43.39175" lon="1.97367">
        <ele>273.8</ele>
        <time>2024-05-11T12:15:01Z</time>
      </trkpt>
      <trkpt lat="43.39183" lon="1.97353">
        <ele>273.2</ele>
        <time>2024-05-11T12:15:02Z</time>
      </trkpt>
      <trkpt lat="43.39191" lon="1.97342">
        <ele>272.8</ele>
        <time>2024-05-11T12:15:03Z</time>
      </trkpt>
      <trkpt lat="43.392" lon="1.9733">
        <ele>272.1</ele>
        <time>2024-05-11T12:15:04Z</time>
      </trkpt>
      <trkpt lat="43.39209" lon="1.97321">
        <ele>271.8</ele>
        <time>2024-05-11T12:15:05Z</time>
      </trkpt>
      <trkpt lat="43.39216" lon="1.97312">
        <ele>271.3</ele>
        <time>2024-05-11T12:15:06Z</time>
      </trkpt>
      <trkpt lat="43.39219" lon="1.973">
        <ele>270.1</ele>
        <time>2024-05-11T12:15:07Z</time>
      </trkpt>
      <trkpt lat="43.39221" lon="1.97288">
        <ele>269.1</ele>
        <time>2024-05-11T12:15:08Z</time>
      </trkpt>
      <trkpt lat="43.39222" lon="1.97277">
        <ele>268.1</ele>
        <time>2024-05-11T12:15:09Z</time>
      </trkpt>
      <trkpt lat="43.39223" lon="1.97267">
        <ele>268.7</ele>
        <time>2024-05-11T12:15:10Z</time>
      </trkpt>
      <trkpt lat="43.39224" lon="1.97258">
        <ele>269.3</ele>
        <time>2024-05-11T12:15:11Z</time>
      </trkpt>
      <trkpt lat="43.39224" lon="1.97249">
        <ele>269.8</ele>
        <time>2024-05-11T12:15:12Z</time>
      </trkpt>
      <trkpt lat="43.39224" lon="1.97239">
        <ele>270.2</ele>
        <time>2024-05-11T12:15:13Z</time>
      </trkpt>
      <trkpt lat="43.39224" lon="1.97231">
        <ele>270.5</ele>
        <time>2024-05-11T12:15:14Z</time>
      </trkpt>
      <trkpt lat="43.39222" lon="1.97221">
        <ele>271.2</ele>
        <time>2024-05-11T12:15:15Z</time>
      </trkpt>
      <trkpt lat="43.39217" lon="1.97213">
        <ele>272.5</ele>
        <time>2024-05-11T12:15:16Z</time>
      </trkpt>
      <trkpt lat="43.3921" lon="1.97209">
        <ele>273.5</ele>
        <time>2024-05-11T12:15:17Z</time>
      </trkpt>
      <trkpt lat="43.39202" lon="1.97209">
        <ele>274.3</ele>
        <time>2024-05-11T12:15:18Z</time>
      </trkpt>
      <trkpt lat="43.39195" lon="1.97209">
        <ele>274.9</ele>
        <time>2024-05-11T12:15:19Z</time>
      </trkpt>
      <trkpt lat="43.39189" lon="1.97208">
        <ele>275.1</ele>
        <time>2024-05-11T12:15:20Z</time>
      </trkpt>
      <trkpt lat="43.39185" lon="1.97208">
        <ele>275.2</ele>
        <time>2024-05-11T12:15:21Z</time>
      </trkpt>
      <trkpt lat="43.39183" lon="1.97207">
        <ele>275.3</ele>
        <time>2024-05-11T12:15:22Z</time>
      </trkpt>
      <trkpt lat="43.3918" lon="1.97205">
        <ele>275.4</ele>
        <time>2024-05-11T12:15:23Z</time>
      </trkpt>
      <trkpt lat="43.39178" lon="1.97204">
        <ele>275.5</ele>
        <time>2024-05-11T12:15:24Z</time>
      </trkpt>
      <trkpt lat="43.39177" lon="1.97203">
        <ele>275.6</ele>
        <time>2024-05-11T12:15:25Z</time>
      </trkpt>
      <trkpt lat="43.39176" lon="1.97203">
        <ele>275.6</ele>
        <time>2024-05-11T12:15:26Z</time>
      </trkpt>
      <trkpt lat="43.39176" lon="1.97202">
        <ele>275.6</ele>
        <time>2024-05-11T12:15:27Z</time>
      </trkpt>
      <trkpt lat="43.39174" lon="1.97202">
        <ele>275.7</ele>
        <time>2024-05-11T12:15:28Z</time>
      </trkpt>
      <trkpt lat="43.39173" lon="1.97201">
        <ele>275.7</ele>
        <time>2024-05-11T12:15:29Z</time>
      </trkpt>
      <trkpt lat="43.39173" lon="1.97201">
        <ele>275.7</ele>
        <time>2024-05-11T12:15:30Z</time>
      </trkpt>
      <trkpt lat="43.39173" lon="1.97201">
        <ele>275.7</ele>
        <time>2024-05-11T12:15:31Z</time>
      </trkpt>
      <trkpt lat="43.39173" lon="1.97201">
        <ele>275.7</ele>
        <time>2024-05-11T12:15:32Z</time>
      </trkpt>
      <trkpt lat="43.39173" lon="1.97201">
        <ele>275.7</ele>
        <time>2024-05-11T12:15:33Z</time>
      </trkpt>
      <trkpt lat="43.39173" lon="1.972">
        <ele>275.8</ele>
        <time>2024-05-11T12:15:34Z</time>
      </trkpt>
      <trkpt lat="43.39173" lon="1.972">
        <ele>275.8</ele>
        <time>2024-05-11T12:15:35Z</time>
      </trkpt>
      <trkpt lat="43.39171" lon="1.97199">
        <ele>275.8</ele>
        <time>2024-05-11T12:15:36Z</time>
      </trkpt>
      <trkpt lat="43.39169" lon="1.97196">
        <ele>275.9</ele>
        <time>2024-05-11T12:15:37Z</time>
      </trkpt>
      <trkpt lat="43.39164" lon="1.97189">
        <ele>276.3</ele>
        <time>2024-05-11T12:15:38Z</time>
      </trkpt>
      <trkpt lat="43.3916" lon="1.97181">
        <ele>276.8</ele>
        <time>2024-05-11T12:15:39Z</time>
      </trkpt>
      <trkpt lat="43.39156" lon="1.97172">
        <ele>277.5</ele>
        <time>2024-05-11T12:15:40Z</time>
      </trkpt>
      <trkpt lat="43.39153" lon="1.97166">
        <ele>278</ele>
        <time>2024-05-11T12:15:41Z</time>
      </trkpt>
      <trkpt lat="43.39152" lon="1.97162">
        <ele>278.1</ele>
        <time>2024-05-11T12:15:42Z</time>
      </trkpt>
      <trkpt lat="43.39151" lon="1.97159">
        <ele>278.1</ele>
        <time>2024-05-11T12:15:43Z</time>
      </trkpt>
      <trkpt lat="43.39149" lon="1.97157">
        <ele>278</ele>
        <time>2024-05-11T12:15:44Z</time>
      </trkpt>
      <trkpt lat="43.39147" lon="1.97155">
        <ele>277.9</ele>
        <time>2024-05-11T12:15:45Z</time>
      </trkpt>
      <trkpt lat="43.39145" lon="1.97155">
        <ele>277.9</ele>
        <time>2024-05-11T12:15:46Z</time>
      </trkpt>
      <trkpt lat="43.39144" lon="1.97155">
        <ele>277.8</ele>
        <time>2024-05-11T12:15:47Z</time>
      </trkpt>
      <trkpt lat="43.39144" lon="1.97155">
        <ele>277.8</ele>
        <time>2024-05-11T12:15:48Z</time>
      </trkpt>
      <trkpt lat="43.39144" lon="1.97156">
        <ele>277.8</ele>
        <time>2024-05-11T12:15:49Z</time>
      </trkpt>
      <trkpt lat="43.39144" lon="1.97156">
        <ele>277.8</ele>
        <time>2024-05-11T12:15:50Z</time>
      </trkpt>
      <trkpt lat="43.39144" lon="1.97156">
        <ele>277.8</ele>
        <time>2024-05-11T12:15:51Z</time>
      </trkpt>
      <trkpt lat="43.39145" lon="1.97156">
        <ele>277.9</ele>
        <time>2024-05-11T12:15:52Z</time>
      </trkpt>
      <trkpt lat="43.39145" lon="1.97156">
        <ele>277.9</ele>
        <time>2024-05-11T12:15:53Z</time>
      </trkpt>
      <trkpt lat="43.39145" lon="1.97156">
        <ele>277.9</ele>
        <time>2024-05-11T12:15:54Z</time>
      </trkpt>
      <trkpt lat="43.39143" lon="1.97157">
        <ele>277.8</ele>
        <time>2024-05-11T12:15:55Z</time>
      </trkpt>
      <trkpt lat="43.3914" lon="1.97159">
        <ele>277.8</ele>
        <time>2024-05-11T12:15:56Z</time>
      </trkpt>
      <trkpt lat="43.39134" lon="1.97165">
        <ele>277.2</ele>
        <time>2024-05-11T12:15:57Z</time>
      </trkpt>
      <trkpt lat="43.39127" lon="1.97171">
        <ele>276.2</ele>
        <time>2024-05-11T12:15:58Z</time>
      </trkpt>
      <trkpt lat="43.39121" lon="1.97177">
        <ele>275.5</ele>
        <time>2024-05-11T12:15:59Z</time>
      </trkpt>
      <trkpt lat="43.39113" lon="1.97184">
        <ele>275.3</ele>
        <time>2024-05-11T12:16:00Z</time>
      </trkpt>
      <trkpt lat="43.39103" lon="1.97193">
        <ele>274.5</ele>
        <time>2024-05-11T12:16:01Z</time>
      </trkpt>
      <trkpt lat="43.39091" lon="1.97203">
        <ele>272.3</ele>
        <time>2024-05-11T12:16:02Z</time>
      </trkpt>
      <trkpt lat="43.39078" lon="1.97214">
        <ele>272.8</ele>
        <time>2024-05-11T12:16:03Z</time>
      </trkpt>
      <trkpt lat="43.39064" lon="1.97225">
        <ele>274.3</ele>
        <time>2024-05-11T12:16:04Z</time>
      </trkpt>
      <trkpt lat="43.3905" lon="1.97236">
        <ele>275.1</ele>
        <time>2024-05-11T12:16:05Z</time>
      </trkpt>
      <trkpt lat="43.39034" lon="1.97248">
        <ele>275.1</ele>
        <time>2024-05-11T12:16:06Z</time>
      </trkpt>
      <trkpt lat="43.39018" lon="1.9726">
        <ele>274.9</ele>
        <time>2024-05-11T12:16:07Z</time>
      </trkpt>
      <trkpt lat="43.39001" lon="1.97272">
        <ele>274.2</ele>
        <time>2024-05-11T12:16:08Z</time>
      </trkpt>
      <trkpt lat="43.38983" lon="1.97285">
        <ele>273.4</ele>
        <time>2024-05-11T12:16:09Z</time>
      </trkpt>
      <trkpt lat="43.38964" lon="1.97298">
        <ele>272.6</ele>
        <time>2024-05-11T12:16:10Z</time>
      </trkpt>
      <trkpt lat="43.38943" lon="1.97312">
        <ele>271.2</ele>
        <time>2024-05-11T12:16:11Z</time>
      </trkpt>
      <trkpt lat="43.38921" lon="1.97326">
        <ele>270.9</ele>
        <time>2024-05-11T12:16:12Z</time>
      </trkpt>
      <trkpt lat="43.38899" lon="1.97339">
        <ele>269.8</ele>
        <time>2024-05-11T12:16:13Z</time>
      </trkpt>
      <trkpt lat="43.38877" lon="1.97352">
        <ele>269.2</ele>
        <time>2024-05-11T12:16:14Z</time>
      </trkpt>
      <trkpt lat="43.38853" lon="1.97365">
        <ele>268.1</ele>
        <time>2024-05-11T12:16:15Z</time>
      </trkpt>
      <trkpt lat="43.38829" lon="1.97377">
        <ele>265.9</ele>
        <time>2024-05-11T12:16:16Z</time>
      </trkpt>
      <trkpt lat="43.38804" lon="1.9739">
        <ele>265.8</ele>
        <time>2024-05-11T12:16:17Z</time>
      </trkpt>
      <trkpt lat="43.38778" lon="1.97402">
        <ele>264.1</ele>
        <time>2024-05-11T12:16:18Z</time>
      </trkpt>
      <trkpt lat="43.38751" lon="1.97414">
        <ele>264.1</ele>
        <time>2024-05-11T12:16:19Z</time>
      </trkpt>
      <trkpt lat="43.38724" lon="1.97425">
        <ele>263.1</ele>
        <time>2024-05-11T12:16:20Z</time>
      </trkpt>
      <trkpt lat="43.38696" lon="1.97435">
        <ele>263</ele>
        <time>2024-05-11T12:16:21Z</time>
      </trkpt>
      <trkpt lat="43.38669" lon="1.97446">
        <ele>260.4</ele>
        <time>2024-05-11T12:16:22Z</time>
      </trkpt>
      <trkpt lat="43.38641" lon="1.97455">
        <ele>260.8</ele>
        <time>2024-05-11T12:16:23Z</time>
      </trkpt>
      <trkpt lat="43.38612" lon="1.97464">
        <ele>259.4</ele>
        <time>2024-05-11T12:16:24Z</time>
      </trkpt>
      <trkpt lat="43.38584" lon="1.97472">
        <ele>256.1</ele>
        <time>2024-05-11T12:16:25Z</time>
      </trkpt>
      <trkpt lat="43.38556" lon="1.97479">
        <ele>255</ele>
        <time>2024-05-11T12:16:26Z</time>
      </trkpt>
      <trkpt lat="43.38527" lon="1.97485">
        <ele>254.4</ele>
        <time>2024-05-11T12:16:27Z</time>
      </trkpt>
      <trkpt lat="43.385" lon="1.9749">
        <ele>252.7</ele>
        <time>2024-05-11T12:16:28Z</time>
      </trkpt>
      <trkpt lat="43.38473" lon="1.97495">
        <ele>250.8</ele>
        <time>2024-05-11T12:16:29Z</time>
      </trkpt>
      <trkpt lat="43.38446" lon="1.97499">
        <ele>249.2</ele>
        <time>2024-05-11T12:16:30Z</time>
      </trkpt>
      <trkpt lat="43.38419" lon="1.97503">
        <ele>247.3</ele>
        <time>2024-05-11T12:16:31Z</time>
      </trkpt>
      <trkpt lat="43.38392" lon="1.97506">
        <ele>245.2</ele>
        <time>2024-05-11T12:16:32Z</time>
      </trkpt>
      <trkpt lat="43.38366" lon="1.9751">
        <ele>244.2</ele>
        <time>2024-05-11T12:16:33Z</time>
      </trkpt>
      <trkpt lat="43.3834" lon="1.97513">
        <ele>243.2</ele>
        <time>2024-05-11T12:16:34Z</time>
      </trkpt>
      <trkpt lat="43.38313" lon="1.97516">
        <ele>242</ele>
        <time>2024-05-11T12:16:35Z</time>
      </trkpt>
      <trkpt lat="43.38288" lon="1.9752">
        <ele>241.1</ele>
        <time>2024-05-11T12:16:36Z</time>
      </trkpt>
      <trkpt lat="43.38262" lon="1.97524">
        <ele>240.4</ele>
        <time>2024-05-11T12:16:37Z</time>
      </trkpt>
      <trkpt lat="43.38236" lon="1.97527">
        <ele>239.5</ele>
        <time>2024-05-11T12:16:38Z</time>
      </trkpt>
      <trkpt lat="43.38211" lon="1.97531">
        <ele>238.1</ele>
        <time>2024-05-11T12:16:39Z</time>
      </trkpt>
      <trkpt lat="43.38187" lon="1.97535">
        <ele>236.5</ele>
        <time>2024-05-11T12:16:40Z</time>
      </trkpt>
      <trkpt lat="43.38163" lon="1.97538">
        <ele>234.7</ele>
        <time>2024-05-11T12:16:41Z</time>
      </trkpt>
      <trkpt lat="43.3814" lon="1.97541">
        <ele>233.6</ele>
        <time>2024-05-11T12:16:42Z</time>
      </trkpt>
      <trkpt lat="43.38118" lon="1.97545">
        <ele>233.8</ele>
        <time>2024-05-11T12:16:43Z</time>
      </trkpt>
      <trkpt lat="43.38096" lon="1.97547">
        <ele>234.7</ele>
        <time>2024-05-11T12:16:44Z</time>
      </trkpt>
      <trkpt lat="43.38074" lon="1.9755">
        <ele>235.3</ele>
        <time>2024-05-11T12:16:45Z</time>
      </trkpt>
      <trkpt lat="43.38054" lon="1.97552">
        <ele>235.4</ele>
        <time>2024-05-11T12:16:46Z</time>
      </trkpt>
      <trkpt lat="43.38036" lon="1.97553">
        <ele>235.3</ele>
        <time>2024-05-11T12:16:47Z</time>
      </trkpt>
      <trkpt lat="43.38022" lon="1.97553">
        <ele>235.3</ele>
        <time>2024-05-11T12:16:48Z</time>
      </trkpt>
      <trkpt lat="43.38009" lon="1.97552">
        <ele>235.4</ele>
        <time>2024-05-11T12:16:49Z</time>
      </trkpt>
      <trkpt lat="43.37997" lon="1.97551">
        <ele>235.3</ele>
        <time>2024-05-11T12:16:50Z</time>
      </trkpt>
      <trkpt lat="43.37987" lon="1.9755">
        <ele>234.9</ele>
        <time>2024-05-11T12:16:51Z</time>
      </trkpt>
      <trkpt lat="43.37977" lon="1.97548">
        <ele>234.3</ele>
        <time>2024-05-11T12:16:52Z</time>
      </trkpt>
      <trkpt lat="43.37967" lon="1.97546">
        <ele>233.7</ele>
        <time>2024-05-11T12:16:53Z</time>
      </trkpt>
      <trkpt lat="43.37957" lon="1.97543">
        <ele>233.2</ele>
        <time>2024-05-11T12:16:54Z</time>
      </trkpt>
      <trkpt lat="43.37947" lon="1.9754">
        <ele>232.7</ele>
        <time>2024-05-11T12:16:55Z</time>
      </trkpt>
      <trkpt lat="43.37938" lon="1.97537">
        <ele>231.6</ele>
        <time>2024-05-11T12:16:56Z</time>
      </trkpt>
      <trkpt lat="43.37929" lon="1.97533">
        <ele>230.6</ele>
        <time>2024-05-11T12:16:57Z</time>
      </trkpt>
      <trkpt lat="43.37919" lon="1.97529">
        <ele>230</ele>
        <time>2024-05-11T12:16:58Z</time>
      </trkpt>
      <trkpt lat="43.3791" lon="1.97525">
        <ele>231.1</ele>
        <time>2024-05-11T12:16:59Z</time>
      </trkpt>
      <trkpt lat="43.37902" lon="1.9752">
        <ele>232.4</ele>
        <time>2024-05-11T12:17:00Z</time>
      </trkpt>
      <trkpt lat="43.37896" lon="1.97516">
        <ele>233.2</ele>
        <time>2024-05-11T12:17:01Z</time>
      </trkpt>
      <trkpt lat="43.37891" lon="1.97512">
        <ele>233.8</ele>
        <time>2024-05-11T12:17:02Z</time>
      </trkpt>
      <trkpt lat="43.37885" lon="1.97506">
        <ele>234.1</ele>
        <time>2024-05-11T12:17:03Z</time>
      </trkpt>
      <trkpt lat="43.37879" lon="1.97501">
        <ele>234.3</ele>
        <time>2024-05-11T12:17:04Z</time>
      </trkpt>
      <trkpt lat="43.37872" lon="1.97495">
        <ele>234.8</ele>
        <time>2024-05-11T12:17:05Z</time>
      </trkpt>
      <trkpt lat="43.37865" lon="1.9749">
        <ele>235</ele>
        <time>2024-05-11T12:17:06Z</time>
      </trkpt>
      <trkpt lat="43.37859" lon="1.97486">
        <ele>235</ele>
        <time>2024-05-11T12:17:07Z</time>
      </trkpt>
      <trkpt lat="43.37855" lon="1.97484">
        <ele>234.9</ele>
        <time>2024-05-11T12:17:08Z</time>
      </trkpt>
      <trkpt lat="43.37852" lon="1.97484">
        <ele>234.9</ele>
        <time>2024-05-11T12:17:09Z</time>
      </trkpt>
      <trkpt lat="43.37851" lon="1.97485">
        <ele>234.8</ele>
        <time>2024-05-11T12:17:10Z</time>
      </trkpt>
      <trkpt lat="43.3785" lon="1.97485">
        <ele>234.8</ele>
        <time>2024-05-11T12:17:11Z</time>
      </trkpt>
      <trkpt lat="43.37849" lon="1.97486">
        <ele>234.8</ele>
        <time>2024-05-11T12:17:12Z</time>
      </trkpt>
      <trkpt lat="43.37848" lon="1.97486">
        <ele>234.8</ele>
        <time>2024-05-11T12:17:13Z</time>
      </trkpt>
      <trkpt lat="43.37848" lon="1.97486">
        <ele>234.8</ele>
        <time>2024-05-11T12:17:14Z</time>
      </trkpt>
      <trkpt lat="43.37848" lon="1.97486">
        <ele>234.8</ele>
        <time>2024-05-11T12:17:15Z</time>
      </trkpt>
      <trkpt lat="43.37847" lon="1.97486">
        <ele>234.7</ele>
        <time>2024-05-11T12:17:16Z</time>
      </trkpt>
      <trkpt lat="43.37847" lon="1.9749">
        <ele>234.7</ele>
        <time>2024-05-11T12:17:17Z</time>
      </trkpt>
      <trkpt lat="43.37846" lon="1.97496">
        <ele>234.5</ele>
        <time>2024-05-11T12:17:18Z</time>
      </trkpt>
      <trkpt lat="43.37846" lon="1.97504">
        <ele>234.2</ele>
        <time>2024-05-11T12:17:19Z</time>
      </trkpt>
      <trkpt lat="43.37845" lon="1.97514">
        <ele>233.6</ele>
        <time>2024-05-11T12:17:20Z</time>
      </trkpt>
      <trkpt lat="43.37841" lon="1.97524">
        <ele>232.8</ele>
        <time>2024-05-11T12:17:21Z</time>
      </trkpt>
      <trkpt lat="43.37833" lon="1.97535">
        <ele>231.5</ele>
        <time>2024-05-11T12:17:22Z</time>
      </trkpt>
      <trkpt lat="43.37825" lon="1.97546">
        <ele>230.6</ele>
        <time>2024-05-11T12:17:23Z</time>
      </trkpt>
      <trkpt lat="43.37815" lon="1.97557">
        <ele>229.8</ele>
        <time>2024-05-11T12:17:24Z</time>
      </trkpt>
      <trkpt lat="43.37805" lon="1.9757">
        <ele>228.9</ele>
        <time>2024-05-11T12:17:25Z</time>
      </trkpt>
      <trkpt lat="43.37795" lon="1.97585">
        <ele>227.4</ele>
        <time>2024-05-11T12:17:26Z</time>
      </trkpt>
      <trkpt lat="43.37785" lon="1.97599">
        <ele>226.1</ele>
        <time>2024-05-11T12:17:27Z</time>
      </trkpt>
      <trkpt lat="43.37776" lon="1.97615">
        <ele>225.7</ele>
        <time>2024-05-11T12:17:28Z</time>
      </trkpt>
      <trkpt lat="43.37767" lon="1.9763">
        <ele>224.5</ele>
        <time>2024-05-11T12:17:29Z</time>
      </trkpt>
      <trkpt lat="43.37756" lon="1.97644">
        <ele>223.7</ele>
        <time>2024-05-11T12:17:30Z</time>
      </trkpt>
      <trkpt lat="43.37746" lon="1.97655">
        <ele>223.2</ele>
        <time>2024-05-11T12:17:31Z</time>
      </trkpt>
      <trkpt lat="43.37736" lon="1.97661">
        <ele>222.6</ele>
        <time>2024-05-11T12:17:32Z</time>
      </trkpt>
      <trkpt lat="43.37726" lon="1.97665">
        <ele>222.1</ele>
        <time>2024-05-11T12:17:33Z</time>
      </trkpt>
      <trkpt lat="43.37716" lon="1.97664">
        <ele>221.6</ele>
        <time>2024-05-11T12:17:34Z</time>
      </trkpt>
      <trkpt lat="43.37707" lon="1.97659">
        <ele>220.9</ele>
        <time>2024-05-11T12:17:35Z</time>
      </trkpt>
      <trkpt lat="43.377" lon="1.97651">
        <ele>220.4</ele>
        <time>2024-05-11T12:17:36Z</time>
      </trkpt>
      <trkpt lat="43.37693" lon="1.97639">
        <ele>219.8</ele>
        <time>2024-05-11T12:17:37Z</time>
      </trkpt>
      <trkpt lat="43.37685" lon="1.97625">
        <ele>218.8</ele>
        <time>2024-05-11T12:17:38Z</time>
      </trkpt>
      <trkpt lat="43.37676" lon="1.97609">
        <ele>218.1</ele>
        <time>2024-05-11T12:17:39Z</time>
      </trkpt>
      <trkpt lat="43.37665" lon="1.97591">
        <ele>217.5</ele>
        <time>2024-05-11T12:17:40Z</time>
      </trkpt>
      <trkpt lat="43.37652" lon="1.97572">
        <ele>216.6</ele>
        <time>2024-05-11T12:17:41Z</time>
      </trkpt>
      <trkpt lat="43.37638" lon="1.97551">
        <ele>215.9</ele>
        <time>2024-05-11T12:17:42Z</time>
      </trkpt>
      <trkpt lat="43.37624" lon="1.9753">
        <ele>214.4</ele>
        <time>2024-05-11T12:17:43Z</time>
      </trkpt>
      <trkpt lat="43.3761" lon="1.97508">
        <ele>212.9</ele>
        <time>2024-05-11T12:17:44Z</time>
      </trkpt>
      <trkpt lat="43.37595" lon="1.97486">
        <ele>211.8</ele>
        <time>2024-05-11T12:17:45Z</time>
      </trkpt>
      <trkpt lat="43.3758" lon="1.97465">
        <ele>210.9</ele>
        <time>2024-05-11T12:17:46Z</time>
      </trkpt>
      <trkpt lat="43.37567" lon="1.97447">
        <ele>209.6</ele>
        <time>2024-05-11T12:17:47Z</time>
      </trkpt>
      <trkpt lat="43.37555" lon="1.9743">
        <ele>208.4</ele>
        <time>2024-05-11T12:17:48Z</time>
      </trkpt>
      <trkpt lat="43.37544" lon="1.97414">
        <ele>207.4</ele>
        <time>2024-05-11T12:17:49Z</time>
      </trkpt>
      <trkpt lat="43.37534" lon="1.97402">
        <ele>206.3</ele>
        <time>2024-05-11T12:17:50Z</time>
      </trkpt>
      <trkpt lat="43.37526" lon="1.97391">
        <ele>205.9</ele>
        <time>2024-05-11T12:17:51Z</time>
      </trkpt>
      <trkpt lat="43.37517" lon="1.97385">
        <ele>206.5</ele>
        <time>2024-05-11T12:17:52Z</time>
      </trkpt>
      <trkpt lat="43.37508" lon="1.97381">
        <ele>207.1</ele>
        <time>2024-05-11T12:17:53Z</time>
      </trkpt>
      <trkpt lat="43.37497" lon="1.97381">
        <ele>207.1</ele>
        <time>2024-05-11T12:17:54Z</time>
      </trkpt>
      <trkpt lat="43.37485" lon="1.97382">
        <ele>207</ele>
        <time>2024-05-11T12:17:55Z</time>
      </trkpt>
      <trkpt lat="43.37472" lon="1.97386">
        <ele>206.4</ele>
        <time>2024-05-11T12:17:56Z</time>
      </trkpt>
      <trkpt lat="43.37459" lon="1.97392">
        <ele>205.8</ele>
        <time>2024-05-11T12:17:57Z</time>
      </trkpt>
      <trkpt lat="43.37445" lon="1.97401">
        <ele>204.7</ele>
        <time>2024-05-11T12:17:58Z</time>
      </trkpt>
      <trkpt lat="43.37431" lon="1.97412">
        <ele>203.1</ele>
        <time>2024-05-11T12:17:59Z</time>
      </trkpt>
      <trkpt lat="43.37417" lon="1.97428">
        <ele>201.6</ele>
        <time>2024-05-11T12:18:00Z</time>
      </trkpt>
      <trkpt lat="43.37404" lon="1.97446">
        <ele>200.5</ele>
        <time>2024-05-11T12:18:01Z</time>
      </trkpt>
      <trkpt lat="43.37393" lon="1.97469">
        <ele>199.3</ele>
        <time>2024-05-11T12:18:02Z</time>
      </trkpt>
      <trkpt lat="43.37382" lon="1.97495">
        <ele>196.6</ele>
        <time>2024-05-11T12:18:03Z</time>
      </trkpt>
      <trkpt lat="43.3737" lon="1.97522">
        <ele>195</ele>
        <time>2024-05-11T12:18:04Z</time>
      </trkpt>
      <trkpt lat="43.37357" lon="1.97551">
        <ele>193.8</ele>
        <time>2024-05-11T12:18:05Z</time>
      </trkpt>
      <trkpt lat="43.37344" lon="1.9758">
        <ele>192.4</ele>
        <time>2024-05-11T12:18:06Z</time>
      </trkpt>
      <trkpt lat="43.37331" lon="1.97609">
        <ele>191.9</ele>
        <time>2024-05-11T12:18:07Z</time>
      </trkpt>
      <trkpt lat="43.37317" lon="1.9764">
        <ele>191.4</ele>
        <time>2024-05-11T12:18:08Z</time>
      </trkpt>
      <trkpt lat="43.37304" lon="1.97671">
        <ele>191.7</ele>
        <time>2024-05-11T12:18:09Z</time>
      </trkpt>
      <trkpt lat="43.3729" lon="1.97701">
        <ele>190.6</ele>
        <time>2024-05-11T12:18:10Z</time>
      </trkpt>
      <trkpt lat="43.37277" lon="1.9773">
        <ele>190.7</ele>
        <time>2024-05-11T12:18:11Z</time>
      </trkpt>
      <trkpt lat="43.37264" lon="1.97758">
        <ele>189.5</ele>
        <time>2024-05-11T12:18:12Z</time>
      </trkpt>
      <trkpt lat="43.37252" lon="1.97785">
        <ele>189.3</ele>
        <time>2024-05-11T12:18:13Z</time>
      </trkpt>
      <trkpt lat="43.3724" lon="1.9781">
        <ele>190.1</ele>
        <time>2024-05-11T12:18:14Z</time>
      </trkpt>
      <trkpt lat="43.37228" lon="1.97836">
        <ele>190.8</ele>
        <time>2024-05-11T12:18:15Z</time>
      </trkpt>
      <trkpt lat="43.37217" lon="1.97862">
        <ele>191</ele>
        <time>2024-05-11T12:18:16Z</time>
      </trkpt>
      <trkpt lat="43.37204" lon="1.97889">
        <ele>191.7</ele>
        <time>2024-05-11T12:18:17Z</time>
      </trkpt>
      <trkpt lat="43.37192" lon="1.97918">
        <ele>192.2</ele>
        <time>2024-05-11T12:18:18Z</time>
      </trkpt>
      <trkpt lat="43.37179" lon="1.97946">
        <ele>193.6</ele>
        <time>2024-05-11T12:18:19Z</time>
      </trkpt>
      <trkpt lat="43.37167" lon="1.97974">
        <ele>195.1</ele>
        <time>2024-05-11T12:18:20Z</time>
      </trkpt>
      <trkpt lat="43.37154" lon="1.98001">
        <ele>197.1</ele>
        <time>2024-05-11T12:18:21Z</time>
      </trkpt>
      <trkpt lat="43.37142" lon="1.98028">
        <ele>198.4</ele>
        <time>2024-05-11T12:18:22Z</time>
      </trkpt>
      <trkpt lat="43.3713" lon="1.98053">
        <ele>200.4</ele>
        <time>2024-05-11T12:18:23Z</time>
      </trkpt>
      <trkpt lat="43.3712" lon="1.98079">
        <ele>201</ele>
        <time>2024-05-11T12:18:24Z</time>
      </trkpt>
      <trkpt lat="43.3711" lon="1.98104">
        <ele>201.3</ele>
        <time>2024-05-11T12:18:25Z</time>
      </trkpt>
      <trkpt lat="43.37101" lon="1.98128">
        <ele>201.9</ele>
        <time>2024-05-11T12:18:26Z</time>
      </trkpt>
      <trkpt lat="43.37093" lon="1.98152">
        <ele>201.4</ele>
        <time>2024-05-11T12:18:27Z</time>
      </trkpt>
      <trkpt lat="43.37085" lon="1.98174">
        <ele>200.8</ele>
        <time>2024-05-11T12:18:28Z</time>
      </trkpt>
      <trkpt lat="43.37077" lon="1.98196">
        <ele>201.1</ele>
        <time>2024-05-11T12:18:29Z</time>
      </trkpt>
      <trkpt lat="43.3707" lon="1.98218">
        <ele>200.1</ele>
        <time>2024-05-11T12:18:30Z</time>
      </trkpt>
      <trkpt lat="43.37062" lon="1.98241">
        <ele>199.8</ele>
        <time>2024-05-11T12:18:31Z</time>
      </trkpt>
      <trkpt lat="43.37055" lon="1.98264">
        <ele>200.5</ele>
        <time>2024-05-11T12:18:32Z</time>
      </trkpt>
      <trkpt lat="43.37047" lon="1.98286">
        <ele>201.4</ele>
        <time>2024-05-11T12:18:33Z</time>
      </trkpt>
      <trkpt lat="43.37041" lon="1.9831">
        <ele>202.2</ele>
        <time>2024-05-11T12:18:34Z</time>
      </trkpt>
      <trkpt lat="43.37036" lon="1.98335">
        <ele>203.4</ele>
        <time>2024-05-11T12:18:35Z</time>
      </trkpt>
      <trkpt lat="43.37031" lon="1.9836">
        <ele>203.8</ele>
        <time>2024-05-11T12:18:36Z</time>
      </trkpt>
      <trkpt lat="43.37026" lon="1.98385">
        <ele>205.1</ele>
        <time>2024-05-11T12:18:37Z</time>
      </trkpt>
      <trkpt lat="43.37019" lon="1.9841">
        <ele>205.9</ele>
        <time>2024-05-11T12:18:38Z</time>
      </trkpt>
      <trkpt lat="43.37012" lon="1.98434">
        <ele>206.7</ele>
        <time>2024-05-11T12:18:39Z</time>
      </trkpt>
      <trkpt lat="43.37004" lon="1.98457">
        <ele>207.2</ele>
        <time>2024-05-11T12:18:40Z</time>
      </trkpt>
      <trkpt lat="43.36996" lon="1.98478">
        <ele>207.7</ele>
        <time>2024-05-11T12:18:41Z</time>
      </trkpt>
      <trkpt lat="43.36988" lon="1.98498">
        <ele>208.8</ele>
        <time>2024-05-11T12:18:42Z</time>
      </trkpt>
      <trkpt lat="43.36981" lon="1.98518">
        <ele>209.3</ele>
        <time>2024-05-11T12:18:43Z</time>
      </trkpt>
      <trkpt lat="43.36973" lon="1.98537">
        <ele>209.9</ele>
        <time>2024-05-11T12:18:44Z</time>
      </trkpt>
      <trkpt lat="43.36965" lon="1.98557">
        <ele>211</ele>
        <time>2024-05-11T12:18:45Z</time>
      </trkpt>
      <trkpt lat="43.36957" lon="1.98577">
        <ele>211.8</ele>
        <time>2024-05-11T12:18:46Z</time>
      </trkpt>
      <trkpt lat="43.36951" lon="1.98596">
        <ele>212.3</ele>
        <time>2024-05-11T12:18:47Z</time>
      </trkpt>
      <trkpt lat="43.36945" lon="1.98614">
        <ele>212.9</ele>
        <time>2024-05-11T12:18:48Z</time>
      </trkpt>
      <trkpt lat="43.36939" lon="1.98631">
        <ele>213.8</ele>
        <time>2024-05-11T12:18:49Z</time>
      </trkpt>
      <trkpt lat="43.36934" lon="1.98649">
        <ele>214.1</ele>
        <time>2024-05-11T12:18:50Z</time>
      </trkpt>
      <trkpt lat="43.36928" lon="1.98665">
        <ele>214.4</ele>
        <time>2024-05-11T12:18:51Z</time>
      </trkpt>
      <trkpt lat="43.36922" lon="1.98681">
        <ele>214.8</ele>
        <time>2024-05-11T12:18:52Z</time>
      </trkpt>
      <trkpt lat="43.36916" lon="1.98694">
        <ele>215.1</ele>
        <time>2024-05-11T12:18:53Z</time>
      </trkpt>
      <trkpt lat="43.36911" lon="1.98705">
        <ele>215.7</ele>
        <time>2024-05-11T12:18:54Z</time>
      </trkpt>
      <trkpt lat="43.36906" lon="1.98715">
        <ele>216.3</ele>
        <time>2024-05-11T12:18:55Z</time>
      </trkpt>
      <trkpt lat="43.36901" lon="1.98724">
        <ele>216.7</ele>
        <time>2024-05-11T12:18:56Z</time>
      </trkpt>
      <trkpt lat="43.36896" lon="1.98732">
        <ele>217</ele>
        <time>2024-05-11T12:18:57Z</time>
      </trkpt>
      <trkpt lat="43.36892" lon="1.98737">
        <ele>217.2</ele>
        <time>2024-05-11T12:18:58Z</time>
      </trkpt>
      <trkpt lat="43.36889" lon="1.98741">
        <ele>217.3</ele>
        <time>2024-05-11T12:18:59Z</time>
      </trkpt>
      <trkpt lat="43.36887" lon="1.98744">
        <ele>217.4</ele>
        <time>2024-05-11T12:19:00Z</time>
      </trkpt>
      <trkpt lat="43.36884" lon="1.98746">
        <ele>217.6</ele>
        <time>2024-05-11T12:19:01Z</time>
      </trkpt>
      <trkpt lat="43.36882" lon="1.98749">
        <ele>217.8</ele>
        <time>2024-05-11T12:19:02Z</time>
      </trkpt>
      <trkpt lat="43.36879" lon="1.98752">
        <ele>218</ele>
        <time>2024-05-11T12:19:03Z</time>
      </trkpt>
      <trkpt lat="43.36876" lon="1.98755">
        <ele>218.3</ele>
        <time>2024-05-11T12:19:04Z</time>
      </trkpt>
      <trkpt lat="43.36872" lon="1.98759">
        <ele>218.6</ele>
        <time>2024-05-11T12:19:05Z</time>
      </trkpt>
      <trkpt lat="43.36869" lon="1.98763">
        <ele>218.8</ele>
        <time>2024-05-11T12:19:06Z</time>
      </trkpt>
      <trkpt lat="43.36865" lon="1.98766">
        <ele>219.1</ele>
        <time>2024-05-11T12:19:07Z</time>
      </trkpt>
      <trkpt lat="43.36862" lon="1.98769">
        <ele>219.2</ele>
        <time>2024-05-11T12:19:08Z</time>
      </trkpt>
      <trkpt lat="43.36859" lon="1.98772">
        <ele>219.3</ele>
        <time>2024-05-11T12:19:09Z</time>
      </trkpt>
      <trkpt lat="43.36855" lon="1.98776">
        <ele>219.3</ele>
        <time>2024-05-11T12:19:10Z</time>
      </trkpt>
      <trkpt lat="43.36851" lon="1.98781">
        <ele>219.4</ele>
        <time>2024-05-11T12:19:11Z</time>
      </trkpt>
      <trkpt lat="43.36846" lon="1.98785">
        <ele>219.8</ele>
        <time>2024-05-11T12:19:12Z</time>
      </trkpt>
      <trkpt lat="43.3684" lon="1.98789">
        <ele>220.4</ele>
        <time>2024-05-11T12:19:13Z</time>
      </trkpt>
      <trkpt lat="43.36833" lon="1.98792">
        <ele>221</ele>
        <time>2024-05-11T12:19:14Z</time>
      </trkpt>
      <trkpt lat="43.36827" lon="1.98794">
        <ele>220.9</ele>
        <time>2024-05-11T12:19:15Z</time>
      </trkpt>
      <trkpt lat="43.36818" lon="1.98797">
        <ele>220.8</ele>
        <time>2024-05-11T12:19:16Z</time>
      </trkpt>
      <trkpt lat="43.3681" lon="1.988">
        <ele>220.8</ele>
        <time>2024-05-11T12:19:17Z</time>
      </trkpt>
      <trkpt lat="43.36801" lon="1.98805">
        <ele>220.6</ele>
        <time>2024-05-11T12:19:18Z</time>
      </trkpt>
      <trkpt lat="43.3679" lon="1.98812">
        <ele>220.8</ele>
        <time>2024-05-11T12:19:19Z</time>
      </trkpt>
      <trkpt lat="43.36779" lon="1.98819">
        <ele>221.5</ele>
        <time>2024-05-11T12:19:20Z</time>
      </trkpt>
      <trkpt lat="43.36767" lon="1.98827">
        <ele>221.8</ele>
        <time>2024-05-11T12:19:21Z</time>
      </trkpt>
      <trkpt lat="43.36756" lon="1.98835">
        <ele>221.9</ele>
        <time>2024-05-11T12:19:22Z</time>
      </trkpt>
      <trkpt lat="43.36743" lon="1.98844">
        <ele>221.9</ele>
        <time>2024-05-11T12:19:23Z</time>
      </trkpt>
      <trkpt lat="43.3673" lon="1.98855">
        <ele>222</ele>
        <time>2024-05-11T12:19:24Z</time>
      </trkpt>
      <trkpt lat="43.36717" lon="1.98869">
        <ele>223.1</ele>
        <time>2024-05-11T12:19:25Z</time>
      </trkpt>
      <trkpt lat="43.36705" lon="1.98883">
        <ele>223.6</ele>
        <time>2024-05-11T12:19:26Z</time>
      </trkpt>
      <trkpt lat="43.36693" lon="1.98898">
        <ele>223.7</ele>
        <time>2024-05-11T12:19:27Z</time>
      </trkpt>
      <trkpt lat="43.36681" lon="1.98915">
        <ele>224.3</ele>
        <time>2024-05-11T12:19:28Z</time>
      </trkpt>
      <trkpt lat="43.36669" lon="1.9893">
        <ele>223.5</ele>
        <time>2024-05-11T12:19:29Z</time>
      </trkpt>
      <trkpt lat="43.36657" lon="1.98945">
        <ele>224.1</ele>
        <time>2024-05-11T12:19:30Z</time>
      </trkpt>
      <trkpt lat="43.36644" lon="1.98958">
        <ele>224.4</ele>
        <time>2024-05-11T12:19:31Z</time>
      </trkpt>
      <trkpt lat="43.36632" lon="1.98972">
        <ele>224.2</ele>
        <time>2024-05-11T12:19:32Z</time>
      </trkpt>
      <trkpt lat="43.3662" lon="1.98985">
        <ele>224.8</ele>
        <time>2024-05-11T12:19:33Z</time>
      </trkpt>
      <trkpt lat="43.3661" lon="1.98998">
        <ele>225.6</ele>
        <time>2024-05-11T12:19:34Z</time>
      </trkpt>
      <trkpt lat="43.36601" lon="1.99012">
        <ele>225.7</ele>
        <time>2024-05-11T12:19:35Z</time>
      </trkpt>
      <trkpt lat="43.36593" lon="1.99025">
        <ele>225.5</ele>
        <time>2024-05-11T12:19:36Z</time>
      </trkpt>
      <trkpt lat="43.36586" lon="1.99039">
        <ele>225.7</ele>
        <time>2024-05-11T12:19:37Z</time>
      </trkpt>
      <trkpt lat="43.3658" lon="1.99052">
        <ele>226</ele>
        <time>2024-05-11T12:19:38Z</time>
      </trkpt>
      <trkpt lat="43.36574" lon="1.99065">
        <ele>226.1</ele>
        <time>2024-05-11T12:19:39Z</time>
      </trkpt>
      <trkpt lat="43.36568" lon="1.99078">
        <ele>226.3</ele>
        <time>2024-05-11T12:19:40Z</time>
      </trkpt>
      <trkpt lat="43.36562" lon="1.99089">
        <ele>226.3</ele>
        <time>2024-05-11T12:19:41Z</time>
      </trkpt>
      <trkpt lat="43.36557" lon="1.99101">
        <ele>226.5</ele>
        <time>2024-05-11T12:19:42Z</time>
      </trkpt>
      <trkpt lat="43.36553" lon="1.99112">
        <ele>226.7</ele>
        <time>2024-05-11T12:19:43Z</time>
      </trkpt>
      <trkpt lat="43.36549" lon="1.99123">
        <ele>226.9</ele>
        <time>2024-05-11T12:19:44Z</time>
      </trkpt>
      <trkpt lat="43.36547" lon="1.99133">
        <ele>227.3</ele>
        <time>2024-05-11T12:19:45Z</time>
      </trkpt>
      <trkpt lat="43.36546" lon="1.9914">
        <ele>227.6</ele>
        <time>2024-05-11T12:19:46Z</time>
      </trkpt>
      <trkpt lat="43.36546" lon="1.99147">
        <ele>227.5</ele>
        <time>2024-05-11T12:19:47Z</time>
      </trkpt>
      <trkpt lat="43.36546" lon="1.99153">
        <ele>227.5</ele>
        <time>2024-05-11T12:19:48Z</time>
      </trkpt>
      <trkpt lat="43.36547" lon="1.99158">
        <ele>227.5</ele>
        <time>2024-05-11T12:19:49Z</time>
      </trkpt>
      <trkpt lat="43.36548" lon="1.99164">
        <ele>227.5</ele>
        <time>2024-05-11T12:19:50Z</time>
      </trkpt>
      <trkpt lat="43.36548" lon="1.99171">
        <ele>227.6</ele>
        <time>2024-05-11T12:19:51Z</time>
      </trkpt>
      <trkpt lat="43.36549" lon="1.99179">
        <ele>227.9</ele>
        <time>2024-05-11T12:19:52Z</time>
      </trkpt>
      <trkpt lat="43.3655" lon="1.99188">
        <ele>228.2</ele>
        <time>2024-05-11T12:19:53Z</time>
      </trkpt>
      <trkpt lat="43.36549" lon="1.99197">
        <ele>228.4</ele>
        <time>2024-05-11T12:19:54Z</time>
      </trkpt>
      <trkpt lat="43.36549" lon="1.99206">
        <ele>228.6</ele>
        <time>2024-05-11T12:19:55Z</time>
      </trkpt>
      <trkpt lat="43.36546" lon="1.99215">
        <ele>228.5</ele>
        <time>2024-05-11T12:19:56Z</time>
      </trkpt>
      <trkpt lat="43.36543" lon="1.99224">
        <ele>228.2</ele>
        <time>2024-05-11T12:19:57Z</time>
      </trkpt>
      <trkpt lat="43.36539" lon="1.99234">
        <ele>228.1</ele>
        <time>2024-05-11T12:19:58Z</time>
      </trkpt>
      <trkpt lat="43.36535" lon="1.99246">
        <ele>228.3</ele>
        <time>2024-05-11T12:19:59Z</time>
      </trkpt>
      <trkpt lat="43.3653" lon="1.99258">
        <ele>228.7</ele>
        <time>2024-05-11T12:20:00Z</time>
      </trkpt>
      <trkpt lat="43.36526" lon="1.9927">
        <ele>229.4</ele>
        <time>2024-05-11T12:20:01Z</time>
      </trkpt>
      <trkpt lat="43.36521" lon="1.99282">
        <ele>230.1</ele>
        <time>2024-05-11T12:20:02Z</time>
      </trkpt>
      <trkpt lat="43.36516" lon="1.99295">
        <ele>230.6</ele>
        <time>2024-05-11T12:20:03Z</time>
      </trkpt>
      <trkpt lat="43.3651" lon="1.99309">
        <ele>230.6</ele>
        <time>2024-05-11T12:20:04Z</time>
      </trkpt>
      <trkpt lat="43.36504" lon="1.99323">
        <ele>230.7</ele>
        <time>2024-05-11T12:20:05Z</time>
      </trkpt>
      <trkpt lat="43.36495" lon="1.99338">
        <ele>231.3</ele>
        <time>2024-05-11T12:20:06Z</time>
      </trkpt>
      <trkpt lat="43.36486" lon="1.99352">
        <ele>231.8</ele>
        <time>2024-05-11T12:20:07Z</time>
      </trkpt>
      <trkpt lat="43.36476" lon="1.99366">
        <ele>231.6</ele>
        <time>2024-05-11T12:20:08Z</time>
      </trkpt>
      <trkpt lat="43.36466" lon="1.99376">
        <ele>231.1</ele>
        <time>2024-05-11T12:20:09Z</time>
      </trkpt>
      <trkpt lat="43.36455" lon="1.99385">
        <ele>230.6</ele>
        <time>2024-05-11T12:20:10Z</time>
      </trkpt>
      <trkpt lat="43.36443" lon="1.99394">
        <ele>230.1</ele>
        <time>2024-05-11T12:20:11Z</time>
      </trkpt>
      <trkpt lat="43.36431" lon="1.99403">
        <ele>229.8</ele>
        <time>2024-05-11T12:20:12Z</time>
      </trkpt>
      <trkpt lat="43.36419" lon="1.99412">
        <ele>229.2</ele>
        <time>2024-05-11T12:20:13Z</time>
      </trkpt>
      <trkpt lat="43.36409" lon="1.99423">
        <ele>229</ele>
        <time>2024-05-11T12:20:14Z</time>
      </trkpt>
      <trkpt lat="43.36398" lon="1.99436">
        <ele>229</ele>
        <time>2024-05-11T12:20:15Z</time>
      </trkpt>
      <trkpt lat="43.3639" lon="1.9945">
        <ele>228.6</ele>
        <time>2024-05-11T12:20:16Z</time>
      </trkpt>
      <trkpt lat="43.36384" lon="1.99467">
        <ele>227.5</ele>
        <time>2024-05-11T12:20:17Z</time>
      </trkpt>
      <trkpt lat="43.36379" lon="1.99485">
        <ele>227.2</ele>
        <time>2024-05-11T12:20:18Z</time>
      </trkpt>
      <trkpt lat="43.36374" lon="1.99504">
        <ele>226.8</ele>
        <time>2024-05-11T12:20:19Z</time>
      </trkpt>
      <trkpt lat="43.36369" lon="1.99523">
        <ele>225.6</ele>
        <time>2024-05-11T12:20:20Z</time>
      </trkpt>
      <trkpt lat="43.36365" lon="1.99541">
        <ele>224.7</ele>
        <time>2024-05-11T12:20:21Z</time>
      </trkpt>
      <trkpt lat="43.3636" lon="1.9956">
        <ele>223.6</ele>
        <time>2024-05-11T12:20:22Z</time>
      </trkpt>
      <trkpt lat="43.36355" lon="1.99578">
        <ele>222.2</ele>
        <time>2024-05-11T12:20:23Z</time>
      </trkpt>
      <trkpt lat="43.36349" lon="1.99597">
        <ele>221.1</ele>
        <time>2024-05-11T12:20:24Z</time>
      </trkpt>
      <trkpt lat="43.36342" lon="1.99614">
        <ele>220.2</ele>
        <time>2024-05-11T12:20:25Z</time>
      </trkpt>
      <trkpt lat="43.36334" lon="1.99631">
        <ele>219.5</ele>
        <time>2024-05-11T12:20:26Z</time>
      </trkpt>
      <trkpt lat="43.36325" lon="1.99646">
        <ele>218.4</ele>
        <time>2024-05-11T12:20:27Z</time>
      </trkpt>
      <trkpt lat="43.36315" lon="1.99663">
        <ele>216.8</ele>
        <time>2024-05-11T12:20:28Z</time>
      </trkpt>
      <trkpt lat="43.36305" lon="1.9968">
        <ele>215.6</ele>
        <time>2024-05-11T12:20:29Z</time>
      </trkpt>
      <trkpt lat="43.36294" lon="1.99696">
        <ele>215.1</ele>
        <time>2024-05-11T12:20:30Z</time>
      </trkpt>
      <trkpt lat="43.36283" lon="1.99713">
        <ele>214</ele>
        <time>2024-05-11T12:20:31Z</time>
      </trkpt>
      <trkpt lat="43.36272" lon="1.99729">
        <ele>213.1</ele>
        <time>2024-05-11T12:20:32Z</time>
      </trkpt>
      <trkpt lat="43.36262" lon="1.99744">
        <ele>212.7</ele>
        <time>2024-05-11T12:20:33Z</time>
      </trkpt>
      <trkpt lat="43.36251" lon="1.99758">
        <ele>212.4</ele>
        <time>2024-05-11T12:20:34Z</time>
      </trkpt>
      <trkpt lat="43.3624" lon="1.99772">
        <ele>211.9</ele>
        <time>2024-05-11T12:20:35Z</time>
      </trkpt>
      <trkpt lat="43.36228" lon="1.99784">
        <ele>211.2</ele>
        <time>2024-05-11T12:20:36Z</time>
      </trkpt>
      <trkpt lat="43.36216" lon="1.99797">
        <ele>210.4</ele>
        <time>2024-05-11T12:20:37Z</time>
      </trkpt>
      <trkpt lat="43.36204" lon="1.9981">
        <ele>209.8</ele>
        <time>2024-05-11T12:20:38Z</time>
      </trkpt>
      <trkpt lat="43.36192" lon="1.99823">
        <ele>208.8</ele>
        <time>2024-05-11T12:20:39Z</time>
      </trkpt>
      <trkpt lat="43.3618" lon="1.99836">
        <ele>208.2</ele>
        <time>2024-05-11T12:20:40Z</time>
      </trkpt>
      <trkpt lat="43.36168" lon="1.99849">
        <ele>207.1</ele>
        <time>2024-05-11T12:20:41Z</time>
      </trkpt>
      <trkpt lat="43.36156" lon="1.99861">
        <ele>206.2</ele>
        <time>2024-05-11T12:20:42Z</time>
      </trkpt>
      <trkpt lat="43.36144" lon="1.99873">
        <ele>205.8</ele>
        <time>2024-05-11T12:20:43Z</time>
      </trkpt>
      <trkpt lat="43.36131" lon="1.99885">
        <ele>204.8</ele>
        <time>2024-05-11T12:20:44Z</time>
      </trkpt>
      <trkpt lat="43.36117" lon="1.99896">
        <ele>203.8</ele>
        <time>2024-05-11T12:20:45Z</time>
      </trkpt>
      <trkpt lat="43.36104" lon="1.99907">
        <ele>202.7</ele>
        <time>2024-05-11T12:20:46Z</time>
      </trkpt>
      <trkpt lat="43.36089" lon="1.99919">
        <ele>201.6</ele>
        <time>2024-05-11T12:20:47Z</time>
      </trkpt>
      <trkpt lat="43.36075" lon="1.9993">
        <ele>201.3</ele>
        <time>2024-05-11T12:20:48Z</time>
      </trkpt>
      <trkpt lat="43.36061" lon="1.99941">
        <ele>200.5</ele>
        <time>2024-05-11T12:20:49Z</time>
      </trkpt>
      <trkpt lat="43.36047" lon="1.99951">
        <ele>200.3</ele>
        <time>2024-05-11T12:20:50Z</time>
      </trkpt>
      <trkpt lat="43.36033" lon="1.99961">
        <ele>200</ele>
        <time>2024-05-11T12:20:51Z</time>
      </trkpt>
      <trkpt lat="43.3602" lon="1.99971">
        <ele>198.8</ele>
        <time>2024-05-11T12:20:52Z</time>
      </trkpt>
      <trkpt lat="43.36007" lon="1.99981">
        <ele>198.3</ele>
        <time>2024-05-11T12:20:53Z</time>
      </trkpt>
      <trkpt lat="43.35993" lon="1.99991">
        <ele>197.8</ele>
        <time>2024-05-11T12:20:54Z</time>
      </trkpt>
      <trkpt lat="43.35979" lon="2">
        <ele>196.8</ele>
        <time>2024-05-11T12:20:55Z</time>
      </trkpt>
      <trkpt lat="43.35965" lon="2.0001">
        <ele>196.4</ele>
        <time>2024-05-11T12:20:56Z</time>
      </trkpt>
      <trkpt lat="43.3595" lon="2.0002">
        <ele>195.5</ele>
        <time>2024-05-11T12:20:57Z</time>
      </trkpt>
      <trkpt lat="43.35934" lon="2.00029">
        <ele>194.3</ele>
        <time>2024-05-11T12:20:58Z</time>
      </trkpt>
      <trkpt lat="43.35918" lon="2.00038">
        <ele>193.5</ele>
        <time>2024-05-11T12:20:59Z</time>
      </trkpt>
      <trkpt lat="43.35902" lon="2.00047">
        <ele>192.8</ele>
        <time>2024-05-11T12:21:00Z</time>
      </trkpt>
      <trkpt lat="43.35885" lon="2.00056">
        <ele>192.1</ele>
        <time>2024-05-11T12:21:01Z</time>
      </trkpt>
      <trkpt lat="43.35869" lon="2.00065">
        <ele>191.8</ele>
        <time>2024-05-11T12:21:02Z</time>
      </trkpt>
      <trkpt lat="43.35853" lon="2.00073">
        <ele>191.2</ele>
        <time>2024-05-11T12:21:03Z</time>
      </trkpt>
      <trkpt lat="43.35837" lon="2.00081">
        <ele>190.3</ele>
        <time>2024-05-11T12:21:04Z</time>
      </trkpt>
      <trkpt lat="43.35821" lon="2.0009">
        <ele>190.3</ele>
        <time>2024-05-11T12:21:05Z</time>
      </trkpt>
      <trkpt lat="43.35804" lon="2.00099">
        <ele>190.3</ele>
        <time>2024-05-11T12:21:06Z</time>
      </trkpt>
      <trkpt lat="43.35786" lon="2.00108">
        <ele>190</ele>
        <time>2024-05-11T12:21:07Z</time>
      </trkpt>
      <trkpt lat="43.35767" lon="2.00118">
        <ele>189.8</ele>
        <time>2024-05-11T12:21:08Z</time>
      </trkpt>
      <trkpt lat="43.35747" lon="2.00128">
        <ele>189.2</ele>
        <time>2024-05-11T12:21:09Z</time>
      </trkpt>
      <trkpt lat="43.35726" lon="2.00139">
        <ele>188.9</ele>
        <time>2024-05-11T12:21:10Z</time>
      </trkpt>
      <trkpt lat="43.35704" lon="2.0015">
        <ele>189.2</ele>
        <time>2024-05-11T12:21:11Z</time>
      </trkpt>
      <trkpt lat="43.35683" lon="2.00162">
        <ele>188.8</ele>
        <time>2024-05-11T12:21:12Z</time>
      </trkpt>
      <trkpt lat="43.35661" lon="2.00173">
        <ele>188.7</ele>
        <time>2024-05-11T12:21:13Z</time>
      </trkpt>
      <trkpt lat="43.35639" lon="2.00185">
        <ele>188</ele>
        <time>2024-05-11T12:21:14Z</time>
      </trkpt>
      <trkpt lat="43.35616" lon="2.00197">
        <ele>187.7</ele>
        <time>2024-05-11T12:21:15Z</time>
      </trkpt>
      <trkpt lat="43.35593" lon="2.00209">
        <ele>187.6</ele>
        <time>2024-05-11T12:21:16Z</time>
      </trkpt>
      <trkpt lat="43.35569" lon="2.00222">
        <ele>187.6</ele>
        <time>2024-05-11T12:21:17Z</time>
      </trkpt>
      <trkpt lat="43.35546" lon="2.00234">
        <ele>187.9</ele>
        <time>2024-05-11T12:21:18Z</time>
      </trkpt>
      <trkpt lat="43.35524" lon="2.00246">
        <ele>187.5</ele>
        <time>2024-05-11T12:21:19Z</time>
      </trkpt>
      <trkpt lat="43.35502" lon="2.00258">
        <ele>188.3</ele>
        <time>2024-05-11T12:21:20Z</time>
      </trkpt>
      <trkpt lat="43.35482" lon="2.00269">
        <ele>187.8</ele>
        <time>2024-05-11T12:21:21Z</time>
      </trkpt>
      <trkpt lat="43.35463" lon="2.00279">
        <ele>187.6</ele>
        <time>2024-05-11T12:21:22Z</time>
      </trkpt>
      <trkpt lat="43.35449" lon="2.00289">
        <ele>187.9</ele>
        <time>2024-05-11T12:21:23Z</time>
      </trkpt>
      <trkpt lat="43.35438" lon="2.00301">
        <ele>188</ele>
        <time>2024-05-11T12:21:24Z</time>
      </trkpt>
      <trkpt lat="43.3543" lon="2.00316">
        <ele>188</ele>
        <time>2024-05-11T12:21:25Z</time>
      </trkpt>
      <trkpt lat="43.35422" lon="2.00333">
        <ele>187.6</ele>
        <time>2024-05-11T12:21:26Z</time>
      </trkpt>
      <trkpt lat="43.35414" lon="2.00351">
        <ele>187</ele>
        <time>2024-05-11T12:21:27Z</time>
      </trkpt>
      <trkpt lat="43.35404" lon="2.00368">
        <ele>186.4</ele>
        <time>2024-05-11T12:21:28Z</time>
      </trkpt>
      <trkpt lat="43.35393" lon="2.00384">
        <ele>186.1</ele>
        <time>2024-05-11T12:21:29Z</time>
      </trkpt>
      <trkpt lat="43.3538" lon="2.00399">
        <ele>186</ele>
        <time>2024-05-11T12:21:30Z</time>
      </trkpt>
      <trkpt lat="43.35365" lon="2.00412">
        <ele>186</ele>
        <time>2024-05-11T12:21:31Z</time>
      </trkpt>
      <trkpt lat="43.35349" lon="2.00426">
        <ele>186</ele>
        <time>2024-05-11T12:21:32Z</time>
      </trkpt>
      <trkpt lat="43.35333" lon="2.0044">
        <ele>185.3</ele>
        <time>2024-05-11T12:21:33Z</time>
      </trkpt>
      <trkpt lat="43.35317" lon="2.00454">
        <ele>185.6</ele>
        <time>2024-05-11T12:21:34Z</time>
      </trkpt>
      <trkpt lat="43.35302" lon="2.00467">
        <ele>185.5</ele>
        <time>2024-05-11T12:21:35Z</time>
      </trkpt>
      <trkpt lat="43.35286" lon="2.00479">
        <ele>185.3</ele>
        <time>2024-05-11T12:21:36Z</time>
      </trkpt>
      <trkpt lat="43.35271" lon="2.0049">
        <ele>184.7</ele>
        <time>2024-05-11T12:21:37Z</time>
      </trkpt>
      <trkpt lat="43.35255" lon="2.00499">
        <ele>184.1</ele>
        <time>2024-05-11T12:21:38Z</time>
      </trkpt>
      <trkpt lat="43.3524" lon="2.00507">
        <ele>184</ele>
        <time>2024-05-11T12:21:39Z</time>
      </trkpt>
      <trkpt lat="43.35226" lon="2.00515">
        <ele>183.9</ele>
        <time>2024-05-11T12:21:40Z</time>
      </trkpt>
      <trkpt lat="43.35211" lon="2.00522">
        <ele>183.4</ele>
        <time>2024-05-11T12:21:41Z</time>
      </trkpt>
      <trkpt lat="43.35197" lon="2.00528">
        <ele>183</ele>
        <time>2024-05-11T12:21:42Z</time>
      </trkpt>
      <trkpt lat="43.35183" lon="2.00534">
        <ele>183.4</ele>
        <time>2024-05-11T12:21:43Z</time>
      </trkpt>
      <trkpt lat="43.35169" lon="2.00539">
        <ele>183.7</ele>
        <time>2024-05-11T12:21:44Z</time>
      </trkpt>
      <trkpt lat="43.35153" lon="2.00543">
        <ele>183.1</ele>
        <time>2024-05-11T12:21:45Z</time>
      </trkpt>
      <trkpt lat="43.35138" lon="2.00546">
        <ele>182.7</ele>
        <time>2024-05-11T12:21:46Z</time>
      </trkpt>
      <trkpt lat="43.35121" lon="2.00549">
        <ele>182.5</ele>
        <time>2024-05-11T12:21:47Z</time>
      </trkpt>
      <trkpt lat="43.35105" lon="2.00552">
        <ele>182.3</ele>
        <time>2024-05-11T12:21:48Z</time>
      </trkpt>
      <trkpt lat="43.35089" lon="2.00557">
        <ele>181.9</ele>
        <time>2024-05-11T12:21:49Z</time>
      </trkpt>
      <trkpt lat="43.35072" lon="2.00562">
        <ele>182.1</ele>
        <time>2024-05-11T12:21:50Z</time>
      </trkpt>
      <trkpt lat="43.35056" lon="2.0057">
        <ele>182</ele>
        <time>2024-05-11T12:21:51Z</time>
      </trkpt>
      <trkpt lat="43.3504" lon="2.00579">
        <ele>181.3</ele>
        <time>2024-05-11T12:21:52Z</time>
      </trkpt>
      <trkpt lat="43.35024" lon="2.00589">
        <ele>180.9</ele>
        <time>2024-05-11T12:21:53Z</time>
      </trkpt>
      <trkpt lat="43.35009" lon="2.00598">
        <ele>180.8</ele>
        <time>2024-05-11T12:21:54Z</time>
      </trkpt>
      <trkpt lat="43.34995" lon="2.00607">
        <ele>180.3</ele>
        <time>2024-05-11T12:21:55Z</time>
      </trkpt>
      <trkpt lat="43.3498" lon="2.00616">
        <ele>180</ele>
        <time>2024-05-11T12:21:56Z</time>
      </trkpt>
      <trkpt lat="43.34969" lon="2.00625">
        <ele>179.9</ele>
        <time>2024-05-11T12:21:57Z</time>
      </trkpt>
      <trkpt lat="43.3496" lon="2.00636">
        <ele>179.6</ele>
        <time>2024-05-11T12:21:58Z</time>
      </trkpt>
      <trkpt lat="43.34955" lon="2.00648">
        <ele>179.4</ele>
        <time>2024-05-11T12:21:59Z</time>
      </trkpt>
      <trkpt lat="43.34953" lon="2.00662">
        <ele>179.3</ele>
        <time>2024-05-11T12:22:00Z</time>
      </trkpt>
      <trkpt lat="43.34956" lon="2.00674">
        <ele>179.4</ele>
        <time>2024-05-11T12:22:01Z</time>
      </trkpt>
      <trkpt lat="43.3496" lon="2.00687">
        <ele>179.6</ele>
        <time>2024-05-11T12:22:02Z</time>
      </trkpt>
      <trkpt lat="43.34965" lon="2.007">
        <ele>179.7</ele>
        <time>2024-05-11T12:22:03Z</time>
      </trkpt>
      <trkpt lat="43.3497" lon="2.00713">
        <ele>179.9</ele>
        <time>2024-05-11T12:22:04Z</time>
      </trkpt>
      <trkpt lat="43.34975" lon="2.00728">
        <ele>180</ele>
        <time>2024-05-11T12:22:05Z</time>
      </trkpt>
      <trkpt lat="43.34978" lon="2.00742">
        <ele>180.1</ele>
        <time>2024-05-11T12:22:06Z</time>
      </trkpt>
      <trkpt lat="43.34977" lon="2.00757">
        <ele>180.5</ele>
        <time>2024-05-11T12:22:07Z</time>
      </trkpt>
      <trkpt lat="43.34973" lon="2.0077">
        <ele>180.8</ele>
        <time>2024-05-11T12:22:08Z</time>
      </trkpt>
      <trkpt lat="43.34965" lon="2.0078">
        <ele>181</ele>
        <time>2024-05-11T12:22:09Z</time>
      </trkpt>
      <trkpt lat="43.34955" lon="2.0079">
        <ele>181.7</ele>
        <time>2024-05-11T12:22:10Z</time>
      </trkpt>
      <trkpt lat="43.34944" lon="2.00799">
        <ele>182.3</ele>
        <time>2024-05-11T12:22:11Z</time>
      </trkpt>
      <trkpt lat="43.34932" lon="2.00808">
        <ele>182.4</ele>
        <time>2024-05-11T12:22:12Z</time>
      </trkpt>
      <trkpt lat="43.34919" lon="2.00819">
        <ele>182.7</ele>
        <time>2024-05-11T12:22:13Z</time>
      </trkpt>
      <trkpt lat="43.34906" lon="2.00832">
        <ele>182.7</ele>
        <time>2024-05-11T12:22:14Z</time>
      </trkpt>
      <trkpt lat="43.34894" lon="2.00848">
        <ele>183.2</ele>
        <time>2024-05-11T12:22:15Z</time>
      </trkpt>
      <trkpt lat="43.34883" lon="2.00867">
        <ele>183.7</ele>
        <time>2024-05-11T12:22:16Z</time>
      </trkpt>
      <trkpt lat="43.34872" lon="2.00887">
        <ele>183.8</ele>
        <time>2024-05-11T12:22:17Z</time>
      </trkpt>
      <trkpt lat="43.34862" lon="2.00908">
        <ele>184.2</ele>
        <time>2024-05-11T12:22:18Z</time>
      </trkpt>
      <trkpt lat="43.34853" lon="2.00929">
        <ele>185</ele>
        <time>2024-05-11T12:22:19Z</time>
      </trkpt>
      <trkpt lat="43.34845" lon="2.0095">
        <ele>185.5</ele>
        <time>2024-05-11T12:22:20Z</time>
      </trkpt>
      <trkpt lat="43.34838" lon="2.00969">
        <ele>185.6</ele>
        <time>2024-05-11T12:22:21Z</time>
      </trkpt>
      <trkpt lat="43.34831" lon="2.00988">
        <ele>186.4</ele>
        <time>2024-05-11T12:22:22Z</time>
      </trkpt>
      <trkpt lat="43.34823" lon="2.01006">
        <ele>187</ele>
        <time>2024-05-11T12:22:23Z</time>
      </trkpt>
      <trkpt lat="43.34813" lon="2.0102">
        <ele>187</ele>
        <time>2024-05-11T12:22:24Z</time>
      </trkpt>
      <trkpt lat="43.348" lon="2.01031">
        <ele>187.3</ele>
        <time>2024-05-11T12:22:25Z</time>
      </trkpt>
      <trkpt lat="43.34786" lon="2.01039">
        <ele>187.9</ele>
        <time>2024-05-11T12:22:26Z</time>
      </trkpt>
      <trkpt lat="43.34771" lon="2.01046">
        <ele>188.2</ele>
        <time>2024-05-11T12:22:27Z</time>
      </trkpt>
      <trkpt lat="43.34754" lon="2.01051">
        <ele>187.8</ele>
        <time>2024-05-11T12:22:28Z</time>
      </trkpt>
      <trkpt lat="43.34737" lon="2.01057">
        <ele>188.4</ele>
        <time>2024-05-11T12:22:29Z</time>
      </trkpt>
      <trkpt lat="43.3472" lon="2.01063">
        <ele>189.8</ele>
        <time>2024-05-11T12:22:30Z</time>
      </trkpt>
      <trkpt lat="43.34703" lon="2.01069">
        <ele>190</ele>
        <time>2024-05-11T12:22:31Z</time>
      </trkpt>
      <trkpt lat="43.34688" lon="2.01076">
        <ele>190.2</ele>
        <time>2024-05-11T12:22:32Z</time>
      </trkpt>
      <trkpt lat="43.34676" lon="2.01085">
        <ele>190.2</ele>
        <time>2024-05-11T12:22:33Z</time>
      </trkpt>
      <trkpt lat="43.34668" lon="2.01098">
        <ele>190.3</ele>
        <time>2024-05-11T12:22:34Z</time>
      </trkpt>
      <trkpt lat="43.34663" lon="2.01113">
        <ele>190.3</ele>
        <time>2024-05-11T12:22:35Z</time>
      </trkpt>
      <trkpt lat="43.34663" lon="2.01129">
        <ele>189.6</ele>
        <time>2024-05-11T12:22:36Z</time>
      </trkpt>
      <trkpt lat="43.34667" lon="2.01145">
        <ele>189.9</ele>
        <time>2024-05-11T12:22:37Z</time>
      </trkpt>
      <trkpt lat="43.34674" lon="2.0116">
        <ele>191.3</ele>
        <time>2024-05-11T12:22:38Z</time>
      </trkpt>
      <trkpt lat="43.34682" lon="2.01174">
        <ele>191.8</ele>
        <time>2024-05-11T12:22:39Z</time>
      </trkpt>
      <trkpt lat="43.34691" lon="2.0119">
        <ele>191.8</ele>
        <time>2024-05-11T12:22:40Z</time>
      </trkpt>
      <trkpt lat="43.34699" lon="2.01207">
        <ele>192.3</ele>
        <time>2024-05-11T12:22:41Z</time>
      </trkpt>
      <trkpt lat="43.34707" lon="2.01224">
        <ele>192.7</ele>
        <time>2024-05-11T12:22:42Z</time>
      </trkpt>
      <trkpt lat="43.34713" lon="2.01242">
        <ele>193.5</ele>
        <time>2024-05-11T12:22:43Z</time>
      </trkpt>
      <trkpt lat="43.34716" lon="2.01262">
        <ele>193.9</ele>
        <time>2024-05-11T12:22:44Z</time>
      </trkpt>
      <trkpt lat="43.34718" lon="2.01281">
        <ele>194.2</ele>
        <time>2024-05-11T12:22:45Z</time>
      </trkpt>
      <trkpt lat="43.34719" lon="2.01301">
        <ele>194.4</ele>
        <time>2024-05-11T12:22:46Z</time>
      </trkpt>
      <trkpt lat="43.34719" lon="2.0132">
        <ele>194.9</ele>
        <time>2024-05-11T12:22:47Z</time>
      </trkpt>
      <trkpt lat="43.34719" lon="2.01338">
        <ele>195.6</ele>
        <time>2024-05-11T12:22:48Z</time>
      </trkpt>
      <trkpt lat="43.34715" lon="2.01355">
        <ele>195.8</ele>
        <time>2024-05-11T12:22:49Z</time>
      </trkpt>
      <trkpt lat="43.3471" lon="2.01372">
        <ele>196</ele>
        <time>2024-05-11T12:22:50Z</time>
      </trkpt>
      <trkpt lat="43.34702" lon="2.01387">
        <ele>196.1</ele>
        <time>2024-05-11T12:22:51Z</time>
      </trkpt>
      <trkpt lat="43.34692" lon="2.01399">
        <ele>196.6</ele>
        <time>2024-05-11T12:22:52Z</time>
      </trkpt>
      <trkpt lat="43.3468" lon="2.01409">
        <ele>197.1</ele>
        <time>2024-05-11T12:22:53Z</time>
      </trkpt>
      <trkpt lat="43.34667" lon="2.01419">
        <ele>197.2</ele>
        <time>2024-05-11T12:22:54Z</time>
      </trkpt>
      <trkpt lat="43.34656" lon="2.01431">
        <ele>197.3</ele>
        <time>2024-05-11T12:22:55Z</time>
      </trkpt>
      <trkpt lat="43.34646" lon="2.01445">
        <ele>197.5</ele>
        <time>2024-05-11T12:22:56Z</time>
      </trkpt>
      <trkpt lat="43.34638" lon="2.01462">
        <ele>197.5</ele>
        <time>2024-05-11T12:22:57Z</time>
      </trkpt>
      <trkpt lat="43.34632" lon="2.01481">
        <ele>196.8</ele>
        <time>2024-05-11T12:22:58Z</time>
      </trkpt>
      <trkpt lat="43.34626" lon="2.015">
        <ele>196.1</ele>
        <time>2024-05-11T12:22:59Z</time>
      </trkpt>
      <trkpt lat="43.3462" lon="2.01519">
        <ele>195.6</ele>
        <time>2024-05-11T12:23:00Z</time>
      </trkpt>
      <trkpt lat="43.34613" lon="2.01536">
        <ele>194.9</ele>
        <time>2024-05-11T12:23:01Z</time>
      </trkpt>
      <trkpt lat="43.34603" lon="2.0155">
        <ele>193.8</ele>
        <time>2024-05-11T12:23:02Z</time>
      </trkpt>
      <trkpt lat="43.34591" lon="2.01564">
        <ele>193.3</ele>
        <time>2024-05-11T12:23:03Z</time>
      </trkpt>
      <trkpt lat="43.34578" lon="2.01577">
        <ele>193</ele>
        <time>2024-05-11T12:23:04Z</time>
      </trkpt>
      <trkpt lat="43.34565" lon="2.0159">
        <ele>192.8</ele>
        <time>2024-05-11T12:23:05Z</time>
      </trkpt>
      <trkpt lat="43.34551" lon="2.01603">
        <ele>192.5</ele>
        <time>2024-05-11T12:23:06Z</time>
      </trkpt>
      <trkpt lat="43.34538" lon="2.01618">
        <ele>192.5</ele>
        <time>2024-05-11T12:23:07Z</time>
      </trkpt>
      <trkpt lat="43.34524" lon="2.01635">
        <ele>192.5</ele>
        <time>2024-05-11T12:23:08Z</time>
      </trkpt>
      <trkpt lat="43.34513" lon="2.01652">
        <ele>193.1</ele>
        <time>2024-05-11T12:23:09Z</time>
      </trkpt>
      <trkpt lat="43.34502" lon="2.01672">
        <ele>193.4</ele>
        <time>2024-05-11T12:23:10Z</time>
      </trkpt>
      <trkpt lat="43.34494" lon="2.01693">
        <ele>193.2</ele>
        <time>2024-05-11T12:23:11Z</time>
      </trkpt>
      <trkpt lat="43.34487" lon="2.01715">
        <ele>193.3</ele>
        <time>2024-05-11T12:23:12Z</time>
      </trkpt>
      <trkpt lat="43.34481" lon="2.01738">
        <ele>193.3</ele>
        <time>2024-05-11T12:23:13Z</time>
      </trkpt>
      <trkpt lat="43.34474" lon="2.01761">
        <ele>193</ele>
        <time>2024-05-11T12:23:14Z</time>
      </trkpt>
      <trkpt lat="43.34468" lon="2.01785">
        <ele>192.4</ele>
        <time>2024-05-11T12:23:15Z</time>
      </trkpt>
      <trkpt lat="43.34461" lon="2.01809">
        <ele>192.8</ele>
        <time>2024-05-11T12:23:16Z</time>
      </trkpt>
      <trkpt lat="43.34455" lon="2.01832">
        <ele>192.6</ele>
        <time>2024-05-11T12:23:17Z</time>
      </trkpt>
      <trkpt lat="43.34449" lon="2.01853">
        <ele>192</ele>
        <time>2024-05-11T12:23:18Z</time>
      </trkpt>
      <trkpt lat="43.34442" lon="2.01873">
        <ele>192.3</ele>
        <time>2024-05-11T12:23:19Z</time>
      </trkpt>
      <trkpt lat="43.34434" lon="2.01892">
        <ele>192.6</ele>
        <time>2024-05-11T12:23:20Z</time>
      </trkpt>
      <trkpt lat="43.34424" lon="2.0191">
        <ele>192.2</ele>
        <time>2024-05-11T12:23:21Z</time>
      </trkpt>
      <trkpt lat="43.34411" lon="2.01925">
        <ele>191.5</ele>
        <time>2024-05-11T12:23:22Z</time>
      </trkpt>
      <trkpt lat="43.34398" lon="2.01941">
        <ele>190.7</ele>
        <time>2024-05-11T12:23:23Z</time>
      </trkpt>
      <trkpt lat="43.34385" lon="2.01957">
        <ele>190.2</ele>
        <time>2024-05-11T12:23:24Z</time>
      </trkpt>
      <trkpt lat="43.34371" lon="2.01975">
        <ele>190.2</ele>
        <time>2024-05-11T12:23:25Z</time>
      </trkpt>
      <trkpt lat="43.34356" lon="2.01993">
        <ele>189.7</ele>
        <time>2024-05-11T12:23:26Z</time>
      </trkpt>
      <trkpt lat="43.34342" lon="2.0201">
        <ele>189.3</ele>
        <time>2024-05-11T12:23:27Z</time>
      </trkpt>
      <trkpt lat="43.34327" lon="2.02028">
        <ele>189.1</ele>
        <time>2024-05-11T12:23:28Z</time>
      </trkpt>
      <trkpt lat="43.34312" lon="2.02044">
        <ele>189.1</ele>
        <time>2024-05-11T12:23:29Z</time>
      </trkpt>
      <trkpt lat="43.34297" lon="2.0206">
        <ele>188.9</ele>
        <time>2024-05-11T12:23:30Z</time>
      </trkpt>
      <trkpt lat="43.34283" lon="2.02078">
        <ele>188.2</ele>
        <time>2024-05-11T12:23:31Z</time>
      </trkpt>
      <trkpt lat="43.34269" lon="2.02096">
        <ele>188.1</ele>
        <time>2024-05-11T12:23:32Z</time>
      </trkpt>
      <trkpt lat="43.34256" lon="2.02116">
        <ele>187.8</ele>
        <time>2024-05-11T12:23:33Z</time>
      </trkpt>
      <trkpt lat="43.34243" lon="2.02137">
        <ele>187.9</ele>
        <time>2024-05-11T12:23:34Z</time>
      </trkpt>
      <trkpt lat="43.34231" lon="2.02159">
        <ele>187.4</ele>
        <time>2024-05-11T12:23:35Z</time>
      </trkpt>
      <trkpt lat="43.34219" lon="2.0218">
        <ele>187.1</ele>
        <time>2024-05-11T12:23:36Z</time>
      </trkpt>
      <trkpt lat="43.34209" lon="2.02204">
        <ele>186.7</ele>
        <time>2024-05-11T12:23:37Z</time>
      </trkpt>
      <trkpt lat="43.342" lon="2.02228">
        <ele>186.6</ele>
        <time>2024-05-11T12:23:38Z</time>
      </trkpt>
      <trkpt lat="43.34192" lon="2.02252">
        <ele>186.3</ele>
        <time>2024-05-11T12:23:39Z</time>
      </trkpt>
      <trkpt lat="43.34185" lon="2.02277">
        <ele>185.1</ele>
        <time>2024-05-11T12:23:40Z</time>
      </trkpt>
      <trkpt lat="43.34178" lon="2.02302">
        <ele>185.7</ele>
        <time>2024-05-11T12:23:41Z</time>
      </trkpt>
      <trkpt lat="43.3417" lon="2.02326">
        <ele>185.2</ele>
        <time>2024-05-11T12:23:42Z</time>
      </trkpt>
      <trkpt lat="43.3416" lon="2.02348">
        <ele>184.7</ele>
        <time>2024-05-11T12:23:43Z</time>
      </trkpt>
      <trkpt lat="43.34149" lon="2.02369">
        <ele>184.4</ele>
        <time>2024-05-11T12:23:44Z</time>
      </trkpt>
      <trkpt lat="43.34138" lon="2.0239">
        <ele>184</ele>
        <time>2024-05-11T12:23:45Z</time>
      </trkpt>
      <trkpt lat="43.34127" lon="2.0241">
        <ele>183</ele>
        <time>2024-05-11T12:23:46Z</time>
      </trkpt>
      <trkpt lat="43.34116" lon="2.02432">
        <ele>183.1</ele>
        <time>2024-05-11T12:23:47Z</time>
      </trkpt>
      <trkpt lat="43.34105" lon="2.02454">
        <ele>183.1</ele>
        <time>2024-05-11T12:23:48Z</time>
      </trkpt>
      <trkpt lat="43.34095" lon="2.02476">
        <ele>183.1</ele>
        <time>2024-05-11T12:23:49Z</time>
      </trkpt>
      <trkpt lat="43.34085" lon="2.025">
        <ele>181.8</ele>
        <time>2024-05-11T12:23:50Z</time>
      </trkpt>
      <trkpt lat="43.34074" lon="2.02524">
        <ele>182.8</ele>
        <time>2024-05-11T12:23:51Z</time>
      </trkpt>
      <trkpt lat="43.34064" lon="2.02549">
        <ele>182.4</ele>
        <time>2024-05-11T12:23:52Z</time>
      </trkpt>
      <trkpt lat="43.34054" lon="2.02574">
        <ele>181.3</ele>
        <time>2024-05-11T12:23:53Z</time>
      </trkpt>
      <trkpt lat="43.34043" lon="2.02599">
        <ele>180.7</ele>
        <time>2024-05-11T12:23:54Z</time>
      </trkpt>
      <trkpt lat="43.34032" lon="2.02625">
        <ele>180.5</ele>
        <time>2024-05-11T12:23:55Z</time>
      </trkpt>
      <trkpt lat="43.34022" lon="2.0265">
        <ele>180.2</ele>
        <time>2024-05-11T12:23:56Z</time>
      </trkpt>
      <trkpt lat="43.34013" lon="2.02675">
        <ele>180.3</ele>
        <time>2024-05-11T12:23:57Z</time>
      </trkpt>
      <trkpt lat="43.34003" lon="2.027">
        <ele>180.3</ele>
        <time>2024-05-11T12:23:58Z</time>
      </trkpt>
      <trkpt lat="43.33993" lon="2.02725">
        <ele>179.4</ele>
        <time>2024-05-11T12:23:59Z</time>
      </trkpt>
      <trkpt lat="43.33983" lon="2.0275">
        <ele>178.6</ele>
        <time>2024-05-11T12:24:00Z</time>
      </trkpt>
      <trkpt lat="43.33973" lon="2.02775">
        <ele>178.9</ele>
        <time>2024-05-11T12:24:01Z</time>
      </trkpt>
      <trkpt lat="43.33962" lon="2.028">
        <ele>178.1</ele>
        <time>2024-05-11T12:24:02Z</time>
      </trkpt>
      <trkpt lat="43.33952" lon="2.02826">
        <ele>177.9</ele>
        <time>2024-05-11T12:24:03Z</time>
      </trkpt>
      <trkpt lat="43.33942" lon="2.02852">
        <ele>177.4</ele>
        <time>2024-05-11T12:24:04Z</time>
      </trkpt>
      <trkpt lat="43.33932" lon="2.02879">
        <ele>177.2</ele>
        <time>2024-05-11T12:24:05Z</time>
      </trkpt>
      <trkpt lat="43.33921" lon="2.02906">
        <ele>176.9</ele>
        <time>2024-05-11T12:24:06Z</time>
      </trkpt>
      <trkpt lat="43.3391" lon="2.02933">
        <ele>176.4</ele>
        <time>2024-05-11T12:24:07Z</time>
      </trkpt>
      <trkpt lat="43.33899" lon="2.0296">
        <ele>175.4</ele>
        <time>2024-05-11T12:24:08Z</time>
      </trkpt>
      <trkpt lat="43.33888" lon="2.02987">
        <ele>175</ele>
        <time>2024-05-11T12:24:09Z</time>
      </trkpt>
      <trkpt lat="43.33878" lon="2.03013">
        <ele>174.8</ele>
        <time>2024-05-11T12:24:10Z</time>
      </trkpt>
      <trkpt lat="43.33867" lon="2.03038">
        <ele>175.8</ele>
        <time>2024-05-11T12:24:11Z</time>
      </trkpt>
      <trkpt lat="43.33855" lon="2.03059">
        <ele>177</ele>
        <time>2024-05-11T12:24:12Z</time>
      </trkpt>
      <trkpt lat="43.33841" lon="2.03078">
        <ele>178.2</ele>
        <time>2024-05-11T12:24:13Z</time>
      </trkpt>
      <trkpt lat="43.33826" lon="2.03094">
        <ele>179.3</ele>
        <time>2024-05-11T12:24:14Z</time>
      </trkpt>
      <trkpt lat="43.3381" lon="2.03108">
        <ele>180</ele>
        <time>2024-05-11T12:24:15Z</time>
      </trkpt>
      <trkpt lat="43.33797" lon="2.03123">
        <ele>181.2</ele>
        <time>2024-05-11T12:24:16Z</time>
      </trkpt>
      <trkpt lat="43.33787" lon="2.03141">
        <ele>183.1</ele>
        <time>2024-05-11T12:24:17Z</time>
      </trkpt>
      <trkpt lat="43.33781" lon="2.03162">
        <ele>184</ele>
        <time>2024-05-11T12:24:18Z</time>
      </trkpt>
      <trkpt lat="43.33776" lon="2.03185">
        <ele>184.5</ele>
        <time>2024-05-11T12:24:19Z</time>
      </trkpt>
      <trkpt lat="43.33772" lon="2.03209">
        <ele>186.3</ele>
        <time>2024-05-11T12:24:20Z</time>
      </trkpt>
      <trkpt lat="43.33765" lon="2.03233">
        <ele>187.7</ele>
        <time>2024-05-11T12:24:21Z</time>
      </trkpt>
      <trkpt lat="43.33755" lon="2.03255">
        <ele>187.7</ele>
        <time>2024-05-11T12:24:22Z</time>
      </trkpt>
      <trkpt lat="43.33744" lon="2.03277">
        <ele>189.3</ele>
        <time>2024-05-11T12:24:23Z</time>
      </trkpt>
      <trkpt lat="43.33733" lon="2.03298">
        <ele>191.1</ele>
        <time>2024-05-11T12:24:24Z</time>
      </trkpt>
      <trkpt lat="43.33723" lon="2.03318">
        <ele>192</ele>
        <time>2024-05-11T12:24:25Z</time>
      </trkpt>
      <trkpt lat="43.33715" lon="2.03337">
        <ele>192.8</ele>
        <time>2024-05-11T12:24:26Z</time>
      </trkpt>
      <trkpt lat="43.33707" lon="2.03355">
        <ele>193.3</ele>
        <time>2024-05-11T12:24:27Z</time>
      </trkpt>
      <trkpt lat="43.33698" lon="2.03372">
        <ele>193.1</ele>
        <time>2024-05-11T12:24:28Z</time>
      </trkpt>
      <trkpt lat="43.33689" lon="2.03388">
        <ele>192.3</ele>
        <time>2024-05-11T12:24:29Z</time>
      </trkpt>
      <trkpt lat="43.33679" lon="2.03401">
        <ele>191.2</ele>
        <time>2024-05-11T12:24:30Z</time>
      </trkpt>
      <trkpt lat="43.33668" lon="2.03413">
        <ele>190.3</ele>
        <time>2024-05-11T12:24:31Z</time>
      </trkpt>
      <trkpt lat="43.33655" lon="2.03422">
        <ele>189.5</ele>
        <time>2024-05-11T12:24:32Z</time>
      </trkpt>
      <trkpt lat="43.33641" lon="2.03429">
        <ele>188.7</ele>
        <time>2024-05-11T12:24:33Z</time>
      </trkpt>
      <trkpt lat="43.33626" lon="2.03434">
        <ele>187.9</ele>
        <time>2024-05-11T12:24:34Z</time>
      </trkpt>
      <trkpt lat="43.33612" lon="2.03437">
        <ele>187.3</ele>
        <time>2024-05-11T12:24:35Z</time>
      </trkpt>
      <trkpt lat="43.33597" lon="2.0344">
        <ele>186.7</ele>
        <time>2024-05-11T12:24:36Z</time>
      </trkpt>
      <trkpt lat="43.33583" lon="2.03443">
        <ele>186.2</ele>
        <time>2024-05-11T12:24:37Z</time>
      </trkpt>
      <trkpt lat="43.33569" lon="2.03445">
        <ele>185.4</ele>
        <time>2024-05-11T12:24:38Z</time>
      </trkpt>
      <trkpt lat="43.33555" lon="2.03443">
        <ele>185.1</ele>
        <time>2024-05-11T12:24:39Z</time>
      </trkpt>
      <trkpt lat="43.33541" lon="2.03441">
        <ele>183.8</ele>
        <time>2024-05-11T12:24:40Z</time>
      </trkpt>
      <trkpt lat="43.33528" lon="2.03437">
        <ele>182.8</ele>
        <time>2024-05-11T12:24:41Z</time>
      </trkpt>
      <trkpt lat="43.33515" lon="2.03433">
        <ele>182.8</ele>
        <time>2024-05-11T12:24:42Z</time>
      </trkpt>
      <trkpt lat="43.33502" lon="2.03429">
        <ele>182.7</ele>
        <time>2024-05-11T12:24:43Z</time>
      </trkpt>
      <trkpt lat="43.3349" lon="2.03424">
        <ele>182.2</ele>
        <time>2024-05-11T12:24:44Z</time>
      </trkpt>
      <trkpt lat="43.33481" lon="2.03421">
        <ele>181.6</ele>
        <time>2024-05-11T12:24:45Z</time>
      </trkpt>
      <trkpt lat="43.33472" lon="2.03416">
        <ele>181.1</ele>
        <time>2024-05-11T12:24:46Z</time>
      </trkpt>
      <trkpt lat="43.33462" lon="2.03412">
        <ele>180.8</ele>
        <time>2024-05-11T12:24:47Z</time>
      </trkpt>
      <trkpt lat="43.33451" lon="2.03409">
        <ele>180.3</ele>
        <time>2024-05-11T12:24:48Z</time>
      </trkpt>
      <trkpt lat="43.33441" lon="2.03406">
        <ele>180.1</ele>
        <time>2024-05-11T12:24:49Z</time>
      </trkpt>
      <trkpt lat="43.33429" lon="2.03405">
        <ele>180.1</ele>
        <time>2024-05-11T12:24:50Z</time>
      </trkpt>
      <trkpt lat="43.33418" lon="2.03407">
        <ele>179.5</ele>
        <time>2024-05-11T12:24:51Z</time>
      </trkpt>
      <trkpt lat="43.33407" lon="2.03413">
        <ele>177.9</ele>
        <time>2024-05-11T12:24:52Z</time>
      </trkpt>
      <trkpt lat="43.33398" lon="2.0342">
        <ele>176.7</ele>
        <time>2024-05-11T12:24:53Z</time>
      </trkpt>
      <trkpt lat="43.33392" lon="2.03424">
        <ele>176.3</ele>
        <time>2024-05-11T12:24:54Z</time>
      </trkpt>
      <trkpt lat="43.33387" lon="2.03429">
        <ele>175.8</ele>
        <time>2024-05-11T12:24:55Z</time>
      </trkpt>
      <trkpt lat="43.33382" lon="2.03433">
        <ele>175.5</ele>
        <time>2024-05-11T12:24:56Z</time>
      </trkpt>
      <trkpt lat="43.33376" lon="2.03437">
        <ele>175.2</ele>
        <time>2024-05-11T12:24:57Z</time>
      </trkpt>
      <trkpt lat="43.33371" lon="2.03442">
        <ele>174.4</ele>
        <time>2024-05-11T12:24:58Z</time>
      </trkpt>
      <trkpt lat="43.33365" lon="2.03447">
        <ele>173.7</ele>
        <time>2024-05-11T12:24:59Z</time>
      </trkpt>
      <trkpt lat="43.3336" lon="2.03451">
        <ele>173.3</ele>
        <time>2024-05-11T12:25:00Z</time>
      </trkpt>
      <trkpt lat="43.33355" lon="2.03455">
        <ele>173</ele>
        <time>2024-05-11T12:25:01Z</time>
      </trkpt>
      <trkpt lat="43.3335" lon="2.03459">
        <ele>172.6</ele>
        <time>2024-05-11T12:25:02Z</time>
      </trkpt>
      <trkpt lat="43.33345" lon="2.03463">
        <ele>172.2</ele>
        <time>2024-05-11T12:25:03Z</time>
      </trkpt>
      <trkpt lat="43.33339" lon="2.03467">
        <ele>171.7</ele>
        <time>2024-05-11T12:25:04Z</time>
      </trkpt>
      <trkpt lat="43.33334" lon="2.03471">
        <ele>171.2</ele>
        <time>2024-05-11T12:25:05Z</time>
      </trkpt>
      <trkpt lat="43.33329" lon="2.03475">
        <ele>170.9</ele>
        <time>2024-05-11T12:25:06Z</time>
      </trkpt>
      <trkpt lat="43.33325" lon="2.03478">
        <ele>170.8</ele>
        <time>2024-05-11T12:25:07Z</time>
      </trkpt>
      <trkpt lat="43.33321" lon="2.03481">
        <ele>170.7</ele>
        <time>2024-05-11T12:25:08Z</time>
      </trkpt>
      <trkpt lat="43.33318" lon="2.03484">
        <ele>170.7</ele>
        <time>2024-05-11T12:25:09Z</time>
      </trkpt>
      <trkpt lat="43.33314" lon="2.03487">
        <ele>170.7</ele>
        <time>2024-05-11T12:25:10Z</time>
      </trkpt>
      <trkpt lat="43.33311" lon="2.03489">
        <ele>170.7</ele>
        <time>2024-05-11T12:25:11Z</time>
      </trkpt>
      <trkpt lat="43.33308" lon="2.03492">
        <ele>170.7</ele>
        <time>2024-05-11T12:25:12Z</time>
      </trkpt>
      <trkpt lat="43.33303" lon="2.03496">
        <ele>170.9</ele>
        <time>2024-05-11T12:25:13Z</time>
      </trkpt>
      <trkpt lat="43.33298" lon="2.035">
        <ele>171</ele>
        <time>2024-05-11T12:25:14Z</time>
      </trkpt>
      <trkpt lat="43.33293" lon="2.03505">
        <ele>171</ele>
        <time>2024-05-11T12:25:15Z</time>
      </trkpt>
      <trkpt lat="43.33287" lon="2.03509">
        <ele>171</ele>
        <time>2024-05-11T12:25:16Z</time>
      </trkpt>
      <trkpt lat="43.33281" lon="2.03514">
        <ele>171</ele>
        <time>2024-05-11T12:25:17Z</time>
      </trkpt>
      <trkpt lat="43.33274" lon="2.0352">
        <ele>170.9</ele>
        <time>2024-05-11T12:25:18Z</time>
      </trkpt>
      <trkpt lat="43.33267" lon="2.03525">
        <ele>170.7</ele>
        <time>2024-05-11T12:25:19Z</time>
      </trkpt>
      <trkpt lat="43.3326" lon="2.0353">
        <ele>170.4</ele>
        <time>2024-05-11T12:25:20Z</time>
      </trkpt>
      <trkpt lat="43.33252" lon="2.03536">
        <ele>170.1</ele>
        <time>2024-05-11T12:25:21Z</time>
      </trkpt>
      <trkpt lat="43.33245" lon="2.03541">
        <ele>169.9</ele>
        <time>2024-05-11T12:25:22Z</time>
      </trkpt>
      <trkpt lat="43.3324" lon="2.03544">
        <ele>169.9</ele>
        <time>2024-05-11T12:25:23Z</time>
      </trkpt>
      <trkpt lat="43.33236" lon="2.03548">
        <ele>169.9</ele>
        <time>2024-05-11T12:25:24Z</time>
      </trkpt>
      <trkpt lat="43.33232" lon="2.0355">
        <ele>169.9</ele>
        <time>2024-05-11T12:25:25Z</time>
      </trkpt>
      <trkpt lat="43.33228" lon="2.03553">
        <ele>169.9</ele>
        <time>2024-05-11T12:25:26Z</time>
      </trkpt>
      <trkpt lat="43.33224" lon="2.03557">
        <ele>170.1</ele>
        <time>2024-05-11T12:25:27Z</time>
      </trkpt>
      <trkpt lat="43.33219" lon="2.03561">
        <ele>170.1</ele>
        <time>2024-05-11T12:25:28Z</time>
      </trkpt>
      <trkpt lat="43.33214" lon="2.03565">
        <ele>170</ele>
        <time>2024-05-11T12:25:29Z</time>
      </trkpt>
      <trkpt lat="43.33209" lon="2.03569">
        <ele>170</ele>
        <time>2024-05-11T12:25:30Z</time>
      </trkpt>
      <trkpt lat="43.33203" lon="2.03573">
        <ele>169.9</ele>
        <time>2024-05-11T12:25:31Z</time>
      </trkpt>
      <trkpt lat="43.33198" lon="2.03579">
        <ele>170</ele>
        <time>2024-05-11T12:25:32Z</time>
      </trkpt>
      <trkpt lat="43.33193" lon="2.03583">
        <ele>170</ele>
        <time>2024-05-11T12:25:33Z</time>
      </trkpt>
      <trkpt lat="43.33188" lon="2.03588">
        <ele>170.2</ele>
        <time>2024-05-11T12:25:34Z</time>
      </trkpt>
      <trkpt lat="43.33184" lon="2.03592">
        <ele>170.3</ele>
        <time>2024-05-11T12:25:35Z</time>
      </trkpt>
      <trkpt lat="43.33181" lon="2.03596">
        <ele>170.5</ele>
        <time>2024-05-11T12:25:36Z</time>
      </trkpt>
      <trkpt lat="43.33179" lon="2.03598">
        <ele>170.5</ele>
        <time>2024-05-11T12:25:37Z</time>
      </trkpt>
      <trkpt lat="43.33178" lon="2.03599">
        <ele>170.6</ele>
        <time>2024-05-11T12:25:38Z</time>
      </trkpt>
      <trkpt lat="43.33177" lon="2.03599">
        <ele>170.6</ele>
        <time>2024-05-11T12:25:39Z</time>
      </trkpt>
      <trkpt lat="43.33176" lon="2.03599">
        <ele>170.6</ele>
        <time>2024-05-11T12:25:40Z</time>
      </trkpt>
      <trkpt lat="43.33175" lon="2.03599">
        <ele>170.6</ele>
        <time>2024-05-11T12:25:41Z</time>
      </trkpt>
      <trkpt lat="43.33174" lon="2.03599">
        <ele>170.6</ele>
        <time>2024-05-11T12:25:42Z</time>
      </trkpt>
      <trkpt lat="43.33174" lon="2.03599">
        <ele>170.6</ele>
        <time>2024-05-11T12:25:43Z</time>
      </trkpt>
      <trkpt lat="43.33174" lon="2.03598">
        <ele>170.5</ele>
        <time>2024-05-11T12:25:44Z</time>
      </trkpt>
      <trkpt lat="43.33174" lon="2.03598">
        <ele>170.5</ele>
        <time>2024-05-11T12:25:45Z</time>
      </trkpt>
      <trkpt lat="43.33174" lon="2.03598">
        <ele>170.5</ele>
        <time>2024-05-11T12:25:46Z</time>
      </trkpt>
      <trkpt lat="43.33174" lon="2.03598">
        <ele>170.5</ele>
        <time>2024-05-11T12:25:47Z</time>
      </trkpt>
      <trkpt lat="43.33174" lon="2.03598">
        <ele>170.5</ele>
        <time>2024-05-11T12:25:48Z</time>
      </trkpt>
      <trkpt lat="43.33174" lon="2.03598">
        <ele>170.5</ele>
        <time>2024-05-11T12:25:49Z</time>
      </trkpt>
      <trkpt lat="43.33174" lon="2.03598">
        <ele>170.5</ele>
        <time>2024-05-11T12:25:50Z</time>
      </trkpt>
      <trkpt lat="43.33174" lon="2.03598">
        <ele>170.5</ele>
        <time>2024-05-11T12:25:51Z</time>
      </trkpt>
      <trkpt lat="43.33174" lon="2.03597">
        <ele>170.5</ele>
        <time>2024-05-11T12:25:52Z</time>
      </trkpt>
      <trkpt lat="43.33172" lon="2.03594">
        <ele>170.4</ele>
        <time>2024-05-11T12:25:53Z</time>
      </trkpt>
      <trkpt lat="43.33168" lon="2.03589">
        <ele>170.2</ele>
        <time>2024-05-11T12:25:54Z</time>
      </trkpt>
      <trkpt lat="43.33166" lon="2.03581">
        <ele>170.1</ele>
        <time>2024-05-11T12:25:55Z</time>
      </trkpt>
      <trkpt lat="43.33163" lon="2.03572">
        <ele>170.3</ele>
        <time>2024-05-11T12:25:56Z</time>
      </trkpt>
      <trkpt lat="43.3316" lon="2.03564">
        <ele>170.4</ele>
        <time>2024-05-11T12:25:57Z</time>
      </trkpt>
      <trkpt lat="43.33157" lon="2.03554">
        <ele>170.3</ele>
        <time>2024-05-11T12:25:58Z</time>
      </trkpt>
      <trkpt lat="43.33153" lon="2.03545">
        <ele>170.1</ele>
        <time>2024-05-11T12:25:59Z</time>
      </trkpt>
      <trkpt lat="43.33149" lon="2.03535">
        <ele>169.9</ele>
        <time>2024-05-11T12:26:00Z</time>
      </trkpt>
      <trkpt lat="43.33145" lon="2.03527">
        <ele>169.8</ele>
        <time>2024-05-11T12:26:01Z</time>
      </trkpt>
      <trkpt lat="43.3314" lon="2.03518">
        <ele>169.6</ele>
        <time>2024-05-11T12:26:02Z</time>
      </trkpt>
      <trkpt lat="43.33136" lon="2.0351">
        <ele>169.4</ele>
        <time>2024-05-11T12:26:03Z</time>
      </trkpt>
      <trkpt lat="43.33132" lon="2.03504">
        <ele>169.1</ele>
        <time>2024-05-11T12:26:04Z</time>
      </trkpt>
      <trkpt lat="43.33129" lon="2.03498">
        <ele>169</ele>
        <time>2024-05-11T12:26:05Z</time>
      </trkpt>
      <trkpt lat="43.33125" lon="2.03494">
        <ele>168.9</ele>
        <time>2024-05-11T12:26:06Z</time>
      </trkpt>
      <trkpt lat="43.3312" lon="2.03492">
        <ele>168.9</ele>
        <time>2024-05-11T12:26:07Z</time>
      </trkpt>
      <trkpt lat="43.33116" lon="2.03491">
        <ele>168.9</ele>
        <time>2024-05-11T12:26:08Z</time>
      </trkpt>
      <trkpt lat="43.33111" lon="2.03491">
        <ele>169</ele>
        <time>2024-05-11T12:26:09Z</time>
      </trkpt>
      <trkpt lat="43.33105" lon="2.03491">
        <ele>169</ele>
        <time>2024-05-11T12:26:10Z</time>
      </trkpt>
      <trkpt lat="43.33098" lon="2.03491">
        <ele>169</ele>
        <time>2024-05-11T12:26:11Z</time>
      </trkpt>
      <trkpt lat="43.33091" lon="2.03492">
        <ele>169</ele>
        <time>2024-05-11T12:26:12Z</time>
      </trkpt>
      <trkpt lat="43.33083" lon="2.03492">
        <ele>169</ele>
        <time>2024-05-11T12:26:13Z</time>
      </trkpt>
      <trkpt lat="43.33075" lon="2.03492">
        <ele>169</ele>
        <time>2024-05-11T12:26:14Z</time>
      </trkpt>
      <trkpt lat="43.33067" lon="2.03492">
        <ele>169</ele>
        <time>2024-05-11T12:26:15Z</time>
      </trkpt>
      <trkpt lat="43.33059" lon="2.03491">
        <ele>169</ele>
        <time>2024-05-11T12:26:16Z</time>
      </trkpt>
      <trkpt lat="43.33051" lon="2.03488">
        <ele>169</ele>
        <time>2024-05-11T12:26:17Z</time>
      </trkpt>
      <trkpt lat="43.33044" lon="2.03483">
        <ele>169</ele>
        <time>2024-05-11T12:26:18Z</time>
      </trkpt>
      <trkpt lat="43.33036" lon="2.03479">
        <ele>169</ele>
        <time>2024-05-11T12:26:19Z</time>
      </trkpt>
      <trkpt lat="43.33028" lon="2.03475">
        <ele>169</ele>
        <time>2024-05-11T12:26:20Z</time>
      </trkpt>
      <trkpt lat="43.33021" lon="2.03473">
        <ele>169</ele>
        <time>2024-05-11T12:26:21Z</time>
      </trkpt>
      <trkpt lat="43.33013" lon="2.0347">
        <ele>169</ele>
        <time>2024-05-11T12:26:22Z</time>
      </trkpt>
      <trkpt lat="43.33006" lon="2.03469">
        <ele>169</ele>
        <time>2024-05-11T12:26:23Z</time>
      </trkpt>
      <trkpt lat="43.33001" lon="2.03467">
        <ele>169</ele>
        <time>2024-05-11T12:26:24Z</time>
      </trkpt>
      <trkpt lat="43.32995" lon="2.03465">
        <ele>169</ele>
        <time>2024-05-11T12:26:25Z</time>
      </trkpt>
      <trkpt lat="43.32989" lon="2.03464">
        <ele>169</ele>
        <time>2024-05-11T12:26:26Z</time>
      </trkpt>
      <trkpt lat="43.32985" lon="2.03462">
        <ele>169</ele>
        <time>2024-05-11T12:26:27Z</time>
      </trkpt>
      <trkpt lat="43.32981" lon="2.0346">
        <ele>169</ele>
        <time>2024-05-11T12:26:28Z</time>
      </trkpt>
      <trkpt lat="43.32977" lon="2.03458">
        <ele>169</ele>
        <time>2024-05-11T12:26:29Z</time>
      </trkpt>
      <trkpt lat="43.32971" lon="2.03457">
        <ele>169</ele>
        <time>2024-05-11T12:26:30Z</time>
      </trkpt>
      <trkpt lat="43.32965" lon="2.03455">
        <ele>168.7</ele>
        <time>2024-05-11T12:26:31Z</time>
      </trkpt>
      <trkpt lat="43.32957" lon="2.03452">
        <ele>168.5</ele>
        <time>2024-05-11T12:26:32Z</time>
      </trkpt>
      <trkpt lat="43.32949" lon="2.03449">
        <ele>168.2</ele>
        <time>2024-05-11T12:26:33Z</time>
      </trkpt>
      <trkpt lat="43.32942" lon="2.03446">
        <ele>168.1</ele>
        <time>2024-05-11T12:26:34Z</time>
      </trkpt>
      <trkpt lat="43.32935" lon="2.03443">
        <ele>168.3</ele>
        <time>2024-05-11T12:26:35Z</time>
      </trkpt>
      <trkpt lat="43.32928" lon="2.03439">
        <ele>168.5</ele>
        <time>2024-05-11T12:26:36Z</time>
      </trkpt>
      <trkpt lat="43.32923" lon="2.03435">
        <ele>168.5</ele>
        <time>2024-05-11T12:26:37Z</time>
      </trkpt>
      <trkpt lat="43.32919" lon="2.03432">
        <ele>168.5</ele>
        <time>2024-05-11T12:26:38Z</time>
      </trkpt>
      <trkpt lat="43.32915" lon="2.0343">
        <ele>168.5</ele>
        <time>2024-05-11T12:26:39Z</time>
      </trkpt>
      <trkpt lat="43.32912" lon="2.03426">
        <ele>168.4</ele>
        <time>2024-05-11T12:26:40Z</time>
      </trkpt>
      <trkpt lat="43.32909" lon="2.03422">
        <ele>168.2</ele>
        <time>2024-05-11T12:26:41Z</time>
      </trkpt>
      <trkpt lat="43.32906" lon="2.03418">
        <ele>168.1</ele>
        <time>2024-05-11T12:26:42Z</time>
      </trkpt>
      <trkpt lat="43.32903" lon="2.03413">
        <ele>168</ele>
        <time>2024-05-11T12:26:43Z</time>
      </trkpt>
      <trkpt lat="43.32901" lon="2.03409">
        <ele>168</ele>
        <time>2024-05-11T12:26:44Z</time>
      </trkpt>
      <trkpt lat="43.329" lon="2.03403">
        <ele>168</ele>
        <time>2024-05-11T12:26:45Z</time>
      </trkpt>
      <trkpt lat="43.32898" lon="2.03398">
        <ele>168</ele>
        <time>2024-05-11T12:26:46Z</time>
      </trkpt>
      <trkpt lat="43.32896" lon="2.03392">
        <ele>168</ele>
        <time>2024-05-11T12:26:47Z</time>
      </trkpt>
      <trkpt lat="43.32895" lon="2.03387">
        <ele>167.9</ele>
        <time>2024-05-11T12:26:48Z</time>
      </trkpt>
      <trkpt lat="43.32894" lon="2.03381">
        <ele>167.7</ele>
        <time>2024-05-11T12:26:49Z</time>
      </trkpt>
      <trkpt lat="43.32893" lon="2.03376">
        <ele>167.5</ele>
        <time>2024-05-11T12:26:50Z</time>
      </trkpt>
      <trkpt lat="43.32891" lon="2.03371">
        <ele>167.4</ele>
        <time>2024-05-11T12:26:51Z</time>
      </trkpt>
      <trkpt lat="43.32888" lon="2.03367">
        <ele>167.2</ele>
        <time>2024-05-11T12:26:52Z</time>
      </trkpt>
      <trkpt lat="43.32884" lon="2.03364">
        <ele>167.1</ele>
        <time>2024-05-11T12:26:53Z</time>
      </trkpt>
      <trkpt lat="43.32878" lon="2.03364">
        <ele>167.1</ele>
        <time>2024-05-11T12:26:54Z</time>
      </trkpt>
      <trkpt lat="43.32872" lon="2.03365">
        <ele>167.2</ele>
        <time>2024-05-11T12:26:55Z</time>
      </trkpt>
      <trkpt lat="43.32865" lon="2.03366">
        <ele>167.3</ele>
        <time>2024-05-11T12:26:56Z</time>
      </trkpt>
      <trkpt lat="43.32856" lon="2.03366">
        <ele>167.5</ele>
        <time>2024-05-11T12:26:57Z</time>
      </trkpt>
      <trkpt lat="43.32847" lon="2.03367">
        <ele>167.9</ele>
        <time>2024-05-11T12:26:58Z</time>
      </trkpt>
      <trkpt lat="43.32837" lon="2.03368">
        <ele>168.4</ele>
        <time>2024-05-11T12:26:59Z</time>
      </trkpt>
      <trkpt lat="43.32827" lon="2.03368">
        <ele>168.6</ele>
        <time>2024-05-11T12:27:00Z</time>
      </trkpt>
      <trkpt lat="43.32817" lon="2.03369">
        <ele>168.9</ele>
        <time>2024-05-11T12:27:01Z</time>
      </trkpt>
      <trkpt lat="43.32806" lon="2.03371">
        <ele>169.4</ele>
        <time>2024-05-11T12:27:02Z</time>
      </trkpt>
      <trkpt lat="43.32792" lon="2.03373">
        <ele>169.9</ele>
        <time>2024-05-11T12:27:03Z</time>
      </trkpt>
      <trkpt lat="43.3278" lon="2.03376">
        <ele>170.6</ele>
        <time>2024-05-11T12:27:04Z</time>
      </trkpt>
      <trkpt lat="43.32766" lon="2.0338">
        <ele>170.5</ele>
        <time>2024-05-11T12:27:05Z</time>
      </trkpt>
      <trkpt lat="43.32752" lon="2.03385">
        <ele>169.9</ele>
        <time>2024-05-11T12:27:06Z</time>
      </trkpt>
      <trkpt lat="43.32737" lon="2.03391">
        <ele>170.3</ele>
        <time>2024-05-11T12:27:07Z</time>
      </trkpt>
      <trkpt lat="43.32722" lon="2.03399">
        <ele>171.1</ele>
        <time>2024-05-11T12:27:08Z</time>
      </trkpt>
      <trkpt lat="43.32708" lon="2.03407">
        <ele>171.1</ele>
        <time>2024-05-11T12:27:09Z</time>
      </trkpt>
      <trkpt lat="43.32693" lon="2.03418">
        <ele>171.1</ele>
        <time>2024-05-11T12:27:10Z</time>
      </trkpt>
      <trkpt lat="43.32678" lon="2.0343">
        <ele>171.7</ele>
        <time>2024-05-11T12:27:11Z</time>
      </trkpt>
      <trkpt lat="43.32664" lon="2.03443">
        <ele>172.5</ele>
        <time>2024-05-11T12:27:12Z</time>
      </trkpt>
      <trkpt lat="43.3265" lon="2.03458">
        <ele>172.4</ele>
        <time>2024-05-11T12:27:13Z</time>
      </trkpt>
      <trkpt lat="43.32637" lon="2.03473">
        <ele>172</ele>
        <time>2024-05-11T12:27:14Z</time>
      </trkpt>
      <trkpt lat="43.32624" lon="2.0349">
        <ele>173.1</ele>
        <time>2024-05-11T12:27:15Z</time>
      </trkpt>
      <trkpt lat="43.32611" lon="2.03509">
        <ele>173</ele>
        <time>2024-05-11T12:27:16Z</time>
      </trkpt>
      <trkpt lat="43.32598" lon="2.03528">
        <ele>173.1</ele>
        <time>2024-05-11T12:27:17Z</time>
      </trkpt>
      <trkpt lat="43.32585" lon="2.03548">
        <ele>172.7</ele>
        <time>2024-05-11T12:27:18Z</time>
      </trkpt>
      <trkpt lat="43.32571" lon="2.0357">
        <ele>172.5</ele>
        <time>2024-05-11T12:27:19Z</time>
      </trkpt>
      <trkpt lat="43.32557" lon="2.03591">
        <ele>171.7</ele>
        <time>2024-05-11T12:27:20Z</time>
      </trkpt>
      <trkpt lat="43.32543" lon="2.03612">
        <ele>171.7</ele>
        <time>2024-05-11T12:27:21Z</time>
      </trkpt>
      <trkpt lat="43.3253" lon="2.03634">
        <ele>172.6</ele>
        <time>2024-05-11T12:27:22Z</time>
      </trkpt>
      <trkpt lat="43.32516" lon="2.03656">
        <ele>172.2</ele>
        <time>2024-05-11T12:27:23Z</time>
      </trkpt>
      <trkpt lat="43.32502" lon="2.03679">
        <ele>172.1</ele>
        <time>2024-05-11T12:27:24Z</time>
      </trkpt>
      <trkpt lat="43.32487" lon="2.03702">
        <ele>172.1</ele>
        <time>2024-05-11T12:27:25Z</time>
      </trkpt>
      <trkpt lat="43.32473" lon="2.03725">
        <ele>172.4</ele>
        <time>2024-05-11T12:27:26Z</time>
      </trkpt>
      <trkpt lat="43.32458" lon="2.03749">
        <ele>173.4</ele>
        <time>2024-05-11T12:27:27Z</time>
      </trkpt>
      <trkpt lat="43.32444" lon="2.03773">
        <ele>172.8</ele>
        <time>2024-05-11T12:27:28Z</time>
      </trkpt>
      <trkpt lat="43.3243" lon="2.03799">
        <ele>172.7</ele>
        <time>2024-05-11T12:27:29Z</time>
      </trkpt>
      <trkpt lat="43.32416" lon="2.03827">
        <ele>172.7</ele>
        <time>2024-05-11T12:27:30Z</time>
      </trkpt>
      <trkpt lat="43.32401" lon="2.03855">
        <ele>172.2</ele>
        <time>2024-05-11T12:27:31Z</time>
      </trkpt>
      <trkpt lat="43.32386" lon="2.03885">
        <ele>172.7</ele>
        <time>2024-05-11T12:27:32Z</time>
      </trkpt>
      <trkpt lat="43.32371" lon="2.03914">
        <ele>174.2</ele>
        <time>2024-05-11T12:27:33Z</time>
      </trkpt>
      <trkpt lat="43.32357" lon="2.03943">
        <ele>175.5</ele>
        <time>2024-05-11T12:27:34Z</time>
      </trkpt>
      <trkpt lat="43.32343" lon="2.03969">
        <ele>176.4</ele>
        <time>2024-05-11T12:27:35Z</time>
      </trkpt>
      <trkpt lat="43.32329" lon="2.03994">
        <ele>177.1</ele>
        <time>2024-05-11T12:27:36Z</time>
      </trkpt>
      <trkpt lat="43.32316" lon="2.04017">
        <ele>177.4</ele>
        <time>2024-05-11T12:27:37Z</time>
      </trkpt>
      <trkpt lat="43.32304" lon="2.0404">
        <ele>177.7</ele>
        <time>2024-05-11T12:27:38Z</time>
      </trkpt>
      <trkpt lat="43.32293" lon="2.04064">
        <ele>177.9</ele>
        <time>2024-05-11T12:27:39Z</time>
      </trkpt>
      <trkpt lat="43.32282" lon="2.04089">
        <ele>177.8</ele>
        <time>2024-05-11T12:27:40Z</time>
      </trkpt>
      <trkpt lat="43.32272" lon="2.04113">
        <ele>178.4</ele>
        <time>2024-05-11T12:27:41Z</time>
      </trkpt>
      <trkpt lat="43.32263" lon="2.04137">
        <ele>178.3</ele>
        <time>2024-05-11T12:27:42Z</time>
      </trkpt>
      <trkpt lat="43.32254" lon="2.0416">
        <ele>178.8</ele>
        <time>2024-05-11T12:27:43Z</time>
      </trkpt>
      <trkpt lat="43.32247" lon="2.04183">
        <ele>179.3</ele>
        <time>2024-05-11T12:27:44Z</time>
      </trkpt>
      <trkpt lat="43.3224" lon="2.04205">
        <ele>179.5</ele>
        <time>2024-05-11T12:27:45Z</time>
      </trkpt>
      <trkpt lat="43.32233" lon="2.04227">
        <ele>179.7</ele>
        <time>2024-05-11T12:27:46Z</time>
      </trkpt>
      <trkpt lat="43.32226" lon="2.0425">
        <ele>179.5</ele>
        <time>2024-05-11T12:27:47Z</time>
      </trkpt>
      <trkpt lat="43.32219" lon="2.04273">
        <ele>178.9</ele>
        <time>2024-05-11T12:27:48Z</time>
      </trkpt>
      <trkpt lat="43.32211" lon="2.04296">
        <ele>178.6</ele>
        <time>2024-05-11T12:27:49Z</time>
      </trkpt>
      <trkpt lat="43.32201" lon="2.04319">
        <ele>178.2</ele>
        <time>2024-05-11T12:27:50Z</time>
      </trkpt>
      <trkpt lat="43.32191" lon="2.04341">
        <ele>177.9</ele>
        <time>2024-05-11T12:27:51Z</time>
      </trkpt>
      <trkpt lat="43.32177" lon="2.0436">
        <ele>177.4</ele>
        <time>2024-05-11T12:27:52Z</time>
      </trkpt>
      <trkpt lat="43.32162" lon="2.04378">
        <ele>177</ele>
        <time>2024-05-11T12:27:53Z</time>
      </trkpt>
      <trkpt lat="43.32147" lon="2.04393">
        <ele>176.3</ele>
        <time>2024-05-11T12:27:54Z</time>
      </trkpt>
      <trkpt lat="43.32131" lon="2.04404">
        <ele>176</ele>
        <time>2024-05-11T12:27:55Z</time>
      </trkpt>
      <trkpt lat="43.32115" lon="2.04413">
        <ele>175.4</ele>
        <time>2024-05-11T12:27:56Z</time>
      </trkpt>
      <trkpt lat="43.32098" lon="2.0442">
        <ele>174.8</ele>
        <time>2024-05-11T12:27:57Z</time>
      </trkpt>
      <trkpt lat="43.3208" lon="2.04426">
        <ele>174.3</ele>
        <time>2024-05-11T12:27:58Z</time>
      </trkpt>
      <trkpt lat="43.32061" lon="2.0443">
        <ele>174</ele>
        <time>2024-05-11T12:27:59Z</time>
      </trkpt>
      <trkpt lat="43.32042" lon="2.04435">
        <ele>173.7</ele>
        <time>2024-05-11T12:28:00Z</time>
      </trkpt>
      <trkpt lat="43.32022" lon="2.04439">
        <ele>173.6</ele>
        <time>2024-05-11T12:28:01Z</time>
      </trkpt>
      <trkpt lat="43.32002" lon="2.04444">
        <ele>173.9</ele>
        <time>2024-05-11T12:28:02Z</time>
      </trkpt>
      <trkpt lat="43.31984" lon="2.04448">
        <ele>174.3</ele>
        <time>2024-05-11T12:28:03Z</time>
      </trkpt>
      <trkpt lat="43.31967" lon="2.04451">
        <ele>174.8</ele>
        <time>2024-05-11T12:28:04Z</time>
      </trkpt>
      <trkpt lat="43.31951" lon="2.04455">
        <ele>175.3</ele>
        <time>2024-05-11T12:28:05Z</time>
      </trkpt>
      <trkpt lat="43.31937" lon="2.04459">
        <ele>176</ele>
        <time>2024-05-11T12:28:06Z</time>
      </trkpt>
      <trkpt lat="43.31925" lon="2.04461">
        <ele>176.8</ele>
        <time>2024-05-11T12:28:07Z</time>
      </trkpt>
      <trkpt lat="43.31914" lon="2.04464">
        <ele>177.4</ele>
        <time>2024-05-11T12:28:08Z</time>
      </trkpt>
      <trkpt lat="43.31904" lon="2.04466">
        <ele>177.6</ele>
        <time>2024-05-11T12:28:09Z</time>
      </trkpt>
      <trkpt lat="43.31895" lon="2.04468">
        <ele>177.8</ele>
        <time>2024-05-11T12:28:10Z</time>
      </trkpt>
      <trkpt lat="43.31885" lon="2.04469">
        <ele>178</ele>
        <time>2024-05-11T12:28:11Z</time>
      </trkpt>
      <trkpt lat="43.31874" lon="2.0447">
        <ele>178</ele>
        <time>2024-05-11T12:28:12Z</time>
      </trkpt>
      <trkpt lat="43.31861" lon="2.04471">
        <ele>178</ele>
        <time>2024-05-11T12:28:13Z</time>
      </trkpt>
      <trkpt lat="43.31847" lon="2.04471">
        <ele>177.5</ele>
        <time>2024-05-11T12:28:14Z</time>
      </trkpt>
      <trkpt lat="43.31832" lon="2.0447">
        <ele>177</ele>
        <time>2024-05-11T12:28:15Z</time>
      </trkpt>
      <trkpt lat="43.31814" lon="2.04468">
        <ele>176.5</ele>
        <time>2024-05-11T12:28:16Z</time>
      </trkpt>
      <trkpt lat="43.31795" lon="2.04465">
        <ele>176.3</ele>
        <time>2024-05-11T12:28:17Z</time>
      </trkpt>
      <trkpt lat="43.31776" lon="2.04463">
        <ele>176.3</ele>
        <time>2024-05-11T12:28:18Z</time>
      </trkpt>
      <trkpt lat="43.31757" lon="2.04461">
        <ele>175.7</ele>
        <time>2024-05-11T12:28:19Z</time>
      </trkpt>
      <trkpt lat="43.31737" lon="2.0446">
        <ele>175.7</ele>
        <time>2024-05-11T12:28:20Z</time>
      </trkpt>
      <trkpt lat="43.31718" lon="2.04458">
        <ele>176</ele>
        <time>2024-05-11T12:28:21Z</time>
      </trkpt>
      <trkpt lat="43.31699" lon="2.04456">
        <ele>176</ele>
        <time>2024-05-11T12:28:22Z</time>
      </trkpt>
      <trkpt lat="43.31681" lon="2.04455">
        <ele>175.8</ele>
        <time>2024-05-11T12:28:23Z</time>
      </trkpt>
      <trkpt lat="43.31662" lon="2.04453">
        <ele>175.6</ele>
        <time>2024-05-11T12:28:24Z</time>
      </trkpt>
      <trkpt lat="43.31645" lon="2.04451">
        <ele>175.2</ele>
        <time>2024-05-11T12:28:25Z</time>
      </trkpt>
      <trkpt lat="43.31628" lon="2.0445">
        <ele>174.6</ele>
        <time>2024-05-11T12:28:26Z</time>
      </trkpt>
      <trkpt lat="43.31612" lon="2.04449">
        <ele>174</ele>
        <time>2024-05-11T12:28:27Z</time>
      </trkpt>
      <trkpt lat="43.31595" lon="2.04449">
        <ele>172.9</ele>
        <time>2024-05-11T12:28:28Z</time>
      </trkpt>
      <trkpt lat="43.31579" lon="2.04449">
        <ele>172.1</ele>
        <time>2024-05-11T12:28:29Z</time>
      </trkpt>
      <trkpt lat="43.31563" lon="2.04449">
        <ele>171.9</ele>
        <time>2024-05-11T12:28:30Z</time>
      </trkpt>
      <trkpt lat="43.31547" lon="2.04449">
        <ele>171.6</ele>
        <time>2024-05-11T12:28:31Z</time>
      </trkpt>
      <trkpt lat="43.31532" lon="2.0445">
        <ele>171.1</ele>
        <time>2024-05-11T12:28:32Z</time>
      </trkpt>
      <trkpt lat="43.31518" lon="2.04452">
        <ele>170.9</ele>
        <time>2024-05-11T12:28:33Z</time>
      </trkpt>
      <trkpt lat="43.31503" lon="2.04456">
        <ele>170.6</ele>
        <time>2024-05-11T12:28:34Z</time>
      </trkpt>
      <trkpt lat="43.31489" lon="2.04461">
        <ele>170.5</ele>
        <time>2024-05-11T12:28:35Z</time>
      </trkpt>
      <trkpt lat="43.31476" lon="2.04467">
        <ele>170.7</ele>
        <time>2024-05-11T12:28:36Z</time>
      </trkpt>
      <trkpt lat="43.31462" lon="2.04474">
        <ele>170.9</ele>
        <time>2024-05-11T12:28:37Z</time>
      </trkpt>
      <trkpt lat="43.31449" lon="2.0448">
        <ele>170.7</ele>
        <time>2024-05-11T12:28:38Z</time>
      </trkpt>
      <trkpt lat="43.31436" lon="2.04486">
        <ele>170.5</ele>
        <time>2024-05-11T12:28:39Z</time>
      </trkpt>
      <trkpt lat="43.31424" lon="2.04492">
        <ele>170.3</ele>
        <time>2024-05-11T12:28:40Z</time>
      </trkpt>
      <trkpt lat="43.31411" lon="2.04497">
        <ele>170.3</ele>
        <time>2024-05-11T12:28:41Z</time>
      </trkpt>
      <trkpt lat="43.31398" lon="2.04503">
        <ele>170.6</ele>
        <time>2024-05-11T12:28:42Z</time>
      </trkpt>
      <trkpt lat="43.31385" lon="2.04509">
        <ele>170.7</ele>
        <time>2024-05-11T12:28:43Z</time>
      </trkpt>
      <trkpt lat="43.31372" lon="2.04516">
        <ele>170.4</ele>
        <time>2024-05-11T12:28:44Z</time>
      </trkpt>
      <trkpt lat="43.31359" lon="2.04524">
        <ele>170.1</ele>
        <time>2024-05-11T12:28:45Z</time>
      </trkpt>
      <trkpt lat="43.31345" lon="2.04531">
        <ele>170</ele>
        <time>2024-05-11T12:28:46Z</time>
      </trkpt>
      <trkpt lat="43.31332" lon="2.04539">
        <ele>170</ele>
        <time>2024-05-11T12:28:47Z</time>
      </trkpt>
      <trkpt lat="43.31319" lon="2.04546">
        <ele>170</ele>
        <time>2024-05-11T12:28:48Z</time>
      </trkpt>
      <trkpt lat="43.31306" lon="2.04554">
        <ele>170</ele>
        <time>2024-05-11T12:28:49Z</time>
      </trkpt>
      <trkpt lat="43.31294" lon="2.04561">
        <ele>169.9</ele>
        <time>2024-05-11T12:28:50Z</time>
      </trkpt>
      <trkpt lat="43.31282" lon="2.04567">
        <ele>169.7</ele>
        <time>2024-05-11T12:28:51Z</time>
      </trkpt>
      <trkpt lat="43.31269" lon="2.04574">
        <ele>169.5</ele>
        <time>2024-05-11T12:28:52Z</time>
      </trkpt>
      <trkpt lat="43.31255" lon="2.04582">
        <ele>169.8</ele>
        <time>2024-05-11T12:28:53Z</time>
      </trkpt>
      <trkpt lat="43.31241" lon="2.0459">
        <ele>169.5</ele>
        <time>2024-05-11T12:28:54Z</time>
      </trkpt>
      <trkpt lat="43.31225" lon="2.04598">
        <ele>169</ele>
        <time>2024-05-11T12:28:55Z</time>
      </trkpt>
      <trkpt lat="43.31209" lon="2.04606">
        <ele>168.8</ele>
        <time>2024-05-11T12:28:56Z</time>
      </trkpt>
      <trkpt lat="43.31192" lon="2.04615">
        <ele>168.9</ele>
        <time>2024-05-11T12:28:57Z</time>
      </trkpt>
      <trkpt lat="43.31175" lon="2.04627">
        <ele>168.7</ele>
        <time>2024-05-11T12:28:58Z</time>
      </trkpt>
      <trkpt lat="43.31158" lon="2.04639">
        <ele>169</ele>
        <time>2024-05-11T12:28:59Z</time>
      </trkpt>
      <trkpt lat="43.31141" lon="2.04654">
        <ele>169</ele>
        <time>2024-05-11T12:29:00Z</time>
      </trkpt>
      <trkpt lat="43.31124" lon="2.04669">
        <ele>168.4</ele>
        <time>2024-05-11T12:29:01Z</time>
      </trkpt>
      <trkpt lat="43.31107" lon="2.04685">
        <ele>168</ele>
        <time>2024-05-11T12:29:02Z</time>
      </trkpt>
      <trkpt lat="43.31091" lon="2.04702">
        <ele>168</ele>
        <time>2024-05-11T12:29:03Z</time>
      </trkpt>
      <trkpt lat="43.31075" lon="2.04717">
        <ele>168</ele>
        <time>2024-05-11T12:29:04Z</time>
      </trkpt>
      <trkpt lat="43.31058" lon="2.04733">
        <ele>168</ele>
        <time>2024-05-11T12:29:05Z</time>
      </trkpt>
      <trkpt lat="43.31042" lon="2.04749">
        <ele>168</ele>
        <time>2024-05-11T12:29:06Z</time>
      </trkpt>
      <trkpt lat="43.31025" lon="2.04764">
        <ele>167.9</ele>
        <time>2024-05-11T12:29:07Z</time>
      </trkpt>
      <trkpt lat="43.31009" lon="2.04778">
        <ele>167.3</ele>
        <time>2024-05-11T12:29:08Z</time>
      </trkpt>
      <trkpt lat="43.30994" lon="2.04793">
        <ele>167</ele>
        <time>2024-05-11T12:29:09Z</time>
      </trkpt>
      <trkpt lat="43.30978" lon="2.04807">
        <ele>167</ele>
        <time>2024-05-11T12:29:10Z</time>
      </trkpt>
      <trkpt lat="43.30962" lon="2.04822">
        <ele>166.8</ele>
        <time>2024-05-11T12:29:11Z</time>
      </trkpt>
      <trkpt lat="43.30946" lon="2.04836">
        <ele>166.9</ele>
        <time>2024-05-11T12:29:12Z</time>
      </trkpt>
      <trkpt lat="43.30931" lon="2.0485">
        <ele>166.5</ele>
        <time>2024-05-11T12:29:13Z</time>
      </trkpt>
      <trkpt lat="43.30915" lon="2.04864">
        <ele>166.8</ele>
        <time>2024-05-11T12:29:14Z</time>
      </trkpt>
      <trkpt lat="43.30899" lon="2.04877">
        <ele>166.5</ele>
        <time>2024-05-11T12:29:15Z</time>
      </trkpt>
      <trkpt lat="43.30882" lon="2.04889">
        <ele>166.7</ele>
        <time>2024-05-11T12:29:16Z</time>
      </trkpt>
      <trkpt lat="43.30865" lon="2.04901">
        <ele>166.1</ele>
        <time>2024-05-11T12:29:17Z</time>
      </trkpt>
      <trkpt lat="43.30847" lon="2.04913">
        <ele>166</ele>
        <time>2024-05-11T12:29:18Z</time>
      </trkpt>
      <trkpt lat="43.30829" lon="2.04925">
        <ele>166</ele>
        <time>2024-05-11T12:29:19Z</time>
      </trkpt>
      <trkpt lat="43.30811" lon="2.04937">
        <ele>166</ele>
        <time>2024-05-11T12:29:20Z</time>
      </trkpt>
      <trkpt lat="43.30793" lon="2.04949">
        <ele>166</ele>
        <time>2024-05-11T12:29:21Z</time>
      </trkpt>
      <trkpt lat="43.30775" lon="2.04962">
        <ele>166</ele>
        <time>2024-05-11T12:29:22Z</time>
      </trkpt>
      <trkpt lat="43.30756" lon="2.04974">
        <ele>166</ele>
        <time>2024-05-11T12:29:23Z</time>
      </trkpt>
      <trkpt lat="43.30737" lon="2.04987">
        <ele>166</ele>
        <time>2024-05-11T12:29:24Z</time>
      </trkpt>
      <trkpt lat="43.30719" lon="2.04999">
        <ele>165.9</ele>
        <time>2024-05-11T12:29:25Z</time>
      </trkpt>
      <trkpt lat="43.307" lon="2.05011">
        <ele>165.2</ele>
        <time>2024-05-11T12:29:26Z</time>
      </trkpt>
      <trkpt lat="43.30683" lon="2.05024">
        <ele>165</ele>
        <time>2024-05-11T12:29:27Z</time>
      </trkpt>
      <trkpt lat="43.30666" lon="2.05036">
        <ele>165</ele>
        <time>2024-05-11T12:29:28Z</time>
      </trkpt>
      <trkpt lat="43.30648" lon="2.05047">
        <ele>165</ele>
        <time>2024-05-11T12:29:29Z</time>
      </trkpt>
      <trkpt lat="43.30631" lon="2.05056">
        <ele>165</ele>
        <time>2024-05-11T12:29:30Z</time>
      </trkpt>
      <trkpt lat="43.30614" lon="2.05062">
        <ele>165</ele>
        <time>2024-05-11T12:29:31Z</time>
      </trkpt>
      <trkpt lat="43.30597" lon="2.05068">
        <ele>164.5</ele>
        <time>2024-05-11T12:29:32Z</time>
      </trkpt>
      <trkpt lat="43.3058" lon="2.05072">
        <ele>164</ele>
        <time>2024-05-11T12:29:33Z</time>
      </trkpt>
      <trkpt lat="43.30564" lon="2.05075">
        <ele>163.8</ele>
        <time>2024-05-11T12:29:34Z</time>
      </trkpt>
      <trkpt lat="43.30549" lon="2.05078">
        <ele>163.8</ele>
        <time>2024-05-11T12:29:35Z</time>
      </trkpt>
      <trkpt lat="43.30534" lon="2.05081">
        <ele>163.9</ele>
        <time>2024-05-11T12:29:36Z</time>
      </trkpt>
      <trkpt lat="43.30519" lon="2.05084">
        <ele>164</ele>
        <time>2024-05-11T12:29:37Z</time>
      </trkpt>
      <trkpt lat="43.30504" lon="2.05087">
        <ele>164</ele>
        <time>2024-05-11T12:29:38Z</time>
      </trkpt>
      <trkpt lat="43.30488" lon="2.0509">
        <ele>164</ele>
        <time>2024-05-11T12:29:39Z</time>
      </trkpt>
      <trkpt lat="43.30472" lon="2.05093">
        <ele>164</ele>
        <time>2024-05-11T12:29:40Z</time>
      </trkpt>
      <trkpt lat="43.30455" lon="2.05096">
        <ele>164</ele>
        <time>2024-05-11T12:29:41Z</time>
      </trkpt>
      <trkpt lat="43.30437" lon="2.051">
        <ele>164</ele>
        <time>2024-05-11T12:29:42Z</time>
      </trkpt>
      <trkpt lat="43.30419" lon="2.05102">
        <ele>164</ele>
        <time>2024-05-11T12:29:43Z</time>
      </trkpt>
      <trkpt lat="43.304" lon="2.05104">
        <ele>164.2</ele>
        <time>2024-05-11T12:29:44Z</time>
      </trkpt>
      <trkpt lat="43.3038" lon="2.05103">
        <ele>164.3</ele>
        <time>2024-05-11T12:29:45Z</time>
      </trkpt>
      <trkpt lat="43.30361" lon="2.051">
        <ele>164.4</ele>
        <time>2024-05-11T12:29:46Z</time>
      </trkpt>
      <trkpt lat="43.30342" lon="2.05096">
        <ele>164.2</ele>
        <time>2024-05-11T12:29:47Z</time>
      </trkpt>
      <trkpt lat="43.30323" lon="2.0509">
        <ele>164</ele>
        <time>2024-05-11T12:29:48Z</time>
      </trkpt>
      <trkpt lat="43.30304" lon="2.05081">
        <ele>164</ele>
        <time>2024-05-11T12:29:49Z</time>
      </trkpt>
      <trkpt lat="43.30286" lon="2.05071">
        <ele>164</ele>
        <time>2024-05-11T12:29:50Z</time>
      </trkpt>
      <trkpt lat="43.30269" lon="2.05059">
        <ele>163.7</ele>
        <time>2024-05-11T12:29:51Z</time>
      </trkpt>
      <trkpt lat="43.30252" lon="2.05047">
        <ele>162.8</ele>
        <time>2024-05-11T12:29:52Z</time>
      </trkpt>
      <trkpt lat="43.30235" lon="2.05035">
        <ele>161.1</ele>
        <time>2024-05-11T12:29:53Z</time>
      </trkpt>
      <trkpt lat="43.30219" lon="2.05022">
        <ele>158.9</ele>
        <time>2024-05-11T12:29:54Z</time>
      </trkpt>
      <trkpt lat="43.30203" lon="2.0501">
        <ele>157.7</ele>
        <time>2024-05-11T12:29:55Z</time>
      </trkpt>
      <trkpt lat="43.30187" lon="2.04997">
        <ele>155.8</ele>
        <time>2024-05-11T12:29:56Z</time>
      </trkpt>
      <trkpt lat="43.30171" lon="2.04985">
        <ele>154.5</ele>
        <time>2024-05-11T12:29:57Z</time>
      </trkpt>
      <trkpt lat="43.30156" lon="2.04972">
        <ele>152.6</ele>
        <time>2024-05-11T12:29:58Z</time>
      </trkpt>
      <trkpt lat="43.3014" lon="2.0496">
        <ele>151.2</ele>
        <time>2024-05-11T12:29:59Z</time>
      </trkpt>
      <trkpt lat="43.30124" lon="2.04948">
        <ele>149.7</ele>
        <time>2024-05-11T12:30:00Z</time>
      </trkpt>
      <trkpt lat="43.30108" lon="2.04935">
        <ele>148.7</ele>
        <time>2024-05-11T12:30:01Z</time>
      </trkpt>
      <trkpt lat="43.30093" lon="2.04923">
        <ele>147</ele>
        <time>2024-05-11T12:30:02Z</time>
      </trkpt>
      <trkpt lat="43.30077" lon="2.04912">
        <ele>145.2</ele>
        <time>2024-05-11T12:30:03Z</time>
      </trkpt>
      <trkpt lat="43.30064" lon="2.04901">
        <ele>143.7</ele>
        <time>2024-05-11T12:30:04Z</time>
      </trkpt>
      <trkpt lat="43.3005" lon="2.04893">
        <ele>142.6</ele>
        <time>2024-05-11T12:30:05Z</time>
      </trkpt>
      <trkpt lat="43.30038" lon="2.04885">
        <ele>141.7</ele>
        <time>2024-05-11T12:30:06Z</time>
      </trkpt>
      <trkpt lat="43.30027" lon="2.04879">
        <ele>141</ele>
        <time>2024-05-11T12:30:07Z</time>
      </trkpt>
      <trkpt lat="43.30016" lon="2.04874">
        <ele>140.6</ele>
        <time>2024-05-11T12:30:08Z</time>
      </trkpt>
      <trkpt lat="43.30006" lon="2.0487">
        <ele>140.2</ele>
        <time>2024-05-11T12:30:09Z</time>
      </trkpt>
      <trkpt lat="43.29996" lon="2.04867">
        <ele>140</ele>
        <time>2024-05-11T12:30:10Z</time>
      </trkpt>
      <trkpt lat="43.29988" lon="2.04865">
        <ele>139.9</ele>
        <time>2024-05-11T12:30:11Z</time>
      </trkpt>
      <trkpt lat="43.29981" lon="2.04863">
        <ele>140</ele>
        <time>2024-05-11T12:30:12Z</time>
      </trkpt>
      <trkpt lat="43.29974" lon="2.04862">
        <ele>140</ele>
        <time>2024-05-11T12:30:13Z</time>
      </trkpt>
      <trkpt lat="43.29969" lon="2.0486">
        <ele>139.8</ele>
        <time>2024-05-11T12:30:14Z</time>
      </trkpt>
      <trkpt lat="43.29965" lon="2.0486">
        <ele>139.7</ele>
        <time>2024-05-11T12:30:15Z</time>
      </trkpt>
      <trkpt lat="43.29961" lon="2.04859">
        <ele>139.6</ele>
        <time>2024-05-11T12:30:16Z</time>
      </trkpt>
      <trkpt lat="43.29959" lon="2.0486">
        <ele>139.5</ele>
        <time>2024-05-11T12:30:17Z</time>
      </trkpt>
      <trkpt lat="43.29958" lon="2.04861">
        <ele>139.5</ele>
        <time>2024-05-11T12:30:18Z</time>
      </trkpt>
      <trkpt lat="43.29957" lon="2.04863">
        <ele>139.4</ele>
        <time>2024-05-11T12:30:19Z</time>
      </trkpt>
      <trkpt lat="43.29956" lon="2.04864">
        <ele>139.4</ele>
        <time>2024-05-11T12:30:20Z</time>
      </trkpt>
      <trkpt lat="43.29956" lon="2.04863">
        <ele>139.4</ele>
        <time>2024-05-11T12:30:21Z</time>
      </trkpt>
      <trkpt lat="43.29956" lon="2.04863">
        <ele>139.4</ele>
        <time>2024-05-11T12:30:22Z</time>
      </trkpt>
      <trkpt lat="43.29956" lon="2.04863">
        <ele>139.4</ele>
        <time>2024-05-11T12:30:23Z</time>
      </trkpt>
      <trkpt lat="43.29956" lon="2.04863">
        <ele>139.4</ele>
        <time>2024-05-11T12:30:24Z</time>
      </trkpt>
      <trkpt lat="43.29956" lon="2.04863">
        <ele>139.4</ele>
        <time>2024-05-11T12:30:25Z</time>
      </trkpt>
      <trkpt lat="43.29956" lon="2.04863">
        <ele>139.4</ele>
        <time>2024-05-11T12:30:26Z</time>
      </trkpt>
      <trkpt lat="43.29956" lon="2.04865">
        <ele>139.4</ele>
        <time>2024-05-11T12:30:27Z</time>
      </trkpt>
      <trkpt lat="43.29955" lon="2.04868">
        <ele>139.3</ele>
        <time>2024-05-11T12:30:28Z</time>
      </trkpt>
      <trkpt lat="43.29956" lon="2.04874">
        <ele>139.2</ele>
        <time>2024-05-11T12:30:29Z</time>
      </trkpt>
      <trkpt lat="43.29955" lon="2.04884">
        <ele>139.1</ele>
        <time>2024-05-11T12:30:30Z</time>
      </trkpt>
      <trkpt lat="43.29954" lon="2.04896">
        <ele>139</ele>
        <time>2024-05-11T12:30:31Z</time>
      </trkpt>
      <trkpt lat="43.29952" lon="2.04908">
        <ele>139</ele>
        <time>2024-05-11T12:30:32Z</time>
      </trkpt>
      <trkpt lat="43.2995" lon="2.04922">
        <ele>138.8</ele>
        <time>2024-05-11T12:30:33Z</time>
      </trkpt>
      <trkpt lat="43.29946" lon="2.04939">
        <ele>138.2</ele>
        <time>2024-05-11T12:30:34Z</time>
      </trkpt>
      <trkpt lat="43.29942" lon="2.04957">
        <ele>138</ele>
        <time>2024-05-11T12:30:35Z</time>
      </trkpt>
      <trkpt lat="43.29938" lon="2.04977">
        <ele>138.1</ele>
        <time>2024-05-11T12:30:36Z</time>
      </trkpt>
      <trkpt lat="43.29934" lon="2.04996">
        <ele>138.5</ele>
        <time>2024-05-11T12:30:37Z</time>
      </trkpt>
      <trkpt lat="43.29932" lon="2.05016">
        <ele>138.6</ele>
        <time>2024-05-11T12:30:38Z</time>
      </trkpt>
      <trkpt lat="43.2993" lon="2.05036">
        <ele>138.5</ele>
        <time>2024-05-11T12:30:39Z</time>
      </trkpt>
      <trkpt lat="43.29928" lon="2.05059">
        <ele>138.4</ele>
        <time>2024-05-11T12:30:40Z</time>
      </trkpt>
      <trkpt lat="43.29925" lon="2.05082">
        <ele>138.3</ele>
        <time>2024-05-11T12:30:41Z</time>
      </trkpt>
      <trkpt lat="43.2992" lon="2.05105">
        <ele>138.1</ele>
        <time>2024-05-11T12:30:42Z</time>
      </trkpt>
      <trkpt lat="43.29914" lon="2.05129">
        <ele>138.6</ele>
        <time>2024-05-11T12:30:43Z</time>
      </trkpt>
      <trkpt lat="43.29908" lon="2.05153">
        <ele>138.7</ele>
        <time>2024-05-11T12:30:44Z</time>
      </trkpt>
      <trkpt lat="43.29902" lon="2.05177">
        <ele>138.5</ele>
        <time>2024-05-11T12:30:45Z</time>
      </trkpt>
      <trkpt lat="43.29896" lon="2.05199">
        <ele>138.3</ele>
        <time>2024-05-11T12:30:46Z</time>
      </trkpt>
      <trkpt lat="43.29889" lon="2.05223">
        <ele>138</ele>
        <time>2024-05-11T12:30:47Z</time>
      </trkpt>
      <trkpt lat="43.29883" lon="2.05247">
        <ele>137.8</ele>
        <time>2024-05-11T12:30:48Z</time>
      </trkpt>
      <trkpt lat="43.29877" lon="2.05272">
        <ele>138</ele>
        <time>2024-05-11T12:30:49Z</time>
      </trkpt>
      <trkpt lat="43.29872" lon="2.05298">
        <ele>137.5</ele>
        <time>2024-05-11T12:30:50Z</time>
      </trkpt>
      <trkpt lat="43.29867" lon="2.05325">
        <ele>137.2</ele>
        <time>2024-05-11T12:30:51Z</time>
      </trkpt>
      <trkpt lat="43.29864" lon="2.05354">
        <ele>137.1</ele>
        <time>2024-05-11T12:30:52Z</time>
      </trkpt>
      <trkpt lat="43.2986" lon="2.05384">
        <ele>137</ele>
        <time>2024-05-11T12:30:53Z</time>
      </trkpt>
      <trkpt lat="43.29856" lon="2.05414">
        <ele>137.7</ele>
        <time>2024-05-11T12:30:54Z</time>
      </trkpt>
      <trkpt lat="43.29852" lon="2.05445">
        <ele>137</ele>
        <time>2024-05-11T12:30:55Z</time>
      </trkpt>
      <trkpt lat="43.29847" lon="2.05477">
        <ele>137.5</ele>
        <time>2024-05-11T12:30:56Z</time>
      </trkpt>
      <trkpt lat="43.29841" lon="2.05507">
        <ele>137.3</ele>
        <time>2024-05-11T12:30:57Z</time>
      </trkpt>
      <trkpt lat="43.29834" lon="2.05538">
        <ele>137</ele>
        <time>2024-05-11T12:30:58Z</time>
      </trkpt>
      <trkpt lat="43.29826" lon="2.05568">
        <ele>137.3</ele>
        <time>2024-05-11T12:30:59Z</time>
      </trkpt>
      <trkpt lat="43.29816" lon="2.05598">
        <ele>137.4</ele>
        <time>2024-05-11T12:31:00Z</time>
      </trkpt>
      <trkpt lat="43.29805" lon="2.05627">
        <ele>137</ele>
        <time>2024-05-11T12:31:01Z</time>
      </trkpt>
      <trkpt lat="43.29795" lon="2.05657">
        <ele>137</ele>
        <time>2024-05-11T12:31:02Z</time>
      </trkpt>
      <trkpt lat="43.29786" lon="2.05688">
        <ele>137.2</ele>
        <time>2024-05-11T12:31:03Z</time>
      </trkpt>
      <trkpt lat="43.29778" lon="2.05719">
        <ele>137</ele>
        <time>2024-05-11T12:31:04Z</time>
      </trkpt>
      <trkpt lat="43.29771" lon="2.05751">
        <ele>137</ele>
        <time>2024-05-11T12:31:05Z</time>
      </trkpt>
      <trkpt lat="43.29766" lon="2.05783">
        <ele>137.1</ele>
        <time>2024-05-11T12:31:06Z</time>
      </trkpt>
      <trkpt lat="43.29762" lon="2.05815">
        <ele>137.4</ele>
        <time>2024-05-11T12:31:07Z</time>
      </trkpt>
      <trkpt lat="43.2976" lon="2.05845">
        <ele>137.4</ele>
        <time>2024-05-11T12:31:08Z</time>
      </trkpt>
      <trkpt lat="43.2976" lon="2.05874">
        <ele>137.4</ele>
        <time>2024-05-11T12:31:09Z</time>
      </trkpt>
      <trkpt lat="43.2976" lon="2.05901">
        <ele>137.2</ele>
        <time>2024-05-11T12:31:10Z</time>
      </trkpt>
      <trkpt lat="43.2976" lon="2.05926">
        <ele>137</ele>
        <time>2024-05-11T12:31:11Z</time>
      </trkpt>
      <trkpt lat="43.2976" lon="2.05949">
        <ele>137</ele>
        <time>2024-05-11T12:31:12Z</time>
      </trkpt>
      <trkpt lat="43.29758" lon="2.05969">
        <ele>137</ele>
        <time>2024-05-11T12:31:13Z</time>
      </trkpt>
      <trkpt lat="43.29755" lon="2.05988">
        <ele>137.6</ele>
        <time>2024-05-11T12:31:14Z</time>
      </trkpt>
      <trkpt lat="43.29749" lon="2.06008">
        <ele>137.7</ele>
        <time>2024-05-11T12:31:15Z</time>
      </trkpt>
      <trkpt lat="43.29741" lon="2.0603">
        <ele>137.1</ele>
        <time>2024-05-11T12:31:16Z</time>
      </trkpt>
      <trkpt lat="43.29731" lon="2.06054">
        <ele>137.3</ele>
        <time>2024-05-11T12:31:17Z</time>
      </trkpt>
      <trkpt lat="43.29719" lon="2.0608">
        <ele>137</ele>
        <time>2024-05-11T12:31:18Z</time>
      </trkpt>
      <trkpt lat="43.29707" lon="2.06105">
        <ele>137.4</ele>
        <time>2024-05-11T12:31:19Z</time>
      </trkpt>
      <trkpt lat="43.29695" lon="2.06132">
        <ele>137</ele>
        <time>2024-05-11T12:31:20Z</time>
      </trkpt>
      <trkpt lat="43.29682" lon="2.06159">
        <ele>137</ele>
        <time>2024-05-11T12:31:21Z</time>
      </trkpt>
      <trkpt lat="43.2967" lon="2.06187">
        <ele>136.4</ele>
        <time>2024-05-11T12:31:22Z</time>
      </trkpt>
      <trkpt lat="43.29657" lon="2.06215">
        <ele>136.8</ele>
        <time>2024-05-11T12:31:23Z</time>
      </trkpt>
      <trkpt lat="43.29645" lon="2.06243">
        <ele>137</ele>
        <time>2024-05-11T12:31:24Z</time>
      </trkpt>
      <trkpt lat="43.29633" lon="2.06271">
        <ele>137</ele>
        <time>2024-05-11T12:31:25Z</time>
      </trkpt>
      <trkpt lat="43.29622" lon="2.063">
        <ele>137</ele>
        <time>2024-05-11T12:31:26Z</time>
      </trkpt>
      <trkpt lat="43.29611" lon="2.0633">
        <ele>137</ele>
        <time>2024-05-11T12:31:27Z</time>
      </trkpt>
      <trkpt lat="43.29601" lon="2.0636">
        <ele>137</ele>
        <time>2024-05-11T12:31:28Z</time>
      </trkpt>
      <trkpt lat="43.2959" lon="2.0639">
        <ele>136.3</ele>
        <time>2024-05-11T12:31:29Z</time>
      </trkpt>
      <trkpt lat="43.29579" lon="2.06418">
        <ele>136.8</ele>
        <time>2024-05-11T12:31:30Z</time>
      </trkpt>
      <trkpt lat="43.29568" lon="2.06446">
        <ele>136.4</ele>
        <time>2024-05-11T12:31:31Z</time>
      </trkpt>
      <trkpt lat="43.29556" lon="2.06474">
        <ele>136.1</ele>
        <time>2024-05-11T12:31:32Z</time>
      </trkpt>
      <trkpt lat="43.29542" lon="2.065">
        <ele>136.5</ele>
        <time>2024-05-11T12:31:33Z</time>
      </trkpt>
      <trkpt lat="43.29527" lon="2.06526">
        <ele>136.9</ele>
        <time>2024-05-11T12:31:34Z</time>
      </trkpt>
      <trkpt lat="43.29512" lon="2.06553">
        <ele>136.4</ele>
        <time>2024-05-11T12:31:35Z</time>
      </trkpt>
      <trkpt lat="43.29496" lon="2.0658">
        <ele>136.8</ele>
        <time>2024-05-11T12:31:36Z</time>
      </trkpt>
      <trkpt lat="43.29479" lon="2.06607">
        <ele>137.1</ele>
        <time>2024-05-11T12:31:37Z</time>
      </trkpt>
      <trkpt lat="43.29463" lon="2.06632">
        <ele>136.9</ele>
        <time>2024-05-11T12:31:38Z</time>
      </trkpt>
      <trkpt lat="43.29446" lon="2.06656">
        <ele>137</ele>
        <time>2024-05-11T12:31:39Z</time>
      </trkpt>
      <trkpt lat="43.29429" lon="2.06678">
        <ele>137.2</ele>
        <time>2024-05-11T12:31:40Z</time>
      </trkpt>
      <trkpt lat="43.29412" lon="2.06699">
        <ele>137.1</ele>
        <time>2024-05-11T12:31:41Z</time>
      </trkpt>
      <trkpt lat="43.29396" lon="2.06718">
        <ele>137.2</ele>
        <time>2024-05-11T12:31:42Z</time>
      </trkpt>
      <trkpt lat="43.29381" lon="2.06736">
        <ele>137.4</ele>
        <time>2024-05-11T12:31:43Z</time>
      </trkpt>
      <trkpt lat="43.29366" lon="2.06755">
        <ele>137.2</ele>
        <time>2024-05-11T12:31:44Z</time>
      </trkpt>
      <trkpt lat="43.29352" lon="2.06776">
        <ele>136.7</ele>
        <time>2024-05-11T12:31:45Z</time>
      </trkpt>
      <trkpt lat="43.29339" lon="2.06797">
        <ele>136.9</ele>
        <time>2024-05-11T12:31:46Z</time>
      </trkpt>
      <trkpt lat="43.29327" lon="2.06818">
        <ele>136.8</ele>
        <time>2024-05-11T12:31:47Z</time>
      </trkpt>
      <trkpt lat="43.29315" lon="2.06838">
        <ele>136.5</ele>
        <time>2024-05-11T12:31:48Z</time>
      </trkpt>
      <trkpt lat="43.29304" lon="2.06858">
        <ele>136.8</ele>
        <time>2024-05-11T12:31:49Z</time>
      </trkpt>
      <trkpt lat="43.29294" lon="2.06877">
        <ele>136.6</ele>
        <time>2024-05-11T12:31:50Z</time>
      </trkpt>
      <trkpt lat="43.29283" lon="2.06896">
        <ele>136.4</ele>
        <time>2024-05-11T12:31:51Z</time>
      </trkpt>
      <trkpt lat="43.29273" lon="2.06916">
        <ele>136.6</ele>
        <time>2024-05-11T12:31:52Z</time>
      </trkpt>
      <trkpt lat="43.29262" lon="2.06936">
        <ele>136.3</ele>
        <time>2024-05-11T12:31:53Z</time>
      </trkpt>
      <trkpt lat="43.29251" lon="2.06956">
        <ele>136</ele>
        <time>2024-05-11T12:31:54Z</time>
      </trkpt>
      <trkpt lat="43.29239" lon="2.06977">
        <ele>135.7</ele>
        <time>2024-05-11T12:31:55Z</time>
      </trkpt>
      <trkpt lat="43.29227" lon="2.06999">
        <ele>135.3</ele>
        <time>2024-05-11T12:31:56Z</time>
      </trkpt>
      <trkpt lat="43.29215" lon="2.07021">
        <ele>135.6</ele>
        <time>2024-05-11T12:31:57Z</time>
      </trkpt>
      <trkpt lat="43.29204" lon="2.07042">
        <ele>135.5</ele>
        <time>2024-05-11T12:31:58Z</time>
      </trkpt>
      <trkpt lat="43.29192" lon="2.07062">
        <ele>135.1</ele>
        <time>2024-05-11T12:31:59Z</time>
      </trkpt>
      <trkpt lat="43.29181" lon="2.07082">
        <ele>135.5</ele>
        <time>2024-05-11T12:32:00Z</time>
      </trkpt>
      <trkpt lat="43.2917" lon="2.07103">
        <ele>135.2</ele>
        <time>2024-05-11T12:32:01Z</time>
      </trkpt>
      <trkpt lat="43.29158" lon="2.07125">
        <ele>135.3</ele>
        <time>2024-05-11T12:32:02Z</time>
      </trkpt>
      <trkpt lat="43.29147" lon="2.07147">
        <ele>135.5</ele>
        <time>2024-05-11T12:32:03Z</time>
      </trkpt>
      <trkpt lat="43.29134" lon="2.07169">
        <ele>135.8</ele>
        <time>2024-05-11T12:32:04Z</time>
      </trkpt>
      <trkpt lat="43.29122" lon="2.07191">
        <ele>135.9</ele>
        <time>2024-05-11T12:32:05Z</time>
      </trkpt>
      <trkpt lat="43.29109" lon="2.07214">
        <ele>135.9</ele>
        <time>2024-05-11T12:32:06Z</time>
      </trkpt>
      <trkpt lat="43.29096" lon="2.07236">
        <ele>136</ele>
        <time>2024-05-11T12:32:07Z</time>
      </trkpt>
      <trkpt lat="43.29084" lon="2.07258">
        <ele>136</ele>
        <time>2024-05-11T12:32:08Z</time>
      </trkpt>
      <trkpt lat="43.29073" lon="2.07279">
        <ele>136</ele>
        <time>2024-05-11T12:32:09Z</time>
      </trkpt>
      <trkpt lat="43.29062" lon="2.07299">
        <ele>136.2</ele>
        <time>2024-05-11T12:32:10Z</time>
      </trkpt>
      <trkpt lat="43.29051" lon="2.07318">
        <ele>136.3</ele>
        <time>2024-05-11T12:32:11Z</time>
      </trkpt>
      <trkpt lat="43.29041" lon="2.07337">
        <ele>136.5</ele>
        <time>2024-05-11T12:32:12Z</time>
      </trkpt>
      <trkpt lat="43.29031" lon="2.07355">
        <ele>136.2</ele>
        <time>2024-05-11T12:32:13Z</time>
      </trkpt>
      <trkpt lat="43.29022" lon="2.07372">
        <ele>136.1</ele>
        <time>2024-05-11T12:32:14Z</time>
      </trkpt>
      <trkpt lat="43.29012" lon="2.0739">
        <ele>135.9</ele>
        <time>2024-05-11T12:32:15Z</time>
      </trkpt>
      <trkpt lat="43.29001" lon="2.07409">
        <ele>135.8</ele>
        <time>2024-05-11T12:32:16Z</time>
      </trkpt>
      <trkpt lat="43.2899" lon="2.07427">
        <ele>135.7</ele>
        <time>2024-05-11T12:32:17Z</time>
      </trkpt>
      <trkpt lat="43.28979" lon="2.07446">
        <ele>135.5</ele>
        <time>2024-05-11T12:32:18Z</time>
      </trkpt>
      <trkpt lat="43.28968" lon="2.07466">
        <ele>135.5</ele>
        <time>2024-05-11T12:32:19Z</time>
      </trkpt>
      <trkpt lat="43.28956" lon="2.07486">
        <ele>135.3</ele>
        <time>2024-05-11T12:32:20Z</time>
      </trkpt>
      <trkpt lat="43.28944" lon="2.07506">
        <ele>135.2</ele>
        <time>2024-05-11T12:32:21Z</time>
      </trkpt>
      <trkpt lat="43.28931" lon="2.07526">
        <ele>135</ele>
        <time>2024-05-11T12:32:22Z</time>
      </trkpt>
      <trkpt lat="43.28919" lon="2.07546">
        <ele>134.8</ele>
        <time>2024-05-11T12:32:23Z</time>
      </trkpt>
      <trkpt lat="43.28906" lon="2.07566">
        <ele>134.8</ele>
        <time>2024-05-11T12:32:24Z</time>
      </trkpt>
      <trkpt lat="43.28894" lon="2.07586">
        <ele>134.5</ele>
        <time>2024-05-11T12:32:25Z</time>
      </trkpt>
      <trkpt lat="43.28882" lon="2.07607">
        <ele>135.2</ele>
        <time>2024-05-11T12:32:26Z</time>
      </trkpt>
      <trkpt lat="43.28869" lon="2.07628">
        <ele>135</ele>
        <time>2024-05-11T12:32:27Z</time>
      </trkpt>
      <trkpt lat="43.28856" lon="2.07649">
        <ele>135.1</ele>
        <time>2024-05-11T12:32:28Z</time>
      </trkpt>
      <trkpt lat="43.28843" lon="2.0767">
        <ele>134.8</ele>
        <time>2024-05-11T12:32:29Z</time>
      </trkpt>
      <trkpt lat="43.28829" lon="2.07692">
        <ele>134.8</ele>
        <time>2024-05-11T12:32:30Z</time>
      </trkpt>
      <trkpt lat="43.28816" lon="2.07714">
        <ele>135.3</ele>
        <time>2024-05-11T12:32:31Z</time>
      </trkpt>
      <trkpt lat="43.28803" lon="2.07736">
        <ele>135.9</ele>
        <time>2024-05-11T12:32:32Z</time>
      </trkpt>
      <trkpt lat="43.28791" lon="2.07757">
        <ele>136</ele>
        <time>2024-05-11T12:32:33Z</time>
      </trkpt>
      <trkpt lat="43.28779" lon="2.07776">
        <ele>135.1</ele>
        <time>2024-05-11T12:32:34Z</time>
      </trkpt>
      <trkpt lat="43.28767" lon="2.07795">
        <ele>135.2</ele>
        <time>2024-05-11T12:32:35Z</time>
      </trkpt>
      <trkpt lat="43.28756" lon="2.07813">
        <ele>135.8</ele>
        <time>2024-05-11T12:32:36Z</time>
      </trkpt>
      <trkpt lat="43.28744" lon="2.07832">
        <ele>136.5</ele>
        <time>2024-05-11T12:32:37Z</time>
      </trkpt>
      <trkpt lat="43.28733" lon="2.0785">
        <ele>136.7</ele>
        <time>2024-05-11T12:32:38Z</time>
      </trkpt>
      <trkpt lat="43.28722" lon="2.07867">
        <ele>137.8</ele>
        <time>2024-05-11T12:32:39Z</time>
      </trkpt>
      <trkpt lat="43.28711" lon="2.07883">
        <ele>138.7</ele>
        <time>2024-05-11T12:32:40Z</time>
      </trkpt>
      <trkpt lat="43.287" lon="2.07897">
        <ele>138.9</ele>
        <time>2024-05-11T12:32:41Z</time>
      </trkpt>
      <trkpt lat="43.28688" lon="2.0791">
        <ele>139.5</ele>
        <time>2024-05-11T12:32:42Z</time>
      </trkpt>
      <trkpt lat="43.28677" lon="2.07922">
        <ele>139.8</ele>
        <time>2024-05-11T12:32:43Z</time>
      </trkpt>
      <trkpt lat="43.28666" lon="2.07933">
        <ele>139.7</ele>
        <time>2024-05-11T12:32:44Z</time>
      </trkpt>
      <trkpt lat="43.28656" lon="2.07943">
        <ele>139.7</ele>
        <time>2024-05-11T12:32:45Z</time>
      </trkpt>
      <trkpt lat="43.28646" lon="2.07952">
        <ele>139.7</ele>
        <time>2024-05-11T12:32:46Z</time>
      </trkpt>
      <trkpt lat="43.28636" lon="2.07961">
        <ele>139.5</ele>
        <time>2024-05-11T12:32:47Z</time>
      </trkpt>
      <trkpt lat="43.28626" lon="2.0797">
        <ele>139.4</ele>
        <time>2024-05-11T12:32:48Z</time>
      </trkpt>
      <trkpt lat="43.28617" lon="2.07979">
        <ele>139.5</ele>
        <time>2024-05-11T12:32:49Z</time>
      </trkpt>
      <trkpt lat="43.28609" lon="2.07988">
        <ele>139.5</ele>
        <time>2024-05-11T12:32:50Z</time>
      </trkpt>
      <trkpt lat="43.28599" lon="2.07996">
        <ele>139.3</ele>
        <time>2024-05-11T12:32:51Z</time>
      </trkpt>
      <trkpt lat="43.2859" lon="2.08005">
        <ele>139.4</ele>
        <time>2024-05-11T12:32:52Z</time>
      </trkpt>
      <trkpt lat="43.28579" lon="2.08014">
        <ele>139.5</ele>
        <time>2024-05-11T12:32:53Z</time>
      </trkpt>
      <trkpt lat="43.28569" lon="2.08025">
        <ele>139.6</ele>
        <time>2024-05-11T12:32:54Z</time>
      </trkpt>
      <trkpt lat="43.28557" lon="2.08035">
        <ele>139.2</ele>
        <time>2024-05-11T12:32:55Z</time>
      </trkpt>
      <trkpt lat="43.28545" lon="2.08046">
        <ele>139.2</ele>
        <time>2024-05-11T12:32:56Z</time>
      </trkpt>
      <trkpt lat="43.28533" lon="2.08057">
        <ele>139</ele>
        <time>2024-05-11T12:32:57Z</time>
      </trkpt>
      <trkpt lat="43.28521" lon="2.08069">
        <ele>139.1</ele>
        <time>2024-05-11T12:32:58Z</time>
      </trkpt>
      <trkpt lat="43.28508" lon="2.08081">
        <ele>138.9</ele>
        <time>2024-05-11T12:32:59Z</time>
      </trkpt>
      <trkpt lat="43.28495" lon="2.08093">
        <ele>138.8</ele>
        <time>2024-05-11T12:33:00Z</time>
      </trkpt>
      <trkpt lat="43.28483" lon="2.08104">
        <ele>138.7</ele>
        <time>2024-05-11T12:33:01Z</time>
      </trkpt>
      <trkpt lat="43.28471" lon="2.08116">
        <ele>138.9</ele>
        <time>2024-05-11T12:33:02Z</time>
      </trkpt>
      <trkpt lat="43.28458" lon="2.08126">
        <ele>139.1</ele>
        <time>2024-05-11T12:33:03Z</time>
      </trkpt>
      <trkpt lat="43.28445" lon="2.08137">
        <ele>138</ele>
        <time>2024-05-11T12:33:04Z</time>
      </trkpt>
      <trkpt lat="43.28434" lon="2.08147">
        <ele>138</ele>
        <time>2024-05-11T12:33:05Z</time>
      </trkpt>
      <trkpt lat="43.28422" lon="2.08157">
        <ele>137.3</ele>
        <time>2024-05-11T12:33:06Z</time>
      </trkpt>
      <trkpt lat="43.28412" lon="2.08165">
        <ele>136.5</ele>
        <time>2024-05-11T12:33:07Z</time>
      </trkpt>
      <trkpt lat="43.28404" lon="2.08172">
        <ele>136.7</ele>
        <time>2024-05-11T12:33:08Z</time>
      </trkpt>
      <trkpt lat="43.28396" lon="2.08179">
        <ele>136.6</ele>
        <time>2024-05-11T12:33:09Z</time>
      </trkpt>
      <trkpt lat="43.28389" lon="2.08185">
        <ele>136.3</ele>
        <time>2024-05-11T12:33:10Z</time>
      </trkpt>
      <trkpt lat="43.28382" lon="2.0819">
        <ele>135.9</ele>
        <time>2024-05-11T12:33:11Z</time>
      </trkpt>
      <trkpt lat="43.28374" lon="2.08196">
        <ele>135.5</ele>
        <time>2024-05-11T12:33:12Z</time>
      </trkpt>
      <trkpt lat="43.28367" lon="2.08201">
        <ele>135.2</ele>
        <time>2024-05-11T12:33:13Z</time>
      </trkpt>
      <trkpt lat="43.28361" lon="2.08207">
        <ele>134.9</ele>
        <time>2024-05-11T12:33:14Z</time>
      </trkpt>
      <trkpt lat="43.28355" lon="2.08212">
        <ele>134.7</ele>
        <time>2024-05-11T12:33:15Z</time>
      </trkpt>
      <trkpt lat="43.28349" lon="2.08218">
        <ele>134.8</ele>
        <time>2024-05-11T12:33:16Z</time>
      </trkpt>
      <trkpt lat="43.28342" lon="2.08224">
        <ele>134.7</ele>
        <time>2024-05-11T12:33:17Z</time>
      </trkpt>
      <trkpt lat="43.28334" lon="2.08231">
        <ele>134.4</ele>
        <time>2024-05-11T12:33:18Z</time>
      </trkpt>
      <trkpt lat="43.28325" lon="2.08238">
        <ele>134.1</ele>
        <time>2024-05-11T12:33:19Z</time>
      </trkpt>
      <trkpt lat="43.28316" lon="2.08246">
        <ele>134.1</ele>
        <time>2024-05-11T12:33:20Z</time>
      </trkpt>
      <trkpt lat="43.28307" lon="2.08254">
        <ele>134.2</ele>
        <time>2024-05-11T12:33:21Z</time>
      </trkpt>
      <trkpt lat="43.28298" lon="2.08264">
        <ele>134</ele>
        <time>2024-05-11T12:33:22Z</time>
      </trkpt>
      <trkpt lat="43.28289" lon="2.08274">
        <ele>133.7</ele>
        <time>2024-05-11T12:33:23Z</time>
      </trkpt>
      <trkpt lat="43.2828" lon="2.08285">
        <ele>133.7</ele>
        <time>2024-05-11T12:33:24Z</time>
      </trkpt>
      <trkpt lat="43.2827" lon="2.08296">
        <ele>133.6</ele>
        <time>2024-05-11T12:33:25Z</time>
      </trkpt>
      <trkpt lat="43.2826" lon="2.08309">
        <ele>133.4</ele>
        <time>2024-05-11T12:33:26Z</time>
      </trkpt>
      <trkpt lat="43.2825" lon="2.08321">
        <ele>133.7</ele>
        <time>2024-05-11T12:33:27Z</time>
      </trkpt>
      <trkpt lat="43.28241" lon="2.08333">
        <ele>134</ele>
        <time>2024-05-11T12:33:28Z</time>
      </trkpt>
      <trkpt lat="43.28232" lon="2.08345">
        <ele>133.6</ele>
        <time>2024-05-11T12:33:29Z</time>
      </trkpt>
      <trkpt lat="43.28224" lon="2.08356">
        <ele>133.1</ele>
        <time>2024-05-11T12:33:30Z</time>
      </trkpt>
      <trkpt lat="43.28218" lon="2.08366">
        <ele>133.1</ele>
        <time>2024-05-11T12:33:31Z</time>
      </trkpt>
      <trkpt lat="43.28212" lon="2.08375">
        <ele>133.3</ele>
        <time>2024-05-11T12:33:32Z</time>
      </trkpt>
      <trkpt lat="43.28208" lon="2.08383">
        <ele>133.3</ele>
        <time>2024-05-11T12:33:33Z</time>
      </trkpt>
      <trkpt lat="43.28204" lon="2.0839">
        <ele>133.1</ele>
        <time>2024-05-11T12:33:34Z</time>
      </trkpt>
      <trkpt lat="43.28201" lon="2.08397">
        <ele>132.8</ele>
        <time>2024-05-11T12:33:35Z</time>
      </trkpt>
      <trkpt lat="43.28197" lon="2.08404">
        <ele>132.4</ele>
        <time>2024-05-11T12:33:36Z</time>
      </trkpt>
      <trkpt lat="43.28195" lon="2.08412">
        <ele>132.1</ele>
        <time>2024-05-11T12:33:37Z</time>
      </trkpt>
      <trkpt lat="43.28193" lon="2.08421">
        <ele>132.3</ele>
        <time>2024-05-11T12:33:38Z</time>
      </trkpt>
      <trkpt lat="43.28191" lon="2.0843">
        <ele>132.8</ele>
        <time>2024-05-11T12:33:39Z</time>
      </trkpt>
      <trkpt lat="43.28189" lon="2.08439">
        <ele>133.3</ele>
        <time>2024-05-11T12:33:40Z</time>
      </trkpt>
      <trkpt lat="43.28187" lon="2.08446">
        <ele>133.5</ele>
        <time>2024-05-11T12:33:41Z</time>
      </trkpt>
      <trkpt lat="43.28184" lon="2.08453">
        <ele>133.4</ele>
        <time>2024-05-11T12:33:42Z</time>
      </trkpt>
      <trkpt lat="43.28183" lon="2.0846">
        <ele>133.5</ele>
        <time>2024-05-11T12:33:43Z</time>
      </trkpt>
      <trkpt lat="43.28181" lon="2.08466">
        <ele>133.4</ele>
        <time>2024-05-11T12:33:44Z</time>
      </trkpt>
      <trkpt lat="43.28181" lon="2.08473">
        <ele>133.6</ele>
        <time>2024-05-11T12:33:45Z</time>
      </trkpt>
      <trkpt lat="43.28179" lon="2.0848">
        <ele>133.6</ele>
        <time>2024-05-11T12:33:46Z</time>
      </trkpt>
      <trkpt lat="43.28177" lon="2.08487">
        <ele>133.6</ele>
        <time>2024-05-11T12:33:47Z</time>
      </trkpt>
      <trkpt lat="43.28175" lon="2.08496">
        <ele>133.8</ele>
        <time>2024-05-11T12:33:48Z</time>
      </trkpt>
      <trkpt lat="43.28172" lon="2.08505">
        <ele>133.4</ele>
        <time>2024-05-11T12:33:49Z</time>
      </trkpt>
      <trkpt lat="43.2817" lon="2.08513">
        <ele>132.9</ele>
        <time>2024-05-11T12:33:50Z</time>
      </trkpt>
      <trkpt lat="43.28168" lon="2.0852">
        <ele>132.4</ele>
        <time>2024-05-11T12:33:51Z</time>
      </trkpt>
      <trkpt lat="43.28167" lon="2.08523">
        <ele>132.2</ele>
        <time>2024-05-11T12:33:52Z</time>
      </trkpt>
      <trkpt lat="43.28166" lon="2.08527">
        <ele>132</ele>
        <time>2024-05-11T12:33:53Z</time>
      </trkpt>
      <trkpt lat="43.28166" lon="2.08529">
        <ele>132</ele>
        <time>2024-05-11T12:33:54Z</time>
      </trkpt>
      <trkpt lat="43.28165" lon="2.08532">
        <ele>131.9</ele>
        <time>2024-05-11T12:33:55Z</time>
      </trkpt>
      <trkpt lat="43.28164" lon="2.08534">
        <ele>131.9</ele>
        <time>2024-05-11T12:33:56Z</time>
      </trkpt>
      <trkpt lat="43.28164" lon="2.08534">
        <ele>131.9</ele>
        <time>2024-05-11T12:33:57Z</time>
      </trkpt>
      <trkpt lat="43.28164" lon="2.08535">
        <ele>131.9</ele>
        <time>2024-05-11T12:33:58Z</time>
      </trkpt>
      <trkpt lat="43.28164" lon="2.08535">
        <ele>131.9</ele>
        <time>2024-05-11T12:33:59Z</time>
      </trkpt>
      <trkpt lat="43.28164" lon="2.08535">
        <ele>131.9</ele>
        <time>2024-05-11T12:34:00Z</time>
      </trkpt>
      <trkpt lat="43.28165" lon="2.08535">
        <ele>131.9</ele>
        <time>2024-05-11T12:34:01Z</time>
      </trkpt>
      <trkpt lat="43.28165" lon="2.08535">
        <ele>131.9</ele>
        <time>2024-05-11T12:34:02Z</time>
      </trkpt>
      <trkpt lat="43.28165" lon="2.08535">
        <ele>131.9</ele>
        <time>2024-05-11T12:34:03Z</time>
      </trkpt>
      <trkpt lat="43.28164" lon="2.08535">
        <ele>131.9</ele>
        <time>2024-05-11T12:34:04Z</time>
      </trkpt>
      <trkpt lat="43.28164" lon="2.08535">
        <ele>131.9</ele>
        <time>2024-05-11T12:34:05Z</time>
      </trkpt>
      <trkpt lat="43.28164" lon="2.08535">
        <ele>131.9</ele>
        <time>2024-05-11T12:34:06Z</time>
      </trkpt>
      <trkpt lat="43.28164" lon="2.08535">
        <ele>131.9</ele>
        <time>2024-05-11T12:34:07Z</time>
      </trkpt>
      <trkpt lat="43.28164" lon="2.08535">
        <ele>131.9</ele>
        <time>2024-05-11T12:34:08Z</time>
      </trkpt>
      <trkpt lat="43.28164" lon="2.08535">
        <ele>131.9</ele>
        <time>2024-05-11T12:34:09Z</time>
      </trkpt>
      <trkpt lat="43.28164" lon="2.08535">
        <ele>131.9</ele>
        <time>2024-05-11T12:34:10Z</time>
      </trkpt>
      <trkpt lat="43.28164" lon="2.08535">
        <ele>131.9</ele>
        <time>2024-05-11T12:34:11Z</time>
      </trkpt>
      <trkpt lat="43.28164" lon="2.08535">
        <ele>131.9</ele>
        <time>2024-05-11T12:34:12Z</time>
      </trkpt>
      <trkpt lat="43.28164" lon="2.08535">
        <ele>131.9</ele>
        <time>2024-05-11T12:34:13Z</time>
      </trkpt>
      <trkpt lat="43.28164" lon="2.08535">
        <ele>131.9</ele>
        <time>2024-05-11T12:34:14Z</time>
      </trkpt>
      <trkpt lat="43.28164" lon="2.08535">
        <ele>131.9</ele>
        <time>2024-05-11T12:34:15Z</time>
      </trkpt>
      <trkpt lat="43.28164" lon="2.08535">
        <ele>131.9</ele>
        <time>2024-05-11T12:34:16Z</time>
      </trkpt>
      <trkpt lat="43.28164" lon="2.08535">
        <ele>131.9</ele>
        <time>2024-05-11T12:34:17Z</time>
      </trkpt>
      <trkpt lat="43.28164" lon="2.08535">
        <ele>131.9</ele>
        <time>2024-05-11T12:34:18Z</time>
      </trkpt>
      <trkpt lat="43.28164" lon="2.08535">
        <ele>131.9</ele>
        <time>2024-05-11T12:34:19Z</time>
      </trkpt>
      <trkpt lat="43.28164" lon="2.08536">
        <ele>131.9</ele>
        <time>2024-05-11T12:34:20Z</time>
      </trkpt>
      <trkpt lat="43.28163" lon="2.08539">
        <ele>131.9</ele>
        <time>2024-05-11T12:34:21Z</time>
      </trkpt>
      <trkpt lat="43.28161" lon="2.08543">
        <ele>131.8</ele>
        <time>2024-05-11T12:34:22Z</time>
      </trkpt>
      <trkpt lat="43.28158" lon="2.08548">
        <ele>131.7</ele>
        <time>2024-05-11T12:34:23Z</time>
      </trkpt>
      <trkpt lat="43.28155" lon="2.08551">
        <ele>131.6</ele>
        <time>2024-05-11T12:34:24Z</time>
      </trkpt>
      <trkpt lat="43.28151" lon="2.08551">
        <ele>131.4</ele>
        <time>2024-05-11T12:34:25Z</time>
      </trkpt>
      <trkpt lat="43.28147" lon="2.0855">
        <ele>131.3</ele>
        <time>2024-05-11T12:34:26Z</time>
      </trkpt>
      <trkpt lat="43.28143" lon="2.08548">
        <ele>131.1</ele>
        <time>2024-05-11T12:34:27Z</time>
      </trkpt>
      <trkpt lat="43.28141" lon="2.08546">
        <ele>131.1</ele>
        <time>2024-05-11T12:34:28Z</time>
      </trkpt>
      <trkpt lat="43.28139" lon="2.08544">
        <ele>131</ele>
        <time>2024-05-11T12:34:29Z</time>
      </trkpt>
      <trkpt lat="43.28137" lon="2.08544">
        <ele>130.9</ele>
        <time>2024-05-11T12:34:30Z</time>
      </trkpt>
      <trkpt lat="43.28137" lon="2.08544">
        <ele>130.9</ele>
        <time>2024-05-11T12:34:31Z</time>
      </trkpt>
      <trkpt lat="43.28137" lon="2.08544">
        <ele>130.9</ele>
        <time>2024-05-11T12:34:32Z</time>
      </trkpt>
      <trkpt lat="43.28138" lon="2.08545">
        <ele>131</ele>
        <time>2024-05-11T12:34:33Z</time>
      </trkpt>
      <trkpt lat="43.28138" lon="2.08545">
        <ele>131</ele>
        <time>2024-05-11T12:34:34Z</time>
      </trkpt>
      <trkpt lat="43.28139" lon="2.08545">
        <ele>131</ele>
        <time>2024-05-11T12:34:35Z</time>
      </trkpt>
      <trkpt lat="43.28139" lon="2.08545">
        <ele>131</ele>
        <time>2024-05-11T12:34:36Z</time>
      </trkpt>
      <trkpt lat="43.28139" lon="2.08545">
        <ele>131</ele>
        <time>2024-05-11T12:34:37Z</time>
      </trkpt>
      <trkpt lat="43.28139" lon="2.08545">
        <ele>131</ele>
        <time>2024-05-11T12:34:38Z</time>
      </trkpt>
      <trkpt lat="43.28139" lon="2.08545">
        <ele>131</ele>
        <time>2024-05-11T12:34:39Z</time>
      </trkpt>
      <trkpt lat="43.28138" lon="2.08547">
        <ele>131</ele>
        <time>2024-05-11T12:34:40Z</time>
      </trkpt>
      <trkpt lat="43.28137" lon="2.08551">
        <ele>130.9</ele>
        <time>2024-05-11T12:34:41Z</time>
      </trkpt>
      <trkpt lat="43.28134" lon="2.0856">
        <ele>130.9</ele>
        <time>2024-05-11T12:34:42Z</time>
      </trkpt>
      <trkpt lat="43.28132" lon="2.08568">
        <ele>130.9</ele>
        <time>2024-05-11T12:34:43Z</time>
      </trkpt>
      <trkpt lat="43.28129" lon="2.08578">
        <ele>130.9</ele>
        <time>2024-05-11T12:34:44Z</time>
      </trkpt>
      <trkpt lat="43.28126" lon="2.0859">
        <ele>131.1</ele>
        <time>2024-05-11T12:34:45Z</time>
      </trkpt>
      <trkpt lat="43.28123" lon="2.08601">
        <ele>131.3</ele>
        <time>2024-05-11T12:34:46Z</time>
      </trkpt>
      <trkpt lat="43.28119" lon="2.08614">
        <ele>131.3</ele>
        <time>2024-05-11T12:34:47Z</time>
      </trkpt>
      <trkpt lat="43.28114" lon="2.08629">
        <ele>131.2</ele>
        <time>2024-05-11T12:34:48Z</time>
      </trkpt>
      <trkpt lat="43.2811" lon="2.08642">
        <ele>131.1</ele>
        <time>2024-05-11T12:34:49Z</time>
      </trkpt>
      <trkpt lat="43.28106" lon="2.08655">
        <ele>131.3</ele>
        <time>2024-05-11T12:34:50Z</time>
      </trkpt>
      <trkpt lat="43.28101" lon="2.08669">
        <ele>131.3</ele>
        <time>2024-05-11T12:34:51Z</time>
      </trkpt>
      <trkpt lat="43.28097" lon="2.08684">
        <ele>131.3</ele>
        <time>2024-05-11T12:34:52Z</time>
      </trkpt>
      <trkpt lat="43.28092" lon="2.08699">
        <ele>131.1</ele>
        <time>2024-05-11T12:34:53Z</time>
      </trkpt>
      <trkpt lat="43.28087" lon="2.08716">
        <ele>131.2</ele>
        <time>2024-05-11T12:34:54Z</time>
      </trkpt>
      <trkpt lat="43.28082" lon="2.08732">
        <ele>131</ele>
        <time>2024-05-11T12:34:55Z</time>
      </trkpt>
      <trkpt lat="43.28078" lon="2.08749">
        <ele>130.8</ele>
        <time>2024-05-11T12:34:56Z</time>
      </trkpt>
      <trkpt lat="43.28072" lon="2.08765">
        <ele>131.1</ele>
        <time>2024-05-11T12:34:57Z</time>
      </trkpt>
      <trkpt lat="43.28066" lon="2.08782">
        <ele>131.5</ele>
        <time>2024-05-11T12:34:58Z</time>
      </trkpt>
      <trkpt lat="43.2806" lon="2.088">
        <ele>132</ele>
        <time>2024-05-11T12:34:59Z</time>
      </trkpt>
      <trkpt lat="43.28054" lon="2.08818">
        <ele>131.9</ele>
        <time>2024-05-11T12:35:00Z</time>
      </trkpt>
      <trkpt lat="43.28048" lon="2.08837">
        <ele>131.8</ele>
        <time>2024-05-11T12:35:01Z</time>
      </trkpt>
      <trkpt lat="43.28042" lon="2.08857">
        <ele>131.9</ele>
        <time>2024-05-11T12:35:02Z</time>
      </trkpt>
      <trkpt lat="43.28037" lon="2.08878">
        <ele>132</ele>
        <time>2024-05-11T12:35:03Z</time>
      </trkpt>
      <trkpt lat="43.28031" lon="2.08901">
        <ele>132.1</ele>
        <time>2024-05-11T12:35:04Z</time>
      </trkpt>
      <trkpt lat="43.28024" lon="2.08924">
        <ele>131.9</ele>
        <time>2024-05-11T12:35:05Z</time>
      </trkpt>
      <trkpt lat="43.28017" lon="2.08946">
        <ele>131.6</ele>
        <time>2024-05-11T12:35:06Z</time>
      </trkpt>
      <trkpt lat="43.28011" lon="2.08967">
        <ele>131.9</ele>
        <time>2024-05-11T12:35:07Z</time>
      </trkpt>
      <trkpt lat="43.28004" lon="2.08988">
        <ele>131.9</ele>
        <time>2024-05-11T12:35:08Z</time>
      </trkpt>
      <trkpt lat="43.27998" lon="2.09007">
        <ele>131.6</ele>
        <time>2024-05-11T12:35:09Z</time>
      </trkpt>
      <trkpt lat="43.27992" lon="2.09027">
        <ele>131</ele>
        <time>2024-05-11T12:35:10Z</time>
      </trkpt>
      <trkpt lat="43.27986" lon="2.09047">
        <ele>131</ele>
        <time>2024-05-11T12:35:11Z</time>
      </trkpt>
      <trkpt lat="43.2798" lon="2.09068">
        <ele>131.1</ele>
        <time>2024-05-11T12:35:12Z</time>
      </trkpt>
      <trkpt lat="43.27974" lon="2.0909">
        <ele>131</ele>
        <time>2024-05-11T12:35:13Z</time>
      </trkpt>
      <trkpt lat="43.27967" lon="2.09113">
        <ele>130.8</ele>
        <time>2024-05-11T12:35:14Z</time>
      </trkpt>
      <trkpt lat="43.2796" lon="2.09137">
        <ele>130.6</ele>
        <time>2024-05-11T12:35:15Z</time>
      </trkpt>
      <trkpt lat="43.27952" lon="2.09161">
        <ele>130.9</ele>
        <time>2024-05-11T12:35:16Z</time>
      </trkpt>
      <trkpt lat="43.27945" lon="2.09186">
        <ele>131</ele>
        <time>2024-05-11T12:35:17Z</time>
      </trkpt>
      <trkpt lat="43.27938" lon="2.0921">
        <ele>130.8</ele>
        <time>2024-05-11T12:35:18Z</time>
      </trkpt>
      <trkpt lat="43.27931" lon="2.09234">
        <ele>130.5</ele>
        <time>2024-05-11T12:35:19Z</time>
      </trkpt>
      <trkpt lat="43.27924" lon="2.09257">
        <ele>130.4</ele>
        <time>2024-05-11T12:35:20Z</time>
      </trkpt>
      <trkpt lat="43.27917" lon="2.09281">
        <ele>131</ele>
        <time>2024-05-11T12:35:21Z</time>
      </trkpt>
      <trkpt lat="43.2791" lon="2.09306">
        <ele>130.8</ele>
        <time>2024-05-11T12:35:22Z</time>
      </trkpt>
      <trkpt lat="43.27903" lon="2.09331">
        <ele>130.5</ele>
        <time>2024-05-11T12:35:23Z</time>
      </trkpt>
      <trkpt lat="43.27895" lon="2.09356">
        <ele>130.2</ele>
        <time>2024-05-11T12:35:24Z</time>
      </trkpt>
      <trkpt lat="43.27888" lon="2.09381">
        <ele>130</ele>
        <time>2024-05-11T12:35:25Z</time>
      </trkpt>
      <trkpt lat="43.27881" lon="2.09405">
        <ele>130.4</ele>
        <time>2024-05-11T12:35:26Z</time>
      </trkpt>
      <trkpt lat="43.27875" lon="2.09429">
        <ele>130.5</ele>
        <time>2024-05-11T12:35:27Z</time>
      </trkpt>
      <trkpt lat="43.27867" lon="2.09453">
        <ele>130.2</ele>
        <time>2024-05-11T12:35:28Z</time>
      </trkpt>
      <trkpt lat="43.2786" lon="2.09478">
        <ele>130.2</ele>
        <time>2024-05-11T12:35:29Z</time>
      </trkpt>
      <trkpt lat="43.27852" lon="2.09502">
        <ele>130.7</ele>
        <time>2024-05-11T12:35:30Z</time>
      </trkpt>
      <trkpt lat="43.27845" lon="2.09527">
        <ele>130.4</ele>
        <time>2024-05-11T12:35:31Z</time>
      </trkpt>
      <trkpt lat="43.27837" lon="2.09553">
        <ele>130.9</ele>
        <time>2024-05-11T12:35:32Z</time>
      </trkpt>
      <trkpt lat="43.2783" lon="2.09578">
        <ele>130.8</ele>
        <time>2024-05-11T12:35:33Z</time>
      </trkpt>
      <trkpt lat="43.27821" lon="2.09605">
        <ele>130.8</ele>
        <time>2024-05-11T12:35:34Z</time>
      </trkpt>
      <trkpt lat="43.27813" lon="2.09632">
        <ele>131.2</ele>
        <time>2024-05-11T12:35:35Z</time>
      </trkpt>
      <trkpt lat="43.27803" lon="2.0966">
        <ele>131.5</ele>
        <time>2024-05-11T12:35:36Z</time>
      </trkpt>
      <trkpt lat="43.27793" lon="2.09688">
        <ele>131.4</ele>
        <time>2024-05-11T12:35:37Z</time>
      </trkpt>
      <trkpt lat="43.2778" lon="2.09717">
        <ele>132.6</ele>
        <time>2024-05-11T12:35:38Z</time>
      </trkpt>
      <trkpt lat="43.27766" lon="2.09746">
        <ele>132.6</ele>
        <time>2024-05-11T12:35:39Z</time>
      </trkpt>
      <trkpt lat="43.27751" lon="2.09772">
        <ele>133.5</ele>
        <time>2024-05-11T12:35:40Z</time>
      </trkpt>
      <trkpt lat="43.27734" lon="2.09797">
        <ele>133.6</ele>
        <time>2024-05-11T12:35:41Z</time>
      </trkpt>
      <trkpt lat="43.27718" lon="2.09821">
        <ele>133.6</ele>
        <time>2024-05-11T12:35:42Z</time>
      </trkpt>
      <trkpt lat="43.277" lon="2.09846">
        <ele>133.3</ele>
        <time>2024-05-11T12:35:43Z</time>
      </trkpt>
      <trkpt lat="43.27682" lon="2.0987">
        <ele>133.4</ele>
        <time>2024-05-11T12:35:44Z</time>
      </trkpt>
      <trkpt lat="43.27664" lon="2.09895">
        <ele>134.5</ele>
        <time>2024-05-11T12:35:45Z</time>
      </trkpt>
      <trkpt lat="43.27644" lon="2.09921">
        <ele>134.9</ele>
        <time>2024-05-11T12:35:46Z</time>
      </trkpt>
      <trkpt lat="43.27626" lon="2.09946">
        <ele>134.2</ele>
        <time>2024-05-11T12:35:47Z</time>
      </trkpt>
      <trkpt lat="43.27608" lon="2.09971">
        <ele>134.6</ele>
        <time>2024-05-11T12:35:48Z</time>
      </trkpt>
      <trkpt lat="43.27591" lon="2.09995">
        <ele>135.3</ele>
        <time>2024-05-11T12:35:49Z</time>
      </trkpt>
      <trkpt lat="43.27574" lon="2.10019">
        <ele>135.3</ele>
        <time>2024-05-11T12:35:50Z</time>
      </trkpt>
      <trkpt lat="43.27559" lon="2.10042">
        <ele>134.9</ele>
        <time>2024-05-11T12:35:51Z</time>
      </trkpt>
      <trkpt lat="43.27544" lon="2.10067">
        <ele>133.9</ele>
        <time>2024-05-11T12:35:52Z</time>
      </trkpt>
      <trkpt lat="43.27531" lon="2.10092">
        <ele>133.7</ele>
        <time>2024-05-11T12:35:53Z</time>
      </trkpt>
      <trkpt lat="43.27518" lon="2.1012">
        <ele>133.3</ele>
        <time>2024-05-11T12:35:54Z</time>
      </trkpt>
      <trkpt lat="43.27507" lon="2.10149">
        <ele>132.8</ele>
        <time>2024-05-11T12:35:55Z</time>
      </trkpt>
      <trkpt lat="43.27496" lon="2.10179">
        <ele>131.7</ele>
        <time>2024-05-11T12:35:56Z</time>
      </trkpt>
      <trkpt lat="43.27486" lon="2.10209">
        <ele>131.8</ele>
        <time>2024-05-11T12:35:57Z</time>
      </trkpt>
      <trkpt lat="43.27475" lon="2.10241">
        <ele>131.9</ele>
        <time>2024-05-11T12:35:58Z</time>
      </trkpt>
      <trkpt lat="43.27464" lon="2.10272">
        <ele>131.1</ele>
        <time>2024-05-11T12:35:59Z</time>
      </trkpt>
      <trkpt lat="43.27452" lon="2.10303">
        <ele>131.6</ele>
        <time>2024-05-11T12:36:00Z</time>
      </trkpt>
      <trkpt lat="43.27442" lon="2.10334">
        <ele>130.8</ele>
        <time>2024-05-11T12:36:01Z</time>
      </trkpt>
      <trkpt lat="43.27432" lon="2.10364">
        <ele>130.8</ele>
        <time>2024-05-11T12:36:02Z</time>
      </trkpt>
      <trkpt lat="43.27421" lon="2.10394">
        <ele>130.8</ele>
        <time>2024-05-11T12:36:03Z</time>
      </trkpt>
      <trkpt lat="43.27411" lon="2.10423">
        <ele>130.6</ele>
        <time>2024-05-11T12:36:04Z</time>
      </trkpt>
      <trkpt lat="43.27401" lon="2.10452">
        <ele>130.6</ele>
        <time>2024-05-11T12:36:05Z</time>
      </trkpt>
      <trkpt lat="43.27391" lon="2.1048">
        <ele>130.5</ele>
        <time>2024-05-11T12:36:06Z</time>
      </trkpt>
      <trkpt lat="43.27382" lon="2.10508">
        <ele>130.5</ele>
        <time>2024-05-11T12:36:07Z</time>
      </trkpt>
      <trkpt lat="43.27373" lon="2.10535">
        <ele>130.5</ele>
        <time>2024-05-11T12:36:08Z</time>
      </trkpt>
      <trkpt lat="43.27363" lon="2.10562">
        <ele>130.4</ele>
        <time>2024-05-11T12:36:09Z</time>
      </trkpt>
      <trkpt lat="43.27354" lon="2.10589">
        <ele>130.4</ele>
        <time>2024-05-11T12:36:10Z</time>
      </trkpt>
      <trkpt lat="43.27345" lon="2.10616">
        <ele>130.4</ele>
        <time>2024-05-11T12:36:11Z</time>
      </trkpt>
      <trkpt lat="43.27336" lon="2.10644">
        <ele>130.4</ele>
        <time>2024-05-11T12:36:12Z</time>
      </trkpt>
      <trkpt lat="43.27326" lon="2.10672">
        <ele>130.1</ele>
        <time>2024-05-11T12:36:13Z</time>
      </trkpt>
      <trkpt lat="43.27316" lon="2.10701">
        <ele>129.5</ele>
        <time>2024-05-11T12:36:14Z</time>
      </trkpt>
      <trkpt lat="43.27306" lon="2.10731">
        <ele>130</ele>
        <time>2024-05-11T12:36:15Z</time>
      </trkpt>
      <trkpt lat="43.27296" lon="2.1076">
        <ele>129.4</ele>
        <time>2024-05-11T12:36:16Z</time>
      </trkpt>
      <trkpt lat="43.27286" lon="2.1079">
        <ele>129.7</ele>
        <time>2024-05-11T12:36:17Z</time>
      </trkpt>
      <trkpt lat="43.27275" lon="2.1082">
        <ele>130.3</ele>
        <time>2024-05-11T12:36:18Z</time>
      </trkpt>
      <trkpt lat="43.27264" lon="2.10851">
        <ele>130.6</ele>
        <time>2024-05-11T12:36:19Z</time>
      </trkpt>
      <trkpt lat="43.27254" lon="2.10882">
        <ele>131.7</ele>
        <time>2024-05-11T12:36:20Z</time>
      </trkpt>
      <trkpt lat="43.27243" lon="2.10913">
        <ele>131.2</ele>
        <time>2024-05-11T12:36:21Z</time>
      </trkpt>
      <trkpt lat="43.27233" lon="2.10943">
        <ele>131.5</ele>
        <time>2024-05-11T12:36:22Z</time>
      </trkpt>
      <trkpt lat="43.27222" lon="2.10974">
        <ele>133</ele>
        <time>2024-05-11T12:36:23Z</time>
      </trkpt>
      <trkpt lat="43.27212" lon="2.11004">
        <ele>132.6</ele>
        <time>2024-05-11T12:36:24Z</time>
      </trkpt>
      <trkpt lat="43.272" lon="2.11033">
        <ele>132</ele>
        <time>2024-05-11T12:36:25Z</time>
      </trkpt>
      <trkpt lat="43.27186" lon="2.11061">
        <ele>132.2</ele>
        <time>2024-05-11T12:36:26Z</time>
      </trkpt>
      <trkpt lat="43.27171" lon="2.11088">
        <ele>132.8</ele>
        <time>2024-05-11T12:36:27Z</time>
      </trkpt>
      <trkpt lat="43.27155" lon="2.11114">
        <ele>132.6</ele>
        <time>2024-05-11T12:36:28Z</time>
      </trkpt>
      <trkpt lat="43.27139" lon="2.1114">
        <ele>133.1</ele>
        <time>2024-05-11T12:36:29Z</time>
      </trkpt>
      <trkpt lat="43.27122" lon="2.11165">
        <ele>132.7</ele>
        <time>2024-05-11T12:36:30Z</time>
      </trkpt>
      <trkpt lat="43.27106" lon="2.11192">
        <ele>132.4</ele>
        <time>2024-05-11T12:36:31Z</time>
      </trkpt>
      <trkpt lat="43.27089" lon="2.11219">
        <ele>133.1</ele>
        <time>2024-05-11T12:36:32Z</time>
      </trkpt>
      <trkpt lat="43.27073" lon="2.11245">
        <ele>133.2</ele>
        <time>2024-05-11T12:36:33Z</time>
      </trkpt>
      <trkpt lat="43.27057" lon="2.11272">
        <ele>133.5</ele>
        <time>2024-05-11T12:36:34Z</time>
      </trkpt>
      <trkpt lat="43.2704" lon="2.11298">
        <ele>134</ele>
        <time>2024-05-11T12:36:35Z</time>
      </trkpt>
      <trkpt lat="43.27024" lon="2.11323">
        <ele>134.8</ele>
        <time>2024-05-11T12:36:36Z</time>
      </trkpt>
      <trkpt lat="43.27009" lon="2.11348">
        <ele>135</ele>
        <time>2024-05-11T12:36:37Z</time>
      </trkpt>
      <trkpt lat="43.26993" lon="2.11373">
        <ele>135.5</ele>
        <time>2024-05-11T12:36:38Z</time>
      </trkpt>
      <trkpt lat="43.26977" lon="2.11398">
        <ele>136.2</ele>
        <time>2024-05-11T12:36:39Z</time>
      </trkpt>
      <trkpt lat="43.26962" lon="2.11423">
        <ele>136.4</ele>
        <time>2024-05-11T12:36:40Z</time>
      </trkpt>
      <trkpt lat="43.26946" lon="2.11449">
        <ele>137.6</ele>
        <time>2024-05-11T12:36:41Z</time>
      </trkpt>
      <trkpt lat="43.2693" lon="2.11475">
        <ele>137.7</ele>
        <time>2024-05-11T12:36:42Z</time>
      </trkpt>
      <trkpt lat="43.26914" lon="2.11501">
        <ele>137.9</ele>
        <time>2024-05-11T12:36:43Z</time>
      </trkpt>
      <trkpt lat="43.26897" lon="2.11527">
        <ele>140</ele>
        <time>2024-05-11T12:36:44Z</time>
      </trkpt>
      <trkpt lat="43.26881" lon="2.11553">
        <ele>138.7</ele>
        <time>2024-05-11T12:36:45Z</time>
      </trkpt>
      <trkpt lat="43.26867" lon="2.11577">
        <ele>139.9</ele>
        <time>2024-05-11T12:36:46Z</time>
      </trkpt>
      <trkpt lat="43.26852" lon="2.11602">
        <ele>139.9</ele>
        <time>2024-05-11T12:36:47Z</time>
      </trkpt>
      <trkpt lat="43.26839" lon="2.11627">
        <ele>140.1</ele>
        <time>2024-05-11T12:36:48Z</time>
      </trkpt>
      <trkpt lat="43.26824" lon="2.11652">
        <ele>139.9</ele>
        <time>2024-05-11T12:36:49Z</time>
      </trkpt>
      <trkpt lat="43.26811" lon="2.11677">
        <ele>139.8</ele>
        <time>2024-05-11T12:36:50Z</time>
      </trkpt>
      <trkpt lat="43.26798" lon="2.11702">
        <ele>139.9</ele>
        <time>2024-05-11T12:36:51Z</time>
      </trkpt>
      <trkpt lat="43.26785" lon="2.11725">
        <ele>140.4</ele>
        <time>2024-05-11T12:36:52Z</time>
      </trkpt>
      <trkpt lat="43.26773" lon="2.11749">
        <ele>139.4</ele>
        <time>2024-05-11T12:36:53Z</time>
      </trkpt>
      <trkpt lat="43.26761" lon="2.11771">
        <ele>140</ele>
        <time>2024-05-11T12:36:54Z</time>
      </trkpt>
      <trkpt lat="43.26749" lon="2.11793">
        <ele>139.9</ele>
        <time>2024-05-11T12:36:55Z</time>
      </trkpt>
      <trkpt lat="43.26737" lon="2.11814">
        <ele>139.7</ele>
        <time>2024-05-11T12:36:56Z</time>
      </trkpt>
      <trkpt lat="43.26726" lon="2.11836">
        <ele>140.7</ele>
        <time>2024-05-11T12:36:57Z</time>
      </trkpt>
      <trkpt lat="43.26714" lon="2.11858">
        <ele>140.3</ele>
        <time>2024-05-11T12:36:58Z</time>
      </trkpt>
      <trkpt lat="43.26702" lon="2.11881">
        <ele>141.6</ele>
        <time>2024-05-11T12:36:59Z</time>
      </trkpt>
      <trkpt lat="43.2669" lon="2.11902">
        <ele>141.7</ele>
        <time>2024-05-11T12:37:00Z</time>
      </trkpt>
      <trkpt lat="43.26679" lon="2.11924">
        <ele>141.7</ele>
        <time>2024-05-11T12:37:01Z</time>
      </trkpt>
      <trkpt lat="43.26668" lon="2.11944">
        <ele>142.2</ele>
        <time>2024-05-11T12:37:02Z</time>
      </trkpt>
      <trkpt lat="43.26657" lon="2.11965">
        <ele>142.1</ele>
        <time>2024-05-11T12:37:03Z</time>
      </trkpt>
      <trkpt lat="43.26645" lon="2.11985">
        <ele>142.3</ele>
        <time>2024-05-11T12:37:04Z</time>
      </trkpt>
      <trkpt lat="43.26634" lon="2.12005">
        <ele>142.8</ele>
        <time>2024-05-11T12:37:05Z</time>
      </trkpt>
      <trkpt lat="43.26621" lon="2.12025">
        <ele>143.1</ele>
        <time>2024-05-11T12:37:06Z</time>
      </trkpt>
      <trkpt lat="43.26609" lon="2.12046">
        <ele>143</ele>
        <time>2024-05-11T12:37:07Z</time>
      </trkpt>
      <trkpt lat="43.26597" lon="2.12067">
        <ele>143.4</ele>
        <time>2024-05-11T12:37:08Z</time>
      </trkpt>
      <trkpt lat="43.26584" lon="2.12088">
        <ele>144.2</ele>
        <time>2024-05-11T12:37:09Z</time>
      </trkpt>
      <trkpt lat="43.26571" lon="2.1211">
        <ele>143.6</ele>
        <time>2024-05-11T12:37:10Z</time>
      </trkpt>
      <trkpt lat="43.26559" lon="2.12131">
        <ele>143.8</ele>
        <time>2024-05-11T12:37:11Z</time>
      </trkpt>
      <trkpt lat="43.26547" lon="2.12152">
        <ele>143.4</ele>
        <time>2024-05-11T12:37:12Z</time>
      </trkpt>
      <trkpt lat="43.26535" lon="2.12172">
        <ele>143</ele>
        <time>2024-05-11T12:37:13Z</time>
      </trkpt>
      <trkpt lat="43.26523" lon="2.12192">
        <ele>142.4</ele>
        <time>2024-05-11T12:37:14Z</time>
      </trkpt>
      <trkpt lat="43.26511" lon="2.12212">
        <ele>142.6</ele>
        <time>2024-05-11T12:37:15Z</time>
      </trkpt>
      <trkpt lat="43.265" lon="2.12231">
        <ele>142.7</ele>
        <time>2024-05-11T12:37:16Z</time>
      </trkpt>
      <trkpt lat="43.26488" lon="2.1225">
        <ele>140.7</ele>
        <time>2024-05-11T12:37:17Z</time>
      </trkpt>
      <trkpt lat="43.26477" lon="2.12268">
        <ele>141.2</ele>
        <time>2024-05-11T12:37:18Z</time>
      </trkpt>
      <trkpt lat="43.26466" lon="2.12287">
        <ele>141</ele>
        <time>2024-05-11T12:37:19Z</time>
      </trkpt>
      <trkpt lat="43.26455" lon="2.12305">
        <ele>140.1</ele>
        <time>2024-05-11T12:37:20Z</time>
      </trkpt>
      <trkpt lat="43.26445" lon="2.12322">
        <ele>139.6</ele>
        <time>2024-05-11T12:37:21Z</time>
      </trkpt>
      <trkpt lat="43.26435" lon="2.12337">
        <ele>138.7</ele>
        <time>2024-05-11T12:37:22Z</time>
      </trkpt>
      <trkpt lat="43.26426" lon="2.12353">
        <ele>138.3</ele>
        <time>2024-05-11T12:37:23Z</time>
      </trkpt>
      <trkpt lat="43.26417" lon="2.12368">
        <ele>138</ele>
        <time>2024-05-11T12:37:24Z</time>
      </trkpt>
      <trkpt lat="43.26407" lon="2.12384">
        <ele>136.9</ele>
        <time>2024-05-11T12:37:25Z</time>
      </trkpt>
      <trkpt lat="43.26398" lon="2.124">
        <ele>136.7</ele>
        <time>2024-05-11T12:37:26Z</time>
      </trkpt>
      <trkpt lat="43.26389" lon="2.12417">
        <ele>137</ele>
        <time>2024-05-11T12:37:27Z</time>
      </trkpt>
      <trkpt lat="43.26379" lon="2.12433">
        <ele>136.1</ele>
        <time>2024-05-11T12:37:28Z</time>
      </trkpt>
      <trkpt lat="43.26369" lon="2.1245">
        <ele>135.7</ele>
        <time>2024-05-11T12:37:29Z</time>
      </trkpt>
      <trkpt lat="43.26359" lon="2.12466">
        <ele>135.6</ele>
        <time>2024-05-11T12:37:30Z</time>
      </trkpt>
      <trkpt lat="43.2635" lon="2.12482">
        <ele>135.1</ele>
        <time>2024-05-11T12:37:31Z</time>
      </trkpt>
      <trkpt lat="43.2634" lon="2.12498">
        <ele>135.1</ele>
        <time>2024-05-11T12:37:32Z</time>
      </trkpt>
      <trkpt lat="43.26331" lon="2.12514">
        <ele>134.8</ele>
        <time>2024-05-11T12:37:33Z</time>
      </trkpt>
      <trkpt lat="43.26321" lon="2.1253">
        <ele>134.2</ele>
        <time>2024-05-11T12:37:34Z</time>
      </trkpt>
      <trkpt lat="43.26311" lon="2.12548">
        <ele>134.6</ele>
        <time>2024-05-11T12:37:35Z</time>
      </trkpt>
      <trkpt lat="43.263" lon="2.12565">
        <ele>134.7</ele>
        <time>2024-05-11T12:37:36Z</time>
      </trkpt>
      <trkpt lat="43.2629" lon="2.12583">
        <ele>134.4</ele>
        <time>2024-05-11T12:37:37Z</time>
      </trkpt>
      <trkpt lat="43.26279" lon="2.126">
        <ele>134.6</ele>
        <time>2024-05-11T12:37:38Z</time>
      </trkpt>
      <trkpt lat="43.26269" lon="2.12618">
        <ele>134.4</ele>
        <time>2024-05-11T12:37:39Z</time>
      </trkpt>
      <trkpt lat="43.26258" lon="2.12636">
        <ele>134.2</ele>
        <time>2024-05-11T12:37:40Z</time>
      </trkpt>
      <trkpt lat="43.26249" lon="2.12652">
        <ele>134.4</ele>
        <time>2024-05-11T12:37:41Z</time>
      </trkpt>
      <trkpt lat="43.26239" lon="2.12669">
        <ele>134.3</ele>
        <time>2024-05-11T12:37:42Z</time>
      </trkpt>
      <trkpt lat="43.2623" lon="2.12685">
        <ele>134.5</ele>
        <time>2024-05-11T12:37:43Z</time>
      </trkpt>
      <trkpt lat="43.26221" lon="2.12703">
        <ele>134.9</ele>
        <time>2024-05-11T12:37:44Z</time>
      </trkpt>
      <trkpt lat="43.26212" lon="2.12721">
        <ele>134.2</ele>
        <time>2024-05-11T12:37:45Z</time>
      </trkpt>
      <trkpt lat="43.26204" lon="2.1274">
        <ele>134.5</ele>
        <time>2024-05-11T12:37:46Z</time>
      </trkpt>
      <trkpt lat="43.26195" lon="2.1276">
        <ele>134.6</ele>
        <time>2024-05-11T12:37:47Z</time>
      </trkpt>
      <trkpt lat="43.26187" lon="2.1278">
        <ele>133.5</ele>
        <time>2024-05-11T12:37:48Z</time>
      </trkpt>
      <trkpt lat="43.26179" lon="2.12801">
        <ele>133.4</ele>
        <time>2024-05-11T12:37:49Z</time>
      </trkpt>
      <trkpt lat="43.26172" lon="2.12822">
        <ele>133.7</ele>
        <time>2024-05-11T12:37:50Z</time>
      </trkpt>
      <trkpt lat="43.26165" lon="2.12842">
        <ele>133.8</ele>
        <time>2024-05-11T12:37:51Z</time>
      </trkpt>
      <trkpt lat="43.26159" lon="2.12862">
        <ele>132.8</ele>
        <time>2024-05-11T12:37:52Z</time>
      </trkpt>
      <trkpt lat="43.26153" lon="2.12881">
        <ele>130.6</ele>
        <time>2024-05-11T12:37:53Z</time>
      </trkpt>
      <trkpt lat="43.26148" lon="2.12899">
        <ele>130.9</ele>
        <time>2024-05-11T12:37:54Z</time>
      </trkpt>
      <trkpt lat="43.26143" lon="2.12916">
        <ele>132.6</ele>
        <time>2024-05-11T12:37:55Z</time>
      </trkpt>
      <trkpt lat="43.26139" lon="2.12929">
        <ele>133.4</ele>
        <time>2024-05-11T12:37:56Z</time>
      </trkpt>
      <trkpt lat="43.26134" lon="2.1294">
        <ele>133.1</ele>
        <time>2024-05-11T12:37:57Z</time>
      </trkpt>
      <trkpt lat="43.26128" lon="2.1295">
        <ele>132.7</ele>
        <time>2024-05-11T12:37:58Z</time>
      </trkpt>
      <trkpt lat="43.2612" lon="2.12957">
        <ele>132.2</ele>
        <time>2024-05-11T12:37:59Z</time>
      </trkpt>
      <trkpt lat="43.26112" lon="2.12961">
        <ele>131.9</ele>
        <time>2024-05-11T12:38:00Z</time>
      </trkpt>
      <trkpt lat="43.26104" lon="2.12963">
        <ele>131.4</ele>
        <time>2024-05-11T12:38:01Z</time>
      </trkpt>
      <trkpt lat="43.26095" lon="2.12962">
        <ele>130.6</ele>
        <time>2024-05-11T12:38:02Z</time>
      </trkpt>
      <trkpt lat="43.26087" lon="2.12959">
        <ele>129.8</ele>
        <time>2024-05-11T12:38:03Z</time>
      </trkpt>
      <trkpt lat="43.2608" lon="2.12956">
        <ele>129.3</ele>
        <time>2024-05-11T12:38:04Z</time>
      </trkpt>
      <trkpt lat="43.26075" lon="2.12955">
        <ele>129</ele>
        <time>2024-05-11T12:38:05Z</time>
      </trkpt>
      <trkpt lat="43.26072" lon="2.12953">
        <ele>128.9</ele>
        <time>2024-05-11T12:38:06Z</time>
      </trkpt>
      <trkpt lat="43.26068" lon="2.12953">
        <ele>128.8</ele>
        <time>2024-05-11T12:38:07Z</time>
      </trkpt>
      <trkpt lat="43.26065" lon="2.12952">
        <ele>128.7</ele>
        <time>2024-05-11T12:38:08Z</time>
      </trkpt>
      <trkpt lat="43.26063" lon="2.12951">
        <ele>128.7</ele>
        <time>2024-05-11T12:38:09Z</time>
      </trkpt>
      <trkpt lat="43.26062" lon="2.12951">
        <ele>128.7</ele>
        <time>2024-05-11T12:38:10Z</time>
      </trkpt>
      <trkpt lat="43.2606" lon="2.1295">
        <ele>128.7</ele>
        <time>2024-05-11T12:38:11Z</time>
      </trkpt>
      <trkpt lat="43.26059" lon="2.1295">
        <ele>128.7</ele>
        <time>2024-05-11T12:38:12Z</time>
      </trkpt>
      <trkpt lat="43.26058" lon="2.1295">
        <ele>128.7</ele>
        <time>2024-05-11T12:38:13Z</time>
      </trkpt>
      <trkpt lat="43.26058" lon="2.1295">
        <ele>128.7</ele>
        <time>2024-05-11T12:38:14Z</time>
      </trkpt>
      <trkpt lat="43.26058" lon="2.1295">
        <ele>128.7</ele>
        <time>2024-05-11T12:38:15Z</time>
      </trkpt>
      <trkpt lat="43.26057" lon="2.12949">
        <ele>128.7</ele>
        <time>2024-05-11T12:38:16Z</time>
      </trkpt>
      <trkpt lat="43.26055" lon="2.12948">
        <ele>128.7</ele>
        <time>2024-05-11T12:38:17Z</time>
      </trkpt>
      <trkpt lat="43.26052" lon="2.12945">
        <ele>128.8</ele>
        <time>2024-05-11T12:38:18Z</time>
      </trkpt>
      <trkpt lat="43.26049" lon="2.12938">
        <ele>128.5</ele>
        <time>2024-05-11T12:38:19Z</time>
      </trkpt>
      <trkpt lat="43.26048" lon="2.12931">
        <ele>128.2</ele>
        <time>2024-05-11T12:38:20Z</time>
      </trkpt>
      <trkpt lat="43.26049" lon="2.12925">
        <ele>128.1</ele>
        <time>2024-05-11T12:38:21Z</time>
      </trkpt>
      <trkpt lat="43.26049" lon="2.1292">
        <ele>127.9</ele>
        <time>2024-05-11T12:38:22Z</time>
      </trkpt>
      <trkpt lat="43.26048" lon="2.12917">
        <ele>127.7</ele>
        <time>2024-05-11T12:38:23Z</time>
      </trkpt>
      <trkpt lat="43.26046" lon="2.12915">
        <ele>127.5</ele>
        <time>2024-05-11T12:38:24Z</time>
      </trkpt>
      <trkpt lat="43.26046" lon="2.12914">
        <ele>127.4</ele>
        <time>2024-05-11T12:38:25Z</time>
      </trkpt>
      <trkpt lat="43.26046" lon="2.12914">
        <ele>127.4</ele>
        <time>2024-05-11T12:38:26Z</time>
      </trkpt>
      <trkpt lat="43.26046" lon="2.12914">
        <ele>127.4</ele>
        <time>2024-05-11T12:38:27Z</time>
      </trkpt>
      <trkpt lat="43.26046" lon="2.12914">
        <ele>127.4</ele>
        <time>2024-05-11T12:38:28Z</time>
      </trkpt>
      <trkpt lat="43.26046" lon="2.12914">
        <ele>127.4</ele>
        <time>2024-05-11T12:38:29Z</time>
      </trkpt>
      <trkpt lat="43.26047" lon="2.12914">
        <ele>127.4</ele>
        <time>2024-05-11T12:38:30Z</time>
      </trkpt>
      <trkpt lat="43.26046" lon="2.12914">
        <ele>127.4</ele>
        <time>2024-05-11T12:38:31Z</time>
      </trkpt>
      <trkpt lat="43.26046" lon="2.12914">
        <ele>127.4</ele>
        <time>2024-05-11T12:38:32Z</time>
      </trkpt>
      <trkpt lat="43.26047" lon="2.12914">
        <ele>127.4</ele>
        <time>2024-05-11T12:38:33Z</time>
      </trkpt>
      <trkpt lat="43.26047" lon="2.12914">
        <ele>127.4</ele>
        <time>2024-05-11T12:38:34Z</time>
      </trkpt>
      <trkpt lat="43.26045" lon="2.12914">
        <ele>127.4</ele>
        <time>2024-05-11T12:38:35Z</time>
      </trkpt>
      <trkpt lat="43.26042" lon="2.12915">
        <ele>127.4</ele>
        <time>2024-05-11T12:38:36Z</time>
      </trkpt>
      <trkpt lat="43.26037" lon="2.12916">
        <ele>127.3</ele>
        <time>2024-05-11T12:38:37Z</time>
      </trkpt>
      <trkpt lat="43.26029" lon="2.12917">
        <ele>127.1</ele>
        <time>2024-05-11T12:38:38Z</time>
      </trkpt>
      <trkpt lat="43.26021" lon="2.12918">
        <ele>127</ele>
        <time>2024-05-11T12:38:39Z</time>
      </trkpt>
      <trkpt lat="43.26012" lon="2.12919">
        <ele>126.9</ele>
        <time>2024-05-11T12:38:40Z</time>
      </trkpt>
      <trkpt lat="43.26001" lon="2.1292">
        <ele>126.8</ele>
        <time>2024-05-11T12:38:41Z</time>
      </trkpt>
      <trkpt lat="43.25988" lon="2.12919">
        <ele>126.8</ele>
        <time>2024-05-11T12:38:42Z</time>
      </trkpt>
      <trkpt lat="43.25975" lon="2.12918">
        <ele>126.9</ele>
        <time>2024-05-11T12:38:43Z</time>
      </trkpt>
      <trkpt lat="43.25961" lon="2.12916">
        <ele>124.5</ele>
        <time>2024-05-11T12:38:44Z</time>
      </trkpt>
      <trkpt lat="43.25947" lon="2.12911">
        <ele>121.5</ele>
        <time>2024-05-11T12:38:45Z</time>
      </trkpt>
      <trkpt lat="43.25932" lon="2.12905">
        <ele>122.3</ele>
        <time>2024-05-11T12:38:46Z</time>
      </trkpt>
      <trkpt lat="43.25915" lon="2.12896">
        <ele>124</ele>
        <time>2024-05-11T12:38:47Z</time>
      </trkpt>
      <trkpt lat="43.25898" lon="2.12887">
        <ele>124.6</ele>
        <time>2024-05-11T12:38:48Z</time>
      </trkpt>
      <trkpt lat="43.2588" lon="2.12878">
        <ele>124.3</ele>
        <time>2024-05-11T12:38:49Z</time>
      </trkpt>
      <trkpt lat="43.25863" lon="2.12868">
        <ele>124.5</ele>
        <time>2024-05-11T12:38:50Z</time>
      </trkpt>
      <trkpt lat="43.25845" lon="2.12858">
        <ele>124.3</ele>
        <time>2024-05-11T12:38:51Z</time>
      </trkpt>
      <trkpt lat="43.25826" lon="2.12847">
        <ele>123.8</ele>
        <time>2024-05-11T12:38:52Z</time>
      </trkpt>
      <trkpt lat="43.25807" lon="2.12835">
        <ele>124.8</ele>
        <time>2024-05-11T12:38:53Z</time>
      </trkpt>
      <trkpt lat="43.25788" lon="2.12822">
        <ele>123.7</ele>
        <time>2024-05-11T12:38:54Z</time>
      </trkpt>
      <trkpt lat="43.25769" lon="2.12808">
        <ele>123.9</ele>
        <time>2024-05-11T12:38:55Z</time>
      </trkpt>
      <trkpt lat="43.25751" lon="2.12796">
        <ele>124</ele>
        <time>2024-05-11T12:38:56Z</time>
      </trkpt>
      <trkpt lat="43.25732" lon="2.12783">
        <ele>124.4</ele>
        <time>2024-05-11T12:38:57Z</time>
      </trkpt>
      <trkpt lat="43.25713" lon="2.12769">
        <ele>124.1</ele>
        <time>2024-05-11T12:38:58Z</time>
      </trkpt>
      <trkpt lat="43.25694" lon="2.12755">
        <ele>124.6</ele>
        <time>2024-05-11T12:38:59Z</time>
      </trkpt>
      <trkpt lat="43.25674" lon="2.12742">
        <ele>124.2</ele>
        <time>2024-05-11T12:39:00Z</time>
      </trkpt>
      <trkpt lat="43.25654" lon="2.12728">
        <ele>124.3</ele>
        <time>2024-05-11T12:39:01Z</time>
      </trkpt>
      <trkpt lat="43.25634" lon="2.12714">
        <ele>124.7</ele>
        <time>2024-05-11T12:39:02Z</time>
      </trkpt>
      <trkpt lat="43.25615" lon="2.127">
        <ele>125.4</ele>
        <time>2024-05-11T12:39:03Z</time>
      </trkpt>
      <trkpt lat="43.25597" lon="2.12687">
        <ele>125</ele>
        <time>2024-05-11T12:39:04Z</time>
      </trkpt>
      <trkpt lat="43.2558" lon="2.12675">
        <ele>124.9</ele>
        <time>2024-05-11T12:39:05Z</time>
      </trkpt>
      <trkpt lat="43.25564" lon="2.12664">
        <ele>126.1</ele>
        <time>2024-05-11T12:39:06Z</time>
      </trkpt>
      <trkpt lat="43.25548" lon="2.12653">
        <ele>125.3</ele>
        <time>2024-05-11T12:39:07Z</time>
      </trkpt>
      <trkpt lat="43.25534" lon="2.12642">
        <ele>126.6</ele>
        <time>2024-05-11T12:39:08Z</time>
      </trkpt>
      <trkpt lat="43.25522" lon="2.12634">
        <ele>127.2</ele>
        <time>2024-05-11T12:39:09Z</time>
      </trkpt>
      <trkpt lat="43.2551" lon="2.12629">
        <ele>126.3</ele>
        <time>2024-05-11T12:39:10Z</time>
      </trkpt>
      <trkpt lat="43.25496" lon="2.12625">
        <ele>125.9</ele>
        <time>2024-05-11T12:39:11Z</time>
      </trkpt>
      <trkpt lat="43.25482" lon="2.12622">
        <ele>125.7</ele>
        <time>2024-05-11T12:39:12Z</time>
      </trkpt>
      <trkpt lat="43.25472" lon="2.12619">
        <ele>125.7</ele>
        <time>2024-05-11T12:39:13Z</time>
      </trkpt>
      <trkpt lat="43.25461" lon="2.12616">
        <ele>125.8</ele>
        <time>2024-05-11T12:39:14Z</time>
      </trkpt>
      <trkpt lat="43.25452" lon="2.12614">
        <ele>125.9</ele>
        <time>2024-05-11T12:39:15Z</time>
      </trkpt>
      <trkpt lat="43.25445" lon="2.12612">
        <ele>126</ele>
        <time>2024-05-11T12:39:16Z</time>
      </trkpt>
      <trkpt lat="43.25438" lon="2.1261">
        <ele>126</ele>
        <time>2024-05-11T12:39:17Z</time>
      </trkpt>
      <trkpt lat="43.25431" lon="2.12609">
        <ele>125.9</ele>
        <time>2024-05-11T12:39:18Z</time>
      </trkpt>
      <trkpt lat="43.25423" lon="2.12608">
        <ele>125.9</ele>
        <time>2024-05-11T12:39:19Z</time>
      </trkpt>
      <trkpt lat="43.25413" lon="2.12606">
        <ele>125.7</ele>
        <time>2024-05-11T12:39:20Z</time>
      </trkpt>
      <trkpt lat="43.25403" lon="2.12604">
        <ele>125.4</ele>
        <time>2024-05-11T12:39:21Z</time>
      </trkpt>
      <trkpt lat="43.25391" lon="2.12601">
        <ele>125</ele>
        <time>2024-05-11T12:39:22Z</time>
      </trkpt>
      <trkpt lat="43.2538" lon="2.12597">
        <ele>125.3</ele>
        <time>2024-05-11T12:39:23Z</time>
      </trkpt>
      <trkpt lat="43.25373" lon="2.12593">
        <ele>125.6</ele>
        <time>2024-05-11T12:39:24Z</time>
      </trkpt>
      <trkpt lat="43.25368" lon="2.1259">
        <ele>125.8</ele>
        <time>2024-05-11T12:39:25Z</time>
      </trkpt>
      <trkpt lat="43.25365" lon="2.12588">
        <ele>125.9</ele>
        <time>2024-05-11T12:39:26Z</time>
      </trkpt>
      <trkpt lat="43.25363" lon="2.12586">
        <ele>125.9</ele>
        <time>2024-05-11T12:39:27Z</time>
      </trkpt>
      <trkpt lat="43.25361" lon="2.12584">
        <ele>126</ele>
        <time>2024-05-11T12:39:28Z</time>
      </trkpt>
      <trkpt lat="43.2536" lon="2.12584">
        <ele>126</ele>
        <time>2024-05-11T12:39:29Z</time>
      </trkpt>
      <trkpt lat="43.2536" lon="2.12584">
        <ele>126</ele>
        <time>2024-05-11T12:39:30Z</time>
      </trkpt>
      <trkpt lat="43.2536" lon="2.12584">
        <ele>126</ele>
        <time>2024-05-11T12:39:31Z</time>
      </trkpt>
      <trkpt lat="43.2536" lon="2.12584">
        <ele>126</ele>
        <time>2024-05-11T12:39:32Z</time>
      </trkpt>
      <trkpt lat="43.2536" lon="2.12584">
        <ele>126</ele>
        <time>2024-05-11T12:39:33Z</time>
      </trkpt>
      <trkpt lat="43.2536" lon="2.12584">
        <ele>126</ele>
        <time>2024-05-11T12:39:34Z</time>
      </trkpt>
      <trkpt lat="43.25359" lon="2.12582">
        <ele>126.1</ele>
        <time>2024-05-11T12:39:35Z</time>
      </trkpt>
      <trkpt lat="43.25357" lon="2.12578">
        <ele>126.1</ele>
        <time>2024-05-11T12:39:36Z</time>
      </trkpt>
      <trkpt lat="43.25353" lon="2.12572">
        <ele>126.2</ele>
        <time>2024-05-11T12:39:37Z</time>
      </trkpt>
      <trkpt lat="43.25346" lon="2.12567">
        <ele>126.2</ele>
        <time>2024-05-11T12:39:38Z</time>
      </trkpt>
      <trkpt lat="43.25339" lon="2.12566">
        <ele>126.3</ele>
        <time>2024-05-11T12:39:39Z</time>
      </trkpt>
      <trkpt lat="43.25333" lon="2.1257">
        <ele>126.5</ele>
        <time>2024-05-11T12:39:40Z</time>
      </trkpt>
      <trkpt lat="43.25328" lon="2.12578">
        <ele>126.5</ele>
        <time>2024-05-11T12:39:41Z</time>
      </trkpt>
      <trkpt lat="43.25326" lon="2.12588">
        <ele>126.5</ele>
        <time>2024-05-11T12:39:42Z</time>
      </trkpt>
      <trkpt lat="43.25325" lon="2.126">
        <ele>126.4</ele>
        <time>2024-05-11T12:39:43Z</time>
      </trkpt>
      <trkpt lat="43.25325" lon="2.12614">
        <ele>126.3</ele>
        <time>2024-05-11T12:39:44Z</time>
      </trkpt>
      <trkpt lat="43.25322" lon="2.1263">
        <ele>125.8</ele>
        <time>2024-05-11T12:39:45Z</time>
      </trkpt>
      <trkpt lat="43.25318" lon="2.12646">
        <ele>125.5</ele>
        <time>2024-05-11T12:39:46Z</time>
      </trkpt>
      <trkpt lat="43.25312" lon="2.12665">
        <ele>125.7</ele>
        <time>2024-05-11T12:39:47Z</time>
      </trkpt>
      <trkpt lat="43.25305" lon="2.12686">
        <ele>126</ele>
        <time>2024-05-11T12:39:48Z</time>
      </trkpt>
      <trkpt lat="43.25296" lon="2.12709">
        <ele>124.8</ele>
        <time>2024-05-11T12:39:49Z</time>
      </trkpt>
      <trkpt lat="43.25287" lon="2.12734">
        <ele>124.7</ele>
        <time>2024-05-11T12:39:50Z</time>
      </trkpt>
      <trkpt lat="43.25278" lon="2.1276">
        <ele>125.6</ele>
        <time>2024-05-11T12:39:51Z</time>
      </trkpt>
      <trkpt lat="43.25268" lon="2.12787">
        <ele>125</ele>
        <time>2024-05-11T12:39:52Z</time>
      </trkpt>
      <trkpt lat="43.25257" lon="2.12816">
        <ele>125</ele>
        <time>2024-05-11T12:39:53Z</time>
      </trkpt>
      <trkpt lat="43.25245" lon="2.12846">
        <ele>124.5</ele>
        <time>2024-05-11T12:39:54Z</time>
      </trkpt>
      <trkpt lat="43.25233" lon="2.12878">
        <ele>124.4</ele>
        <time>2024-05-11T12:39:55Z</time>
      </trkpt>
      <trkpt lat="43.25221" lon="2.1291">
        <ele>125</ele>
        <time>2024-05-11T12:39:56Z</time>
      </trkpt>
      <trkpt lat="43.25209" lon="2.12942">
        <ele>124.1</ele>
        <time>2024-05-11T12:39:57Z</time>
      </trkpt>
      <trkpt lat="43.25198" lon="2.12974">
        <ele>124.1</ele>
        <time>2024-05-11T12:39:58Z</time>
      </trkpt>
      <trkpt lat="43.25186" lon="2.13007">
        <ele>124.5</ele>
        <time>2024-05-11T12:39:59Z</time>
      </trkpt>
      <trkpt lat="43.25173" lon="2.1304">
        <ele>124.3</ele>
        <time>2024-05-11T12:40:00Z</time>
      </trkpt>
      <trkpt lat="43.25161" lon="2.13075">
        <ele>125</ele>
        <time>2024-05-11T12:40:01Z</time>
      </trkpt>
      <trkpt lat="43.25148" lon="2.13109">
        <ele>125</ele>
        <time>2024-05-11T12:40:02Z</time>
      </trkpt>
      <trkpt lat="43.25135" lon="2.13144">
        <ele>124.8</ele>
        <time>2024-05-11T12:40:03Z</time>
      </trkpt>
      <trkpt lat="43.25122" lon="2.13178">
        <ele>124.4</ele>
        <time>2024-05-11T12:40:04Z</time>
      </trkpt>
      <trkpt lat="43.25109" lon="2.13212">
        <ele>124.4</ele>
        <time>2024-05-11T12:40:05Z</time>
      </trkpt>
      <trkpt lat="43.25097" lon="2.13245">
        <ele>124.1</ele>
        <time>2024-05-11T12:40:06Z</time>
      </trkpt>
      <trkpt lat="43.25083" lon="2.13278">
        <ele>125</ele>
        <time>2024-05-11T12:40:07Z</time>
      </trkpt>
      <trkpt lat="43.25069" lon="2.13308">
        <ele>124</ele>
        <time>2024-05-11T12:40:08Z</time>
      </trkpt>
      <trkpt lat="43.25052" lon="2.13335">
        <ele>124.8</ele>
        <time>2024-05-11T12:40:09Z</time>
      </trkpt>
      <trkpt lat="43.25034" lon="2.1336">
        <ele>124.8</ele>
        <time>2024-05-11T12:40:10Z</time>
      </trkpt>
      <trkpt lat="43.25015" lon="2.13385">
        <ele>124.1</ele>
        <time>2024-05-11T12:40:11Z</time>
      </trkpt>
      <trkpt lat="43.24997" lon="2.13411">
        <ele>124</ele>
        <time>2024-05-11T12:40:12Z</time>
      </trkpt>
      <trkpt lat="43.24978" lon="2.13437">
        <ele>124.7</ele>
        <time>2024-05-11T12:40:13Z</time>
      </trkpt>
      <trkpt lat="43.2496" lon="2.13461">
        <ele>125</ele>
        <time>2024-05-11T12:40:14Z</time>
      </trkpt>
      <trkpt lat="43.24942" lon="2.13485">
        <ele>124.5</ele>
        <time>2024-05-11T12:40:15Z</time>
      </trkpt>
      <trkpt lat="43.24925" lon="2.13508">
        <ele>124.3</ele>
        <time>2024-05-11T12:40:16Z</time>
      </trkpt>
      <trkpt lat="43.2491" lon="2.13528">
        <ele>125</ele>
        <time>2024-05-11T12:40:17Z</time>
      </trkpt>
      <trkpt lat="43.24898" lon="2.13545">
        <ele>125</ele>
        <time>2024-05-11T12:40:18Z</time>
      </trkpt>
      <trkpt lat="43.24886" lon="2.1356">
        <ele>125</ele>
        <time>2024-05-11T12:40:19Z</time>
      </trkpt>
      <trkpt lat="43.24875" lon="2.13573">
        <ele>125</ele>
        <time>2024-05-11T12:40:20Z</time>
      </trkpt>
      <trkpt lat="43.24865" lon="2.13584">
        <ele>125</ele>
        <time>2024-05-11T12:40:21Z</time>
      </trkpt>
      <trkpt lat="43.24855" lon="2.13594">
        <ele>125.1</ele>
        <time>2024-05-11T12:40:22Z</time>
      </trkpt>
      <trkpt lat="43.24845" lon="2.13603">
        <ele>125.4</ele>
        <time>2024-05-11T12:40:23Z</time>
      </trkpt>
      <trkpt lat="43.24834" lon="2.13611">
        <ele>126</ele>
        <time>2024-05-11T12:40:24Z</time>
      </trkpt>
      <trkpt lat="43.24823" lon="2.13618">
        <ele>125.8</ele>
        <time>2024-05-11T12:40:25Z</time>
      </trkpt>
      <trkpt lat="43.24811" lon="2.13625">
        <ele>125.9</ele>
        <time>2024-05-11T12:40:26Z</time>
      </trkpt>
      <trkpt lat="43.24798" lon="2.13631">
        <ele>125.9</ele>
        <time>2024-05-11T12:40:27Z</time>
      </trkpt>
      <trkpt lat="43.24784" lon="2.13636">
        <ele>125.9</ele>
        <time>2024-05-11T12:40:28Z</time>
      </trkpt>
      <trkpt lat="43.24769" lon="2.13639">
        <ele>126</ele>
        <time>2024-05-11T12:40:29Z</time>
      </trkpt>
      <trkpt lat="43.24753" lon="2.13642">
        <ele>125.9</ele>
        <time>2024-05-11T12:40:30Z</time>
      </trkpt>
      <trkpt lat="43.24735" lon="2.13644">
        <ele>125.7</ele>
        <time>2024-05-11T12:40:31Z</time>
      </trkpt>
      <trkpt lat="43.24716" lon="2.13644">
        <ele>125.6</ele>
        <time>2024-05-11T12:40:32Z</time>
      </trkpt>
      <trkpt lat="43.24696" lon="2.13642">
        <ele>125.8</ele>
        <time>2024-05-11T12:40:33Z</time>
      </trkpt>
      <trkpt lat="43.24675" lon="2.13637">
        <ele>126</ele>
        <time>2024-05-11T12:40:34Z</time>
      </trkpt>
      <trkpt lat="43.24654" lon="2.13631">
        <ele>126.3</ele>
        <time>2024-05-11T12:40:35Z</time>
      </trkpt>
      <trkpt lat="43.24633" lon="2.13624">
        <ele>126.5</ele>
        <time>2024-05-11T12:40:36Z</time>
      </trkpt>
      <trkpt lat="43.24611" lon="2.13618">
        <ele>126.8</ele>
        <time>2024-05-11T12:40:37Z</time>
      </trkpt>
      <trkpt lat="43.24587" lon="2.1361">
        <ele>127</ele>
        <time>2024-05-11T12:40:38Z</time>
      </trkpt>
      <trkpt lat="43.24564" lon="2.13603">
        <ele>127</ele>
        <time>2024-05-11T12:40:39Z</time>
      </trkpt>
      <trkpt lat="43.24541" lon="2.13596">
        <ele>127</ele>
        <time>2024-05-11T12:40:40Z</time>
      </trkpt>
      <trkpt lat="43.24517" lon="2.13589">
        <ele>127.3</ele>
        <time>2024-05-11T12:40:41Z</time>
      </trkpt>
      <trkpt lat="43.24494" lon="2.13582">
        <ele>128</ele>
        <time>2024-05-11T12:40:42Z</time>
      </trkpt>
      <trkpt lat="43.24472" lon="2.13574">
        <ele>128</ele>
        <time>2024-05-11T12:40:43Z</time>
      </trkpt>
      <trkpt lat="43.2445" lon="2.13568">
        <ele>127.6</ele>
        <time>2024-05-11T12:40:44Z</time>
      </trkpt>
      <trkpt lat="43.2443" lon="2.13562">
        <ele>127.8</ele>
        <time>2024-05-11T12:40:45Z</time>
      </trkpt>
      <trkpt lat="43.24411" lon="2.13557">
        <ele>127.9</ele>
        <time>2024-05-11T12:40:46Z</time>
      </trkpt>
      <trkpt lat="43.24393" lon="2.13551">
        <ele>128.5</ele>
        <time>2024-05-11T12:40:47Z</time>
      </trkpt>
      <trkpt lat="43.24377" lon="2.13546">
        <ele>128.8</ele>
        <time>2024-05-11T12:40:48Z</time>
      </trkpt>
      <trkpt lat="43.24362" lon="2.13542">
        <ele>128.1</ele>
        <time>2024-05-11T12:40:49Z</time>
      </trkpt>
      <trkpt lat="43.24347" lon="2.13537">
        <ele>128.5</ele>
        <time>2024-05-11T12:40:50Z</time>
      </trkpt>
      <trkpt lat="43.24333" lon="2.13533">
        <ele>129</ele>
        <time>2024-05-11T12:40:51Z</time>
      </trkpt>
      <trkpt lat="43.24322" lon="2.1353">
        <ele>129</ele>
        <time>2024-05-11T12:40:52Z</time>
      </trkpt>
      <trkpt lat="43.24311" lon="2.13527">
        <ele>129</ele>
        <time>2024-05-11T12:40:53Z</time>
      </trkpt>
      <trkpt lat="43.24301" lon="2.13524">
        <ele>129.2</ele>
        <time>2024-05-11T12:40:54Z</time>
      </trkpt>
      <trkpt lat="43.24292" lon="2.13522">
        <ele>129.3</ele>
        <time>2024-05-11T12:40:55Z</time>
      </trkpt>
      <trkpt lat="43.24284" lon="2.1352">
        <ele>129.5</ele>
        <time>2024-05-11T12:40:56Z</time>
      </trkpt>
      <trkpt lat="43.24277" lon="2.13518">
        <ele>129.7</ele>
        <time>2024-05-11T12:40:57Z</time>
      </trkpt>
      <trkpt lat="43.2427" lon="2.13516">
        <ele>129.7</ele>
        <time>2024-05-11T12:40:58Z</time>
      </trkpt>
      <trkpt lat="43.24263" lon="2.13514">
        <ele>129.7</ele>
        <time>2024-05-11T12:40:59Z</time>
      </trkpt>
      <trkpt lat="43.24257" lon="2.13512">
        <ele>129.7</ele>
        <time>2024-05-11T12:41:00Z</time>
      </trkpt>
      <trkpt lat="43.24251" lon="2.1351">
        <ele>129.7</ele>
        <time>2024-05-11T12:41:01Z</time>
      </trkpt>
      <trkpt lat="43.24245" lon="2.13508">
        <ele>129.9</ele>
        <time>2024-05-11T12:41:02Z</time>
      </trkpt>
      <trkpt lat="43.2424" lon="2.13507">
        <ele>130.1</ele>
        <time>2024-05-11T12:41:03Z</time>
      </trkpt>
      <trkpt lat="43.24235" lon="2.13505">
        <ele>130.4</ele>
        <time>2024-05-11T12:41:04Z</time>
      </trkpt>
      <trkpt lat="43.24229" lon="2.13504">
        <ele>130.6</ele>
        <time>2024-05-11T12:41:05Z</time>
      </trkpt>
      <trkpt lat="43.24224" lon="2.13502">
        <ele>130.9</ele>
        <time>2024-05-11T12:41:06Z</time>
      </trkpt>
      <trkpt lat="43.24218" lon="2.135">
        <ele>131</ele>
        <time>2024-05-11T12:41:07Z</time>
      </trkpt>
      <trkpt lat="43.2421" lon="2.13498">
        <ele>130.9</ele>
        <time>2024-05-11T12:41:08Z</time>
      </trkpt>
      <trkpt lat="43.24202" lon="2.13495">
        <ele>130.8</ele>
        <time>2024-05-11T12:41:09Z</time>
      </trkpt>
      <trkpt lat="43.24194" lon="2.13491">
        <ele>130.7</ele>
        <time>2024-05-11T12:41:10Z</time>
      </trkpt>
      <trkpt lat="43.24185" lon="2.13487">
        <ele>130.7</ele>
        <time>2024-05-11T12:41:11Z</time>
      </trkpt>
      <trkpt lat="43.24176" lon="2.13482">
        <ele>131</ele>
        <time>2024-05-11T12:41:12Z</time>
      </trkpt>
      <trkpt lat="43.24168" lon="2.13476">
        <ele>131.7</ele>
        <time>2024-05-11T12:41:13Z</time>
      </trkpt>
      <trkpt lat="43.24161" lon="2.13471">
        <ele>131.9</ele>
        <time>2024-05-11T12:41:14Z</time>
      </trkpt>
      <trkpt lat="43.24157" lon="2.13466">
        <ele>131.7</ele>
        <time>2024-05-11T12:41:15Z</time>
      </trkpt>
      <trkpt lat="43.24155" lon="2.13463">
        <ele>131.6</ele>
        <time>2024-05-11T12:41:16Z</time>
      </trkpt>
      <trkpt lat="43.24154" lon="2.13461">
        <ele>131.6</ele>
        <time>2024-05-11T12:41:17Z</time>
      </trkpt>
      <trkpt lat="43.24154" lon="2.1346">
        <ele>131.5</ele>
        <time>2024-05-11T12:41:18Z</time>
      </trkpt>
      <trkpt lat="43.24154" lon="2.1346">
        <ele>131.5</ele>
        <time>2024-05-11T12:41:19Z</time>
      </trkpt>
      <trkpt lat="43.24153" lon="2.13461">
        <ele>131.6</ele>
        <time>2024-05-11T12:41:20Z</time>
      </trkpt>
      <trkpt lat="43.24153" lon="2.13461">
        <ele>131.6</ele>
        <time>2024-05-11T12:41:21Z</time>
      </trkpt>
      <trkpt lat="43.24153" lon="2.13461">
        <ele>131.6</ele>
        <time>2024-05-11T12:41:22Z</time>
      </trkpt>
      <trkpt lat="43.24153" lon="2.1346">
        <ele>131.6</ele>
        <time>2024-05-11T12:41:23Z</time>
      </trkpt>
      <trkpt lat="43.24153" lon="2.13461">
        <ele>131.6</ele>
        <time>2024-05-11T12:41:24Z</time>
      </trkpt>
      <trkpt lat="43.24153" lon="2.13459">
        <ele>131.5</ele>
        <time>2024-05-11T12:41:25Z</time>
      </trkpt>
      <trkpt lat="43.24152" lon="2.13456">
        <ele>131.4</ele>
        <time>2024-05-11T12:41:26Z</time>
      </trkpt>
      <trkpt lat="43.24149" lon="2.13449">
        <ele>131.4</ele>
        <time>2024-05-11T12:41:27Z</time>
      </trkpt>
      <trkpt lat="43.24145" lon="2.13441">
        <ele>131.6</ele>
        <time>2024-05-11T12:41:28Z</time>
      </trkpt>
      <trkpt lat="43.24139" lon="2.13435">
        <ele>132</ele>
        <time>2024-05-11T12:41:29Z</time>
      </trkpt>
      <trkpt lat="43.24132" lon="2.13434">
        <ele>131.9</ele>
        <time>2024-05-11T12:41:30Z</time>
      </trkpt>
      <trkpt lat="43.24125" lon="2.13437">
        <ele>131.9</ele>
        <time>2024-05-11T12:41:31Z</time>
      </trkpt>
      <trkpt lat="43.2412" lon="2.13445">
        <ele>132</ele>
        <time>2024-05-11T12:41:32Z</time>
      </trkpt>
      <trkpt lat="43.24118" lon="2.13456">
        <ele>131.7</ele>
        <time>2024-05-11T12:41:33Z</time>
      </trkpt>
      <trkpt lat="43.24119" lon="2.13467">
        <ele>131.4</ele>
        <time>2024-05-11T12:41:34Z</time>
      </trkpt>
      <trkpt lat="43.24124" lon="2.13477">
        <ele>131.4</ele>
        <time>2024-05-11T12:41:35Z</time>
      </trkpt>
      <trkpt lat="43.24129" lon="2.13487">
        <ele>131.3</ele>
        <time>2024-05-11T12:41:36Z</time>
      </trkpt>
      <trkpt lat="43.24134" lon="2.13501">
        <ele>131</ele>
        <time>2024-05-11T12:41:37Z</time>
      </trkpt>
      <trkpt lat="43.24137" lon="2.13519">
        <ele>131</ele>
        <time>2024-05-11T12:41:38Z</time>
      </trkpt>
      <trkpt lat="43.24138" lon="2.13542">
        <ele>130.5</ele>
        <time>2024-05-11T12:41:39Z</time>
      </trkpt>
      <trkpt lat="43.24139" lon="2.13568">
        <ele>130</ele>
        <time>2024-05-11T12:41:40Z</time>
      </trkpt>
      <trkpt lat="43.24138" lon="2.13594">
        <ele>130</ele>
        <time>2024-05-11T12:41:41Z</time>
      </trkpt>
      <trkpt lat="43.24138" lon="2.13623">
        <ele>130</ele>
        <time>2024-05-11T12:41:42Z</time>
      </trkpt>
      <trkpt lat="43.24138" lon="2.13653">
        <ele>130</ele>
        <time>2024-05-11T12:41:43Z</time>
      </trkpt>
      <trkpt lat="43.24139" lon="2.13688">
        <ele>130</ele>
        <time>2024-05-11T12:41:44Z</time>
      </trkpt>
      <trkpt lat="43.24138" lon="2.13724">
        <ele>129.9</ele>
        <time>2024-05-11T12:41:45Z</time>
      </trkpt>
      <trkpt lat="43.24137" lon="2.13758">
        <ele>129</ele>
        <time>2024-05-11T12:41:46Z</time>
      </trkpt>
      <trkpt lat="43.24136" lon="2.13794">
        <ele>129</ele>
        <time>2024-05-11T12:41:47Z</time>
      </trkpt>
      <trkpt lat="43.24136" lon="2.13832">
        <ele>129</ele>
        <time>2024-05-11T12:41:48Z</time>
      </trkpt>
      <trkpt lat="43.24136" lon="2.13872">
        <ele>129</ele>
        <time>2024-05-11T12:41:49Z</time>
      </trkpt>
      <trkpt lat="43.24136" lon="2.13911">
        <ele>129</ele>
        <time>2024-05-11T12:41:50Z</time>
      </trkpt>
      <trkpt lat="43.24135" lon="2.1395">
        <ele>129</ele>
        <time>2024-05-11T12:41:51Z</time>
      </trkpt>
      <trkpt lat="43.24134" lon="2.13989">
        <ele>128.5</ele>
        <time>2024-05-11T12:41:52Z</time>
      </trkpt>
      <trkpt lat="43.24134" lon="2.14027">
        <ele>128.2</ele>
        <time>2024-05-11T12:41:53Z</time>
      </trkpt>
      <trkpt lat="43.24133" lon="2.14064">
        <ele>128.1</ele>
        <time>2024-05-11T12:41:54Z</time>
      </trkpt>
      <trkpt lat="43.24132" lon="2.14101">
        <ele>128.1</ele>
        <time>2024-05-11T12:41:55Z</time>
      </trkpt>
      <trkpt lat="43.24131" lon="2.14138">
        <ele>128</ele>
        <time>2024-05-11T12:41:56Z</time>
      </trkpt>
      <trkpt lat="43.24129" lon="2.14176">
        <ele>128</ele>
        <time>2024-05-11T12:41:57Z</time>
      </trkpt>
      <trkpt lat="43.24127" lon="2.14214">
        <ele>128</ele>
        <time>2024-05-11T12:41:58Z</time>
      </trkpt>
      <trkpt lat="43.24125" lon="2.14252">
        <ele>128</ele>
        <time>2024-05-11T12:41:59Z</time>
      </trkpt>
      <trkpt lat="43.24122" lon="2.14288">
        <ele>128</ele>
        <time>2024-05-11T12:42:00Z</time>
      </trkpt>
      <trkpt lat="43.24119" lon="2.14322">
        <ele>128</ele>
        <time>2024-05-11T12:42:01Z</time>
      </trkpt>
      <trkpt lat="43.24117" lon="2.14356">
        <ele>128</ele>
        <time>2024-05-11T12:42:02Z</time>
      </trkpt>
      <trkpt lat="43.24115" lon="2.14391">
        <ele>128</ele>
        <time>2024-05-11T12:42:03Z</time>
      </trkpt>
      <trkpt lat="43.24113" lon="2.14425">
        <ele>128</ele>
        <time>2024-05-11T12:42:04Z</time>
      </trkpt>
      <trkpt lat="43.2411" lon="2.14459">
        <ele>128</ele>
        <time>2024-05-11T12:42:05Z</time>
      </trkpt>
      <trkpt lat="43.24107" lon="2.14493">
        <ele>128</ele>
        <time>2024-05-11T12:42:06Z</time>
      </trkpt>
      <trkpt lat="43.24105" lon="2.14524">
        <ele>128</ele>
        <time>2024-05-11T12:42:07Z</time>
      </trkpt>
      <trkpt lat="43.24102" lon="2.14555">
        <ele>128</ele>
        <time>2024-05-11T12:42:08Z</time>
      </trkpt>
      <trkpt lat="43.241" lon="2.14585">
        <ele>127.4</ele>
        <time>2024-05-11T12:42:09Z</time>
      </trkpt>
      <trkpt lat="43.24098" lon="2.14614">
        <ele>127.5</ele>
        <time>2024-05-11T12:42:10Z</time>
      </trkpt>
      <trkpt lat="43.24096" lon="2.14642">
        <ele>128</ele>
        <time>2024-05-11T12:42:11Z</time>
      </trkpt>
      <trkpt lat="43.24093" lon="2.1467">
        <ele>128</ele>
        <time>2024-05-11T12:42:12Z</time>
      </trkpt>
      <trkpt lat="43.24091" lon="2.14697">
        <ele>128</ele>
        <time>2024-05-11T12:42:13Z</time>
      </trkpt>
      <trkpt lat="43.24089" lon="2.14726">
        <ele>127.9</ele>
        <time>2024-05-11T12:42:14Z</time>
      </trkpt>
      <trkpt lat="43.24087" lon="2.14755">
        <ele>127.1</ele>
        <time>2024-05-11T12:42:15Z</time>
      </trkpt>
      <trkpt lat="43.24085" lon="2.14785">
        <ele>127.1</ele>
        <time>2024-05-11T12:42:16Z</time>
      </trkpt>
      <trkpt lat="43.24083" lon="2.14815">
        <ele>127</ele>
        <time>2024-05-11T12:42:17Z</time>
      </trkpt>
      <trkpt lat="43.24081" lon="2.14846">
        <ele>127</ele>
        <time>2024-05-11T12:42:18Z</time>
      </trkpt>
      <trkpt lat="43.24078" lon="2.14876">
        <ele>126.6</ele>
        <time>2024-05-11T12:42:19Z</time>
      </trkpt>
      <trkpt lat="43.24076" lon="2.14905">
        <ele>126.3</ele>
        <time>2024-05-11T12:42:20Z</time>
      </trkpt>
      <trkpt lat="43.24074" lon="2.14933">
        <ele>126.3</ele>
        <time>2024-05-11T12:42:21Z</time>
      </trkpt>
      <trkpt lat="43.24071" lon="2.14962">
        <ele>126.4</ele>
        <time>2024-05-11T12:42:22Z</time>
      </trkpt>
      <trkpt lat="43.24068" lon="2.1499">
        <ele>126.6</ele>
        <time>2024-05-11T12:42:23Z</time>
      </trkpt>
      <trkpt lat="43.24065" lon="2.15016">
        <ele>126.7</ele>
        <time>2024-05-11T12:42:24Z</time>
      </trkpt>
      <trkpt lat="43.24063" lon="2.15042">
        <ele>126.4</ele>
        <time>2024-05-11T12:42:25Z</time>
      </trkpt>
      <trkpt lat="43.24061" lon="2.15067">
        <ele>126</ele>
        <time>2024-05-11T12:42:26Z</time>
      </trkpt>
      <trkpt lat="43.24058" lon="2.15091">
        <ele>126</ele>
        <time>2024-05-11T12:42:27Z</time>
      </trkpt>
      <trkpt lat="43.24056" lon="2.15115">
        <ele>126</ele>
        <time>2024-05-11T12:42:28Z</time>
      </trkpt>
      <trkpt lat="43.24054" lon="2.15139">
        <ele>126</ele>
        <time>2024-05-11T12:42:29Z</time>
      </trkpt>
      <trkpt lat="43.24051" lon="2.15163">
        <ele>126</ele>
        <time>2024-05-11T12:42:30Z</time>
      </trkpt>
      <trkpt lat="43.24049" lon="2.15187">
        <ele>126</ele>
        <time>2024-05-11T12:42:31Z</time>
      </trkpt>
      <trkpt lat="43.24047" lon="2.15213">
        <ele>126</ele>
        <time>2024-05-11T12:42:32Z</time>
      </trkpt>
      <trkpt lat="43.24044" lon="2.15239">
        <ele>126</ele>
        <time>2024-05-11T12:42:33Z</time>
      </trkpt>
      <trkpt lat="43.24041" lon="2.15266">
        <ele>126</ele>
        <time>2024-05-11T12:42:34Z</time>
      </trkpt>
      <trkpt lat="43.24038" lon="2.15295">
        <ele>126</ele>
        <time>2024-05-11T12:42:35Z</time>
      </trkpt>
      <trkpt lat="43.24036" lon="2.15323">
        <ele>126</ele>
        <time>2024-05-11T12:42:36Z</time>
      </trkpt>
      <trkpt lat="43.24033" lon="2.15352">
        <ele>126</ele>
        <time>2024-05-11T12:42:37Z</time>
      </trkpt>
      <trkpt lat="43.24031" lon="2.15382">
        <ele>126.7</ele>
        <time>2024-05-11T12:42:38Z</time>
      </trkpt>
      <trkpt lat="43.24029" lon="2.1541">
        <ele>127</ele>
        <time>2024-05-11T12:42:39Z</time>
      </trkpt>
      <trkpt lat="43.24027" lon="2.15438">
        <ele>126.3</ele>
        <time>2024-05-11T12:42:40Z</time>
      </trkpt>
      <trkpt lat="43.24025" lon="2.15466">
        <ele>126</ele>
        <time>2024-05-11T12:42:41Z</time>
      </trkpt>
      <trkpt lat="43.24023" lon="2.15494">
        <ele>126.1</ele>
        <time>2024-05-11T12:42:42Z</time>
      </trkpt>
      <trkpt lat="43.24021" lon="2.15523">
        <ele>126.2</ele>
        <time>2024-05-11T12:42:43Z</time>
      </trkpt>
      <trkpt lat="43.24019" lon="2.15553">
        <ele>126.3</ele>
        <time>2024-05-11T12:42:44Z</time>
      </trkpt>
      <trkpt lat="43.24017" lon="2.15583">
        <ele>126</ele>
        <time>2024-05-11T12:42:45Z</time>
      </trkpt>
      <trkpt lat="43.24014" lon="2.15613">
        <ele>126</ele>
        <time>2024-05-11T12:42:46Z</time>
      </trkpt>
      <trkpt lat="43.24012" lon="2.15643">
        <ele>126</ele>
        <time>2024-05-11T12:42:47Z</time>
      </trkpt>
      <trkpt lat="43.2401" lon="2.15671">
        <ele>126</ele>
        <time>2024-05-11T12:42:48Z</time>
      </trkpt>
      <trkpt lat="43.24008" lon="2.157">
        <ele>125.9</ele>
        <time>2024-05-11T12:42:49Z</time>
      </trkpt>
      <trkpt lat="43.24006" lon="2.15728">
        <ele>125.8</ele>
        <time>2024-05-11T12:42:50Z</time>
      </trkpt>
      <trkpt lat="43.24004" lon="2.15756">
        <ele>125.7</ele>
        <time>2024-05-11T12:42:51Z</time>
      </trkpt>
      <trkpt lat="43.24002" lon="2.15783">
        <ele>125</ele>
        <time>2024-05-11T12:42:52Z</time>
      </trkpt>
      <trkpt lat="43.24" lon="2.15809">
        <ele>125</ele>
        <time>2024-05-11T12:42:53Z</time>
      </trkpt>
      <trkpt lat="43.23998" lon="2.15834">
        <ele>125.1</ele>
        <time>2024-05-11T12:42:54Z</time>
      </trkpt>
      <trkpt lat="43.23997" lon="2.15858">
        <ele>125.1</ele>
        <time>2024-05-11T12:42:55Z</time>
      </trkpt>
      <trkpt lat="43.23995" lon="2.15882">
        <ele>125</ele>
        <time>2024-05-11T12:42:56Z</time>
      </trkpt>
      <trkpt lat="43.23993" lon="2.15904">
        <ele>124.6</ele>
        <time>2024-05-11T12:42:57Z</time>
      </trkpt>
      <trkpt lat="43.23992" lon="2.15927">
        <ele>124.6</ele>
        <time>2024-05-11T12:42:58Z</time>
      </trkpt>
      <trkpt lat="43.2399" lon="2.15951">
        <ele>124.8</ele>
        <time>2024-05-11T12:42:59Z</time>
      </trkpt>
      <trkpt lat="43.23988" lon="2.15975">
        <ele>124.4</ele>
        <time>2024-05-11T12:43:00Z</time>
      </trkpt>
      <trkpt lat="43.23986" lon="2.16">
        <ele>124.5</ele>
        <time>2024-05-11T12:43:01Z</time>
      </trkpt>
      <trkpt lat="43.23984" lon="2.16026">
        <ele>124.6</ele>
        <time>2024-05-11T12:43:02Z</time>
      </trkpt>
      <trkpt lat="43.23983" lon="2.16053">
        <ele>124.1</ele>
        <time>2024-05-11T12:43:03Z</time>
      </trkpt>
      <trkpt lat="43.23981" lon="2.16079">
        <ele>124</ele>
        <time>2024-05-11T12:43:04Z</time>
      </trkpt>
      <trkpt lat="43.23979" lon="2.16105">
        <ele>124</ele>
        <time>2024-05-11T12:43:05Z</time>
      </trkpt>
      <trkpt lat="43.23977" lon="2.16131">
        <ele>124</ele>
        <time>2024-05-11T12:43:06Z</time>
      </trkpt>
      <trkpt lat="43.23975" lon="2.16157">
        <ele>124</ele>
        <time>2024-05-11T12:43:07Z</time>
      </trkpt>
      <trkpt lat="43.23973" lon="2.16182">
        <ele>124</ele>
        <time>2024-05-11T12:43:08Z</time>
      </trkpt>
      <trkpt lat="43.23971" lon="2.16207">
        <ele>124</ele>
        <time>2024-05-11T12:43:09Z</time>
      </trkpt>
      <trkpt lat="43.23969" lon="2.16233">
        <ele>124</ele>
        <time>2024-05-11T12:43:10Z</time>
      </trkpt>
      <trkpt lat="43.23967" lon="2.16259">
        <ele>124</ele>
        <time>2024-05-11T12:43:11Z</time>
      </trkpt>
      <trkpt lat="43.23966" lon="2.16286">
        <ele>124</ele>
        <time>2024-05-11T12:43:12Z</time>
      </trkpt>
      <trkpt lat="43.23964" lon="2.16313">
        <ele>124</ele>
        <time>2024-05-11T12:43:13Z</time>
      </trkpt>
      <trkpt lat="43.23961" lon="2.16342">
        <ele>124</ele>
        <time>2024-05-11T12:43:14Z</time>
      </trkpt>
      <trkpt lat="43.23959" lon="2.16372">
        <ele>124</ele>
        <time>2024-05-11T12:43:15Z</time>
      </trkpt>
      <trkpt lat="43.23957" lon="2.16402">
        <ele>124</ele>
        <time>2024-05-11T12:43:16Z</time>
      </trkpt>
      <trkpt lat="43.23955" lon="2.16432">
        <ele>124</ele>
        <time>2024-05-11T12:43:17Z</time>
      </trkpt>
      <trkpt lat="43.23953" lon="2.16461">
        <ele>124</ele>
        <time>2024-05-11T12:43:18Z</time>
      </trkpt>
      <trkpt lat="43.23951" lon="2.16489">
        <ele>124</ele>
        <time>2024-05-11T12:43:19Z</time>
      </trkpt>
      <trkpt lat="43.23949" lon="2.16516">
        <ele>124</ele>
        <time>2024-05-11T12:43:20Z</time>
      </trkpt>
      <trkpt lat="43.23947" lon="2.16541">
        <ele>124</ele>
        <time>2024-05-11T12:43:21Z</time>
      </trkpt>
      <trkpt lat="43.23943" lon="2.16565">
        <ele>124.3</ele>
        <time>2024-05-11T12:43:22Z</time>
      </trkpt>
      <trkpt lat="43.23939" lon="2.16586">
        <ele>124.8</ele>
        <time>2024-05-11T12:43:23Z</time>
      </trkpt>
      <trkpt lat="43.23936" lon="2.16602">
        <ele>124.7</ele>
        <time>2024-05-11T12:43:24Z</time>
      </trkpt>
      <trkpt lat="43.23933" lon="2.16618">
        <ele>124.7</ele>
        <time>2024-05-11T12:43:25Z</time>
      </trkpt>
      <trkpt lat="43.2393" lon="2.16631">
        <ele>124.9</ele>
        <time>2024-05-11T12:43:26Z</time>
      </trkpt>
      <trkpt lat="43.23927" lon="2.16644">
        <ele>125</ele>
        <time>2024-05-11T12:43:27Z</time>
      </trkpt>
      <trkpt lat="43.23925" lon="2.16655">
        <ele>125</ele>
        <time>2024-05-11T12:43:28Z</time>
      </trkpt>
      <trkpt lat="43.23923" lon="2.16665">
        <ele>125</ele>
        <time>2024-05-11T12:43:29Z</time>
      </trkpt>
      <trkpt lat="43.23921" lon="2.16676">
        <ele>125.6</ele>
        <time>2024-05-11T12:43:30Z</time>
      </trkpt>
      <trkpt lat="43.2392" lon="2.16688">
        <ele>126.4</ele>
        <time>2024-05-11T12:43:31Z</time>
      </trkpt>
      <trkpt lat="43.23918" lon="2.167">
        <ele>127.1</ele>
        <time>2024-05-11T12:43:32Z</time>
      </trkpt>
      <trkpt lat="43.23917" lon="2.16714">
        <ele>127.7</ele>
        <time>2024-05-11T12:43:33Z</time>
      </trkpt>
      <trkpt lat="43.23917" lon="2.16729">
        <ele>127.7</ele>
        <time>2024-05-11T12:43:34Z</time>
      </trkpt>
      <trkpt lat="43.23919" lon="2.16745">
        <ele>126.9</ele>
        <time>2024-05-11T12:43:35Z</time>
      </trkpt>
      <trkpt lat="43.23921" lon="2.16762">
        <ele>126.1</ele>
        <time>2024-05-11T12:43:36Z</time>
      </trkpt>
      <trkpt lat="43.23925" lon="2.16781">
        <ele>125</ele>
        <time>2024-05-11T12:43:37Z</time>
      </trkpt>
      <trkpt lat="43.23929" lon="2.16799">
        <ele>124.4</ele>
        <time>2024-05-11T12:43:38Z</time>
      </trkpt>
      <trkpt lat="43.23932" lon="2.16814">
        <ele>125.1</ele>
        <time>2024-05-11T12:43:39Z</time>
      </trkpt>
      <trkpt lat="43.23935" lon="2.16829">
        <ele>126.1</ele>
        <time>2024-05-11T12:43:40Z</time>
      </trkpt>
      <trkpt lat="43.23937" lon="2.16844">
        <ele>126.4</ele>
        <time>2024-05-11T12:43:41Z</time>
      </trkpt>
      <trkpt lat="43.23938" lon="2.16859">
        <ele>126.3</ele>
        <time>2024-05-11T12:43:42Z</time>
      </trkpt>
      <trkpt lat="43.23938" lon="2.16875">
        <ele>125.8</ele>
        <time>2024-05-11T12:43:43Z</time>
      </trkpt>
      <trkpt lat="43.23938" lon="2.16892">
        <ele>125.1</ele>
        <time>2024-05-11T12:43:44Z</time>
      </trkpt>
      <trkpt lat="43.23936" lon="2.16912">
        <ele>123.9</ele>
        <time>2024-05-11T12:43:45Z</time>
      </trkpt>
      <trkpt lat="43.23935" lon="2.16934">
        <ele>123.2</ele>
        <time>2024-05-11T12:43:46Z</time>
      </trkpt>
      <trkpt lat="43.23933" lon="2.16957">
        <ele>123</ele>
        <time>2024-05-11T12:43:47Z</time>
      </trkpt>
      <trkpt lat="43.23932" lon="2.16981">
        <ele>122.8</ele>
        <time>2024-05-11T12:43:48Z</time>
      </trkpt>
      <trkpt lat="43.23931" lon="2.17005">
        <ele>122.5</ele>
        <time>2024-05-11T12:43:49Z</time>
      </trkpt>
      <trkpt lat="43.23929" lon="2.1703">
        <ele>122.5</ele>
        <time>2024-05-11T12:43:50Z</time>
      </trkpt>
      <trkpt lat="43.23928" lon="2.17057">
        <ele>122</ele>
        <time>2024-05-11T12:43:51Z</time>
      </trkpt>
      <trkpt lat="43.23926" lon="2.17084">
        <ele>122</ele>
        <time>2024-05-11T12:43:52Z</time>
      </trkpt>
      <trkpt lat="43.23924" lon="2.17113">
        <ele>122</ele>
        <time>2024-05-11T12:43:53Z</time>
      </trkpt>
      <trkpt lat="43.23923" lon="2.17141">
        <ele>121.9</ele>
        <time>2024-05-11T12:43:54Z</time>
      </trkpt>
      <trkpt lat="43.23921" lon="2.1717">
        <ele>121.3</ele>
        <time>2024-05-11T12:43:55Z</time>
      </trkpt>
      <trkpt lat="43.23919" lon="2.17199">
        <ele>121.8</ele>
        <time>2024-05-11T12:43:56Z</time>
      </trkpt>
      <trkpt lat="43.23916" lon="2.17228">
        <ele>121</ele>
        <time>2024-05-11T12:43:57Z</time>
      </trkpt>
      <trkpt lat="43.23914" lon="2.17258">
        <ele>121.1</ele>
        <time>2024-05-11T12:43:58Z</time>
      </trkpt>
      <trkpt lat="43.23912" lon="2.17289">
        <ele>121.1</ele>
        <time>2024-05-11T12:43:59Z</time>
      </trkpt>
      <trkpt lat="43.23909" lon="2.17321">
        <ele>121.3</ele>
        <time>2024-05-11T12:44:00Z</time>
      </trkpt>
      <trkpt lat="43.23906" lon="2.17353">
        <ele>121.4</ele>
        <time>2024-05-11T12:44:01Z</time>
      </trkpt>
      <trkpt lat="43.23904" lon="2.17385">
        <ele>121.9</ele>
        <time>2024-05-11T12:44:02Z</time>
      </trkpt>
      <trkpt lat="43.23901" lon="2.17415">
        <ele>122</ele>
        <time>2024-05-11T12:44:03Z</time>
      </trkpt>
      <trkpt lat="43.23898" lon="2.17444">
        <ele>122</ele>
        <time>2024-05-11T12:44:04Z</time>
      </trkpt>
      <trkpt lat="43.23896" lon="2.17471">
        <ele>122</ele>
        <time>2024-05-11T12:44:05Z</time>
      </trkpt>
      <trkpt lat="43.23894" lon="2.17497">
        <ele>122.7</ele>
        <time>2024-05-11T12:44:06Z</time>
      </trkpt>
      <trkpt lat="43.23892" lon="2.17523">
        <ele>122.9</ele>
        <time>2024-05-11T12:44:07Z</time>
      </trkpt>
      <trkpt lat="43.23889" lon="2.1755">
        <ele>123</ele>
        <time>2024-05-11T12:44:08Z</time>
      </trkpt>
      <trkpt lat="43.23887" lon="2.17577">
        <ele>122.9</ele>
        <time>2024-05-11T12:44:09Z</time>
      </trkpt>
      <trkpt lat="43.23886" lon="2.17605">
        <ele>122.9</ele>
        <time>2024-05-11T12:44:10Z</time>
      </trkpt>
      <trkpt lat="43.23884" lon="2.17634">
        <ele>122.1</ele>
        <time>2024-05-11T12:44:11Z</time>
      </trkpt>
      <trkpt lat="43.23882" lon="2.17664">
        <ele>122</ele>
        <time>2024-05-11T12:44:12Z</time>
      </trkpt>
      <trkpt lat="43.2388" lon="2.17695">
        <ele>122</ele>
        <time>2024-05-11T12:44:13Z</time>
      </trkpt>
      <trkpt lat="43.23879" lon="2.17726">
        <ele>122</ele>
        <time>2024-05-11T12:44:14Z</time>
      </trkpt>
      <trkpt lat="43.23878" lon="2.17757">
        <ele>121.5</ele>
        <time>2024-05-11T12:44:15Z</time>
      </trkpt>
      <trkpt lat="43.23877" lon="2.17788">
        <ele>121</ele>
        <time>2024-05-11T12:44:16Z</time>
      </trkpt>
      <trkpt lat="43.23875" lon="2.17818">
        <ele>120.8</ele>
        <time>2024-05-11T12:44:17Z</time>
      </trkpt>
      <trkpt lat="43.23874" lon="2.17847">
        <ele>120.5</ele>
        <time>2024-05-11T12:44:18Z</time>
      </trkpt>
      <trkpt lat="43.23873" lon="2.17876">
        <ele>120.6</ele>
        <time>2024-05-11T12:44:19Z</time>
      </trkpt>
      <trkpt lat="43.23872" lon="2.17905">
        <ele>120.6</ele>
        <time>2024-05-11T12:44:20Z</time>
      </trkpt>
      <trkpt lat="43.23871" lon="2.17933">
        <ele>120.6</ele>
        <time>2024-05-11T12:44:21Z</time>
      </trkpt>
      <trkpt lat="43.2387" lon="2.17962">
        <ele>120.3</ele>
        <time>2024-05-11T12:44:22Z</time>
      </trkpt>
      <trkpt lat="43.23869" lon="2.17991">
        <ele>120</ele>
        <time>2024-05-11T12:44:23Z</time>
      </trkpt>
      <trkpt lat="43.23868" lon="2.18021">
        <ele>120</ele>
        <time>2024-05-11T12:44:24Z</time>
      </trkpt>
      <trkpt lat="43.23867" lon="2.18051">
        <ele>120</ele>
        <time>2024-05-11T12:44:25Z</time>
      </trkpt>
      <trkpt lat="43.23867" lon="2.18081">
        <ele>120</ele>
        <time>2024-05-11T12:44:26Z</time>
      </trkpt>
      <trkpt lat="43.23867" lon="2.18111">
        <ele>120</ele>
        <time>2024-05-11T12:44:27Z</time>
      </trkpt>
      <trkpt lat="43.23866" lon="2.18141">
        <ele>120</ele>
        <time>2024-05-11T12:44:28Z</time>
      </trkpt>
      <trkpt lat="43.23865" lon="2.18172">
        <ele>120</ele>
        <time>2024-05-11T12:44:29Z</time>
      </trkpt>
      <trkpt lat="43.23862" lon="2.18202">
        <ele>119.7</ele>
        <time>2024-05-11T12:44:30Z</time>
      </trkpt>
      <trkpt lat="43.23859" lon="2.18233">
        <ele>119.5</ele>
        <time>2024-05-11T12:44:31Z</time>
      </trkpt>
      <trkpt lat="43.23856" lon="2.18265">
        <ele>120.1</ele>
        <time>2024-05-11T12:44:32Z</time>
      </trkpt>
      <trkpt lat="43.23853" lon="2.18297">
        <ele>119.5</ele>
        <time>2024-05-11T12:44:33Z</time>
      </trkpt>
      <trkpt lat="43.2385" lon="2.18329">
        <ele>119.4</ele>
        <time>2024-05-11T12:44:34Z</time>
      </trkpt>
      <trkpt lat="43.23848" lon="2.18362">
        <ele>119.5</ele>
        <time>2024-05-11T12:44:35Z</time>
      </trkpt>
      <trkpt lat="43.23846" lon="2.18394">
        <ele>119.5</ele>
        <time>2024-05-11T12:44:36Z</time>
      </trkpt>
      <trkpt lat="43.23844" lon="2.18424">
        <ele>119.8</ele>
        <time>2024-05-11T12:44:37Z</time>
      </trkpt>
      <trkpt lat="43.23841" lon="2.18454">
        <ele>120.4</ele>
        <time>2024-05-11T12:44:38Z</time>
      </trkpt>
      <trkpt lat="43.2384" lon="2.18483">
        <ele>120.2</ele>
        <time>2024-05-11T12:44:39Z</time>
      </trkpt>
      <trkpt lat="43.23838" lon="2.18511">
        <ele>119.8</ele>
        <time>2024-05-11T12:44:40Z</time>
      </trkpt>
      <trkpt lat="43.23837" lon="2.1854">
        <ele>120.2</ele>
        <time>2024-05-11T12:44:41Z</time>
      </trkpt>
      <trkpt lat="43.23836" lon="2.18568">
        <ele>120.9</ele>
        <time>2024-05-11T12:44:42Z</time>
      </trkpt>
      <trkpt lat="43.23836" lon="2.18597">
        <ele>121</ele>
        <time>2024-05-11T12:44:43Z</time>
      </trkpt>
      <trkpt lat="43.23835" lon="2.18626">
        <ele>121</ele>
        <time>2024-05-11T12:44:44Z</time>
      </trkpt>
      <trkpt lat="43.23834" lon="2.18655">
        <ele>121</ele>
        <time>2024-05-11T12:44:45Z</time>
      </trkpt>
      <trkpt lat="43.23833" lon="2.18683">
        <ele>121.6</ele>
        <time>2024-05-11T12:44:46Z</time>
      </trkpt>
      <trkpt lat="43.23831" lon="2.18711">
        <ele>121.5</ele>
        <time>2024-05-11T12:44:47Z</time>
      </trkpt>
      <trkpt lat="43.23828" lon="2.18739">
        <ele>121.1</ele>
        <time>2024-05-11T12:44:48Z</time>
      </trkpt>
      <trkpt lat="43.23826" lon="2.18767">
        <ele>121</ele>
        <time>2024-05-11T12:44:49Z</time>
      </trkpt>
      <trkpt lat="43.23823" lon="2.18795">
        <ele>120.6</ele>
        <time>2024-05-11T12:44:50Z</time>
      </trkpt>
      <trkpt lat="43.2382" lon="2.18824">
        <ele>120.5</ele>
        <time>2024-05-11T12:44:51Z</time>
      </trkpt>
      <trkpt lat="43.23818" lon="2.18853">
        <ele>120.6</ele>
        <time>2024-05-11T12:44:52Z</time>
      </trkpt>
      <trkpt lat="43.23816" lon="2.18882">
        <ele>120.2</ele>
        <time>2024-05-11T12:44:53Z</time>
      </trkpt>
      <trkpt lat="43.23814" lon="2.18911">
        <ele>120</ele>
        <time>2024-05-11T12:44:54Z</time>
      </trkpt>
      <trkpt lat="43.23813" lon="2.1894">
        <ele>120</ele>
        <time>2024-05-11T12:44:55Z</time>
      </trkpt>
      <trkpt lat="43.23811" lon="2.1897">
        <ele>120</ele>
        <time>2024-05-11T12:44:56Z</time>
      </trkpt>
      <trkpt lat="43.2381" lon="2.18997">
        <ele>120.7</ele>
        <time>2024-05-11T12:44:57Z</time>
      </trkpt>
      <trkpt lat="43.23808" lon="2.19024">
        <ele>120.9</ele>
        <time>2024-05-11T12:44:58Z</time>
      </trkpt>
      <trkpt lat="43.23807" lon="2.1905">
        <ele>120.9</ele>
        <time>2024-05-11T12:44:59Z</time>
      </trkpt>
      <trkpt lat="43.23806" lon="2.19075">
        <ele>121</ele>
        <time>2024-05-11T12:45:00Z</time>
      </trkpt>
      <trkpt lat="43.23805" lon="2.19098">
        <ele>121</ele>
        <time>2024-05-11T12:45:01Z</time>
      </trkpt>
      <trkpt lat="43.23803" lon="2.19121">
        <ele>120.9</ele>
        <time>2024-05-11T12:45:02Z</time>
      </trkpt>
      <trkpt lat="43.23802" lon="2.19144">
        <ele>120.9</ele>
        <time>2024-05-11T12:45:03Z</time>
      </trkpt>
      <trkpt lat="43.23801" lon="2.19167">
        <ele>120.8</ele>
        <time>2024-05-11T12:45:04Z</time>
      </trkpt>
      <trkpt lat="43.23799" lon="2.19191">
        <ele>120.8</ele>
        <time>2024-05-11T12:45:05Z</time>
      </trkpt>
      <trkpt lat="43.23798" lon="2.19216">
        <ele>120.2</ele>
        <time>2024-05-11T12:45:06Z</time>
      </trkpt>
      <trkpt lat="43.23796" lon="2.19241">
        <ele>120</ele>
        <time>2024-05-11T12:45:07Z</time>
      </trkpt>
      <trkpt lat="43.23795" lon="2.19267">
        <ele>120</ele>
        <time>2024-05-11T12:45:08Z</time>
      </trkpt>
      <trkpt lat="43.23794" lon="2.19294">
        <ele>120</ele>
        <time>2024-05-11T12:45:09Z</time>
      </trkpt>
      <trkpt lat="43.23792" lon="2.19322">
        <ele>119.7</ele>
        <time>2024-05-11T12:45:10Z</time>
      </trkpt>
      <trkpt lat="43.2379" lon="2.19351">
        <ele>119.2</ele>
        <time>2024-05-11T12:45:11Z</time>
      </trkpt>
      <trkpt lat="43.23789" lon="2.1938">
        <ele>119</ele>
        <time>2024-05-11T12:45:12Z</time>
      </trkpt>
      <trkpt lat="43.23787" lon="2.1941">
        <ele>119</ele>
        <time>2024-05-11T12:45:13Z</time>
      </trkpt>
      <trkpt lat="43.23785" lon="2.19441">
        <ele>118.8</ele>
        <time>2024-05-11T12:45:14Z</time>
      </trkpt>
      <trkpt lat="43.23784" lon="2.19472">
        <ele>118.8</ele>
        <time>2024-05-11T12:45:15Z</time>
      </trkpt>
      <trkpt lat="43.23782" lon="2.19503">
        <ele>118.8</ele>
        <time>2024-05-11T12:45:16Z</time>
      </trkpt>
      <trkpt lat="43.2378" lon="2.19534">
        <ele>118.9</ele>
        <time>2024-05-11T12:45:17Z</time>
      </trkpt>
      <trkpt lat="43.2378" lon="2.19565">
        <ele>118.9</ele>
        <time>2024-05-11T12:45:18Z</time>
      </trkpt>
      <trkpt lat="43.23779" lon="2.19596">
        <ele>119</ele>
        <time>2024-05-11T12:45:19Z</time>
      </trkpt>
      <trkpt lat="43.2378" lon="2.19628">
        <ele>118.9</ele>
        <time>2024-05-11T12:45:20Z</time>
      </trkpt>
      <trkpt lat="43.2378" lon="2.19659">
        <ele>118.9</ele>
        <time>2024-05-11T12:45:21Z</time>
      </trkpt>
      <trkpt lat="43.23782" lon="2.1969">
        <ele>118.8</ele>
        <time>2024-05-11T12:45:22Z</time>
      </trkpt>
      <trkpt lat="43.23783" lon="2.19722">
        <ele>118.8</ele>
        <time>2024-05-11T12:45:23Z</time>
      </trkpt>
      <trkpt lat="43.23785" lon="2.19753">
        <ele>118.4</ele>
        <time>2024-05-11T12:45:24Z</time>
      </trkpt>
      <trkpt lat="43.23787" lon="2.19785">
        <ele>117.7</ele>
        <time>2024-05-11T12:45:25Z</time>
      </trkpt>
      <trkpt lat="43.2379" lon="2.19817">
        <ele>117.6</ele>
        <time>2024-05-11T12:45:26Z</time>
      </trkpt>
      <trkpt lat="43.23793" lon="2.19849">
        <ele>117.5</ele>
        <time>2024-05-11T12:45:27Z</time>
      </trkpt>
      <trkpt lat="43.23795" lon="2.19881">
        <ele>117.4</ele>
        <time>2024-05-11T12:45:28Z</time>
      </trkpt>
      <trkpt lat="43.23798" lon="2.19913">
        <ele>117.3</ele>
        <time>2024-05-11T12:45:29Z</time>
      </trkpt>
      <trkpt lat="43.23801" lon="2.19945">
        <ele>118</ele>
        <time>2024-05-11T12:45:30Z</time>
      </trkpt>
      <trkpt lat="43.23803" lon="2.19978">
        <ele>118</ele>
        <time>2024-05-11T12:45:31Z</time>
      </trkpt>
      <trkpt lat="43.23806" lon="2.2001">
        <ele>118</ele>
        <time>2024-05-11T12:45:32Z</time>
      </trkpt>
      <trkpt lat="43.23809" lon="2.20042">
        <ele>117.9</ele>
        <time>2024-05-11T12:45:33Z</time>
      </trkpt>
      <trkpt lat="43.23812" lon="2.20075">
        <ele>118.5</ele>
        <time>2024-05-11T12:45:34Z</time>
      </trkpt>
      <trkpt lat="43.23814" lon="2.20107">
        <ele>118.1</ele>
        <time>2024-05-11T12:45:35Z</time>
      </trkpt>
      <trkpt lat="43.23817" lon="2.20139">
        <ele>118</ele>
        <time>2024-05-11T12:45:36Z</time>
      </trkpt>
      <trkpt lat="43.23819" lon="2.20169">
        <ele>118</ele>
        <time>2024-05-11T12:45:37Z</time>
      </trkpt>
      <trkpt lat="43.23822" lon="2.20199">
        <ele>118.5</ele>
        <time>2024-05-11T12:45:38Z</time>
      </trkpt>
      <trkpt lat="43.23826" lon="2.20227">
        <ele>118.1</ele>
        <time>2024-05-11T12:45:39Z</time>
      </trkpt>
      <trkpt lat="43.23829" lon="2.20255">
        <ele>118.7</ele>
        <time>2024-05-11T12:45:40Z</time>
      </trkpt>
      <trkpt lat="43.23832" lon="2.20283">
        <ele>118</ele>
        <time>2024-05-11T12:45:41Z</time>
      </trkpt>
      <trkpt lat="43.23834" lon="2.2031">
        <ele>118</ele>
        <time>2024-05-11T12:45:42Z</time>
      </trkpt>
      <trkpt lat="43.23835" lon="2.20339">
        <ele>117.9</ele>
        <time>2024-05-11T12:45:43Z</time>
      </trkpt>
      <trkpt lat="43.23835" lon="2.20367">
        <ele>117.9</ele>
        <time>2024-05-11T12:45:44Z</time>
      </trkpt>
      <trkpt lat="43.23836" lon="2.20395">
        <ele>117.9</ele>
        <time>2024-05-11T12:45:45Z</time>
      </trkpt>
      <trkpt lat="43.23837" lon="2.20423">
        <ele>117.9</ele>
        <time>2024-05-11T12:45:46Z</time>
      </trkpt>
      <trkpt lat="43.23837" lon="2.20451">
        <ele>117.9</ele>
        <time>2024-05-11T12:45:47Z</time>
      </trkpt>
      <trkpt lat="43.23838" lon="2.2048">
        <ele>118</ele>
        <time>2024-05-11T12:45:48Z</time>
      </trkpt>
      <trkpt lat="43.2384" lon="2.20509">
        <ele>118</ele>
        <time>2024-05-11T12:45:49Z</time>
      </trkpt>
      <trkpt lat="43.23842" lon="2.20538">
        <ele>118</ele>
        <time>2024-05-11T12:45:50Z</time>
      </trkpt>
      <trkpt lat="43.23844" lon="2.20568">
        <ele>118.3</ele>
        <time>2024-05-11T12:45:51Z</time>
      </trkpt>
      <trkpt lat="43.23847" lon="2.20598">
        <ele>118.5</ele>
        <time>2024-05-11T12:45:52Z</time>
      </trkpt>
      <trkpt lat="43.23849" lon="2.20629">
        <ele>118.8</ele>
        <time>2024-05-11T12:45:53Z</time>
      </trkpt>
      <trkpt lat="43.23852" lon="2.2066">
        <ele>118.7</ele>
        <time>2024-05-11T12:45:54Z</time>
      </trkpt>
      <trkpt lat="43.23855" lon="2.20692">
        <ele>118.2</ele>
        <time>2024-05-11T12:45:55Z</time>
      </trkpt>
      <trkpt lat="43.23856" lon="2.20724">
        <ele>118.2</ele>
        <time>2024-05-11T12:45:56Z</time>
      </trkpt>
      <trkpt lat="43.23858" lon="2.20756">
        <ele>117.9</ele>
        <time>2024-05-11T12:45:57Z</time>
      </trkpt>
      <trkpt lat="43.23859" lon="2.20788">
        <ele>117.1</ele>
        <time>2024-05-11T12:45:58Z</time>
      </trkpt>
      <trkpt lat="43.23861" lon="2.20819">
        <ele>117</ele>
        <time>2024-05-11T12:45:59Z</time>
      </trkpt>
      <trkpt lat="43.23862" lon="2.20849">
        <ele>117</ele>
        <time>2024-05-11T12:46:00Z</time>
      </trkpt>
      <trkpt lat="43.23863" lon="2.20879">
        <ele>117</ele>
        <time>2024-05-11T12:46:01Z</time>
      </trkpt>
      <trkpt lat="43.23864" lon="2.20909">
        <ele>117</ele>
        <time>2024-05-11T12:46:02Z</time>
      </trkpt>
      <trkpt lat="43.23866" lon="2.2094">
        <ele>117</ele>
        <time>2024-05-11T12:46:03Z</time>
      </trkpt>
      <trkpt lat="43.23868" lon="2.20971">
        <ele>117.2</ele>
        <time>2024-05-11T12:46:04Z</time>
      </trkpt>
      <trkpt lat="43.23871" lon="2.21002">
        <ele>117.4</ele>
        <time>2024-05-11T12:46:05Z</time>
      </trkpt>
      <trkpt lat="43.23873" lon="2.21034">
        <ele>117.5</ele>
        <time>2024-05-11T12:46:06Z</time>
      </trkpt>
      <trkpt lat="43.23876" lon="2.21066">
        <ele>117.9</ele>
        <time>2024-05-11T12:46:07Z</time>
      </trkpt>
      <trkpt lat="43.2388" lon="2.21098">
        <ele>117.7</ele>
        <time>2024-05-11T12:46:08Z</time>
      </trkpt>
      <trkpt lat="43.23882" lon="2.21131">
        <ele>117.9</ele>
        <time>2024-05-11T12:46:09Z</time>
      </trkpt>
      <trkpt lat="43.23885" lon="2.21163">
        <ele>118</ele>
        <time>2024-05-11T12:46:10Z</time>
      </trkpt>
      <trkpt lat="43.23888" lon="2.21196">
        <ele>118</ele>
        <time>2024-05-11T12:46:11Z</time>
      </trkpt>
      <trkpt lat="43.23891" lon="2.21229">
        <ele>118.4</ele>
        <time>2024-05-11T12:46:12Z</time>
      </trkpt>
      <trkpt lat="43.23894" lon="2.21262">
        <ele>119.2</ele>
        <time>2024-05-11T12:46:13Z</time>
      </trkpt>
      <trkpt lat="43.23897" lon="2.21294">
        <ele>120.7</ele>
        <time>2024-05-11T12:46:14Z</time>
      </trkpt>
      <trkpt lat="43.23899" lon="2.21325">
        <ele>119.8</ele>
        <time>2024-05-11T12:46:15Z</time>
      </trkpt>
      <trkpt lat="43.23901" lon="2.21355">
        <ele>119</ele>
        <time>2024-05-11T12:46:16Z</time>
      </trkpt>
      <trkpt lat="43.23903" lon="2.21379">
        <ele>119</ele>
        <time>2024-05-11T12:46:17Z</time>
      </trkpt>
      <trkpt lat="43.23905" lon="2.21402">
        <ele>119</ele>
        <time>2024-05-11T12:46:18Z</time>
      </trkpt>
      <trkpt lat="43.23907" lon="2.21424">
        <ele>118.8</ele>
        <time>2024-05-11T12:46:19Z</time>
      </trkpt>
      <trkpt lat="43.23909" lon="2.21445">
        <ele>118.3</ele>
        <time>2024-05-11T12:46:20Z</time>
      </trkpt>
      <trkpt lat="43.2391" lon="2.21466">
        <ele>118.1</ele>
        <time>2024-05-11T12:46:21Z</time>
      </trkpt>
      <trkpt lat="43.23911" lon="2.21487">
        <ele>118</ele>
        <time>2024-05-11T12:46:22Z</time>
      </trkpt>
      <trkpt lat="43.23912" lon="2.21508">
        <ele>118</ele>
        <time>2024-05-11T12:46:23Z</time>
      </trkpt>
      <trkpt lat="43.23913" lon="2.2153">
        <ele>118</ele>
        <time>2024-05-11T12:46:24Z</time>
      </trkpt>
      <trkpt lat="43.23914" lon="2.21554">
        <ele>118</ele>
        <time>2024-05-11T12:46:25Z</time>
      </trkpt>
      <trkpt lat="43.23915" lon="2.21578">
        <ele>118</ele>
        <time>2024-05-11T12:46:26Z</time>
      </trkpt>
      <trkpt lat="43.23916" lon="2.21603">
        <ele>118</ele>
        <time>2024-05-11T12:46:27Z</time>
      </trkpt>
      <trkpt lat="43.23916" lon="2.21629">
        <ele>117.4</ele>
        <time>2024-05-11T12:46:28Z</time>
      </trkpt>
      <trkpt lat="43.23917" lon="2.21656">
        <ele>117</ele>
        <time>2024-05-11T12:46:29Z</time>
      </trkpt>
      <trkpt lat="43.23918" lon="2.21685">
        <ele>117</ele>
        <time>2024-05-11T12:46:30Z</time>
      </trkpt>
      <trkpt lat="43.23919" lon="2.21714">
        <ele>117.1</ele>
        <time>2024-05-11T12:46:31Z</time>
      </trkpt>
      <trkpt lat="43.2392" lon="2.21745">
        <ele>117.1</ele>
        <time>2024-05-11T12:46:32Z</time>
      </trkpt>
      <trkpt lat="43.23921" lon="2.21777">
        <ele>117.2</ele>
        <time>2024-05-11T12:46:33Z</time>
      </trkpt>
      <trkpt lat="43.23922" lon="2.21809">
        <ele>116.3</ele>
        <time>2024-05-11T12:46:34Z</time>
      </trkpt>
      <trkpt lat="43.23924" lon="2.2184">
        <ele>117</ele>
        <time>2024-05-11T12:46:35Z</time>
      </trkpt>
      <trkpt lat="43.23928" lon="2.21871">
        <ele>116.9</ele>
        <time>2024-05-11T12:46:36Z</time>
      </trkpt>
      <trkpt lat="43.23931" lon="2.21903">
        <ele>116.5</ele>
        <time>2024-05-11T12:46:37Z</time>
      </trkpt>
      <trkpt lat="43.23935" lon="2.21934">
        <ele>116.3</ele>
        <time>2024-05-11T12:46:38Z</time>
      </trkpt>
      <trkpt lat="43.23938" lon="2.21966">
        <ele>116.1</ele>
        <time>2024-05-11T12:46:39Z</time>
      </trkpt>
      <trkpt lat="43.23942" lon="2.21998">
        <ele>116</ele>
        <time>2024-05-11T12:46:40Z</time>
      </trkpt>
      <trkpt lat="43.23946" lon="2.2203">
        <ele>116.1</ele>
        <time>2024-05-11T12:46:41Z</time>
      </trkpt>
      <trkpt lat="43.2395" lon="2.22062">
        <ele>116.4</ele>
        <time>2024-05-11T12:46:42Z</time>
      </trkpt>
      <trkpt lat="43.23953" lon="2.22094">
        <ele>116.5</ele>
        <time>2024-05-11T12:46:43Z</time>
      </trkpt>
      <trkpt lat="43.23957" lon="2.22126">
        <ele>116.2</ele>
        <time>2024-05-11T12:46:44Z</time>
      </trkpt>
      <trkpt lat="43.23961" lon="2.22157">
        <ele>116</ele>
        <time>2024-05-11T12:46:45Z</time>
      </trkpt>
      <trkpt lat="43.23965" lon="2.2219">
        <ele>116</ele>
        <time>2024-05-11T12:46:46Z</time>
      </trkpt>
      <trkpt lat="43.23969" lon="2.22223">
        <ele>115.1</ele>
        <time>2024-05-11T12:46:47Z</time>
      </trkpt>
      <trkpt lat="43.23973" lon="2.22255">
        <ele>116</ele>
        <time>2024-05-11T12:46:48Z</time>
      </trkpt>
      <trkpt lat="43.23977" lon="2.22288">
        <ele>116.1</ele>
        <time>2024-05-11T12:46:49Z</time>
      </trkpt>
      <trkpt lat="43.2398" lon="2.22321">
        <ele>116.3</ele>
        <time>2024-05-11T12:46:50Z</time>
      </trkpt>
      <trkpt lat="43.23984" lon="2.22352">
        <ele>116.4</ele>
        <time>2024-05-11T12:46:51Z</time>
      </trkpt>
      <trkpt lat="43.23987" lon="2.22382">
        <ele>116.5</ele>
        <time>2024-05-11T12:46:52Z</time>
      </trkpt>
      <trkpt lat="43.2399" lon="2.22411">
        <ele>116.6</ele>
        <time>2024-05-11T12:46:53Z</time>
      </trkpt>
      <trkpt lat="43.23993" lon="2.2244">
        <ele>116.7</ele>
        <time>2024-05-11T12:46:54Z</time>
      </trkpt>
      <trkpt lat="43.23996" lon="2.2247">
        <ele>116.1</ele>
        <time>2024-05-11T12:46:55Z</time>
      </trkpt>
      <trkpt lat="43.23998" lon="2.22499">
        <ele>116.1</ele>
        <time>2024-05-11T12:46:56Z</time>
      </trkpt>
      <trkpt lat="43.24" lon="2.22529">
        <ele>116</ele>
        <time>2024-05-11T12:46:57Z</time>
      </trkpt>
      <trkpt lat="43.24" lon="2.2256">
        <ele>116</ele>
        <time>2024-05-11T12:46:58Z</time>
      </trkpt>
      <trkpt lat="43.24" lon="2.22591">
        <ele>116</ele>
        <time>2024-05-11T12:46:59Z</time>
      </trkpt>
      <trkpt lat="43.24" lon="2.22623">
        <ele>116.4</ele>
        <time>2024-05-11T12:47:00Z</time>
      </trkpt>
      <trkpt lat="43.24" lon="2.22654">
        <ele>117</ele>
        <time>2024-05-11T12:47:01Z</time>
      </trkpt>
      <trkpt lat="43.24" lon="2.22685">
        <ele>117</ele>
        <time>2024-05-11T12:47:02Z</time>
      </trkpt>
      <trkpt lat="43.24" lon="2.22715">
        <ele>117.7</ele>
        <time>2024-05-11T12:47:03Z</time>
      </trkpt>
      <trkpt lat="43.24" lon="2.22745">
        <ele>118</ele>
        <time>2024-05-11T12:47:04Z</time>
      </trkpt>
      <trkpt lat="43.24001" lon="2.22774">
        <ele>118.9</ele>
        <time>2024-05-11T12:47:05Z</time>
      </trkpt>
      <trkpt lat="43.24002" lon="2.22802">
        <ele>119</ele>
        <time>2024-05-11T12:47:06Z</time>
      </trkpt>
      <trkpt lat="43.24004" lon="2.22829">
        <ele>119.8</ele>
        <time>2024-05-11T12:47:07Z</time>
      </trkpt>
      <trkpt lat="43.24005" lon="2.22855">
        <ele>120.8</ele>
        <time>2024-05-11T12:47:08Z</time>
      </trkpt>
      <trkpt lat="43.24007" lon="2.2288">
        <ele>121.5</ele>
        <time>2024-05-11T12:47:09Z</time>
      </trkpt>
      <trkpt lat="43.24009" lon="2.22904">
        <ele>121.9</ele>
        <time>2024-05-11T12:47:10Z</time>
      </trkpt>
      <trkpt lat="43.24011" lon="2.22928">
        <ele>122</ele>
        <time>2024-05-11T12:47:11Z</time>
      </trkpt>
      <trkpt lat="43.24013" lon="2.22953">
        <ele>122</ele>
        <time>2024-05-11T12:47:12Z</time>
      </trkpt>
      <trkpt lat="43.24016" lon="2.22978">
        <ele>122</ele>
        <time>2024-05-11T12:47:13Z</time>
      </trkpt>
      <trkpt lat="43.24018" lon="2.23003">
        <ele>122</ele>
        <time>2024-05-11T12:47:14Z</time>
      </trkpt>
      <trkpt lat="43.2402" lon="2.23027">
        <ele>122.3</ele>
        <time>2024-05-11T12:47:15Z</time>
      </trkpt>
      <trkpt lat="43.24022" lon="2.23051">
        <ele>122.2</ele>
        <time>2024-05-11T12:47:16Z</time>
      </trkpt>
      <trkpt lat="43.24024" lon="2.23073">
        <ele>122.1</ele>
        <time>2024-05-11T12:47:17Z</time>
      </trkpt>
      <trkpt lat="43.24027" lon="2.23095">
        <ele>122</ele>
        <time>2024-05-11T12:47:18Z</time>
      </trkpt>
      <trkpt lat="43.2403" lon="2.23116">
        <ele>121.9</ele>
        <time>2024-05-11T12:47:19Z</time>
      </trkpt>
      <trkpt lat="43.24034" lon="2.23137">
        <ele>121.8</ele>
        <time>2024-05-11T12:47:20Z</time>
      </trkpt>
      <trkpt lat="43.24038" lon="2.23157">
        <ele>121.6</ele>
        <time>2024-05-11T12:47:21Z</time>
      </trkpt>
      <trkpt lat="43.24042" lon="2.23178">
        <ele>121.1</ele>
        <time>2024-05-11T12:47:22Z</time>
      </trkpt>
      <trkpt lat="43.24046" lon="2.232">
        <ele>120.1</ele>
        <time>2024-05-11T12:47:23Z</time>
      </trkpt>
      <trkpt lat="43.24051" lon="2.23223">
        <ele>119.2</ele>
        <time>2024-05-11T12:47:24Z</time>
      </trkpt>
      <trkpt lat="43.24054" lon="2.23247">
        <ele>118.9</ele>
        <time>2024-05-11T12:47:25Z</time>
      </trkpt>
      <trkpt lat="43.24057" lon="2.23271">
        <ele>118.8</ele>
        <time>2024-05-11T12:47:26Z</time>
      </trkpt>
      <trkpt lat="43.24058" lon="2.23296">
        <ele>118.1</ele>
        <time>2024-05-11T12:47:27Z</time>
      </trkpt>
      <trkpt lat="43.24058" lon="2.2332">
        <ele>117.9</ele>
        <time>2024-05-11T12:47:28Z</time>
      </trkpt>
      <trkpt lat="43.24056" lon="2.23344">
        <ele>116.8</ele>
        <time>2024-05-11T12:47:29Z</time>
      </trkpt>
      <trkpt lat="43.24054" lon="2.23368">
        <ele>115.4</ele>
        <time>2024-05-11T12:47:30Z</time>
      </trkpt>
      <trkpt lat="43.2405" lon="2.23392">
        <ele>116</ele>
        <time>2024-05-11T12:47:31Z</time>
      </trkpt>
      <trkpt lat="43.24045" lon="2.23416">
        <ele>114.3</ele>
        <time>2024-05-11T12:47:32Z</time>
      </trkpt>
      <trkpt lat="43.24039" lon="2.23439">
        <ele>113.3</ele>
        <time>2024-05-11T12:47:33Z</time>
      </trkpt>
      <trkpt lat="43.24031" lon="2.2346">
        <ele>114.2</ele>
        <time>2024-05-11T12:47:34Z</time>
      </trkpt>
      <trkpt lat="43.24021" lon="2.2348">
        <ele>114.5</ele>
        <time>2024-05-11T12:47:35Z</time>
      </trkpt>
      <trkpt lat="43.24012" lon="2.23499">
        <ele>114</ele>
        <time>2024-05-11T12:47:36Z</time>
      </trkpt>
      <trkpt lat="43.24003" lon="2.23518">
        <ele>114.4</ele>
        <time>2024-05-11T12:47:37Z</time>
      </trkpt>
      <trkpt lat="43.23995" lon="2.23536">
        <ele>115.2</ele>
        <time>2024-05-11T12:47:38Z</time>
      </trkpt>
      <trkpt lat="43.23986" lon="2.23553">
        <ele>115.5</ele>
        <time>2024-05-11T12:47:39Z</time>
      </trkpt>
      <trkpt lat="43.23978" lon="2.23569">
        <ele>115.5</ele>
        <time>2024-05-11T12:47:40Z</time>
      </trkpt>
      <trkpt lat="43.23971" lon="2.23585">
        <ele>115.1</ele>
        <time>2024-05-11T12:47:41Z</time>
      </trkpt>
      <trkpt lat="43.23965" lon="2.23602">
        <ele>115.8</ele>
        <time>2024-05-11T12:47:42Z</time>
      </trkpt>
      <trkpt lat="43.23959" lon="2.23621">
        <ele>116</ele>
        <time>2024-05-11T12:47:43Z</time>
      </trkpt>
      <trkpt lat="43.23954" lon="2.2364">
        <ele>116</ele>
        <time>2024-05-11T12:47:44Z</time>
      </trkpt>
      <trkpt lat="43.2395" lon="2.23661">
        <ele>115.8</ele>
        <time>2024-05-11T12:47:45Z</time>
      </trkpt>
      <trkpt lat="43.23946" lon="2.23683">
        <ele>115.4</ele>
        <time>2024-05-11T12:47:46Z</time>
      </trkpt>
      <trkpt lat="43.23941" lon="2.23707">
        <ele>115</ele>
        <time>2024-05-11T12:47:47Z</time>
      </trkpt>
      <trkpt lat="43.23936" lon="2.23731">
        <ele>115</ele>
        <time>2024-05-11T12:47:48Z</time>
      </trkpt>
      <trkpt lat="43.23932" lon="2.23756">
        <ele>114.9</ele>
        <time>2024-05-11T12:47:49Z</time>
      </trkpt>
      <trkpt lat="43.23927" lon="2.23781">
        <ele>114.6</ele>
        <time>2024-05-11T12:47:50Z</time>
      </trkpt>
      <trkpt lat="43.23921" lon="2.23807">
        <ele>114.8</ele>
        <time>2024-05-11T12:47:51Z</time>
      </trkpt>
      <trkpt lat="43.23914" lon="2.23832">
        <ele>114.9</ele>
        <time>2024-05-11T12:47:52Z</time>
      </trkpt>
      <trkpt lat="43.23907" lon="2.23859">
        <ele>114.7</ele>
        <time>2024-05-11T12:47:53Z</time>
      </trkpt>
      <trkpt lat="43.23899" lon="2.23884">
        <ele>114.4</ele>
        <time>2024-05-11T12:47:54Z</time>
      </trkpt>
      <trkpt lat="43.23891" lon="2.2391">
        <ele>114</ele>
        <time>2024-05-11T12:47:55Z</time>
      </trkpt>
      <trkpt lat="43.23882" lon="2.23935">
        <ele>114</ele>
        <time>2024-05-11T12:47:56Z</time>
      </trkpt>
      <trkpt lat="43.23873" lon="2.23962">
        <ele>113.4</ele>
        <time>2024-05-11T12:47:57Z</time>
      </trkpt>
      <trkpt lat="43.23865" lon="2.23988">
        <ele>113</ele>
        <time>2024-05-11T12:47:58Z</time>
      </trkpt>
      <trkpt lat="43.23859" lon="2.24015">
        <ele>113.1</ele>
        <time>2024-05-11T12:47:59Z</time>
      </trkpt>
      <trkpt lat="43.23853" lon="2.24043">
        <ele>113.1</ele>
        <time>2024-05-11T12:48:00Z</time>
      </trkpt>
      <trkpt lat="43.23847" lon="2.2407">
        <ele>113</ele>
        <time>2024-05-11T12:48:01Z</time>
      </trkpt>
      <trkpt lat="43.23841" lon="2.24099">
        <ele>113</ele>
        <time>2024-05-11T12:48:02Z</time>
      </trkpt>
      <trkpt lat="43.23836" lon="2.24128">
        <ele>113</ele>
        <time>2024-05-11T12:48:03Z</time>
      </trkpt>
      <trkpt lat="43.2383" lon="2.24157">
        <ele>113.1</ele>
        <time>2024-05-11T12:48:04Z</time>
      </trkpt>
      <trkpt lat="43.23825" lon="2.24187">
        <ele>113.3</ele>
        <time>2024-05-11T12:48:05Z</time>
      </trkpt>
      <trkpt lat="43.23819" lon="2.24217">
        <ele>113.5</ele>
        <time>2024-05-11T12:48:06Z</time>
      </trkpt>
      <trkpt lat="43.23814" lon="2.24246">
        <ele>113.7</ele>
        <time>2024-05-11T12:48:07Z</time>
      </trkpt>
      <trkpt lat="43.2381" lon="2.24276">
        <ele>113.8</ele>
        <time>2024-05-11T12:48:08Z</time>
      </trkpt>
      <trkpt lat="43.23808" lon="2.24305">
        <ele>113.9</ele>
        <time>2024-05-11T12:48:09Z</time>
      </trkpt>
      <trkpt lat="43.23807" lon="2.24332">
        <ele>114</ele>
        <time>2024-05-11T12:48:10Z</time>
      </trkpt>
      <trkpt lat="43.23806" lon="2.24356">
        <ele>114</ele>
        <time>2024-05-11T12:48:11Z</time>
      </trkpt>
      <trkpt lat="43.23806" lon="2.24378">
        <ele>114.6</ele>
        <time>2024-05-11T12:48:12Z</time>
      </trkpt>
      <trkpt lat="43.23805" lon="2.244">
        <ele>114.6</ele>
        <time>2024-05-11T12:48:13Z</time>
      </trkpt>
      <trkpt lat="43.23804" lon="2.24421">
        <ele>114</ele>
        <time>2024-05-11T12:48:14Z</time>
      </trkpt>
      <trkpt lat="43.23804" lon="2.24442">
        <ele>114</ele>
        <time>2024-05-11T12:48:15Z</time>
      </trkpt>
      <trkpt lat="43.23802" lon="2.24464">
        <ele>114</ele>
        <time>2024-05-11T12:48:16Z</time>
      </trkpt>
      <trkpt lat="43.238" lon="2.24486">
        <ele>114</ele>
        <time>2024-05-11T12:48:17Z</time>
      </trkpt>
      <trkpt lat="43.23798" lon="2.2451">
        <ele>114</ele>
        <time>2024-05-11T12:48:18Z</time>
      </trkpt>
      <trkpt lat="43.23795" lon="2.24534">
        <ele>114</ele>
        <time>2024-05-11T12:48:19Z</time>
      </trkpt>
      <trkpt lat="43.23792" lon="2.24559">
        <ele>114</ele>
        <time>2024-05-11T12:48:20Z</time>
      </trkpt>
      <trkpt lat="43.23789" lon="2.24584">
        <ele>114</ele>
        <time>2024-05-11T12:48:21Z</time>
      </trkpt>
      <trkpt lat="43.23786" lon="2.24609">
        <ele>114.9</ele>
        <time>2024-05-11T12:48:22Z</time>
      </trkpt>
      <trkpt lat="43.23783" lon="2.24636">
        <ele>115</ele>
        <time>2024-05-11T12:48:23Z</time>
      </trkpt>
      <trkpt lat="43.2378" lon="2.24663">
        <ele>114.2</ele>
        <time>2024-05-11T12:48:24Z</time>
      </trkpt>
      <trkpt lat="43.23777" lon="2.2469">
        <ele>114.9</ele>
        <time>2024-05-11T12:48:25Z</time>
      </trkpt>
      <trkpt lat="43.23773" lon="2.24717">
        <ele>115.2</ele>
        <time>2024-05-11T12:48:26Z</time>
      </trkpt>
      <trkpt lat="43.23768" lon="2.24744">
        <ele>115.9</ele>
        <time>2024-05-11T12:48:27Z</time>
      </trkpt>
      <trkpt lat="43.23763" lon="2.24772">
        <ele>116</ele>
        <time>2024-05-11T12:48:28Z</time>
      </trkpt>
      <trkpt lat="43.23758" lon="2.24798">
        <ele>116</ele>
        <time>2024-05-11T12:48:29Z</time>
      </trkpt>
      <trkpt lat="43.23753" lon="2.24824">
        <ele>116</ele>
        <time>2024-05-11T12:48:30Z</time>
      </trkpt>
      <trkpt lat="43.23748" lon="2.24849">
        <ele>116.1</ele>
        <time>2024-05-11T12:48:31Z</time>
      </trkpt>
      <trkpt lat="43.23742" lon="2.24874">
        <ele>116.6</ele>
        <time>2024-05-11T12:48:32Z</time>
      </trkpt>
      <trkpt lat="43.23736" lon="2.24898">
        <ele>117</ele>
        <time>2024-05-11T12:48:33Z</time>
      </trkpt>
      <trkpt lat="43.23729" lon="2.24922">
        <ele>117</ele>
        <time>2024-05-11T12:48:34Z</time>
      </trkpt>
      <trkpt lat="43.23722" lon="2.24947">
        <ele>117</ele>
        <time>2024-05-11T12:48:35Z</time>
      </trkpt>
      <trkpt lat="43.23715" lon="2.24972">
        <ele>117.3</ele>
        <time>2024-05-11T12:48:36Z</time>
      </trkpt>
      <trkpt lat="43.23708" lon="2.24998">
        <ele>118</ele>
        <time>2024-05-11T12:48:37Z</time>
      </trkpt>
      <trkpt lat="43.237" lon="2.25024">
        <ele>118</ele>
        <time>2024-05-11T12:48:38Z</time>
      </trkpt>
      <trkpt lat="43.23693" lon="2.2505">
        <ele>118.1</ele>
        <time>2024-05-11T12:48:39Z</time>
      </trkpt>
      <trkpt lat="43.23686" lon="2.25076">
        <ele>118.3</ele>
        <time>2024-05-11T12:48:40Z</time>
      </trkpt>
      <trkpt lat="43.23679" lon="2.25102">
        <ele>118.5</ele>
        <time>2024-05-11T12:48:41Z</time>
      </trkpt>
      <trkpt lat="43.23672" lon="2.25127">
        <ele>118.7</ele>
        <time>2024-05-11T12:48:42Z</time>
      </trkpt>
      <trkpt lat="43.23667" lon="2.25151">
        <ele>119</ele>
        <time>2024-05-11T12:48:43Z</time>
      </trkpt>
      <trkpt lat="43.23661" lon="2.25174">
        <ele>119.2</ele>
        <time>2024-05-11T12:48:44Z</time>
      </trkpt>
      <trkpt lat="43.23656" lon="2.25196">
        <ele>119.7</ele>
        <time>2024-05-11T12:48:45Z</time>
      </trkpt>
      <trkpt lat="43.23651" lon="2.25218">
        <ele>120.3</ele>
        <time>2024-05-11T12:48:46Z</time>
      </trkpt>
      <trkpt lat="43.23647" lon="2.2524">
        <ele>120.9</ele>
        <time>2024-05-11T12:48:47Z</time>
      </trkpt>
      <trkpt lat="43.23642" lon="2.25262">
        <ele>120.6</ele>
        <time>2024-05-11T12:48:48Z</time>
      </trkpt>
      <trkpt lat="43.23637" lon="2.25284">
        <ele>120.4</ele>
        <time>2024-05-11T12:48:49Z</time>
      </trkpt>
      <trkpt lat="43.23633" lon="2.25307">
        <ele>121.8</ele>
        <time>2024-05-11T12:48:50Z</time>
      </trkpt>
      <trkpt lat="43.23629" lon="2.2533">
        <ele>122.5</ele>
        <time>2024-05-11T12:48:51Z</time>
      </trkpt>
      <trkpt lat="43.23626" lon="2.25354">
        <ele>121.8</ele>
        <time>2024-05-11T12:48:52Z</time>
      </trkpt>
      <trkpt lat="43.23622" lon="2.25379">
        <ele>121.4</ele>
        <time>2024-05-11T12:48:53Z</time>
      </trkpt>
      <trkpt lat="43.23618" lon="2.25405">
        <ele>121.2</ele>
        <time>2024-05-11T12:48:54Z</time>
      </trkpt>
      <trkpt lat="43.23615" lon="2.2543">
        <ele>121.6</ele>
        <time>2024-05-11T12:48:55Z</time>
      </trkpt>
      <trkpt lat="43.23611" lon="2.25456">
        <ele>122</ele>
        <time>2024-05-11T12:48:56Z</time>
      </trkpt>
      <trkpt lat="43.23607" lon="2.25482">
        <ele>122</ele>
        <time>2024-05-11T12:48:57Z</time>
      </trkpt>
      <trkpt lat="43.23603" lon="2.25509">
        <ele>122.3</ele>
        <time>2024-05-11T12:48:58Z</time>
      </trkpt>
      <trkpt lat="43.23599" lon="2.25536">
        <ele>123.2</ele>
        <time>2024-05-11T12:48:59Z</time>
      </trkpt>
      <trkpt lat="43.23595" lon="2.25563">
        <ele>123.6</ele>
        <time>2024-05-11T12:49:00Z</time>
      </trkpt>
      <trkpt lat="43.23592" lon="2.25591">
        <ele>124</ele>
        <time>2024-05-11T12:49:01Z</time>
      </trkpt>
      <trkpt lat="43.23588" lon="2.25619">
        <ele>124</ele>
        <time>2024-05-11T12:49:02Z</time>
      </trkpt>
      <trkpt lat="43.23584" lon="2.25647">
        <ele>124</ele>
        <time>2024-05-11T12:49:03Z</time>
      </trkpt>
      <trkpt lat="43.23579" lon="2.25676">
        <ele>124.9</ele>
        <time>2024-05-11T12:49:04Z</time>
      </trkpt>
      <trkpt lat="43.23575" lon="2.25705">
        <ele>126.3</ele>
        <time>2024-05-11T12:49:05Z</time>
      </trkpt>
      <trkpt lat="43.23571" lon="2.25733">
        <ele>126.7</ele>
        <time>2024-05-11T12:49:06Z</time>
      </trkpt>
      <trkpt lat="43.23567" lon="2.2576">
        <ele>127.2</ele>
        <time>2024-05-11T12:49:07Z</time>
      </trkpt>
      <trkpt lat="43.23563" lon="2.25786">
        <ele>127.8</ele>
        <time>2024-05-11T12:49:08Z</time>
      </trkpt>
      <trkpt lat="43.23559" lon="2.25811">
        <ele>128</ele>
        <time>2024-05-11T12:49:09Z</time>
      </trkpt>
      <trkpt lat="43.23556" lon="2.25835">
        <ele>128.1</ele>
        <time>2024-05-11T12:49:10Z</time>
      </trkpt>
      <trkpt lat="43.23552" lon="2.2586">
        <ele>129.1</ele>
        <time>2024-05-11T12:49:11Z</time>
      </trkpt>
      <trkpt lat="43.23549" lon="2.25884">
        <ele>130.1</ele>
        <time>2024-05-11T12:49:12Z</time>
      </trkpt>
      <trkpt lat="43.23545" lon="2.2591">
        <ele>130.7</ele>
        <time>2024-05-11T12:49:13Z</time>
      </trkpt>
      <trkpt lat="43.23541" lon="2.25935">
        <ele>131.4</ele>
        <time>2024-05-11T12:49:14Z</time>
      </trkpt>
      <trkpt lat="43.23538" lon="2.25959">
        <ele>132</ele>
        <time>2024-05-11T12:49:15Z</time>
      </trkpt>
      <trkpt lat="43.23534" lon="2.25981">
        <ele>132.6</ele>
        <time>2024-05-11T12:49:16Z</time>
      </trkpt>
      <trkpt lat="43.23531" lon="2.26003">
        <ele>132.9</ele>
        <time>2024-05-11T12:49:17Z</time>
      </trkpt>
      <trkpt lat="43.23527" lon="2.26024">
        <ele>133.1</ele>
        <time>2024-05-11T12:49:18Z</time>
      </trkpt>
      <trkpt lat="43.23524" lon="2.26045">
        <ele>134.3</ele>
        <time>2024-05-11T12:49:19Z</time>
      </trkpt>
      <trkpt lat="43.23521" lon="2.26065">
        <ele>135.6</ele>
        <time>2024-05-11T12:49:20Z</time>
      </trkpt>
      <trkpt lat="43.23517" lon="2.26086">
        <ele>136.9</ele>
        <time>2024-05-11T12:49:21Z</time>
      </trkpt>
      <trkpt lat="43.23513" lon="2.26105">
        <ele>137.2</ele>
        <time>2024-05-11T12:49:22Z</time>
      </trkpt>
      <trkpt lat="43.23509" lon="2.26122">
        <ele>137.5</ele>
        <time>2024-05-11T12:49:23Z</time>
      </trkpt>
      <trkpt lat="43.23505" lon="2.26138">
        <ele>137.8</ele>
        <time>2024-05-11T12:49:24Z</time>
      </trkpt>
      <trkpt lat="43.23501" lon="2.26153">
        <ele>139</ele>
        <time>2024-05-11T12:49:25Z</time>
      </trkpt>
      <trkpt lat="43.23497" lon="2.26168">
        <ele>140.3</ele>
        <time>2024-05-11T12:49:26Z</time>
      </trkpt>
      <trkpt lat="43.23492" lon="2.26183">
        <ele>141.8</ele>
        <time>2024-05-11T12:49:27Z</time>
      </trkpt>
      <trkpt lat="43.23487" lon="2.26198">
        <ele>142.7</ele>
        <time>2024-05-11T12:49:28Z</time>
      </trkpt>
      <trkpt lat="43.23481" lon="2.26215">
        <ele>143.3</ele>
        <time>2024-05-11T12:49:29Z</time>
      </trkpt>
      <trkpt lat="43.23475" lon="2.26231">
        <ele>143.5</ele>
        <time>2024-05-11T12:49:30Z</time>
      </trkpt>
      <trkpt lat="43.23469" lon="2.26249">
        <ele>143.9</ele>
        <time>2024-05-11T12:49:31Z</time>
      </trkpt>
      <trkpt lat="43.23462" lon="2.26268">
        <ele>143.9</ele>
        <time>2024-05-11T12:49:32Z</time>
      </trkpt>
      <trkpt lat="43.23455" lon="2.26288">
        <ele>144</ele>
        <time>2024-05-11T12:49:33Z</time>
      </trkpt>
      <trkpt lat="43.23449" lon="2.26308">
        <ele>144</ele>
        <time>2024-05-11T12:49:34Z</time>
      </trkpt>
      <trkpt lat="43.23442" lon="2.2633">
        <ele>143.9</ele>
        <time>2024-05-11T12:49:35Z</time>
      </trkpt>
      <trkpt lat="43.23434" lon="2.26351">
        <ele>143.6</ele>
        <time>2024-05-11T12:49:36Z</time>
      </trkpt>
      <trkpt lat="43.23427" lon="2.26374">
        <ele>143.7</ele>
        <time>2024-05-11T12:49:37Z</time>
      </trkpt>
      <trkpt lat="43.2342" lon="2.26397">
        <ele>144</ele>
        <time>2024-05-11T12:49:38Z</time>
      </trkpt>
      <trkpt lat="43.23412" lon="2.2642">
        <ele>143.8</ele>
        <time>2024-05-11T12:49:39Z</time>
      </trkpt>
      <trkpt lat="43.23405" lon="2.26443">
        <ele>143.2</ele>
        <time>2024-05-11T12:49:40Z</time>
      </trkpt>
      <trkpt lat="43.23399" lon="2.26466">
        <ele>142.9</ele>
        <time>2024-05-11T12:49:41Z</time>
      </trkpt>
      <trkpt lat="43.23392" lon="2.2649">
        <ele>143</ele>
        <time>2024-05-11T12:49:42Z</time>
      </trkpt>
      <trkpt lat="43.23385" lon="2.26514">
        <ele>142.9</ele>
        <time>2024-05-11T12:49:43Z</time>
      </trkpt>
      <trkpt lat="43.23377" lon="2.26539">
        <ele>142.6</ele>
        <time>2024-05-11T12:49:44Z</time>
      </trkpt>
      <trkpt lat="43.23369" lon="2.26565">
        <ele>142.5</ele>
        <time>2024-05-11T12:49:45Z</time>
      </trkpt>
      <trkpt lat="43.23361" lon="2.26591">
        <ele>143</ele>
        <time>2024-05-11T12:49:46Z</time>
      </trkpt>
      <trkpt lat="43.23354" lon="2.26617">
        <ele>142.6</ele>
        <time>2024-05-11T12:49:47Z</time>
      </trkpt>
      <trkpt lat="43.23346" lon="2.26643">
        <ele>142</ele>
        <time>2024-05-11T12:49:48Z</time>
      </trkpt>
      <trkpt lat="43.23338" lon="2.26669">
        <ele>142.1</ele>
        <time>2024-05-11T12:49:49Z</time>
      </trkpt>
      <trkpt lat="43.23331" lon="2.26694">
        <ele>142.8</ele>
        <time>2024-05-11T12:49:50Z</time>
      </trkpt>
      <trkpt lat="43.23323" lon="2.2672">
        <ele>141.7</ele>
        <time>2024-05-11T12:49:51Z</time>
      </trkpt>
      <trkpt lat="43.23315" lon="2.26746">
        <ele>141.9</ele>
        <time>2024-05-11T12:49:52Z</time>
      </trkpt>
      <trkpt lat="43.23307" lon="2.26773">
        <ele>142</ele>
        <time>2024-05-11T12:49:53Z</time>
      </trkpt>
      <trkpt lat="43.233" lon="2.26799">
        <ele>141.8</ele>
        <time>2024-05-11T12:49:54Z</time>
      </trkpt>
      <trkpt lat="43.23292" lon="2.26825">
        <ele>141.2</ele>
        <time>2024-05-11T12:49:55Z</time>
      </trkpt>
      <trkpt lat="43.23285" lon="2.26849">
        <ele>141</ele>
        <time>2024-05-11T12:49:56Z</time>
      </trkpt>
      <trkpt lat="43.23278" lon="2.26872">
        <ele>141</ele>
        <time>2024-05-11T12:49:57Z</time>
      </trkpt>
      <trkpt lat="43.23271" lon="2.26896">
        <ele>141</ele>
        <time>2024-05-11T12:49:58Z</time>
      </trkpt>
      <trkpt lat="43.23264" lon="2.26921">
        <ele>141</ele>
        <time>2024-05-11T12:49:59Z</time>
      </trkpt>
      <trkpt lat="43.23257" lon="2.26946">
        <ele>141</ele>
        <time>2024-05-11T12:50:00Z</time>
      </trkpt>
      <trkpt lat="43.2325" lon="2.26971">
        <ele>141</ele>
        <time>2024-05-11T12:50:01Z</time>
      </trkpt>
      <trkpt lat="43.23242" lon="2.26996">
        <ele>140.7</ele>
        <time>2024-05-11T12:50:02Z</time>
      </trkpt>
      <trkpt lat="43.23235" lon="2.27022">
        <ele>140.1</ele>
        <time>2024-05-11T12:50:03Z</time>
      </trkpt>
      <trkpt lat="43.23228" lon="2.27047">
        <ele>140</ele>
        <time>2024-05-11T12:50:04Z</time>
      </trkpt>
      <trkpt lat="43.23221" lon="2.27073">
        <ele>140</ele>
        <time>2024-05-11T12:50:05Z</time>
      </trkpt>
      <trkpt lat="43.23213" lon="2.27097">
        <ele>140</ele>
        <time>2024-05-11T12:50:06Z</time>
      </trkpt>
      <trkpt lat="43.23207" lon="2.27121">
        <ele>140</ele>
        <time>2024-05-11T12:50:07Z</time>
      </trkpt>
      <trkpt lat="43.23201" lon="2.27144">
        <ele>140</ele>
        <time>2024-05-11T12:50:08Z</time>
      </trkpt>
      <trkpt lat="43.23194" lon="2.27166">
        <ele>140</ele>
        <time>2024-05-11T12:50:09Z</time>
      </trkpt>
      <trkpt lat="43.23188" lon="2.27188">
        <ele>139.8</ele>
        <time>2024-05-11T12:50:10Z</time>
      </trkpt>
      <trkpt lat="43.23183" lon="2.27209">
        <ele>139.3</ele>
        <time>2024-05-11T12:50:11Z</time>
      </trkpt>
      <trkpt lat="43.23178" lon="2.27229">
        <ele>139</ele>
        <time>2024-05-11T12:50:12Z</time>
      </trkpt>
      <trkpt lat="43.23172" lon="2.2725">
        <ele>139</ele>
        <time>2024-05-11T12:50:13Z</time>
      </trkpt>
      <trkpt lat="43.23167" lon="2.27271">
        <ele>139</ele>
        <time>2024-05-11T12:50:14Z</time>
      </trkpt>
      <trkpt lat="43.23161" lon="2.27292">
        <ele>139</ele>
        <time>2024-05-11T12:50:15Z</time>
      </trkpt>
      <trkpt lat="43.23155" lon="2.27312">
        <ele>139</ele>
        <time>2024-05-11T12:50:16Z</time>
      </trkpt>
      <trkpt lat="43.2315" lon="2.27332">
        <ele>139</ele>
        <time>2024-05-11T12:50:17Z</time>
      </trkpt>
      <trkpt lat="43.23144" lon="2.27353">
        <ele>139</ele>
        <time>2024-05-11T12:50:18Z</time>
      </trkpt>
      <trkpt lat="43.23138" lon="2.27375">
        <ele>138.5</ele>
        <time>2024-05-11T12:50:19Z</time>
      </trkpt>
      <trkpt lat="43.23132" lon="2.27397">
        <ele>138</ele>
        <time>2024-05-11T12:50:20Z</time>
      </trkpt>
      <trkpt lat="43.23125" lon="2.27419">
        <ele>138</ele>
        <time>2024-05-11T12:50:21Z</time>
      </trkpt>
      <trkpt lat="43.23118" lon="2.27442">
        <ele>138</ele>
        <time>2024-05-11T12:50:22Z</time>
      </trkpt>
      <trkpt lat="43.23111" lon="2.27466">
        <ele>138</ele>
        <time>2024-05-11T12:50:23Z</time>
      </trkpt>
      <trkpt lat="43.23104" lon="2.2749">
        <ele>138</ele>
        <time>2024-05-11T12:50:24Z</time>
      </trkpt>
      <trkpt lat="43.23097" lon="2.27514">
        <ele>138</ele>
        <time>2024-05-11T12:50:25Z</time>
      </trkpt>
      <trkpt lat="43.2309" lon="2.27537">
        <ele>138</ele>
        <time>2024-05-11T12:50:26Z</time>
      </trkpt>
      <trkpt lat="43.23082" lon="2.27561">
        <ele>137.8</ele>
        <time>2024-05-11T12:50:27Z</time>
      </trkpt>
      <trkpt lat="43.23074" lon="2.27585">
        <ele>137</ele>
        <time>2024-05-11T12:50:28Z</time>
      </trkpt>
      <trkpt lat="43.23066" lon="2.27608">
        <ele>137</ele>
        <time>2024-05-11T12:50:29Z</time>
      </trkpt>
      <trkpt lat="43.23058" lon="2.27633">
        <ele>137</ele>
        <time>2024-05-11T12:50:30Z</time>
      </trkpt>
      <trkpt lat="43.2305" lon="2.27657">
        <ele>137</ele>
        <time>2024-05-11T12:50:31Z</time>
      </trkpt>
      <trkpt lat="43.23042" lon="2.2768">
        <ele>137</ele>
        <time>2024-05-11T12:50:32Z</time>
      </trkpt>
      <trkpt lat="43.23035" lon="2.27704">
        <ele>137</ele>
        <time>2024-05-11T12:50:33Z</time>
      </trkpt>
      <trkpt lat="43.23027" lon="2.27726">
        <ele>137</ele>
        <time>2024-05-11T12:50:34Z</time>
      </trkpt>
      <trkpt lat="43.2302" lon="2.27748">
        <ele>137</ele>
        <time>2024-05-11T12:50:35Z</time>
      </trkpt>
      <trkpt lat="43.23012" lon="2.27771">
        <ele>136.7</ele>
        <time>2024-05-11T12:50:36Z</time>
      </trkpt>
      <trkpt lat="43.23005" lon="2.27793">
        <ele>136.4</ele>
        <time>2024-05-11T12:50:37Z</time>
      </trkpt>
      <trkpt lat="43.22997" lon="2.27815">
        <ele>136</ele>
        <time>2024-05-11T12:50:38Z</time>
      </trkpt>
      <trkpt lat="43.2299" lon="2.27836">
        <ele>136</ele>
        <time>2024-05-11T12:50:39Z</time>
      </trkpt>
      <trkpt lat="43.22983" lon="2.27857">
        <ele>136</ele>
        <time>2024-05-11T12:50:40Z</time>
      </trkpt>
      <trkpt lat="43.22976" lon="2.27877">
        <ele>136</ele>
        <time>2024-05-11T12:50:41Z</time>
      </trkpt>
      <trkpt lat="43.2297" lon="2.27897">
        <ele>136</ele>
        <time>2024-05-11T12:50:42Z</time>
      </trkpt>
      <trkpt lat="43.22963" lon="2.27915">
        <ele>136</ele>
        <time>2024-05-11T12:50:43Z</time>
      </trkpt>
      <trkpt lat="43.22958" lon="2.27934">
        <ele>136</ele>
        <time>2024-05-11T12:50:44Z</time>
      </trkpt>
      <trkpt lat="43.22952" lon="2.27954">
        <ele>136</ele>
        <time>2024-05-11T12:50:45Z</time>
      </trkpt>
      <trkpt lat="43.22946" lon="2.27975">
        <ele>135.9</ele>
        <time>2024-05-11T12:50:46Z</time>
      </trkpt>
      <trkpt lat="43.22939" lon="2.27996">
        <ele>135.3</ele>
        <time>2024-05-11T12:50:47Z</time>
      </trkpt>
      <trkpt lat="43.22933" lon="2.28018">
        <ele>135.1</ele>
        <time>2024-05-11T12:50:48Z</time>
      </trkpt>
      <trkpt lat="43.22927" lon="2.28041">
        <ele>135</ele>
        <time>2024-05-11T12:50:49Z</time>
      </trkpt>
      <trkpt lat="43.2292" lon="2.28064">
        <ele>135</ele>
        <time>2024-05-11T12:50:50Z</time>
      </trkpt>
      <trkpt lat="43.22914" lon="2.28086">
        <ele>135</ele>
        <time>2024-05-11T12:50:51Z</time>
      </trkpt>
      <trkpt lat="43.22907" lon="2.28109">
        <ele>135</ele>
        <time>2024-05-11T12:50:52Z</time>
      </trkpt>
      <trkpt lat="43.22901" lon="2.28131">
        <ele>135</ele>
        <time>2024-05-11T12:50:53Z</time>
      </trkpt>
      <trkpt lat="43.22894" lon="2.28154">
        <ele>135</ele>
        <time>2024-05-11T12:50:54Z</time>
      </trkpt>
      <trkpt lat="43.22888" lon="2.28176">
        <ele>134.7</ele>
        <time>2024-05-11T12:50:55Z</time>
      </trkpt>
      <trkpt lat="43.22882" lon="2.28196">
        <ele>134.2</ele>
        <time>2024-05-11T12:50:56Z</time>
      </trkpt>
      <trkpt lat="43.22878" lon="2.28212">
        <ele>134.4</ele>
        <time>2024-05-11T12:50:57Z</time>
      </trkpt>
      <trkpt lat="43.22873" lon="2.28227">
        <ele>134.5</ele>
        <time>2024-05-11T12:50:58Z</time>
      </trkpt>
      <trkpt lat="43.22869" lon="2.28242">
        <ele>134.2</ele>
        <time>2024-05-11T12:50:59Z</time>
      </trkpt>
      <trkpt lat="43.22865" lon="2.28256">
        <ele>134</ele>
        <time>2024-05-11T12:51:00Z</time>
      </trkpt>
      <trkpt lat="43.22861" lon="2.28269">
        <ele>134</ele>
        <time>2024-05-11T12:51:01Z</time>
      </trkpt>
      <trkpt lat="43.22857" lon="2.28282">
        <ele>134</ele>
        <time>2024-05-11T12:51:02Z</time>
      </trkpt>
      <trkpt lat="43.22852" lon="2.28295">
        <ele>133.9</ele>
        <time>2024-05-11T12:51:03Z</time>
      </trkpt>
      <trkpt lat="43.22848" lon="2.28309">
        <ele>134</ele>
        <time>2024-05-11T12:51:04Z</time>
      </trkpt>
      <trkpt lat="43.22844" lon="2.28321">
        <ele>134.1</ele>
        <time>2024-05-11T12:51:05Z</time>
      </trkpt>
      <trkpt lat="43.2284" lon="2.28334">
        <ele>134</ele>
        <time>2024-05-11T12:51:06Z</time>
      </trkpt>
      <trkpt lat="43.22836" lon="2.28346">
        <ele>133.5</ele>
        <time>2024-05-11T12:51:07Z</time>
      </trkpt>
      <trkpt lat="43.22832" lon="2.28358">
        <ele>133.2</ele>
        <time>2024-05-11T12:51:08Z</time>
      </trkpt>
      <trkpt lat="43.22828" lon="2.28369">
        <ele>133.2</ele>
        <time>2024-05-11T12:51:09Z</time>
      </trkpt>
      <trkpt lat="43.22824" lon="2.28381">
        <ele>133.3</ele>
        <time>2024-05-11T12:51:10Z</time>
      </trkpt>
      <trkpt lat="43.22821" lon="2.28391">
        <ele>133.4</ele>
        <time>2024-05-11T12:51:11Z</time>
      </trkpt>
      <trkpt lat="43.22818" lon="2.28401">
        <ele>133.6</ele>
        <time>2024-05-11T12:51:12Z</time>
      </trkpt>
      <trkpt lat="43.22814" lon="2.2841">
        <ele>133.7</ele>
        <time>2024-05-11T12:51:13Z</time>
      </trkpt>
      <trkpt lat="43.22811" lon="2.28421">
        <ele>133.7</ele>
        <time>2024-05-11T12:51:14Z</time>
      </trkpt>
      <trkpt lat="43.22807" lon="2.28431">
        <ele>133.5</ele>
        <time>2024-05-11T12:51:15Z</time>
      </trkpt>
      <trkpt lat="43.22804" lon="2.28443">
        <ele>133.1</ele>
        <time>2024-05-11T12:51:16Z</time>
      </trkpt>
      <trkpt lat="43.228" lon="2.28455">
        <ele>132.9</ele>
        <time>2024-05-11T12:51:17Z</time>
      </trkpt>
      <trkpt lat="43.22796" lon="2.28467">
        <ele>132.8</ele>
        <time>2024-05-11T12:51:18Z</time>
      </trkpt>
      <trkpt lat="43.22792" lon="2.28479">
        <ele>132.7</ele>
        <time>2024-05-11T12:51:19Z</time>
      </trkpt>
      <trkpt lat="43.22787" lon="2.28491">
        <ele>132.4</ele>
        <time>2024-05-11T12:51:20Z</time>
      </trkpt>
      <trkpt lat="43.22782" lon="2.28505">
        <ele>132</ele>
        <time>2024-05-11T12:51:21Z</time>
      </trkpt>
      <trkpt lat="43.22777" lon="2.28519">
        <ele>132.1</ele>
        <time>2024-05-11T12:51:22Z</time>
      </trkpt>
      <trkpt lat="43.22771" lon="2.28535">
        <ele>132.5</ele>
        <time>2024-05-11T12:51:23Z</time>
      </trkpt>
      <trkpt lat="43.22766" lon="2.28551">
        <ele>132.8</ele>
        <time>2024-05-11T12:51:24Z</time>
      </trkpt>
      <trkpt lat="43.2276" lon="2.28566">
        <ele>132.9</ele>
        <time>2024-05-11T12:51:25Z</time>
      </trkpt>
      <trkpt lat="43.22755" lon="2.2858">
        <ele>132.4</ele>
        <time>2024-05-11T12:51:26Z</time>
      </trkpt>
      <trkpt lat="43.2275" lon="2.28594">
        <ele>132.4</ele>
        <time>2024-05-11T12:51:27Z</time>
      </trkpt>
      <trkpt lat="43.22745" lon="2.28607">
        <ele>133.1</ele>
        <time>2024-05-11T12:51:28Z</time>
      </trkpt>
      <trkpt lat="43.22741" lon="2.28618">
        <ele>133.2</ele>
        <time>2024-05-11T12:51:29Z</time>
      </trkpt>
      <trkpt lat="43.22736" lon="2.2863">
        <ele>133.2</ele>
        <time>2024-05-11T12:51:30Z</time>
      </trkpt>
      <trkpt lat="43.22733" lon="2.28641">
        <ele>133</ele>
        <time>2024-05-11T12:51:31Z</time>
      </trkpt>
      <trkpt lat="43.22729" lon="2.28653">
        <ele>133</ele>
        <time>2024-05-11T12:51:32Z</time>
      </trkpt>
      <trkpt lat="43.22725" lon="2.28665">
        <ele>133</ele>
        <time>2024-05-11T12:51:33Z</time>
      </trkpt>
      <trkpt lat="43.22722" lon="2.28677">
        <ele>133</ele>
        <time>2024-05-11T12:51:34Z</time>
      </trkpt>
      <trkpt lat="43.22718" lon="2.28689">
        <ele>133</ele>
        <time>2024-05-11T12:51:35Z</time>
      </trkpt>
      <trkpt lat="43.22714" lon="2.28702">
        <ele>133</ele>
        <time>2024-05-11T12:51:36Z</time>
      </trkpt>
      <trkpt lat="43.2271" lon="2.28718">
        <ele>133</ele>
        <time>2024-05-11T12:51:37Z</time>
      </trkpt>
      <trkpt lat="43.22705" lon="2.28735">
        <ele>132.5</ele>
        <time>2024-05-11T12:51:38Z</time>
      </trkpt>
      <trkpt lat="43.22699" lon="2.28753">
        <ele>132</ele>
        <time>2024-05-11T12:51:39Z</time>
      </trkpt>
      <trkpt lat="43.22693" lon="2.28773">
        <ele>132</ele>
        <time>2024-05-11T12:51:40Z</time>
      </trkpt>
      <trkpt lat="43.22687" lon="2.28792">
        <ele>131.6</ele>
        <time>2024-05-11T12:51:41Z</time>
      </trkpt>
      <trkpt lat="43.22681" lon="2.28812">
        <ele>131.6</ele>
        <time>2024-05-11T12:51:42Z</time>
      </trkpt>
      <trkpt lat="43.22674" lon="2.28833">
        <ele>132</ele>
        <time>2024-05-11T12:51:43Z</time>
      </trkpt>
      <trkpt lat="43.22667" lon="2.28855">
        <ele>132</ele>
        <time>2024-05-11T12:51:44Z</time>
      </trkpt>
      <trkpt lat="43.2266" lon="2.28879">
        <ele>131.5</ele>
        <time>2024-05-11T12:51:45Z</time>
      </trkpt>
      <trkpt lat="43.22652" lon="2.28904">
        <ele>131.2</ele>
        <time>2024-05-11T12:51:46Z</time>
      </trkpt>
      <trkpt lat="43.22644" lon="2.2893">
        <ele>131</ele>
        <time>2024-05-11T12:51:47Z</time>
      </trkpt>
      <trkpt lat="43.22636" lon="2.28957">
        <ele>131</ele>
        <time>2024-05-11T12:51:48Z</time>
      </trkpt>
      <trkpt lat="43.22627" lon="2.28983">
        <ele>131</ele>
        <time>2024-05-11T12:51:49Z</time>
      </trkpt>
      <trkpt lat="43.22618" lon="2.29009">
        <ele>131</ele>
        <time>2024-05-11T12:51:50Z</time>
      </trkpt>
      <trkpt lat="43.22609" lon="2.29037">
        <ele>130.6</ele>
        <time>2024-05-11T12:51:51Z</time>
      </trkpt>
      <trkpt lat="43.22601" lon="2.29065">
        <ele>130</ele>
        <time>2024-05-11T12:51:52Z</time>
      </trkpt>
      <trkpt lat="43.22591" lon="2.29093">
        <ele>130.3</ele>
        <time>2024-05-11T12:51:53Z</time>
      </trkpt>
      <trkpt lat="43.22582" lon="2.29121">
        <ele>130.6</ele>
        <time>2024-05-11T12:51:54Z</time>
      </trkpt>
      <trkpt lat="43.22573" lon="2.29148">
        <ele>130</ele>
        <time>2024-05-11T12:51:55Z</time>
      </trkpt>
      <trkpt lat="43.22564" lon="2.29173">
        <ele>130.2</ele>
        <time>2024-05-11T12:51:56Z</time>
      </trkpt>
      <trkpt lat="43.22555" lon="2.29197">
        <ele>130.9</ele>
        <time>2024-05-11T12:51:57Z</time>
      </trkpt>
      <trkpt lat="43.22546" lon="2.2922">
        <ele>130.1</ele>
        <time>2024-05-11T12:51:58Z</time>
      </trkpt>
      <trkpt lat="43.22536" lon="2.29242">
        <ele>130</ele>
        <time>2024-05-11T12:51:59Z</time>
      </trkpt>
      <trkpt lat="43.22525" lon="2.29264">
        <ele>130</ele>
        <time>2024-05-11T12:52:00Z</time>
      </trkpt>
      <trkpt lat="43.22514" lon="2.29285">
        <ele>130</ele>
        <time>2024-05-11T12:52:01Z</time>
      </trkpt>
      <trkpt lat="43.22502" lon="2.29306">
        <ele>130</ele>
        <time>2024-05-11T12:52:02Z</time>
      </trkpt>
      <trkpt lat="43.22491" lon="2.29326">
        <ele>129.2</ele>
        <time>2024-05-11T12:52:03Z</time>
      </trkpt>
      <trkpt lat="43.2248" lon="2.29345">
        <ele>129</ele>
        <time>2024-05-11T12:52:04Z</time>
      </trkpt>
      <trkpt lat="43.22468" lon="2.29364">
        <ele>129</ele>
        <time>2024-05-11T12:52:05Z</time>
      </trkpt>
      <trkpt lat="43.22456" lon="2.29384">
        <ele>128.5</ele>
        <time>2024-05-11T12:52:06Z</time>
      </trkpt>
      <trkpt lat="43.22443" lon="2.29402">
        <ele>128</ele>
        <time>2024-05-11T12:52:07Z</time>
      </trkpt>
      <trkpt lat="43.22429" lon="2.29421">
        <ele>127.4</ele>
        <time>2024-05-11T12:52:08Z</time>
      </trkpt>
      <trkpt lat="43.22416" lon="2.29438">
        <ele>127</ele>
        <time>2024-05-11T12:52:09Z</time>
      </trkpt>
      <trkpt lat="43.22403" lon="2.29455">
        <ele>126.2</ele>
        <time>2024-05-11T12:52:10Z</time>
      </trkpt>
      <trkpt lat="43.2239" lon="2.29472">
        <ele>125.1</ele>
        <time>2024-05-11T12:52:11Z</time>
      </trkpt>
      <trkpt lat="43.22377" lon="2.29489">
        <ele>124.9</ele>
        <time>2024-05-11T12:52:12Z</time>
      </trkpt>
      <trkpt lat="43.22364" lon="2.29505">
        <ele>124.2</ele>
        <time>2024-05-11T12:52:13Z</time>
      </trkpt>
      <trkpt lat="43.22352" lon="2.29522">
        <ele>123.3</ele>
        <time>2024-05-11T12:52:14Z</time>
      </trkpt>
      <trkpt lat="43.22339" lon="2.29538">
        <ele>122.5</ele>
        <time>2024-05-11T12:52:15Z</time>
      </trkpt>
      <trkpt lat="43.22327" lon="2.29555">
        <ele>121.8</ele>
        <time>2024-05-11T12:52:16Z</time>
      </trkpt>
      <trkpt lat="43.22316" lon="2.29574">
        <ele>121.6</ele>
        <time>2024-05-11T12:52:17Z</time>
      </trkpt>
      <trkpt lat="43.22304" lon="2.29593">
        <ele>120.9</ele>
        <time>2024-05-11T12:52:18Z</time>
      </trkpt>
      <trkpt lat="43.22293" lon="2.29614">
        <ele>120.2</ele>
        <time>2024-05-11T12:52:19Z</time>
      </trkpt>
      <trkpt lat="43.22282" lon="2.29635">
        <ele>119.4</ele>
        <time>2024-05-11T12:52:20Z</time>
      </trkpt>
      <trkpt lat="43.22271" lon="2.29658">
        <ele>118.5</ele>
        <time>2024-05-11T12:52:21Z</time>
      </trkpt>
      <trkpt lat="43.22259" lon="2.2968">
        <ele>117.8</ele>
        <time>2024-05-11T12:52:22Z</time>
      </trkpt>
      <trkpt lat="43.22247" lon="2.29703">
        <ele>116.8</ele>
        <time>2024-05-11T12:52:23Z</time>
      </trkpt>
      <trkpt lat="43.22236" lon="2.29727">
        <ele>116.1</ele>
        <time>2024-05-11T12:52:24Z</time>
      </trkpt>
      <trkpt lat="43.22223" lon="2.29751">
        <ele>116</ele>
        <time>2024-05-11T12:52:25Z</time>
      </trkpt>
      <trkpt lat="43.22211" lon="2.29775">
        <ele>115.2</ele>
        <time>2024-05-11T12:52:26Z</time>
      </trkpt>
      <trkpt lat="43.22199" lon="2.29799">
        <ele>114.2</ele>
        <time>2024-05-11T12:52:27Z</time>
      </trkpt>
      <trkpt lat="43.22187" lon="2.29823">
        <ele>113</ele>
        <time>2024-05-11T12:52:28Z</time>
      </trkpt>
      <trkpt lat="43.22175" lon="2.29846">
        <ele>112.2</ele>
        <time>2024-05-11T12:52:29Z</time>
      </trkpt>
      <trkpt lat="43.22163" lon="2.29869">
        <ele>112.1</ele>
        <time>2024-05-11T12:52:30Z</time>
      </trkpt>
      <trkpt lat="43.22152" lon="2.29891">
        <ele>112.6</ele>
        <time>2024-05-11T12:52:31Z</time>
      </trkpt>
      <trkpt lat="43.2214" lon="2.29913">
        <ele>113.8</ele>
        <time>2024-05-11T12:52:32Z</time>
      </trkpt>
      <trkpt lat="43.2213" lon="2.29934">
        <ele>113.9</ele>
        <time>2024-05-11T12:52:33Z</time>
      </trkpt>
      <trkpt lat="43.22119" lon="2.29954">
        <ele>114.8</ele>
        <time>2024-05-11T12:52:34Z</time>
      </trkpt>
      <trkpt lat="43.22109" lon="2.29974">
        <ele>116</ele>
        <time>2024-05-11T12:52:35Z</time>
      </trkpt>
      <trkpt lat="43.22099" lon="2.29995">
        <ele>116.3</ele>
        <time>2024-05-11T12:52:36Z</time>
      </trkpt>
      <trkpt lat="43.22088" lon="2.30016">
        <ele>118.2</ele>
        <time>2024-05-11T12:52:37Z</time>
      </trkpt>
      <trkpt lat="43.22077" lon="2.30037">
        <ele>119.8</ele>
        <time>2024-05-11T12:52:38Z</time>
      </trkpt>
      <trkpt lat="43.22065" lon="2.30059">
        <ele>121.2</ele>
        <time>2024-05-11T12:52:39Z</time>
      </trkpt>
      <trkpt lat="43.22054" lon="2.30081">
        <ele>122.2</ele>
        <time>2024-05-11T12:52:40Z</time>
      </trkpt>
      <trkpt lat="43.22042" lon="2.30103">
        <ele>125.6</ele>
        <time>2024-05-11T12:52:41Z</time>
      </trkpt>
      <trkpt lat="43.2203" lon="2.30126">
        <ele>125.2</ele>
        <time>2024-05-11T12:52:42Z</time>
      </trkpt>
      <trkpt lat="43.2202" lon="2.30148">
        <ele>126</ele>
        <time>2024-05-11T12:52:43Z</time>
      </trkpt>
      <trkpt lat="43.2201" lon="2.30169">
        <ele>127</ele>
        <time>2024-05-11T12:52:44Z</time>
      </trkpt>
      <trkpt lat="43.22002" lon="2.3019">
        <ele>127</ele>
        <time>2024-05-11T12:52:45Z</time>
      </trkpt>
      <trkpt lat="43.21995" lon="2.30209">
        <ele>127</ele>
        <time>2024-05-11T12:52:46Z</time>
      </trkpt>
      <trkpt lat="43.21988" lon="2.30229">
        <ele>127.1</ele>
        <time>2024-05-11T12:52:47Z</time>
      </trkpt>
      <trkpt lat="43.21982" lon="2.30248">
        <ele>127.6</ele>
        <time>2024-05-11T12:52:48Z</time>
      </trkpt>
      <trkpt lat="43.21975" lon="2.30268">
        <ele>127.9</ele>
        <time>2024-05-11T12:52:49Z</time>
      </trkpt>
      <trkpt lat="43.21969" lon="2.30288">
        <ele>127.9</ele>
        <time>2024-05-11T12:52:50Z</time>
      </trkpt>
      <trkpt lat="43.21962" lon="2.30309">
        <ele>127.6</ele>
        <time>2024-05-11T12:52:51Z</time>
      </trkpt>
      <trkpt lat="43.21954" lon="2.30331">
        <ele>127.3</ele>
        <time>2024-05-11T12:52:52Z</time>
      </trkpt>
      <trkpt lat="43.21947" lon="2.30353">
        <ele>127</ele>
        <time>2024-05-11T12:52:53Z</time>
      </trkpt>
      <trkpt lat="43.2194" lon="2.30377">
        <ele>126.4</ele>
        <time>2024-05-11T12:52:54Z</time>
      </trkpt>
      <trkpt lat="43.21933" lon="2.30402">
        <ele>125.8</ele>
        <time>2024-05-11T12:52:55Z</time>
      </trkpt>
      <trkpt lat="43.21925" lon="2.30425">
        <ele>125.3</ele>
        <time>2024-05-11T12:52:56Z</time>
      </trkpt>
      <trkpt lat="43.21918" lon="2.30448">
        <ele>124.9</ele>
        <time>2024-05-11T12:52:57Z</time>
      </trkpt>
      <trkpt lat="43.21912" lon="2.3047">
        <ele>124.1</ele>
        <time>2024-05-11T12:52:58Z</time>
      </trkpt>
      <trkpt lat="43.21905" lon="2.30491">
        <ele>124.1</ele>
        <time>2024-05-11T12:52:59Z</time>
      </trkpt>
      <trkpt lat="43.21899" lon="2.30511">
        <ele>123.6</ele>
        <time>2024-05-11T12:53:00Z</time>
      </trkpt>
      <trkpt lat="43.21893" lon="2.30532">
        <ele>123</ele>
        <time>2024-05-11T12:53:01Z</time>
      </trkpt>
      <trkpt lat="43.21886" lon="2.30552">
        <ele>122.1</ele>
        <time>2024-05-11T12:53:02Z</time>
      </trkpt>
      <trkpt lat="43.2188" lon="2.30573">
        <ele>122.2</ele>
        <time>2024-05-11T12:53:03Z</time>
      </trkpt>
      <trkpt lat="43.21873" lon="2.30594">
        <ele>122.6</ele>
        <time>2024-05-11T12:53:04Z</time>
      </trkpt>
      <trkpt lat="43.21866" lon="2.30616">
        <ele>122.8</ele>
        <time>2024-05-11T12:53:05Z</time>
      </trkpt>
      <trkpt lat="43.21859" lon="2.30639">
        <ele>123</ele>
        <time>2024-05-11T12:53:06Z</time>
      </trkpt>
      <trkpt lat="43.21852" lon="2.30662">
        <ele>123.3</ele>
        <time>2024-05-11T12:53:07Z</time>
      </trkpt>
      <trkpt lat="43.21845" lon="2.30686">
        <ele>123.6</ele>
        <time>2024-05-11T12:53:08Z</time>
      </trkpt>
      <trkpt lat="43.21838" lon="2.3071">
        <ele>124.3</ele>
        <time>2024-05-11T12:53:09Z</time>
      </trkpt>
      <trkpt lat="43.2183" lon="2.30734">
        <ele>125.2</ele>
        <time>2024-05-11T12:53:10Z</time>
      </trkpt>
      <trkpt lat="43.21823" lon="2.30759">
        <ele>125.6</ele>
        <time>2024-05-11T12:53:11Z</time>
      </trkpt>
      <trkpt lat="43.21815" lon="2.30783">
        <ele>125.8</ele>
        <time>2024-05-11T12:53:12Z</time>
      </trkpt>
      <trkpt lat="43.21808" lon="2.30808">
        <ele>126.9</ele>
        <time>2024-05-11T12:53:13Z</time>
      </trkpt>
      <trkpt lat="43.218" lon="2.30832">
        <ele>127</ele>
        <time>2024-05-11T12:53:14Z</time>
      </trkpt>
      <trkpt lat="43.21792" lon="2.30858">
        <ele>126.5</ele>
        <time>2024-05-11T12:53:15Z</time>
      </trkpt>
      <trkpt lat="43.21784" lon="2.30884">
        <ele>126.8</ele>
        <time>2024-05-11T12:53:16Z</time>
      </trkpt>
      <trkpt lat="43.21777" lon="2.30911">
        <ele>126.2</ele>
        <time>2024-05-11T12:53:17Z</time>
      </trkpt>
      <trkpt lat="43.21771" lon="2.30938">
        <ele>126.2</ele>
        <time>2024-05-11T12:53:18Z</time>
      </trkpt>
      <trkpt lat="43.21765" lon="2.30965">
        <ele>126.1</ele>
        <time>2024-05-11T12:53:19Z</time>
      </trkpt>
      <trkpt lat="43.2176" lon="2.30992">
        <ele>126</ele>
        <time>2024-05-11T12:53:20Z</time>
      </trkpt>
      <trkpt lat="43.21755" lon="2.31019">
        <ele>125.3</ele>
        <time>2024-05-11T12:53:21Z</time>
      </trkpt>
      <trkpt lat="43.2175" lon="2.31047">
        <ele>125</ele>
        <time>2024-05-11T12:53:22Z</time>
      </trkpt>
      <trkpt lat="43.21746" lon="2.31075">
        <ele>125</ele>
        <time>2024-05-11T12:53:23Z</time>
      </trkpt>
      <trkpt lat="43.21741" lon="2.31104">
        <ele>124.5</ele>
        <time>2024-05-11T12:53:24Z</time>
      </trkpt>
      <trkpt lat="43.21737" lon="2.31132">
        <ele>124.5</ele>
        <time>2024-05-11T12:53:25Z</time>
      </trkpt>
      <trkpt lat="43.21733" lon="2.31158">
        <ele>124.6</ele>
        <time>2024-05-11T12:53:26Z</time>
      </trkpt>
      <trkpt lat="43.2173" lon="2.31184">
        <ele>124.3</ele>
        <time>2024-05-11T12:53:27Z</time>
      </trkpt>
      <trkpt lat="43.21727" lon="2.31209">
        <ele>124.1</ele>
        <time>2024-05-11T12:53:28Z</time>
      </trkpt>
      <trkpt lat="43.21723" lon="2.31233">
        <ele>124</ele>
        <time>2024-05-11T12:53:29Z</time>
      </trkpt>
      <trkpt lat="43.2172" lon="2.31258">
        <ele>124.1</ele>
        <time>2024-05-11T12:53:30Z</time>
      </trkpt>
      <trkpt lat="43.21717" lon="2.31283">
        <ele>124.2</ele>
        <time>2024-05-11T12:53:31Z</time>
      </trkpt>
      <trkpt lat="43.21714" lon="2.31308">
        <ele>124.3</ele>
        <time>2024-05-11T12:53:32Z</time>
      </trkpt>
      <trkpt lat="43.21711" lon="2.31333">
        <ele>124.4</ele>
        <time>2024-05-11T12:53:33Z</time>
      </trkpt>
      <trkpt lat="43.21708" lon="2.31357">
        <ele>124.5</ele>
        <time>2024-05-11T12:53:34Z</time>
      </trkpt>
      <trkpt lat="43.21706" lon="2.31381">
        <ele>124.2</ele>
        <time>2024-05-11T12:53:35Z</time>
      </trkpt>
      <trkpt lat="43.21703" lon="2.31404">
        <ele>124</ele>
        <time>2024-05-11T12:53:36Z</time>
      </trkpt>
      <trkpt lat="43.217" lon="2.31426">
        <ele>123.9</ele>
        <time>2024-05-11T12:53:37Z</time>
      </trkpt>
      <trkpt lat="43.21697" lon="2.31448">
        <ele>123.8</ele>
        <time>2024-05-11T12:53:38Z</time>
      </trkpt>
      <trkpt lat="43.21694" lon="2.31469">
        <ele>123.1</ele>
        <time>2024-05-11T12:53:39Z</time>
      </trkpt>
      <trkpt lat="43.21691" lon="2.31489">
        <ele>123.1</ele>
        <time>2024-05-11T12:53:40Z</time>
      </trkpt>
      <trkpt lat="43.21689" lon="2.31508">
        <ele>123.2</ele>
        <time>2024-05-11T12:53:41Z</time>
      </trkpt>
      <trkpt lat="43.21686" lon="2.31527">
        <ele>123.3</ele>
        <time>2024-05-11T12:53:42Z</time>
      </trkpt>
      <trkpt lat="43.21684" lon="2.31546">
        <ele>122.7</ele>
        <time>2024-05-11T12:53:43Z</time>
      </trkpt>
      <trkpt lat="43.21682" lon="2.31563">
        <ele>122.4</ele>
        <time>2024-05-11T12:53:44Z</time>
      </trkpt>
      <trkpt lat="43.2168" lon="2.31581">
        <ele>122.5</ele>
        <time>2024-05-11T12:53:45Z</time>
      </trkpt>
      <trkpt lat="43.21677" lon="2.316">
        <ele>122.6</ele>
        <time>2024-05-11T12:53:46Z</time>
      </trkpt>
      <trkpt lat="43.21675" lon="2.3162">
        <ele>122.5</ele>
        <time>2024-05-11T12:53:47Z</time>
      </trkpt>
      <trkpt lat="43.21672" lon="2.3164">
        <ele>121.9</ele>
        <time>2024-05-11T12:53:48Z</time>
      </trkpt>
      <trkpt lat="43.2167" lon="2.31663">
        <ele>120.5</ele>
        <time>2024-05-11T12:53:49Z</time>
      </trkpt>
      <trkpt lat="43.21667" lon="2.31686">
        <ele>120</ele>
        <time>2024-05-11T12:53:50Z</time>
      </trkpt>
      <trkpt lat="43.21663" lon="2.3171">
        <ele>120.4</ele>
        <time>2024-05-11T12:53:51Z</time>
      </trkpt>
      <trkpt lat="43.21659" lon="2.31735">
        <ele>120.7</ele>
        <time>2024-05-11T12:53:52Z</time>
      </trkpt>
      <trkpt lat="43.21654" lon="2.3176">
        <ele>121.1</ele>
        <time>2024-05-11T12:53:53Z</time>
      </trkpt>
      <trkpt lat="43.21648" lon="2.31786">
        <ele>120.5</ele>
        <time>2024-05-11T12:53:54Z</time>
      </trkpt>
      <trkpt lat="43.21641" lon="2.31812">
        <ele>117.4</ele>
        <time>2024-05-11T12:53:55Z</time>
      </trkpt>
      <trkpt lat="43.21634" lon="2.31837">
        <ele>118.2</ele>
        <time>2024-05-11T12:53:56Z</time>
      </trkpt>
      <trkpt lat="43.21627" lon="2.31863">
        <ele>120.3</ele>
        <time>2024-05-11T12:53:57Z</time>
      </trkpt>
      <trkpt lat="43.21619" lon="2.31887">
        <ele>117.6</ele>
        <time>2024-05-11T12:53:58Z</time>
      </trkpt>
      <trkpt lat="43.21611" lon="2.31911">
        <ele>116</ele>
        <time>2024-05-11T12:53:59Z</time>
      </trkpt>
      <trkpt lat="43.21602" lon="2.31935">
        <ele>118.9</ele>
        <time>2024-05-11T12:54:00Z</time>
      </trkpt>
      <trkpt lat="43.21593" lon="2.31957">
        <ele>118.5</ele>
        <time>2024-05-11T12:54:01Z</time>
      </trkpt>
      <trkpt lat="43.21584" lon="2.31979">
        <ele>116.6</ele>
        <time>2024-05-11T12:54:02Z</time>
      </trkpt>
      <trkpt lat="43.21574" lon="2.32">
        <ele>117.7</ele>
        <time>2024-05-11T12:54:03Z</time>
      </trkpt>
      <trkpt lat="43.21565" lon="2.32019">
        <ele>116.2</ele>
        <time>2024-05-11T12:54:04Z</time>
      </trkpt>
      <trkpt lat="43.21557" lon="2.32037">
        <ele>114.6</ele>
        <time>2024-05-11T12:54:05Z</time>
      </trkpt>
      <trkpt lat="43.21549" lon="2.32053">
        <ele>114.7</ele>
        <time>2024-05-11T12:54:06Z</time>
      </trkpt>
      <trkpt lat="43.21541" lon="2.32069">
        <ele>114</ele>
        <time>2024-05-11T12:54:07Z</time>
      </trkpt>
      <trkpt lat="43.21534" lon="2.32084">
        <ele>113.2</ele>
        <time>2024-05-11T12:54:08Z</time>
      </trkpt>
      <trkpt lat="43.21526" lon="2.32099">
        <ele>112.6</ele>
        <time>2024-05-11T12:54:09Z</time>
      </trkpt>
      <trkpt lat="43.2152" lon="2.32113">
        <ele>112.6</ele>
        <time>2024-05-11T12:54:10Z</time>
      </trkpt>
      <trkpt lat="43.21513" lon="2.32126">
        <ele>113</ele>
        <time>2024-05-11T12:54:11Z</time>
      </trkpt>
      <trkpt lat="43.21505" lon="2.32138">
        <ele>113</ele>
        <time>2024-05-11T12:54:12Z</time>
      </trkpt>
      <trkpt lat="43.21497" lon="2.3215">
        <ele>112.9</ele>
        <time>2024-05-11T12:54:13Z</time>
      </trkpt>
      <trkpt lat="43.21488" lon="2.32162">
        <ele>113.1</ele>
        <time>2024-05-11T12:54:14Z</time>
      </trkpt>
      <trkpt lat="43.21478" lon="2.32172">
        <ele>113.5</ele>
        <time>2024-05-11T12:54:15Z</time>
      </trkpt>
      <trkpt lat="43.21467" lon="2.32181">
        <ele>113.9</ele>
        <time>2024-05-11T12:54:16Z</time>
      </trkpt>
      <trkpt lat="43.21454" lon="2.32188">
        <ele>114.5</ele>
        <time>2024-05-11T12:54:17Z</time>
      </trkpt>
      <trkpt lat="43.21441" lon="2.32192">
        <ele>115.3</ele>
        <time>2024-05-11T12:54:18Z</time>
      </trkpt>
      <trkpt lat="43.21429" lon="2.32192">
        <ele>116.2</ele>
        <time>2024-05-11T12:54:19Z</time>
      </trkpt>
      <trkpt lat="43.21416" lon="2.3219">
        <ele>117</ele>
        <time>2024-05-11T12:54:20Z</time>
      </trkpt>
      <trkpt lat="43.21404" lon="2.32187">
        <ele>117.3</ele>
        <time>2024-05-11T12:54:21Z</time>
      </trkpt>
      <trkpt lat="43.21392" lon="2.32181">
        <ele>117.5</ele>
        <time>2024-05-11T12:54:22Z</time>
      </trkpt>
      <trkpt lat="43.21382" lon="2.32174">
        <ele>117.4</ele>
        <time>2024-05-11T12:54:23Z</time>
      </trkpt>
      <trkpt lat="43.21372" lon="2.32165">
        <ele>117.6</ele>
        <time>2024-05-11T12:54:24Z</time>
      </trkpt>
      <trkpt lat="43.21364" lon="2.32156">
        <ele>117.9</ele>
        <time>2024-05-11T12:54:25Z</time>
      </trkpt>
      <trkpt lat="43.21356" lon="2.32146">
        <ele>117.9</ele>
        <time>2024-05-11T12:54:26Z</time>
      </trkpt>
      <trkpt lat="43.21349" lon="2.32136">
        <ele>118.1</ele>
        <time>2024-05-11T12:54:27Z</time>
      </trkpt>
      <trkpt lat="43.21341" lon="2.32126">
        <ele>118.1</ele>
        <time>2024-05-11T12:54:28Z</time>
      </trkpt>
      <trkpt lat="43.21334" lon="2.32116">
        <ele>118</ele>
        <time>2024-05-11T12:54:29Z</time>
      </trkpt>
      <trkpt lat="43.21326" lon="2.32104">
        <ele>118.3</ele>
        <time>2024-05-11T12:54:30Z</time>
      </trkpt>
      <trkpt lat="43.21319" lon="2.32093">
        <ele>118.7</ele>
        <time>2024-05-11T12:54:31Z</time>
      </trkpt>
      <trkpt lat="43.21311" lon="2.3208">
        <ele>118.9</ele>
        <time>2024-05-11T12:54:32Z</time>
      </trkpt>
      <trkpt lat="43.21304" lon="2.32067">
        <ele>118.4</ele>
        <time>2024-05-11T12:54:33Z</time>
      </trkpt>
      <trkpt lat="43.21298" lon="2.32054">
        <ele>118.4</ele>
        <time>2024-05-11T12:54:34Z</time>
      </trkpt>
      <trkpt lat="43.21291" lon="2.3204">
        <ele>119.1</ele>
        <time>2024-05-11T12:54:35Z</time>
      </trkpt>
      <trkpt lat="43.21285" lon="2.32025">
        <ele>119.2</ele>
        <time>2024-05-11T12:54:36Z</time>
      </trkpt>
      <trkpt lat="43.21279" lon="2.32009">
        <ele>118.4</ele>
        <time>2024-05-11T12:54:37Z</time>
      </trkpt>
      <trkpt lat="43.21274" lon="2.31992">
        <ele>118</ele>
        <time>2024-05-11T12:54:38Z</time>
      </trkpt>
      <trkpt lat="43.21267" lon="2.31974">
        <ele>118.4</ele>
        <time>2024-05-11T12:54:39Z</time>
      </trkpt>
      <trkpt lat="43.21261" lon="2.31954">
        <ele>118.9</ele>
        <time>2024-05-11T12:54:40Z</time>
      </trkpt>
      <trkpt lat="43.21256" lon="2.31932">
        <ele>119</ele>
        <time>2024-05-11T12:54:41Z</time>
      </trkpt>
      <trkpt lat="43.21251" lon="2.3191">
        <ele>119</ele>
        <time>2024-05-11T12:54:42Z</time>
      </trkpt>
      <trkpt lat="43.21248" lon="2.31888">
        <ele>118.9</ele>
        <time>2024-05-11T12:54:43Z</time>
      </trkpt>
      <trkpt lat="43.21245" lon="2.31866">
        <ele>118.3</ele>
        <time>2024-05-11T12:54:44Z</time>
      </trkpt>
      <trkpt lat="43.21242" lon="2.31843">
        <ele>118.8</ele>
        <time>2024-05-11T12:54:45Z</time>
      </trkpt>
      <trkpt lat="43.2124" lon="2.31821">
        <ele>119</ele>
        <time>2024-05-11T12:54:46Z</time>
      </trkpt>
      <trkpt lat="43.21239" lon="2.31797">
        <ele>119.3</ele>
        <time>2024-05-11T12:54:47Z</time>
      </trkpt>
      <trkpt lat="43.21239" lon="2.31772">
        <ele>120.1</ele>
        <time>2024-05-11T12:54:48Z</time>
      </trkpt>
      <trkpt lat="43.21239" lon="2.31746">
        <ele>120.4</ele>
        <time>2024-05-11T12:54:49Z</time>
      </trkpt>
      <trkpt lat="43.21239" lon="2.31718">
        <ele>120.4</ele>
        <time>2024-05-11T12:54:50Z</time>
      </trkpt>
      <trkpt lat="43.2124" lon="2.31691">
        <ele>120.1</ele>
        <time>2024-05-11T12:54:51Z</time>
      </trkpt>
      <trkpt lat="43.21239" lon="2.31664">
        <ele>120.2</ele>
        <time>2024-05-11T12:54:52Z</time>
      </trkpt>
      <trkpt lat="43.21238" lon="2.31636">
        <ele>120.5</ele>
        <time>2024-05-11T12:54:53Z</time>
      </trkpt>
      <trkpt lat="43.21236" lon="2.31608">
        <ele>121.6</ele>
        <time>2024-05-11T12:54:54Z</time>
      </trkpt>
      <trkpt lat="43.21234" lon="2.3158">
        <ele>122.7</ele>
        <time>2024-05-11T12:54:55Z</time>
      </trkpt>
      <trkpt lat="43.2123" lon="2.31553">
        <ele>123.5</ele>
        <time>2024-05-11T12:54:56Z</time>
      </trkpt>
      <trkpt lat="43.21226" lon="2.31526">
        <ele>120.7</ele>
        <time>2024-05-11T12:54:57Z</time>
      </trkpt>
      <trkpt lat="43.21221" lon="2.31501">
        <ele>122.9</ele>
        <time>2024-05-11T12:54:58Z</time>
      </trkpt>
      <trkpt lat="43.21215" lon="2.31475">
        <ele>124.4</ele>
        <time>2024-05-11T12:54:59Z</time>
      </trkpt>
      <trkpt lat="43.21206" lon="2.31449">
        <ele>122</ele>
        <time>2024-05-11T12:55:00Z</time>
      </trkpt>
      <trkpt lat="43.21197" lon="2.31425">
        <ele>120.4</ele>
        <time>2024-05-11T12:55:01Z</time>
      </trkpt>
      <trkpt lat="43.21187" lon="2.31402">
        <ele>120.9</ele>
        <time>2024-05-11T12:55:02Z</time>
      </trkpt>
      <trkpt lat="43.21178" lon="2.31381">
        <ele>121</ele>
        <time>2024-05-11T12:55:03Z</time>
      </trkpt>
      <trkpt lat="43.21167" lon="2.31361">
        <ele>120</ele>
        <time>2024-05-11T12:55:04Z</time>
      </trkpt>
      <trkpt lat="43.21155" lon="2.31341">
        <ele>120.2</ele>
        <time>2024-05-11T12:55:05Z</time>
      </trkpt>
      <trkpt lat="43.21143" lon="2.31321">
        <ele>120</ele>
        <time>2024-05-11T12:55:06Z</time>
      </trkpt>
      <trkpt lat="43.21131" lon="2.31302">
        <ele>120.8</ele>
        <time>2024-05-11T12:55:07Z</time>
      </trkpt>
      <trkpt lat="43.21117" lon="2.31284">
        <ele>120.8</ele>
        <time>2024-05-11T12:55:08Z</time>
      </trkpt>
      <trkpt lat="43.21104" lon="2.31267">
        <ele>121.5</ele>
        <time>2024-05-11T12:55:09Z</time>
      </trkpt>
      <trkpt lat="43.21089" lon="2.31252">
        <ele>120.8</ele>
        <time>2024-05-11T12:55:10Z</time>
      </trkpt>
      <trkpt lat="43.21075" lon="2.31237">
        <ele>121.5</ele>
        <time>2024-05-11T12:55:11Z</time>
      </trkpt>
      <trkpt lat="43.21059" lon="2.31223">
        <ele>120.4</ele>
        <time>2024-05-11T12:55:12Z</time>
      </trkpt>
      <trkpt lat="43.21043" lon="2.31209">
        <ele>121.8</ele>
        <time>2024-05-11T12:55:13Z</time>
      </trkpt>
      <trkpt lat="43.21026" lon="2.31197">
        <ele>120.3</ele>
        <time>2024-05-11T12:55:14Z</time>
      </trkpt>
      <trkpt lat="43.2101" lon="2.31186">
        <ele>121.3</ele>
        <time>2024-05-11T12:55:15Z</time>
      </trkpt>
      <trkpt lat="43.20993" lon="2.31176">
        <ele>121.4</ele>
        <time>2024-05-11T12:55:16Z</time>
      </trkpt>
      <trkpt lat="43.20977" lon="2.31169">
        <ele>120.5</ele>
        <time>2024-05-11T12:55:17Z</time>
      </trkpt>
      <trkpt lat="43.2096" lon="2.31162">
        <ele>120.7</ele>
        <time>2024-05-11T12:55:18Z</time>
      </trkpt>
      <trkpt lat="43.20943" lon="2.31156">
        <ele>121.4</ele>
        <time>2024-05-11T12:55:19Z</time>
      </trkpt>
      <trkpt lat="43.20925" lon="2.31151">
        <ele>121.2</ele>
        <time>2024-05-11T12:55:20Z</time>
      </trkpt>
      <trkpt lat="43.20907" lon="2.31147">
        <ele>120.9</ele>
        <time>2024-05-11T12:55:21Z</time>
      </trkpt>
      <trkpt lat="43.20889" lon="2.31145">
        <ele>120.8</ele>
        <time>2024-05-11T12:55:22Z</time>
      </trkpt>
      <trkpt lat="43.20871" lon="2.31143">
        <ele>120.8</ele>
        <time>2024-05-11T12:55:23Z</time>
      </trkpt>
      <trkpt lat="43.20854" lon="2.31142">
        <ele>120.8</ele>
        <time>2024-05-11T12:55:24Z</time>
      </trkpt>
      <trkpt lat="43.20837" lon="2.31143">
        <ele>120.7</ele>
        <time>2024-05-11T12:55:25Z</time>
      </trkpt>
      <trkpt lat="43.20821" lon="2.31144">
        <ele>119</ele>
        <time>2024-05-11T12:55:26Z</time>
      </trkpt>
      <trkpt lat="43.20805" lon="2.31147">
        <ele>117.1</ele>
        <time>2024-05-11T12:55:27Z</time>
      </trkpt>
      <trkpt lat="43.20789" lon="2.3115">
        <ele>119.1</ele>
        <time>2024-05-11T12:55:28Z</time>
      </trkpt>
      <trkpt lat="43.20775" lon="2.31153">
        <ele>120.5</ele>
        <time>2024-05-11T12:55:29Z</time>
      </trkpt>
      <trkpt lat="43.20761" lon="2.31156">
        <ele>120.8</ele>
        <time>2024-05-11T12:55:30Z</time>
      </trkpt>
      <trkpt lat="43.20747" lon="2.3116">
        <ele>121</ele>
        <time>2024-05-11T12:55:31Z</time>
      </trkpt>
      <trkpt lat="43.20733" lon="2.31165">
        <ele>121</ele>
        <time>2024-05-11T12:55:32Z</time>
      </trkpt>
      <trkpt lat="43.20719" lon="2.31169">
        <ele>121</ele>
        <time>2024-05-11T12:55:33Z</time>
      </trkpt>
      <trkpt lat="43.20704" lon="2.31173">
        <ele>121</ele>
        <time>2024-05-11T12:55:34Z</time>
      </trkpt>
      <trkpt lat="43.20689" lon="2.31177">
        <ele>121</ele>
        <time>2024-05-11T12:55:35Z</time>
      </trkpt>
      <trkpt lat="43.20673" lon="2.31182">
        <ele>121</ele>
        <time>2024-05-11T12:55:36Z</time>
      </trkpt>
      <trkpt lat="43.20656" lon="2.31187">
        <ele>121</ele>
        <time>2024-05-11T12:55:37Z</time>
      </trkpt>
      <trkpt lat="43.2064" lon="2.31193">
        <ele>121</ele>
        <time>2024-05-11T12:55:38Z</time>
      </trkpt>
      <trkpt lat="43.20623" lon="2.31198">
        <ele>120.9</ele>
        <time>2024-05-11T12:55:39Z</time>
      </trkpt>
      <trkpt lat="43.20606" lon="2.31203">
        <ele>120.6</ele>
        <time>2024-05-11T12:55:40Z</time>
      </trkpt>
      <trkpt lat="43.20589" lon="2.31208">
        <ele>120.1</ele>
        <time>2024-05-11T12:55:41Z</time>
      </trkpt>
      <trkpt lat="43.20572" lon="2.31213">
        <ele>119.9</ele>
        <time>2024-05-11T12:55:42Z</time>
      </trkpt>
      <trkpt lat="43.20554" lon="2.31219">
        <ele>119.9</ele>
        <time>2024-05-11T12:55:43Z</time>
      </trkpt>
      <trkpt lat="43.20536" lon="2.31224">
        <ele>119.9</ele>
        <time>2024-05-11T12:55:44Z</time>
      </trkpt>
      <trkpt lat="43.20517" lon="2.3123">
        <ele>119.3</ele>
        <time>2024-05-11T12:55:45Z</time>
      </trkpt>
      <trkpt lat="43.20498" lon="2.31236">
        <ele>119</ele>
        <time>2024-05-11T12:55:46Z</time>
      </trkpt>
      <trkpt lat="43.2048" lon="2.31242">
        <ele>119.5</ele>
        <time>2024-05-11T12:55:47Z</time>
      </trkpt>
      <trkpt lat="43.20462" lon="2.31249">
        <ele>120</ele>
        <time>2024-05-11T12:55:48Z</time>
      </trkpt>
      <trkpt lat="43.20445" lon="2.31257">
        <ele>119.7</ele>
        <time>2024-05-11T12:55:49Z</time>
      </trkpt>
      <trkpt lat="43.20429" lon="2.31266">
        <ele>119.7</ele>
        <time>2024-05-11T12:55:50Z</time>
      </trkpt>
      <trkpt lat="43.20414" lon="2.31275">
        <ele>119.9</ele>
        <time>2024-05-11T12:55:51Z</time>
      </trkpt>
      <trkpt lat="43.20401" lon="2.31284">
        <ele>119.3</ele>
        <time>2024-05-11T12:55:52Z</time>
      </trkpt>
      <trkpt lat="43.20391" lon="2.31292">
        <ele>119</ele>
        <time>2024-05-11T12:55:53Z</time>
      </trkpt>
      <trkpt lat="43.20381" lon="2.31299">
        <ele>119</ele>
        <time>2024-05-11T12:55:54Z</time>
      </trkpt>
      <trkpt lat="43.20373" lon="2.31306">
        <ele>119</ele>
        <time>2024-05-11T12:55:55Z</time>
      </trkpt>
      <trkpt lat="43.20365" lon="2.31313">
        <ele>119</ele>
        <time>2024-05-11T12:55:56Z</time>
      </trkpt>
      <trkpt lat="43.20358" lon="2.31321">
        <ele>118.9</ele>
        <time>2024-05-11T12:55:57Z</time>
      </trkpt>
      <trkpt lat="43.20353" lon="2.31326">
        <ele>118.8</ele>
        <time>2024-05-11T12:55:58Z</time>
      </trkpt>
      <trkpt lat="43.20348" lon="2.31331">
        <ele>118.6</ele>
        <time>2024-05-11T12:55:59Z</time>
      </trkpt>
      <trkpt lat="43.20344" lon="2.31336">
        <ele>118.3</ele>
        <time>2024-05-11T12:56:00Z</time>
      </trkpt>
      <trkpt lat="43.20339" lon="2.31341">
        <ele>118</ele>
        <time>2024-05-11T12:56:01Z</time>
      </trkpt>
      <trkpt lat="43.20335" lon="2.31345">
        <ele>117.7</ele>
        <time>2024-05-11T12:56:02Z</time>
      </trkpt>
      <trkpt lat="43.20333" lon="2.31348">
        <ele>117.5</ele>
        <time>2024-05-11T12:56:03Z</time>
      </trkpt>
      <trkpt lat="43.20331" lon="2.31351">
        <ele>117.5</ele>
        <time>2024-05-11T12:56:04Z</time>
      </trkpt>
      <trkpt lat="43.20329" lon="2.31353">
        <ele>117.6</ele>
        <time>2024-05-11T12:56:05Z</time>
      </trkpt>
      <trkpt lat="43.20328" lon="2.31355">
        <ele>117.6</ele>
        <time>2024-05-11T12:56:06Z</time>
      </trkpt>
      <trkpt lat="43.20326" lon="2.31356">
        <ele>117.7</ele>
        <time>2024-05-11T12:56:07Z</time>
      </trkpt>
      <trkpt lat="43.20326" lon="2.31356">
        <ele>117.7</ele>
        <time>2024-05-11T12:56:08Z</time>
      </trkpt>
      <trkpt lat="43.20326" lon="2.31356">
        <ele>117.7</ele>
        <time>2024-05-11T12:56:09Z</time>
      </trkpt>
      <trkpt lat="43.20326" lon="2.31356">
        <ele>117.7</ele>
        <time>2024-05-11T12:56:10Z</time>
      </trkpt>
      <trkpt lat="43.20326" lon="2.31357">
        <ele>117.7</ele>
        <time>2024-05-11T12:56:11Z</time>
      </trkpt>
      <trkpt lat="43.20325" lon="2.31357">
        <ele>117.7</ele>
        <time>2024-05-11T12:56:12Z</time>
      </trkpt>
      <trkpt lat="43.20323" lon="2.3136">
        <ele>117.8</ele>
        <time>2024-05-11T12:56:13Z</time>
      </trkpt>
      <trkpt lat="43.20319" lon="2.31363">
        <ele>118.1</ele>
        <time>2024-05-11T12:56:14Z</time>
      </trkpt>
      <trkpt lat="43.20313" lon="2.31368">
        <ele>118.5</ele>
        <time>2024-05-11T12:56:15Z</time>
      </trkpt>
      <trkpt lat="43.20306" lon="2.31372">
        <ele>119</ele>
        <time>2024-05-11T12:56:16Z</time>
      </trkpt>
      <trkpt lat="43.20299" lon="2.31375">
        <ele>118.9</ele>
        <time>2024-05-11T12:56:17Z</time>
      </trkpt>
      <trkpt lat="43.20294" lon="2.31376">
        <ele>118.8</ele>
        <time>2024-05-11T12:56:18Z</time>
      </trkpt>
      <trkpt lat="43.20292" lon="2.31376">
        <ele>118.7</ele>
        <time>2024-05-11T12:56:19Z</time>
      </trkpt>
      <trkpt lat="43.2029" lon="2.31376">
        <ele>118.7</ele>
        <time>2024-05-11T12:56:20Z</time>
      </trkpt>
      <trkpt lat="43.20288" lon="2.31377">
        <ele>118.6</ele>
        <time>2024-05-11T12:56:21Z</time>
      </trkpt>
      <trkpt lat="43.20287" lon="2.31377">
        <ele>118.6</ele>
        <time>2024-05-11T12:56:22Z</time>
      </trkpt>
      <trkpt lat="43.20287" lon="2.31377">
        <ele>118.6</ele>
        <time>2024-05-11T12:56:23Z</time>
      </trkpt>
      <trkpt lat="43.20288" lon="2.31377">
        <ele>118.6</ele>
        <time>2024-05-11T12:56:24Z</time>
      </trkpt>
      <trkpt lat="43.20288" lon="2.31376">
        <ele>118.7</ele>
        <time>2024-05-11T12:56:25Z</time>
      </trkpt>
      <trkpt lat="43.20288" lon="2.31376">
        <ele>118.7</ele>
        <time>2024-05-11T12:56:26Z</time>
      </trkpt>
      <trkpt lat="43.20287" lon="2.31376">
        <ele>118.6</ele>
        <time>2024-05-11T12:56:27Z</time>
      </trkpt>
      <trkpt lat="43.20283" lon="2.31374">
        <ele>118.6</ele>
        <time>2024-05-11T12:56:28Z</time>
      </trkpt>
      <trkpt lat="43.20277" lon="2.31372">
        <ele>118.6</ele>
        <time>2024-05-11T12:56:29Z</time>
      </trkpt>
      <trkpt lat="43.20268" lon="2.31369">
        <ele>118.8</ele>
        <time>2024-05-11T12:56:30Z</time>
      </trkpt>
      <trkpt lat="43.20259" lon="2.31367">
        <ele>118.9</ele>
        <time>2024-05-11T12:56:31Z</time>
      </trkpt>
      <trkpt lat="43.20248" lon="2.31369">
        <ele>119</ele>
        <time>2024-05-11T12:56:32Z</time>
      </trkpt>
      <trkpt lat="43.20236" lon="2.31373">
        <ele>119</ele>
        <time>2024-05-11T12:56:33Z</time>
      </trkpt>
      <trkpt lat="43.20227" lon="2.3138">
        <ele>119</ele>
        <time>2024-05-11T12:56:34Z</time>
      </trkpt>
      <trkpt lat="43.20219" lon="2.3139">
        <ele>119</ele>
        <time>2024-05-11T12:56:35Z</time>
      </trkpt>
      <trkpt lat="43.20213" lon="2.31403">
        <ele>119</ele>
        <time>2024-05-11T12:56:36Z</time>
      </trkpt>
      <trkpt lat="43.20209" lon="2.31418">
        <ele>119</ele>
        <time>2024-05-11T12:56:37Z</time>
      </trkpt>
      <trkpt lat="43.20208" lon="2.31434">
        <ele>119</ele>
        <time>2024-05-11T12:56:38Z</time>
      </trkpt>
      <trkpt lat="43.20209" lon="2.3145">
        <ele>118.9</ele>
        <time>2024-05-11T12:56:39Z</time>
      </trkpt>
      <trkpt lat="43.20213" lon="2.31468">
        <ele>118.4</ele>
        <time>2024-05-11T12:56:40Z</time>
      </trkpt>
      <trkpt lat="43.20218" lon="2.31486">
        <ele>118.5</ele>
        <time>2024-05-11T12:56:41Z</time>
      </trkpt>
      <trkpt lat="43.20222" lon="2.31505">
        <ele>119</ele>
        <time>2024-05-11T12:56:42Z</time>
      </trkpt>
      <trkpt lat="43.20224" lon="2.31524">
        <ele>118.9</ele>
        <time>2024-05-11T12:56:43Z</time>
      </trkpt>
      <trkpt lat="43.20224" lon="2.31542">
        <ele>118.9</ele>
        <time>2024-05-11T12:56:44Z</time>
      </trkpt>
      <trkpt lat="43.20221" lon="2.3156">
        <ele>119</ele>
        <time>2024-05-11T12:56:45Z</time>
      </trkpt>
      <trkpt lat="43.20217" lon="2.31579">
        <ele>119</ele>
        <time>2024-05-11T12:56:46Z</time>
      </trkpt>
      <trkpt lat="43.20212" lon="2.316">
        <ele>119.4</ele>
        <time>2024-05-11T12:56:47Z</time>
      </trkpt>
      <trkpt lat="43.20208" lon="2.31621">
        <ele>119.9</ele>
        <time>2024-05-11T12:56:48Z</time>
      </trkpt>
      <trkpt lat="43.20204" lon="2.31643">
        <ele>120.8</ele>
        <time>2024-05-11T12:56:49Z</time>
      </trkpt>
      <trkpt lat="43.202" lon="2.31667">
        <ele>121.8</ele>
        <time>2024-05-11T12:56:50Z</time>
      </trkpt>
      <trkpt lat="43.20198" lon="2.31692">
        <ele>122.7</ele>
        <time>2024-05-11T12:56:51Z</time>
      </trkpt>
      <trkpt lat="43.20196" lon="2.31718">
        <ele>123.7</ele>
        <time>2024-05-11T12:56:52Z</time>
      </trkpt>
      <trkpt lat="43.20195" lon="2.31744">
        <ele>124.7</ele>
        <time>2024-05-11T12:56:53Z</time>
      </trkpt>
      <trkpt lat="43.20193" lon="2.31771">
        <ele>125.5</ele>
        <time>2024-05-11T12:56:54Z</time>
      </trkpt>
      <trkpt lat="43.20193" lon="2.31799">
        <ele>126.6</ele>
        <time>2024-05-11T12:56:55Z</time>
      </trkpt>
      <trkpt lat="43.20192" lon="2.31826">
        <ele>126.6</ele>
        <time>2024-05-11T12:56:56Z</time>
      </trkpt>
      <trkpt lat="43.20191" lon="2.31854">
        <ele>126.7</ele>
        <time>2024-05-11T12:56:57Z</time>
      </trkpt>
      <trkpt lat="43.20189" lon="2.31882">
        <ele>125.3</ele>
        <time>2024-05-11T12:56:58Z</time>
      </trkpt>
      <trkpt lat="43.20189" lon="2.31911">
        <ele>123.5</ele>
        <time>2024-05-11T12:56:59Z</time>
      </trkpt>
      <trkpt lat="43.20188" lon="2.3194">
        <ele>125.4</ele>
        <time>2024-05-11T12:57:00Z</time>
      </trkpt>
      <trkpt lat="43.20187" lon="2.31969">
        <ele>128.6</ele>
        <time>2024-05-11T12:57:01Z</time>
      </trkpt>
      <trkpt lat="43.20186" lon="2.31998">
        <ele>129.1</ele>
        <time>2024-05-11T12:57:02Z</time>
      </trkpt>
      <trkpt lat="43.20185" lon="2.32027">
        <ele>129.6</ele>
        <time>2024-05-11T12:57:03Z</time>
      </trkpt>
      <trkpt lat="43.20184" lon="2.32057">
        <ele>131</ele>
        <time>2024-05-11T12:57:04Z</time>
      </trkpt>
      <trkpt lat="43.20182" lon="2.32087">
        <ele>132</ele>
        <time>2024-05-11T12:57:05Z</time>
      </trkpt>
      <trkpt lat="43.2018" lon="2.32118">
        <ele>133.6</ele>
        <time>2024-05-11T12:57:06Z</time>
      </trkpt>
      <trkpt lat="43.20177" lon="2.3215">
        <ele>135.8</ele>
        <time>2024-05-11T12:57:07Z</time>
      </trkpt>
      <trkpt lat="43.20174" lon="2.32181">
        <ele>136.4</ele>
        <time>2024-05-11T12:57:08Z</time>
      </trkpt>
      <trkpt lat="43.20168" lon="2.32213">
        <ele>136.1</ele>
        <time>2024-05-11T12:57:09Z</time>
      </trkpt>
      <trkpt lat="43.20161" lon="2.32243">
        <ele>137.1</ele>
        <time>2024-05-11T12:57:10Z</time>
      </trkpt>
      <trkpt lat="43.20153" lon="2.32271">
        <ele>138.5</ele>
        <time>2024-05-11T12:57:11Z</time>
      </trkpt>
      <trkpt lat="43.20144" lon="2.32298">
        <ele>136.6</ele>
        <time>2024-05-11T12:57:12Z</time>
      </trkpt>
      <trkpt lat="43.20135" lon="2.32324">
        <ele>136.5</ele>
        <time>2024-05-11T12:57:13Z</time>
      </trkpt>
      <trkpt lat="43.20125" lon="2.3235">
        <ele>137.4</ele>
        <time>2024-05-11T12:57:14Z</time>
      </trkpt>
      <trkpt lat="43.20114" lon="2.32376">
        <ele>134.2</ele>
        <time>2024-05-11T12:57:15Z</time>
      </trkpt>
      <trkpt lat="43.20103" lon="2.32403">
        <ele>135.2</ele>
        <time>2024-05-11T12:57:16Z</time>
      </trkpt>
      <trkpt lat="43.20092" lon="2.32429">
        <ele>133.7</ele>
        <time>2024-05-11T12:57:17Z</time>
      </trkpt>
      <trkpt lat="43.20081" lon="2.32455">
        <ele>131.8</ele>
        <time>2024-05-11T12:57:18Z</time>
      </trkpt>
      <trkpt lat="43.2007" lon="2.32479">
        <ele>132</ele>
        <time>2024-05-11T12:57:19Z</time>
      </trkpt>
      <trkpt lat="43.20059" lon="2.32503">
        <ele>129.3</ele>
        <time>2024-05-11T12:57:20Z</time>
      </trkpt>
      <trkpt lat="43.20048" lon="2.32525">
        <ele>129.1</ele>
        <time>2024-05-11T12:57:21Z</time>
      </trkpt>
      <trkpt lat="43.20038" lon="2.32544">
        <ele>128.1</ele>
        <time>2024-05-11T12:57:22Z</time>
      </trkpt>
      <trkpt lat="43.2003" lon="2.32559">
        <ele>125.9</ele>
        <time>2024-05-11T12:57:23Z</time>
      </trkpt>
      <trkpt lat="43.20021" lon="2.32574">
        <ele>125.4</ele>
        <time>2024-05-11T12:57:24Z</time>
      </trkpt>
      <trkpt lat="43.20012" lon="2.32588">
        <ele>124.3</ele>
        <time>2024-05-11T12:57:25Z</time>
      </trkpt>
      <trkpt lat="43.20003" lon="2.32601">
        <ele>123.2</ele>
        <time>2024-05-11T12:57:26Z</time>
      </trkpt>
      <trkpt lat="43.19995" lon="2.32612">
        <ele>122.5</ele>
        <time>2024-05-11T12:57:27Z</time>
      </trkpt>
      <trkpt lat="43.19988" lon="2.32621">
        <ele>122.3</ele>
        <time>2024-05-11T12:57:28Z</time>
      </trkpt>
      <trkpt lat="43.19982" lon="2.3263">
        <ele>121.5</ele>
        <time>2024-05-11T12:57:29Z</time>
      </trkpt>
      <trkpt lat="43.19975" lon="2.32639">
        <ele>120.1</ele>
        <time>2024-05-11T12:57:30Z</time>
      </trkpt>
      <trkpt lat="43.19969" lon="2.32647">
        <ele>120.4</ele>
        <time>2024-05-11T12:57:31Z</time>
      </trkpt>
      <trkpt lat="43.19961" lon="2.32655">
        <ele>120.6</ele>
        <time>2024-05-11T12:57:32Z</time>
      </trkpt>
      <trkpt lat="43.19955" lon="2.32663">
        <ele>119.9</ele>
        <time>2024-05-11T12:57:33Z</time>
      </trkpt>
      <trkpt lat="43.1995" lon="2.32669">
        <ele>119.2</ele>
        <time>2024-05-11T12:57:34Z</time>
      </trkpt>
      <trkpt lat="43.19946" lon="2.32674">
        <ele>119</ele>
        <time>2024-05-11T12:57:35Z</time>
      </trkpt>
      <trkpt lat="43.19944" lon="2.32678">
        <ele>119</ele>
        <time>2024-05-11T12:57:36Z</time>
      </trkpt>
      <trkpt lat="43.19941" lon="2.32681">
        <ele>119.1</ele>
        <time>2024-05-11T12:57:37Z</time>
      </trkpt>
      <trkpt lat="43.1994" lon="2.32683">
        <ele>119.1</ele>
        <time>2024-05-11T12:57:38Z</time>
      </trkpt>
      <trkpt lat="43.19938" lon="2.32686">
        <ele>119.1</ele>
        <time>2024-05-11T12:57:39Z</time>
      </trkpt>
      <trkpt lat="43.19937" lon="2.32688">
        <ele>119.1</ele>
        <time>2024-05-11T12:57:40Z</time>
      </trkpt>
      <trkpt lat="43.19936" lon="2.32689">
        <ele>119.1</ele>
        <time>2024-05-11T12:57:41Z</time>
      </trkpt>
      <trkpt lat="43.19936" lon="2.32689">
        <ele>119.1</ele>
        <time>2024-05-11T12:57:42Z</time>
      </trkpt>
      <trkpt lat="43.19936" lon="2.32689">
        <ele>119.1</ele>
        <time>2024-05-11T12:57:43Z</time>
      </trkpt>
      <trkpt lat="43.19936" lon="2.32689">
        <ele>119.1</ele>
        <time>2024-05-11T12:57:44Z</time>
      </trkpt>
      <trkpt lat="43.19937" lon="2.32689">
        <ele>119.1</ele>
        <time>2024-05-11T12:57:45Z</time>
      </trkpt>
      <trkpt lat="43.19937" lon="2.3269">
        <ele>119.1</ele>
        <time>2024-05-11T12:57:46Z</time>
      </trkpt>
      <trkpt lat="43.19937" lon="2.3269">
        <ele>119.1</ele>
        <time>2024-05-11T12:57:47Z</time>
      </trkpt>
      <trkpt lat="43.19938" lon="2.3269">
        <ele>119.1</ele>
        <time>2024-05-11T12:57:48Z</time>
      </trkpt>
      <trkpt lat="43.19938" lon="2.3269">
        <ele>119.1</ele>
        <time>2024-05-11T12:57:49Z</time>
      </trkpt>
      <trkpt lat="43.19938" lon="2.3269">
        <ele>119.1</ele>
        <time>2024-05-11T12:57:50Z</time>
      </trkpt>
      <trkpt lat="43.19938" lon="2.3269">
        <ele>119.1</ele>
        <time>2024-05-11T12:57:51Z</time>
      </trkpt>
      <trkpt lat="43.19938" lon="2.32689">
        <ele>119.1</ele>
        <time>2024-05-11T12:57:52Z</time>
      </trkpt>
      <trkpt lat="43.19938" lon="2.32689">
        <ele>119.1</ele>
        <time>2024-05-11T12:57:53Z</time>
      </trkpt>
      <trkpt lat="43.19938" lon="2.32689">
        <ele>119.1</ele>
        <time>2024-05-11T12:57:54Z</time>
      </trkpt>
      <trkpt lat="43.19938" lon="2.32689">
        <ele>119.1</ele>
        <time>2024-05-11T12:57:55Z</time>
      </trkpt>
      <trkpt lat="43.19938" lon="2.32689">
        <ele>119.1</ele>
        <time>2024-05-11T12:57:56Z</time>
      </trkpt>
      <trkpt lat="43.19938" lon="2.32689">
        <ele>119.1</ele>
        <time>2024-05-11T12:57:57Z</time>
      </trkpt>
      <trkpt lat="43.19938" lon="2.32689">
        <ele>119.1</ele>
        <time>2024-05-11T12:57:58Z</time>
      </trkpt>
      <trkpt lat="43.19938" lon="2.32689">
        <ele>119.1</ele>
        <time>2024-05-11T12:57:59Z</time>
      </trkpt>
      <trkpt lat="43.19938" lon="2.32689">
        <ele>119.1</ele>
        <time>2024-05-11T12:58:00Z</time>
      </trkpt>
      <trkpt lat="43.19938" lon="2.32689">
        <ele>119.1</ele>
        <time>2024-05-11T12:58:01Z</time>
      </trkpt>
      <trkpt lat="43.19938" lon="2.32689">
        <ele>119.1</ele>
        <time>2024-05-11T12:58:02Z</time>
      </trkpt>
      <trkpt lat="43.19938" lon="2.32689">
        <ele>119.1</ele>
        <time>2024-05-11T12:58:03Z</time>
      </trkpt>
      <trkpt lat="43.19938" lon="2.32689">
        <ele>119.1</ele>
        <time>2024-05-11T12:58:04Z</time>
      </trkpt>
      <trkpt lat="43.19938" lon="2.32689">
        <ele>119.1</ele>
        <time>2024-05-11T12:58:05Z</time>
      </trkpt>
      <trkpt lat="43.19938" lon="2.32689">
        <ele>119.1</ele>
        <time>2024-05-11T12:58:06Z</time>
      </trkpt>
      <trkpt lat="43.19938" lon="2.32689">
        <ele>119.1</ele>
        <time>2024-05-11T12:58:07Z</time>
      </trkpt>
      <trkpt lat="43.19938" lon="2.32689">
        <ele>119.1</ele>
        <time>2024-05-11T12:58:08Z</time>
      </trkpt>
      <trkpt lat="43.19938" lon="2.32689">
        <ele>119.1</ele>
        <time>2024-05-11T12:58:09Z</time>
      </trkpt>
      <trkpt lat="43.19938" lon="2.32689">
        <ele>119.1</ele>
        <time>2024-05-11T12:58:10Z</time>
      </trkpt>
      <trkpt lat="43.19938" lon="2.32689">
        <ele>119.1</ele>
        <time>2024-05-11T12:58:11Z</time>
      </trkpt>
      <trkpt lat="43.19938" lon="2.32689">
        <ele>119.1</ele>
        <time>2024-05-11T12:58:12Z</time>
      </trkpt>
      <trkpt lat="43.19938" lon="2.32689">
        <ele>119.1</ele>
        <time>2024-05-11T12:58:13Z</time>
      </trkpt>
      <trkpt lat="43.19938" lon="2.32689">
        <ele>119.1</ele>
        <time>2024-05-11T12:58:14Z</time>
      </trkpt>
      <trkpt lat="43.19938" lon="2.32689">
        <ele>119.1</ele>
        <time>2024-05-11T12:58:15Z</time>
      </trkpt>
      <trkpt lat="43.19937" lon="2.3269">
        <ele>119.1</ele>
        <time>2024-05-11T12:58:16Z</time>
      </trkpt>
      <trkpt lat="43.19936" lon="2.32692">
        <ele>119.1</ele>
        <time>2024-05-11T12:58:17Z</time>
      </trkpt>
      <trkpt lat="43.19934" lon="2.32696">
        <ele>118.9</ele>
        <time>2024-05-11T12:58:18Z</time>
      </trkpt>
      <trkpt lat="43.19931" lon="2.32706">
        <ele>118.6</ele>
        <time>2024-05-11T12:58:19Z</time>
      </trkpt>
      <trkpt lat="43.1993" lon="2.32715">
        <ele>118.3</ele>
        <time>2024-05-11T12:58:20Z</time>
      </trkpt>
      <trkpt lat="43.19931" lon="2.32724">
        <ele>117.9</ele>
        <time>2024-05-11T12:58:21Z</time>
      </trkpt>
      <trkpt lat="43.19934" lon="2.32733">
        <ele>117.6</ele>
        <time>2024-05-11T12:58:22Z</time>
      </trkpt>
      <trkpt lat="43.19939" lon="2.32742">
        <ele>117.3</ele>
        <time>2024-05-11T12:58:23Z</time>
      </trkpt>
      <trkpt lat="43.19946" lon="2.32751">
        <ele>116.9</ele>
        <time>2024-05-11T12:58:24Z</time>
      </trkpt>
      <trkpt lat="43.19954" lon="2.32762">
        <ele>116.7</ele>
        <time>2024-05-11T12:58:25Z</time>
      </trkpt>
      <trkpt lat="43.19961" lon="2.32771">
        <ele>116.4</ele>
        <time>2024-05-11T12:58:26Z</time>
      </trkpt>
      <trkpt lat="43.19969" lon="2.32782">
        <ele>116.1</ele>
        <time>2024-05-11T12:58:27Z</time>
      </trkpt>
      <trkpt lat="43.19977" lon="2.32793">
        <ele>116.1</ele>
        <time>2024-05-11T12:58:28Z</time>
      </trkpt>
      <trkpt lat="43.19986" lon="2.32806">
        <ele>116</ele>
        <time>2024-05-11T12:58:29Z</time>
      </trkpt>
      <trkpt lat="43.19996" lon="2.32818">
        <ele>115.6</ele>
        <time>2024-05-11T12:58:30Z</time>
      </trkpt>
      <trkpt lat="43.20005" lon="2.3283">
        <ele>115.1</ele>
        <time>2024-05-11T12:58:31Z</time>
      </trkpt>
      <trkpt lat="43.20014" lon="2.32842">
        <ele>114.8</ele>
        <time>2024-05-11T12:58:32Z</time>
      </trkpt>
      <trkpt lat="43.20023" lon="2.32854">
        <ele>114.4</ele>
        <time>2024-05-11T12:58:33Z</time>
      </trkpt>
      <trkpt lat="43.20032" lon="2.32866">
        <ele>114.3</ele>
        <time>2024-05-11T12:58:34Z</time>
      </trkpt>
      <trkpt lat="43.20042" lon="2.32878">
        <ele>114.5</ele>
        <time>2024-05-11T12:58:35Z</time>
      </trkpt>
      <trkpt lat="43.20052" lon="2.32888">
        <ele>114.2</ele>
        <time>2024-05-11T12:58:36Z</time>
      </trkpt>
      <trkpt lat="43.20062" lon="2.32898">
        <ele>113.4</ele>
        <time>2024-05-11T12:58:37Z</time>
      </trkpt>
      <trkpt lat="43.20074" lon="2.32907">
        <ele>113.1</ele>
        <time>2024-05-11T12:58:38Z</time>
      </trkpt>
      <trkpt lat="43.20085" lon="2.32915">
        <ele>113.1</ele>
        <time>2024-05-11T12:58:39Z</time>
      </trkpt>
      <trkpt lat="43.20096" lon="2.32922">
        <ele>112.9</ele>
        <time>2024-05-11T12:58:40Z</time>
      </trkpt>
      <trkpt lat="43.20106" lon="2.3293">
        <ele>112.7</ele>
        <time>2024-05-11T12:58:41Z</time>
      </trkpt>
      <trkpt lat="43.20116" lon="2.32937">
        <ele>112.7</ele>
        <time>2024-05-11T12:58:42Z</time>
      </trkpt>
      <trkpt lat="43.20124" lon="2.32943">
        <ele>112.5</ele>
        <time>2024-05-11T12:58:43Z</time>
      </trkpt>
      <trkpt lat="43.20133" lon="2.32949">
        <ele>112.5</ele>
        <time>2024-05-11T12:58:44Z</time>
      </trkpt>
      <trkpt lat="43.20141" lon="2.32955">
        <ele>112.7</ele>
        <time>2024-05-11T12:58:45Z</time>
      </trkpt>
      <trkpt lat="43.20146" lon="2.32958">
        <ele>112.8</ele>
        <time>2024-05-11T12:58:46Z</time>
      </trkpt>
      <trkpt lat="43.2015" lon="2.32962">
        <ele>112.8</ele>
        <time>2024-05-11T12:58:47Z</time>
      </trkpt>
      <trkpt lat="43.20155" lon="2.32965">
        <ele>112.8</ele>
        <time>2024-05-11T12:58:48Z</time>
      </trkpt>
      <trkpt lat="43.20159" lon="2.32968">
        <ele>112.9</ele>
        <time>2024-05-11T12:58:49Z</time>
      </trkpt>
      <trkpt lat="43.20164" lon="2.32971">
        <ele>112.9</ele>
        <time>2024-05-11T12:58:50Z</time>
      </trkpt>
      <trkpt lat="43.20169" lon="2.32976">
        <ele>112.9</ele>
        <time>2024-05-11T12:58:51Z</time>
      </trkpt>
      <trkpt lat="43.20174" lon="2.3298">
        <ele>113</ele>
        <time>2024-05-11T12:58:52Z</time>
      </trkpt>
      <trkpt lat="43.2018" lon="2.32986">
        <ele>113</ele>
        <time>2024-05-11T12:58:53Z</time>
      </trkpt>
      <trkpt lat="43.20187" lon="2.32993">
        <ele>113</ele>
        <time>2024-05-11T12:58:54Z</time>
      </trkpt>
      <trkpt lat="43.20195" lon="2.33001">
        <ele>113</ele>
        <time>2024-05-11T12:58:55Z</time>
      </trkpt>
      <trkpt lat="43.20204" lon="2.3301">
        <ele>113</ele>
        <time>2024-05-11T12:58:56Z</time>
      </trkpt>
      <trkpt lat="43.20213" lon="2.33021">
        <ele>112.9</ele>
        <time>2024-05-11T12:58:57Z</time>
      </trkpt>
      <trkpt lat="43.20224" lon="2.33032">
        <ele>112.8</ele>
        <time>2024-05-11T12:58:58Z</time>
      </trkpt>
      <trkpt lat="43.20234" lon="2.33043">
        <ele>112.6</ele>
        <time>2024-05-11T12:58:59Z</time>
      </trkpt>
      <trkpt lat="43.20244" lon="2.33054">
        <ele>112.6</ele>
        <time>2024-05-11T12:59:00Z</time>
      </trkpt>
      <trkpt lat="43.20256" lon="2.33066">
        <ele>112.5</ele>
        <time>2024-05-11T12:59:01Z</time>
      </trkpt>
      <trkpt lat="43.20268" lon="2.33078">
        <ele>112.6</ele>
        <time>2024-05-11T12:59:02Z</time>
      </trkpt>
      <trkpt lat="43.2028" lon="2.33091">
        <ele>112.5</ele>
        <time>2024-05-11T12:59:03Z</time>
      </trkpt>
      <trkpt lat="43.20291" lon="2.33103">
        <ele>112.3</ele>
        <time>2024-05-11T12:59:04Z</time>
      </trkpt>
      <trkpt lat="43.20302" lon="2.33115">
        <ele>112.6</ele>
        <time>2024-05-11T12:59:05Z</time>
      </trkpt>
      <trkpt lat="43.20311" lon="2.33125">
        <ele>112.6</ele>
        <time>2024-05-11T12:59:06Z</time>
      </trkpt>
      <trkpt lat="43.20321" lon="2.33136">
        <ele>112.6</ele>
        <time>2024-05-11T12:59:07Z</time>
      </trkpt>
      <trkpt lat="43.20332" lon="2.33147">
        <ele>112.7</ele>
        <time>2024-05-11T12:59:08Z</time>
      </trkpt>
      <trkpt lat="43.20342" lon="2.33159">
        <ele>112.5</ele>
        <time>2024-05-11T12:59:09Z</time>
      </trkpt>
      <trkpt lat="43.20353" lon="2.33171">
        <ele>112.6</ele>
        <time>2024-05-11T12:59:10Z</time>
      </trkpt>
      <trkpt lat="43.20364" lon="2.33183">
        <ele>112.4</ele>
        <time>2024-05-11T12:59:11Z</time>
      </trkpt>
      <trkpt lat="43.20375" lon="2.33195">
        <ele>112.5</ele>
        <time>2024-05-11T12:59:12Z</time>
      </trkpt>
      <trkpt lat="43.20385" lon="2.33207">
        <ele>112.4</ele>
        <time>2024-05-11T12:59:13Z</time>
      </trkpt>
      <trkpt lat="43.20394" lon="2.33219">
        <ele>112.3</ele>
        <time>2024-05-11T12:59:14Z</time>
      </trkpt>
      <trkpt lat="43.20403" lon="2.33229">
        <ele>112.3</ele>
        <time>2024-05-11T12:59:15Z</time>
      </trkpt>
      <trkpt lat="43.20412" lon="2.33239">
        <ele>112.2</ele>
        <time>2024-05-11T12:59:16Z</time>
      </trkpt>
      <trkpt lat="43.2042" lon="2.33249">
        <ele>112.1</ele>
        <time>2024-05-11T12:59:17Z</time>
      </trkpt>
      <trkpt lat="43.20426" lon="2.33258">
        <ele>112.1</ele>
        <time>2024-05-11T12:59:18Z</time>
      </trkpt>
      <trkpt lat="43.20431" lon="2.33266">
        <ele>112.2</ele>
        <time>2024-05-11T12:59:19Z</time>
      </trkpt>
      <trkpt lat="43.20434" lon="2.33271">
        <ele>112.3</ele>
        <time>2024-05-11T12:59:20Z</time>
      </trkpt>
      <trkpt lat="43.20436" lon="2.33275">
        <ele>112.4</ele>
        <time>2024-05-11T12:59:21Z</time>
      </trkpt>
      <trkpt lat="43.20437" lon="2.33278">
        <ele>112.5</ele>
        <time>2024-05-11T12:59:22Z</time>
      </trkpt>
      <trkpt lat="43.20437" lon="2.33279">
        <ele>112.5</ele>
        <time>2024-05-11T12:59:23Z</time>
      </trkpt>
      <trkpt lat="43.20437" lon="2.33278">
        <ele>112.5</ele>
        <time>2024-05-11T12:59:24Z</time>
      </trkpt>
      <trkpt lat="43.20438" lon="2.33278">
        <ele>112.5</ele>
        <time>2024-05-11T12:59:25Z</time>
      </trkpt>
      <trkpt lat="43.20438" lon="2.33278">
        <ele>112.5</ele>
        <time>2024-05-11T12:59:26Z</time>
      </trkpt>
      <trkpt lat="43.20438" lon="2.33279">
        <ele>112.5</ele>
        <time>2024-05-11T12:59:27Z</time>
      </trkpt>
      <trkpt lat="43.20437" lon="2.33279">
        <ele>112.5</ele>
        <time>2024-05-11T12:59:28Z</time>
      </trkpt>
      <trkpt lat="43.20437" lon="2.33279">
        <ele>112.5</ele>
        <time>2024-05-11T12:59:29Z</time>
      </trkpt>
      <trkpt lat="43.20436" lon="2.33279">
        <ele>112.4</ele>
        <time>2024-05-11T12:59:30Z</time>
      </trkpt>
      <trkpt lat="43.20436" lon="2.33279">
        <ele>112.4</ele>
        <time>2024-05-11T12:59:31Z</time>
      </trkpt>
      <trkpt lat="43.20436" lon="2.33279">
        <ele>112.4</ele>
        <time>2024-05-11T12:59:32Z</time>
      </trkpt>
      <trkpt lat="43.20437" lon="2.33279">
        <ele>112.5</ele>
        <time>2024-05-11T12:59:33Z</time>
      </trkpt>
      <trkpt lat="43.20437" lon="2.33281">
        <ele>112.4</ele>
        <time>2024-05-11T12:59:34Z</time>
      </trkpt>
      <trkpt lat="43.20438" lon="2.33286">
        <ele>112.5</ele>
        <time>2024-05-11T12:59:35Z</time>
      </trkpt>
      <trkpt lat="43.20439" lon="2.33295">
        <ele>112.5</ele>
        <time>2024-05-11T12:59:36Z</time>
      </trkpt>
      <trkpt lat="43.20437" lon="2.33307">
        <ele>112.2</ele>
        <time>2024-05-11T12:59:37Z</time>
      </trkpt>
      <trkpt lat="43.20434" lon="2.33319">
        <ele>111.8</ele>
        <time>2024-05-11T12:59:38Z</time>
      </trkpt>
      <trkpt lat="43.20429" lon="2.33332">
        <ele>111.4</ele>
        <time>2024-05-11T12:59:39Z</time>
      </trkpt>
      <trkpt lat="43.20421" lon="2.33346">
        <ele>111.3</ele>
        <time>2024-05-11T12:59:40Z</time>
      </trkpt>
      <trkpt lat="43.20411" lon="2.33358">
        <ele>111.1</ele>
        <time>2024-05-11T12:59:41Z</time>
      </trkpt>
      <trkpt lat="43.20401" lon="2.3337">
        <ele>109.2</ele>
        <time>2024-05-11T12:59:42Z</time>
      </trkpt>
      <trkpt lat="43.20391" lon="2.33382">
        <ele>108.1</ele>
        <time>2024-05-11T12:59:43Z</time>
      </trkpt>
      <trkpt lat="43.2038" lon="2.33394">
        <ele>106.7</ele>
        <time>2024-05-11T12:59:44Z</time>
      </trkpt>
      <trkpt lat="43.2037" lon="2.33406">
        <ele>105.1</ele>
        <time>2024-05-11T12:59:45Z</time>
      </trkpt>
      <trkpt lat="43.2036" lon="2.33417">
        <ele>104.1</ele>
        <time>2024-05-11T12:59:46Z</time>
      </trkpt>
      <trkpt lat="43.2035" lon="2.33428">
        <ele>105.5</ele>
        <time>2024-05-11T12:59:47Z</time>
      </trkpt>
      <trkpt lat="43.20341" lon="2.33439">
        <ele>106.5</ele>
        <time>2024-05-11T12:59:48Z</time>
      </trkpt>
      <trkpt lat="43.20331" lon="2.3345">
        <ele>107.2</ele>
        <time>2024-05-11T12:59:49Z</time>
      </trkpt>
      <trkpt lat="43.20321" lon="2.33462">
        <ele>108.6</ele>
        <time>2024-05-11T12:59:50Z</time>
      </trkpt>
      <trkpt lat="43.2031" lon="2.33474">
        <ele>111</ele>
        <time>2024-05-11T12:59:51Z</time>
      </trkpt>
      <trkpt lat="43.20299" lon="2.33487">
        <ele>110.4</ele>
        <time>2024-05-11T12:59:52Z</time>
      </trkpt>
      <trkpt lat="43.20288" lon="2.335">
        <ele>110.9</ele>
        <time>2024-05-11T12:59:53Z</time>
      </trkpt>
      <trkpt lat="43.20276" lon="2.33512">
        <ele>111</ele>
        <time>2024-05-11T12:59:54Z</time>
      </trkpt>
      <trkpt lat="43.20264" lon="2.33526">
        <ele>110.5</ele>
        <time>2024-05-11T12:59:55Z</time>
      </trkpt>
      <trkpt lat="43.20251" lon="2.3354">
        <ele>110.9</ele>
        <time>2024-05-11T12:59:56Z</time>
      </trkpt>
      <trkpt lat="43.20238" lon="2.33555">
        <ele>110.1</ele>
        <time>2024-05-11T12:59:57Z</time>
      </trkpt>
      <trkpt lat="43.20224" lon="2.3357">
        <ele>110</ele>
        <time>2024-05-11T12:59:58Z</time>
      </trkpt>
      <trkpt lat="43.2021" lon="2.33586">
        <ele>110.5</ele>
        <time>2024-05-11T12:59:59Z</time>
      </trkpt>
      <trkpt lat="43.20195" lon="2.33601">
        <ele>111.2</ele>
        <time>2024-05-11T13:00:00Z</time>
      </trkpt>
      <trkpt lat="43.20179" lon="2.33618">
        <ele>111.3</ele>
        <time>2024-05-11T13:00:01Z</time>
      </trkpt>
      <trkpt lat="43.20162" lon="2.33633">
        <ele>112.2</ele>
        <time>2024-05-11T13:00:02Z</time>
      </trkpt>
      <trkpt lat="43.20143" lon="2.33649">
        <ele>111</ele>
        <time>2024-05-11T13:00:03Z</time>
      </trkpt>
      <trkpt lat="43.20124" lon="2.33664">
        <ele>111.8</ele>
        <time>2024-05-11T13:00:04Z</time>
      </trkpt>
      <trkpt lat="43.20105" lon="2.33676">
        <ele>111.1</ele>
        <time>2024-05-11T13:00:05Z</time>
      </trkpt>
      <trkpt lat="43.20086" lon="2.33687">
        <ele>110.8</ele>
        <time>2024-05-11T13:00:06Z</time>
      </trkpt>
      <trkpt lat="43.20068" lon="2.33697">
        <ele>112.2</ele>
        <time>2024-05-11T13:00:07Z</time>
      </trkpt>
      <trkpt lat="43.20051" lon="2.33704">
        <ele>111.8</ele>
        <time>2024-05-11T13:00:08Z</time>
      </trkpt>
      <trkpt lat="43.20037" lon="2.33709">
        <ele>111.2</ele>
        <time>2024-05-11T13:00:09Z</time>
      </trkpt>
      <trkpt lat="43.20026" lon="2.33713">
        <ele>111.5</ele>
        <time>2024-05-11T13:00:10Z</time>
      </trkpt>
      <trkpt lat="43.20017" lon="2.33716">
        <ele>112.5</ele>
        <time>2024-05-11T13:00:11Z</time>
      </trkpt>
      <trkpt lat="43.20011" lon="2.33717">
        <ele>113.2</ele>
        <time>2024-05-11T13:00:12Z</time>
      </trkpt>
      <trkpt lat="43.20005" lon="2.33717">
        <ele>113.8</ele>
        <time>2024-05-11T13:00:13Z</time>
      </trkpt>
      <trkpt lat="43.20002" lon="2.33718">
        <ele>114.2</ele>
        <time>2024-05-11T13:00:14Z</time>
      </trkpt>
      <trkpt lat="43.19999" lon="2.33718">
        <ele>114.4</ele>
        <time>2024-05-11T13:00:15Z</time>
      </trkpt>
      <trkpt lat="43.19997" lon="2.33718">
        <ele>114.4</ele>
        <time>2024-05-11T13:00:16Z</time>
      </trkpt>
      <trkpt lat="43.19995" lon="2.33717">
        <ele>114.2</ele>
        <time>2024-05-11T13:00:17Z</time>
      </trkpt>
      <trkpt lat="43.19991" lon="2.33716">
        <ele>114.1</ele>
        <time>2024-05-11T13:00:18Z</time>
      </trkpt>
      <trkpt lat="43.19986" lon="2.33717">
        <ele>114.2</ele>
        <time>2024-05-11T13:00:19Z</time>
      </trkpt>
      <trkpt lat="43.19979" lon="2.33721">
        <ele>114.8</ele>
        <time>2024-05-11T13:00:20Z</time>
      </trkpt>
      <trkpt lat="43.1997" lon="2.33725">
        <ele>115.3</ele>
        <time>2024-05-11T13:00:21Z</time>
      </trkpt>
      <trkpt lat="43.1996" lon="2.33728">
        <ele>115.6</ele>
        <time>2024-05-11T13:00:22Z</time>
      </trkpt>
      <trkpt lat="43.19948" lon="2.33729">
        <ele>115.5</ele>
        <time>2024-05-11T13:00:23Z</time>
      </trkpt>
      <trkpt lat="43.19934" lon="2.3373">
        <ele>115.3</ele>
        <time>2024-05-11T13:00:24Z</time>
      </trkpt>
      <trkpt lat="43.1992" lon="2.33731">
        <ele>115</ele>
        <time>2024-05-11T13:00:25Z</time>
      </trkpt>
      <trkpt lat="43.19904" lon="2.33732">
        <ele>115</ele>
        <time>2024-05-11T13:00:26Z</time>
      </trkpt>
      <trkpt lat="43.19888" lon="2.33733">
        <ele>115</ele>
        <time>2024-05-11T13:00:27Z</time>
      </trkpt>
      <trkpt lat="43.19871" lon="2.33735">
        <ele>115.6</ele>
        <time>2024-05-11T13:00:28Z</time>
      </trkpt>
      <trkpt lat="43.19853" lon="2.33736">
        <ele>116.1</ele>
        <time>2024-05-11T13:00:29Z</time>
      </trkpt>
      <trkpt lat="43.19835" lon="2.33735">
        <ele>116.3</ele>
        <time>2024-05-11T13:00:30Z</time>
      </trkpt>
      <trkpt lat="43.19815" lon="2.33734">
        <ele>117.3</ele>
        <time>2024-05-11T13:00:31Z</time>
      </trkpt>
      <trkpt lat="43.19795" lon="2.33731">
        <ele>117.6</ele>
        <time>2024-05-11T13:00:32Z</time>
      </trkpt>
      <trkpt lat="43.19775" lon="2.33728">
        <ele>117.3</ele>
        <time>2024-05-11T13:00:33Z</time>
      </trkpt>
      <trkpt lat="43.19756" lon="2.33724">
        <ele>117.9</ele>
        <time>2024-05-11T13:00:34Z</time>
      </trkpt>
      <trkpt lat="43.19737" lon="2.33716">
        <ele>117.9</ele>
        <time>2024-05-11T13:00:35Z</time>
      </trkpt>
      <trkpt lat="43.19717" lon="2.33706">
        <ele>118.5</ele>
        <time>2024-05-11T13:00:36Z</time>
      </trkpt>
      <trkpt lat="43.19697" lon="2.33696">
        <ele>119.1</ele>
        <time>2024-05-11T13:00:37Z</time>
      </trkpt>
      <trkpt lat="43.19677" lon="2.33684">
        <ele>120.4</ele>
        <time>2024-05-11T13:00:38Z</time>
      </trkpt>
      <trkpt lat="43.19656" lon="2.33674">
        <ele>121.7</ele>
        <time>2024-05-11T13:00:39Z</time>
      </trkpt>
      <trkpt lat="43.19636" lon="2.33664">
        <ele>120.2</ele>
        <time>2024-05-11T13:00:40Z</time>
      </trkpt>
      <trkpt lat="43.19615" lon="2.33657">
        <ele>121.3</ele>
        <time>2024-05-11T13:00:41Z</time>
      </trkpt>
      <trkpt lat="43.19593" lon="2.33653">
        <ele>122</ele>
        <time>2024-05-11T13:00:42Z</time>
      </trkpt>
      <trkpt lat="43.19571" lon="2.3365">
        <ele>122</ele>
        <time>2024-05-11T13:00:43Z</time>
      </trkpt>
      <trkpt lat="43.19549" lon="2.33646">
        <ele>121.7</ele>
        <time>2024-05-11T13:00:44Z</time>
      </trkpt>
      <trkpt lat="43.19526" lon="2.33643">
        <ele>122.7</ele>
        <time>2024-05-11T13:00:45Z</time>
      </trkpt>
      <trkpt lat="43.19504" lon="2.3364">
        <ele>123.1</ele>
        <time>2024-05-11T13:00:46Z</time>
      </trkpt>
      <trkpt lat="43.19481" lon="2.33637">
        <ele>124.6</ele>
        <time>2024-05-11T13:00:47Z</time>
      </trkpt>
      <trkpt lat="43.19459" lon="2.33634">
        <ele>124.8</ele>
        <time>2024-05-11T13:00:48Z</time>
      </trkpt>
      <trkpt lat="43.19436" lon="2.33631">
        <ele>123.7</ele>
        <time>2024-05-11T13:00:49Z</time>
      </trkpt>
      <trkpt lat="43.19412" lon="2.33628">
        <ele>122.7</ele>
        <time>2024-05-11T13:00:50Z</time>
      </trkpt>
      <trkpt lat="43.19389" lon="2.33626">
        <ele>121.7</ele>
        <time>2024-05-11T13:00:51Z</time>
      </trkpt>
      <trkpt lat="43.19367" lon="2.33625">
        <ele>121.1</ele>
        <time>2024-05-11T13:00:52Z</time>
      </trkpt>
      <trkpt lat="43.19346" lon="2.33623">
        <ele>121.2</ele>
        <time>2024-05-11T13:00:53Z</time>
      </trkpt>
      <trkpt lat="43.19324" lon="2.33622">
        <ele>121.7</ele>
        <time>2024-05-11T13:00:54Z</time>
      </trkpt>
      <trkpt lat="43.19304" lon="2.33622">
        <ele>122.2</ele>
        <time>2024-05-11T13:00:55Z</time>
      </trkpt>
      <trkpt lat="43.19285" lon="2.33622">
        <ele>123.1</ele>
        <time>2024-05-11T13:00:56Z</time>
      </trkpt>
      <trkpt lat="43.19268" lon="2.33622">
        <ele>123.6</ele>
        <time>2024-05-11T13:00:57Z</time>
      </trkpt>
      <trkpt lat="43.19253" lon="2.33625">
        <ele>123.9</ele>
        <time>2024-05-11T13:00:58Z</time>
      </trkpt>
      <trkpt lat="43.1924" lon="2.33633">
        <ele>124.6</ele>
        <time>2024-05-11T13:00:59Z</time>
      </trkpt>
      <trkpt lat="43.1923" lon="2.33644">
        <ele>125.7</ele>
        <time>2024-05-11T13:01:00Z</time>
      </trkpt>
      <trkpt lat="43.19224" lon="2.3366">
        <ele>126.7</ele>
        <time>2024-05-11T13:01:01Z</time>
      </trkpt>
      <trkpt lat="43.19221" lon="2.33677">
        <ele>127.7</ele>
        <time>2024-05-11T13:01:02Z</time>
      </trkpt>
      <trkpt lat="43.1922" lon="2.33695">
        <ele>128.9</ele>
        <time>2024-05-11T13:01:03Z</time>
      </trkpt>
      <trkpt lat="43.19221" lon="2.33714">
        <ele>130.3</ele>
        <time>2024-05-11T13:01:04Z</time>
      </trkpt>
      <trkpt lat="43.19222" lon="2.33734">
        <ele>131.8</ele>
        <time>2024-05-11T13:01:05Z</time>
      </trkpt>
      <trkpt lat="43.19224" lon="2.33753">
        <ele>133.4</ele>
        <time>2024-05-11T13:01:06Z</time>
      </trkpt>
      <trkpt lat="43.19226" lon="2.33772">
        <ele>135.1</ele>
        <time>2024-05-11T13:01:07Z</time>
      </trkpt>
      <trkpt lat="43.19227" lon="2.3379">
        <ele>136.1</ele>
        <time>2024-05-11T13:01:08Z</time>
      </trkpt>
      <trkpt lat="43.19229" lon="2.33809">
        <ele>137.1</ele>
        <time>2024-05-11T13:01:09Z</time>
      </trkpt>
      <trkpt lat="43.19232" lon="2.33827">
        <ele>137.9</ele>
        <time>2024-05-11T13:01:10Z</time>
      </trkpt>
      <trkpt lat="43.19235" lon="2.33846">
        <ele>138.6</ele>
        <time>2024-05-11T13:01:11Z</time>
      </trkpt>
      <trkpt lat="43.19239" lon="2.33862">
        <ele>139.2</ele>
        <time>2024-05-11T13:01:12Z</time>
      </trkpt>
      <trkpt lat="43.19243" lon="2.33878">
        <ele>140.1</ele>
        <time>2024-05-11T13:01:13Z</time>
      </trkpt>
      <trkpt lat="43.19248" lon="2.33895">
        <ele>141.1</ele>
        <time>2024-05-11T13:01:14Z</time>
      </trkpt>
      <trkpt lat="43.19254" lon="2.33911">
        <ele>142</ele>
        <time>2024-05-11T13:01:15Z</time>
      </trkpt>
      <trkpt lat="43.19261" lon="2.33927">
        <ele>142.9</ele>
        <time>2024-05-11T13:01:16Z</time>
      </trkpt>
      <trkpt lat="43.19268" lon="2.33942">
        <ele>144.2</ele>
        <time>2024-05-11T13:01:17Z</time>
      </trkpt>
      <trkpt lat="43.19277" lon="2.33957">
        <ele>144.9</ele>
        <time>2024-05-11T13:01:18Z</time>
      </trkpt>
      <trkpt lat="43.19286" lon="2.33972">
        <ele>145.9</ele>
        <time>2024-05-11T13:01:19Z</time>
      </trkpt>
      <trkpt lat="43.19296" lon="2.33988">
        <ele>147.2</ele>
        <time>2024-05-11T13:01:20Z</time>
      </trkpt>
      <trkpt lat="43.19304" lon="2.34002">
        <ele>148</ele>
        <time>2024-05-11T13:01:21Z</time>
      </trkpt>
      <trkpt lat="43.19312" lon="2.34015">
        <ele>149.4</ele>
        <time>2024-05-11T13:01:22Z</time>
      </trkpt>
      <trkpt lat="43.19318" lon="2.34026">
        <ele>150.3</ele>
        <time>2024-05-11T13:01:23Z</time>
      </trkpt>
      <trkpt lat="43.19325" lon="2.34037">
        <ele>150.8</ele>
        <time>2024-05-11T13:01:24Z</time>
      </trkpt>
      <trkpt lat="43.19331" lon="2.34048">
        <ele>150.5</ele>
        <time>2024-05-11T13:01:25Z</time>
      </trkpt>
      <trkpt lat="43.19337" lon="2.34058">
        <ele>150.2</ele>
        <time>2024-05-11T13:01:26Z</time>
      </trkpt>
      <trkpt lat="43.19343" lon="2.34068">
        <ele>150.9</ele>
        <time>2024-05-11T13:01:27Z</time>
      </trkpt>
      <trkpt lat="43.1935" lon="2.3408">
        <ele>151.1</ele>
        <time>2024-05-11T13:01:28Z</time>
      </trkpt>
      <trkpt lat="43.19357" lon="2.34091">
        <ele>149.7</ele>
        <time>2024-05-11T13:01:29Z</time>
      </trkpt>
      <trkpt lat="43.19364" lon="2.34103">
        <ele>147.4</ele>
        <time>2024-05-11T13:01:30Z</time>
      </trkpt>
      <trkpt lat="43.19371" lon="2.34115">
        <ele>145.8</ele>
        <time>2024-05-11T13:01:31Z</time>
      </trkpt>
      <trkpt lat="43.19378" lon="2.34126">
        <ele>144.8</ele>
        <time>2024-05-11T13:01:32Z</time>
      </trkpt>
      <trkpt lat="43.19385" lon="2.34138">
        <ele>144.1</ele>
        <time>2024-05-11T13:01:33Z</time>
      </trkpt>
      <trkpt lat="43.19392" lon="2.3415">
        <ele>145.3</ele>
        <time>2024-05-11T13:01:34Z</time>
      </trkpt>
      <trkpt lat="43.194" lon="2.34163">
        <ele>147.1</ele>
        <time>2024-05-11T13:01:35Z</time>
      </trkpt>
      <trkpt lat="43.19407" lon="2.34177">
        <ele>148.2</ele>
        <time>2024-05-11T13:01:36Z</time>
      </trkpt>
      <trkpt lat="43.19414" lon="2.34192">
        <ele>148.9</ele>
        <time>2024-05-11T13:01:37Z</time>
      </trkpt>
      <trkpt lat="43.19421" lon="2.34208">
        <ele>148.4</ele>
        <time>2024-05-11T13:01:38Z</time>
      </trkpt>
      <trkpt lat="43.19427" lon="2.34224">
        <ele>147.6</ele>
        <time>2024-05-11T13:01:39Z</time>
      </trkpt>
      <trkpt lat="43.19431" lon="2.34241">
        <ele>146.8</ele>
        <time>2024-05-11T13:01:40Z</time>
      </trkpt>
      <trkpt lat="43.19434" lon="2.3426">
        <ele>146</ele>
        <time>2024-05-11T13:01:41Z</time>
      </trkpt>
      <trkpt lat="43.19436" lon="2.34279">
        <ele>145.2</ele>
        <time>2024-05-11T13:01:42Z</time>
      </trkpt>
      <trkpt lat="43.19437" lon="2.34299">
        <ele>143.9</ele>
        <time>2024-05-11T13:01:43Z</time>
      </trkpt>
      <trkpt lat="43.19436" lon="2.3432">
        <ele>143.1</ele>
        <time>2024-05-11T13:01:44Z</time>
      </trkpt>
      <trkpt lat="43.19433" lon="2.34343">
        <ele>142.3</ele>
        <time>2024-05-11T13:01:45Z</time>
      </trkpt>
      <trkpt lat="43.19428" lon="2.34369">
        <ele>141</ele>
        <time>2024-05-11T13:01:46Z</time>
      </trkpt>
      <trkpt lat="43.19423" lon="2.34398">
        <ele>139.2</ele>
        <time>2024-05-11T13:01:47Z</time>
      </trkpt>
      <trkpt lat="43.19417" lon="2.34427">
        <ele>138</ele>
        <time>2024-05-11T13:01:48Z</time>
      </trkpt>
      <trkpt lat="43.19411" lon="2.34455">
        <ele>138.9</ele>
        <time>2024-05-11T13:01:49Z</time>
      </trkpt>
      <trkpt lat="43.19405" lon="2.34485">
        <ele>139.3</ele>
        <time>2024-05-11T13:01:50Z</time>
      </trkpt>
      <trkpt lat="43.19398" lon="2.34516">
        <ele>138.4</ele>
        <time>2024-05-11T13:01:51Z</time>
      </trkpt>
      <trkpt lat="43.19392" lon="2.34545">
        <ele>137.3</ele>
        <time>2024-05-11T13:01:52Z</time>
      </trkpt>
      <trkpt lat="43.19387" lon="2.34574">
        <ele>137.3</ele>
        <time>2024-05-11T13:01:53Z</time>
      </trkpt>
      <trkpt lat="43.19383" lon="2.34604">
        <ele>137.7</ele>
        <time>2024-05-11T13:01:54Z</time>
      </trkpt>
      <trkpt lat="43.19382" lon="2.34634">
        <ele>137.5</ele>
        <time>2024-05-11T13:01:55Z</time>
      </trkpt>
      <trkpt lat="43.19383" lon="2.34665">
        <ele>137.2</ele>
        <time>2024-05-11T13:01:56Z</time>
      </trkpt>
      <trkpt lat="43.19387" lon="2.34696">
        <ele>137.9</ele>
        <time>2024-05-11T13:01:57Z</time>
      </trkpt>
      <trkpt lat="43.19393" lon="2.34727">
        <ele>137.6</ele>
        <time>2024-05-11T13:01:58Z</time>
      </trkpt>
      <trkpt lat="43.19401" lon="2.34756">
        <ele>137.1</ele>
        <time>2024-05-11T13:01:59Z</time>
      </trkpt>
      <trkpt lat="43.1941" lon="2.34782">
        <ele>137.8</ele>
        <time>2024-05-11T13:02:00Z</time>
      </trkpt>
      <trkpt lat="43.19418" lon="2.34808">
        <ele>138</ele>
        <time>2024-05-11T13:02:01Z</time>
      </trkpt>
      <trkpt lat="43.19427" lon="2.34832">
        <ele>138</ele>
        <time>2024-05-11T13:02:02Z</time>
      </trkpt>
      <trkpt lat="43.19435" lon="2.34856">
        <ele>137.2</ele>
        <time>2024-05-11T13:02:03Z</time>
      </trkpt>
      <trkpt lat="43.19442" lon="2.34879">
        <ele>136.4</ele>
        <time>2024-05-11T13:02:04Z</time>
      </trkpt>
      <trkpt lat="43.19451" lon="2.34903">
        <ele>135.6</ele>
        <time>2024-05-11T13:02:05Z</time>
      </trkpt>
      <trkpt lat="43.1946" lon="2.34929">
        <ele>134.7</ele>
        <time>2024-05-11T13:02:06Z</time>
      </trkpt>
      <trkpt lat="43.1947" lon="2.34956">
        <ele>133.2</ele>
        <time>2024-05-11T13:02:07Z</time>
      </trkpt>
      <trkpt lat="43.1948" lon="2.34984">
        <ele>131.6</ele>
        <time>2024-05-11T13:02:08Z</time>
      </trkpt>
      <trkpt lat="43.1949" lon="2.35013">
        <ele>130.6</ele>
        <time>2024-05-11T13:02:09Z</time>
      </trkpt>
      <trkpt lat="43.195" lon="2.35043">
        <ele>130</ele>
        <time>2024-05-11T13:02:10Z</time>
      </trkpt>
      <trkpt lat="43.19509" lon="2.35073">
        <ele>129.3</ele>
        <time>2024-05-11T13:02:11Z</time>
      </trkpt>
      <trkpt lat="43.19518" lon="2.35103">
        <ele>128.8</ele>
        <time>2024-05-11T13:02:12Z</time>
      </trkpt>
      <trkpt lat="43.19526" lon="2.35131">
        <ele>128.3</ele>
        <time>2024-05-11T13:02:13Z</time>
      </trkpt>
      <trkpt lat="43.19534" lon="2.3516">
        <ele>126.8</ele>
        <time>2024-05-11T13:02:14Z</time>
      </trkpt>
      <trkpt lat="43.19539" lon="2.35189">
        <ele>126.4</ele>
        <time>2024-05-11T13:02:15Z</time>
      </trkpt>
      <trkpt lat="43.19543" lon="2.35219">
        <ele>127</ele>
        <time>2024-05-11T13:02:16Z</time>
      </trkpt>
      <trkpt lat="43.19547" lon="2.3525">
        <ele>127</ele>
        <time>2024-05-11T13:02:17Z</time>
      </trkpt>
      <trkpt lat="43.19549" lon="2.35281">
        <ele>126.2</ele>
        <time>2024-05-11T13:02:18Z</time>
      </trkpt>
      <trkpt lat="43.19553" lon="2.35312">
        <ele>126.1</ele>
        <time>2024-05-11T13:02:19Z</time>
      </trkpt>
      <trkpt lat="43.19556" lon="2.35343">
        <ele>126</ele>
        <time>2024-05-11T13:02:20Z</time>
      </trkpt>
      <trkpt lat="43.19559" lon="2.35374">
        <ele>126</ele>
        <time>2024-05-11T13:02:21Z</time>
      </trkpt>
      <trkpt lat="43.19562" lon="2.35404">
        <ele>126</ele>
        <time>2024-05-11T13:02:22Z</time>
      </trkpt>
      <trkpt lat="43.19565" lon="2.35434">
        <ele>126</ele>
        <time>2024-05-11T13:02:23Z</time>
      </trkpt>
      <trkpt lat="43.19568" lon="2.35463">
        <ele>126</ele>
        <time>2024-05-11T13:02:24Z</time>
      </trkpt>
      <trkpt lat="43.1957" lon="2.35491">
        <ele>126</ele>
        <time>2024-05-11T13:02:25Z</time>
      </trkpt>
      <trkpt lat="43.19573" lon="2.35516">
        <ele>125.8</ele>
        <time>2024-05-11T13:02:26Z</time>
      </trkpt>
      <trkpt lat="43.19576" lon="2.3554">
        <ele>125.7</ele>
        <time>2024-05-11T13:02:27Z</time>
      </trkpt>
      <trkpt lat="43.19579" lon="2.35563">
        <ele>125.8</ele>
        <time>2024-05-11T13:02:28Z</time>
      </trkpt>
      <trkpt lat="43.19584" lon="2.35584">
        <ele>126</ele>
        <time>2024-05-11T13:02:29Z</time>
      </trkpt>
      <trkpt lat="43.1959" lon="2.35602">
        <ele>125.9</ele>
        <time>2024-05-11T13:02:30Z</time>
      </trkpt>
      <trkpt lat="43.19598" lon="2.35619">
        <ele>126</ele>
        <time>2024-05-11T13:02:31Z</time>
      </trkpt>
      <trkpt lat="43.19606" lon="2.35633">
        <ele>126</ele>
        <time>2024-05-11T13:02:32Z</time>
      </trkpt>
      <trkpt lat="43.19614" lon="2.35646">
        <ele>126</ele>
        <time>2024-05-11T13:02:33Z</time>
      </trkpt>
      <trkpt lat="43.19622" lon="2.35656">
        <ele>126</ele>
        <time>2024-05-11T13:02:34Z</time>
      </trkpt>
      <trkpt lat="43.19629" lon="2.35665">
        <ele>126</ele>
        <time>2024-05-11T13:02:35Z</time>
      </trkpt>
      <trkpt lat="43.19635" lon="2.35674">
        <ele>126</ele>
        <time>2024-05-11T13:02:36Z</time>
      </trkpt>
      <trkpt lat="43.19642" lon="2.35682">
        <ele>125.9</ele>
        <time>2024-05-11T13:02:37Z</time>
      </trkpt>
      <trkpt lat="43.19647" lon="2.3569">
        <ele>126</ele>
        <time>2024-05-11T13:02:38Z</time>
      </trkpt>
      <trkpt lat="43.19653" lon="2.35697">
        <ele>126</ele>
        <time>2024-05-11T13:02:39Z</time>
      </trkpt>
      <trkpt lat="43.1966" lon="2.35705">
        <ele>125.7</ele>
        <time>2024-05-11T13:02:40Z</time>
      </trkpt>
      <trkpt lat="43.19667" lon="2.35714">
        <ele>125.3</ele>
        <time>2024-05-11T13:02:41Z</time>
      </trkpt>
      <trkpt lat="43.19675" lon="2.35724">
        <ele>125.1</ele>
        <time>2024-05-11T13:02:42Z</time>
      </trkpt>
      <trkpt lat="43.19681" lon="2.35733">
        <ele>125.4</ele>
        <time>2024-05-11T13:02:43Z</time>
      </trkpt>
      <trkpt lat="43.19686" lon="2.3574">
        <ele>125.6</ele>
        <time>2024-05-11T13:02:44Z</time>
      </trkpt>
      <trkpt lat="43.19691" lon="2.35746">
        <ele>125.9</ele>
        <time>2024-05-11T13:02:45Z</time>
      </trkpt>
      <trkpt lat="43.19695" lon="2.35752">
        <ele>125.9</ele>
        <time>2024-05-11T13:02:46Z</time>
      </trkpt>
      <trkpt lat="43.19698" lon="2.35758">
        <ele>125.7</ele>
        <time>2024-05-11T13:02:47Z</time>
      </trkpt>
      <trkpt lat="43.19701" lon="2.35764">
        <ele>125.5</ele>
        <time>2024-05-11T13:02:48Z</time>
      </trkpt>
      <trkpt lat="43.19703" lon="2.35769">
        <ele>125.4</ele>
        <time>2024-05-11T13:02:49Z</time>
      </trkpt>
      <trkpt lat="43.19705" lon="2.35774">
        <ele>125.4</ele>
        <time>2024-05-11T13:02:50Z</time>
      </trkpt>
      <trkpt lat="43.19706" lon="2.35777">
        <ele>125.4</ele>
        <time>2024-05-11T13:02:51Z</time>
      </trkpt>
      <trkpt lat="43.19707" lon="2.35779">
        <ele>125.5</ele>
        <time>2024-05-11T13:02:52Z</time>
      </trkpt>
      <trkpt lat="43.19708" lon="2.35781">
        <ele>125.6</ele>
        <time>2024-05-11T13:02:53Z</time>
      </trkpt>
      <trkpt lat="43.19708" lon="2.35783">
        <ele>125.7</ele>
        <time>2024-05-11T13:02:54Z</time>
      </trkpt>
      <trkpt lat="43.19709" lon="2.35785">
        <ele>125.8</ele>
        <time>2024-05-11T13:02:55Z</time>
      </trkpt>
      <trkpt lat="43.19709" lon="2.35787">
        <ele>125.9</ele>
        <time>2024-05-11T13:02:56Z</time>
      </trkpt>
      <trkpt lat="43.19709" lon="2.35793">
        <ele>126.1</ele>
        <time>2024-05-11T13:02:57Z</time>
      </trkpt>
      <trkpt lat="43.19709" lon="2.35803">
        <ele>126.4</ele>
        <time>2024-05-11T13:02:58Z</time>
      </trkpt>
      <trkpt lat="43.19711" lon="2.35814">
        <ele>126.4</ele>
        <time>2024-05-11T13:02:59Z</time>
      </trkpt>
      <trkpt lat="43.19715" lon="2.35823">
        <ele>126.3</ele>
        <time>2024-05-11T13:03:00Z</time>
      </trkpt>
      <trkpt lat="43.19722" lon="2.35831">
        <ele>126.1</ele>
        <time>2024-05-11T13:03:01Z</time>
      </trkpt>
      <trkpt lat="43.19731" lon="2.3584">
        <ele>125.5</ele>
        <time>2024-05-11T13:03:02Z</time>
      </trkpt>
      <trkpt lat="43.19739" lon="2.3585">
        <ele>125.3</ele>
        <time>2024-05-11T13:03:03Z</time>
      </trkpt>
      <trkpt lat="43.19745" lon="2.35863">
        <ele>125.5</ele>
        <time>2024-05-11T13:03:04Z</time>
      </trkpt>
      <trkpt lat="43.1975" lon="2.35879">
        <ele>126</ele>
        <time>2024-05-11T13:03:05Z</time>
      </trkpt>
      <trkpt lat="43.19753" lon="2.35898">
        <ele>126</ele>
        <time>2024-05-11T13:03:06Z</time>
      </trkpt>
      <trkpt lat="43.19756" lon="2.35918">
        <ele>125.8</ele>
        <time>2024-05-11T13:03:07Z</time>
      </trkpt>
      <trkpt lat="43.19761" lon="2.35939">
        <ele>126.2</ele>
        <time>2024-05-11T13:03:08Z</time>
      </trkpt>
      <trkpt lat="43.19766" lon="2.35962">
        <ele>126.8</ele>
        <time>2024-05-11T13:03:09Z</time>
      </trkpt>
      <trkpt lat="43.19773" lon="2.35983">
        <ele>127.4</ele>
        <time>2024-05-11T13:03:10Z</time>
      </trkpt>
      <trkpt lat="43.19782" lon="2.36004">
        <ele>128.1</ele>
        <time>2024-05-11T13:03:11Z</time>
      </trkpt>
      <trkpt lat="43.19793" lon="2.36025">
        <ele>128.9</ele>
        <time>2024-05-11T13:03:12Z</time>
      </trkpt>
      <trkpt lat="43.19804" lon="2.36046">
        <ele>129.7</ele>
        <time>2024-05-11T13:03:13Z</time>
      </trkpt>
      <trkpt lat="43.19817" lon="2.36068">
        <ele>130.9</ele>
        <time>2024-05-11T13:03:14Z</time>
      </trkpt>
      <trkpt lat="43.1983" lon="2.3609">
        <ele>132.1</ele>
        <time>2024-05-11T13:03:15Z</time>
      </trkpt>
      <trkpt lat="43.19843" lon="2.36111">
        <ele>133.3</ele>
        <time>2024-05-11T13:03:16Z</time>
      </trkpt>
      <trkpt lat="43.19856" lon="2.36132">
        <ele>134</ele>
        <time>2024-05-11T13:03:17Z</time>
      </trkpt>
      <trkpt lat="43.1987" lon="2.36154">
        <ele>135.2</ele>
        <time>2024-05-11T13:03:18Z</time>
      </trkpt>
      <trkpt lat="43.19883" lon="2.36177">
        <ele>135.3</ele>
        <time>2024-05-11T13:03:19Z</time>
      </trkpt>
      <trkpt lat="43.19894" lon="2.36201">
        <ele>134.8</ele>
        <time>2024-05-11T13:03:20Z</time>
      </trkpt>
      <trkpt lat="43.19904" lon="2.36226">
        <ele>137.6</ele>
        <time>2024-05-11T13:03:21Z</time>
      </trkpt>
      <trkpt lat="43.19912" lon="2.36252">
        <ele>136.7</ele>
        <time>2024-05-11T13:03:22Z</time>
      </trkpt>
      <trkpt lat="43.19918" lon="2.36278">
        <ele>136</ele>
        <time>2024-05-11T13:03:23Z</time>
      </trkpt>
      <trkpt lat="43.19923" lon="2.36304">
        <ele>136.5</ele>
        <time>2024-05-11T13:03:24Z</time>
      </trkpt>
      <trkpt lat="43.19927" lon="2.36332">
        <ele>135.3</ele>
        <time>2024-05-11T13:03:25Z</time>
      </trkpt>
      <trkpt lat="43.1993" lon="2.36362">
        <ele>135.1</ele>
        <time>2024-05-11T13:03:26Z</time>
      </trkpt>
      <trkpt lat="43.19934" lon="2.36395">
        <ele>133.4</ele>
        <time>2024-05-11T13:03:27Z</time>
      </trkpt>
      <trkpt lat="43.19938" lon="2.36429">
        <ele>131.1</ele>
        <time>2024-05-11T13:03:28Z</time>
      </trkpt>
      <trkpt lat="43.19944" lon="2.36465">
        <ele>131</ele>
        <time>2024-05-11T13:03:29Z</time>
      </trkpt>
      <trkpt lat="43.1995" lon="2.36502">
        <ele>129</ele>
        <time>2024-05-11T13:03:30Z</time>
      </trkpt>
      <trkpt lat="43.19957" lon="2.3654">
        <ele>128.3</ele>
        <time>2024-05-11T13:03:31Z</time>
      </trkpt>
      <trkpt lat="43.19963" lon="2.36577">
        <ele>129.9</ele>
        <time>2024-05-11T13:03:32Z</time>
      </trkpt>
      <trkpt lat="43.1997" lon="2.36615">
        <ele>133.3</ele>
        <time>2024-05-11T13:03:33Z</time>
      </trkpt>
      <trkpt lat="43.19978" lon="2.36654">
        <ele>134.9</ele>
        <time>2024-05-11T13:03:34Z</time>
      </trkpt>
      <trkpt lat="43.19985" lon="2.36692">
        <ele>136.5</ele>
        <time>2024-05-11T13:03:35Z</time>
      </trkpt>
      <trkpt lat="43.19992" lon="2.3673">
        <ele>138.5</ele>
        <time>2024-05-11T13:03:36Z</time>
      </trkpt>
      <trkpt lat="43.19998" lon="2.36765">
        <ele>140.4</ele>
        <time>2024-05-11T13:03:37Z</time>
      </trkpt>
      <trkpt lat="43.20004" lon="2.36799">
        <ele>141.6</ele>
        <time>2024-05-11T13:03:38Z</time>
      </trkpt>
      <trkpt lat="43.2001" lon="2.3683">
        <ele>143.1</ele>
        <time>2024-05-11T13:03:39Z</time>
      </trkpt>
      <trkpt lat="43.20015" lon="2.3686">
        <ele>145.3</ele>
        <time>2024-05-11T13:03:40Z</time>
      </trkpt>
      <trkpt lat="43.2002" lon="2.36888">
        <ele>145.8</ele>
        <time>2024-05-11T13:03:41Z</time>
      </trkpt>
      <trkpt lat="43.20025" lon="2.36914">
        <ele>147.7</ele>
        <time>2024-05-11T13:03:42Z</time>
      </trkpt>
      <trkpt lat="43.20031" lon="2.36937">
        <ele>147.8</ele>
        <time>2024-05-11T13:03:43Z</time>
      </trkpt>
      <trkpt lat="43.20037" lon="2.36959">
        <ele>147.7</ele>
        <time>2024-05-11T13:03:44Z</time>
      </trkpt>
      <trkpt lat="43.20044" lon="2.3698">
        <ele>148.7</ele>
        <time>2024-05-11T13:03:45Z</time>
      </trkpt>
      <trkpt lat="43.20052" lon="2.37">
        <ele>151.5</ele>
        <time>2024-05-11T13:03:46Z</time>
      </trkpt>
      <trkpt lat="43.20061" lon="2.37019">
        <ele>151.2</ele>
        <time>2024-05-11T13:03:47Z</time>
      </trkpt>
      <trkpt lat="43.20072" lon="2.37037">
        <ele>151.7</ele>
        <time>2024-05-11T13:03:48Z</time>
      </trkpt>
      <trkpt lat="43.20083" lon="2.37055">
        <ele>154.9</ele>
        <time>2024-05-11T13:03:49Z</time>
      </trkpt>
      <trkpt lat="43.20096" lon="2.37071">
        <ele>154.8</ele>
        <time>2024-05-11T13:03:50Z</time>
      </trkpt>
      <trkpt lat="43.2011" lon="2.37087">
        <ele>158.1</ele>
        <time>2024-05-11T13:03:51Z</time>
      </trkpt>
      <trkpt lat="43.20123" lon="2.37102">
        <ele>159.5</ele>
        <time>2024-05-11T13:03:52Z</time>
      </trkpt>
      <trkpt lat="43.20138" lon="2.37118">
        <ele>161</ele>
        <time>2024-05-11T13:03:53Z</time>
      </trkpt>
      <trkpt lat="43.20153" lon="2.37135">
        <ele>162.9</ele>
        <time>2024-05-11T13:03:54Z</time>
      </trkpt>
      <trkpt lat="43.2017" lon="2.37153">
        <ele>163.5</ele>
        <time>2024-05-11T13:03:55Z</time>
      </trkpt>
      <trkpt lat="43.20186" lon="2.37172">
        <ele>163.7</ele>
        <time>2024-05-11T13:03:56Z</time>
      </trkpt>
      <trkpt lat="43.20202" lon="2.3719">
        <ele>163.3</ele>
        <time>2024-05-11T13:03:57Z</time>
      </trkpt>
      <trkpt lat="43.20218" lon="2.37208">
        <ele>164.1</ele>
        <time>2024-05-11T13:03:58Z</time>
      </trkpt>
      <trkpt lat="43.20232" lon="2.37224">
        <ele>164</ele>
        <time>2024-05-11T13:03:59Z</time>
      </trkpt>
      <trkpt lat="43.20244" lon="2.3724">
        <ele>164.1</ele>
        <time>2024-05-11T13:04:00Z</time>
      </trkpt>
      <trkpt lat="43.20253" lon="2.37252">
        <ele>164.1</ele>
        <time>2024-05-11T13:04:01Z</time>
      </trkpt>
      <trkpt lat="43.20259" lon="2.37262">
        <ele>164.3</ele>
        <time>2024-05-11T13:04:02Z</time>
      </trkpt>
      <trkpt lat="43.20266" lon="2.37272">
        <ele>164.3</ele>
        <time>2024-05-11T13:04:03Z</time>
      </trkpt>
      <trkpt lat="43.20271" lon="2.37281">
        <ele>164.3</ele>
        <time>2024-05-11T13:04:04Z</time>
      </trkpt>
      <trkpt lat="43.20276" lon="2.3729">
        <ele>164.1</ele>
        <time>2024-05-11T13:04:05Z</time>
      </trkpt>
      <trkpt lat="43.20281" lon="2.37299">
        <ele>164.1</ele>
        <time>2024-05-11T13:04:06Z</time>
      </trkpt>
      <trkpt lat="43.20286" lon="2.37311">
        <ele>164.4</ele>
        <time>2024-05-11T13:04:07Z</time>
      </trkpt>
      <trkpt lat="43.20291" lon="2.37323">
        <ele>164.5</ele>
        <time>2024-05-11T13:04:08Z</time>
      </trkpt>
      <trkpt lat="43.20297" lon="2.37337">
        <ele>164.2</ele>
        <time>2024-05-11T13:04:09Z</time>
      </trkpt>
      <trkpt lat="43.20303" lon="2.37352">
        <ele>163.5</ele>
        <time>2024-05-11T13:04:10Z</time>
      </trkpt>
      <trkpt lat="43.20308" lon="2.37367">
        <ele>163.4</ele>
        <time>2024-05-11T13:04:11Z</time>
      </trkpt>
      <trkpt lat="43.20314" lon="2.37382">
        <ele>163.8</ele>
        <time>2024-05-11T13:04:12Z</time>
      </trkpt>
      <trkpt lat="43.20318" lon="2.37394">
        <ele>163.7</ele>
        <time>2024-05-11T13:04:13Z</time>
      </trkpt>
      <trkpt lat="43.20322" lon="2.37403">
        <ele>163.2</ele>
        <time>2024-05-11T13:04:14Z</time>
      </trkpt>
      <trkpt lat="43.20324" lon="2.37408">
        <ele>163</ele>
        <time>2024-05-11T13:04:15Z</time>
      </trkpt>
      <trkpt lat="43.20327" lon="2.37411">
        <ele>162.7</ele>
        <time>2024-05-11T13:04:16Z</time>
      </trkpt>
      <trkpt lat="43.20329" lon="2.37413">
        <ele>162.5</ele>
        <time>2024-05-11T13:04:17Z</time>
      </trkpt>
      <trkpt lat="43.20329" lon="2.37413">
        <ele>162.5</ele>
        <time>2024-05-11T13:04:18Z</time>
      </trkpt>
      <trkpt lat="43.20329" lon="2.37413">
        <ele>162.5</ele>
        <time>2024-05-11T13:04:19Z</time>
      </trkpt>
      <trkpt lat="43.2033" lon="2.37414">
        <ele>162.4</ele>
        <time>2024-05-11T13:04:20Z</time>
      </trkpt>
      <trkpt lat="43.20331" lon="2.37414">
        <ele>162.3</ele>
        <time>2024-05-11T13:04:21Z</time>
      </trkpt>
      <trkpt lat="43.20331" lon="2.37415">
        <ele>162.3</ele>
        <time>2024-05-11T13:04:22Z</time>
      </trkpt>
      <trkpt lat="43.20332" lon="2.37415">
        <ele>162.1</ele>
        <time>2024-05-11T13:04:23Z</time>
      </trkpt>
      <trkpt lat="43.20332" lon="2.37414">
        <ele>162.1</ele>
        <time>2024-05-11T13:04:24Z</time>
      </trkpt>
      <trkpt lat="43.20332" lon="2.37415">
        <ele>162.1</ele>
        <time>2024-05-11T13:04:25Z</time>
      </trkpt>
      <trkpt lat="43.20332" lon="2.37414">
        <ele>162.1</ele>
        <time>2024-05-11T13:04:26Z</time>
      </trkpt>
      <trkpt lat="43.20332" lon="2.37414">
        <ele>162.1</ele>
        <time>2024-05-11T13:04:27Z</time>
      </trkpt>
      <trkpt lat="43.20332" lon="2.37414">
        <ele>162.1</ele>
        <time>2024-05-11T13:04:28Z</time>
      </trkpt>
      <trkpt lat="43.20332" lon="2.37414">
        <ele>162.1</ele>
        <time>2024-05-11T13:04:29Z</time>
      </trkpt>
      <trkpt lat="43.20332" lon="2.37414">
        <ele>162.1</ele>
        <time>2024-05-11T13:04:30Z</time>
      </trkpt>
      <trkpt lat="43.20333" lon="2.37415">
        <ele>162</ele>
        <time>2024-05-11T13:04:31Z</time>
      </trkpt>
      <trkpt lat="43.20335" lon="2.37416">
        <ele>161.9</ele>
        <time>2024-05-11T13:04:32Z</time>
      </trkpt>
      <trkpt lat="43.20337" lon="2.37417">
        <ele>161.7</ele>
        <time>2024-05-11T13:04:33Z</time>
      </trkpt>
      <trkpt lat="43.20339" lon="2.37418">
        <ele>161.6</ele>
        <time>2024-05-11T13:04:34Z</time>
      </trkpt>
      <trkpt lat="43.20342" lon="2.37419">
        <ele>161.3</ele>
        <time>2024-05-11T13:04:35Z</time>
      </trkpt>
      <trkpt lat="43.20346" lon="2.3742">
        <ele>161</ele>
        <time>2024-05-11T13:04:36Z</time>
      </trkpt>
      <trkpt lat="43.20351" lon="2.3742">
        <ele>160.7</ele>
        <time>2024-05-11T13:04:37Z</time>
      </trkpt>
      <trkpt lat="43.20355" lon="2.37418">
        <ele>160.4</ele>
        <time>2024-05-11T13:04:38Z</time>
      </trkpt>
      <trkpt lat="43.2036" lon="2.37412">
        <ele>160.1</ele>
        <time>2024-05-11T13:04:39Z</time>
      </trkpt>
      <trkpt lat="43.20364" lon="2.37406">
        <ele>159.6</ele>
        <time>2024-05-11T13:04:40Z</time>
      </trkpt>
      <trkpt lat="43.20368" lon="2.37397">
        <ele>159.3</ele>
        <time>2024-05-11T13:04:41Z</time>
      </trkpt>
      <trkpt lat="43.20372" lon="2.37386">
        <ele>159.3</ele>
        <time>2024-05-11T13:04:42Z</time>
      </trkpt>
      <trkpt lat="43.20376" lon="2.37374">
        <ele>159.5</ele>
        <time>2024-05-11T13:04:43Z</time>
      </trkpt>
      <trkpt lat="43.2038" lon="2.37363">
        <ele>159.6</ele>
        <time>2024-05-11T13:04:44Z</time>
      </trkpt>
      <trkpt lat="43.20383" lon="2.37352">
        <ele>159.6</ele>
        <time>2024-05-11T13:04:45Z</time>
      </trkpt>
      <trkpt lat="43.20387" lon="2.37341">
        <ele>159.3</ele>
        <time>2024-05-11T13:04:46Z</time>
      </trkpt>
      <trkpt lat="43.20391" lon="2.3733">
        <ele>158.8</ele>
        <time>2024-05-11T13:04:47Z</time>
      </trkpt>
      <trkpt lat="43.20395" lon="2.37319">
        <ele>158.6</ele>
        <time>2024-05-11T13:04:48Z</time>
      </trkpt>
      <trkpt lat="43.20399" lon="2.37307">
        <ele>158.8</ele>
        <time>2024-05-11T13:04:49Z</time>
      </trkpt>
      <trkpt lat="43.20403" lon="2.37295">
        <ele>159.2</ele>
        <time>2024-05-11T13:04:50Z</time>
      </trkpt>
      <trkpt lat="43.20408" lon="2.37282">
        <ele>159</ele>
        <time>2024-05-11T13:04:51Z</time>
      </trkpt>
      <trkpt lat="43.20413" lon="2.37269">
        <ele>157.9</ele>
        <time>2024-05-11T13:04:52Z</time>
      </trkpt>
      <trkpt lat="43.20418" lon="2.37257">
        <ele>156.7</ele>
        <time>2024-05-11T13:04:53Z</time>
      </trkpt>
      <trkpt lat="43.20424" lon="2.37245">
        <ele>155.7</ele>
        <time>2024-05-11T13:04:54Z</time>
      </trkpt>
      <trkpt lat="43.2043" lon="2.37234">
        <ele>155.2</ele>
        <time>2024-05-11T13:04:55Z</time>
      </trkpt>
      <trkpt lat="43.20436" lon="2.37222">
        <ele>155.2</ele>
        <time>2024-05-11T13:04:56Z</time>
      </trkpt>
      <trkpt lat="43.20444" lon="2.37212">
        <ele>154.4</ele>
        <time>2024-05-11T13:04:57Z</time>
      </trkpt>
      <trkpt lat="43.20451" lon="2.37202">
        <ele>153.5</ele>
        <time>2024-05-11T13:04:58Z</time>
      </trkpt>
      <trkpt lat="43.2046" lon="2.37191">
        <ele>152.8</ele>
        <time>2024-05-11T13:04:59Z</time>
      </trkpt>
      <trkpt lat="43.20471" lon="2.37179">
        <ele>151.2</ele>
        <time>2024-05-11T13:05:00Z</time>
      </trkpt>
      <trkpt lat="43.20483" lon="2.37166">
        <ele>149.9</ele>
        <time>2024-05-11T13:05:01Z</time>
      </trkpt>
      <trkpt lat="43.20494" lon="2.37153">
        <ele>149.4</ele>
        <time>2024-05-11T13:05:02Z</time>
      </trkpt>
      <trkpt lat="43.20506" lon="2.37142">
        <ele>148.2</ele>
        <time>2024-05-11T13:05:03Z</time>
      </trkpt>
      <trkpt lat="43.20516" lon="2.37132">
        <ele>147.6</ele>
        <time>2024-05-11T13:05:04Z</time>
      </trkpt>
      <trkpt lat="43.20525" lon="2.37124">
        <ele>146.9</ele>
        <time>2024-05-11T13:05:05Z</time>
      </trkpt>
      <trkpt lat="43.20532" lon="2.37116">
        <ele>146.5</ele>
        <time>2024-05-11T13:05:06Z</time>
      </trkpt>
      <trkpt lat="43.20538" lon="2.37108">
        <ele>146.4</ele>
        <time>2024-05-11T13:05:07Z</time>
      </trkpt>
      <trkpt lat="43.20543" lon="2.37098">
        <ele>146.4</ele>
        <time>2024-05-11T13:05:08Z</time>
      </trkpt>
      <trkpt lat="43.20545" lon="2.37088">
        <ele>146.6</ele>
        <time>2024-05-11T13:05:09Z</time>
      </trkpt>
      <trkpt lat="43.20546" lon="2.37078">
        <ele>146.5</ele>
        <time>2024-05-11T13:05:10Z</time>
      </trkpt>
      <trkpt lat="43.20544" lon="2.37067">
        <ele>146.2</ele>
        <time>2024-05-11T13:05:11Z</time>
      </trkpt>
      <trkpt lat="43.20542" lon="2.37053">
        <ele>145.9</ele>
        <time>2024-05-11T13:05:12Z</time>
      </trkpt>
      <trkpt lat="43.2054" lon="2.37036">
        <ele>145.4</ele>
        <time>2024-05-11T13:05:13Z</time>
      </trkpt>
      <trkpt lat="43.20538" lon="2.37017">
        <ele>144.7</ele>
        <time>2024-05-11T13:05:14Z</time>
      </trkpt>
      <trkpt lat="43.20536" lon="2.36998">
        <ele>144</ele>
        <time>2024-05-11T13:05:15Z</time>
      </trkpt>
      <trkpt lat="43.20535" lon="2.36979">
        <ele>143.5</ele>
        <time>2024-05-11T13:05:16Z</time>
      </trkpt>
      <trkpt lat="43.20535" lon="2.36961">
        <ele>143.1</ele>
        <time>2024-05-11T13:05:17Z</time>
      </trkpt>
      <trkpt lat="43.20536" lon="2.36943">
        <ele>142.9</ele>
        <time>2024-05-11T13:05:18Z</time>
      </trkpt>
      <trkpt lat="43.20538" lon="2.36927">
        <ele>143.3</ele>
        <time>2024-05-11T13:05:19Z</time>
      </trkpt>
      <trkpt lat="43.2054" lon="2.36912">
        <ele>143.5</ele>
        <time>2024-05-11T13:05:20Z</time>
      </trkpt>
      <trkpt lat="43.20543" lon="2.36899">
        <ele>143</ele>
        <time>2024-05-11T13:05:21Z</time>
      </trkpt>
      <trkpt lat="43.20545" lon="2.36887">
        <ele>142.7</ele>
        <time>2024-05-11T13:05:22Z</time>
      </trkpt>
      <trkpt lat="43.20546" lon="2.36879">
        <ele>142.9</ele>
        <time>2024-05-11T13:05:23Z</time>
      </trkpt>
      <trkpt lat="43.20548" lon="2.36871">
        <ele>142.8</ele>
        <time>2024-05-11T13:05:24Z</time>
      </trkpt>
      <trkpt lat="43.20549" lon="2.36864">
        <ele>143</ele>
        <time>2024-05-11T13:05:25Z</time>
      </trkpt>
      <trkpt lat="43.20551" lon="2.36857">
        <ele>142.9</ele>
        <time>2024-05-11T13:05:26Z</time>
      </trkpt>
      <trkpt lat="43.20552" lon="2.36851">
        <ele>143</ele>
        <time>2024-05-11T13:05:27Z</time>
      </trkpt>
      <trkpt lat="43.20555" lon="2.36844">
        <ele>142.7</ele>
        <time>2024-05-11T13:05:28Z</time>
      </trkpt>
      <trkpt lat="43.20557" lon="2.36837">
        <ele>142.4</ele>
        <time>2024-05-11T13:05:29Z</time>
      </trkpt>
      <trkpt lat="43.20559" lon="2.3683">
        <ele>142</ele>
        <time>2024-05-11T13:05:30Z</time>
      </trkpt>
      <trkpt lat="43.20561" lon="2.36824">
        <ele>141.6</ele>
        <time>2024-05-11T13:05:31Z</time>
      </trkpt>
      <trkpt lat="43.20563" lon="2.36817">
        <ele>141.3</ele>
        <time>2024-05-11T13:05:32Z</time>
      </trkpt>
      <trkpt lat="43.20565" lon="2.36811">
        <ele>141</ele>
        <time>2024-05-11T13:05:33Z</time>
      </trkpt>
      <trkpt lat="43.20568" lon="2.36805">
        <ele>140.5</ele>
        <time>2024-05-11T13:05:34Z</time>
      </trkpt>
      <trkpt lat="43.2057" lon="2.36799">
        <ele>140.7</ele>
        <time>2024-05-11T13:05:35Z</time>
      </trkpt>
      <trkpt lat="43.20572" lon="2.36794">
        <ele>140.8</ele>
        <time>2024-05-11T13:05:36Z</time>
      </trkpt>
      <trkpt lat="43.20574" lon="2.36789">
        <ele>141.1</ele>
        <time>2024-05-11T13:05:37Z</time>
      </trkpt>
      <trkpt lat="43.20577" lon="2.36784">
        <ele>141.2</ele>
        <time>2024-05-11T13:05:38Z</time>
      </trkpt>
      <trkpt lat="43.20579" lon="2.36779">
        <ele>141.6</ele>
        <time>2024-05-11T13:05:39Z</time>
      </trkpt>
      <trkpt lat="43.20581" lon="2.36774">
        <ele>141.7</ele>
        <time>2024-05-11T13:05:40Z</time>
      </trkpt>
      <trkpt lat="43.20584" lon="2.36768">
        <ele>141.6</ele>
        <time>2024-05-11T13:05:41Z</time>
      </trkpt>
      <trkpt lat="43.20586" lon="2.36763">
        <ele>141.4</ele>
        <time>2024-05-11T13:05:42Z</time>
      </trkpt>
      <trkpt lat="43.20589" lon="2.36759">
        <ele>141</ele>
        <time>2024-05-11T13:05:43Z</time>
      </trkpt>
      <trkpt lat="43.20591" lon="2.36754">
        <ele>140.8</ele>
        <time>2024-05-11T13:05:44Z</time>
      </trkpt>
      <trkpt lat="43.20593" lon="2.36749">
        <ele>140.6</ele>
        <time>2024-05-11T13:05:45Z</time>
      </trkpt>
      <trkpt lat="43.20595" lon="2.36745">
        <ele>140.4</ele>
        <time>2024-05-11T13:05:46Z</time>
      </trkpt>
      <trkpt lat="43.20598" lon="2.36741">
        <ele>140.2</ele>
        <time>2024-05-11T13:05:47Z</time>
      </trkpt>
      <trkpt lat="43.20601" lon="2.36737">
        <ele>140</ele>
        <time>2024-05-11T13:05:48Z</time>
      </trkpt>
      <trkpt lat="43.20604" lon="2.36733">
        <ele>140.1</ele>
        <time>2024-05-11T13:05:49Z</time>
      </trkpt>
      <trkpt lat="43.20607" lon="2.36729">
        <ele>140.3</ele>
        <time>2024-05-11T13:05:50Z</time>
      </trkpt>
      <trkpt lat="43.20609" lon="2.36726">
        <ele>140.5</ele>
        <time>2024-05-11T13:05:51Z</time>
      </trkpt>
      <trkpt lat="43.2061" lon="2.36724">
        <ele>140.8</ele>
        <time>2024-05-11T13:05:52Z</time>
      </trkpt>
      <trkpt lat="43.20612" lon="2.36721">
        <ele>140.8</ele>
        <time>2024-05-11T13:05:53Z</time>
      </trkpt>
      <trkpt lat="43.20613" lon="2.36719">
        <ele>140.6</ele>
        <time>2024-05-11T13:05:54Z</time>
      </trkpt>
      <trkpt lat="43.20615" lon="2.36717">
        <ele>140.2</ele>
        <time>2024-05-11T13:05:55Z</time>
      </trkpt>
      <trkpt lat="43.20616" lon="2.36715">
        <ele>140</ele>
        <time>2024-05-11T13:05:56Z</time>
      </trkpt>
      <trkpt lat="43.20617" lon="2.36714">
        <ele>139.9</ele>
        <time>2024-05-11T13:05:57Z</time>
      </trkpt>
      <trkpt lat="43.20618" lon="2.36712">
        <ele>139.7</ele>
        <time>2024-05-11T13:05:58Z</time>
      </trkpt>
      <trkpt lat="43.20619" lon="2.3671">
        <ele>139.5</ele>
        <time>2024-05-11T13:05:59Z</time>
      </trkpt>
      <trkpt lat="43.2062" lon="2.36708">
        <ele>139.4</ele>
        <time>2024-05-11T13:06:00Z</time>
      </trkpt>
      <trkpt lat="43.20621" lon="2.36708">
        <ele>139.2</ele>
        <time>2024-05-11T13:06:01Z</time>
      </trkpt>
      <trkpt lat="43.20621" lon="2.36708">
        <ele>139.2</ele>
        <time>2024-05-11T13:06:02Z</time>
      </trkpt>
      <trkpt lat="43.20621" lon="2.36708">
        <ele>139.2</ele>
        <time>2024-05-11T13:06:03Z</time>
      </trkpt>
      <trkpt lat="43.20621" lon="2.36708">
        <ele>139.2</ele>
        <time>2024-05-11T13:06:04Z</time>
      </trkpt>
      <trkpt lat="43.20621" lon="2.36707">
        <ele>139.3</ele>
        <time>2024-05-11T13:06:05Z</time>
      </trkpt>
      <trkpt lat="43.20622" lon="2.36706">
        <ele>139.1</ele>
        <time>2024-05-11T13:06:06Z</time>
      </trkpt>
      <trkpt lat="43.20623" lon="2.36704">
        <ele>139</ele>
        <time>2024-05-11T13:06:07Z</time>
      </trkpt>
      <trkpt lat="43.20625" lon="2.36701">
        <ele>138.8</ele>
        <time>2024-05-11T13:06:08Z</time>
      </trkpt>
      <trkpt lat="43.20626" lon="2.36698">
        <ele>138.7</ele>
        <time>2024-05-11T13:06:09Z</time>
      </trkpt>
      <trkpt lat="43.20627" lon="2.36697">
        <ele>138.6</ele>
        <time>2024-05-11T13:06:10Z</time>
      </trkpt>
      <trkpt lat="43.20627" lon="2.36696">
        <ele>138.6</ele>
        <time>2024-05-11T13:06:11Z</time>
      </trkpt>
      <trkpt lat="43.20627" lon="2.36696">
        <ele>138.6</ele>
        <time>2024-05-11T13:06:12Z</time>
      </trkpt>
      <trkpt lat="43.20627" lon="2.36696">
        <ele>138.6</ele>
        <time>2024-05-11T13:06:13Z</time>
      </trkpt>
      <trkpt lat="43.20627" lon="2.36695">
        <ele>138.7</ele>
        <time>2024-05-11T13:06:14Z</time>
      </trkpt>
      <trkpt lat="43.20628" lon="2.36693">
        <ele>138.6</ele>
        <time>2024-05-11T13:06:15Z</time>
      </trkpt>
      <trkpt lat="43.2063" lon="2.3669">
        <ele>138.4</ele>
        <time>2024-05-11T13:06:16Z</time>
      </trkpt>
      <trkpt lat="43.20632" lon="2.36685">
        <ele>138.2</ele>
        <time>2024-05-11T13:06:17Z</time>
      </trkpt>
      <trkpt lat="43.20633" lon="2.3668">
        <ele>138.3</ele>
        <time>2024-05-11T13:06:18Z</time>
      </trkpt>
      <trkpt lat="43.20634" lon="2.36675">
        <ele>138.3</ele>
        <time>2024-05-11T13:06:19Z</time>
      </trkpt>
      <trkpt lat="43.20633" lon="2.36671">
        <ele>138.5</ele>
        <time>2024-05-11T13:06:20Z</time>
      </trkpt>
      <trkpt lat="43.20631" lon="2.36669">
        <ele>138.8</ele>
        <time>2024-05-11T13:06:21Z</time>
      </trkpt>
      <trkpt lat="43.2063" lon="2.36668">
        <ele>138.9</ele>
        <time>2024-05-11T13:06:22Z</time>
      </trkpt>
      <trkpt lat="43.20628" lon="2.36668">
        <ele>139.1</ele>
        <time>2024-05-11T13:06:23Z</time>
      </trkpt>
      <trkpt lat="43.20627" lon="2.36669">
        <ele>139.2</ele>
        <time>2024-05-11T13:06:24Z</time>
      </trkpt>
      <trkpt lat="43.20627" lon="2.3667">
        <ele>139.2</ele>
        <time>2024-05-11T13:06:25Z</time>
      </trkpt>
      <trkpt lat="43.20627" lon="2.3667">
        <ele>139.2</ele>
        <time>2024-05-11T13:06:26Z</time>
      </trkpt>
      <trkpt lat="43.20627" lon="2.3667">
        <ele>139.2</ele>
        <time>2024-05-11T13:06:27Z</time>
      </trkpt>
      <trkpt lat="43.20627" lon="2.3667">
        <ele>139.2</ele>
        <time>2024-05-11T13:06:28Z</time>
      </trkpt>
      <trkpt lat="43.20627" lon="2.3667">
        <ele>139.2</ele>
        <time>2024-05-11T13:06:29Z</time>
      </trkpt>
      <trkpt lat="43.20627" lon="2.3667">
        <ele>139.2</ele>
        <time>2024-05-11T13:06:30Z</time>
      </trkpt>
      <trkpt lat="43.20626" lon="2.3667">
        <ele>139.3</ele>
        <time>2024-05-11T13:06:31Z</time>
      </trkpt>
      <trkpt lat="43.20626" lon="2.3667">
        <ele>139.3</ele>
        <time>2024-05-11T13:06:32Z</time>
      </trkpt>
      <trkpt lat="43.20626" lon="2.36671">
        <ele>139.3</ele>
        <time>2024-05-11T13:06:33Z</time>
      </trkpt>
      <trkpt lat="43.20625" lon="2.36672">
        <ele>139.4</ele>
        <time>2024-05-11T13:06:34Z</time>
      </trkpt>
      <trkpt lat="43.20624" lon="2.36674">
        <ele>139.5</ele>
        <time>2024-05-11T13:06:35Z</time>
      </trkpt>
      <trkpt lat="43.20623" lon="2.36675">
        <ele>139.6</ele>
        <time>2024-05-11T13:06:36Z</time>
      </trkpt>
      <trkpt lat="43.20622" lon="2.36676">
        <ele>139.7</ele>
        <time>2024-05-11T13:06:37Z</time>
      </trkpt>
      <trkpt lat="43.20622" lon="2.36678">
        <ele>139.7</ele>
        <time>2024-05-11T13:06:38Z</time>
      </trkpt>
      <trkpt lat="43.20621" lon="2.36678">
        <ele>139.8</ele>
        <time>2024-05-11T13:06:39Z</time>
      </trkpt>
      <trkpt lat="43.20621" lon="2.36679">
        <ele>139.8</ele>
        <time>2024-05-11T13:06:40Z</time>
      </trkpt>
      <trkpt lat="43.2062" lon="2.36679">
        <ele>139.9</ele>
        <time>2024-05-11T13:06:41Z</time>
      </trkpt>
      <trkpt lat="43.2062" lon="2.3668">
        <ele>139.9</ele>
        <time>2024-05-11T13:06:42Z</time>
      </trkpt>
      <trkpt lat="43.20619" lon="2.3668">
        <ele>140</ele>
        <time>2024-05-11T13:06:43Z</time>
      </trkpt>
      <trkpt lat="43.20619" lon="2.36681">
        <ele>140</ele>
        <time>2024-05-11T13:06:44Z</time>
      </trkpt>
      <trkpt lat="43.20619" lon="2.36682">
        <ele>140</ele>
        <time>2024-05-11T13:06:45Z</time>
      </trkpt>
      <trkpt lat="43.20617" lon="2.36685">
        <ele>140.2</ele>
        <time>2024-05-11T13:06:46Z</time>
      </trkpt>
      <trkpt lat="43.20615" lon="2.36689">
        <ele>140.5</ele>
        <time>2024-05-11T13:06:47Z</time>
      </trkpt>
      <trkpt lat="43.20613" lon="2.36693">
        <ele>140.7</ele>
        <time>2024-05-11T13:06:48Z</time>
      </trkpt>
      <trkpt lat="43.20612" lon="2.36696">
        <ele>140.9</ele>
        <time>2024-05-11T13:06:49Z</time>
      </trkpt>
      <trkpt lat="43.2061" lon="2.36699">
        <ele>141.1</ele>
        <time>2024-05-11T13:06:50Z</time>
      </trkpt>
      <trkpt lat="43.20608" lon="2.36702">
        <ele>141.2</ele>
        <time>2024-05-11T13:06:51Z</time>
      </trkpt>
      <trkpt lat="43.20606" lon="2.36704">
        <ele>141.4</ele>
        <time>2024-05-11T13:06:52Z</time>
      </trkpt>
      <trkpt lat="43.20605" lon="2.36706">
        <ele>141.4</ele>
        <time>2024-05-11T13:06:53Z</time>
      </trkpt>
      <trkpt lat="43.20603" lon="2.36709">
        <ele>141.6</ele>
        <time>2024-05-11T13:06:54Z</time>
      </trkpt>
      <trkpt lat="43.20601" lon="2.36711">
        <ele>141.7</ele>
        <time>2024-05-11T13:06:55Z</time>
      </trkpt>
      <trkpt lat="43.20599" lon="2.36713">
        <ele>141.9</ele>
        <time>2024-05-11T13:06:56Z</time>
      </trkpt>
      <trkpt lat="43.20597" lon="2.36715">
        <ele>142</ele>
        <time>2024-05-11T13:06:57Z</time>
      </trkpt>
      <trkpt lat="43.20595" lon="2.36715">
        <ele>142.2</ele>
        <time>2024-05-11T13:06:58Z</time>
      </trkpt>
      <trkpt lat="43.20594" lon="2.36716">
        <ele>142.2</ele>
        <time>2024-05-11T13:06:59Z</time>
      </trkpt>
      <trkpt lat="43.20593" lon="2.36716">
        <ele>142.3</ele>
        <time>2024-05-11T13:07:00Z</time>
      </trkpt>
      <trkpt lat="43.20593" lon="2.36716">
        <ele>142.3</ele>
        <time>2024-05-11T13:07:01Z</time>
      </trkpt>
      <trkpt lat="43.20592" lon="2.36716">
        <ele>142.4</ele>
        <time>2024-05-11T13:07:02Z</time>
      </trkpt>
      <trkpt lat="43.20592" lon="2.36716">
        <ele>142.4</ele>
        <time>2024-05-11T13:07:03Z</time>
      </trkpt>
      <trkpt lat="43.20592" lon="2.36715">
        <ele>142.4</ele>
        <time>2024-05-11T13:07:04Z</time>
      </trkpt>
      <trkpt lat="43.20592" lon="2.36715">
        <ele>142.4</ele>
        <time>2024-05-11T13:07:05Z</time>
      </trkpt>
      <trkpt lat="43.20592" lon="2.36715">
        <ele>142.4</ele>
        <time>2024-05-11T13:07:06Z</time>
      </trkpt>
      <trkpt lat="43.20592" lon="2.36715">
        <ele>142.4</ele>
        <time>2024-05-11T13:07:07Z</time>
      </trkpt>
      <trkpt lat="43.20592" lon="2.36715">
        <ele>142.4</ele>
        <time>2024-05-11T13:07:08Z</time>
      </trkpt>
      <trkpt lat="43.20592" lon="2.36715">
        <ele>142.4</ele>
        <time>2024-05-11T13:07:09Z</time>
      </trkpt>
      <trkpt lat="43.20592" lon="2.36715">
        <ele>142.4</ele>
        <time>2024-05-11T13:07:10Z</time>
      </trkpt>
      <trkpt lat="43.20592" lon="2.36716">
        <ele>142.4</ele>
        <time>2024-05-11T13:07:11Z</time>
      </trkpt>
      <trkpt lat="43.20592" lon="2.36716">
        <ele>142.4</ele>
        <time>2024-05-11T13:07:12Z</time>
      </trkpt>
      <trkpt lat="43.20592" lon="2.36716">
        <ele>142.4</ele>
        <time>2024-05-11T13:07:13Z</time>
      </trkpt>
      <trkpt lat="43.20592" lon="2.36716">
        <ele>142.4</ele>
        <time>2024-05-11T13:07:14Z</time>
      </trkpt>
      <trkpt lat="43.20592" lon="2.36716">
        <ele>142.4</ele>
        <time>2024-05-11T13:07:15Z</time>
      </trkpt>
      <trkpt lat="43.20592" lon="2.36716">
        <ele>142.4</ele>
        <time>2024-05-11T13:07:16Z</time>
      </trkpt>
      <trkpt lat="43.20592" lon="2.36716">
        <ele>142.4</ele>
        <time>2024-05-11T13:07:17Z</time>
      </trkpt>
      <trkpt lat="43.20592" lon="2.36716">
        <ele>142.4</ele>
        <time>2024-05-11T13:07:18Z</time>
      </trkpt>
      <trkpt lat="43.20592" lon="2.36716">
        <ele>142.4</ele>
        <time>2024-05-11T13:07:19Z</time>
      </trkpt>
      <trkpt lat="43.20592" lon="2.36716">
        <ele>142.4</ele>
        <time>2024-05-11T13:07:20Z</time>
      </trkpt>
      <trkpt lat="43.20592" lon="2.36716">
        <ele>142.4</ele>
        <time>2024-05-11T13:07:21Z</time>
      </trkpt>
      <trkpt lat="43.20592" lon="2.36716">
        <ele>142.4</ele>
        <time>2024-05-11T13:07:22Z</time>
      </trkpt>
      <trkpt lat="43.20592" lon="2.36716">
        <ele>142.4</ele>
        <time>2024-05-11T13:07:23Z</time>
      </trkpt>
      <trkpt lat="43.20592" lon="2.36716">
        <ele>142.4</ele>
        <time>2024-05-11T13:07:24Z</time>
      </trkpt>
      <trkpt lat="43.20591" lon="2.36716">
        <ele>142.4</ele>
        <time>2024-05-11T13:07:25Z</time>
      </trkpt>
      <trkpt lat="43.20591" lon="2.36716">
        <ele>142.4</ele>
        <time>2024-05-11T13:07:26Z</time>
      </trkpt>
      <trkpt lat="43.20591" lon="2.36716">
        <ele>142.4</ele>
        <time>2024-05-11T13:07:27Z</time>
      </trkpt>
      <trkpt lat="43.20591" lon="2.36716">
        <ele>142.4</ele>
        <time>2024-05-11T13:07:28Z</time>
      </trkpt>
      <trkpt lat="43.20591" lon="2.36716">
        <ele>142.4</ele>
        <time>2024-05-11T13:07:29Z</time>
      </trkpt>
      <trkpt lat="43.20591" lon="2.36716">
        <ele>142.4</ele>
        <time>2024-05-11T13:07:30Z</time>
      </trkpt>
      <trkpt lat="43.20591" lon="2.36716">
        <ele>142.4</ele>
        <time>2024-05-11T13:07:31Z</time>
      </trkpt>
      <trkpt lat="43.20591" lon="2.36716">
        <ele>142.4</ele>
        <time>2024-05-11T13:07:32Z</time>
      </trkpt>
      <trkpt lat="43.20591" lon="2.36716">
        <ele>142.4</ele>
        <time>2024-05-11T13:07:33Z</time>
      </trkpt>
      <trkpt lat="43.20591" lon="2.36716">
        <ele>142.4</ele>
        <time>2024-05-11T13:07:34Z</time>
      </trkpt>
      <trkpt lat="43.20591" lon="2.36716">
        <ele>142.4</ele>
        <time>2024-05-11T13:07:35Z</time>
      </trkpt>
      <trkpt lat="43.20591" lon="2.36716">
        <ele>142.4</ele>
        <time>2024-05-11T13:07:36Z</time>
      </trkpt>
      <trkpt lat="43.20591" lon="2.36716">
        <ele>142.4</ele>
        <time>2024-05-11T13:07:37Z</time>
      </trkpt>
      <trkpt lat="43.20591" lon="2.36716">
        <ele>142.4</ele>
        <time>2024-05-11T13:07:38Z</time>
      </trkpt>
      <trkpt lat="43.20591" lon="2.36716">
        <ele>142.4</ele>
        <time>2024-05-11T13:07:39Z</time>
      </trkpt>
      <trkpt lat="43.20591" lon="2.36716">
        <ele>142.4</ele>
        <time>2024-05-11T13:07:40Z</time>
      </trkpt>
      <trkpt lat="43.20591" lon="2.36716">
        <ele>142.4</ele>
        <time>2024-05-11T13:07:41Z</time>
      </trkpt>
      <trkpt lat="43.20591" lon="2.36716">
        <ele>142.4</ele>
        <time>2024-05-11T13:07:42Z</time>
      </trkpt>
      <trkpt lat="43.20591" lon="2.36716">
        <ele>142.4</ele>
        <time>2024-05-11T13:07:43Z</time>
      </trkpt>
      <trkpt lat="43.20591" lon="2.36716">
        <ele>142.4</ele>
        <time>2024-05-11T13:07:44Z</time>
      </trkpt>
      <trkpt lat="43.20591" lon="2.36716">
        <ele>142.4</ele>
        <time>2024-05-11T13:07:45Z</time>
      </trkpt>
      <trkpt lat="43.20591" lon="2.36716">
        <ele>142.4</ele>
        <time>2024-05-11T13:07:46Z</time>
      </trkpt>
      <trkpt lat="43.20591" lon="2.36716">
        <ele>142.4</ele>
        <time>2024-05-11T13:07:47Z</time>
      </trkpt>
      <trkpt lat="43.20591" lon="2.36716">
        <ele>142.4</ele>
        <time>2024-05-11T13:07:48Z</time>
      </trkpt>
      <trkpt lat="43.20591" lon="2.36716">
        <ele>142.4</ele>
        <time>2024-05-11T13:07:49Z</time>
      </trkpt>
      <trkpt lat="43.20591" lon="2.36716">
        <ele>142.4</ele>
        <time>2024-05-11T13:07:50Z</time>
      </trkpt>
      <trkpt lat="43.20591" lon="2.36716">
        <ele>142.4</ele>
        <time>2024-05-11T13:07:51Z</time>
      </trkpt>
      <trkpt lat="43.20591" lon="2.36716">
        <ele>142.4</ele>
        <time>2024-05-11T13:07:52Z</time>
      </trkpt>
      <trkpt lat="43.20591" lon="2.36716">
        <ele>142.4</ele>
        <time>2024-05-11T13:07:53Z</time>
      </trkpt>
      <trkpt lat="43.20591" lon="2.36716">
        <ele>142.4</ele>
        <time>2024-05-11T13:07:54Z</time>
      </trkpt>
      <trkpt lat="43.20591" lon="2.36716">
        <ele>142.4</ele>
        <time>2024-05-11T13:07:55Z</time>
      </trkpt>
      <trkpt lat="43.20591" lon="2.36716">
        <ele>142.4</ele>
        <time>2024-05-11T13:07:56Z</time>
      </trkpt>
      <trkpt lat="43.20591" lon="2.36716">
        <ele>142.4</ele>
        <time>2024-05-11T13:07:57Z</time>
      </trkpt>
      <trkpt lat="43.20591" lon="2.36716">
        <ele>142.4</ele>
        <time>2024-05-11T13:07:58Z</time>
      </trkpt>
      <trkpt lat="43.20591" lon="2.36716">
        <ele>142.4</ele>
        <time>2024-05-11T13:07:59Z</time>
      </trkpt>
      <trkpt lat="43.20591" lon="2.36716">
        <ele>142.4</ele>
        <time>2024-05-11T13:08:00Z</time>
      </trkpt>
      <trkpt lat="43.20591" lon="2.36716">
        <ele>142.4</ele>
        <time>2024-05-11T13:08:01Z</time>
      </trkpt>
      <trkpt lat="43.20591" lon="2.36716">
        <ele>142.4</ele>
        <time>2024-05-11T13:08:02Z</time>
      </trkpt>
      <trkpt lat="43.20591" lon="2.36716">
        <ele>142.4</ele>
        <time>2024-05-11T13:08:03Z</time>
      </trkpt>
      <trkpt lat="43.20591" lon="2.36716">
        <ele>142.4</ele>
        <time>2024-05-11T13:08:04Z</time>
      </trkpt>
      <trkpt lat="43.20591" lon="2.36716">
        <ele>142.4</ele>
        <time>2024-05-11T13:08:05Z</time>
      </trkpt>
      <trkpt lat="43.20591" lon="2.36716">
        <ele>142.4</ele>
        <time>2024-05-11T13:08:06Z</time>
      </trkpt>
      <trkpt lat="43.20591" lon="2.36716">
        <ele>142.4</ele>
        <time>2024-05-11T13:08:07Z</time>
      </trkpt>
      <trkpt lat="43.20591" lon="2.36716">
        <ele>142.4</ele>
        <time>2024-05-11T13:08:08Z</time>
      </trkpt>
      <trkpt lat="43.20591" lon="2.36716">
        <ele>142.4</ele>
        <time>2024-05-11T13:08:09Z</time>
      </trkpt>
      <trkpt lat="43.20591" lon="2.36716">
        <ele>142.4</ele>
        <time>2024-05-11T13:08:10Z</time>
      </trkpt>
      <trkpt lat="43.20591" lon="2.36716">
        <ele>142.4</ele>
        <time>2024-05-11T13:08:11Z</time>
      </trkpt>
      <trkpt lat="43.20591" lon="2.36716">
        <ele>142.4</ele>
        <time>2024-05-11T13:08:12Z</time>
      </trkpt>
      <trkpt lat="43.20591" lon="2.36716">
        <ele>142.4</ele>
        <time>2024-05-11T13:08:13Z</time>
      </trkpt>
      <trkpt lat="43.20591" lon="2.36716">
        <ele>142.4</ele>
        <time>2024-05-11T13:08:14Z</time>
      </trkpt>
      <trkpt lat="43.20591" lon="2.36716">
        <ele>142.4</ele>
        <time>2024-05-11T13:08:15Z</time>
      </trkpt>
      <trkpt lat="43.20591" lon="2.36716">
        <ele>142.4</ele>
        <time>2024-05-11T13:08:16Z</time>
      </trkpt>
      <trkpt lat="43.20591" lon="2.36716">
        <ele>142.4</ele>
        <time>2024-05-11T13:08:17Z</time>
      </trkpt>
      <trkpt lat="43.20591" lon="2.36716">
        <ele>142.4</ele>
        <time>2024-05-11T13:08:18Z</time>
      </trkpt>
      <trkpt lat="43.20591" lon="2.36716">
        <ele>142.4</ele>
        <time>2024-05-11T13:08:19Z</time>
      </trkpt>
      <trkpt lat="43.20591" lon="2.36716">
        <ele>142.4</ele>
        <time>2024-05-11T13:08:20Z</time>
      </trkpt>
      <trkpt lat="43.20591" lon="2.36716">
        <ele>142.4</ele>
        <time>2024-05-11T13:08:21Z</time>
      </trkpt>
      <trkpt lat="43.20591" lon="2.36716">
        <ele>142.4</ele>
        <time>2024-05-11T13:08:22Z</time>
      </trkpt>
      <trkpt lat="43.20591" lon="2.36716">
        <ele>142.4</ele>
        <time>2024-05-11T13:08:23Z</time>
      </trkpt>
      <trkpt lat="43.20591" lon="2.36716">
        <ele>142.4</ele>
        <time>2024-05-11T13:08:24Z</time>
      </trkpt>
      <trkpt lat="43.20591" lon="2.36716">
        <ele>142.4</ele>
        <time>2024-05-11T13:08:25Z</time>
      </trkpt>
      <trkpt lat="43.20591" lon="2.36716">
        <ele>142.4</ele>
        <time>2024-05-11T13:08:26Z</time>
      </trkpt>
      <trkpt lat="43.20591" lon="2.36716">
        <ele>142.4</ele>
        <time>2024-05-11T13:08:27Z</time>
      </trkpt>
      <trkpt lat="43.20591" lon="2.36716">
        <ele>142.4</ele>
        <time>2024-05-11T13:08:28Z</time>
      </trkpt>
      <trkpt lat="43.20591" lon="2.36716">
        <ele>142.4</ele>
        <time>2024-05-11T13:08:29Z</time>
      </trkpt>
      <trkpt lat="43.20591" lon="2.36716">
        <ele>142.4</ele>
        <time>2024-05-11T13:08:30Z</time>
      </trkpt>
      <trkpt lat="43.20591" lon="2.36716">
        <ele>142.4</ele>
        <time>2024-05-11T13:08:31Z</time>
      </trkpt>
      <trkpt lat="43.20591" lon="2.36716">
        <ele>142.4</ele>
        <time>2024-05-11T13:08:32Z</time>
      </trkpt>
      <trkpt lat="43.20591" lon="2.36716">
        <ele>142.4</ele>
        <time>2024-05-11T13:08:33Z</time>
      </trkpt>
      <trkpt lat="43.20591" lon="2.36716">
        <ele>142.4</ele>
        <time>2024-05-11T13:08:34Z</time>
      </trkpt>
      <trkpt lat="43.20591" lon="2.36716">
        <ele>142.4</ele>
        <time>2024-05-11T13:08:35Z</time>
      </trkpt>
      <trkpt lat="43.20591" lon="2.36716">
        <ele>142.4</ele>
        <time>2024-05-11T13:08:36Z</time>
      </trkpt>
      <trkpt lat="43.20591" lon="2.36716">
        <ele>142.4</ele>
        <time>2024-05-11T13:08:37Z</time>
      </trkpt>
      <trkpt lat="43.20591" lon="2.36716">
        <ele>142.4</ele>
        <time>2024-05-11T13:08:38Z</time>
      </trkpt>
      <trkpt lat="43.20591" lon="2.36716">
        <ele>142.4</ele>
        <time>2024-05-11T13:08:39Z</time>
      </trkpt>
      <trkpt lat="43.20591" lon="2.36716">
        <ele>142.4</ele>
        <time>2024-05-11T13:08:40Z</time>
      </trkpt>
      <trkpt lat="43.20591" lon="2.36716">
        <ele>142.4</ele>
        <time>2024-05-11T13:08:41Z</time>
      </trkpt>
      <trkpt lat="43.20591" lon="2.36716">
        <ele>142.4</ele>
        <time>2024-05-11T13:08:42Z</time>
      </trkpt>
      <trkpt lat="43.20591" lon="2.36716">
        <ele>142.4</ele>
        <time>2024-05-11T13:08:43Z</time>
      </trkpt>
      <trkpt lat="43.20591" lon="2.36716">
        <ele>142.4</ele>
        <time>2024-05-11T13:08:44Z</time>
      </trkpt>
      <trkpt lat="43.20592" lon="2.36717">
        <ele>142.4</ele>
        <time>2024-05-11T13:08:45Z</time>
      </trkpt>
      <trkpt lat="43.20592" lon="2.36717">
        <ele>142.4</ele>
        <time>2024-05-11T13:08:46Z</time>
      </trkpt>
      <trkpt lat="43.20592" lon="2.36717">
        <ele>142.4</ele>
        <time>2024-05-11T13:08:47Z</time>
      </trkpt>
      <trkpt lat="43.20592" lon="2.36717">
        <ele>142.4</ele>
        <time>2024-05-11T13:08:48Z</time>
      </trkpt>
      <trkpt lat="43.20592" lon="2.36717">
        <ele>142.4</ele>
        <time>2024-05-11T13:08:49Z</time>
      </trkpt>
      <trkpt lat="43.20592" lon="2.36717">
        <ele>142.4</ele>
        <time>2024-05-11T13:08:50Z</time>
      </trkpt>
      <trkpt lat="43.20593" lon="2.36717">
        <ele>142.3</ele>
        <time>2024-05-11T13:08:51Z</time>
      </trkpt>
      <trkpt lat="43.20593" lon="2.36717">
        <ele>142.3</ele>
        <time>2024-05-11T13:08:52Z</time>
      </trkpt>
      <trkpt lat="43.20594" lon="2.36717">
        <ele>142.2</ele>
        <time>2024-05-11T13:08:53Z</time>
      </trkpt>
      <trkpt lat="43.20594" lon="2.36717">
        <ele>142.2</ele>
        <time>2024-05-11T13:08:54Z</time>
      </trkpt>
      <trkpt lat="43.20594" lon="2.36716">
        <ele>142.2</ele>
        <time>2024-05-11T13:08:55Z</time>
      </trkpt>
      <trkpt lat="43.20594" lon="2.36716">
        <ele>142.2</ele>
        <time>2024-05-11T13:08:56Z</time>
      </trkpt>
      <trkpt lat="43.20595" lon="2.36716">
        <ele>142.2</ele>
        <time>2024-05-11T13:08:57Z</time>
      </trkpt>
      <trkpt lat="43.20595" lon="2.36716">
        <ele>142.2</ele>
        <time>2024-05-11T13:08:58Z</time>
      </trkpt>
      <trkpt lat="43.20595" lon="2.36716">
        <ele>142.2</ele>
        <time>2024-05-11T13:08:59Z</time>
      </trkpt>
      <trkpt lat="43.20595" lon="2.36716">
        <ele>142.2</ele>
        <time>2024-05-11T13:09:00Z</time>
      </trkpt>
      <trkpt lat="43.20599" lon="2.36729">
        <ele>141.2</ele>
        <time>2024-05-11T14:50:57Z</time>
      </trkpt>
      <trkpt lat="43.20596" lon="2.36712">
        <ele>142.1</ele>
        <time>2024-05-11T14:50:58Z</time>
      </trkpt>
      <trkpt lat="43.20595" lon="2.36714">
        <ele>142.2</ele>
        <time>2024-05-11T14:50:59Z</time>
      </trkpt>
      <trkpt lat="43.20595" lon="2.36714">
        <ele>142.2</ele>
        <time>2024-05-11T14:51:00Z</time>
      </trkpt>
      <trkpt lat="43.20594" lon="2.36721">
        <ele>142.2</ele>
        <time>2024-05-11T14:51:01Z</time>
      </trkpt>
      <trkpt lat="43.20593" lon="2.36713">
        <ele>142.3</ele>
        <time>2024-05-11T14:51:02Z</time>
      </trkpt>
      <trkpt lat="43.20593" lon="2.36712">
        <ele>142.3</ele>
        <time>2024-05-11T14:51:04Z</time>
      </trkpt>
      <trkpt lat="43.20593" lon="2.36713">
        <ele>142.3</ele>
        <time>2024-05-11T14:51:05Z</time>
      </trkpt>
      <trkpt lat="43.20593" lon="2.36712">
        <ele>142.3</ele>
        <time>2024-05-11T14:51:06Z</time>
      </trkpt>
      <trkpt lat="43.20593" lon="2.36712">
        <ele>142.3</ele>
        <time>2024-05-11T14:51:07Z</time>
      </trkpt>
      <trkpt lat="43.20593" lon="2.36712">
        <ele>142.3</ele>
        <time>2024-05-11T14:51:08Z</time>
      </trkpt>
      <trkpt lat="43.20594" lon="2.36712">
        <ele>142.2</ele>
        <time>2024-05-11T14:51:09Z</time>
      </trkpt>
      <trkpt lat="43.20593" lon="2.36711">
        <ele>142.3</ele>
        <time>2024-05-11T14:51:10Z</time>
      </trkpt>
      <trkpt lat="43.20593" lon="2.36711">
        <ele>142.3</ele>
        <time>2024-05-11T14:51:11Z</time>
      </trkpt>
      <trkpt lat="43.20593" lon="2.36711">
        <ele>142.3</ele>
        <time>2024-05-11T14:51:12Z</time>
      </trkpt>
      <trkpt lat="43.20593" lon="2.36711">
        <ele>142.3</ele>
        <time>2024-05-11T14:51:13Z</time>
      </trkpt>
      <trkpt lat="43.20593" lon="2.36711">
        <ele>142.3</ele>
        <time>2024-05-11T14:51:14Z</time>
      </trkpt>
      <trkpt lat="43.20593" lon="2.36711">
        <ele>142.3</ele>
        <time>2024-05-11T14:51:15Z</time>
      </trkpt>
      <trkpt lat="43.20592" lon="2.36711">
        <ele>142.4</ele>
        <time>2024-05-11T14:51:16Z</time>
      </trkpt>
      <trkpt lat="43.2059" lon="2.36712">
        <ele>142.5</ele>
        <time>2024-05-11T14:51:17Z</time>
      </trkpt>
      <trkpt lat="43.20589" lon="2.36713">
        <ele>142.6</ele>
        <time>2024-05-11T14:51:18Z</time>
      </trkpt>
      <trkpt lat="43.20588" lon="2.36713">
        <ele>142.7</ele>
        <time>2024-05-11T14:51:19Z</time>
      </trkpt>
      <trkpt lat="43.20587" lon="2.36713">
        <ele>142.7</ele>
        <time>2024-05-11T14:51:20Z</time>
      </trkpt>
      <trkpt lat="43.20587" lon="2.36714">
        <ele>142.7</ele>
        <time>2024-05-11T14:51:21Z</time>
      </trkpt>
      <trkpt lat="43.20587" lon="2.36714">
        <ele>142.7</ele>
        <time>2024-05-11T14:51:22Z</time>
      </trkpt>
      <trkpt lat="43.20587" lon="2.36714">
        <ele>142.7</ele>
        <time>2024-05-11T14:51:23Z</time>
      </trkpt>
      <trkpt lat="43.20586" lon="2.36713">
        <ele>142.8</ele>
        <time>2024-05-11T14:51:24Z</time>
      </trkpt>
      <trkpt lat="43.20586" lon="2.36713">
        <ele>142.8</ele>
        <time>2024-05-11T14:51:25Z</time>
      </trkpt>
      <trkpt lat="43.20586" lon="2.36713">
        <ele>142.8</ele>
        <time>2024-05-11T14:51:26Z</time>
      </trkpt>
      <trkpt lat="43.20586" lon="2.36713">
        <ele>142.8</ele>
        <time>2024-05-11T14:51:27Z</time>
      </trkpt>
      <trkpt lat="43.20586" lon="2.36713">
        <ele>142.8</ele>
        <time>2024-05-11T14:51:28Z</time>
      </trkpt>
      <trkpt lat="43.20586" lon="2.36712">
        <ele>142.8</ele>
        <time>2024-05-11T14:51:29Z</time>
      </trkpt>
      <trkpt lat="43.20586" lon="2.36712">
        <ele>142.8</ele>
        <time>2024-05-11T14:51:30Z</time>
      </trkpt>
      <trkpt lat="43.20586" lon="2.36712">
        <ele>142.8</ele>
        <time>2024-05-11T14:51:31Z</time>
      </trkpt>
      <trkpt lat="43.20586" lon="2.36712">
        <ele>142.8</ele>
        <time>2024-05-11T14:51:32Z</time>
      </trkpt>
      <trkpt lat="43.20586" lon="2.36712">
        <ele>142.8</ele>
        <time>2024-05-11T14:51:33Z</time>
      </trkpt>
      <trkpt lat="43.20586" lon="2.36714">
        <ele>142.8</ele>
        <time>2024-05-11T14:51:34Z</time>
      </trkpt>
      <trkpt lat="43.20586" lon="2.36714">
        <ele>142.8</ele>
        <time>2024-05-11T14:51:35Z</time>
      </trkpt>
      <trkpt lat="43.20585" lon="2.36715">
        <ele>142.9</ele>
        <time>2024-05-11T14:51:36Z</time>
      </trkpt>
      <trkpt lat="43.20584" lon="2.36715">
        <ele>143</ele>
        <time>2024-05-11T14:51:37Z</time>
      </trkpt>
      <trkpt lat="43.20584" lon="2.36716">
        <ele>143</ele>
        <time>2024-05-11T14:51:38Z</time>
      </trkpt>
      <trkpt lat="43.20584" lon="2.36717">
        <ele>143</ele>
        <time>2024-05-11T14:51:39Z</time>
      </trkpt>
      <trkpt lat="43.20584" lon="2.36717">
        <ele>143</ele>
        <time>2024-05-11T14:51:40Z</time>
      </trkpt>
      <trkpt lat="43.20583" lon="2.36718">
        <ele>143</ele>
        <time>2024-05-11T14:51:41Z</time>
      </trkpt>
      <trkpt lat="43.20583" lon="2.36718">
        <ele>143</ele>
        <time>2024-05-11T14:51:42Z</time>
      </trkpt>
      <trkpt lat="43.20584" lon="2.36718">
        <ele>143</ele>
        <time>2024-05-11T14:51:43Z</time>
      </trkpt>
      <trkpt lat="43.20584" lon="2.36718">
        <ele>143</ele>
        <time>2024-05-11T14:51:44Z</time>
      </trkpt>
      <trkpt lat="43.20584" lon="2.36718">
        <ele>143</ele>
        <time>2024-05-11T14:51:45Z</time>
      </trkpt>
      <trkpt lat="43.20584" lon="2.36718">
        <ele>143</ele>
        <time>2024-05-11T14:51:46Z</time>
      </trkpt>
      <trkpt lat="43.20585" lon="2.36718">
        <ele>142.9</ele>
        <time>2024-05-11T14:51:47Z</time>
      </trkpt>
      <trkpt lat="43.20585" lon="2.36718">
        <ele>142.9</ele>
        <time>2024-05-11T14:51:48Z</time>
      </trkpt>
      <trkpt lat="43.20585" lon="2.36718">
        <ele>142.9</ele>
        <time>2024-05-11T14:51:49Z</time>
      </trkpt>
      <trkpt lat="43.20586" lon="2.36718">
        <ele>142.8</ele>
        <time>2024-05-11T14:51:50Z</time>
      </trkpt>
      <trkpt lat="43.20586" lon="2.36718">
        <ele>142.8</ele>
        <time>2024-05-11T14:51:51Z</time>
      </trkpt>
      <trkpt lat="43.20586" lon="2.36718">
        <ele>142.8</ele>
        <time>2024-05-11T14:51:52Z</time>
      </trkpt>
      <trkpt lat="43.20586" lon="2.36719">
        <ele>142.8</ele>
        <time>2024-05-11T14:51:53Z</time>
      </trkpt>
      <trkpt lat="43.20586" lon="2.36722">
        <ele>142.8</ele>
        <time>2024-05-11T14:51:54Z</time>
      </trkpt>
      <trkpt lat="43.20587" lon="2.36726">
        <ele>142.6</ele>
        <time>2024-05-11T14:51:55Z</time>
      </trkpt>
      <trkpt lat="43.20588" lon="2.36731">
        <ele>142.4</ele>
        <time>2024-05-11T14:51:56Z</time>
      </trkpt>
      <trkpt lat="43.20588" lon="2.36734">
        <ele>142.3</ele>
        <time>2024-05-11T14:51:57Z</time>
      </trkpt>
      <trkpt lat="43.20589" lon="2.36736">
        <ele>142.1</ele>
        <time>2024-05-11T14:51:58Z</time>
      </trkpt>
      <trkpt lat="43.20589" lon="2.36737">
        <ele>142</ele>
        <time>2024-05-11T14:51:59Z</time>
      </trkpt>
      <trkpt lat="43.20588" lon="2.36737">
        <ele>142.2</ele>
        <time>2024-05-11T14:52:00Z</time>
      </trkpt>
      <trkpt lat="43.20588" lon="2.36737">
        <ele>142.2</ele>
        <time>2024-05-11T14:52:01Z</time>
      </trkpt>
      <trkpt lat="43.20588" lon="2.36737">
        <ele>142.2</ele>
        <time>2024-05-11T14:52:02Z</time>
      </trkpt>
      <trkpt lat="43.20588" lon="2.36738">
        <ele>142.2</ele>
        <time>2024-05-11T14:52:03Z</time>
      </trkpt>
      <trkpt lat="43.20588" lon="2.36741">
        <ele>142.1</ele>
        <time>2024-05-11T14:52:04Z</time>
      </trkpt>
      <trkpt lat="43.20589" lon="2.36745">
        <ele>141.8</ele>
        <time>2024-05-11T14:52:05Z</time>
      </trkpt>
      <trkpt lat="43.2059" lon="2.3675">
        <ele>141.3</ele>
        <time>2024-05-11T14:52:06Z</time>
      </trkpt>
      <trkpt lat="43.20589" lon="2.36755">
        <ele>141.2</ele>
        <time>2024-05-11T14:52:07Z</time>
      </trkpt>
      <trkpt lat="43.20585" lon="2.36763">
        <ele>141.7</ele>
        <time>2024-05-11T14:52:08Z</time>
      </trkpt>
      <trkpt lat="43.20581" lon="2.36771">
        <ele>141.8</ele>
        <time>2024-05-11T14:52:09Z</time>
      </trkpt>
      <trkpt lat="43.20576" lon="2.36781">
        <ele>141.8</ele>
        <time>2024-05-11T14:52:10Z</time>
      </trkpt>
      <trkpt lat="43.20571" lon="2.36792">
        <ele>141.3</ele>
        <time>2024-05-11T14:52:11Z</time>
      </trkpt>
      <trkpt lat="43.20567" lon="2.36804">
        <ele>140.9</ele>
        <time>2024-05-11T14:52:12Z</time>
      </trkpt>
      <trkpt lat="43.20562" lon="2.36816">
        <ele>141.7</ele>
        <time>2024-05-11T14:52:13Z</time>
      </trkpt>
      <trkpt lat="43.20557" lon="2.36831">
        <ele>142.6</ele>
        <time>2024-05-11T14:52:14Z</time>
      </trkpt>
      <trkpt lat="43.20553" lon="2.36845">
        <ele>143</ele>
        <time>2024-05-11T14:52:15Z</time>
      </trkpt>
      <trkpt lat="43.20549" lon="2.3686">
        <ele>143.2</ele>
        <time>2024-05-11T14:52:16Z</time>
      </trkpt>
      <trkpt lat="43.20546" lon="2.36876">
        <ele>143</ele>
        <time>2024-05-11T14:52:17Z</time>
      </trkpt>
      <trkpt lat="43.20543" lon="2.36893">
        <ele>143.1</ele>
        <time>2024-05-11T14:52:18Z</time>
      </trkpt>
      <trkpt lat="43.2054" lon="2.3691">
        <ele>143.5</ele>
        <time>2024-05-11T14:52:19Z</time>
      </trkpt>
      <trkpt lat="43.20537" lon="2.36926">
        <ele>143.6</ele>
        <time>2024-05-11T14:52:20Z</time>
      </trkpt>
      <trkpt lat="43.20535" lon="2.36941">
        <ele>143.1</ele>
        <time>2024-05-11T14:52:21Z</time>
      </trkpt>
      <trkpt lat="43.20533" lon="2.36956">
        <ele>143.3</ele>
        <time>2024-05-11T14:52:22Z</time>
      </trkpt>
      <trkpt lat="43.20532" lon="2.36971">
        <ele>143.5</ele>
        <time>2024-05-11T14:52:23Z</time>
      </trkpt>
      <trkpt lat="43.20533" lon="2.36988">
        <ele>144</ele>
        <time>2024-05-11T14:52:24Z</time>
      </trkpt>
      <trkpt lat="43.20535" lon="2.37006">
        <ele>144.5</ele>
        <time>2024-05-11T14:52:25Z</time>
      </trkpt>
      <trkpt lat="43.20537" lon="2.37024">
        <ele>145.2</ele>
        <time>2024-05-11T14:52:26Z</time>
      </trkpt>
      <trkpt lat="43.20539" lon="2.3704">
        <ele>145.6</ele>
        <time>2024-05-11T14:52:27Z</time>
      </trkpt>
      <trkpt lat="43.2054" lon="2.37055">
        <ele>146.1</ele>
        <time>2024-05-11T14:52:28Z</time>
      </trkpt>
      <trkpt lat="43.20541" lon="2.37067">
        <ele>146.5</ele>
        <time>2024-05-11T14:52:29Z</time>
      </trkpt>
      <trkpt lat="43.20542" lon="2.37079">
        <ele>146.8</ele>
        <time>2024-05-11T14:52:30Z</time>
      </trkpt>
      <trkpt lat="43.20541" lon="2.37089">
        <ele>146.8</ele>
        <time>2024-05-11T14:52:31Z</time>
      </trkpt>
      <trkpt lat="43.20538" lon="2.37099">
        <ele>146.7</ele>
        <time>2024-05-11T14:52:32Z</time>
      </trkpt>
      <trkpt lat="43.20532" lon="2.3711">
        <ele>146.7</ele>
        <time>2024-05-11T14:52:33Z</time>
      </trkpt>
      <trkpt lat="43.20524" lon="2.37119">
        <ele>147.2</ele>
        <time>2024-05-11T14:52:34Z</time>
      </trkpt>
      <trkpt lat="43.20515" lon="2.37128">
        <ele>148</ele>
        <time>2024-05-11T14:52:35Z</time>
      </trkpt>
      <trkpt lat="43.20504" lon="2.37139">
        <ele>148.6</ele>
        <time>2024-05-11T14:52:36Z</time>
      </trkpt>
      <trkpt lat="43.20493" lon="2.37151">
        <ele>149.6</ele>
        <time>2024-05-11T14:52:37Z</time>
      </trkpt>
      <trkpt lat="43.20482" lon="2.37163">
        <ele>150.2</ele>
        <time>2024-05-11T14:52:38Z</time>
      </trkpt>
      <trkpt lat="43.20471" lon="2.37176">
        <ele>151.2</ele>
        <time>2024-05-11T14:52:39Z</time>
      </trkpt>
      <trkpt lat="43.20461" lon="2.37187">
        <ele>152.7</ele>
        <time>2024-05-11T14:52:40Z</time>
      </trkpt>
      <trkpt lat="43.20451" lon="2.37197">
        <ele>153.9</ele>
        <time>2024-05-11T14:52:41Z</time>
      </trkpt>
      <trkpt lat="43.20442" lon="2.37208">
        <ele>154.8</ele>
        <time>2024-05-11T14:52:42Z</time>
      </trkpt>
      <trkpt lat="43.20433" lon="2.3722">
        <ele>155.7</ele>
        <time>2024-05-11T14:52:43Z</time>
      </trkpt>
      <trkpt lat="43.20425" lon="2.37234">
        <ele>156.1</ele>
        <time>2024-05-11T14:52:44Z</time>
      </trkpt>
      <trkpt lat="43.20418" lon="2.37248">
        <ele>156.8</ele>
        <time>2024-05-11T14:52:45Z</time>
      </trkpt>
      <trkpt lat="43.20412" lon="2.37261">
        <ele>158.1</ele>
        <time>2024-05-11T14:52:46Z</time>
      </trkpt>
      <trkpt lat="43.20407" lon="2.37273">
        <ele>159.4</ele>
        <time>2024-05-11T14:52:47Z</time>
      </trkpt>
      <trkpt lat="43.20402" lon="2.37285">
        <ele>160.1</ele>
        <time>2024-05-11T14:52:48Z</time>
      </trkpt>
      <trkpt lat="43.20398" lon="2.37295">
        <ele>160</ele>
        <time>2024-05-11T14:52:49Z</time>
      </trkpt>
      <trkpt lat="43.20395" lon="2.37305">
        <ele>159.4</ele>
        <time>2024-05-11T14:52:50Z</time>
      </trkpt>
      <trkpt lat="43.20392" lon="2.37314">
        <ele>159.3</ele>
        <time>2024-05-11T14:52:51Z</time>
      </trkpt>
      <trkpt lat="43.20388" lon="2.37323">
        <ele>159.5</ele>
        <time>2024-05-11T14:52:52Z</time>
      </trkpt>
      <trkpt lat="43.20385" lon="2.37332">
        <ele>159.7</ele>
        <time>2024-05-11T14:52:53Z</time>
      </trkpt>
      <trkpt lat="43.20381" lon="2.37341">
        <ele>160.2</ele>
        <time>2024-05-11T14:52:54Z</time>
      </trkpt>
      <trkpt lat="43.20377" lon="2.37349">
        <ele>160.4</ele>
        <time>2024-05-11T14:52:55Z</time>
      </trkpt>
      <trkpt lat="43.20372" lon="2.37357">
        <ele>160.5</ele>
        <time>2024-05-11T14:52:56Z</time>
      </trkpt>
      <trkpt lat="43.20366" lon="2.37363">
        <ele>160.6</ele>
        <time>2024-05-11T14:52:57Z</time>
      </trkpt>
      <trkpt lat="43.2036" lon="2.37366">
        <ele>160.9</ele>
        <time>2024-05-11T14:52:58Z</time>
      </trkpt>
      <trkpt lat="43.20354" lon="2.37369">
        <ele>161.2</ele>
        <time>2024-05-11T14:52:59Z</time>
      </trkpt>
      <trkpt lat="43.20348" lon="2.37371">
        <ele>161.6</ele>
        <time>2024-05-11T14:53:00Z</time>
      </trkpt>
      <trkpt lat="43.20341" lon="2.37371">
        <ele>162.1</ele>
        <time>2024-05-11T14:53:01Z</time>
      </trkpt>
      <trkpt lat="43.20336" lon="2.3737">
        <ele>162.5</ele>
        <time>2024-05-11T14:53:02Z</time>
      </trkpt>
      <trkpt lat="43.2033" lon="2.37368">
        <ele>162.8</ele>
        <time>2024-05-11T14:53:03Z</time>
      </trkpt>
      <trkpt lat="43.20324" lon="2.37364">
        <ele>163</ele>
        <time>2024-05-11T14:53:04Z</time>
      </trkpt>
      <trkpt lat="43.20316" lon="2.37356">
        <ele>163.3</ele>
        <time>2024-05-11T14:53:05Z</time>
      </trkpt>
      <trkpt lat="43.2031" lon="2.37345">
        <ele>163.7</ele>
        <time>2024-05-11T14:53:06Z</time>
      </trkpt>
      <trkpt lat="43.20303" lon="2.3733">
        <ele>164.2</ele>
        <time>2024-05-11T14:53:07Z</time>
      </trkpt>
      <trkpt lat="43.20294" lon="2.37315">
        <ele>164.5</ele>
        <time>2024-05-11T14:53:08Z</time>
      </trkpt>
      <trkpt lat="43.20284" lon="2.37298">
        <ele>164.2</ele>
        <time>2024-05-11T14:53:09Z</time>
      </trkpt>
      <trkpt lat="43.20275" lon="2.37282">
        <ele>164.1</ele>
        <time>2024-05-11T14:53:10Z</time>
      </trkpt>
      <trkpt lat="43.20264" lon="2.37266">
        <ele>164.3</ele>
        <time>2024-05-11T14:53:11Z</time>
      </trkpt>
      <trkpt lat="43.20252" lon="2.37249">
        <ele>164</ele>
        <time>2024-05-11T14:53:12Z</time>
      </trkpt>
      <trkpt lat="43.20239" lon="2.37232">
        <ele>164.1</ele>
        <time>2024-05-11T14:53:13Z</time>
      </trkpt>
      <trkpt lat="43.20225" lon="2.37215">
        <ele>164</ele>
        <time>2024-05-11T14:53:14Z</time>
      </trkpt>
      <trkpt lat="43.2021" lon="2.37198">
        <ele>163.8</ele>
        <time>2024-05-11T14:53:15Z</time>
      </trkpt>
      <trkpt lat="43.20195" lon="2.37181">
        <ele>163</ele>
        <time>2024-05-11T14:53:16Z</time>
      </trkpt>
      <trkpt lat="43.20179" lon="2.37163">
        <ele>164</ele>
        <time>2024-05-11T14:53:17Z</time>
      </trkpt>
      <trkpt lat="43.20163" lon="2.37143">
        <ele>162.7</ele>
        <time>2024-05-11T14:53:18Z</time>
      </trkpt>
      <trkpt lat="43.20147" lon="2.37125">
        <ele>162.3</ele>
        <time>2024-05-11T14:53:19Z</time>
      </trkpt>
      <trkpt lat="43.20131" lon="2.37107">
        <ele>159.8</ele>
        <time>2024-05-11T14:53:20Z</time>
      </trkpt>
      <trkpt lat="43.20115" lon="2.3709">
        <ele>158.6</ele>
        <time>2024-05-11T14:53:21Z</time>
      </trkpt>
      <trkpt lat="43.20101" lon="2.37073">
        <ele>155.3</ele>
        <time>2024-05-11T14:53:22Z</time>
      </trkpt>
      <trkpt lat="43.20086" lon="2.37055">
        <ele>154.7</ele>
        <time>2024-05-11T14:53:23Z</time>
      </trkpt>
      <trkpt lat="43.20073" lon="2.37037">
        <ele>151.7</ele>
        <time>2024-05-11T14:53:24Z</time>
      </trkpt>
      <trkpt lat="43.20061" lon="2.37016">
        <ele>151.3</ele>
        <time>2024-05-11T14:53:25Z</time>
      </trkpt>
      <trkpt lat="43.2005" lon="2.36994">
        <ele>150.5</ele>
        <time>2024-05-11T14:53:26Z</time>
      </trkpt>
      <trkpt lat="43.20041" lon="2.3697">
        <ele>147.9</ele>
        <time>2024-05-11T14:53:27Z</time>
      </trkpt>
      <trkpt lat="43.20034" lon="2.36946">
        <ele>147.6</ele>
        <time>2024-05-11T14:53:28Z</time>
      </trkpt>
      <trkpt lat="43.20028" lon="2.36922">
        <ele>148</ele>
        <time>2024-05-11T14:53:29Z</time>
      </trkpt>
      <trkpt lat="43.20022" lon="2.36897">
        <ele>146.3</ele>
        <time>2024-05-11T14:53:30Z</time>
      </trkpt>
      <trkpt lat="43.20017" lon="2.36873">
        <ele>145.6</ele>
        <time>2024-05-11T14:53:31Z</time>
      </trkpt>
      <trkpt lat="43.20012" lon="2.36848">
        <ele>144.5</ele>
        <time>2024-05-11T14:53:32Z</time>
      </trkpt>
      <trkpt lat="43.20007" lon="2.36822">
        <ele>142.8</ele>
        <time>2024-05-11T14:53:33Z</time>
      </trkpt>
      <trkpt lat="43.20003" lon="2.36797">
        <ele>141.6</ele>
        <time>2024-05-11T14:53:34Z</time>
      </trkpt>
      <trkpt lat="43.19999" lon="2.36772">
        <ele>140.8</ele>
        <time>2024-05-11T14:53:35Z</time>
      </trkpt>
      <trkpt lat="43.19995" lon="2.36748">
        <ele>139.6</ele>
        <time>2024-05-11T14:53:36Z</time>
      </trkpt>
      <trkpt lat="43.1999" lon="2.36724">
        <ele>138.2</ele>
        <time>2024-05-11T14:53:37Z</time>
      </trkpt>
      <trkpt lat="43.19986" lon="2.36701">
        <ele>137</ele>
        <time>2024-05-11T14:53:38Z</time>
      </trkpt>
      <trkpt lat="43.19981" lon="2.36677">
        <ele>136.2</ele>
        <time>2024-05-11T14:53:39Z</time>
      </trkpt>
      <trkpt lat="43.19977" lon="2.36654">
        <ele>134.9</ele>
        <time>2024-05-11T14:53:40Z</time>
      </trkpt>
      <trkpt lat="43.19973" lon="2.36631">
        <ele>133.7</ele>
        <time>2024-05-11T14:53:41Z</time>
      </trkpt>
      <trkpt lat="43.19968" lon="2.36607">
        <ele>132.7</ele>
        <time>2024-05-11T14:53:42Z</time>
      </trkpt>
      <trkpt lat="43.19964" lon="2.36582">
        <ele>130.2</ele>
        <time>2024-05-11T14:53:43Z</time>
      </trkpt>
      <trkpt lat="43.19959" lon="2.36556">
        <ele>128.1</ele>
        <time>2024-05-11T14:53:44Z</time>
      </trkpt>
      <trkpt lat="43.19954" lon="2.3653">
        <ele>128.9</ele>
        <time>2024-05-11T14:53:45Z</time>
      </trkpt>
      <trkpt lat="43.19949" lon="2.36503">
        <ele>129.2</ele>
        <time>2024-05-11T14:53:46Z</time>
      </trkpt>
      <trkpt lat="43.19945" lon="2.36477">
        <ele>130.7</ele>
        <time>2024-05-11T14:53:47Z</time>
      </trkpt>
      <trkpt lat="43.19941" lon="2.3645">
        <ele>131.1</ele>
        <time>2024-05-11T14:53:48Z</time>
      </trkpt>
      <trkpt lat="43.19937" lon="2.36423">
        <ele>131.1</ele>
        <time>2024-05-11T14:53:49Z</time>
      </trkpt>
      <trkpt lat="43.19934" lon="2.36396">
        <ele>133.3</ele>
        <time>2024-05-11T14:53:50Z</time>
      </trkpt>
      <trkpt lat="43.19931" lon="2.36369">
        <ele>134.8</ele>
        <time>2024-05-11T14:53:51Z</time>
      </trkpt>
      <trkpt lat="43.19928" lon="2.36341">
        <ele>135.2</ele>
        <time>2024-05-11T14:53:52Z</time>
      </trkpt>
      <trkpt lat="43.19924" lon="2.36314">
        <ele>136.2</ele>
        <time>2024-05-11T14:53:53Z</time>
      </trkpt>
      <trkpt lat="43.1992" lon="2.36287">
        <ele>136.2</ele>
        <time>2024-05-11T14:53:54Z</time>
      </trkpt>
      <trkpt lat="43.19915" lon="2.36261">
        <ele>136.3</ele>
        <time>2024-05-11T14:53:55Z</time>
      </trkpt>
      <trkpt lat="43.19908" lon="2.36236">
        <ele>137.5</ele>
        <time>2024-05-11T14:53:56Z</time>
      </trkpt>
      <trkpt lat="43.19899" lon="2.36212">
        <ele>136.1</ele>
        <time>2024-05-11T14:53:57Z</time>
      </trkpt>
      <trkpt lat="43.19889" lon="2.3619">
        <ele>134.3</ele>
        <time>2024-05-11T14:53:58Z</time>
      </trkpt>
      <trkpt lat="43.19878" lon="2.36168">
        <ele>135.6</ele>
        <time>2024-05-11T14:53:59Z</time>
      </trkpt>
      <trkpt lat="43.19866" lon="2.36148">
        <ele>134.7</ele>
        <time>2024-05-11T14:54:00Z</time>
      </trkpt>
      <trkpt lat="43.19855" lon="2.36129">
        <ele>133.9</ele>
        <time>2024-05-11T14:54:01Z</time>
      </trkpt>
      <trkpt lat="43.19844" lon="2.36111">
        <ele>133.4</ele>
        <time>2024-05-11T14:54:02Z</time>
      </trkpt>
      <trkpt lat="43.19833" lon="2.36093">
        <ele>132.3</ele>
        <time>2024-05-11T14:54:03Z</time>
      </trkpt>
      <trkpt lat="43.19823" lon="2.36075">
        <ele>131.3</ele>
        <time>2024-05-11T14:54:04Z</time>
      </trkpt>
      <trkpt lat="43.19814" lon="2.36061">
        <ele>130.5</ele>
        <time>2024-05-11T14:54:05Z</time>
      </trkpt>
      <trkpt lat="43.19806" lon="2.36046">
        <ele>129.7</ele>
        <time>2024-05-11T14:54:06Z</time>
      </trkpt>
      <trkpt lat="43.19797" lon="2.36032">
        <ele>129.2</ele>
        <time>2024-05-11T14:54:07Z</time>
      </trkpt>
      <trkpt lat="43.1979" lon="2.36018">
        <ele>128.6</ele>
        <time>2024-05-11T14:54:08Z</time>
      </trkpt>
      <trkpt lat="43.19782" lon="2.36003">
        <ele>128.1</ele>
        <time>2024-05-11T14:54:09Z</time>
      </trkpt>
      <trkpt lat="43.19776" lon="2.35987">
        <ele>127.5</ele>
        <time>2024-05-11T14:54:10Z</time>
      </trkpt>
      <trkpt lat="43.1977" lon="2.35971">
        <ele>127</ele>
        <time>2024-05-11T14:54:11Z</time>
      </trkpt>
      <trkpt lat="43.19765" lon="2.35956">
        <ele>126.7</ele>
        <time>2024-05-11T14:54:12Z</time>
      </trkpt>
      <trkpt lat="43.19761" lon="2.35941">
        <ele>126.3</ele>
        <time>2024-05-11T14:54:13Z</time>
      </trkpt>
      <trkpt lat="43.19758" lon="2.35926">
        <ele>125.9</ele>
        <time>2024-05-11T14:54:14Z</time>
      </trkpt>
      <trkpt lat="43.19755" lon="2.35914">
        <ele>125.9</ele>
        <time>2024-05-11T14:54:15Z</time>
      </trkpt>
      <trkpt lat="43.19753" lon="2.35901">
        <ele>126</ele>
        <time>2024-05-11T14:54:16Z</time>
      </trkpt>
      <trkpt lat="43.19752" lon="2.35892">
        <ele>126.1</ele>
        <time>2024-05-11T14:54:17Z</time>
      </trkpt>
      <trkpt lat="43.19751" lon="2.35882">
        <ele>126</ele>
        <time>2024-05-11T14:54:18Z</time>
      </trkpt>
      <trkpt lat="43.1975" lon="2.35874">
        <ele>126</ele>
        <time>2024-05-11T14:54:19Z</time>
      </trkpt>
      <trkpt lat="43.1975" lon="2.35867">
        <ele>126</ele>
        <time>2024-05-11T14:54:20Z</time>
      </trkpt>
      <trkpt lat="43.1975" lon="2.3586">
        <ele>126</ele>
        <time>2024-05-11T14:54:21Z</time>
      </trkpt>
      <trkpt lat="43.19749" lon="2.35852">
        <ele>125.9</ele>
        <time>2024-05-11T14:54:22Z</time>
      </trkpt>
      <trkpt lat="43.19749" lon="2.35842">
        <ele>126</ele>
        <time>2024-05-11T14:54:23Z</time>
      </trkpt>
      <trkpt lat="43.19751" lon="2.35832">
        <ele>126</ele>
        <time>2024-05-11T14:54:24Z</time>
      </trkpt>
      <trkpt lat="43.19754" lon="2.3582">
        <ele>126.1</ele>
        <time>2024-05-11T14:54:25Z</time>
      </trkpt>
      <trkpt lat="43.19757" lon="2.35809">
        <ele>126</ele>
        <time>2024-05-11T14:54:26Z</time>
      </trkpt>
      <trkpt lat="43.19758" lon="2.35797">
        <ele>125.9</ele>
        <time>2024-05-11T14:54:27Z</time>
      </trkpt>
      <trkpt lat="43.19755" lon="2.35786">
        <ele>125.9</ele>
        <time>2024-05-11T14:54:28Z</time>
      </trkpt>
      <trkpt lat="43.19751" lon="2.35776">
        <ele>126</ele>
        <time>2024-05-11T14:54:29Z</time>
      </trkpt>
      <trkpt lat="43.19744" lon="2.3577">
        <ele>125.9</ele>
        <time>2024-05-11T14:54:30Z</time>
      </trkpt>
      <trkpt lat="43.19734" lon="2.35766">
        <ele>125.8</ele>
        <time>2024-05-11T14:54:31Z</time>
      </trkpt>
      <trkpt lat="43.19724" lon="2.35765">
        <ele>125.6</ele>
        <time>2024-05-11T14:54:32Z</time>
      </trkpt>
      <trkpt lat="43.19714" lon="2.35763">
        <ele>125.5</ele>
        <time>2024-05-11T14:54:33Z</time>
      </trkpt>
      <trkpt lat="43.19703" lon="2.35758">
        <ele>125.6</ele>
        <time>2024-05-11T14:54:34Z</time>
      </trkpt>
      <trkpt lat="43.19693" lon="2.35748">
        <ele>125.9</ele>
        <time>2024-05-11T14:54:35Z</time>
      </trkpt>
      <trkpt lat="43.19683" lon="2.35736">
        <ele>125.5</ele>
        <time>2024-05-11T14:54:36Z</time>
      </trkpt>
      <trkpt lat="43.19672" lon="2.35722">
        <ele>125</ele>
        <time>2024-05-11T14:54:37Z</time>
      </trkpt>
      <trkpt lat="43.19661" lon="2.35707">
        <ele>125.6</ele>
        <time>2024-05-11T14:54:38Z</time>
      </trkpt>
      <trkpt lat="43.1965" lon="2.35692">
        <ele>126</ele>
        <time>2024-05-11T14:54:39Z</time>
      </trkpt>
      <trkpt lat="43.19638" lon="2.35677">
        <ele>126</ele>
        <time>2024-05-11T14:54:40Z</time>
      </trkpt>
      <trkpt lat="43.19626" lon="2.35661">
        <ele>126</ele>
        <time>2024-05-11T14:54:41Z</time>
      </trkpt>
      <trkpt lat="43.19615" lon="2.35644">
        <ele>126</ele>
        <time>2024-05-11T14:54:42Z</time>
      </trkpt>
      <trkpt lat="43.19603" lon="2.35626">
        <ele>126</ele>
        <time>2024-05-11T14:54:43Z</time>
      </trkpt>
      <trkpt lat="43.19592" lon="2.35607">
        <ele>126</ele>
        <time>2024-05-11T14:54:44Z</time>
      </trkpt>
      <trkpt lat="43.19584" lon="2.35585">
        <ele>126</ele>
        <time>2024-05-11T14:54:45Z</time>
      </trkpt>
      <trkpt lat="43.19578" lon="2.35561">
        <ele>125.8</ele>
        <time>2024-05-11T14:54:46Z</time>
      </trkpt>
      <trkpt lat="43.19574" lon="2.35535">
        <ele>125.7</ele>
        <time>2024-05-11T14:54:47Z</time>
      </trkpt>
      <trkpt lat="43.19571" lon="2.35506">
        <ele>125.9</ele>
        <time>2024-05-11T14:54:48Z</time>
      </trkpt>
      <trkpt lat="43.19569" lon="2.3548">
        <ele>126</ele>
        <time>2024-05-11T14:54:49Z</time>
      </trkpt>
      <trkpt lat="43.19566" lon="2.35452">
        <ele>126</ele>
        <time>2024-05-11T14:54:50Z</time>
      </trkpt>
      <trkpt lat="43.19564" lon="2.35425">
        <ele>126</ele>
        <time>2024-05-11T14:54:51Z</time>
      </trkpt>
      <trkpt lat="43.19561" lon="2.35398">
        <ele>126</ele>
        <time>2024-05-11T14:54:52Z</time>
      </trkpt>
      <trkpt lat="43.19559" lon="2.35372">
        <ele>126</ele>
        <time>2024-05-11T14:54:53Z</time>
      </trkpt>
      <trkpt lat="43.19556" lon="2.35346">
        <ele>126</ele>
        <time>2024-05-11T14:54:54Z</time>
      </trkpt>
      <trkpt lat="43.19554" lon="2.35321">
        <ele>126</ele>
        <time>2024-05-11T14:54:55Z</time>
      </trkpt>
      <trkpt lat="43.19551" lon="2.35297">
        <ele>126.2</ele>
        <time>2024-05-11T14:54:56Z</time>
      </trkpt>
      <trkpt lat="43.19549" lon="2.35274">
        <ele>126.3</ele>
        <time>2024-05-11T14:54:57Z</time>
      </trkpt>
      <trkpt lat="43.19547" lon="2.35251">
        <ele>127</ele>
        <time>2024-05-11T14:54:58Z</time>
      </trkpt>
      <trkpt lat="43.19545" lon="2.35227">
        <ele>127.2</ele>
        <time>2024-05-11T14:54:59Z</time>
      </trkpt>
      <trkpt lat="43.19542" lon="2.35204">
        <ele>126.7</ele>
        <time>2024-05-11T14:55:00Z</time>
      </trkpt>
      <trkpt lat="43.1954" lon="2.35181">
        <ele>126.3</ele>
        <time>2024-05-11T14:55:01Z</time>
      </trkpt>
      <trkpt lat="43.19535" lon="2.35158">
        <ele>126.8</ele>
        <time>2024-05-11T14:55:02Z</time>
      </trkpt>
      <trkpt lat="43.1953" lon="2.35136">
        <ele>127.9</ele>
        <time>2024-05-11T14:55:03Z</time>
      </trkpt>
      <trkpt lat="43.19522" lon="2.35113">
        <ele>128.7</ele>
        <time>2024-05-11T14:55:04Z</time>
      </trkpt>
      <trkpt lat="43.19514" lon="2.35089">
        <ele>128.9</ele>
        <time>2024-05-11T14:55:05Z</time>
      </trkpt>
      <trkpt lat="43.19507" lon="2.35065">
        <ele>129.5</ele>
        <time>2024-05-11T14:55:06Z</time>
      </trkpt>
      <trkpt lat="43.19499" lon="2.35041">
        <ele>130</ele>
        <time>2024-05-11T14:55:07Z</time>
      </trkpt>
      <trkpt lat="43.19491" lon="2.35017">
        <ele>130.4</ele>
        <time>2024-05-11T14:55:08Z</time>
      </trkpt>
      <trkpt lat="43.19483" lon="2.34994">
        <ele>131.3</ele>
        <time>2024-05-11T14:55:09Z</time>
      </trkpt>
      <trkpt lat="43.19476" lon="2.34971">
        <ele>131.9</ele>
        <time>2024-05-11T14:55:10Z</time>
      </trkpt>
      <trkpt lat="43.19469" lon="2.34949">
        <ele>133.8</ele>
        <time>2024-05-11T14:55:11Z</time>
      </trkpt>
      <trkpt lat="43.19461" lon="2.34928">
        <ele>134.6</ele>
        <time>2024-05-11T14:55:12Z</time>
      </trkpt>
      <trkpt lat="43.19453" lon="2.34906">
        <ele>135.5</ele>
        <time>2024-05-11T14:55:13Z</time>
      </trkpt>
      <trkpt lat="43.19446" lon="2.34885">
        <ele>136.1</ele>
        <time>2024-05-11T14:55:14Z</time>
      </trkpt>
      <trkpt lat="43.19439" lon="2.34864">
        <ele>136.9</ele>
        <time>2024-05-11T14:55:15Z</time>
      </trkpt>
      <trkpt lat="43.19432" lon="2.34844">
        <ele>137.6</ele>
        <time>2024-05-11T14:55:16Z</time>
      </trkpt>
      <trkpt lat="43.19426" lon="2.34825">
        <ele>138</ele>
        <time>2024-05-11T14:55:17Z</time>
      </trkpt>
      <trkpt lat="43.19419" lon="2.34804">
        <ele>138</ele>
        <time>2024-05-11T14:55:18Z</time>
      </trkpt>
      <trkpt lat="43.19411" lon="2.34783">
        <ele>137.8</ele>
        <time>2024-05-11T14:55:19Z</time>
      </trkpt>
      <trkpt lat="43.19405" lon="2.34762">
        <ele>137.3</ele>
        <time>2024-05-11T14:55:20Z</time>
      </trkpt>
      <trkpt lat="43.19397" lon="2.3474">
        <ele>137.1</ele>
        <time>2024-05-11T14:55:21Z</time>
      </trkpt>
      <trkpt lat="43.19391" lon="2.34717">
        <ele>137.8</ele>
        <time>2024-05-11T14:55:22Z</time>
      </trkpt>
      <trkpt lat="43.19387" lon="2.34694">
        <ele>137.9</ele>
        <time>2024-05-11T14:55:23Z</time>
      </trkpt>
      <trkpt lat="43.19384" lon="2.34671">
        <ele>137.3</ele>
        <time>2024-05-11T14:55:24Z</time>
      </trkpt>
      <trkpt lat="43.19383" lon="2.34647">
        <ele>137.4</ele>
        <time>2024-05-11T14:55:25Z</time>
      </trkpt>
      <trkpt lat="43.19383" lon="2.34622">
        <ele>137.6</ele>
        <time>2024-05-11T14:55:26Z</time>
      </trkpt>
      <trkpt lat="43.19384" lon="2.34596">
        <ele>137.7</ele>
        <time>2024-05-11T14:55:27Z</time>
      </trkpt>
      <trkpt lat="43.19387" lon="2.34571">
        <ele>137.3</ele>
        <time>2024-05-11T14:55:28Z</time>
      </trkpt>
      <trkpt lat="43.19392" lon="2.34546">
        <ele>137.2</ele>
        <time>2024-05-11T14:55:29Z</time>
      </trkpt>
      <trkpt lat="43.19397" lon="2.34522">
        <ele>138.1</ele>
        <time>2024-05-11T14:55:30Z</time>
      </trkpt>
      <trkpt lat="43.19401" lon="2.34498">
        <ele>139.2</ele>
        <time>2024-05-11T14:55:31Z</time>
      </trkpt>
      <trkpt lat="43.19406" lon="2.34475">
        <ele>139.5</ele>
        <time>2024-05-11T14:55:32Z</time>
      </trkpt>
      <trkpt lat="43.1941" lon="2.34453">
        <ele>139.1</ele>
        <time>2024-05-11T14:55:33Z</time>
      </trkpt>
      <trkpt lat="43.19415" lon="2.34431">
        <ele>138.4</ele>
        <time>2024-05-11T14:55:34Z</time>
      </trkpt>
      <trkpt lat="43.19419" lon="2.34409">
        <ele>138.5</ele>
        <time>2024-05-11T14:55:35Z</time>
      </trkpt>
      <trkpt lat="43.19423" lon="2.34388">
        <ele>139.8</ele>
        <time>2024-05-11T14:55:36Z</time>
      </trkpt>
      <trkpt lat="43.19427" lon="2.34368">
        <ele>141.1</ele>
        <time>2024-05-11T14:55:37Z</time>
      </trkpt>
      <trkpt lat="43.19431" lon="2.34348">
        <ele>142.2</ele>
        <time>2024-05-11T14:55:38Z</time>
      </trkpt>
      <trkpt lat="43.19433" lon="2.34327">
        <ele>143.1</ele>
        <time>2024-05-11T14:55:39Z</time>
      </trkpt>
      <trkpt lat="43.19436" lon="2.34306">
        <ele>143.6</ele>
        <time>2024-05-11T14:55:40Z</time>
      </trkpt>
      <trkpt lat="43.19436" lon="2.34285">
        <ele>144.9</ele>
        <time>2024-05-11T14:55:41Z</time>
      </trkpt>
      <trkpt lat="43.19434" lon="2.34263">
        <ele>145.9</ele>
        <time>2024-05-11T14:55:42Z</time>
      </trkpt>
      <trkpt lat="43.19431" lon="2.34241">
        <ele>146.8</ele>
        <time>2024-05-11T14:55:43Z</time>
      </trkpt>
      <trkpt lat="43.19426" lon="2.34221">
        <ele>147.7</ele>
        <time>2024-05-11T14:55:44Z</time>
      </trkpt>
      <trkpt lat="43.19419" lon="2.34202">
        <ele>148.6</ele>
        <time>2024-05-11T14:55:45Z</time>
      </trkpt>
      <trkpt lat="43.19412" lon="2.34185">
        <ele>148.7</ele>
        <time>2024-05-11T14:55:46Z</time>
      </trkpt>
      <trkpt lat="43.19404" lon="2.3417">
        <ele>147.7</ele>
        <time>2024-05-11T14:55:47Z</time>
      </trkpt>
      <trkpt lat="43.19395" lon="2.34155">
        <ele>146.1</ele>
        <time>2024-05-11T14:55:48Z</time>
      </trkpt>
      <trkpt lat="43.19388" lon="2.34141">
        <ele>144.2</ele>
        <time>2024-05-11T14:55:49Z</time>
      </trkpt>
      <trkpt lat="43.1938" lon="2.34128">
        <ele>144.6</ele>
        <time>2024-05-11T14:55:50Z</time>
      </trkpt>
      <trkpt lat="43.19372" lon="2.34115">
        <ele>145.7</ele>
        <time>2024-05-11T14:55:51Z</time>
      </trkpt>
      <trkpt lat="43.19364" lon="2.34101">
        <ele>147.6</ele>
        <time>2024-05-11T14:55:52Z</time>
      </trkpt>
      <trkpt lat="43.19355" lon="2.34087">
        <ele>150.4</ele>
        <time>2024-05-11T14:55:53Z</time>
      </trkpt>
      <trkpt lat="43.19346" lon="2.34072">
        <ele>151</ele>
        <time>2024-05-11T14:55:54Z</time>
      </trkpt>
      <trkpt lat="43.19337" lon="2.34058">
        <ele>150.2</ele>
        <time>2024-05-11T14:55:55Z</time>
      </trkpt>
      <trkpt lat="43.19329" lon="2.34044">
        <ele>150.7</ele>
        <time>2024-05-11T14:55:56Z</time>
      </trkpt>
      <trkpt lat="43.19321" lon="2.3403">
        <ele>150.7</ele>
        <time>2024-05-11T14:55:57Z</time>
      </trkpt>
      <trkpt lat="43.19314" lon="2.34015">
        <ele>149.7</ele>
        <time>2024-05-11T14:55:58Z</time>
      </trkpt>
      <trkpt lat="43.19306" lon="2.34">
        <ele>148.1</ele>
        <time>2024-05-11T14:55:59Z</time>
      </trkpt>
      <trkpt lat="43.19298" lon="2.33984">
        <ele>147.3</ele>
        <time>2024-05-11T14:56:00Z</time>
      </trkpt>
      <trkpt lat="43.19291" lon="2.33969">
        <ele>146.4</ele>
        <time>2024-05-11T14:56:01Z</time>
      </trkpt>
      <trkpt lat="43.19283" lon="2.33953">
        <ele>145.6</ele>
        <time>2024-05-11T14:56:02Z</time>
      </trkpt>
      <trkpt lat="43.19275" lon="2.33937">
        <ele>144.3</ele>
        <time>2024-05-11T14:56:03Z</time>
      </trkpt>
      <trkpt lat="43.19267" lon="2.3392">
        <ele>142.8</ele>
        <time>2024-05-11T14:56:04Z</time>
      </trkpt>
      <trkpt lat="43.19259" lon="2.33901">
        <ele>141.9</ele>
        <time>2024-05-11T14:56:05Z</time>
      </trkpt>
      <trkpt lat="43.19251" lon="2.33882">
        <ele>140.8</ele>
        <time>2024-05-11T14:56:06Z</time>
      </trkpt>
      <trkpt lat="43.19244" lon="2.33861">
        <ele>139.6</ele>
        <time>2024-05-11T14:56:07Z</time>
      </trkpt>
      <trkpt lat="43.19239" lon="2.33841">
        <ele>138.9</ele>
        <time>2024-05-11T14:56:08Z</time>
      </trkpt>
      <trkpt lat="43.19235" lon="2.33819">
        <ele>138.1</ele>
        <time>2024-05-11T14:56:09Z</time>
      </trkpt>
      <trkpt lat="43.19231" lon="2.33798">
        <ele>137</ele>
        <time>2024-05-11T14:56:10Z</time>
      </trkpt>
      <trkpt lat="43.19229" lon="2.33777">
        <ele>135.9</ele>
        <time>2024-05-11T14:56:11Z</time>
      </trkpt>
      <trkpt lat="43.19227" lon="2.33756">
        <ele>133.9</ele>
        <time>2024-05-11T14:56:12Z</time>
      </trkpt>
      <trkpt lat="43.19225" lon="2.33735">
        <ele>132.1</ele>
        <time>2024-05-11T14:56:13Z</time>
      </trkpt>
      <trkpt lat="43.19224" lon="2.33715">
        <ele>130.5</ele>
        <time>2024-05-11T14:56:14Z</time>
      </trkpt>
      <trkpt lat="43.19223" lon="2.33697">
        <ele>129.2</ele>
        <time>2024-05-11T14:56:15Z</time>
      </trkpt>
      <trkpt lat="43.19224" lon="2.33678">
        <ele>127.8</ele>
        <time>2024-05-11T14:56:16Z</time>
      </trkpt>
      <trkpt lat="43.19228" lon="2.33661">
        <ele>126.5</ele>
        <time>2024-05-11T14:56:17Z</time>
      </trkpt>
      <trkpt lat="43.19235" lon="2.33646">
        <ele>125.5</ele>
        <time>2024-05-11T14:56:18Z</time>
      </trkpt>
      <trkpt lat="43.19245" lon="2.33636">
        <ele>124.3</ele>
        <time>2024-05-11T14:56:19Z</time>
      </trkpt>
      <trkpt lat="43.19257" lon="2.33629">
        <ele>123.9</ele>
        <time>2024-05-11T14:56:20Z</time>
      </trkpt>
      <trkpt lat="43.1927" lon="2.33626">
        <ele>123.7</ele>
        <time>2024-05-11T14:56:21Z</time>
      </trkpt>
      <trkpt lat="43.19285" lon="2.33625">
        <ele>123.2</ele>
        <time>2024-05-11T14:56:22Z</time>
      </trkpt>
      <trkpt lat="43.19301" lon="2.33625">
        <ele>122.7</ele>
        <time>2024-05-11T14:56:23Z</time>
      </trkpt>
      <trkpt lat="43.19318" lon="2.33625">
        <ele>122.1</ele>
        <time>2024-05-11T14:56:24Z</time>
      </trkpt>
      <trkpt lat="43.19334" lon="2.33625">
        <ele>121.5</ele>
        <time>2024-05-11T14:56:25Z</time>
      </trkpt>
      <trkpt lat="43.19351" lon="2.33626">
        <ele>121.2</ele>
        <time>2024-05-11T14:56:26Z</time>
      </trkpt>
      <trkpt lat="43.19368" lon="2.33627">
        <ele>121.3</ele>
        <time>2024-05-11T14:56:27Z</time>
      </trkpt>
      <trkpt lat="43.19384" lon="2.33628">
        <ele>121.9</ele>
        <time>2024-05-11T14:56:28Z</time>
      </trkpt>
      <trkpt lat="43.194" lon="2.3363">
        <ele>122.7</ele>
        <time>2024-05-11T14:56:29Z</time>
      </trkpt>
      <trkpt lat="43.19417" lon="2.33631">
        <ele>123.2</ele>
        <time>2024-05-11T14:56:30Z</time>
      </trkpt>
      <trkpt lat="43.19434" lon="2.33632">
        <ele>123.7</ele>
        <time>2024-05-11T14:56:31Z</time>
      </trkpt>
      <trkpt lat="43.19449" lon="2.33634">
        <ele>124.3</ele>
        <time>2024-05-11T14:56:32Z</time>
      </trkpt>
      <trkpt lat="43.19464" lon="2.33637">
        <ele>124.8</ele>
        <time>2024-05-11T14:56:33Z</time>
      </trkpt>
      <trkpt lat="43.19479" lon="2.3364">
        <ele>124.7</ele>
        <time>2024-05-11T14:56:34Z</time>
      </trkpt>
      <trkpt lat="43.19493" lon="2.33641">
        <ele>123.9</ele>
        <time>2024-05-11T14:56:35Z</time>
      </trkpt>
      <trkpt lat="43.19506" lon="2.33642">
        <ele>123.4</ele>
        <time>2024-05-11T14:56:36Z</time>
      </trkpt>
      <trkpt lat="43.19519" lon="2.33644">
        <ele>123.2</ele>
        <time>2024-05-11T14:56:37Z</time>
      </trkpt>
      <trkpt lat="43.19532" lon="2.33647">
        <ele>122.9</ele>
        <time>2024-05-11T14:56:38Z</time>
      </trkpt>
      <trkpt lat="43.19546" lon="2.33648">
        <ele>122.2</ele>
        <time>2024-05-11T14:56:39Z</time>
      </trkpt>
      <trkpt lat="43.1956" lon="2.3365">
        <ele>122</ele>
        <time>2024-05-11T14:56:40Z</time>
      </trkpt>
      <trkpt lat="43.19574" lon="2.33652">
        <ele>122.4</ele>
        <time>2024-05-11T14:56:41Z</time>
      </trkpt>
      <trkpt lat="43.19589" lon="2.33654">
        <ele>122.4</ele>
        <time>2024-05-11T14:56:42Z</time>
      </trkpt>
      <trkpt lat="43.19603" lon="2.33657">
        <ele>122.1</ele>
        <time>2024-05-11T14:56:43Z</time>
      </trkpt>
      <trkpt lat="43.19618" lon="2.3366">
        <ele>121.5</ele>
        <time>2024-05-11T14:56:44Z</time>
      </trkpt>
      <trkpt lat="43.19633" lon="2.33665">
        <ele>120.5</ele>
        <time>2024-05-11T14:56:45Z</time>
      </trkpt>
      <trkpt lat="43.19648" lon="2.33671">
        <ele>121.4</ele>
        <time>2024-05-11T14:56:46Z</time>
      </trkpt>
      <trkpt lat="43.19663" lon="2.33678">
        <ele>121.7</ele>
        <time>2024-05-11T14:56:47Z</time>
      </trkpt>
      <trkpt lat="43.19678" lon="2.33686">
        <ele>120.5</ele>
        <time>2024-05-11T14:56:48Z</time>
      </trkpt>
      <trkpt lat="43.19691" lon="2.33694">
        <ele>119.4</ele>
        <time>2024-05-11T14:56:49Z</time>
      </trkpt>
      <trkpt lat="43.19705" lon="2.33701">
        <ele>119.2</ele>
        <time>2024-05-11T14:56:50Z</time>
      </trkpt>
      <trkpt lat="43.19718" lon="2.33708">
        <ele>118.6</ele>
        <time>2024-05-11T14:56:51Z</time>
      </trkpt>
      <trkpt lat="43.19733" lon="2.33715">
        <ele>118.1</ele>
        <time>2024-05-11T14:56:52Z</time>
      </trkpt>
      <trkpt lat="43.19748" lon="2.33722">
        <ele>118.1</ele>
        <time>2024-05-11T14:56:53Z</time>
      </trkpt>
      <trkpt lat="43.19764" lon="2.33727">
        <ele>117.9</ele>
        <time>2024-05-11T14:56:54Z</time>
      </trkpt>
      <trkpt lat="43.19779" lon="2.3373">
        <ele>117.4</ele>
        <time>2024-05-11T14:56:55Z</time>
      </trkpt>
      <trkpt lat="43.19794" lon="2.33732">
        <ele>117.7</ele>
        <time>2024-05-11T14:56:56Z</time>
      </trkpt>
      <trkpt lat="43.19808" lon="2.33734">
        <ele>117.7</ele>
        <time>2024-05-11T14:56:57Z</time>
      </trkpt>
      <trkpt lat="43.19822" lon="2.33735">
        <ele>117</ele>
        <time>2024-05-11T14:56:58Z</time>
      </trkpt>
      <trkpt lat="43.19835" lon="2.33736">
        <ele>116.4</ele>
        <time>2024-05-11T14:56:59Z</time>
      </trkpt>
      <trkpt lat="43.19848" lon="2.33737">
        <ele>116.4</ele>
        <time>2024-05-11T14:57:00Z</time>
      </trkpt>
      <trkpt lat="43.19861" lon="2.33736">
        <ele>116</ele>
        <time>2024-05-11T14:57:01Z</time>
      </trkpt>
      <trkpt lat="43.19872" lon="2.33735">
        <ele>115.6</ele>
        <time>2024-05-11T14:57:02Z</time>
      </trkpt>
      <trkpt lat="43.19884" lon="2.33734">
        <ele>115.2</ele>
        <time>2024-05-11T14:57:03Z</time>
      </trkpt>
      <trkpt lat="43.19894" lon="2.33734">
        <ele>115.2</ele>
        <time>2024-05-11T14:57:04Z</time>
      </trkpt>
      <trkpt lat="43.19904" lon="2.33733">
        <ele>115.2</ele>
        <time>2024-05-11T14:57:05Z</time>
      </trkpt>
      <trkpt lat="43.19914" lon="2.33732">
        <ele>115.1</ele>
        <time>2024-05-11T14:57:06Z</time>
      </trkpt>
      <trkpt lat="43.19922" lon="2.33731">
        <ele>115.1</ele>
        <time>2024-05-11T14:57:07Z</time>
      </trkpt>
      <trkpt lat="43.1993" lon="2.33731">
        <ele>115.4</ele>
        <time>2024-05-11T14:57:08Z</time>
      </trkpt>
      <trkpt lat="43.19937" lon="2.3373">
        <ele>115.4</ele>
        <time>2024-05-11T14:57:09Z</time>
      </trkpt>
      <trkpt lat="43.19943" lon="2.3373">
        <ele>115.6</ele>
        <time>2024-05-11T14:57:10Z</time>
      </trkpt>
      <trkpt lat="43.19947" lon="2.33729">
        <ele>115.5</ele>
        <time>2024-05-11T14:57:11Z</time>
      </trkpt>
      <trkpt lat="43.1995" lon="2.33729">
        <ele>115.6</ele>
        <time>2024-05-11T14:57:12Z</time>
      </trkpt>
      <trkpt lat="43.19953" lon="2.33728">
        <ele>115.4</ele>
        <time>2024-05-11T14:57:13Z</time>
      </trkpt>
      <trkpt lat="43.19956" lon="2.33727">
        <ele>115.3</ele>
        <time>2024-05-11T14:57:14Z</time>
      </trkpt>
      <trkpt lat="43.19958" lon="2.33727">
        <ele>115.4</ele>
        <time>2024-05-11T14:57:15Z</time>
      </trkpt>
      <trkpt lat="43.19962" lon="2.33727">
        <ele>115.4</ele>
        <time>2024-05-11T14:57:16Z</time>
      </trkpt>
      <trkpt lat="43.19966" lon="2.33727">
        <ele>115.5</ele>
        <time>2024-05-11T14:57:17Z</time>
      </trkpt>
      <trkpt lat="43.19971" lon="2.33728">
        <ele>115.8</ele>
        <time>2024-05-11T14:57:18Z</time>
      </trkpt>
      <trkpt lat="43.19975" lon="2.3373">
        <ele>116</ele>
        <time>2024-05-11T14:57:19Z</time>
      </trkpt>
      <trkpt lat="43.19981" lon="2.33734">
        <ele>116.2</ele>
        <time>2024-05-11T14:57:20Z</time>
      </trkpt>
      <trkpt lat="43.19986" lon="2.33738">
        <ele>116.1</ele>
        <time>2024-05-11T14:57:21Z</time>
      </trkpt>
      <trkpt lat="43.19992" lon="2.33739">
        <ele>115.7</ele>
        <time>2024-05-11T14:57:22Z</time>
      </trkpt>
      <trkpt lat="43.19998" lon="2.33737">
        <ele>115.2</ele>
        <time>2024-05-11T14:57:23Z</time>
      </trkpt>
      <trkpt lat="43.20004" lon="2.3373">
        <ele>114.4</ele>
        <time>2024-05-11T14:57:24Z</time>
      </trkpt>
      <trkpt lat="43.20011" lon="2.33722">
        <ele>113.8</ele>
        <time>2024-05-11T14:57:25Z</time>
      </trkpt>
      <trkpt lat="43.20022" lon="2.33715">
        <ele>112</ele>
        <time>2024-05-11T14:57:26Z</time>
      </trkpt>
      <trkpt lat="43.20034" lon="2.3371">
        <ele>111.2</ele>
        <time>2024-05-11T14:57:27Z</time>
      </trkpt>
      <trkpt lat="43.20047" lon="2.33705">
        <ele>111.5</ele>
        <time>2024-05-11T14:57:28Z</time>
      </trkpt>
      <trkpt lat="43.20061" lon="2.33699">
        <ele>112.3</ele>
        <time>2024-05-11T14:57:29Z</time>
      </trkpt>
      <trkpt lat="43.20076" lon="2.33693">
        <ele>112</ele>
        <time>2024-05-11T14:57:30Z</time>
      </trkpt>
      <trkpt lat="43.2009" lon="2.33685">
        <ele>110.6</ele>
        <time>2024-05-11T14:57:31Z</time>
      </trkpt>
      <trkpt lat="43.20104" lon="2.33677">
        <ele>111</ele>
        <time>2024-05-11T14:57:32Z</time>
      </trkpt>
      <trkpt lat="43.20116" lon="2.33669">
        <ele>112.3</ele>
        <time>2024-05-11T14:57:33Z</time>
      </trkpt>
      <trkpt lat="43.20129" lon="2.3366">
        <ele>111.3</ele>
        <time>2024-05-11T14:57:34Z</time>
      </trkpt>
      <trkpt lat="43.20143" lon="2.3365">
        <ele>111</ele>
        <time>2024-05-11T14:57:35Z</time>
      </trkpt>
      <trkpt lat="43.20155" lon="2.33639">
        <ele>112.1</ele>
        <time>2024-05-11T14:57:36Z</time>
      </trkpt>
      <trkpt lat="43.20168" lon="2.33628">
        <ele>112.1</ele>
        <time>2024-05-11T14:57:37Z</time>
      </trkpt>
      <trkpt lat="43.20181" lon="2.33616">
        <ele>111.3</ele>
        <time>2024-05-11T14:57:38Z</time>
      </trkpt>
      <trkpt lat="43.20194" lon="2.33603">
        <ele>111.4</ele>
        <time>2024-05-11T14:57:39Z</time>
      </trkpt>
      <trkpt lat="43.20207" lon="2.33589">
        <ele>110.4</ele>
        <time>2024-05-11T14:57:40Z</time>
      </trkpt>
      <trkpt lat="43.2022" lon="2.33576">
        <ele>110.4</ele>
        <time>2024-05-11T14:57:41Z</time>
      </trkpt>
      <trkpt lat="43.20232" lon="2.33562">
        <ele>109.8</ele>
        <time>2024-05-11T14:57:42Z</time>
      </trkpt>
      <trkpt lat="43.20244" lon="2.33548">
        <ele>110.6</ele>
        <time>2024-05-11T14:57:43Z</time>
      </trkpt>
      <trkpt lat="43.20255" lon="2.33535">
        <ele>110.7</ele>
        <time>2024-05-11T14:57:44Z</time>
      </trkpt>
      <trkpt lat="43.20266" lon="2.33523">
        <ele>110.4</ele>
        <time>2024-05-11T14:57:45Z</time>
      </trkpt>
      <trkpt lat="43.20276" lon="2.33512">
        <ele>111</ele>
        <time>2024-05-11T14:57:46Z</time>
      </trkpt>
      <trkpt lat="43.20286" lon="2.33501">
        <ele>111.1</ele>
        <time>2024-05-11T14:57:47Z</time>
      </trkpt>
      <trkpt lat="43.20296" lon="2.33489">
        <ele>110.4</ele>
        <time>2024-05-11T14:57:48Z</time>
      </trkpt>
      <trkpt lat="43.20307" lon="2.33477">
        <ele>111.3</ele>
        <time>2024-05-11T14:57:49Z</time>
      </trkpt>
      <trkpt lat="43.20317" lon="2.33465">
        <ele>109.3</ele>
        <time>2024-05-11T14:57:50Z</time>
      </trkpt>
      <trkpt lat="43.20328" lon="2.33453">
        <ele>107.4</ele>
        <time>2024-05-11T14:57:51Z</time>
      </trkpt>
      <trkpt lat="43.20338" lon="2.33442">
        <ele>106.7</ele>
        <time>2024-05-11T14:57:52Z</time>
      </trkpt>
      <trkpt lat="43.20347" lon="2.33431">
        <ele>105.8</ele>
        <time>2024-05-11T14:57:53Z</time>
      </trkpt>
      <trkpt lat="43.20357" lon="2.3342">
        <ele>104.5</ele>
        <time>2024-05-11T14:57:54Z</time>
      </trkpt>
      <trkpt lat="43.20366" lon="2.3341">
        <ele>104.6</ele>
        <time>2024-05-11T14:57:55Z</time>
      </trkpt>
      <trkpt lat="43.20375" lon="2.334">
        <ele>105.9</ele>
        <time>2024-05-11T14:57:56Z</time>
      </trkpt>
      <trkpt lat="43.20383" lon="2.3339">
        <ele>107.3</ele>
        <time>2024-05-11T14:57:57Z</time>
      </trkpt>
      <trkpt lat="43.2039" lon="2.33381">
        <ele>108</ele>
        <time>2024-05-11T14:57:58Z</time>
      </trkpt>
      <trkpt lat="43.20398" lon="2.33373">
        <ele>108.8</ele>
        <time>2024-05-11T14:57:59Z</time>
      </trkpt>
      <trkpt lat="43.20404" lon="2.33367">
        <ele>109.7</ele>
        <time>2024-05-11T14:58:00Z</time>
      </trkpt>
      <trkpt lat="43.20409" lon="2.33361">
        <ele>110.9</ele>
        <time>2024-05-11T14:58:01Z</time>
      </trkpt>
      <trkpt lat="43.20414" lon="2.33355">
        <ele>111.4</ele>
        <time>2024-05-11T14:58:02Z</time>
      </trkpt>
      <trkpt lat="43.20419" lon="2.33349">
        <ele>111.5</ele>
        <time>2024-05-11T14:58:03Z</time>
      </trkpt>
      <trkpt lat="43.20423" lon="2.33345">
        <ele>111.3</ele>
        <time>2024-05-11T14:58:04Z</time>
      </trkpt>
      <trkpt lat="43.20427" lon="2.3334">
        <ele>111.3</ele>
        <time>2024-05-11T14:58:05Z</time>
      </trkpt>
      <trkpt lat="43.2043" lon="2.33337">
        <ele>111.4</ele>
        <time>2024-05-11T14:58:06Z</time>
      </trkpt>
      <trkpt lat="43.20433" lon="2.33335">
        <ele>111.5</ele>
        <time>2024-05-11T14:58:07Z</time>
      </trkpt>
      <trkpt lat="43.20435" lon="2.33333">
        <ele>111.7</ele>
        <time>2024-05-11T14:58:08Z</time>
      </trkpt>
      <trkpt lat="43.20438" lon="2.33331">
        <ele>111.8</ele>
        <time>2024-05-11T14:58:09Z</time>
      </trkpt>
      <trkpt lat="43.20442" lon="2.33328">
        <ele>112.1</ele>
        <time>2024-05-11T14:58:10Z</time>
      </trkpt>
      <trkpt lat="43.20447" lon="2.33324">
        <ele>112.4</ele>
        <time>2024-05-11T14:58:11Z</time>
      </trkpt>
      <trkpt lat="43.20455" lon="2.33322">
        <ele>112.6</ele>
        <time>2024-05-11T14:58:12Z</time>
      </trkpt>
      <trkpt lat="43.20463" lon="2.33322">
        <ele>112.7</ele>
        <time>2024-05-11T14:58:13Z</time>
      </trkpt>
      <trkpt lat="43.2047" lon="2.3332">
        <ele>112.9</ele>
        <time>2024-05-11T14:58:14Z</time>
      </trkpt>
      <trkpt lat="43.20478" lon="2.33315">
        <ele>113.2</ele>
        <time>2024-05-11T14:58:15Z</time>
      </trkpt>
      <trkpt lat="43.20483" lon="2.33308">
        <ele>113.5</ele>
        <time>2024-05-11T14:58:16Z</time>
      </trkpt>
      <trkpt lat="43.20487" lon="2.33298">
        <ele>113.3</ele>
        <time>2024-05-11T14:58:17Z</time>
      </trkpt>
      <trkpt lat="43.20489" lon="2.33286">
        <ele>113</ele>
        <time>2024-05-11T14:58:18Z</time>
      </trkpt>
      <trkpt lat="43.20487" lon="2.33274">
        <ele>112.7</ele>
        <time>2024-05-11T14:58:19Z</time>
      </trkpt>
      <trkpt lat="43.20482" lon="2.33264">
        <ele>112.5</ele>
        <time>2024-05-11T14:58:20Z</time>
      </trkpt>
      <trkpt lat="43.20475" lon="2.33256">
        <ele>112.3</ele>
        <time>2024-05-11T14:58:21Z</time>
      </trkpt>
      <trkpt lat="43.20466" lon="2.33252">
        <ele>112.3</ele>
        <time>2024-05-11T14:58:22Z</time>
      </trkpt>
      <trkpt lat="43.20455" lon="2.33252">
        <ele>112.7</ele>
        <time>2024-05-11T14:58:23Z</time>
      </trkpt>
      <trkpt lat="43.20445" lon="2.33252">
        <ele>113</ele>
        <time>2024-05-11T14:58:24Z</time>
      </trkpt>
      <trkpt lat="43.20435" lon="2.33249">
        <ele>112.6</ele>
        <time>2024-05-11T14:58:25Z</time>
      </trkpt>
      <trkpt lat="43.20424" lon="2.33243">
        <ele>112.4</ele>
        <time>2024-05-11T14:58:26Z</time>
      </trkpt>
      <trkpt lat="43.20414" lon="2.33233">
        <ele>112.5</ele>
        <time>2024-05-11T14:58:27Z</time>
      </trkpt>
      <trkpt lat="43.20404" lon="2.33222">
        <ele>112.5</ele>
        <time>2024-05-11T14:58:28Z</time>
      </trkpt>
      <trkpt lat="43.20394" lon="2.33212">
        <ele>112.4</ele>
        <time>2024-05-11T14:58:29Z</time>
      </trkpt>
      <trkpt lat="43.20385" lon="2.33202">
        <ele>112.6</ele>
        <time>2024-05-11T14:58:30Z</time>
      </trkpt>
      <trkpt lat="43.20376" lon="2.33192">
        <ele>112.5</ele>
        <time>2024-05-11T14:58:31Z</time>
      </trkpt>
      <trkpt lat="43.20366" lon="2.33182">
        <ele>112.5</ele>
        <time>2024-05-11T14:58:32Z</time>
      </trkpt>
      <trkpt lat="43.20357" lon="2.33172">
        <ele>112.7</ele>
        <time>2024-05-11T14:58:33Z</time>
      </trkpt>
      <trkpt lat="43.20348" lon="2.33163">
        <ele>112.6</ele>
        <time>2024-05-11T14:58:34Z</time>
      </trkpt>
      <trkpt lat="43.2034" lon="2.33154">
        <ele>112.6</ele>
        <time>2024-05-11T14:58:35Z</time>
      </trkpt>
      <trkpt lat="43.20332" lon="2.33145">
        <ele>112.7</ele>
        <time>2024-05-11T14:58:36Z</time>
      </trkpt>
      <trkpt lat="43.20323" lon="2.33137">
        <ele>112.7</ele>
        <time>2024-05-11T14:58:37Z</time>
      </trkpt>
      <trkpt lat="43.20314" lon="2.33128">
        <ele>112.6</ele>
        <time>2024-05-11T14:58:38Z</time>
      </trkpt>
      <trkpt lat="43.20305" lon="2.33119">
        <ele>112.7</ele>
        <time>2024-05-11T14:58:39Z</time>
      </trkpt>
      <trkpt lat="43.20297" lon="2.33109">
        <ele>112.4</ele>
        <time>2024-05-11T14:58:40Z</time>
      </trkpt>
      <trkpt lat="43.20289" lon="2.331">
        <ele>112.3</ele>
        <time>2024-05-11T14:58:41Z</time>
      </trkpt>
      <trkpt lat="43.20281" lon="2.33091">
        <ele>112.5</ele>
        <time>2024-05-11T14:58:42Z</time>
      </trkpt>
      <trkpt lat="43.20273" lon="2.33083">
        <ele>112.7</ele>
        <time>2024-05-11T14:58:43Z</time>
      </trkpt>
      <trkpt lat="43.20266" lon="2.33076">
        <ele>112.5</ele>
        <time>2024-05-11T14:58:44Z</time>
      </trkpt>
      <trkpt lat="43.20259" lon="2.33069">
        <ele>112.5</ele>
        <time>2024-05-11T14:58:45Z</time>
      </trkpt>
      <trkpt lat="43.20252" lon="2.33061">
        <ele>112.7</ele>
        <time>2024-05-11T14:58:46Z</time>
      </trkpt>
      <trkpt lat="43.20244" lon="2.33053">
        <ele>112.7</ele>
        <time>2024-05-11T14:58:47Z</time>
      </trkpt>
      <trkpt lat="43.20236" lon="2.33044">
        <ele>112.6</ele>
        <time>2024-05-11T14:58:48Z</time>
      </trkpt>
      <trkpt lat="43.20227" lon="2.33034">
        <ele>112.8</ele>
        <time>2024-05-11T14:58:49Z</time>
      </trkpt>
      <trkpt lat="43.20217" lon="2.33024">
        <ele>112.9</ele>
        <time>2024-05-11T14:58:50Z</time>
      </trkpt>
      <trkpt lat="43.20207" lon="2.33014">
        <ele>112.9</ele>
        <time>2024-05-11T14:58:51Z</time>
      </trkpt>
      <trkpt lat="43.20199" lon="2.33004">
        <ele>113</ele>
        <time>2024-05-11T14:58:52Z</time>
      </trkpt>
      <trkpt lat="43.20192" lon="2.32998">
        <ele>113</ele>
        <time>2024-05-11T14:58:53Z</time>
      </trkpt>
      <trkpt lat="43.20185" lon="2.32991">
        <ele>113</ele>
        <time>2024-05-11T14:58:54Z</time>
      </trkpt>
      <trkpt lat="43.20179" lon="2.32985">
        <ele>113</ele>
        <time>2024-05-11T14:58:55Z</time>
      </trkpt>
      <trkpt lat="43.20174" lon="2.3298">
        <ele>113</ele>
        <time>2024-05-11T14:58:56Z</time>
      </trkpt>
      <trkpt lat="43.20168" lon="2.32975">
        <ele>112.9</ele>
        <time>2024-05-11T14:58:57Z</time>
      </trkpt>
      <trkpt lat="43.20163" lon="2.3297">
        <ele>112.9</ele>
        <time>2024-05-11T14:58:58Z</time>
      </trkpt>
      <trkpt lat="43.20156" lon="2.32965">
        <ele>112.9</ele>
        <time>2024-05-11T14:58:59Z</time>
      </trkpt>
      <trkpt lat="43.2015" lon="2.32959">
        <ele>112.9</ele>
        <time>2024-05-11T14:59:00Z</time>
      </trkpt>
      <trkpt lat="43.20143" lon="2.32953">
        <ele>112.8</ele>
        <time>2024-05-11T14:59:01Z</time>
      </trkpt>
      <trkpt lat="43.20135" lon="2.32947">
        <ele>112.7</ele>
        <time>2024-05-11T14:59:02Z</time>
      </trkpt>
      <trkpt lat="43.20126" lon="2.3294">
        <ele>112.8</ele>
        <time>2024-05-11T14:59:03Z</time>
      </trkpt>
      <trkpt lat="43.20115" lon="2.32933">
        <ele>112.9</ele>
        <time>2024-05-11T14:59:04Z</time>
      </trkpt>
      <trkpt lat="43.20105" lon="2.32925">
        <ele>113</ele>
        <time>2024-05-11T14:59:05Z</time>
      </trkpt>
      <trkpt lat="43.20094" lon="2.32918">
        <ele>113.2</ele>
        <time>2024-05-11T14:59:06Z</time>
      </trkpt>
      <trkpt lat="43.20083" lon="2.3291">
        <ele>113.2</ele>
        <time>2024-05-11T14:59:07Z</time>
      </trkpt>
      <trkpt lat="43.20071" lon="2.32902">
        <ele>113.3</ele>
        <time>2024-05-11T14:59:08Z</time>
      </trkpt>
      <trkpt lat="43.20058" lon="2.32892">
        <ele>113.8</ele>
        <time>2024-05-11T14:59:09Z</time>
      </trkpt>
      <trkpt lat="43.20046" lon="2.3288">
        <ele>114.4</ele>
        <time>2024-05-11T14:59:10Z</time>
      </trkpt>
      <trkpt lat="43.20036" lon="2.32868">
        <ele>114.4</ele>
        <time>2024-05-11T14:59:11Z</time>
      </trkpt>
      <trkpt lat="43.20026" lon="2.32856">
        <ele>114.2</ele>
        <time>2024-05-11T14:59:12Z</time>
      </trkpt>
      <trkpt lat="43.20017" lon="2.32844">
        <ele>114.8</ele>
        <time>2024-05-11T14:59:13Z</time>
      </trkpt>
      <trkpt lat="43.20009" lon="2.32832">
        <ele>115.1</ele>
        <time>2024-05-11T14:59:14Z</time>
      </trkpt>
      <trkpt lat="43.20001" lon="2.3282">
        <ele>115.5</ele>
        <time>2024-05-11T14:59:15Z</time>
      </trkpt>
      <trkpt lat="43.19993" lon="2.32809">
        <ele>115.9</ele>
        <time>2024-05-11T14:59:16Z</time>
      </trkpt>
      <trkpt lat="43.19986" lon="2.32799">
        <ele>116.1</ele>
        <time>2024-05-11T14:59:17Z</time>
      </trkpt>
      <trkpt lat="43.19979" lon="2.32789">
        <ele>116.1</ele>
        <time>2024-05-11T14:59:18Z</time>
      </trkpt>
      <trkpt lat="43.19973" lon="2.3278">
        <ele>116</ele>
        <time>2024-05-11T14:59:19Z</time>
      </trkpt>
      <trkpt lat="43.19968" lon="2.32769">
        <ele>116.2</ele>
        <time>2024-05-11T14:59:20Z</time>
      </trkpt>
      <trkpt lat="43.19966" lon="2.32758">
        <ele>116.2</ele>
        <time>2024-05-11T14:59:21Z</time>
      </trkpt>
      <trkpt lat="43.19966" lon="2.32745">
        <ele>116.5</ele>
        <time>2024-05-11T14:59:22Z</time>
      </trkpt>
      <trkpt lat="43.19967" lon="2.3273">
        <ele>117.5</ele>
        <time>2024-05-11T14:59:23Z</time>
      </trkpt>
      <trkpt lat="43.1997" lon="2.32715">
        <ele>118.3</ele>
        <time>2024-05-11T14:59:24Z</time>
      </trkpt>
      <trkpt lat="43.19976" lon="2.327">
        <ele>118.8</ele>
        <time>2024-05-11T14:59:25Z</time>
      </trkpt>
      <trkpt lat="43.19983" lon="2.32683">
        <ele>119.4</ele>
        <time>2024-05-11T14:59:26Z</time>
      </trkpt>
      <trkpt lat="43.19991" lon="2.32664">
        <ele>120.1</ele>
        <time>2024-05-11T14:59:27Z</time>
      </trkpt>
      <trkpt lat="43.19999" lon="2.32644">
        <ele>120.8</ele>
        <time>2024-05-11T14:59:28Z</time>
      </trkpt>
      <trkpt lat="43.20009" lon="2.32621">
        <ele>122.3</ele>
        <time>2024-05-11T14:59:29Z</time>
      </trkpt>
      <trkpt lat="43.20018" lon="2.32599">
        <ele>123.8</ele>
        <time>2024-05-11T14:59:30Z</time>
      </trkpt>
      <trkpt lat="43.20027" lon="2.32576">
        <ele>124.6</ele>
        <time>2024-05-11T14:59:31Z</time>
      </trkpt>
      <trkpt lat="43.20038" lon="2.32551">
        <ele>127.3</ele>
        <time>2024-05-11T14:59:32Z</time>
      </trkpt>
      <trkpt lat="43.20049" lon="2.32526">
        <ele>128.8</ele>
        <time>2024-05-11T14:59:33Z</time>
      </trkpt>
      <trkpt lat="43.2006" lon="2.325">
        <ele>129.5</ele>
        <time>2024-05-11T14:59:34Z</time>
      </trkpt>
      <trkpt lat="43.20071" lon="2.32476">
        <ele>132.2</ele>
        <time>2024-05-11T14:59:35Z</time>
      </trkpt>
      <trkpt lat="43.20082" lon="2.32451">
        <ele>131.5</ele>
        <time>2024-05-11T14:59:36Z</time>
      </trkpt>
      <trkpt lat="43.20092" lon="2.32427">
        <ele>133.9</ele>
        <time>2024-05-11T14:59:37Z</time>
      </trkpt>
      <trkpt lat="43.20102" lon="2.32404">
        <ele>135.3</ele>
        <time>2024-05-11T14:59:38Z</time>
      </trkpt>
      <trkpt lat="43.20111" lon="2.32382">
        <ele>133.3</ele>
        <time>2024-05-11T14:59:39Z</time>
      </trkpt>
      <trkpt lat="43.20121" lon="2.3236">
        <ele>136.2</ele>
        <time>2024-05-11T14:59:40Z</time>
      </trkpt>
      <trkpt lat="43.20129" lon="2.32338">
        <ele>137.5</ele>
        <time>2024-05-11T14:59:41Z</time>
      </trkpt>
      <trkpt lat="43.20138" lon="2.32316">
        <ele>135.6</ele>
        <time>2024-05-11T14:59:42Z</time>
      </trkpt>
      <trkpt lat="43.20146" lon="2.32293">
        <ele>137.2</ele>
        <time>2024-05-11T14:59:43Z</time>
      </trkpt>
      <trkpt lat="43.20153" lon="2.3227">
        <ele>138.5</ele>
        <time>2024-05-11T14:59:44Z</time>
      </trkpt>
      <trkpt lat="43.2016" lon="2.32246">
        <ele>137.2</ele>
        <time>2024-05-11T14:59:45Z</time>
      </trkpt>
      <trkpt lat="43.20165" lon="2.32222">
        <ele>136.4</ele>
        <time>2024-05-11T14:59:46Z</time>
      </trkpt>
      <trkpt lat="43.2017" lon="2.32196">
        <ele>136.1</ele>
        <time>2024-05-11T14:59:47Z</time>
      </trkpt>
      <trkpt lat="43.20175" lon="2.32169">
        <ele>136.4</ele>
        <time>2024-05-11T14:59:48Z</time>
      </trkpt>
      <trkpt lat="43.20178" lon="2.32141">
        <ele>135.4</ele>
        <time>2024-05-11T14:59:49Z</time>
      </trkpt>
      <trkpt lat="43.2018" lon="2.32114">
        <ele>133.3</ele>
        <time>2024-05-11T14:59:50Z</time>
      </trkpt>
      <trkpt lat="43.20182" lon="2.32088">
        <ele>132</ele>
        <time>2024-05-11T14:59:51Z</time>
      </trkpt>
      <trkpt lat="43.20184" lon="2.32062">
        <ele>131.2</ele>
        <time>2024-05-11T14:59:52Z</time>
      </trkpt>
      <trkpt lat="43.20185" lon="2.32037">
        <ele>130.1</ele>
        <time>2024-05-11T14:59:53Z</time>
      </trkpt>
      <trkpt lat="43.20186" lon="2.32012">
        <ele>129.4</ele>
        <time>2024-05-11T14:59:54Z</time>
      </trkpt>
      <trkpt lat="43.20187" lon="2.31988">
        <ele>129.1</ele>
        <time>2024-05-11T14:59:55Z</time>
      </trkpt>
      <trkpt lat="43.20187" lon="2.31963">
        <ele>127.9</ele>
        <time>2024-05-11T14:59:56Z</time>
      </trkpt>
      <trkpt lat="43.20188" lon="2.3194">
        <ele>125.4</ele>
        <time>2024-05-11T14:59:57Z</time>
      </trkpt>
      <trkpt lat="43.20189" lon="2.31916">
        <ele>123.2</ele>
        <time>2024-05-11T14:59:58Z</time>
      </trkpt>
      <trkpt lat="43.20189" lon="2.31894">
        <ele>124.5</ele>
        <time>2024-05-11T14:59:59Z</time>
      </trkpt>
      <trkpt lat="43.2019" lon="2.31873">
        <ele>125.9</ele>
        <time>2024-05-11T15:00:00Z</time>
      </trkpt>
      <trkpt lat="43.20191" lon="2.31854">
        <ele>126.7</ele>
        <time>2024-05-11T15:00:01Z</time>
      </trkpt>
      <trkpt lat="43.20192" lon="2.31835">
        <ele>126.7</ele>
        <time>2024-05-11T15:00:02Z</time>
      </trkpt>
      <trkpt lat="43.20192" lon="2.31815">
        <ele>126.6</ele>
        <time>2024-05-11T15:00:03Z</time>
      </trkpt>
      <trkpt lat="43.20193" lon="2.31794">
        <ele>126.4</ele>
        <time>2024-05-11T15:00:04Z</time>
      </trkpt>
      <trkpt lat="43.20194" lon="2.31772">
        <ele>125.7</ele>
        <time>2024-05-11T15:00:05Z</time>
      </trkpt>
      <trkpt lat="43.20194" lon="2.31751">
        <ele>125</ele>
        <time>2024-05-11T15:00:06Z</time>
      </trkpt>
      <trkpt lat="43.20195" lon="2.3173">
        <ele>124.2</ele>
        <time>2024-05-11T15:00:07Z</time>
      </trkpt>
      <trkpt lat="43.20197" lon="2.31708">
        <ele>123.3</ele>
        <time>2024-05-11T15:00:08Z</time>
      </trkpt>
      <trkpt lat="43.20198" lon="2.31686">
        <ele>122.5</ele>
        <time>2024-05-11T15:00:09Z</time>
      </trkpt>
      <trkpt lat="43.20201" lon="2.31665">
        <ele>121.7</ele>
        <time>2024-05-11T15:00:10Z</time>
      </trkpt>
      <trkpt lat="43.20203" lon="2.31645">
        <ele>120.9</ele>
        <time>2024-05-11T15:00:11Z</time>
      </trkpt>
      <trkpt lat="43.20207" lon="2.31625">
        <ele>120</ele>
        <time>2024-05-11T15:00:12Z</time>
      </trkpt>
      <trkpt lat="43.20211" lon="2.31605">
        <ele>119.5</ele>
        <time>2024-05-11T15:00:13Z</time>
      </trkpt>
      <trkpt lat="43.20215" lon="2.31586">
        <ele>119.1</ele>
        <time>2024-05-11T15:00:14Z</time>
      </trkpt>
      <trkpt lat="43.20219" lon="2.31567">
        <ele>118.9</ele>
        <time>2024-05-11T15:00:15Z</time>
      </trkpt>
      <trkpt lat="43.20224" lon="2.3155">
        <ele>118.9</ele>
        <time>2024-05-11T15:00:16Z</time>
      </trkpt>
      <trkpt lat="43.20231" lon="2.31535">
        <ele>118.7</ele>
        <time>2024-05-11T15:00:17Z</time>
      </trkpt>
      <trkpt lat="43.20237" lon="2.31524">
        <ele>118.5</ele>
        <time>2024-05-11T15:00:18Z</time>
      </trkpt>
      <trkpt lat="43.20245" lon="2.31516">
        <ele>118.5</ele>
        <time>2024-05-11T15:00:19Z</time>
      </trkpt>
      <trkpt lat="43.20253" lon="2.31511">
        <ele>118.6</ele>
        <time>2024-05-11T15:00:20Z</time>
      </trkpt>
      <trkpt lat="43.20262" lon="2.31507">
        <ele>118.7</ele>
        <time>2024-05-11T15:00:21Z</time>
      </trkpt>
      <trkpt lat="43.20272" lon="2.31502">
        <ele>118.9</ele>
        <time>2024-05-11T15:00:22Z</time>
      </trkpt>
      <trkpt lat="43.20283" lon="2.31495">
        <ele>118.7</ele>
        <time>2024-05-11T15:00:23Z</time>
      </trkpt>
      <trkpt lat="43.20294" lon="2.31487">
        <ele>118.4</ele>
        <time>2024-05-11T15:00:24Z</time>
      </trkpt>
      <trkpt lat="43.20306" lon="2.31482">
        <ele>118.3</ele>
        <time>2024-05-11T15:00:25Z</time>
      </trkpt>
      <trkpt lat="43.2032" lon="2.31479">
        <ele>118.1</ele>
        <time>2024-05-11T15:00:26Z</time>
      </trkpt>
      <trkpt lat="43.20334" lon="2.31478">
        <ele>117.8</ele>
        <time>2024-05-11T15:00:27Z</time>
      </trkpt>
      <trkpt lat="43.20348" lon="2.31477">
        <ele>118.4</ele>
        <time>2024-05-11T15:00:28Z</time>
      </trkpt>
      <trkpt lat="43.20361" lon="2.31476">
        <ele>119</ele>
        <time>2024-05-11T15:00:29Z</time>
      </trkpt>
      <trkpt lat="43.20375" lon="2.31476">
        <ele>119</ele>
        <time>2024-05-11T15:00:30Z</time>
      </trkpt>
      <trkpt lat="43.20388" lon="2.31477">
        <ele>119</ele>
        <time>2024-05-11T15:00:31Z</time>
      </trkpt>
      <trkpt lat="43.20399" lon="2.31478">
        <ele>118.9</ele>
        <time>2024-05-11T15:00:32Z</time>
      </trkpt>
      <trkpt lat="43.20409" lon="2.31478">
        <ele>118.8</ele>
        <time>2024-05-11T15:00:33Z</time>
      </trkpt>
      <trkpt lat="43.20419" lon="2.31479">
        <ele>118.7</ele>
        <time>2024-05-11T15:00:34Z</time>
      </trkpt>
      <trkpt lat="43.20428" lon="2.31479">
        <ele>118.4</ele>
        <time>2024-05-11T15:00:35Z</time>
      </trkpt>
      <trkpt lat="43.20436" lon="2.3148">
        <ele>118.2</ele>
        <time>2024-05-11T15:00:36Z</time>
      </trkpt>
      <trkpt lat="43.20444" lon="2.3148">
        <ele>118</ele>
        <time>2024-05-11T15:00:37Z</time>
      </trkpt>
      <trkpt lat="43.20452" lon="2.31481">
        <ele>118.2</ele>
        <time>2024-05-11T15:00:38Z</time>
      </trkpt>
      <trkpt lat="43.2046" lon="2.3148">
        <ele>118.4</ele>
        <time>2024-05-11T15:00:39Z</time>
      </trkpt>
      <trkpt lat="43.20467" lon="2.3148">
        <ele>118.6</ele>
        <time>2024-05-11T15:00:40Z</time>
      </trkpt>
      <trkpt lat="43.20476" lon="2.3148">
        <ele>118.6</ele>
        <time>2024-05-11T15:00:41Z</time>
      </trkpt>
      <trkpt lat="43.20485" lon="2.31481">
        <ele>118.4</ele>
        <time>2024-05-11T15:00:42Z</time>
      </trkpt>
      <trkpt lat="43.20494" lon="2.31481">
        <ele>118.1</ele>
        <time>2024-05-11T15:00:43Z</time>
      </trkpt>
      <trkpt lat="43.20505" lon="2.31481">
        <ele>118</ele>
        <time>2024-05-11T15:00:44Z</time>
      </trkpt>
      <trkpt lat="43.20516" lon="2.3148">
        <ele>118</ele>
        <time>2024-05-11T15:00:45Z</time>
      </trkpt>
      <trkpt lat="43.20527" lon="2.3148">
        <ele>118</ele>
        <time>2024-05-11T15:00:46Z</time>
      </trkpt>
      <trkpt lat="43.20537" lon="2.31479">
        <ele>118</ele>
        <time>2024-05-11T15:00:47Z</time>
      </trkpt>
      <trkpt lat="43.20547" lon="2.31479">
        <ele>118</ele>
        <time>2024-05-11T15:00:48Z</time>
      </trkpt>
      <trkpt lat="43.20556" lon="2.31478">
        <ele>118</ele>
        <time>2024-05-11T15:00:49Z</time>
      </trkpt>
      <trkpt lat="43.20565" lon="2.31478">
        <ele>118</ele>
        <time>2024-05-11T15:00:50Z</time>
      </trkpt>
      <trkpt lat="43.20573" lon="2.31478">
        <ele>118</ele>
        <time>2024-05-11T15:00:51Z</time>
      </trkpt>
      <trkpt lat="43.20582" lon="2.31477">
        <ele>118</ele>
        <time>2024-05-11T15:00:52Z</time>
      </trkpt>
      <trkpt lat="43.2059" lon="2.31477">
        <ele>118</ele>
        <time>2024-05-11T15:00:53Z</time>
      </trkpt>
      <trkpt lat="43.20599" lon="2.31476">
        <ele>118</ele>
        <time>2024-05-11T15:00:54Z</time>
      </trkpt>
      <trkpt lat="43.20608" lon="2.31476">
        <ele>118</ele>
        <time>2024-05-11T15:00:55Z</time>
      </trkpt>
      <trkpt lat="43.20618" lon="2.31476">
        <ele>118</ele>
        <time>2024-05-11T15:00:56Z</time>
      </trkpt>
      <trkpt lat="43.20627" lon="2.31475">
        <ele>118</ele>
        <time>2024-05-11T15:00:57Z</time>
      </trkpt>
      <trkpt lat="43.20636" lon="2.31475">
        <ele>118</ele>
        <time>2024-05-11T15:00:58Z</time>
      </trkpt>
      <trkpt lat="43.20646" lon="2.31475">
        <ele>118</ele>
        <time>2024-05-11T15:00:59Z</time>
      </trkpt>
      <trkpt lat="43.20656" lon="2.31474">
        <ele>118</ele>
        <time>2024-05-11T15:01:00Z</time>
      </trkpt>
      <trkpt lat="43.20667" lon="2.31473">
        <ele>118</ele>
        <time>2024-05-11T15:01:01Z</time>
      </trkpt>
      <trkpt lat="43.20677" lon="2.31472">
        <ele>118</ele>
        <time>2024-05-11T15:01:02Z</time>
      </trkpt>
      <trkpt lat="43.20687" lon="2.31472">
        <ele>118</ele>
        <time>2024-05-11T15:01:03Z</time>
      </trkpt>
      <trkpt lat="43.20695" lon="2.31471">
        <ele>118</ele>
        <time>2024-05-11T15:01:04Z</time>
      </trkpt>
      <trkpt lat="43.20704" lon="2.3147">
        <ele>117.7</ele>
        <time>2024-05-11T15:01:05Z</time>
      </trkpt>
      <trkpt lat="43.20712" lon="2.3147">
        <ele>117.4</ele>
        <time>2024-05-11T15:01:06Z</time>
      </trkpt>
      <trkpt lat="43.2072" lon="2.3147">
        <ele>117.2</ele>
        <time>2024-05-11T15:01:07Z</time>
      </trkpt>
      <trkpt lat="43.20728" lon="2.3147">
        <ele>117.1</ele>
        <time>2024-05-11T15:01:08Z</time>
      </trkpt>
      <trkpt lat="43.20735" lon="2.31469">
        <ele>117.1</ele>
        <time>2024-05-11T15:01:09Z</time>
      </trkpt>
      <trkpt lat="43.20741" lon="2.3147">
        <ele>117</ele>
        <time>2024-05-11T15:01:10Z</time>
      </trkpt>
      <trkpt lat="43.20747" lon="2.31473">
        <ele>117</ele>
        <time>2024-05-11T15:01:11Z</time>
      </trkpt>
      <trkpt lat="43.20754" lon="2.31476">
        <ele>117</ele>
        <time>2024-05-11T15:01:12Z</time>
      </trkpt>
      <trkpt lat="43.20761" lon="2.31478">
        <ele>117</ele>
        <time>2024-05-11T15:01:13Z</time>
      </trkpt>
      <trkpt lat="43.20767" lon="2.31476">
        <ele>117</ele>
        <time>2024-05-11T15:01:14Z</time>
      </trkpt>
      <trkpt lat="43.20771" lon="2.3147">
        <ele>117</ele>
        <time>2024-05-11T15:01:15Z</time>
      </trkpt>
      <trkpt lat="43.20772" lon="2.31463">
        <ele>117</ele>
        <time>2024-05-11T15:01:16Z</time>
      </trkpt>
      <trkpt lat="43.2077" lon="2.31454">
        <ele>117</ele>
        <time>2024-05-11T15:01:17Z</time>
      </trkpt>
      <trkpt lat="43.20767" lon="2.31445">
        <ele>117</ele>
        <time>2024-05-11T15:01:18Z</time>
      </trkpt>
      <trkpt lat="43.20765" lon="2.31433">
        <ele>117</ele>
        <time>2024-05-11T15:01:19Z</time>
      </trkpt>
      <trkpt lat="43.20765" lon="2.31418">
        <ele>117</ele>
        <time>2024-05-11T15:01:20Z</time>
      </trkpt>
      <trkpt lat="43.20767" lon="2.31403">
        <ele>117.2</ele>
        <time>2024-05-11T15:01:21Z</time>
      </trkpt>
      <trkpt lat="43.20769" lon="2.31387">
        <ele>117.3</ele>
        <time>2024-05-11T15:01:22Z</time>
      </trkpt>
      <trkpt lat="43.20771" lon="2.31372">
        <ele>117.2</ele>
        <time>2024-05-11T15:01:23Z</time>
      </trkpt>
      <trkpt lat="43.20772" lon="2.31359">
        <ele>117.3</ele>
        <time>2024-05-11T15:01:24Z</time>
      </trkpt>
      <trkpt lat="43.20774" lon="2.31346">
        <ele>117.6</ele>
        <time>2024-05-11T15:01:25Z</time>
      </trkpt>
      <trkpt lat="43.20776" lon="2.31334">
        <ele>118</ele>
        <time>2024-05-11T15:01:26Z</time>
      </trkpt>
      <trkpt lat="43.20777" lon="2.31323">
        <ele>118</ele>
        <time>2024-05-11T15:01:27Z</time>
      </trkpt>
      <trkpt lat="43.20779" lon="2.31312">
        <ele>118</ele>
        <time>2024-05-11T15:01:28Z</time>
      </trkpt>
      <trkpt lat="43.20781" lon="2.31302">
        <ele>117.8</ele>
        <time>2024-05-11T15:01:29Z</time>
      </trkpt>
      <trkpt lat="43.20782" lon="2.3129">
        <ele>117.4</ele>
        <time>2024-05-11T15:01:30Z</time>
      </trkpt>
      <trkpt lat="43.20784" lon="2.31277">
        <ele>117</ele>
        <time>2024-05-11T15:01:31Z</time>
      </trkpt>
      <trkpt lat="43.20786" lon="2.31264">
        <ele>117.5</ele>
        <time>2024-05-11T15:01:32Z</time>
      </trkpt>
      <trkpt lat="43.20787" lon="2.31251">
        <ele>118</ele>
        <time>2024-05-11T15:01:33Z</time>
      </trkpt>
      <trkpt lat="43.20789" lon="2.31238">
        <ele>117.7</ele>
        <time>2024-05-11T15:01:34Z</time>
      </trkpt>
      <trkpt lat="43.20791" lon="2.31225">
        <ele>117.5</ele>
        <time>2024-05-11T15:01:35Z</time>
      </trkpt>
      <trkpt lat="43.20793" lon="2.31212">
        <ele>117.7</ele>
        <time>2024-05-11T15:01:36Z</time>
      </trkpt>
      <trkpt lat="43.20794" lon="2.31199">
        <ele>117.9</ele>
        <time>2024-05-11T15:01:37Z</time>
      </trkpt>
      <trkpt lat="43.20797" lon="2.31187">
        <ele>118</ele>
        <time>2024-05-11T15:01:38Z</time>
      </trkpt>
      <trkpt lat="43.20799" lon="2.31175">
        <ele>117.8</ele>
        <time>2024-05-11T15:01:39Z</time>
      </trkpt>
      <trkpt lat="43.20801" lon="2.31163">
        <ele>117.5</ele>
        <time>2024-05-11T15:01:40Z</time>
      </trkpt>
      <trkpt lat="43.20803" lon="2.31154">
        <ele>117.3</ele>
        <time>2024-05-11T15:01:41Z</time>
      </trkpt>
      <trkpt lat="43.20805" lon="2.31142">
        <ele>117.1</ele>
        <time>2024-05-11T15:01:42Z</time>
      </trkpt>
      <trkpt lat="43.20809" lon="2.3113">
        <ele>118</ele>
        <time>2024-05-11T15:01:43Z</time>
      </trkpt>
      <trkpt lat="43.20812" lon="2.31119">
        <ele>118.7</ele>
        <time>2024-05-11T15:01:44Z</time>
      </trkpt>
      <trkpt lat="43.20815" lon="2.31108">
        <ele>119.1</ele>
        <time>2024-05-11T15:01:45Z</time>
      </trkpt>
      <trkpt lat="43.20817" lon="2.31099">
        <ele>119.3</ele>
        <time>2024-05-11T15:01:46Z</time>
      </trkpt>
      <trkpt lat="43.2082" lon="2.31092">
        <ele>119.3</ele>
        <time>2024-05-11T15:01:47Z</time>
      </trkpt>
      <trkpt lat="43.20822" lon="2.31085">
        <ele>119.4</ele>
        <time>2024-05-11T15:01:48Z</time>
      </trkpt>
      <trkpt lat="43.20825" lon="2.31078">
        <ele>119.4</ele>
        <time>2024-05-11T15:01:49Z</time>
      </trkpt>
      <trkpt lat="43.20828" lon="2.31069">
        <ele>119.3</ele>
        <time>2024-05-11T15:01:50Z</time>
      </trkpt>
      <trkpt lat="43.20831" lon="2.31062">
        <ele>119.1</ele>
        <time>2024-05-11T15:01:51Z</time>
      </trkpt>
      <trkpt lat="43.20835" lon="2.31056">
        <ele>119.1</ele>
        <time>2024-05-11T15:01:52Z</time>
      </trkpt>
      <trkpt lat="43.20839" lon="2.31051">
        <ele>119.3</ele>
        <time>2024-05-11T15:01:53Z</time>
      </trkpt>
      <trkpt lat="43.20844" lon="2.31048">
        <ele>119.6</ele>
        <time>2024-05-11T15:01:54Z</time>
      </trkpt>
      <trkpt lat="43.2085" lon="2.31045">
        <ele>119.8</ele>
        <time>2024-05-11T15:01:55Z</time>
      </trkpt>
      <trkpt lat="43.20858" lon="2.31043">
        <ele>119.9</ele>
        <time>2024-05-11T15:01:56Z</time>
      </trkpt>
      <trkpt lat="43.20866" lon="2.3104">
        <ele>120.1</ele>
        <time>2024-05-11T15:01:57Z</time>
      </trkpt>
      <trkpt lat="43.20872" lon="2.31034">
        <ele>120.1</ele>
        <time>2024-05-11T15:01:58Z</time>
      </trkpt>
      <trkpt lat="43.20877" lon="2.31026">
        <ele>120</ele>
        <time>2024-05-11T15:01:59Z</time>
      </trkpt>
      <trkpt lat="43.20879" lon="2.31016">
        <ele>120.3</ele>
        <time>2024-05-11T15:02:00Z</time>
      </trkpt>
      <trkpt lat="43.20877" lon="2.31007">
        <ele>120.4</ele>
        <time>2024-05-11T15:02:01Z</time>
      </trkpt>
      <trkpt lat="43.20872" lon="2.30999">
        <ele>120.4</ele>
        <time>2024-05-11T15:02:02Z</time>
      </trkpt>
      <trkpt lat="43.20866" lon="2.30994">
        <ele>120.2</ele>
        <time>2024-05-11T15:02:03Z</time>
      </trkpt>
      <trkpt lat="43.20858" lon="2.30993">
        <ele>120.1</ele>
        <time>2024-05-11T15:02:04Z</time>
      </trkpt>
      <trkpt lat="43.2085" lon="2.30994">
        <ele>120.4</ele>
        <time>2024-05-11T15:02:05Z</time>
      </trkpt>
      <trkpt lat="43.20843" lon="2.30994">
        <ele>120.7</ele>
        <time>2024-05-11T15:02:06Z</time>
      </trkpt>
      <trkpt lat="43.20836" lon="2.30994">
        <ele>120.9</ele>
        <time>2024-05-11T15:02:07Z</time>
      </trkpt>
      <trkpt lat="43.20831" lon="2.30993">
        <ele>121</ele>
        <time>2024-05-11T15:02:08Z</time>
      </trkpt>
      <trkpt lat="43.20827" lon="2.30993">
        <ele>121.1</ele>
        <time>2024-05-11T15:02:09Z</time>
      </trkpt>
      <trkpt lat="43.20823" lon="2.30994">
        <ele>121.1</ele>
        <time>2024-05-11T15:02:10Z</time>
      </trkpt>
      <trkpt lat="43.20819" lon="2.30996">
        <ele>121.1</ele>
        <time>2024-05-11T15:02:11Z</time>
      </trkpt>
      <trkpt lat="43.20815" lon="2.31">
        <ele>121</ele>
        <time>2024-05-11T15:02:12Z</time>
      </trkpt>
      <trkpt lat="43.20812" lon="2.31005">
        <ele>121</ele>
        <time>2024-05-11T15:02:13Z</time>
      </trkpt>
      <trkpt lat="43.20809" lon="2.3101">
        <ele>121</ele>
        <time>2024-05-11T15:02:14Z</time>
      </trkpt>
      <trkpt lat="43.20806" lon="2.31014">
        <ele>121</ele>
        <time>2024-05-11T15:02:15Z</time>
      </trkpt>
      <trkpt lat="43.20803" lon="2.31018">
        <ele>121</ele>
        <time>2024-05-11T15:02:16Z</time>
      </trkpt>
      <trkpt lat="43.208" lon="2.31021">
        <ele>121</ele>
        <time>2024-05-11T15:02:17Z</time>
      </trkpt>
      <trkpt lat="43.20798" lon="2.31024">
        <ele>121</ele>
        <time>2024-05-11T15:02:18Z</time>
      </trkpt>
      <trkpt lat="43.20795" lon="2.31028">
        <ele>121</ele>
        <time>2024-05-11T15:02:19Z</time>
      </trkpt>
      <trkpt lat="43.20794" lon="2.31031">
        <ele>121</ele>
        <time>2024-05-11T15:02:20Z</time>
      </trkpt>
      <trkpt lat="43.20791" lon="2.31035">
        <ele>121</ele>
        <time>2024-05-11T15:02:21Z</time>
      </trkpt>
      <trkpt lat="43.2079" lon="2.31039">
        <ele>121</ele>
        <time>2024-05-11T15:02:22Z</time>
      </trkpt>
      <trkpt lat="43.20788" lon="2.31043">
        <ele>121</ele>
        <time>2024-05-11T15:02:23Z</time>
      </trkpt>
      <trkpt lat="43.20786" lon="2.31048">
        <ele>121</ele>
        <time>2024-05-11T15:02:24Z</time>
      </trkpt>
      <trkpt lat="43.20784" lon="2.31054">
        <ele>121</ele>
        <time>2024-05-11T15:02:25Z</time>
      </trkpt>
      <trkpt lat="43.20782" lon="2.31061">
        <ele>121</ele>
        <time>2024-05-11T15:02:26Z</time>
      </trkpt>
      <trkpt lat="43.20779" lon="2.31068">
        <ele>121</ele>
        <time>2024-05-11T15:02:27Z</time>
      </trkpt>
      <trkpt lat="43.20776" lon="2.31076">
        <ele>121</ele>
        <time>2024-05-11T15:02:28Z</time>
      </trkpt>
      <trkpt lat="43.20773" lon="2.31083">
        <ele>121</ele>
        <time>2024-05-11T15:02:29Z</time>
      </trkpt>
      <trkpt lat="43.20769" lon="2.3109">
        <ele>120.8</ele>
        <time>2024-05-11T15:02:30Z</time>
      </trkpt>
      <trkpt lat="43.20766" lon="2.31097">
        <ele>120.7</ele>
        <time>2024-05-11T15:02:31Z</time>
      </trkpt>
      <trkpt lat="43.20763" lon="2.31104">
        <ele>120.7</ele>
        <time>2024-05-11T15:02:32Z</time>
      </trkpt>
      <trkpt lat="43.20761" lon="2.3111">
        <ele>120.6</ele>
        <time>2024-05-11T15:02:33Z</time>
      </trkpt>
      <trkpt lat="43.20761" lon="2.31116">
        <ele>120.7</ele>
        <time>2024-05-11T15:02:34Z</time>
      </trkpt>
      <trkpt lat="43.20763" lon="2.3112">
        <ele>120.7</ele>
        <time>2024-05-11T15:02:35Z</time>
      </trkpt>
      <trkpt lat="43.20766" lon="2.31121">
        <ele>120.6</ele>
        <time>2024-05-11T15:02:36Z</time>
      </trkpt>
      <trkpt lat="43.20769" lon="2.31121">
        <ele>120.6</ele>
        <time>2024-05-11T15:02:37Z</time>
      </trkpt>
      <trkpt lat="43.20773" lon="2.31119">
        <ele>120.4</ele>
        <time>2024-05-11T15:02:38Z</time>
      </trkpt>
      <trkpt lat="43.20777" lon="2.31117">
        <ele>120.2</ele>
        <time>2024-05-11T15:02:39Z</time>
      </trkpt>
      <trkpt lat="43.2078" lon="2.31114">
        <ele>120</ele>
        <time>2024-05-11T15:02:40Z</time>
      </trkpt>
      <trkpt lat="43.20783" lon="2.31111">
        <ele>119.8</ele>
        <time>2024-05-11T15:02:41Z</time>
      </trkpt>
      <trkpt lat="43.20785" lon="2.31107">
        <ele>119.9</ele>
        <time>2024-05-11T15:02:42Z</time>
      </trkpt>
      <trkpt lat="43.20786" lon="2.31105">
        <ele>119.9</ele>
        <time>2024-05-11T15:02:43Z</time>
      </trkpt>
      <trkpt lat="43.20788" lon="2.31102">
        <ele>120</ele>
        <time>2024-05-11T15:02:44Z</time>
      </trkpt>
      <trkpt lat="43.20789" lon="2.311">
        <ele>120</ele>
        <time>2024-05-11T15:02:45Z</time>
      </trkpt>
      <trkpt lat="43.20791" lon="2.31098">
        <ele>120</ele>
        <time>2024-05-11T15:02:46Z</time>
      </trkpt>
      <trkpt lat="43.20793" lon="2.31095">
        <ele>120</ele>
        <time>2024-05-11T15:02:47Z</time>
      </trkpt>
      <trkpt lat="43.20794" lon="2.31091">
        <ele>120.1</ele>
        <time>2024-05-11T15:02:48Z</time>
      </trkpt>
      <trkpt lat="43.20795" lon="2.31086">
        <ele>120.3</ele>
        <time>2024-05-11T15:02:49Z</time>
      </trkpt>
      <trkpt lat="43.20796" lon="2.31081">
        <ele>120.4</ele>
        <time>2024-05-11T15:02:50Z</time>
      </trkpt>
      <trkpt lat="43.20797" lon="2.31078">
        <ele>120.4</ele>
        <time>2024-05-11T15:02:51Z</time>
      </trkpt>
      <trkpt lat="43.20797" lon="2.31075">
        <ele>120.5</ele>
        <time>2024-05-11T15:02:52Z</time>
      </trkpt>
      <trkpt lat="43.20797" lon="2.31073">
        <ele>120.6</ele>
        <time>2024-05-11T15:02:53Z</time>
      </trkpt>
      <trkpt lat="43.20797" lon="2.31071">
        <ele>120.6</ele>
        <time>2024-05-11T15:02:54Z</time>
      </trkpt>
      <trkpt lat="43.20797" lon="2.31069">
        <ele>120.7</ele>
        <time>2024-05-11T15:02:55Z</time>
      </trkpt>
      <trkpt lat="43.20796" lon="2.31069">
        <ele>120.7</ele>
        <time>2024-05-11T15:02:56Z</time>
      </trkpt>
      <trkpt lat="43.20796" lon="2.31068">
        <ele>120.7</ele>
        <time>2024-05-11T15:02:57Z</time>
      </trkpt>
      <trkpt lat="43.20795" lon="2.31068">
        <ele>120.7</ele>
        <time>2024-05-11T15:02:58Z</time>
      </trkpt>
      <trkpt lat="43.20795" lon="2.31068">
        <ele>120.7</ele>
        <time>2024-05-11T15:02:59Z</time>
      </trkpt>
      <trkpt lat="43.20795" lon="2.31068">
        <ele>120.7</ele>
        <time>2024-05-11T15:03:00Z</time>
      </trkpt>
      <trkpt lat="43.20795" lon="2.31068">
        <ele>120.7</ele>
        <time>2024-05-11T15:03:01Z</time>
      </trkpt>
      <trkpt lat="43.20795" lon="2.31068">
        <ele>120.7</ele>
        <time>2024-05-11T15:03:02Z</time>
      </trkpt>
      <trkpt lat="43.20795" lon="2.31068">
        <ele>120.7</ele>
        <time>2024-05-11T15:03:03Z</time>
      </trkpt>
      <trkpt lat="43.20795" lon="2.31068">
        <ele>120.7</ele>
        <time>2024-05-11T15:03:04Z</time>
      </trkpt>
      <trkpt lat="43.20795" lon="2.31068">
        <ele>120.7</ele>
        <time>2024-05-11T15:03:05Z</time>
      </trkpt>
      <trkpt lat="43.20795" lon="2.31068">
        <ele>120.7</ele>
        <time>2024-05-11T15:03:06Z</time>
      </trkpt>
      <trkpt lat="43.20795" lon="2.31068">
        <ele>120.7</ele>
        <time>2024-05-11T15:03:07Z</time>
      </trkpt>
      <trkpt lat="43.20795" lon="2.31068">
        <ele>120.7</ele>
        <time>2024-05-11T15:03:08Z</time>
      </trkpt>
      <trkpt lat="43.20796" lon="2.31068">
        <ele>120.7</ele>
        <time>2024-05-11T15:03:09Z</time>
      </trkpt>
      <trkpt lat="43.20796" lon="2.31067">
        <ele>120.7</ele>
        <time>2024-05-11T15:03:10Z</time>
      </trkpt>
      <trkpt lat="43.20796" lon="2.31067">
        <ele>120.7</ele>
        <time>2024-05-11T15:03:11Z</time>
      </trkpt>
      <trkpt lat="43.20796" lon="2.31067">
        <ele>120.7</ele>
        <time>2024-05-11T15:03:12Z</time>
      </trkpt>
      <trkpt lat="43.20796" lon="2.31067">
        <ele>120.7</ele>
        <time>2024-05-11T15:03:13Z</time>
      </trkpt>
      <trkpt lat="43.20797" lon="2.31068">
        <ele>120.7</ele>
        <time>2024-05-11T15:03:14Z</time>
      </trkpt>
      <trkpt lat="43.20797" lon="2.31068">
        <ele>120.7</ele>
        <time>2024-05-11T15:03:15Z</time>
      </trkpt>
      <trkpt lat="43.20797" lon="2.31068">
        <ele>120.7</ele>
        <time>2024-05-11T15:03:16Z</time>
      </trkpt>
      <trkpt lat="43.20797" lon="2.31068">
        <ele>120.7</ele>
        <time>2024-05-11T15:03:17Z</time>
      </trkpt>
      <trkpt lat="43.20798" lon="2.3108">
        <ele>120.4</ele>
        <time>2024-05-11T15:06:06Z</time>
      </trkpt>
      <trkpt lat="43.20796" lon="2.31075">
        <ele>120.5</ele>
        <time>2024-05-11T15:06:07Z</time>
      </trkpt>
      <trkpt lat="43.20797" lon="2.31072">
        <ele>120.6</ele>
        <time>2024-05-11T15:06:08Z</time>
      </trkpt>
      <trkpt lat="43.208" lon="2.31071">
        <ele>120.6</ele>
        <time>2024-05-11T15:06:09Z</time>
      </trkpt>
      <trkpt lat="43.20798" lon="2.31073">
        <ele>120.5</ele>
        <time>2024-05-11T15:06:10Z</time>
      </trkpt>
      <trkpt lat="43.20794" lon="2.31072">
        <ele>120.7</ele>
        <time>2024-05-11T15:06:11Z</time>
      </trkpt>
      <trkpt lat="43.20796" lon="2.31073">
        <ele>120.6</ele>
        <time>2024-05-11T15:06:12Z</time>
      </trkpt>
      <trkpt lat="43.20794" lon="2.31071">
        <ele>120.7</ele>
        <time>2024-05-11T15:06:13Z</time>
      </trkpt>
      <trkpt lat="43.20796" lon="2.31064">
        <ele>120.8</ele>
        <time>2024-05-11T15:06:14Z</time>
      </trkpt>
      <trkpt lat="43.20795" lon="2.31062">
        <ele>120.9</ele>
        <time>2024-05-11T15:06:15Z</time>
      </trkpt>
      <trkpt lat="43.20794" lon="2.3106">
        <ele>120.9</ele>
        <time>2024-05-11T15:06:16Z</time>
      </trkpt>
      <trkpt lat="43.20795" lon="2.3106">
        <ele>120.9</ele>
        <time>2024-05-11T15:06:17Z</time>
      </trkpt>
      <trkpt lat="43.20795" lon="2.3106">
        <ele>120.9</ele>
        <time>2024-05-11T15:06:18Z</time>
      </trkpt>
      <trkpt lat="43.20796" lon="2.3106">
        <ele>120.9</ele>
        <time>2024-05-11T15:06:19Z</time>
      </trkpt>
      <trkpt lat="43.20796" lon="2.3106">
        <ele>120.9</ele>
        <time>2024-05-11T15:06:20Z</time>
      </trkpt>
      <trkpt lat="43.20797" lon="2.31059">
        <ele>120.9</ele>
        <time>2024-05-11T15:06:21Z</time>
      </trkpt>
      <trkpt lat="43.20797" lon="2.31059">
        <ele>120.9</ele>
        <time>2024-05-11T15:06:22Z</time>
      </trkpt>
      <trkpt lat="43.20797" lon="2.3106">
        <ele>120.9</ele>
        <time>2024-05-11T15:06:23Z</time>
      </trkpt>
      <trkpt lat="43.20797" lon="2.3106">
        <ele>120.9</ele>
        <time>2024-05-11T15:06:24Z</time>
      </trkpt>
      <trkpt lat="43.20797" lon="2.31059">
        <ele>120.9</ele>
        <time>2024-05-11T15:06:25Z</time>
      </trkpt>
      <trkpt lat="43.20797" lon="2.31059">
        <ele>120.9</ele>
        <time>2024-05-11T15:06:26Z</time>
      </trkpt>
      <trkpt lat="43.20797" lon="2.31059">
        <ele>120.9</ele>
        <time>2024-05-11T15:06:27Z</time>
      </trkpt>
      <trkpt lat="43.20797" lon="2.31059">
        <ele>120.9</ele>
        <time>2024-05-11T15:06:28Z</time>
      </trkpt>
      <trkpt lat="43.20796" lon="2.31058">
        <ele>120.9</ele>
        <time>2024-05-11T15:06:29Z</time>
      </trkpt>
      <trkpt lat="43.20796" lon="2.31056">
        <ele>121</ele>
        <time>2024-05-11T15:06:30Z</time>
      </trkpt>
      <trkpt lat="43.20797" lon="2.31051">
        <ele>121</ele>
        <time>2024-05-11T15:06:31Z</time>
      </trkpt>
      <trkpt lat="43.20799" lon="2.31046">
        <ele>121</ele>
        <time>2024-05-11T15:06:32Z</time>
      </trkpt>
      <trkpt lat="43.20801" lon="2.31041">
        <ele>121</ele>
        <time>2024-05-11T15:06:33Z</time>
      </trkpt>
      <trkpt lat="43.20803" lon="2.31037">
        <ele>121</ele>
        <time>2024-05-11T15:06:34Z</time>
      </trkpt>
      <trkpt lat="43.20805" lon="2.31033">
        <ele>121</ele>
        <time>2024-05-11T15:06:35Z</time>
      </trkpt>
      <trkpt lat="43.20807" lon="2.31029">
        <ele>120.9</ele>
        <time>2024-05-11T15:06:36Z</time>
      </trkpt>
      <trkpt lat="43.20809" lon="2.31024">
        <ele>120.9</ele>
        <time>2024-05-11T15:06:37Z</time>
      </trkpt>
      <trkpt lat="43.20812" lon="2.3102">
        <ele>120.8</ele>
        <time>2024-05-11T15:06:38Z</time>
      </trkpt>
      <trkpt lat="43.20815" lon="2.31016">
        <ele>120.8</ele>
        <time>2024-05-11T15:06:39Z</time>
      </trkpt>
      <trkpt lat="43.20818" lon="2.31012">
        <ele>120.8</ele>
        <time>2024-05-11T15:06:40Z</time>
      </trkpt>
      <trkpt lat="43.20822" lon="2.3101">
        <ele>120.8</ele>
        <time>2024-05-11T15:06:41Z</time>
      </trkpt>
      <trkpt lat="43.20829" lon="2.31013">
        <ele>120.6</ele>
        <time>2024-05-11T15:06:42Z</time>
      </trkpt>
      <trkpt lat="43.20833" lon="2.31014">
        <ele>120.5</ele>
        <time>2024-05-11T15:06:43Z</time>
      </trkpt>
      <trkpt lat="43.20836" lon="2.31016">
        <ele>120.4</ele>
        <time>2024-05-11T15:06:44Z</time>
      </trkpt>
      <trkpt lat="43.20837" lon="2.31017">
        <ele>120.3</ele>
        <time>2024-05-11T15:06:45Z</time>
      </trkpt>
      <trkpt lat="43.20837" lon="2.31018">
        <ele>120.3</ele>
        <time>2024-05-11T15:06:46Z</time>
      </trkpt>
      <trkpt lat="43.20837" lon="2.31018">
        <ele>120.3</ele>
        <time>2024-05-11T15:06:47Z</time>
      </trkpt>
      <trkpt lat="43.20837" lon="2.31018">
        <ele>120.3</ele>
        <time>2024-05-11T15:06:48Z</time>
      </trkpt>
      <trkpt lat="43.20837" lon="2.31018">
        <ele>120.3</ele>
        <time>2024-05-11T15:06:49Z</time>
      </trkpt>
      <trkpt lat="43.20837" lon="2.31018">
        <ele>120.3</ele>
        <time>2024-05-11T15:06:50Z</time>
      </trkpt>
      <trkpt lat="43.20837" lon="2.31018">
        <ele>120.3</ele>
        <time>2024-05-11T15:06:51Z</time>
      </trkpt>
      <trkpt lat="43.20837" lon="2.31018">
        <ele>120.3</ele>
        <time>2024-05-11T15:06:52Z</time>
      </trkpt>
      <trkpt lat="43.20837" lon="2.31018">
        <ele>120.3</ele>
        <time>2024-05-11T15:06:53Z</time>
      </trkpt>
      <trkpt lat="43.20837" lon="2.31018">
        <ele>120.3</ele>
        <time>2024-05-11T15:06:54Z</time>
      </trkpt>
      <trkpt lat="43.20837" lon="2.31018">
        <ele>120.3</ele>
        <time>2024-05-11T15:06:55Z</time>
      </trkpt>
      <trkpt lat="43.20836" lon="2.31018">
        <ele>120.3</ele>
        <time>2024-05-11T15:06:56Z</time>
      </trkpt>
      <trkpt lat="43.20836" lon="2.31018">
        <ele>120.3</ele>
        <time>2024-05-11T15:06:57Z</time>
      </trkpt>
      <trkpt lat="43.20836" lon="2.31018">
        <ele>120.3</ele>
        <time>2024-05-11T15:06:58Z</time>
      </trkpt>
      <trkpt lat="43.20836" lon="2.31018">
        <ele>120.3</ele>
        <time>2024-05-11T15:06:59Z</time>
      </trkpt>
      <trkpt lat="43.20837" lon="2.31019">
        <ele>120.3</ele>
        <time>2024-05-11T15:07:00Z</time>
      </trkpt>
      <trkpt lat="43.20838" lon="2.31022">
        <ele>120.2</ele>
        <time>2024-05-11T15:07:01Z</time>
      </trkpt>
      <trkpt lat="43.20838" lon="2.31028">
        <ele>120</ele>
        <time>2024-05-11T15:07:02Z</time>
      </trkpt>
      <trkpt lat="43.20837" lon="2.31034">
        <ele>119.8</ele>
        <time>2024-05-11T15:07:03Z</time>
      </trkpt>
      <trkpt lat="43.20835" lon="2.31043">
        <ele>119.5</ele>
        <time>2024-05-11T15:07:04Z</time>
      </trkpt>
      <trkpt lat="43.20831" lon="2.31053">
        <ele>119.3</ele>
        <time>2024-05-11T15:07:05Z</time>
      </trkpt>
      <trkpt lat="43.20828" lon="2.31062">
        <ele>119.3</ele>
        <time>2024-05-11T15:07:06Z</time>
      </trkpt>
      <trkpt lat="43.20825" lon="2.31072">
        <ele>119.4</ele>
        <time>2024-05-11T15:07:07Z</time>
      </trkpt>
      <trkpt lat="43.20821" lon="2.31082">
        <ele>119.5</ele>
        <time>2024-05-11T15:07:08Z</time>
      </trkpt>
      <trkpt lat="43.20816" lon="2.31094">
        <ele>119.4</ele>
        <time>2024-05-11T15:07:09Z</time>
      </trkpt>
      <trkpt lat="43.20812" lon="2.31109">
        <ele>119.1</ele>
        <time>2024-05-11T15:07:10Z</time>
      </trkpt>
      <trkpt lat="43.20808" lon="2.31123">
        <ele>118.3</ele>
        <time>2024-05-11T15:07:11Z</time>
      </trkpt>
      <trkpt lat="43.20804" lon="2.31138">
        <ele>117.3</ele>
        <time>2024-05-11T15:07:12Z</time>
      </trkpt>
      <trkpt lat="43.208" lon="2.31153">
        <ele>117.7</ele>
        <time>2024-05-11T15:07:13Z</time>
      </trkpt>
      <trkpt lat="43.20796" lon="2.31169">
        <ele>118</ele>
        <time>2024-05-11T15:07:14Z</time>
      </trkpt>
      <trkpt lat="43.20793" lon="2.31185">
        <ele>118.1</ele>
        <time>2024-05-11T15:07:15Z</time>
      </trkpt>
      <trkpt lat="43.2079" lon="2.31202">
        <ele>117.8</ele>
        <time>2024-05-11T15:07:16Z</time>
      </trkpt>
      <trkpt lat="43.20787" lon="2.31219">
        <ele>117.4</ele>
        <time>2024-05-11T15:07:17Z</time>
      </trkpt>
      <trkpt lat="43.20785" lon="2.31235">
        <ele>117.6</ele>
        <time>2024-05-11T15:07:18Z</time>
      </trkpt>
      <trkpt lat="43.20783" lon="2.31249">
        <ele>118</ele>
        <time>2024-05-11T15:07:19Z</time>
      </trkpt>
      <trkpt lat="43.20781" lon="2.31263">
        <ele>117.5</ele>
        <time>2024-05-11T15:07:20Z</time>
      </trkpt>
      <trkpt lat="43.2078" lon="2.31274">
        <ele>117.1</ele>
        <time>2024-05-11T15:07:21Z</time>
      </trkpt>
      <trkpt lat="43.2078" lon="2.31283">
        <ele>117.2</ele>
        <time>2024-05-11T15:07:22Z</time>
      </trkpt>
      <trkpt lat="43.20781" lon="2.3129">
        <ele>117.4</ele>
        <time>2024-05-11T15:07:23Z</time>
      </trkpt>
      <trkpt lat="43.20782" lon="2.31298">
        <ele>117.6</ele>
        <time>2024-05-11T15:07:24Z</time>
      </trkpt>
      <trkpt lat="43.20785" lon="2.31303">
        <ele>117.7</ele>
        <time>2024-05-11T15:07:25Z</time>
      </trkpt>
      <trkpt lat="43.20789" lon="2.31306">
        <ele>117.6</ele>
        <time>2024-05-11T15:07:26Z</time>
      </trkpt>
      <trkpt lat="43.20794" lon="2.31306">
        <ele>117.4</ele>
        <time>2024-05-11T15:07:27Z</time>
      </trkpt>
      <trkpt lat="43.20798" lon="2.31304">
        <ele>117.3</ele>
        <time>2024-05-11T15:07:28Z</time>
      </trkpt>
      <trkpt lat="43.20803" lon="2.31301">
        <ele>117.1</ele>
        <time>2024-05-11T15:07:29Z</time>
      </trkpt>
      <trkpt lat="43.20808" lon="2.31298">
        <ele>117.1</ele>
        <time>2024-05-11T15:07:30Z</time>
      </trkpt>
      <trkpt lat="43.20812" lon="2.31296">
        <ele>117.2</ele>
        <time>2024-05-11T15:07:31Z</time>
      </trkpt>
      <trkpt lat="43.20815" lon="2.31296">
        <ele>117.3</ele>
        <time>2024-05-11T15:07:32Z</time>
      </trkpt>
      <trkpt lat="43.20818" lon="2.31297">
        <ele>117.4</ele>
        <time>2024-05-11T15:07:33Z</time>
      </trkpt>
      <trkpt lat="43.20821" lon="2.31299">
        <ele>117.6</ele>
        <time>2024-05-11T15:07:34Z</time>
      </trkpt>
      <trkpt lat="43.20823" lon="2.313">
        <ele>117.6</ele>
        <time>2024-05-11T15:07:35Z</time>
      </trkpt>
      <trkpt lat="43.20826" lon="2.313">
        <ele>117.7</ele>
        <time>2024-05-11T15:07:36Z</time>
      </trkpt>
      <trkpt lat="43.20829" lon="2.31299">
        <ele>117.8</ele>
        <time>2024-05-11T15:07:37Z</time>
      </trkpt>
      <trkpt lat="43.20831" lon="2.31297">
        <ele>117.9</ele>
        <time>2024-05-11T15:07:38Z</time>
      </trkpt>
      <trkpt lat="43.20832" lon="2.31295">
        <ele>118</ele>
        <time>2024-05-11T15:07:39Z</time>
      </trkpt>
      <trkpt lat="43.20833" lon="2.31294">
        <ele>118</ele>
        <time>2024-05-11T15:07:40Z</time>
      </trkpt>
      <trkpt lat="43.20834" lon="2.31293">
        <ele>118</ele>
        <time>2024-05-11T15:07:41Z</time>
      </trkpt>
      <trkpt lat="43.20835" lon="2.31292">
        <ele>118</ele>
        <time>2024-05-11T15:07:42Z</time>
      </trkpt>
      <trkpt lat="43.20837" lon="2.31291">
        <ele>118</ele>
        <time>2024-05-11T15:07:43Z</time>
      </trkpt>
      <trkpt lat="43.20838" lon="2.3129">
        <ele>118</ele>
        <time>2024-05-11T15:07:44Z</time>
      </trkpt>
      <trkpt lat="43.20839" lon="2.31291">
        <ele>118</ele>
        <time>2024-05-11T15:07:45Z</time>
      </trkpt>
      <trkpt lat="43.20841" lon="2.31292">
        <ele>118</ele>
        <time>2024-05-11T15:07:46Z</time>
      </trkpt>
      <trkpt lat="43.20842" lon="2.31293">
        <ele>118</ele>
        <time>2024-05-11T15:07:47Z</time>
      </trkpt>
      <trkpt lat="43.20842" lon="2.31293">
        <ele>118</ele>
        <time>2024-05-11T15:07:48Z</time>
      </trkpt>
      <trkpt lat="43.20842" lon="2.31294">
        <ele>118</ele>
        <time>2024-05-11T15:07:49Z</time>
      </trkpt>
      <trkpt lat="43.20842" lon="2.31294">
        <ele>118</ele>
        <time>2024-05-11T15:07:50Z</time>
      </trkpt>
      <trkpt lat="43.20842" lon="2.31293">
        <ele>118</ele>
        <time>2024-05-11T15:07:51Z</time>
      </trkpt>
      <trkpt lat="43.20842" lon="2.31293">
        <ele>118</ele>
        <time>2024-05-11T15:07:52Z</time>
      </trkpt>
      <trkpt lat="43.20842" lon="2.31293">
        <ele>118</ele>
        <time>2024-05-11T15:07:53Z</time>
      </trkpt>
      <trkpt lat="43.20842" lon="2.31293">
        <ele>118</ele>
        <time>2024-05-11T15:07:54Z</time>
      </trkpt>
      <trkpt lat="43.20842" lon="2.31293">
        <ele>118</ele>
        <time>2024-05-11T15:07:55Z</time>
      </trkpt>
      <trkpt lat="43.20842" lon="2.31293">
        <ele>118</ele>
        <time>2024-05-11T15:07:56Z</time>
      </trkpt>
      <trkpt lat="43.20842" lon="2.31293">
        <ele>118</ele>
        <time>2024-05-11T15:07:57Z</time>
      </trkpt>
      <trkpt lat="43.20842" lon="2.31293">
        <ele>118</ele>
        <time>2024-05-11T15:07:58Z</time>
      </trkpt>
      <trkpt lat="43.20842" lon="2.31293">
        <ele>118</ele>
        <time>2024-05-11T15:07:59Z</time>
      </trkpt>
      <trkpt lat="43.20842" lon="2.31293">
        <ele>118</ele>
        <time>2024-05-11T15:08:00Z</time>
      </trkpt>
      <trkpt lat="43.20842" lon="2.31293">
        <ele>118</ele>
        <time>2024-05-11T15:08:01Z</time>
      </trkpt>
      <trkpt lat="43.20842" lon="2.31293">
        <ele>118</ele>
        <time>2024-05-11T15:08:02Z</time>
      </trkpt>
      <trkpt lat="43.20841" lon="2.31293">
        <ele>118</ele>
        <time>2024-05-11T15:08:03Z</time>
      </trkpt>
      <trkpt lat="43.20841" lon="2.31293">
        <ele>118</ele>
        <time>2024-05-11T15:08:04Z</time>
      </trkpt>
      <trkpt lat="43.2084" lon="2.31292">
        <ele>118</ele>
        <time>2024-05-11T15:08:05Z</time>
      </trkpt>
      <trkpt lat="43.2084" lon="2.31292">
        <ele>118</ele>
        <time>2024-05-11T15:08:06Z</time>
      </trkpt>
      <trkpt lat="43.2084" lon="2.31291">
        <ele>118</ele>
        <time>2024-05-11T15:08:07Z</time>
      </trkpt>
      <trkpt lat="43.20839" lon="2.31291">
        <ele>118</ele>
        <time>2024-05-11T15:08:08Z</time>
      </trkpt>
      <trkpt lat="43.20839" lon="2.3129">
        <ele>118</ele>
        <time>2024-05-11T15:08:09Z</time>
      </trkpt>
      <trkpt lat="43.20838" lon="2.31286">
        <ele>118</ele>
        <time>2024-05-11T15:08:18Z</time>
      </trkpt>
      <trkpt lat="43.20839" lon="2.31285">
        <ele>118</ele>
        <time>2024-05-11T15:08:19Z</time>
      </trkpt>
      <trkpt lat="43.20839" lon="2.31285">
        <ele>118</ele>
        <time>2024-05-11T15:08:20Z</time>
      </trkpt>
      <trkpt lat="43.2084" lon="2.31285">
        <ele>118</ele>
        <time>2024-05-11T15:08:21Z</time>
      </trkpt>
      <trkpt lat="43.2084" lon="2.31285">
        <ele>118</ele>
        <time>2024-05-11T15:08:22Z</time>
      </trkpt>
      <trkpt lat="43.2084" lon="2.31284">
        <ele>118</ele>
        <time>2024-05-11T15:08:23Z</time>
      </trkpt>
      <trkpt lat="43.2084" lon="2.31284">
        <ele>118</ele>
        <time>2024-05-11T15:08:24Z</time>
      </trkpt>
      <trkpt lat="43.2084" lon="2.31284">
        <ele>118</ele>
        <time>2024-05-11T15:08:25Z</time>
      </trkpt>
      <trkpt lat="43.2084" lon="2.31284">
        <ele>118</ele>
        <time>2024-05-11T15:08:26Z</time>
      </trkpt>
      <trkpt lat="43.2084" lon="2.31284">
        <ele>118</ele>
        <time>2024-05-11T15:08:27Z</time>
      </trkpt>
      <trkpt lat="43.2084" lon="2.31284">
        <ele>118</ele>
        <time>2024-05-11T15:08:28Z</time>
      </trkpt>
      <trkpt lat="43.2084" lon="2.31284">
        <ele>118</ele>
        <time>2024-05-11T15:08:29Z</time>
      </trkpt>
      <trkpt lat="43.2084" lon="2.31284">
        <ele>118</ele>
        <time>2024-05-11T15:08:30Z</time>
      </trkpt>
      <trkpt lat="43.2084" lon="2.31284">
        <ele>118</ele>
        <time>2024-05-11T15:08:31Z</time>
      </trkpt>
      <trkpt lat="43.2084" lon="2.31284">
        <ele>118</ele>
        <time>2024-05-11T15:08:32Z</time>
      </trkpt>
      <trkpt lat="43.2084" lon="2.31284">
        <ele>118</ele>
        <time>2024-05-11T15:08:33Z</time>
      </trkpt>
      <trkpt lat="43.2084" lon="2.31284">
        <ele>118</ele>
        <time>2024-05-11T15:08:34Z</time>
      </trkpt>
      <trkpt lat="43.2084" lon="2.31284">
        <ele>118</ele>
        <time>2024-05-11T15:08:35Z</time>
      </trkpt>
      <trkpt lat="43.2084" lon="2.31284">
        <ele>118</ele>
        <time>2024-05-11T15:08:36Z</time>
      </trkpt>
    </trkseg>
  </trk>
</gpx>